<?xml version="1.0" encoding="UTF-8"?>
<gpx version="1.1" creator="https://www.youtrack.es" xsi:schemaLocation="http://www.topografix.com/GPX/1/1 http://www.topografix.com/GPX/1/1/gpx.xsd http://www.garmin.com/xmlschemas/GpxExtensions/v3 http://www.garmin.com/xmlschemas/GpxExtensionsv3.xsd http://www.garmin.com/xmlschemas/TrackPointExtension/v1 http://www.garmin.com/xmlschemas/TrackPointExtensionv1.xsd" xmlns:gpxtpx="http://www.garmin.com/xmlschemas/TrackPointExtension/v1" xmlns:gpxx="http://www.garmin.com/xmlschemas/GpxExtensions/v3" xmlns:xsi="http://www.w3.org/2001/XMLSchema-instance">
  <metadata>
    <link href="https://www.youtrack.es">
      <text>YouTrack.es</text>
    </link>
    <time>2026-05-08T22:28:23Z</time>
  </metadata>
  <trk>
    <src>https://www.youtrack.es</src>
    <link href="https://www.youtrack.es/ruta/32771-epic123">
      <text>YouTrack.es</text>
    </link>
    <trkseg>
      <trkpt lat="42.431319588795304" lon="-8.647289732471108">
        <ele>18.3</ele>
        <time>2022-05-01T08:00:00.000Z</time>
      </trkpt>
      <trkpt lat="42.4308533873409" lon="-8.648071764037013">
        <ele>18.8</ele>
        <time>2022-05-01T08:00:19.023Z</time>
      </trkpt>
      <trkpt lat="42.43047469295561" lon="-8.64864818751812">
        <ele>18.5</ele>
        <time>2022-05-01T08:00:33.466Z</time>
      </trkpt>
      <trkpt lat="42.430181074887514" lon="-8.649089578539133">
        <ele>17.7</ele>
        <time>2022-05-01T08:00:44.030Z</time>
      </trkpt>
      <trkpt lat="42.42998443543911" lon="-8.649434326216578">
        <ele>17.4</ele>
        <time>2022-05-01T08:00:51.846Z</time>
      </trkpt>
      <trkpt lat="42.429893324151635" lon="-8.649671953171492">
        <ele>16.7</ele>
        <time>2022-05-01T08:00:56.640Z</time>
      </trkpt>
      <trkpt lat="42.42989156395197" lon="-8.649816373363137">
        <ele>16.1</ele>
        <time>2022-05-01T08:00:59.246Z</time>
      </trkpt>
      <trkpt lat="42.42987396195531" lon="-8.649939252063632">
        <ele>15.2</ele>
        <time>2022-05-01T08:01:01.520Z</time>
      </trkpt>
      <trkpt lat="42.429904052987695" lon="-8.650100184604526">
        <ele>14.5</ele>
        <time>2022-05-01T08:01:04.555Z</time>
      </trkpt>
      <trkpt lat="42.429976807907224" lon="-8.65013170056045">
        <ele>14.9</ele>
        <time>2022-05-01T08:01:06.455Z</time>
      </trkpt>
      <trkpt lat="42.430092226713896" lon="-8.650114433839917">
        <ele>15.9</ele>
        <time>2022-05-01T08:01:09.357Z</time>
      </trkpt>
      <trkpt lat="42.43016473017633" lon="-8.650034805759788">
        <ele>16.5</ele>
        <time>2022-05-01T08:01:11.698Z</time>
      </trkpt>
      <trkpt lat="42.43024913594127" lon="-8.649956518784165">
        <ele>16.8</ele>
        <time>2022-05-01T08:01:14.273Z</time>
      </trkpt>
      <trkpt lat="42.43034552782774" lon="-8.649879237636924">
        <ele>17.1</ele>
        <time>2022-05-01T08:01:17.099Z</time>
      </trkpt>
      <trkpt lat="42.43045608513057" lon="-8.649742361158133">
        <ele>17.5</ele>
        <time>2022-05-01T08:01:20.888Z</time>
      </trkpt>
      <trkpt lat="42.43090309202671" lon="-8.649047669023275">
        <ele>19.6</ele>
        <time>2022-05-01T08:01:38.138Z</time>
      </trkpt>
      <trkpt lat="42.43133945390582" lon="-8.648394551128149">
        <ele>20.1</ele>
        <time>2022-05-01T08:01:55.229Z</time>
      </trkpt>
      <trkpt lat="42.43160960264504" lon="-8.647984340786934">
        <ele>19.6</ele>
        <time>2022-05-01T08:02:05.854Z</time>
      </trkpt>
      <trkpt lat="42.431693924590945" lon="-8.64791326224804">
        <ele>19.3</ele>
        <time>2022-05-01T08:02:08.445Z</time>
      </trkpt>
      <trkpt lat="42.43175863288343" lon="-8.647917872294784">
        <ele>19.2</ele>
        <time>2022-05-01T08:02:10.131Z</time>
      </trkpt>
      <trkpt lat="42.43182669393718" lon="-8.647989872843027">
        <ele>19.3</ele>
        <time>2022-05-01T08:02:12.372Z</time>
      </trkpt>
      <trkpt lat="42.431988129392266" lon="-8.648199839517474">
        <ele>19.9</ele>
        <time>2022-05-01T08:02:18.171Z</time>
      </trkpt>
      <trkpt lat="42.43200480937958" lon="-8.648318946361542">
        <ele>20.0</ele>
        <time>2022-05-01T08:02:20.485Z</time>
      </trkpt>
      <trkpt lat="42.43252792395651" lon="-8.649852247908711">
        <ele>17.0</ele>
        <time>2022-05-01T08:02:50.952Z</time>
      </trkpt>
      <trkpt lat="42.43258768692613" lon="-8.649918800219893">
        <ele>16.7</ele>
        <time>2022-05-01T08:02:52.855Z</time>
      </trkpt>
      <trkpt lat="42.43266656063497" lon="-8.649870939552784">
        <ele>16.4</ele>
        <time>2022-05-01T08:02:54.994Z</time>
      </trkpt>
      <trkpt lat="42.43274811655283" lon="-8.649860043078661">
        <ele>15.9</ele>
        <time>2022-05-01T08:02:57.033Z</time>
      </trkpt>
      <trkpt lat="42.43280905298889" lon="-8.649993985891342">
        <ele>15.0</ele>
        <time>2022-05-01T08:02:59.934Z</time>
      </trkpt>
      <trkpt lat="42.432787511497736" lon="-8.65015709772706">
        <ele>14.5</ele>
        <time>2022-05-01T08:03:03.001Z</time>
      </trkpt>
      <trkpt lat="42.432793378829956" lon="-8.6503104865551">
        <ele>13.9</ele>
        <time>2022-05-01T08:03:05.267Z</time>
      </trkpt>
      <trkpt lat="42.43293075822294" lon="-8.651485964655876">
        <ele>6.5</ele>
        <time>2022-05-01T08:03:20.749Z</time>
      </trkpt>
      <trkpt lat="42.43296110071242" lon="-8.651782181113958">
        <ele>5.4</ele>
        <time>2022-05-01T08:03:24.337Z</time>
      </trkpt>
      <trkpt lat="42.43305640295148" lon="-8.651858121156693">
        <ele>4.4</ele>
        <time>2022-05-01T08:03:26.238Z</time>
      </trkpt>
      <trkpt lat="42.43309764191508" lon="-8.651843536645174">
        <ele>4.1</ele>
        <time>2022-05-01T08:03:27.009Z</time>
      </trkpt>
      <trkpt lat="42.43435559794307" lon="-8.65016053430736">
        <ele>2.9</ele>
        <time>2022-05-01T08:04:00.031Z</time>
      </trkpt>
      <trkpt lat="42.43437772616744" lon="-8.65007696673274">
        <ele>3.1</ele>
        <time>2022-05-01T08:04:01.306Z</time>
      </trkpt>
      <trkpt lat="42.43443396873772" lon="-8.650033129379153">
        <ele>3.1</ele>
        <time>2022-05-01T08:04:02.616Z</time>
      </trkpt>
      <trkpt lat="42.43447068147361" lon="-8.650018125772476">
        <ele>3.0</ele>
        <time>2022-05-01T08:04:03.415Z</time>
      </trkpt>
      <trkpt lat="42.435616571456194" lon="-8.64841659553349">
        <ele>2.5</ele>
        <time>2022-05-01T08:04:38.525Z</time>
      </trkpt>
      <trkpt lat="42.4357645958662" lon="-8.648154996335506">
        <ele>2.6</ele>
        <time>2022-05-01T08:04:43.768Z</time>
      </trkpt>
      <trkpt lat="42.4357873108238" lon="-8.648059191182256">
        <ele>2.5</ele>
        <time>2022-05-01T08:04:45.407Z</time>
      </trkpt>
      <trkpt lat="42.43581036105752" lon="-8.64786833524704">
        <ele>2.6</ele>
        <time>2022-05-01T08:04:48.624Z</time>
      </trkpt>
      <trkpt lat="42.435924522578716" lon="-8.647835897281766">
        <ele>2.3</ele>
        <time>2022-05-01T08:04:51.301Z</time>
      </trkpt>
      <trkpt lat="42.43601982481778" lon="-8.6479118373245">
        <ele>1.7</ele>
        <time>2022-05-01T08:04:53.880Z</time>
      </trkpt>
      <trkpt lat="42.43613331578672" lon="-8.64807503297925">
        <ele>1.1</ele>
        <time>2022-05-01T08:04:57.793Z</time>
      </trkpt>
      <trkpt lat="42.43655811063945" lon="-8.648223727941513">
        <ele>0.0</ele>
        <time>2022-05-01T08:05:08.298Z</time>
      </trkpt>
      <trkpt lat="42.437060019001365" lon="-8.648361107334495">
        <ele>2.1</ele>
        <time>2022-05-01T08:05:20.681Z</time>
      </trkpt>
      <trkpt lat="42.437140988186" lon="-8.64836236461997">
        <ele>2.8</ele>
        <time>2022-05-01T08:05:22.655Z</time>
      </trkpt>
      <trkpt lat="42.43721810169518" lon="-8.648259351029992">
        <ele>3.4</ele>
        <time>2022-05-01T08:05:25.275Z</time>
      </trkpt>
      <trkpt lat="42.437251042574644" lon="-8.647956596687436">
        <ele>2.9</ele>
        <time>2022-05-01T08:05:30.789Z</time>
      </trkpt>
      <trkpt lat="42.437219275161624" lon="-8.647140534594655">
        <ele>1.6</ele>
        <time>2022-05-01T08:05:45.623Z</time>
      </trkpt>
      <trkpt lat="42.437226232141256" lon="-8.64700055681169">
        <ele>2.0</ele>
        <time>2022-05-01T08:05:48.129Z</time>
      </trkpt>
      <trkpt lat="42.43730200454593" lon="-8.646940039470792">
        <ele>2.5</ele>
        <time>2022-05-01T08:05:50.275Z</time>
      </trkpt>
      <trkpt lat="42.437365958467126" lon="-8.646932998672128">
        <ele>2.4</ele>
        <time>2022-05-01T08:05:51.852Z</time>
      </trkpt>
      <trkpt lat="42.437407029792666" lon="-8.646907014772296">
        <ele>2.5</ele>
        <time>2022-05-01T08:05:52.972Z</time>
      </trkpt>
      <trkpt lat="42.437556982040405" lon="-8.64683199673891">
        <ele>2.4</ele>
        <time>2022-05-01T08:05:56.947Z</time>
      </trkpt>
      <trkpt lat="42.43782101199031" lon="-8.646780028939247">
        <ele>1.8</ele>
        <time>2022-05-01T08:06:03.593Z</time>
      </trkpt>
      <trkpt lat="42.43810398504138" lon="-8.646741975098848">
        <ele>2.0</ele>
        <time>2022-05-01T08:06:10.708Z</time>
      </trkpt>
      <trkpt lat="42.43853598833084" lon="-8.646706016734242">
        <ele>2.2</ele>
        <time>2022-05-01T08:06:21.561Z</time>
      </trkpt>
      <trkpt lat="42.43859600275755" lon="-8.646697970107198">
        <ele>2.3</ele>
        <time>2022-05-01T08:06:23.077Z</time>
      </trkpt>
      <trkpt lat="42.438713014125824" lon="-8.646696964278817">
        <ele>2.3</ele>
        <time>2022-05-01T08:06:26.025Z</time>
      </trkpt>
      <trkpt lat="42.43881502188742" lon="-8.646733006462455">
        <ele>2.3</ele>
        <time>2022-05-01T08:06:28.689Z</time>
      </trkpt>
      <trkpt lat="42.439143005758524" lon="-8.646900979802012">
        <ele>2.4</ele>
        <time>2022-05-01T08:06:37.563Z</time>
      </trkpt>
      <trkpt lat="42.43920100852847" lon="-8.646913971751928">
        <ele>2.3</ele>
        <time>2022-05-01T08:06:39.053Z</time>
      </trkpt>
      <trkpt lat="42.439379040151834" lon="-8.646934004500508">
        <ele>2.2</ele>
        <time>2022-05-01T08:06:43.589Z</time>
      </trkpt>
      <trkpt lat="42.4394999910146" lon="-8.646920006722212">
        <ele>2.1</ele>
        <time>2022-05-01T08:06:46.661Z</time>
      </trkpt>
      <trkpt lat="42.43986896239221" lon="-8.646883964538574">
        <ele>1.9</ele>
        <time>2022-05-01T08:06:56.016Z</time>
      </trkpt>
      <trkpt lat="42.44036198593676" lon="-8.64685102365911">
        <ele>1.9</ele>
        <time>2022-05-01T08:07:08.500Z</time>
      </trkpt>
      <trkpt lat="42.44054697453976" lon="-8.646838031709194">
        <ele>2.0</ele>
        <time>2022-05-01T08:07:13.194Z</time>
      </trkpt>
      <trkpt lat="42.44066499173641" lon="-8.646806012839079">
        <ele>2.1</ele>
        <time>2022-05-01T08:07:16.249Z</time>
      </trkpt>
      <trkpt lat="42.44072500616312" lon="-8.646797966212034">
        <ele>2.1</ele>
        <time>2022-05-01T08:07:17.782Z</time>
      </trkpt>
      <trkpt lat="42.44114602915943" lon="-8.646778017282486">
        <ele>2.3</ele>
        <time>2022-05-01T08:07:28.507Z</time>
      </trkpt>
      <trkpt lat="42.44126002304256" lon="-8.64676603116095">
        <ele>2.3</ele>
        <time>2022-05-01T08:07:31.421Z</time>
      </trkpt>
      <trkpt lat="42.441722033545375" lon="-8.646724037826061">
        <ele>2.4</ele>
        <time>2022-05-01T08:07:43.237Z</time>
      </trkpt>
      <trkpt lat="42.44204297661781" lon="-8.646691013127565">
        <ele>2.5</ele>
        <time>2022-05-01T08:07:51.456Z</time>
      </trkpt>
      <trkpt lat="42.44232997298241" lon="-8.646667962893844">
        <ele>2.4</ele>
        <time>2022-05-01T08:07:58.802Z</time>
      </trkpt>
      <trkpt lat="42.44267899543047" lon="-8.646624041721225">
        <ele>2.5</ele>
        <time>2022-05-01T08:08:07.753Z</time>
      </trkpt>
      <trkpt lat="42.44296599179506" lon="-8.64659302867949">
        <ele>2.4</ele>
        <time>2022-05-01T08:08:15.109Z</time>
      </trkpt>
      <trkpt lat="42.44302500039339" lon="-8.646584982052445">
        <ele>2.4</ele>
        <time>2022-05-01T08:08:16.624Z</time>
      </trkpt>
      <trkpt lat="42.44349698536098" lon="-8.64654902368784">
        <ele>2.3</ele>
        <time>2022-05-01T08:08:28.712Z</time>
      </trkpt>
      <trkpt lat="42.44379001669586" lon="-8.646523961797357">
        <ele>2.7</ele>
        <time>2022-05-01T08:08:36.222Z</time>
      </trkpt>
      <trkpt lat="42.44424599222839" lon="-8.646491020917892">
        <ele>2.4</ele>
        <time>2022-05-01T08:08:47.905Z</time>
      </trkpt>
      <trkpt lat="42.44457196444273" lon="-8.646416002884507">
        <ele>2.6</ele>
        <time>2022-05-01T08:08:56.375Z</time>
      </trkpt>
      <trkpt lat="42.44471303187311" lon="-8.646339979022741">
        <ele>2.8</ele>
        <time>2022-05-01T08:09:00.264Z</time>
      </trkpt>
      <trkpt lat="42.444755025207996" lon="-8.64633897319436">
        <ele>2.8</ele>
        <time>2022-05-01T08:09:01.339Z</time>
      </trkpt>
      <trkpt lat="42.44482601992786" lon="-8.64646503701806">
        <ele>2.3</ele>
        <time>2022-05-01T08:09:04.363Z</time>
      </trkpt>
      <trkpt lat="42.44483398273587" lon="-8.646526979282498">
        <ele>2.1</ele>
        <time>2022-05-01T08:09:05.609Z</time>
      </trkpt>
      <trkpt lat="42.44487103074789" lon="-8.64693702198565">
        <ele>1.8</ele>
        <time>2022-05-01T08:09:13.841Z</time>
      </trkpt>
      <trkpt lat="42.44486901909113" lon="-8.64700399339199">
        <ele>2.1</ele>
        <time>2022-05-01T08:09:15.165Z</time>
      </trkpt>
      <trkpt lat="42.44483096525073" lon="-8.647228963673115">
        <ele>3.5</ele>
        <time>2022-05-01T08:09:19.701Z</time>
      </trkpt>
      <trkpt lat="42.444838006049395" lon="-8.64747203886509">
        <ele>4.7</ele>
        <time>2022-05-01T08:09:24.458Z</time>
      </trkpt>
      <trkpt lat="42.444861978292465" lon="-8.647629031911492">
        <ele>5.2</ele>
        <time>2022-05-01T08:09:27.623Z</time>
      </trkpt>
      <trkpt lat="42.44489902630448" lon="-8.647742019966245">
        <ele>5.5</ele>
        <time>2022-05-01T08:09:30.068Z</time>
      </trkpt>
      <trkpt lat="42.44491897523403" lon="-8.647801028564572">
        <ele>5.7</ele>
        <time>2022-05-01T08:09:31.396Z</time>
      </trkpt>
      <trkpt lat="42.444944037124515" lon="-8.64786196500063">
        <ele>5.9</ele>
        <time>2022-05-01T08:09:32.831Z</time>
      </trkpt>
      <trkpt lat="42.44506599381566" lon="-8.64799004048109">
        <ele>6.0</ele>
        <time>2022-05-01T08:09:37.079Z</time>
      </trkpt>
      <trkpt lat="42.44517303071916" lon="-8.648039996623993">
        <ele>5.9</ele>
        <time>2022-05-01T08:09:40.161Z</time>
      </trkpt>
      <trkpt lat="42.44540101848543" lon="-8.648128006607294">
        <ele>5.7</ele>
        <time>2022-05-01T08:09:46.671Z</time>
      </trkpt>
      <trkpt lat="42.44577803649008" lon="-8.648300003260374">
        <ele>6.4</ele>
        <time>2022-05-01T08:09:57.525Z</time>
      </trkpt>
      <trkpt lat="42.446196964010596" lon="-8.648533020168543">
        <ele>6.2</ele>
        <time>2022-05-01T08:10:09.763Z</time>
      </trkpt>
      <trkpt lat="42.44658898562193" lon="-8.648740975186229">
        <ele>6.0</ele>
        <time>2022-05-01T08:10:21.049Z</time>
      </trkpt>
      <trkpt lat="42.446707002818584" lon="-8.648800989612937">
        <ele>6.1</ele>
        <time>2022-05-01T08:10:24.380Z</time>
      </trkpt>
      <trkpt lat="42.447138000279665" lon="-8.649012967944145">
        <ele>6.2</ele>
        <time>2022-05-01T08:10:36.394Z</time>
      </trkpt>
      <trkpt lat="42.447591964155436" lon="-8.64917297847569">
        <ele>6.0</ele>
        <time>2022-05-01T08:10:48.597Z</time>
      </trkpt>
      <trkpt lat="42.447979962453246" lon="-8.649266017600894">
        <ele>5.7</ele>
        <time>2022-05-01T08:10:58.769Z</time>
      </trkpt>
      <trkpt lat="42.44804601185024" lon="-8.649276997894049">
        <ele>5.7</ele>
        <time>2022-05-01T08:11:00.448Z</time>
      </trkpt>
      <trkpt lat="42.4481119774282" lon="-8.649285966530442">
        <ele>5.7</ele>
        <time>2022-05-01T08:11:02.125Z</time>
      </trkpt>
      <trkpt lat="42.44858304038644" lon="-8.649298958480358">
        <ele>5.0</ele>
        <time>2022-05-01T08:11:14.069Z</time>
      </trkpt>
      <trkpt lat="42.44896701537073" lon="-8.649274986237288">
        <ele>5.7</ele>
        <time>2022-05-01T08:11:23.833Z</time>
      </trkpt>
      <trkpt lat="42.449029041454196" lon="-8.649266017600894">
        <ele>5.8</ele>
        <time>2022-05-01T08:11:25.419Z</time>
      </trkpt>
      <trkpt lat="42.44921897538006" lon="-8.649218995124102">
        <ele>5.8</ele>
        <time>2022-05-01T08:11:30.364Z</time>
      </trkpt>
      <trkpt lat="42.44927999563515" lon="-8.649198040366173">
        <ele>5.8</ele>
        <time>2022-05-01T08:11:31.976Z</time>
      </trkpt>
      <trkpt lat="42.44947001338005" lon="-8.6491309851408">
        <ele>5.6</ele>
        <time>2022-05-01T08:11:37.006Z</time>
      </trkpt>
      <trkpt lat="42.449713004752994" lon="-8.649056972935796">
        <ele>6.2</ele>
        <time>2022-05-01T08:11:43.436Z</time>
      </trkpt>
      <trkpt lat="42.449821969494224" lon="-8.649053033441305">
        <ele>6.7</ele>
        <time>2022-05-01T08:11:46.247Z</time>
      </trkpt>
      <trkpt lat="42.4499249830842" lon="-8.64904498681426">
        <ele>7.3</ele>
        <time>2022-05-01T08:11:48.916Z</time>
      </trkpt>
      <trkpt lat="42.45002103969455" lon="-8.64899997599423">
        <ele>7.4</ele>
        <time>2022-05-01T08:11:51.542Z</time>
      </trkpt>
      <trkpt lat="42.45033502578735" lon="-8.648790009319782">
        <ele>7.4</ele>
        <time>2022-05-01T08:12:00.600Z</time>
      </trkpt>
      <trkpt lat="42.45035002939403" lon="-8.648781040683389">
        <ele>7.4</ele>
        <time>2022-05-01T08:12:01.023Z</time>
      </trkpt>
      <trkpt lat="42.45040903799236" lon="-8.6487200204283">
        <ele>7.3</ele>
        <time>2022-05-01T08:12:02.938Z</time>
      </trkpt>
      <trkpt lat="42.45043200440705" lon="-8.64869998767972">
        <ele>7.2</ele>
        <time>2022-05-01T08:12:03.642Z</time>
      </trkpt>
      <trkpt lat="42.450551027432084" lon="-8.648610971868038">
        <ele>6.8</ele>
        <time>2022-05-01T08:12:07.148Z</time>
      </trkpt>
      <trkpt lat="42.45086903683841" lon="-8.648412991315126">
        <ele>7.2</ele>
        <time>2022-05-01T08:12:16.167Z</time>
      </trkpt>
      <trkpt lat="42.451304979622364" lon="-8.648145021870732">
        <ele>7.2</ele>
        <time>2022-05-01T08:12:28.495Z</time>
      </trkpt>
      <trkpt lat="42.45177403092384" lon="-8.647858025506139">
        <ele>6.4</ele>
        <time>2022-05-01T08:12:41.803Z</time>
      </trkpt>
      <trkpt lat="42.45193404145539" lon="-8.64779700525105">
        <ele>6.9</ele>
        <time>2022-05-01T08:12:46.095Z</time>
      </trkpt>
      <trkpt lat="42.45200000703335" lon="-8.64781997166574">
        <ele>7.4</ele>
        <time>2022-05-01T08:12:47.851Z</time>
      </trkpt>
      <trkpt lat="42.45204200036824" lon="-8.647815026342869">
        <ele>7.6</ele>
        <time>2022-05-01T08:12:48.937Z</time>
      </trkpt>
      <trkpt lat="42.452124981209636" lon="-8.64790203049779">
        <ele>8.0</ele>
        <time>2022-05-01T08:12:51.638Z</time>
      </trkpt>
      <trkpt lat="42.452164040878415" lon="-8.648007977753878">
        <ele>8.4</ele>
        <time>2022-05-01T08:12:53.891Z</time>
      </trkpt>
      <trkpt lat="42.45223796926439" lon="-8.648114008828998">
        <ele>9.0</ele>
        <time>2022-05-01T08:12:56.665Z</time>
      </trkpt>
      <trkpt lat="42.452379958704114" lon="-8.648084001615644">
        <ele>9.0</ele>
        <time>2022-05-01T08:13:00.454Z</time>
      </trkpt>
      <trkpt lat="42.45241197757423" lon="-8.648060029372573">
        <ele>8.8</ele>
        <time>2022-05-01T08:13:01.456Z</time>
      </trkpt>
      <trkpt lat="42.45244902558625" lon="-8.648036979138851">
        <ele>8.7</ele>
        <time>2022-05-01T08:13:02.561Z</time>
      </trkpt>
      <trkpt lat="42.45252697728574" lon="-8.64798802882433">
        <ele>8.6</ele>
        <time>2022-05-01T08:13:04.906Z</time>
      </trkpt>
      <trkpt lat="42.45256503112614" lon="-8.64796900190413">
        <ele>8.5</ele>
        <time>2022-05-01T08:13:06.001Z</time>
      </trkpt>
      <trkpt lat="42.45288396254182" lon="-8.647892978042364">
        <ele>8.2</ele>
        <time>2022-05-01T08:13:14.736Z</time>
      </trkpt>
      <trkpt lat="42.4529869761318" lon="-8.647908987477422">
        <ele>8.3</ele>
        <time>2022-05-01T08:13:17.636Z</time>
      </trkpt>
      <trkpt lat="42.453004997223616" lon="-8.647941006347537">
        <ele>8.4</ele>
        <time>2022-05-01T08:13:18.535Z</time>
      </trkpt>
      <trkpt lat="42.45303601026535" lon="-8.648143010213971">
        <ele>9.4</ele>
        <time>2022-05-01T08:13:23.090Z</time>
      </trkpt>
      <trkpt lat="42.45316098444164" lon="-8.64839999936521">
        <ele>10.7</ele>
        <time>2022-05-01T08:13:29.789Z</time>
      </trkpt>
      <trkpt lat="42.453198032453656" lon="-8.64848499186337">
        <ele>11.1</ele>
        <time>2022-05-01T08:13:31.889Z</time>
      </trkpt>
      <trkpt lat="42.45319903828204" lon="-8.648584987968206">
        <ele>11.9</ele>
        <time>2022-05-01T08:13:34.034Z</time>
      </trkpt>
      <trkpt lat="42.453194009140134" lon="-8.648629998788238">
        <ele>12.2</ele>
        <time>2022-05-01T08:13:35.110Z</time>
      </trkpt>
      <trkpt lat="42.45319199748337" lon="-8.648771988227963">
        <ele>13.4</ele>
        <time>2022-05-01T08:13:38.434Z</time>
      </trkpt>
      <trkpt lat="42.453199960291386" lon="-8.648858992382884">
        <ele>14.0</ele>
        <time>2022-05-01T08:13:40.583Z</time>
      </trkpt>
      <trkpt lat="42.453241031616926" lon="-8.6490429751575">
        <ele>14.9</ele>
        <time>2022-05-01T08:13:45.304Z</time>
      </trkpt>
      <trkpt lat="42.4532510060817" lon="-8.649092009291053">
        <ele>15.1</ele>
        <time>2022-05-01T08:13:46.637Z</time>
      </trkpt>
      <trkpt lat="42.45327598415315" lon="-8.64919301122427">
        <ele>15.4</ele>
        <time>2022-05-01T08:13:49.420Z</time>
      </trkpt>
      <trkpt lat="42.453348990529776" lon="-8.649324020370841">
        <ele>15.3</ele>
        <time>2022-05-01T08:13:53.572Z</time>
      </trkpt>
      <trkpt lat="42.45355099439621" lon="-8.649671031162143">
        <ele>16.2</ele>
        <time>2022-05-01T08:14:05.247Z</time>
      </trkpt>
      <trkpt lat="42.4535789899528" lon="-8.649713024497032">
        <ele>16.3</ele>
        <time>2022-05-01T08:14:06.817Z</time>
      </trkpt>
      <trkpt lat="42.45372500270605" lon="-8.649964984506369">
        <ele>18.1</ele>
        <time>2022-05-01T08:14:16.122Z</time>
      </trkpt>
      <trkpt lat="42.453972017392516" lon="-8.65022499114275">
        <ele>20.7</ele>
        <time>2022-05-01T08:14:28.634Z</time>
      </trkpt>
      <trkpt lat="42.45405198074877" lon="-8.650271007791162">
        <ele>21.2</ele>
        <time>2022-05-01T08:14:31.993Z</time>
      </trkpt>
      <trkpt lat="42.45420000515878" lon="-8.650351976975799">
        <ele>21.7</ele>
        <time>2022-05-01T08:14:37.825Z</time>
      </trkpt>
      <trkpt lat="42.45423504151404" lon="-8.650371003895998">
        <ele>22.1</ele>
        <time>2022-05-01T08:14:39.120Z</time>
      </trkpt>
      <trkpt lat="42.454379964619875" lon="-8.650444010272622">
        <ele>23.6</ele>
        <time>2022-05-01T08:14:44.852Z</time>
      </trkpt>
      <trkpt lat="42.454506028443575" lon="-8.650469994172454">
        <ele>24.0</ele>
        <time>2022-05-01T08:14:49.363Z</time>
      </trkpt>
      <trkpt lat="42.454679952934384" lon="-8.650552555918694">
        <ele>25.0</ele>
        <time>2022-05-01T08:14:55.645Z</time>
      </trkpt>
      <trkpt lat="42.45486695319414" lon="-8.650590777397156">
        <ele>24.7</ele>
        <time>2022-05-01T08:15:01.667Z</time>
      </trkpt>
      <trkpt lat="42.45506376028061" lon="-8.6506730876863">
        <ele>25.6</ele>
        <time>2022-05-01T08:15:07.994Z</time>
      </trkpt>
      <trkpt lat="42.45518337003887" lon="-8.650780878961086">
        <ele>27.8</ele>
        <time>2022-05-01T08:15:12.288Z</time>
      </trkpt>
      <trkpt lat="42.45529828593135" lon="-8.65075958892703">
        <ele>26.8</ele>
        <time>2022-05-01T08:15:15.625Z</time>
      </trkpt>
      <trkpt lat="42.4554992839694" lon="-8.650670908391476">
        <ele>23.6</ele>
        <time>2022-05-01T08:15:21.591Z</time>
      </trkpt>
      <trkpt lat="42.455584444105625" lon="-8.650620533153415">
        <ele>22.6</ele>
        <time>2022-05-01T08:15:24.163Z</time>
      </trkpt>
      <trkpt lat="42.45564102195203" lon="-8.650548029690981">
        <ele>21.6</ele>
        <time>2022-05-01T08:15:26.298Z</time>
      </trkpt>
      <trkpt lat="42.45566398836672" lon="-8.650538977235556">
        <ele>21.6</ele>
        <time>2022-05-01T08:15:26.946Z</time>
      </trkpt>
      <trkpt lat="42.45580396614969" lon="-8.650391036644578">
        <ele>21.1</ele>
        <time>2022-05-01T08:15:31.721Z</time>
      </trkpt>
      <trkpt lat="42.45595601387322" lon="-8.650293974205852">
        <ele>21.7</ele>
        <time>2022-05-01T08:15:36.211Z</time>
      </trkpt>
      <trkpt lat="42.45606003329158" lon="-8.650256004184484">
        <ele>22.4</ele>
        <time>2022-05-01T08:15:38.952Z</time>
      </trkpt>
      <trkpt lat="42.45617696084082" lon="-8.650209987536073">
        <ele>23.2</ele>
        <time>2022-05-01T08:15:41.961Z</time>
      </trkpt>
      <trkpt lat="42.45632297359407" lon="-8.650204036384821">
        <ele>24.3</ele>
        <time>2022-05-01T08:15:45.590Z</time>
      </trkpt>
      <trkpt lat="42.45635901577771" lon="-8.65020596422255">
        <ele>24.6</ele>
        <time>2022-05-01T08:15:46.544Z</time>
      </trkpt>
      <trkpt lat="42.456481978297234" lon="-8.6501170322299">
        <ele>24.8</ele>
        <time>2022-05-01T08:15:50.219Z</time>
      </trkpt>
      <trkpt lat="42.45659303851426" lon="-8.6500290222466">
        <ele>24.9</ele>
        <time>2022-05-01T08:15:53.915Z</time>
      </trkpt>
      <trkpt lat="42.45671398937702" lon="-8.649949980899692">
        <ele>25.2</ele>
        <time>2022-05-01T08:15:58.357Z</time>
      </trkpt>
      <trkpt lat="42.45675497688353" lon="-8.649930031970143">
        <ele>25.4</ele>
        <time>2022-05-01T08:15:59.901Z</time>
      </trkpt>
      <trkpt lat="42.45718102902174" lon="-8.64973003976047">
        <ele>26.7</ele>
        <time>2022-05-01T08:16:17.548Z</time>
      </trkpt>
      <trkpt lat="42.45740097016096" lon="-8.649662984535098">
        <ele>28.3</ele>
        <time>2022-05-01T08:16:25.958Z</time>
      </trkpt>
      <trkpt lat="42.45745503343642" lon="-8.649713024497032">
        <ele>29.6</ele>
        <time>2022-05-01T08:16:28.244Z</time>
      </trkpt>
      <trkpt lat="42.45748998597264" lon="-8.649791982024908">
        <ele>30.8</ele>
        <time>2022-05-01T08:16:30.647Z</time>
      </trkpt>
      <trkpt lat="42.45753298513591" lon="-8.649912010878325">
        <ele>32.4</ele>
        <time>2022-05-01T08:16:34.037Z</time>
      </trkpt>
      <trkpt lat="42.45755100622773" lon="-8.64998702891171">
        <ele>33.1</ele>
        <time>2022-05-01T08:16:35.943Z</time>
      </trkpt>
      <trkpt lat="42.457557963207364" lon="-8.650027010589838">
        <ele>33.4</ele>
        <time>2022-05-01T08:16:37.030Z</time>
      </trkpt>
      <trkpt lat="42.457580007612705" lon="-8.650153996422887">
        <ele>34.3</ele>
        <time>2022-05-01T08:16:40.289Z</time>
      </trkpt>
      <trkpt lat="42.4575889762491" lon="-8.650193978101015">
        <ele>34.7</ele>
        <time>2022-05-01T08:16:41.285Z</time>
      </trkpt>
      <trkpt lat="42.45760699734092" lon="-8.650276958942413">
        <ele>35.3</ele>
        <time>2022-05-01T08:16:43.414Z</time>
      </trkpt>
      <trkpt lat="42.45761202648282" lon="-8.650406040251255">
        <ele>36.0</ele>
        <time>2022-05-01T08:16:46.778Z</time>
      </trkpt>
      <trkpt lat="42.45760599151254" lon="-8.650445016101003">
        <ele>36.2</ele>
        <time>2022-05-01T08:16:47.910Z</time>
      </trkpt>
      <trkpt lat="42.457594005391" lon="-8.650478040799499">
        <ele>36.4</ele>
        <time>2022-05-01T08:16:48.883Z</time>
      </trkpt>
      <trkpt lat="42.45757699012756" lon="-8.650507964193821">
        <ele>36.6</ele>
        <time>2022-05-01T08:16:49.971Z</time>
      </trkpt>
      <trkpt lat="42.45753197930753" lon="-8.650553980842233">
        <ele>37.0</ele>
        <time>2022-05-01T08:16:52.012Z</time>
      </trkpt>
      <trkpt lat="42.457475988194346" lon="-8.65059002302587">
        <ele>37.5</ele>
        <time>2022-05-01T08:16:54.125Z</time>
      </trkpt>
      <trkpt lat="42.4574230145663" lon="-8.650618018582463">
        <ele>38.1</ele>
        <time>2022-05-01T08:16:56.210Z</time>
      </trkpt>
      <trkpt lat="42.45739501900971" lon="-8.650636039674282">
        <ele>38.5</ele>
        <time>2022-05-01T08:16:57.277Z</time>
      </trkpt>
      <trkpt lat="42.457366017624736" lon="-8.65065498277545">
        <ele>38.9</ele>
        <time>2022-05-01T08:16:58.441Z</time>
      </trkpt>
      <trkpt lat="42.45733902789652" lon="-8.650673003867269">
        <ele>39.3</ele>
        <time>2022-05-01T08:16:59.465Z</time>
      </trkpt>
      <trkpt lat="42.457278007641435" lon="-8.650738969445229">
        <ele>40.2</ele>
        <time>2022-05-01T08:17:01.998Z</time>
      </trkpt>
      <trkpt lat="42.45725001208484" lon="-8.650799989700317">
        <ele>41.1</ele>
        <time>2022-05-01T08:17:03.753Z</time>
      </trkpt>
      <trkpt lat="42.457237020134926" lon="-8.650834020227194">
        <ele>41.6</ele>
        <time>2022-05-01T08:17:04.649Z</time>
      </trkpt>
      <trkpt lat="42.45720801874995" lon="-8.650904009118676">
        <ele>42.6</ele>
        <time>2022-05-01T08:17:06.463Z</time>
      </trkpt>
      <trkpt lat="42.45716996490955" lon="-8.650970980525017">
        <ele>43.5</ele>
        <time>2022-05-01T08:17:08.663Z</time>
      </trkpt>
      <trkpt lat="42.45711699128151" lon="-8.651071982458234">
        <ele>44.8</ele>
        <time>2022-05-01T08:17:12.126Z</time>
      </trkpt>
      <trkpt lat="42.45703501626849" lon="-8.651227969676256">
        <ele>45.9</ele>
        <time>2022-05-01T08:17:18.025Z</time>
      </trkpt>
      <trkpt lat="42.4569930229336" lon="-8.651328971609473">
        <ele>46.2</ele>
        <time>2022-05-01T08:17:21.992Z</time>
      </trkpt>
      <trkpt lat="42.45697299018502" lon="-8.651398038491607">
        <ele>46.2</ele>
        <time>2022-05-01T08:17:24.681Z</time>
      </trkpt>
      <trkpt lat="42.45692496187985" lon="-8.651556959375739">
        <ele>45.9</ele>
        <time>2022-05-01T08:17:31.397Z</time>
      </trkpt>
      <trkpt lat="42.45691196992993" lon="-8.651596019044518">
        <ele>45.8</ele>
        <time>2022-05-01T08:17:32.840Z</time>
      </trkpt>
      <trkpt lat="42.45688498020172" lon="-8.651672964915633">
        <ele>45.9</ele>
        <time>2022-05-01T08:17:36.022Z</time>
      </trkpt>
      <trkpt lat="42.45684298686683" lon="-8.651845967397094">
        <ele>47.4</ele>
        <time>2022-05-01T08:17:43.115Z</time>
      </trkpt>
      <trkpt lat="42.456852961331606" lon="-8.652087030932307">
        <ele>50.4</ele>
        <time>2022-05-01T08:17:52.430Z</time>
      </trkpt>
      <trkpt lat="42.45685497298837" lon="-8.652119971811771">
        <ele>50.8</ele>
        <time>2022-05-01T08:17:53.808Z</time>
      </trkpt>
      <trkpt lat="42.456872994080186" lon="-8.652278976514935">
        <ele>52.8</ele>
        <time>2022-05-01T08:18:00.047Z</time>
      </trkpt>
      <trkpt lat="42.45698497630656" lon="-8.652365980669856">
        <ele>53.0</ele>
        <time>2022-05-01T08:18:06.125Z</time>
      </trkpt>
      <trkpt lat="42.45713702403009" lon="-8.652451978996396">
        <ele>53.1</ele>
        <time>2022-05-01T08:18:13.834Z</time>
      </trkpt>
      <trkpt lat="42.45715797878802" lon="-8.652474023401737">
        <ele>53.2</ele>
        <time>2022-05-01T08:18:15.197Z</time>
      </trkpt>
      <trkpt lat="42.45717499405146" lon="-8.652504030615091">
        <ele>53.5</ele>
        <time>2022-05-01T08:18:16.444Z</time>
      </trkpt>
      <trkpt lat="42.45722000487149" lon="-8.652574019506574">
        <ele>54.1</ele>
        <time>2022-05-01T08:18:19.648Z</time>
      </trkpt>
      <trkpt lat="42.45727398432791" lon="-8.652644008398056">
        <ele>54.7</ele>
        <time>2022-05-01T08:18:23.000Z</time>
      </trkpt>
      <trkpt lat="42.45735503733158" lon="-8.652708968147635">
        <ele>54.9</ele>
        <time>2022-05-01T08:18:27.571Z</time>
      </trkpt>
      <trkpt lat="42.4574039876461" lon="-8.652756996452808">
        <ele>55.0</ele>
        <time>2022-05-01T08:18:30.736Z</time>
      </trkpt>
      <trkpt lat="42.45748898014426" lon="-8.6528679728508">
        <ele>55.9</ele>
        <time>2022-05-01T08:18:36.652Z</time>
      </trkpt>
      <trkpt lat="42.45754597708583" lon="-8.652992025017738">
        <ele>57.4</ele>
        <time>2022-05-01T08:18:41.869Z</time>
      </trkpt>
      <trkpt lat="42.45758595876396" lon="-8.653135020285845">
        <ele>59.4</ele>
        <time>2022-05-01T08:18:46.780Z</time>
      </trkpt>
      <trkpt lat="42.45761403813958" lon="-8.653290001675487">
        <ele>60.8</ele>
        <time>2022-05-01T08:18:51.707Z</time>
      </trkpt>
      <trkpt lat="42.45762803591788" lon="-8.653330989181995">
        <ele>61.1</ele>
        <time>2022-05-01T08:18:52.980Z</time>
      </trkpt>
      <trkpt lat="42.457686038687825" lon="-8.65344699472189">
        <ele>61.6</ele>
        <time>2022-05-01T08:18:56.920Z</time>
      </trkpt>
      <trkpt lat="42.45776197873056" lon="-8.65355403162539">
        <ele>62.0</ele>
        <time>2022-05-01T08:19:01.457Z</time>
      </trkpt>
      <trkpt lat="42.45785099454224" lon="-8.653657967224717">
        <ele>62.1</ele>
        <time>2022-05-01T08:19:06.038Z</time>
      </trkpt>
      <trkpt lat="42.45791302062571" lon="-8.653724016621709">
        <ele>62.1</ele>
        <time>2022-05-01T08:19:09.230Z</time>
      </trkpt>
      <trkpt lat="42.45801603421569" lon="-8.653805991634727">
        <ele>62.0</ele>
        <time>2022-05-01T08:19:13.999Z</time>
      </trkpt>
      <trkpt lat="42.45821996591985" lon="-8.65405099466443">
        <ele>62.6</ele>
        <time>2022-05-01T08:19:24.543Z</time>
      </trkpt>
      <trkpt lat="42.458286015316844" lon="-8.654182003811002">
        <ele>62.9</ele>
        <time>2022-05-01T08:19:28.836Z</time>
      </trkpt>
      <trkpt lat="42.45839196257293" lon="-8.654336985200644">
        <ele>63.6</ele>
        <time>2022-05-01T08:19:34.251Z</time>
      </trkpt>
      <trkpt lat="42.458544010296464" lon="-8.654492972418666">
        <ele>64.2</ele>
        <time>2022-05-01T08:19:40.497Z</time>
      </trkpt>
      <trkpt lat="42.45861902832985" lon="-8.654599003493786">
        <ele>64.4</ele>
        <time>2022-05-01T08:19:43.733Z</time>
      </trkpt>
      <trkpt lat="42.45877300389111" lon="-8.654835037887096">
        <ele>64.4</ele>
        <time>2022-05-01T08:19:50.509Z</time>
      </trkpt>
      <trkpt lat="42.45894500054419" lon="-8.655046010389924">
        <ele>64.2</ele>
        <time>2022-05-01T08:19:56.106Z</time>
      </trkpt>
      <trkpt lat="42.45905597694218" lon="-8.655131002888083">
        <ele>63.4</ele>
        <time>2022-05-01T08:19:58.470Z</time>
      </trkpt>
      <trkpt lat="42.459253035485744" lon="-8.655180037021637">
        <ele>60.2</ele>
        <time>2022-05-01T08:20:01.771Z</time>
      </trkpt>
      <trkpt lat="42.45933199301362" lon="-8.655195962637663">
        <ele>59.1</ele>
        <time>2022-05-01T08:20:02.905Z</time>
      </trkpt>
      <trkpt lat="42.459662994369864" lon="-8.655321020632982">
        <ele>55.5</ele>
        <time>2022-05-01T08:20:07.241Z</time>
      </trkpt>
      <trkpt lat="42.45980699546635" lon="-8.655372988432646">
        <ele>53.3</ele>
        <time>2022-05-01T08:20:09.230Z</time>
      </trkpt>
      <trkpt lat="42.45986801572144" lon="-8.655386986210942">
        <ele>52.2</ele>
        <time>2022-05-01T08:20:09.996Z</time>
      </trkpt>
      <trkpt lat="42.459923001006246" lon="-8.655388997867703">
        <ele>51.2</ele>
        <time>2022-05-01T08:20:10.684Z</time>
      </trkpt>
      <trkpt lat="42.45997698046267" lon="-8.655375000089407">
        <ele>50.2</ele>
        <time>2022-05-01T08:20:11.314Z</time>
      </trkpt>
      <trkpt lat="42.460032971575856" lon="-8.655355973169208">
        <ele>49.2</ele>
        <time>2022-05-01T08:20:12.035Z</time>
      </trkpt>
      <trkpt lat="42.46015300042927" lon="-8.655324960127473">
        <ele>47.2</ele>
        <time>2022-05-01T08:20:13.599Z</time>
      </trkpt>
      <trkpt lat="42.4602759629488" lon="-8.655378017574549">
        <ele>46.3</ele>
        <time>2022-05-01T08:20:15.290Z</time>
      </trkpt>
      <trkpt lat="42.46032399125397" lon="-8.655434008687735">
        <ele>46.0</ele>
        <time>2022-05-01T08:20:16.143Z</time>
      </trkpt>
      <trkpt lat="42.46035802178085" lon="-8.655507015064359">
        <ele>45.7</ele>
        <time>2022-05-01T08:20:17.067Z</time>
      </trkpt>
      <trkpt lat="42.46040797792375" lon="-8.655686974525452">
        <ele>45.3</ele>
        <time>2022-05-01T08:20:19.226Z</time>
      </trkpt>
      <trkpt lat="42.46042398735881" lon="-8.655784036964178">
        <ele>45.2</ele>
        <time>2022-05-01T08:20:20.415Z</time>
      </trkpt>
      <trkpt lat="42.460439996793866" lon="-8.655879003927112">
        <ele>45.1</ele>
        <time>2022-05-01T08:20:21.648Z</time>
      </trkpt>
      <trkpt lat="42.460457012057304" lon="-8.655974976718426">
        <ele>44.9</ele>
        <time>2022-05-01T08:20:22.765Z</time>
      </trkpt>
      <trkpt lat="42.460500011220574" lon="-8.656168011948466">
        <ele>44.0</ele>
        <time>2022-05-01T08:20:25.125Z</time>
      </trkpt>
      <trkpt lat="42.4605209659785" lon="-8.656264990568161">
        <ele>43.6</ele>
        <time>2022-05-01T08:20:26.255Z</time>
      </trkpt>
      <trkpt lat="42.460587015375495" lon="-8.656558021903038">
        <ele>43.0</ele>
        <time>2022-05-01T08:20:29.597Z</time>
      </trkpt>
      <trkpt lat="42.46066396124661" lon="-8.656844012439251">
        <ele>42.4</ele>
        <time>2022-05-01T08:20:33.108Z</time>
      </trkpt>
      <trkpt lat="42.46074199676514" lon="-8.657110976055264">
        <ele>42.8</ele>
        <time>2022-05-01T08:20:36.624Z</time>
      </trkpt>
      <trkpt lat="42.46079698204994" lon="-8.657342987135053">
        <ele>43.0</ele>
        <time>2022-05-01T08:20:39.745Z</time>
      </trkpt>
      <trkpt lat="42.46082799509168" lon="-8.65748799405992">
        <ele>43.1</ele>
        <time>2022-05-01T08:20:41.769Z</time>
      </trkpt>
      <trkpt lat="42.46084098704159" lon="-8.657567035406828">
        <ele>43.3</ele>
        <time>2022-05-01T08:20:42.904Z</time>
      </trkpt>
      <trkpt lat="42.46087099425495" lon="-8.657718999311328">
        <ele>43.9</ele>
        <time>2022-05-01T08:20:45.205Z</time>
      </trkpt>
      <trkpt lat="42.4609839823097" lon="-8.657868029549718">
        <ele>44.5</ele>
        <time>2022-05-01T08:20:48.454Z</time>
      </trkpt>
      <trkpt lat="42.46115698479116" lon="-8.657926032319665">
        <ele>45.6</ele>
        <time>2022-05-01T08:20:52.301Z</time>
      </trkpt>
      <trkpt lat="42.461211970075965" lon="-8.657942041754723">
        <ele>46.0</ele>
        <time>2022-05-01T08:20:53.543Z</time>
      </trkpt>
      <trkpt lat="42.46138799004257" lon="-8.658038014546037">
        <ele>43.9</ele>
        <time>2022-05-01T08:20:57.881Z</time>
      </trkpt>
      <trkpt lat="42.4614520277828" lon="-8.658069027587771">
        <ele>42.9</ele>
        <time>2022-05-01T08:20:59.489Z</time>
      </trkpt>
      <trkpt lat="42.46155001223087" lon="-8.658151002600789">
        <ele>43.1</ele>
        <time>2022-05-01T08:21:02.252Z</time>
      </trkpt>
      <trkpt lat="42.461598040536046" lon="-8.658258961513638">
        <ele>44.0</ele>
        <time>2022-05-01T08:21:04.541Z</time>
      </trkpt>
      <trkpt lat="42.46163098141551" lon="-8.658350994810462">
        <ele>44.6</ele>
        <time>2022-05-01T08:21:06.534Z</time>
      </trkpt>
      <trkpt lat="42.46167699806392" lon="-8.658483009785414">
        <ele>45.5</ele>
        <time>2022-05-01T08:21:09.437Z</time>
      </trkpt>
      <trkpt lat="42.461686972528696" lon="-8.658531038090587">
        <ele>45.8</ele>
        <time>2022-05-01T08:21:10.421Z</time>
      </trkpt>
      <trkpt lat="42.46169300749898" lon="-8.658681996166706">
        <ele>46.4</ele>
        <time>2022-05-01T08:21:13.474Z</time>
      </trkpt>
      <trkpt lat="42.461684038862586" lon="-8.658787021413445">
        <ele>46.8</ele>
        <time>2022-05-01T08:21:15.662Z</time>
      </trkpt>
      <trkpt lat="42.46167699806392" lon="-8.658837983384728">
        <ele>47.0</ele>
        <time>2022-05-01T08:21:16.814Z</time>
      </trkpt>
      <trkpt lat="42.461638022214174" lon="-8.65903303027153">
        <ele>47.9</ele>
        <time>2022-05-01T08:21:21.475Z</time>
      </trkpt>
      <trkpt lat="42.461600974202156" lon="-8.659169990569353">
        <ele>48.6</ele>
        <time>2022-05-01T08:21:25.014Z</time>
      </trkpt>
      <trkpt lat="42.461578007787466" lon="-8.659263029694557">
        <ele>49.1</ele>
        <time>2022-05-01T08:21:27.554Z</time>
      </trkpt>
      <trkpt lat="42.46152503415942" lon="-8.659480037167668">
        <ele>50.3</ele>
        <time>2022-05-01T08:21:33.962Z</time>
      </trkpt>
      <trkpt lat="42.461513970047235" lon="-8.659524964168668">
        <ele>50.6</ele>
        <time>2022-05-01T08:21:35.394Z</time>
      </trkpt>
      <trkpt lat="42.46150298975408" lon="-8.65957098081708">
        <ele>50.9</ele>
        <time>2022-05-01T08:21:36.934Z</time>
      </trkpt>
      <trkpt lat="42.461470970883965" lon="-8.659760998561978">
        <ele>52.5</ele>
        <time>2022-05-01T08:21:43.670Z</time>
      </trkpt>
      <trkpt lat="42.46142998337746" lon="-8.659947998821735">
        <ele>53.3</ele>
        <time>2022-05-01T08:21:50.108Z</time>
      </trkpt>
      <trkpt lat="42.46143098920584" lon="-8.659997032955289">
        <ele>53.6</ele>
        <time>2022-05-01T08:21:51.812Z</time>
      </trkpt>
      <trkpt lat="42.461466025561094" lon="-8.660123012959957">
        <ele>54.7</ele>
        <time>2022-05-01T08:21:56.514Z</time>
      </trkpt>
      <trkpt lat="42.46148396283388" lon="-8.660156959667802">
        <ele>55.0</ele>
        <time>2022-05-01T08:21:57.807Z</time>
      </trkpt>
      <trkpt lat="42.461578007787466" lon="-8.660315964370966">
        <ele>56.8</ele>
        <time>2022-05-01T08:22:04.225Z</time>
      </trkpt>
      <trkpt lat="42.46161296032369" lon="-8.660381007939577">
        <ele>57.5</ele>
        <time>2022-05-01T08:22:06.728Z</time>
      </trkpt>
      <trkpt lat="42.46164900250733" lon="-8.660443034023046">
        <ele>58.1</ele>
        <time>2022-05-01T08:22:09.384Z</time>
      </trkpt>
      <trkpt lat="42.46171697974205" lon="-8.660554010421038">
        <ele>59.2</ele>
        <time>2022-05-01T08:22:13.919Z</time>
      </trkpt>
      <trkpt lat="42.461747992783785" lon="-8.66060296073556">
        <ele>59.7</ele>
        <time>2022-05-01T08:22:16.008Z</time>
      </trkpt>
      <trkpt lat="42.46178101748228" lon="-8.660648977383971">
        <ele>60.1</ele>
        <time>2022-05-01T08:22:18.311Z</time>
      </trkpt>
      <trkpt lat="42.46183801442385" lon="-8.660703040659428">
        <ele>60.9</ele>
        <time>2022-05-01T08:22:21.906Z</time>
      </trkpt>
      <trkpt lat="42.46188503690064" lon="-8.660727012902498">
        <ele>61.4</ele>
        <time>2022-05-01T08:22:24.746Z</time>
      </trkpt>
      <trkpt lat="42.46193298138678" lon="-8.660740004852414">
        <ele>62.0</ele>
        <time>2022-05-01T08:22:27.086Z</time>
      </trkpt>
      <trkpt lat="42.46203398332" lon="-8.660761965438724">
        <ele>62.5</ele>
        <time>2022-05-01T08:22:32.246Z</time>
      </trkpt>
      <trkpt lat="42.462112018838525" lon="-8.660806976258755">
        <ele>63.1</ele>
        <time>2022-05-01T08:22:36.843Z</time>
      </trkpt>
      <trkpt lat="42.462222995236516" lon="-8.660875959321856">
        <ele>64.0</ele>
        <time>2022-05-01T08:22:43.799Z</time>
      </trkpt>
      <trkpt lat="42.46224897913635" lon="-8.660894986242056">
        <ele>64.2</ele>
        <time>2022-05-01T08:22:45.220Z</time>
      </trkpt>
      <trkpt lat="42.46238501742482" lon="-8.660976039245725">
        <ele>65.0</ele>
        <time>2022-05-01T08:22:51.990Z</time>
      </trkpt>
      <trkpt lat="42.462412007153034" lon="-8.66099095903337">
        <ele>65.2</ele>
        <time>2022-05-01T08:22:53.411Z</time>
      </trkpt>
      <trkpt lat="42.46256799437106" lon="-8.661076035350561">
        <ele>67.4</ele>
        <time>2022-05-01T08:23:01.702Z</time>
      </trkpt>
      <trkpt lat="42.46259196661413" lon="-8.661093972623348">
        <ele>67.9</ele>
        <time>2022-05-01T08:23:03.237Z</time>
      </trkpt>
      <trkpt lat="42.462711995467544" lon="-8.66112096235156">
        <ele>69.2</ele>
        <time>2022-05-01T08:23:10.294Z</time>
      </trkpt>
      <trkpt lat="42.462734961882234" lon="-8.661114005371928">
        <ele>69.3</ele>
        <time>2022-05-01T08:23:11.484Z</time>
      </trkpt>
      <trkpt lat="42.46285398490727" lon="-8.66109799593687">
        <ele>70.1</ele>
        <time>2022-05-01T08:23:17.236Z</time>
      </trkpt>
      <trkpt lat="42.46287804096937" lon="-8.661104030907154">
        <ele>70.3</ele>
        <time>2022-05-01T08:23:18.275Z</time>
      </trkpt>
      <trkpt lat="42.46295699849725" lon="-8.661130014806986">
        <ele>70.7</ele>
        <time>2022-05-01T08:23:21.545Z</time>
      </trkpt>
      <trkpt lat="42.463036961853504" lon="-8.661173013970256">
        <ele>71.3</ele>
        <time>2022-05-01T08:23:24.890Z</time>
      </trkpt>
      <trkpt lat="42.46308599598706" lon="-8.66120402701199">
        <ele>71.7</ele>
        <time>2022-05-01T08:23:26.842Z</time>
      </trkpt>
      <trkpt lat="42.46321499347687" lon="-8.661280972883105">
        <ele>73.5</ele>
        <time>2022-05-01T08:23:31.829Z</time>
      </trkpt>
      <trkpt lat="42.463338039815426" lon="-8.661259012296796">
        <ele>74.1</ele>
        <time>2022-05-01T08:23:36.194Z</time>
      </trkpt>
      <trkpt lat="42.4633670412004" lon="-8.661249037832022">
        <ele>74.1</ele>
        <time>2022-05-01T08:23:37.190Z</time>
      </trkpt>
      <trkpt lat="42.46346200816333" lon="-8.661210983991623">
        <ele>73.9</ele>
        <time>2022-05-01T08:23:40.743Z</time>
      </trkpt>
      <trkpt lat="42.46354297734797" lon="-8.661088021472096">
        <ele>73.0</ele>
        <time>2022-05-01T08:23:45.668Z</time>
      </trkpt>
      <trkpt lat="42.463555969297886" lon="-8.661033036187291">
        <ele>72.6</ele>
        <time>2022-05-01T08:23:47.254Z</time>
      </trkpt>
      <trkpt lat="42.46356301009655" lon="-8.660833965986967">
        <ele>71.2</ele>
        <time>2022-05-01T08:23:52.383Z</time>
      </trkpt>
      <trkpt lat="42.46356602758169" lon="-8.660765988752246">
        <ele>70.8</ele>
        <time>2022-05-01T08:23:54.045Z</time>
      </trkpt>
      <trkpt lat="42.46356502175331" lon="-8.660706980153918">
        <ele>70.6</ele>
        <time>2022-05-01T08:23:55.475Z</time>
      </trkpt>
      <trkpt lat="42.46358002535999" lon="-8.660498019307852">
        <ele>70.5</ele>
        <time>2022-05-01T08:24:00.373Z</time>
      </trkpt>
      <trkpt lat="42.463659988716245" lon="-8.660297021269798">
        <ele>71.5</ele>
        <time>2022-05-01T08:24:05.625Z</time>
      </trkpt>
      <trkpt lat="42.46382502838969" lon="-8.66019400767982">
        <ele>73.7</ele>
        <time>2022-05-01T08:24:11.356Z</time>
      </trkpt>
      <trkpt lat="42.463873978704214" lon="-8.66019300185144">
        <ele>74.3</ele>
        <time>2022-05-01T08:24:12.961Z</time>
      </trkpt>
      <trkpt lat="42.46391102671623" lon="-8.660225020721555">
        <ele>74.9</ele>
        <time>2022-05-01T08:24:14.343Z</time>
      </trkpt>
      <trkpt lat="42.46393399313092" lon="-8.660243963822722">
        <ele>75.3</ele>
        <time>2022-05-01T08:24:15.160Z</time>
      </trkpt>
      <trkpt lat="42.46400901116431" lon="-8.66028000600636">
        <ele>76.5</ele>
        <time>2022-05-01T08:24:17.515Z</time>
      </trkpt>
      <trkpt lat="42.46405896730721" lon="-8.660289980471134">
        <ele>77.1</ele>
        <time>2022-05-01T08:24:19.120Z</time>
      </trkpt>
      <trkpt lat="42.46410196647048" lon="-8.660306995734572">
        <ele>77.5</ele>
        <time>2022-05-01T08:24:20.608Z</time>
      </trkpt>
      <trkpt lat="42.46411898173392" lon="-8.660320993512869">
        <ele>77.7</ele>
        <time>2022-05-01T08:24:21.240Z</time>
      </trkpt>
      <trkpt lat="42.464178996160626" lon="-8.660380002111197">
        <ele>78.5</ele>
        <time>2022-05-01T08:24:23.727Z</time>
      </trkpt>
      <trkpt lat="42.46419198811054" lon="-8.660400034859776">
        <ele>78.7</ele>
        <time>2022-05-01T08:24:24.358Z</time>
      </trkpt>
      <trkpt lat="42.464242028072476" lon="-8.660477986559272">
        <ele>79.5</ele>
        <time>2022-05-01T08:24:26.713Z</time>
      </trkpt>
      <trkpt lat="42.46429399587214" lon="-8.660573037341237">
        <ele>80.4</ele>
        <time>2022-05-01T08:24:29.384Z</time>
      </trkpt>
      <trkpt lat="42.46431402862072" lon="-8.66060103289783">
        <ele>80.6</ele>
        <time>2022-05-01T08:24:30.323Z</time>
      </trkpt>
      <trkpt lat="42.46440103277564" lon="-8.660789960995317">
        <ele>81.7</ele>
        <time>2022-05-01T08:24:35.506Z</time>
      </trkpt>
      <trkpt lat="42.464474039152265" lon="-8.660993976518512">
        <ele>83.0</ele>
        <time>2022-05-01T08:24:41.342Z</time>
      </trkpt>
      <trkpt lat="42.46449197642505" lon="-8.66103203035891">
        <ele>83.2</ele>
        <time>2022-05-01T08:24:42.577Z</time>
      </trkpt>
      <trkpt lat="42.46457696892321" lon="-8.661237973719835">
        <ele>83.9</ele>
        <time>2022-05-01T08:24:49.298Z</time>
      </trkpt>
      <trkpt lat="42.46462298557162" lon="-8.661295976489782">
        <ele>84.1</ele>
        <time>2022-05-01T08:24:51.660Z</time>
      </trkpt>
      <trkpt lat="42.464650981128216" lon="-8.661304023116827">
        <ele>84.2</ele>
        <time>2022-05-01T08:24:52.880Z</time>
      </trkpt>
      <trkpt lat="42.4647450260818" lon="-8.66128801368177">
        <ele>84.2</ele>
        <time>2022-05-01T08:24:56.557Z</time>
      </trkpt>
      <trkpt lat="42.46496002189815" lon="-8.661322966217995">
        <ele>84.3</ele>
        <time>2022-05-01T08:25:04.893Z</time>
      </trkpt>
      <trkpt lat="42.464994974434376" lon="-8.661339981481433">
        <ele>84.3</ele>
        <time>2022-05-01T08:25:06.342Z</time>
      </trkpt>
      <trkpt lat="42.46511097997427" lon="-8.66148297674954">
        <ele>84.6</ele>
        <time>2022-05-01T08:25:12.066Z</time>
      </trkpt>
      <trkpt lat="42.46536201797426" lon="-8.66176201030612">
        <ele>85.2</ele>
        <time>2022-05-01T08:25:23.291Z</time>
      </trkpt>
      <trkpt lat="42.465548012405634" lon="-8.662044983357191">
        <ele>85.4</ele>
        <time>2022-05-01T08:25:32.954Z</time>
      </trkpt>
      <trkpt lat="42.46557600796223" lon="-8.66208303719759">
        <ele>85.4</ele>
        <time>2022-05-01T08:25:34.255Z</time>
      </trkpt>
      <trkpt lat="42.46579402126372" lon="-8.662357041612267">
        <ele>85.1</ele>
        <time>2022-05-01T08:25:44.095Z</time>
      </trkpt>
      <trkpt lat="42.466025026515126" lon="-8.662610007449985">
        <ele>86.4</ele>
        <time>2022-05-01T08:25:53.568Z</time>
      </trkpt>
      <trkpt lat="42.466108007356524" lon="-8.662718972191215">
        <ele>87.6</ele>
        <time>2022-05-01T08:25:57.066Z</time>
      </trkpt>
      <trkpt lat="42.46614103205502" lon="-8.662753002718091">
        <ele>88.0</ele>
        <time>2022-05-01T08:25:58.288Z</time>
      </trkpt>
      <trkpt lat="42.46617799624801" lon="-8.662783009931445">
        <ele>88.4</ele>
        <time>2022-05-01T08:25:59.529Z</time>
      </trkpt>
      <trkpt lat="42.466281009837985" lon="-8.66285802796483">
        <ele>89.1</ele>
        <time>2022-05-01T08:26:02.926Z</time>
      </trkpt>
      <trkpt lat="42.46638402342796" lon="-8.662937991321087">
        <ele>89.5</ele>
        <time>2022-05-01T08:26:06.113Z</time>
      </trkpt>
      <trkpt lat="42.4664789903909" lon="-8.663043016567826">
        <ele>89.6</ele>
        <time>2022-05-01T08:26:08.763Z</time>
      </trkpt>
      <trkpt lat="42.46660999953747" lon="-8.663221970200539">
        <ele>89.0</ele>
        <time>2022-05-01T08:26:12.519Z</time>
      </trkpt>
      <trkpt lat="42.466646963730454" lon="-8.663269998505712">
        <ele>88.5</ele>
        <time>2022-05-01T08:26:13.470Z</time>
      </trkpt>
      <trkpt lat="42.466798005625606" lon="-8.663423974066973">
        <ele>86.3</ele>
        <time>2022-05-01T08:26:17.119Z</time>
      </trkpt>
      <trkpt lat="42.46706304140389" lon="-8.663664031773806">
        <ele>83.6</ele>
        <time>2022-05-01T08:26:22.960Z</time>
      </trkpt>
      <trkpt lat="42.46716898865998" lon="-8.663618015125394">
        <ele>82.6</ele>
        <time>2022-05-01T08:26:24.842Z</time>
      </trkpt>
      <trkpt lat="42.46722003445029" lon="-8.663575015962124">
        <ele>82.1</ele>
        <time>2022-05-01T08:26:25.818Z</time>
      </trkpt>
      <trkpt lat="42.467269990593195" lon="-8.663528999313712">
        <ele>81.6</ele>
        <time>2022-05-01T08:26:26.892Z</time>
      </trkpt>
      <trkpt lat="42.46732195839286" lon="-8.66348197683692">
        <ele>81.2</ele>
        <time>2022-05-01T08:26:27.937Z</time>
      </trkpt>
      <trkpt lat="42.46743100695312" lon="-8.663384998217225">
        <ele>80.1</ele>
        <time>2022-05-01T08:26:30.183Z</time>
      </trkpt>
      <trkpt lat="42.467486998066306" lon="-8.663335964083672">
        <ele>79.6</ele>
        <time>2022-05-01T08:26:31.390Z</time>
      </trkpt>
      <trkpt lat="42.46754399500787" lon="-8.663290031254292">
        <ele>79.3</ele>
        <time>2022-05-01T08:26:32.523Z</time>
      </trkpt>
      <trkpt lat="42.467724960297346" lon="-8.663174025714397">
        <ele>78.2</ele>
        <time>2022-05-01T08:26:35.928Z</time>
      </trkpt>
      <trkpt lat="42.46783501468599" lon="-8.663105964660645">
        <ele>77.4</ele>
        <time>2022-05-01T08:26:38.094Z</time>
      </trkpt>
      <trkpt lat="42.46788698248565" lon="-8.66307101212442">
        <ele>77.0</ele>
        <time>2022-05-01T08:26:39.104Z</time>
      </trkpt>
      <trkpt lat="42.46798496693373" lon="-8.663024995476007">
        <ele>76.3</ele>
        <time>2022-05-01T08:26:40.939Z</time>
      </trkpt>
      <trkpt lat="42.46803098358214" lon="-8.663037987425923">
        <ele>76.0</ele>
        <time>2022-05-01T08:26:41.736Z</time>
      </trkpt>
      <trkpt lat="42.46807297691703" lon="-8.663148041814566">
        <ele>75.6</ele>
        <time>2022-05-01T08:26:43.368Z</time>
      </trkpt>
      <trkpt lat="42.46807599440217" lon="-8.663366977125406">
        <ele>75.1</ele>
        <time>2022-05-01T08:26:46.342Z</time>
      </trkpt>
      <trkpt lat="42.468066019937396" lon="-8.663443000987172">
        <ele>74.9</ele>
        <time>2022-05-01T08:26:47.437Z</time>
      </trkpt>
      <trkpt lat="42.46805503964424" lon="-8.663521958515048">
        <ele>74.8</ele>
        <time>2022-05-01T08:26:48.620Z</time>
      </trkpt>
      <trkpt lat="42.468040036037564" lon="-8.663763022050261">
        <ele>74.2</ele>
        <time>2022-05-01T08:26:52.250Z</time>
      </trkpt>
      <trkpt lat="42.46804799884558" lon="-8.663929989561439">
        <ele>73.5</ele>
        <time>2022-05-01T08:26:54.742Z</time>
      </trkpt>
      <trkpt lat="42.468041963875294" lon="-8.664108021184802">
        <ele>72.8</ele>
        <time>2022-05-01T08:26:57.448Z</time>
      </trkpt>
      <trkpt lat="42.468020003288984" lon="-8.66429602727294">
        <ele>72.5</ele>
        <time>2022-05-01T08:27:00.233Z</time>
      </trkpt>
      <trkpt lat="42.46799502521753" lon="-8.664484033361077">
        <ele>72.3</ele>
        <time>2022-05-01T08:27:02.619Z</time>
      </trkpt>
      <trkpt lat="42.46792403049767" lon="-8.664821991696954">
        <ele>72.1</ele>
        <time>2022-05-01T08:27:07.330Z</time>
      </trkpt>
      <trkpt lat="42.4678950291127" lon="-8.664983008056879">
        <ele>72.4</ele>
        <time>2022-05-01T08:27:09.784Z</time>
      </trkpt>
      <trkpt lat="42.46789603494108" lon="-8.665063977241516">
        <ele>72.5</ele>
        <time>2022-05-01T08:27:11.098Z</time>
      </trkpt>
      <trkpt lat="42.46790701523423" lon="-8.665146036073565">
        <ele>72.8</ele>
        <time>2022-05-01T08:27:12.604Z</time>
      </trkpt>
      <trkpt lat="42.4679690413177" lon="-8.665342004969716">
        <ele>74.1</ele>
        <time>2022-05-01T08:27:16.828Z</time>
      </trkpt>
      <trkpt lat="42.46799100190401" lon="-8.66539397276938">
        <ele>74.6</ele>
        <time>2022-05-01T08:27:18.095Z</time>
      </trkpt>
      <trkpt lat="42.46805696748197" lon="-8.66560997441411">
        <ele>76.9</ele>
        <time>2022-05-01T08:27:23.095Z</time>
      </trkpt>
      <trkpt lat="42.468084963038564" lon="-8.665761016309261">
        <ele>78.5</ele>
        <time>2022-05-01T08:27:26.640Z</time>
      </trkpt>
      <trkpt lat="42.46811295859516" lon="-8.665869981050491">
        <ele>79.6</ele>
        <time>2022-05-01T08:27:29.231Z</time>
      </trkpt>
      <trkpt lat="42.46815998107195" lon="-8.665957991033792">
        <ele>80.6</ele>
        <time>2022-05-01T08:27:31.604Z</time>
      </trkpt>
      <trkpt lat="42.468213960528374" lon="-8.666024040430784">
        <ele>81.6</ele>
        <time>2022-05-01T08:27:33.903Z</time>
      </trkpt>
      <trkpt lat="42.468233993276954" lon="-8.66603996604681">
        <ele>81.9</ele>
        <time>2022-05-01T08:27:34.681Z</time>
      </trkpt>
      <trkpt lat="42.468323009088635" lon="-8.666110960766673">
        <ele>83.0</ele>
        <time>2022-05-01T08:27:38.109Z</time>
      </trkpt>
      <trkpt lat="42.4683940038085" lon="-8.666153959929943">
        <ele>83.9</ele>
        <time>2022-05-01T08:27:40.817Z</time>
      </trkpt>
      <trkpt lat="42.46843700297177" lon="-8.666184972971678">
        <ele>84.2</ele>
        <time>2022-05-01T08:27:42.620Z</time>
      </trkpt>
      <trkpt lat="42.46846198104322" lon="-8.666200982406735">
        <ele>84.2</ele>
        <time>2022-05-01T08:27:43.578Z</time>
      </trkpt>
      <trkpt lat="42.46854202821851" lon="-8.666271977126598">
        <ele>84.3</ele>
        <time>2022-05-01T08:27:46.759Z</time>
      </trkpt>
      <trkpt lat="42.46856700628996" lon="-8.66629796102643">
        <ele>84.3</ele>
        <time>2022-05-01T08:27:47.915Z</time>
      </trkpt>
      <trkpt lat="42.46861604042351" lon="-8.666358981281519">
        <ele>84.5</ele>
        <time>2022-05-01T08:27:50.398Z</time>
      </trkpt>
      <trkpt lat="42.46869902126491" lon="-8.666464006528258">
        <ele>84.5</ele>
        <time>2022-05-01T08:27:54.592Z</time>
      </trkpt>
      <trkpt lat="42.46872399933636" lon="-8.666504994034767">
        <ele>84.5</ele>
        <time>2022-05-01T08:27:55.951Z</time>
      </trkpt>
      <trkpt lat="42.468815026804805" lon="-8.66661999374628">
        <ele>84.5</ele>
        <time>2022-05-01T08:28:00.224Z</time>
      </trkpt>
      <trkpt lat="42.468922985717654" lon="-8.666713032871485">
        <ele>84.6</ele>
        <time>2022-05-01T08:28:04.840Z</time>
      </trkpt>
      <trkpt lat="42.4689619615674" lon="-8.666739016771317">
        <ele>84.7</ele>
        <time>2022-05-01T08:28:06.387Z</time>
      </trkpt>
      <trkpt lat="42.46908601373434" lon="-8.666806994006038">
        <ele>85.1</ele>
        <time>2022-05-01T08:28:11.427Z</time>
      </trkpt>
      <trkpt lat="42.46922196820378" lon="-8.666858039796352">
        <ele>85.7</ele>
        <time>2022-05-01T08:28:16.903Z</time>
      </trkpt>
      <trkpt lat="42.46949798427522" lon="-8.666965998709202">
        <ele>87.6</ele>
        <time>2022-05-01T08:28:27.781Z</time>
      </trkpt>
      <trkpt lat="42.46961901895702" lon="-8.66700204089284">
        <ele>88.7</ele>
        <time>2022-05-01T08:28:32.889Z</time>
      </trkpt>
      <trkpt lat="42.469762014225125" lon="-8.667016038671136">
        <ele>89.8</ele>
        <time>2022-05-01T08:28:38.762Z</time>
      </trkpt>
      <trkpt lat="42.46978900395334" lon="-8.667022995650768">
        <ele>90.1</ele>
        <time>2022-05-01T08:28:39.794Z</time>
      </trkpt>
      <trkpt lat="42.46985698118806" lon="-8.66707001812756">
        <ele>90.4</ele>
        <time>2022-05-01T08:28:43.075Z</time>
      </trkpt>
      <trkpt lat="42.4698930233717" lon="-8.667117040604353">
        <ele>90.9</ele>
        <time>2022-05-01T08:28:45.026Z</time>
      </trkpt>
      <trkpt lat="42.46992797590792" lon="-8.667169008404016">
        <ele>91.4</ele>
        <time>2022-05-01T08:28:46.903Z</time>
      </trkpt>
      <trkpt lat="42.470017997547984" lon="-8.667247965931892">
        <ele>92.4</ele>
        <time>2022-05-01T08:28:51.133Z</time>
      </trkpt>
      <trkpt lat="42.470041969791055" lon="-8.667261963710189">
        <ele>92.5</ele>
        <time>2022-05-01T08:28:52.085Z</time>
      </trkpt>
      <trkpt lat="42.4701139703393" lon="-8.6673079803586">
        <ele>92.9</ele>
        <time>2022-05-01T08:28:55.019Z</time>
      </trkpt>
      <trkpt lat="42.47021899558604" lon="-8.667416023090482">
        <ele>94.6</ele>
        <time>2022-05-01T08:28:59.675Z</time>
      </trkpt>
      <trkpt lat="42.47030599974096" lon="-8.667538985610008">
        <ele>96.5</ele>
        <time>2022-05-01T08:29:04.143Z</time>
      </trkpt>
      <trkpt lat="42.47037598863244" lon="-8.667644010856748">
        <ele>98.4</ele>
        <time>2022-05-01T08:29:07.650Z</time>
      </trkpt>
      <trkpt lat="42.470447989180684" lon="-8.667749036103487">
        <ele>99.3</ele>
        <time>2022-05-01T08:29:11.284Z</time>
      </trkpt>
      <trkpt lat="42.470495011657476" lon="-8.667838973924518">
        <ele>99.8</ele>
        <time>2022-05-01T08:29:14.252Z</time>
      </trkpt>
      <trkpt lat="42.470511021092534" lon="-8.667869986966252">
        <ele>99.9</ele>
        <time>2022-05-01T08:29:15.209Z</time>
      </trkpt>
      <trkpt lat="42.47059601359069" lon="-8.66803796030581">
        <ele>100.3</ele>
        <time>2022-05-01T08:29:20.746Z</time>
      </trkpt>
      <trkpt lat="42.4706319719553" lon="-8.668112978339195">
        <ele>100.6</ele>
        <time>2022-05-01T08:29:23.028Z</time>
      </trkpt>
      <trkpt lat="42.470726016908884" lon="-8.668299978598952">
        <ele>100.8</ele>
        <time>2022-05-01T08:29:29.113Z</time>
      </trkpt>
      <trkpt lat="42.4708270188421" lon="-8.668525032699108">
        <ele>99.9</ele>
        <time>2022-05-01T08:29:35.922Z</time>
      </trkpt>
      <trkpt lat="42.47088602744043" lon="-8.668676996603608">
        <ele>100.2</ele>
        <time>2022-05-01T08:29:40.286Z</time>
      </trkpt>
      <trkpt lat="42.47100396081805" lon="-8.668975979089737">
        <ele>101.0</ele>
        <time>2022-05-01T08:29:48.571Z</time>
      </trkpt>
      <trkpt lat="42.471203031018376" lon="-8.66947797127068">
        <ele>100.9</ele>
        <time>2022-05-01T08:30:02.418Z</time>
      </trkpt>
      <trkpt lat="42.47137603349984" lon="-8.669804027304053">
        <ele>102.3</ele>
        <time>2022-05-01T08:30:12.149Z</time>
      </trkpt>
      <trkpt lat="42.47147502377629" lon="-8.670108038932085">
        <ele>103.4</ele>
        <time>2022-05-01T08:30:20.230Z</time>
      </trkpt>
      <trkpt lat="42.47149597853422" lon="-8.670178027823567">
        <ele>103.6</ele>
        <time>2022-05-01T08:30:22.167Z</time>
      </trkpt>
      <trkpt lat="42.47157501988113" lon="-8.670239970088005">
        <ele>103.7</ele>
        <time>2022-05-01T08:30:25.569Z</time>
      </trkpt>
      <trkpt lat="42.471695970743895" lon="-8.670261008664966">
        <ele>103.7</ele>
        <time>2022-05-01T08:30:30.520Z</time>
      </trkpt>
      <trkpt lat="42.471869979053736" lon="-8.670277018100023">
        <ele>104.8</ele>
        <time>2022-05-01T08:30:37.581Z</time>
      </trkpt>
      <trkpt lat="42.47198397293687" lon="-8.670279029756784">
        <ele>105.6</ele>
        <time>2022-05-01T08:30:42.378Z</time>
      </trkpt>
      <trkpt lat="42.47207600623369" lon="-8.67029001004994">
        <ele>106.3</ele>
        <time>2022-05-01T08:30:45.924Z</time>
      </trkpt>
      <trkpt lat="42.47226200066507" lon="-8.670324040576816">
        <ele>108.0</ele>
        <time>2022-05-01T08:30:53.069Z</time>
      </trkpt>
      <trkpt lat="42.4722879845649" lon="-8.670337032526731">
        <ele>108.3</ele>
        <time>2022-05-01T08:30:54.051Z</time>
      </trkpt>
      <trkpt lat="42.47237700037658" lon="-8.670414984226227">
        <ele>109.7</ele>
        <time>2022-05-01T08:30:58.044Z</time>
      </trkpt>
      <trkpt lat="42.47241103090346" lon="-8.670468041673303">
        <ele>110.6</ele>
        <time>2022-05-01T08:31:00.254Z</time>
      </trkpt>
      <trkpt lat="42.47243600897491" lon="-8.67052797228098">
        <ele>111.4</ele>
        <time>2022-05-01T08:31:02.222Z</time>
      </trkpt>
      <trkpt lat="42.472469033673406" lon="-8.67065898142755">
        <ele>113.2</ele>
        <time>2022-05-01T08:31:06.446Z</time>
      </trkpt>
      <trkpt lat="42.47247498482466" lon="-8.670689994469285">
        <ele>113.6</ele>
        <time>2022-05-01T08:31:07.341Z</time>
      </trkpt>
      <trkpt lat="42.47248101979494" lon="-8.670824021100998">
        <ele>114.9</ele>
        <time>2022-05-01T08:31:11.355Z</time>
      </trkpt>
      <trkpt lat="42.47248495928943" lon="-8.670962993055582">
        <ele>116.2</ele>
        <time>2022-05-01T08:31:15.757Z</time>
      </trkpt>
      <trkpt lat="42.4724780023098" lon="-8.671149993315339">
        <ele>117.6</ele>
        <time>2022-05-01T08:31:22.529Z</time>
      </trkpt>
      <trkpt lat="42.47248101979494" lon="-8.671291982755065">
        <ele>118.7</ele>
        <time>2022-05-01T08:31:27.323Z</time>
      </trkpt>
      <trkpt lat="42.47248697094619" lon="-8.671471020206809">
        <ele>120.2</ele>
        <time>2022-05-01T08:31:33.358Z</time>
      </trkpt>
      <trkpt lat="42.47248697094619" lon="-8.671576967462897">
        <ele>121.0</ele>
        <time>2022-05-01T08:31:37.163Z</time>
      </trkpt>
      <trkpt lat="42.47248596511781" lon="-8.671649973839521">
        <ele>121.5</ele>
        <time>2022-05-01T08:31:39.814Z</time>
      </trkpt>
      <trkpt lat="42.472489988431334" lon="-8.671829011291265">
        <ele>122.8</ele>
        <time>2022-05-01T08:31:46.192Z</time>
      </trkpt>
      <trkpt lat="42.47248697094619" lon="-8.671936970204115">
        <ele>123.3</ele>
        <time>2022-05-01T08:31:50.230Z</time>
      </trkpt>
      <trkpt lat="42.47248596511781" lon="-8.671973012387753">
        <ele>123.5</ele>
        <time>2022-05-01T08:31:51.405Z</time>
      </trkpt>
      <trkpt lat="42.472493005916476" lon="-8.672111984342337">
        <ele>124.3</ele>
        <time>2022-05-01T08:31:55.700Z</time>
      </trkpt>
      <trkpt lat="42.47250096872449" lon="-8.67218499071896">
        <ele>124.9</ele>
        <time>2022-05-01T08:31:58.011Z</time>
      </trkpt>
      <trkpt lat="42.4725469853729" lon="-8.672255985438824">
        <ele>126.0</ele>
        <time>2022-05-01T08:32:00.705Z</time>
      </trkpt>
      <trkpt lat="42.47256902977824" lon="-8.672260008752346">
        <ele>126.4</ele>
        <time>2022-05-01T08:32:01.503Z</time>
      </trkpt>
      <trkpt lat="42.47263298369944" lon="-8.672198988497257">
        <ele>127.9</ele>
        <time>2022-05-01T08:32:04.152Z</time>
      </trkpt>
      <trkpt lat="42.472660979256034" lon="-8.672101004049182">
        <ele>128.1</ele>
        <time>2022-05-01T08:32:06.656Z</time>
      </trkpt>
      <trkpt lat="42.47266902588308" lon="-8.672067979350686">
        <ele>128.1</ele>
        <time>2022-05-01T08:32:07.453Z</time>
      </trkpt>
      <trkpt lat="42.47270096093416" lon="-8.671973012387753">
        <ele>128.3</ele>
        <time>2022-05-01T08:32:09.772Z</time>
      </trkpt>
      <trkpt lat="42.47275200672448" lon="-8.671848960220814">
        <ele>128.6</ele>
        <time>2022-05-01T08:32:12.848Z</time>
      </trkpt>
      <trkpt lat="42.47278000228107" lon="-8.671751981601119">
        <ele>128.9</ele>
        <time>2022-05-01T08:32:15.134Z</time>
      </trkpt>
      <trkpt lat="42.47280799783766" lon="-8.671660032123327">
        <ele>129.6</ele>
        <time>2022-05-01T08:32:17.265Z</time>
      </trkpt>
      <trkpt lat="42.47284596785903" lon="-8.671544026583433">
        <ele>130.6</ele>
        <time>2022-05-01T08:32:20.136Z</time>
      </trkpt>
      <trkpt lat="42.4728939961642" lon="-8.671373035758734">
        <ele>131.7</ele>
        <time>2022-05-01T08:32:24.525Z</time>
      </trkpt>
      <trkpt lat="42.47290598228574" lon="-8.67134696803987">
        <ele>132.0</ele>
        <time>2022-05-01T08:32:25.232Z</time>
      </trkpt>
      <trkpt lat="42.472962979227304" lon="-8.67123900912702">
        <ele>132.7</ele>
        <time>2022-05-01T08:32:28.298Z</time>
      </trkpt>
      <trkpt lat="42.4730100017041" lon="-8.671170026063919">
        <ele>133.6</ele>
        <time>2022-05-01T08:32:30.396Z</time>
      </trkpt>
      <trkpt lat="42.47302399948239" lon="-8.671146975830197">
        <ele>133.8</ele>
        <time>2022-05-01T08:32:31.154Z</time>
      </trkpt>
      <trkpt lat="42.473092982545495" lon="-8.67106500081718">
        <ele>134.5</ele>
        <time>2022-05-01T08:32:34.301Z</time>
      </trkpt>
      <trkpt lat="42.47313195839524" lon="-8.671028036624193">
        <ele>134.8</ele>
        <time>2022-05-01T08:32:36.028Z</time>
      </trkpt>
      <trkpt lat="42.47319297865033" lon="-8.670982019975781">
        <ele>135.6</ele>
        <time>2022-05-01T08:32:38.595Z</time>
      </trkpt>
      <trkpt lat="42.47327696532011" lon="-8.670919993892312">
        <ele>136.6</ele>
        <time>2022-05-01T08:32:42.060Z</time>
      </trkpt>
      <trkpt lat="42.47330001555383" lon="-8.670904990285635">
        <ele>136.8</ele>
        <time>2022-05-01T08:32:42.932Z</time>
      </trkpt>
      <trkpt lat="42.473392970860004" lon="-8.670867020264268">
        <ele>137.5</ele>
        <time>2022-05-01T08:32:46.739Z</time>
      </trkpt>
      <trkpt lat="42.47348500415683" lon="-8.670856961980462">
        <ele>138.7</ele>
        <time>2022-05-01T08:32:50.733Z</time>
      </trkpt>
      <trkpt lat="42.47350797057152" lon="-8.670860985293984">
        <ele>139.0</ele>
        <time>2022-05-01T08:32:51.870Z</time>
      </trkpt>
      <trkpt lat="42.47362196445465" lon="-8.670899961143732">
        <ele>140.6</ele>
        <time>2022-05-01T08:32:58.010Z</time>
      </trkpt>
      <trkpt lat="42.47364400885999" lon="-8.670909013599157">
        <ele>140.9</ele>
        <time>2022-05-01T08:32:59.050Z</time>
      </trkpt>
      <trkpt lat="42.47370796278119" lon="-8.670941032469273">
        <ele>142.0</ele>
        <time>2022-05-01T08:33:02.414Z</time>
      </trkpt>
      <trkpt lat="42.47381600551307" lon="-8.670996017754078">
        <ele>143.6</ele>
        <time>2022-05-01T08:33:08.636Z</time>
      </trkpt>
      <trkpt lat="42.47391298413277" lon="-8.6710449680686">
        <ele>145.1</ele>
        <time>2022-05-01T08:33:14.775Z</time>
      </trkpt>
      <trkpt lat="42.47396402992308" lon="-8.671076986938715">
        <ele>146.1</ele>
        <time>2022-05-01T08:33:18.546Z</time>
      </trkpt>
      <trkpt lat="42.47400300577283" lon="-8.671101965010166">
        <ele>146.8</ele>
        <time>2022-05-01T08:33:21.445Z</time>
      </trkpt>
      <trkpt lat="42.47407400049269" lon="-8.671149993315339">
        <ele>148.1</ele>
        <time>2022-05-01T08:33:26.849Z</time>
      </trkpt>
      <trkpt lat="42.47414901852608" lon="-8.671192992478609">
        <ele>149.2</ele>
        <time>2022-05-01T08:33:32.974Z</time>
      </trkpt>
      <trkpt lat="42.4741979688406" lon="-8.671228028833866">
        <ele>150.2</ele>
        <time>2022-05-01T08:33:37.629Z</time>
      </trkpt>
      <trkpt lat="42.474211966618896" lon="-8.671241020783782">
        <ele>150.5</ele>
        <time>2022-05-01T08:33:38.691Z</time>
      </trkpt>
      <trkpt lat="42.47428002767265" lon="-8.671311009675264">
        <ele>152.4</ele>
        <time>2022-05-01T08:33:44.369Z</time>
      </trkpt>
      <trkpt lat="42.47431397438049" lon="-8.67134696803987">
        <ele>153.3</ele>
        <time>2022-05-01T08:33:47.515Z</time>
      </trkpt>
      <trkpt lat="42.47434800490737" lon="-8.671383010223508">
        <ele>153.9</ele>
        <time>2022-05-01T08:33:50.960Z</time>
      </trkpt>
      <trkpt lat="42.47441195882857" lon="-8.671449981629848">
        <ele>155.0</ele>
        <time>2022-05-01T08:33:56.238Z</time>
      </trkpt>
      <trkpt lat="42.474444983527064" lon="-8.671487029641867">
        <ele>155.6</ele>
        <time>2022-05-01T08:33:59.389Z</time>
      </trkpt>
      <trkpt lat="42.4744810257107" lon="-8.67151703685522">
        <ele>156.0</ele>
        <time>2022-05-01T08:34:02.250Z</time>
      </trkpt>
      <trkpt lat="42.474531987681985" lon="-8.671555006876588">
        <ele>156.6</ele>
        <time>2022-05-01T08:34:06.354Z</time>
      </trkpt>
      <trkpt lat="42.47454799711704" lon="-8.671569004654884">
        <ele>156.8</ele>
        <time>2022-05-01T08:34:07.789Z</time>
      </trkpt>
      <trkpt lat="42.47462200932205" lon="-8.671643016859889">
        <ele>158.3</ele>
        <time>2022-05-01T08:34:15.546Z</time>
      </trkpt>
      <trkpt lat="42.474637012928724" lon="-8.671658020466566">
        <ele>158.5</ele>
        <time>2022-05-01T08:34:17.234Z</time>
      </trkpt>
      <trkpt lat="42.474685963243246" lon="-8.671701019629836">
        <ele>159.3</ele>
        <time>2022-05-01T08:34:22.463Z</time>
      </trkpt>
      <trkpt lat="42.474725022912025" lon="-8.671724991872907">
        <ele>159.7</ele>
        <time>2022-05-01T08:34:26.448Z</time>
      </trkpt>
      <trkpt lat="42.474766010418534" lon="-8.671748964115977">
        <ele>160.1</ele>
        <time>2022-05-01T08:34:30.792Z</time>
      </trkpt>
      <trkpt lat="42.47484999708831" lon="-8.671794980764389">
        <ele>160.8</ele>
        <time>2022-05-01T08:34:39.721Z</time>
      </trkpt>
      <trkpt lat="42.47489098459482" lon="-8.67181601934135">
        <ele>161.2</ele>
        <time>2022-05-01T08:34:42.748Z</time>
      </trkpt>
      <trkpt lat="42.4749110173434" lon="-8.671823982149363">
        <ele>161.4</ele>
        <time>2022-05-01T08:34:43.897Z</time>
      </trkpt>
      <trkpt lat="42.47492903843522" lon="-8.671833034604788">
        <ele>161.7</ele>
        <time>2022-05-01T08:34:45.068Z</time>
      </trkpt>
      <trkpt lat="42.475004978477955" lon="-8.671863041818142">
        <ele>162.6</ele>
        <time>2022-05-01T08:34:50.337Z</time>
      </trkpt>
      <trkpt lat="42.475022999569774" lon="-8.671877039596438">
        <ele>163.0</ele>
        <time>2022-05-01T08:34:51.452Z</time>
      </trkpt>
      <trkpt lat="42.47507798485458" lon="-8.671905035153031">
        <ele>163.8</ele>
        <time>2022-05-01T08:34:54.762Z</time>
      </trkpt>
      <trkpt lat="42.47511402703822" lon="-8.671920960769057">
        <ele>164.3</ele>
        <time>2022-05-01T08:34:56.885Z</time>
      </trkpt>
      <trkpt lat="42.47514998540282" lon="-8.671941999346018">
        <ele>164.8</ele>
        <time>2022-05-01T08:34:59.303Z</time>
      </trkpt>
      <trkpt lat="42.47522299177945" lon="-8.671986004337668">
        <ele>165.9</ele>
        <time>2022-05-01T08:35:04.152Z</time>
      </trkpt>
      <trkpt lat="42.475258028134704" lon="-8.671996984630823">
        <ele>166.1</ele>
        <time>2022-05-01T08:35:05.962Z</time>
      </trkpt>
      <trkpt lat="42.47527403756976" lon="-8.672003019601107">
        <ele>166.3</ele>
        <time>2022-05-01T08:35:06.896Z</time>
      </trkpt>
      <trkpt lat="42.47535198926926" lon="-8.672036966308951">
        <ele>167.0</ele>
        <time>2022-05-01T08:35:11.477Z</time>
      </trkpt>
      <trkpt lat="42.475367998704314" lon="-8.672056999057531">
        <ele>167.3</ele>
        <time>2022-05-01T08:35:12.793Z</time>
      </trkpt>
      <trkpt lat="42.475390965119004" lon="-8.672168981283903">
        <ele>169.3</ele>
        <time>2022-05-01T08:35:17.872Z</time>
      </trkpt>
      <trkpt lat="42.475347965955734" lon="-8.672241987660527">
        <ele>170.8</ele>
        <time>2022-05-01T08:35:21.651Z</time>
      </trkpt>
      <trkpt lat="42.47533296234906" lon="-8.672254979610443">
        <ele>171.1</ele>
        <time>2022-05-01T08:35:22.484Z</time>
      </trkpt>
      <trkpt lat="42.475241012871265" lon="-8.672293033450842">
        <ele>172.2</ele>
        <time>2022-05-01T08:35:26.702Z</time>
      </trkpt>
      <trkpt lat="42.47522299177945" lon="-8.672297978773713">
        <ele>172.3</ele>
        <time>2022-05-01T08:35:27.430Z</time>
      </trkpt>
      <trkpt lat="42.47516800649464" lon="-8.672309964895248">
        <ele>172.8</ele>
        <time>2022-05-01T08:35:29.470Z</time>
      </trkpt>
      <trkpt lat="42.47511402703822" lon="-8.672317005693913">
        <ele>173.1</ele>
        <time>2022-05-01T08:35:31.336Z</time>
      </trkpt>
      <trkpt lat="42.47509500011802" lon="-8.672320023179054">
        <ele>173.2</ele>
        <time>2022-05-01T08:35:31.962Z</time>
      </trkpt>
      <trkpt lat="42.475045965984464" lon="-8.672327985987067">
        <ele>173.6</ele>
        <time>2022-05-01T08:35:33.514Z</time>
      </trkpt>
      <trkpt lat="42.47499098069966" lon="-8.672346007078886">
        <ele>174.2</ele>
        <time>2022-05-01T08:35:35.233Z</time>
      </trkpt>
      <trkpt lat="42.47497203759849" lon="-8.672348018735647">
        <ele>174.3</ele>
        <time>2022-05-01T08:35:35.794Z</time>
      </trkpt>
      <trkpt lat="42.47488603927195" lon="-8.672386994585395">
        <ele>175.5</ele>
        <time>2022-05-01T08:35:38.521Z</time>
      </trkpt>
      <trkpt lat="42.474872963503" lon="-8.672401998192072">
        <ele>175.9</ele>
        <time>2022-05-01T08:35:39.023Z</time>
      </trkpt>
      <trkpt lat="42.474830970168114" lon="-8.67244097404182">
        <ele>176.7</ele>
        <time>2022-05-01T08:35:40.483Z</time>
      </trkpt>
      <trkpt lat="42.47481697238982" lon="-8.672458995133638">
        <ele>177.1</ele>
        <time>2022-05-01T08:35:41.026Z</time>
      </trkpt>
      <trkpt lat="42.474767016246915" lon="-8.6725490167737">
        <ele>179.0</ele>
        <time>2022-05-01T08:35:43.578Z</time>
      </trkpt>
      <trkpt lat="42.47475796379149" lon="-8.67265303619206">
        <ele>181.3</ele>
        <time>2022-05-01T08:35:46.007Z</time>
      </trkpt>
      <trkpt lat="42.47478101402521" lon="-8.672687988728285">
        <ele>182.2</ele>
        <time>2022-05-01T08:35:47.199Z</time>
      </trkpt>
      <trkpt lat="42.47479601763189" lon="-8.672701986506581">
        <ele>182.5</ele>
        <time>2022-05-01T08:35:47.795Z</time>
      </trkpt>
      <trkpt lat="42.4748370051384" lon="-8.672727970406413">
        <ele>183.3</ele>
        <time>2022-05-01T08:35:49.218Z</time>
      </trkpt>
      <trkpt lat="42.474871035665274" lon="-8.672735011205077">
        <ele>183.6</ele>
        <time>2022-05-01T08:35:50.407Z</time>
      </trkpt>
      <trkpt lat="42.47488796710968" lon="-8.6727390345186">
        <ele>183.7</ele>
        <time>2022-05-01T08:35:50.970Z</time>
      </trkpt>
      <trkpt lat="42.474958039820194" lon="-8.672759989276528">
        <ele>184.2</ele>
        <time>2022-05-01T08:35:53.367Z</time>
      </trkpt>
      <trkpt lat="42.47498796321452" lon="-8.672772981226444">
        <ele>184.5</ele>
        <time>2022-05-01T08:35:54.503Z</time>
      </trkpt>
      <trkpt lat="42.47503498569131" lon="-8.672798965126276">
        <ele>185.1</ele>
        <time>2022-05-01T08:35:56.381Z</time>
      </trkpt>
      <trkpt lat="42.475110003724694" lon="-8.672809023410082">
        <ele>185.4</ele>
        <time>2022-05-01T08:35:59.122Z</time>
      </trkpt>
      <trkpt lat="42.47512701898813" lon="-8.672811035066843">
        <ele>185.4</ele>
        <time>2022-05-01T08:35:59.706Z</time>
      </trkpt>
      <trkpt lat="42.47520103119314" lon="-8.672834001481533">
        <ele>185.9</ele>
        <time>2022-05-01T08:36:02.466Z</time>
      </trkpt>
      <trkpt lat="42.475240007042885" lon="-8.67284799925983">
        <ele>186.2</ele>
        <time>2022-05-01T08:36:03.845Z</time>
      </trkpt>
      <trkpt lat="42.475258028134704" lon="-8.672863002866507">
        <ele>186.6</ele>
        <time>2022-05-01T08:36:04.533Z</time>
      </trkpt>
      <trkpt lat="42.47531301341951" lon="-8.672937015071511">
        <ele>188.4</ele>
        <time>2022-05-01T08:36:07.430Z</time>
      </trkpt>
      <trkpt lat="42.47531502507627" lon="-8.672962998971343">
        <ele>189.0</ele>
        <time>2022-05-01T08:36:08.104Z</time>
      </trkpt>
      <trkpt lat="42.475304966792464" lon="-8.673057965934277">
        <ele>191.0</ele>
        <time>2022-05-01T08:36:10.878Z</time>
      </trkpt>
      <trkpt lat="42.47529499232769" lon="-8.673125021159649">
        <ele>192.4</ele>
        <time>2022-05-01T08:36:13.137Z</time>
      </trkpt>
      <trkpt lat="42.4752669967711" lon="-8.67319199256599">
        <ele>193.8</ele>
        <time>2022-05-01T08:36:16.038Z</time>
      </trkpt>
      <trkpt lat="42.47524595819414" lon="-8.673230968415737">
        <ele>194.4</ele>
        <time>2022-05-01T08:36:18.106Z</time>
      </trkpt>
      <trkpt lat="42.47520798817277" lon="-8.673315038904548">
        <ele>195.6</ele>
        <time>2022-05-01T08:36:22.883Z</time>
      </trkpt>
      <trkpt lat="42.475176975131035" lon="-8.673391984775662">
        <ele>196.7</ele>
        <time>2022-05-01T08:36:26.730Z</time>
      </trkpt>
      <trkpt lat="42.475133975967765" lon="-8.673457028344274">
        <ele>197.5</ele>
        <time>2022-05-01T08:36:30.692Z</time>
      </trkpt>
      <trkpt lat="42.47509902343154" lon="-8.67355702444911">
        <ele>198.6</ele>
        <time>2022-05-01T08:36:36.357Z</time>
      </trkpt>
      <trkpt lat="42.475086031481624" lon="-8.673635981976986">
        <ele>199.6</ele>
        <time>2022-05-01T08:36:41.006Z</time>
      </trkpt>
      <trkpt lat="42.47508301399648" lon="-8.673660038039088">
        <ele>199.8</ele>
        <time>2022-05-01T08:36:42.079Z</time>
      </trkpt>
      <trkpt lat="42.47506398707628" lon="-8.673790041357279">
        <ele>200.9</ele>
        <time>2022-05-01T08:36:47.736Z</time>
      </trkpt>
      <trkpt lat="42.47505996376276" lon="-8.673817031085491">
        <ele>201.2</ele>
        <time>2022-05-01T08:36:49.033Z</time>
      </trkpt>
      <trkpt lat="42.47505099512637" lon="-8.673919038847089">
        <ele>202.0</ele>
        <time>2022-05-01T08:36:54.202Z</time>
      </trkpt>
      <trkpt lat="42.475048983469605" lon="-8.673973018303514">
        <ele>202.4</ele>
        <time>2022-05-01T08:36:57.197Z</time>
      </trkpt>
      <trkpt lat="42.47505401261151" lon="-8.67405298165977">
        <ele>203.1</ele>
        <time>2022-05-01T08:37:02.173Z</time>
      </trkpt>
      <trkpt lat="42.47507102787495" lon="-8.674179967492819">
        <ele>204.4</ele>
        <time>2022-05-01T08:37:09.846Z</time>
      </trkpt>
      <trkpt lat="42.47511402703822" lon="-8.67428700439632">
        <ele>206.0</ele>
        <time>2022-05-01T08:37:16.634Z</time>
      </trkpt>
      <trkpt lat="42.47513799928129" lon="-8.674325980246067">
        <ele>206.7</ele>
        <time>2022-05-01T08:37:19.470Z</time>
      </trkpt>
      <trkpt lat="42.47514998540282" lon="-8.674344001337886">
        <ele>207.1</ele>
        <time>2022-05-01T08:37:20.517Z</time>
      </trkpt>
      <trkpt lat="42.475176975131035" lon="-8.674378031864762">
        <ele>207.5</ele>
        <time>2022-05-01T08:37:22.326Z</time>
      </trkpt>
      <trkpt lat="42.475241012871265" lon="-8.67441700771451">
        <ele>208.6</ele>
        <time>2022-05-01T08:37:26.120Z</time>
      </trkpt>
      <trkpt lat="42.47531703673303" lon="-8.674434022977948">
        <ele>209.9</ele>
        <time>2022-05-01T08:37:29.975Z</time>
      </trkpt>
      <trkpt lat="42.47535802423954" lon="-8.67443704046309">
        <ele>210.6</ele>
        <time>2022-05-01T08:37:31.772Z</time>
      </trkpt>
      <trkpt lat="42.475393982604146" lon="-8.674437962472439">
        <ele>211.2</ele>
        <time>2022-05-01T08:37:33.562Z</time>
      </trkpt>
      <trkpt lat="42.47546296566725" lon="-8.674419019371271">
        <ele>212.2</ele>
        <time>2022-05-01T08:37:37.237Z</time>
      </trkpt>
      <trkpt lat="42.47548199258745" lon="-8.67441600188613">
        <ele>212.4</ele>
        <time>2022-05-01T08:37:38.356Z</time>
      </trkpt>
      <trkpt lat="42.475561033934355" lon="-8.674388006329536">
        <ele>213.5</ele>
        <time>2022-05-01T08:37:43.124Z</time>
      </trkpt>
      <trkpt lat="42.4755809828639" lon="-8.674378031864762">
        <ele>213.7</ele>
        <time>2022-05-01T08:37:44.165Z</time>
      </trkpt>
      <trkpt lat="42.47563596814871" lon="-8.674345007166266">
        <ele>214.2</ele>
        <time>2022-05-01T08:37:47.310Z</time>
      </trkpt>
      <trkpt lat="42.475669998675585" lon="-8.674322040751576">
        <ele>214.4</ele>
        <time>2022-05-01T08:37:49.029Z</time>
      </trkpt>
      <trkpt lat="42.47570402920246" lon="-8.674295973032713">
        <ele>214.4</ele>
        <time>2022-05-01T08:37:50.859Z</time>
      </trkpt>
      <trkpt lat="42.47581399977207" lon="-8.674208968877792">
        <ele>214.4</ele>
        <time>2022-05-01T08:37:56.320Z</time>
      </trkpt>
      <trkpt lat="42.47589698061347" lon="-8.674206035211682">
        <ele>214.9</ele>
        <time>2022-05-01T08:38:00.388Z</time>
      </trkpt>
      <trkpt lat="42.47593897394836" lon="-8.674217015504837">
        <ele>215.4</ele>
        <time>2022-05-01T08:38:02.773Z</time>
      </trkpt>
      <trkpt lat="42.47600896283984" lon="-8.674252973869443">
        <ele>216.7</ele>
        <time>2022-05-01T08:38:07.302Z</time>
      </trkpt>
      <trkpt lat="42.476079035550356" lon="-8.674306031316519">
        <ele>218.2</ele>
        <time>2022-05-01T08:38:12.787Z</time>
      </trkpt>
      <trkpt lat="42.47611398808658" lon="-8.674328997731209">
        <ele>218.8</ele>
        <time>2022-05-01T08:38:14.910Z</time>
      </trkpt>
      <trkpt lat="42.47619504109025" lon="-8.674406027421355">
        <ele>220.4</ele>
        <time>2022-05-01T08:38:20.549Z</time>
      </trkpt>
      <trkpt lat="42.476270981132984" lon="-8.674468975514174">
        <ele>221.7</ele>
        <time>2022-05-01T08:38:25.856Z</time>
      </trkpt>
      <trkpt lat="42.476314986124635" lon="-8.674506023526192">
        <ele>222.3</ele>
        <time>2022-05-01T08:38:29.154Z</time>
      </trkpt>
      <trkpt lat="42.47633099555969" lon="-8.674517003819346">
        <ele>222.5</ele>
        <time>2022-05-01T08:38:30.087Z</time>
      </trkpt>
      <trkpt lat="42.47636603191495" lon="-8.674557991325855">
        <ele>223.2</ele>
        <time>2022-05-01T08:38:32.718Z</time>
      </trkpt>
      <trkpt lat="42.4763960391283" lon="-8.674601996317506">
        <ele>224.0</ele>
        <time>2022-05-01T08:38:35.564Z</time>
      </trkpt>
      <trkpt lat="42.47640802524984" lon="-8.674621023237705">
        <ele>224.3</ele>
        <time>2022-05-01T08:38:36.532Z</time>
      </trkpt>
      <trkpt lat="42.476465022191405" lon="-8.674670979380608">
        <ele>225.2</ele>
        <time>2022-05-01T08:38:40.424Z</time>
      </trkpt>
      <trkpt lat="42.47649704106152" lon="-8.67469402961433">
        <ele>225.7</ele>
        <time>2022-05-01T08:38:42.541Z</time>
      </trkpt>
      <trkpt lat="42.47652595862746" lon="-8.674722025170922">
        <ele>226.1</ele>
        <time>2022-05-01T08:38:44.855Z</time>
      </trkpt>
      <trkpt lat="42.47656803578138" lon="-8.674801988527179">
        <ele>227.4</ele>
        <time>2022-05-01T08:38:50.096Z</time>
      </trkpt>
      <trkpt lat="42.47659997083247" lon="-8.674897961318493">
        <ele>228.3</ele>
        <time>2022-05-01T08:38:55.620Z</time>
      </trkpt>
      <trkpt lat="42.47662603855133" lon="-8.674978008493781">
        <ele>229.2</ele>
        <time>2022-05-01T08:39:00.770Z</time>
      </trkpt>
      <trkpt lat="42.476636013016105" lon="-8.675004998221993">
        <ele>229.5</ele>
        <time>2022-05-01T08:39:02.750Z</time>
      </trkpt>
      <trkpt lat="42.47668697498739" lon="-8.675099965184927">
        <ele>230.6</ele>
        <time>2022-05-01T08:39:11.224Z</time>
      </trkpt>
      <trkpt lat="42.476700972765684" lon="-8.675121003761888">
        <ele>230.9</ele>
        <time>2022-05-01T08:39:12.660Z</time>
      </trkpt>
      <trkpt lat="42.47678303159773" lon="-8.675203984603286">
        <ele>232.0</ele>
        <time>2022-05-01T08:39:20.387Z</time>
      </trkpt>
      <trkpt lat="42.4768159724772" lon="-8.675229968503118">
        <ele>232.4</ele>
        <time>2022-05-01T08:39:22.613Z</time>
      </trkpt>
      <trkpt lat="42.4768899846822" lon="-8.675286965444684">
        <ele>233.6</ele>
        <time>2022-05-01T08:39:27.566Z</time>
      </trkpt>
      <trkpt lat="42.47694396413863" lon="-8.675322001799941">
        <ele>234.4</ele>
        <time>2022-05-01T08:39:30.827Z</time>
      </trkpt>
      <trkpt lat="42.47699400410056" lon="-8.675346979871392">
        <ele>234.8</ele>
        <time>2022-05-01T08:39:34.090Z</time>
      </trkpt>
      <trkpt lat="42.477046977728605" lon="-8.675372041761875">
        <ele>235.3</ele>
        <time>2022-05-01T08:39:37.326Z</time>
      </trkpt>
      <trkpt lat="42.47707899659872" lon="-8.675389979034662">
        <ele>235.7</ele>
        <time>2022-05-01T08:39:39.008Z</time>
      </trkpt>
      <trkpt lat="42.477153008803725" lon="-8.675431972369552">
        <ele>236.7</ele>
        <time>2022-05-01T08:39:43.034Z</time>
      </trkpt>
      <trkpt lat="42.477171029895544" lon="-8.675445970147848">
        <ele>237.0</ele>
        <time>2022-05-01T08:39:44.195Z</time>
      </trkpt>
      <trkpt lat="42.477240012958646" lon="-8.675489975139499">
        <ele>238.0</ele>
        <time>2022-05-01T08:39:48.578Z</time>
      </trkpt>
      <trkpt lat="42.4772649910301" lon="-8.675520988181233">
        <ele>238.7</ele>
        <time>2022-05-01T08:39:50.218Z</time>
      </trkpt>
      <trkpt lat="42.47727697715163" lon="-8.675539009273052">
        <ele>239.1</ele>
        <time>2022-05-01T08:39:50.982Z</time>
      </trkpt>
      <trkpt lat="42.477303966879845" lon="-8.675574967637658">
        <ele>239.8</ele>
        <time>2022-05-01T08:39:52.690Z</time>
      </trkpt>
      <trkpt lat="42.477322993800044" lon="-8.675668006762862">
        <ele>241.7</ele>
        <time>2022-05-01T08:39:56.243Z</time>
      </trkpt>
      <trkpt lat="42.47731000185013" lon="-8.675741013139486">
        <ele>243.1</ele>
        <time>2022-05-01T08:39:58.663Z</time>
      </trkpt>
      <trkpt lat="42.477284017950296" lon="-8.675806978717446">
        <ele>244.2</ele>
        <time>2022-05-01T08:40:01.068Z</time>
      </trkpt>
      <trkpt lat="42.477263985201716" lon="-8.675846038386226">
        <ele>244.8</ele>
        <time>2022-05-01T08:40:02.799Z</time>
      </trkpt>
      <trkpt lat="42.477238001301885" lon="-8.675887025892735">
        <ele>245.4</ele>
        <time>2022-05-01T08:40:04.526Z</time>
      </trkpt>
      <trkpt lat="42.47721101157367" lon="-8.675928013399243">
        <ele>245.9</ele>
        <time>2022-05-01T08:40:06.349Z</time>
      </trkpt>
      <trkpt lat="42.477171029895544" lon="-8.675979981198907">
        <ele>246.4</ele>
        <time>2022-05-01T08:40:08.814Z</time>
      </trkpt>
      <trkpt lat="42.47716097161174" lon="-8.676000013947487">
        <ele>246.6</ele>
        <time>2022-05-01T08:40:09.715Z</time>
      </trkpt>
      <trkpt lat="42.47712098993361" lon="-8.676080983132124">
        <ele>247.5</ele>
        <time>2022-05-01T08:40:13.122Z</time>
      </trkpt>
      <trkpt lat="42.47707799077034" lon="-8.676164969801903">
        <ele>248.4</ele>
        <time>2022-05-01T08:40:16.508Z</time>
      </trkpt>
      <trkpt lat="42.477067010477185" lon="-8.676187014207244">
        <ele>248.6</ele>
        <time>2022-05-01T08:40:17.494Z</time>
      </trkpt>
      <trkpt lat="42.477003978565335" lon="-8.676293967291713">
        <ele>250.2</ele>
        <time>2022-05-01T08:40:22.836Z</time>
      </trkpt>
      <trkpt lat="42.47698897495866" lon="-8.676311988383532">
        <ele>250.4</ele>
        <time>2022-05-01T08:40:23.750Z</time>
      </trkpt>
      <trkpt lat="42.47693298384547" lon="-8.676384994760156">
        <ele>251.1</ele>
        <time>2022-05-01T08:40:27.437Z</time>
      </trkpt>
      <trkpt lat="42.47688503935933" lon="-8.676461018621922">
        <ele>251.8</ele>
        <time>2022-05-01T08:40:31.101Z</time>
      </trkpt>
      <trkpt lat="42.47684497386217" lon="-8.67654299363494">
        <ele>252.8</ele>
        <time>2022-05-01T08:40:35.055Z</time>
      </trkpt>
      <trkpt lat="42.47680398635566" lon="-8.676598984748125">
        <ele>253.1</ele>
        <time>2022-05-01T08:40:38.652Z</time>
      </trkpt>
      <trkpt lat="42.47678202576935" lon="-8.676638966426253">
        <ele>253.4</ele>
        <time>2022-05-01T08:40:40.527Z</time>
      </trkpt>
      <trkpt lat="42.4767279624939" lon="-8.676747009158134">
        <ele>254.3</ele>
        <time>2022-05-01T08:40:45.922Z</time>
      </trkpt>
      <trkpt lat="42.4767189938575" lon="-8.676769975572824">
        <ele>254.5</ele>
        <time>2022-05-01T08:40:47.104Z</time>
      </trkpt>
      <trkpt lat="42.476680018007755" lon="-8.676893021911383">
        <ele>255.6</ele>
        <time>2022-05-01T08:40:53.346Z</time>
      </trkpt>
      <trkpt lat="42.476660991087556" lon="-8.676968039944768">
        <ele>256.1</ele>
        <time>2022-05-01T08:40:56.736Z</time>
      </trkpt>
      <trkpt lat="42.4766449816525" lon="-8.677042974159122">
        <ele>256.7</ele>
        <time>2022-05-01T08:41:00.458Z</time>
      </trkpt>
      <trkpt lat="42.47663400135934" lon="-8.67714498192072">
        <ele>257.6</ele>
        <time>2022-05-01T08:41:04.820Z</time>
      </trkpt>
      <trkpt lat="42.4766309838742" lon="-8.677228968590498">
        <ele>258.2</ele>
        <time>2022-05-01T08:41:08.603Z</time>
      </trkpt>
      <trkpt lat="42.47663903050125" lon="-8.677341034635901">
        <ele>259.3</ele>
        <time>2022-05-01T08:41:13.720Z</time>
      </trkpt>
      <trkpt lat="42.476658979430795" lon="-8.67744698189199">
        <ele>260.3</ele>
        <time>2022-05-01T08:41:19.026Z</time>
      </trkpt>
      <trkpt lat="42.47666501440108" lon="-8.677501967176795">
        <ele>260.6</ele>
        <time>2022-05-01T08:41:21.776Z</time>
      </trkpt>
      <trkpt lat="42.47670600190759" lon="-8.677728027105331">
        <ele>262.4</ele>
        <time>2022-05-01T08:41:33.188Z</time>
      </trkpt>
      <trkpt lat="42.47674196027219" lon="-8.677864987403154">
        <ele>263.6</ele>
        <time>2022-05-01T08:41:40.808Z</time>
      </trkpt>
      <trkpt lat="42.476765010505915" lon="-8.677947968244553">
        <ele>264.3</ele>
        <time>2022-05-01T08:41:45.049Z</time>
      </trkpt>
      <trkpt lat="42.47678495943546" lon="-8.67802801541984">
        <ele>264.9</ele>
        <time>2022-05-01T08:41:49.551Z</time>
      </trkpt>
      <trkpt lat="42.47683600522578" lon="-8.678215015679598">
        <ele>266.4</ele>
        <time>2022-05-01T08:42:00.356Z</time>
      </trkpt>
      <trkpt lat="42.47688101604581" lon="-8.678374020382762">
        <ele>267.5</ele>
        <time>2022-05-01T08:42:09.967Z</time>
      </trkpt>
      <trkpt lat="42.47690599411726" lon="-8.678452977910638">
        <ele>268.0</ele>
        <time>2022-05-01T08:42:14.976Z</time>
      </trkpt>
      <trkpt lat="42.47692200355232" lon="-8.678507963195443">
        <ele>268.3</ele>
        <time>2022-05-01T08:42:18.353Z</time>
      </trkpt>
      <trkpt lat="42.47696600854397" lon="-8.678639978170395">
        <ele>269.8</ele>
        <time>2022-05-01T08:42:26.646Z</time>
      </trkpt>
      <trkpt lat="42.47701403684914" lon="-8.6788020003587">
        <ele>270.9</ele>
        <time>2022-05-01T08:42:36.381Z</time>
      </trkpt>
      <trkpt lat="42.47701998800039" lon="-8.678829995915294">
        <ele>270.9</ele>
        <time>2022-05-01T08:42:37.637Z</time>
      </trkpt>
      <trkpt lat="42.47705401852727" lon="-8.678935021162033">
        <ele>271.5</ele>
        <time>2022-05-01T08:42:42.983Z</time>
      </trkpt>
      <trkpt lat="42.47711596079171" lon="-8.679047003388405">
        <ele>272.5</ele>
        <time>2022-05-01T08:42:49.783Z</time>
      </trkpt>
      <trkpt lat="42.477175975218415" lon="-8.67912101559341">
        <ele>273.6</ele>
        <time>2022-05-01T08:42:55.145Z</time>
      </trkpt>
      <trkpt lat="42.477220986038446" lon="-8.679176000878215">
        <ele>274.2</ele>
        <time>2022-05-01T08:42:59.358Z</time>
      </trkpt>
      <trkpt lat="42.47725300490856" lon="-8.67921195924282">
        <ele>274.6</ele>
        <time>2022-05-01T08:43:02.179Z</time>
      </trkpt>
      <trkpt lat="42.47731000185013" lon="-8.679297035560012">
        <ele>275.2</ele>
        <time>2022-05-01T08:43:08.260Z</time>
      </trkpt>
      <trkpt lat="42.47735199518502" lon="-8.67936098948121">
        <ele>275.7</ele>
        <time>2022-05-01T08:43:12.358Z</time>
      </trkpt>
      <trkpt lat="42.477411003783345" lon="-8.679455034434795">
        <ele>276.3</ele>
        <time>2022-05-01T08:43:18.583Z</time>
      </trkpt>
      <trkpt lat="42.477456014603376" lon="-8.679524017497897">
        <ele>277.2</ele>
        <time>2022-05-01T08:43:23.648Z</time>
      </trkpt>
      <trkpt lat="42.47750697657466" lon="-8.679576991125941">
        <ele>278.5</ele>
        <time>2022-05-01T08:43:27.930Z</time>
      </trkpt>
      <trkpt lat="42.47753597795963" lon="-8.67961898446083">
        <ele>279.1</ele>
        <time>2022-05-01T08:43:31.025Z</time>
      </trkpt>
      <trkpt lat="42.477602027356625" lon="-8.679695008322597">
        <ele>280.8</ele>
        <time>2022-05-01T08:43:38.107Z</time>
      </trkpt>
      <trkpt lat="42.47763999737799" lon="-8.679757034406066">
        <ele>281.7</ele>
        <time>2022-05-01T08:43:42.967Z</time>
      </trkpt>
      <trkpt lat="42.47765198349953" lon="-8.679776983335614">
        <ele>282.0</ele>
        <time>2022-05-01T08:43:44.135Z</time>
      </trkpt>
      <trkpt lat="42.47770596295595" lon="-8.67987203411758">
        <ele>283.5</ele>
        <time>2022-05-01T08:43:49.148Z</time>
      </trkpt>
      <trkpt lat="42.47772297821939" lon="-8.679926013574004">
        <ele>283.9</ele>
        <time>2022-05-01T08:43:51.223Z</time>
      </trkpt>
      <trkpt lat="42.47774602845311" lon="-8.68002500385046">
        <ele>284.4</ele>
        <time>2022-05-01T08:43:54.680Z</time>
      </trkpt>
      <trkpt lat="42.47776295989752" lon="-8.680097004398704">
        <ele>284.8</ele>
        <time>2022-05-01T08:43:57.153Z</time>
      </trkpt>
      <trkpt lat="42.477773018181324" lon="-8.680146038532257">
        <ele>285.3</ele>
        <time>2022-05-01T08:43:58.880Z</time>
      </trkpt>
      <trkpt lat="42.477795984596014" lon="-8.68023999966681">
        <ele>286.7</ele>
        <time>2022-05-01T08:44:02.085Z</time>
      </trkpt>
      <trkpt lat="42.47780897654593" lon="-8.680288027971983">
        <ele>287.3</ele>
        <time>2022-05-01T08:44:03.581Z</time>
      </trkpt>
      <trkpt lat="42.47782599180937" lon="-8.680362040176988">
        <ele>288.2</ele>
        <time>2022-05-01T08:44:05.857Z</time>
      </trkpt>
      <trkpt lat="42.4778570048511" lon="-8.680461030453444">
        <ele>289.6</ele>
        <time>2022-05-01T08:44:08.932Z</time>
      </trkpt>
      <trkpt lat="42.477864967659116" lon="-8.680481985211372">
        <ele>289.9</ele>
        <time>2022-05-01T08:44:09.557Z</time>
      </trkpt>
      <trkpt lat="42.47788097709417" lon="-8.680554991587996">
        <ele>290.6</ele>
        <time>2022-05-01T08:44:11.623Z</time>
      </trkpt>
      <trkpt lat="42.47788801789284" lon="-8.680663034319878">
        <ele>291.4</ele>
        <time>2022-05-01T08:44:14.521Z</time>
      </trkpt>
      <trkpt lat="42.477883994579315" lon="-8.68069002404809">
        <ele>291.5</ele>
        <time>2022-05-01T08:44:15.365Z</time>
      </trkpt>
      <trkpt lat="42.47784803621471" lon="-8.680779039859772">
        <ele>291.5</ele>
        <time>2022-05-01T08:44:18.363Z</time>
      </trkpt>
      <trkpt lat="42.477820962667465" lon="-8.680812986567616">
        <ele>291.6</ele>
        <time>2022-05-01T08:44:19.725Z</time>
      </trkpt>
      <trkpt lat="42.47774703428149" lon="-8.680846011266112">
        <ele>291.6</ele>
        <time>2022-05-01T08:44:22.422Z</time>
      </trkpt>
      <trkpt lat="42.4777050409466" lon="-8.680843999609351">
        <ele>291.2</ele>
        <time>2022-05-01T08:44:23.853Z</time>
      </trkpt>
      <trkpt lat="42.47764200903475" lon="-8.680839976295829">
        <ele>290.6</ele>
        <time>2022-05-01T08:44:25.936Z</time>
      </trkpt>
      <trkpt lat="42.477564979344606" lon="-8.680821033194661">
        <ele>289.9</ele>
        <time>2022-05-01T08:44:28.437Z</time>
      </trkpt>
      <trkpt lat="42.477412009611726" lon="-8.680782979354262">
        <ele>288.4</ele>
        <time>2022-05-01T08:44:33.241Z</time>
      </trkpt>
      <trkpt lat="42.47736398130655" lon="-8.680781973525882">
        <ele>288.2</ele>
        <time>2022-05-01T08:44:34.711Z</time>
      </trkpt>
      <trkpt lat="42.47731695882976" lon="-8.680791025981307">
        <ele>288.4</ele>
        <time>2022-05-01T08:44:36.123Z</time>
      </trkpt>
      <trkpt lat="42.477198019623756" lon="-8.680846011266112">
        <ele>289.5</ele>
        <time>2022-05-01T08:44:40.016Z</time>
      </trkpt>
      <trkpt lat="42.47701797634363" lon="-8.680996969342232">
        <ele>291.2</ele>
        <time>2022-05-01T08:44:47.164Z</time>
      </trkpt>
      <trkpt lat="42.476873975247145" lon="-8.68116301484406">
        <ele>292.2</ele>
        <time>2022-05-01T08:44:53.255Z</time>
      </trkpt>
      <trkpt lat="42.47682301327586" lon="-8.681238032877445">
        <ele>292.4</ele>
        <time>2022-05-01T08:44:55.809Z</time>
      </trkpt>
      <trkpt lat="42.47677096165717" lon="-8.681309027597308">
        <ele>292.5</ele>
        <time>2022-05-01T08:44:58.459Z</time>
      </trkpt>
      <trkpt lat="42.476698039099574" lon="-8.681452022865415">
        <ele>292.7</ele>
        <time>2022-05-01T08:45:03.511Z</time>
      </trkpt>
      <trkpt lat="42.476681023836136" lon="-8.68150700815022">
        <ele>293.0</ele>
        <time>2022-05-01T08:45:05.398Z</time>
      </trkpt>
      <trkpt lat="42.476617991924286" lon="-8.681845972314477">
        <ele>295.2</ele>
        <time>2022-05-01T08:45:16.577Z</time>
      </trkpt>
      <trkpt lat="42.47660198248923" lon="-8.682074965909123">
        <ele>297.5</ele>
        <time>2022-05-01T08:45:23.241Z</time>
      </trkpt>
      <trkpt lat="42.47656996361911" lon="-8.682338995859027">
        <ele>299.6</ele>
        <time>2022-05-01T08:45:30.658Z</time>
      </trkpt>
      <trkpt lat="42.47652403078973" lon="-8.682427005842328">
        <ele>299.5</ele>
        <time>2022-05-01T08:45:33.767Z</time>
      </trkpt>
      <trkpt lat="42.47647700831294" lon="-8.68247302249074">
        <ele>299.6</ele>
        <time>2022-05-01T08:45:36.214Z</time>
      </trkpt>
      <trkpt lat="42.47634298168123" lon="-8.6825199611485">
        <ele>300.3</ele>
        <time>2022-05-01T08:45:41.540Z</time>
      </trkpt>
      <trkpt lat="42.47621700167656" lon="-8.682433040812612">
        <ele>298.8</ele>
        <time>2022-05-01T08:45:46.722Z</time>
      </trkpt>
      <trkpt lat="42.476032013073564" lon="-8.682250985875726">
        <ele>297.4</ele>
        <time>2022-05-01T08:45:55.069Z</time>
      </trkpt>
      <trkpt lat="42.47599898837507" lon="-8.682231036946177">
        <ele>297.9</ele>
        <time>2022-05-01T08:45:56.510Z</time>
      </trkpt>
      <trkpt lat="42.47587200254202" lon="-8.682165993377566">
        <ele>300.3</ele>
        <time>2022-05-01T08:46:01.690Z</time>
      </trkpt>
      <trkpt lat="42.47580897063017" lon="-8.682133974507451">
        <ele>301.5</ele>
        <time>2022-05-01T08:46:04.349Z</time>
      </trkpt>
      <trkpt lat="42.47568600811064" lon="-8.682012017816305">
        <ele>301.6</ele>
        <time>2022-05-01T08:46:10.636Z</time>
      </trkpt>
      <trkpt lat="42.47565499506891" lon="-8.681996008381248">
        <ele>302.1</ele>
        <time>2022-05-01T08:46:12.178Z</time>
      </trkpt>
      <trkpt lat="42.475479980930686" lon="-8.681948985904455">
        <ele>304.8</ele>
        <time>2022-05-01T08:46:20.307Z</time>
      </trkpt>
      <trkpt lat="42.47522299177945" lon="-8.68193599395454">
        <ele>308.6</ele>
        <time>2022-05-01T08:46:31.036Z</time>
      </trkpt>
      <trkpt lat="42.475173035636544" lon="-8.681932976469398">
        <ele>309.2</ele>
        <time>2022-05-01T08:46:32.942Z</time>
      </trkpt>
      <trkpt lat="42.474980000406504" lon="-8.681842032819986">
        <ele>309.4</ele>
        <time>2022-05-01T08:46:41.287Z</time>
      </trkpt>
      <trkpt lat="42.4749059882015" lon="-8.68176399730146">
        <ele>308.6</ele>
        <time>2022-05-01T08:46:45.261Z</time>
      </trkpt>
      <trkpt lat="42.47480498626828" lon="-8.681643968448043">
        <ele>308.5</ele>
        <time>2022-05-01T08:46:50.905Z</time>
      </trkpt>
      <trkpt lat="42.47477799654007" lon="-8.681587977334857">
        <ele>308.1</ele>
        <time>2022-05-01T08:46:53.107Z</time>
      </trkpt>
      <trkpt lat="42.47467800043523" lon="-8.681415980681777">
        <ele>307.9</ele>
        <time>2022-05-01T08:46:59.980Z</time>
      </trkpt>
      <trkpt lat="42.474596025422215" lon="-8.68129100650549">
        <ele>308.3</ele>
        <time>2022-05-01T08:47:05.057Z</time>
      </trkpt>
      <trkpt lat="42.47446903958917" lon="-8.681135019287467">
        <ele>309.4</ele>
        <time>2022-05-01T08:47:11.650Z</time>
      </trkpt>
      <trkpt lat="42.47443299740553" lon="-8.681111969053745">
        <ele>310.0</ele>
        <time>2022-05-01T08:47:13.075Z</time>
      </trkpt>
      <trkpt lat="42.47424096800387" lon="-8.68099101819098">
        <ele>312.3</ele>
        <time>2022-05-01T08:47:20.320Z</time>
      </trkpt>
      <trkpt lat="42.474210038781166" lon="-8.680972997099161">
        <ele>312.6</ele>
        <time>2022-05-01T08:47:21.488Z</time>
      </trkpt>
      <trkpt lat="42.47403100132942" lon="-8.680864032357931">
        <ele>314.3</ele>
        <time>2022-05-01T08:47:28.447Z</time>
      </trkpt>
      <trkpt lat="42.4739630240947" lon="-8.680801000446081">
        <ele>314.3</ele>
        <time>2022-05-01T08:47:31.208Z</time>
      </trkpt>
      <trkpt lat="42.47387702576816" lon="-8.680678037926555">
        <ele>313.4</ele>
        <time>2022-05-01T08:47:35.396Z</time>
      </trkpt>
      <trkpt lat="42.47378499247134" lon="-8.680581981316209">
        <ele>313.3</ele>
        <time>2022-05-01T08:47:39.310Z</time>
      </trkpt>
      <trkpt lat="42.47364199720323" lon="-8.680445021018386">
        <ele>313.2</ele>
        <time>2022-05-01T08:47:45.235Z</time>
      </trkpt>
      <trkpt lat="42.47360000386834" lon="-8.680424988269806">
        <ele>313.5</ele>
        <time>2022-05-01T08:47:46.759Z</time>
      </trkpt>
      <trkpt lat="42.47342297807336" lon="-8.680362962186337">
        <ele>314.6</ele>
        <time>2022-05-01T08:47:52.890Z</time>
      </trkpt>
      <trkpt lat="42.47338199056685" lon="-8.680357011035085">
        <ele>314.8</ele>
        <time>2022-05-01T08:47:54.210Z</time>
      </trkpt>
      <trkpt lat="42.47322700917721" lon="-8.680352987721562">
        <ele>315.8</ele>
        <time>2022-05-01T08:47:59.160Z</time>
      </trkpt>
      <trkpt lat="42.47308099642396" lon="-8.68034896440804">
        <ele>315.9</ele>
        <time>2022-05-01T08:48:03.805Z</time>
      </trkpt>
      <trkpt lat="42.47297999449074" lon="-8.68036899715662">
        <ele>316.4</ele>
        <time>2022-05-01T08:48:07.149Z</time>
      </trkpt>
      <trkpt lat="42.47284999117255" lon="-8.68041099049151">
        <ele>317.2</ele>
        <time>2022-05-01T08:48:11.550Z</time>
      </trkpt>
      <trkpt lat="42.47272199951112" lon="-8.680463964119554">
        <ele>317.8</ele>
        <time>2022-05-01T08:48:16.069Z</time>
      </trkpt>
      <trkpt lat="42.47256802394986" lon="-8.680535964667797">
        <ele>318.5</ele>
        <time>2022-05-01T08:48:21.377Z</time>
      </trkpt>
      <trkpt lat="42.47243600897491" lon="-8.680632021278143">
        <ele>319.4</ele>
        <time>2022-05-01T08:48:26.302Z</time>
      </trkpt>
      <trkpt lat="42.4723899923265" lon="-8.680681977421045">
        <ele>320.1</ele>
        <time>2022-05-01T08:48:28.175Z</time>
      </trkpt>
      <trkpt lat="42.472343975678086" lon="-8.680736040696502">
        <ele>320.7</ele>
        <time>2022-05-01T08:48:30.119Z</time>
      </trkpt>
      <trkpt lat="42.47222797013819" lon="-8.680873000994325">
        <ele>322.1</ele>
        <time>2022-05-01T08:48:34.940Z</time>
      </trkpt>
      <trkpt lat="42.47209100984037" lon="-8.680961010977626">
        <ele>322.1</ele>
        <time>2022-05-01T08:48:39.579Z</time>
      </trkpt>
      <trkpt lat="42.471933010965586" lon="-8.680945001542568">
        <ele>321.6</ele>
        <time>2022-05-01T08:48:44.428Z</time>
      </trkpt>
      <trkpt lat="42.47189596295357" lon="-8.680931003764272">
        <ele>321.3</ele>
        <time>2022-05-01T08:48:45.571Z</time>
      </trkpt>
      <trkpt lat="42.471589017659426" lon="-8.680853974074125">
        <ele>320.4</ele>
        <time>2022-05-01T08:48:54.768Z</time>
      </trkpt>
      <trkpt lat="42.47151299379766" lon="-8.680854979902506">
        <ele>320.7</ele>
        <time>2022-05-01T08:48:57.080Z</time>
      </trkpt>
      <trkpt lat="42.47133697383106" lon="-8.680894039571285">
        <ele>321.4</ele>
        <time>2022-05-01T08:49:03.334Z</time>
      </trkpt>
      <trkpt lat="42.47113295830786" lon="-8.680975008755922">
        <ele>322.1</ele>
        <time>2022-05-01T08:49:10.487Z</time>
      </trkpt>
      <trkpt lat="42.47104100883007" lon="-8.68103401735425">
        <ele>322.9</ele>
        <time>2022-05-01T08:49:13.756Z</time>
      </trkpt>
      <trkpt lat="42.47095501050353" lon="-8.681066036224365">
        <ele>323.3</ele>
        <time>2022-05-01T08:49:16.716Z</time>
      </trkpt>
      <trkpt lat="42.47078997083008" lon="-8.681090008467436">
        <ele>323.2</ele>
        <time>2022-05-01T08:49:21.992Z</time>
      </trkpt>
      <trkpt lat="42.47066901996732" lon="-8.68110098876059">
        <ele>323.2</ele>
        <time>2022-05-01T08:49:25.785Z</time>
      </trkpt>
      <trkpt lat="42.47064798139036" lon="-8.68112102150917">
        <ele>323.7</ele>
        <time>2022-05-01T08:49:26.563Z</time>
      </trkpt>
      <trkpt lat="42.47065301053226" lon="-8.681224035099149">
        <ele>326.3</ele>
        <time>2022-05-01T08:49:28.910Z</time>
      </trkpt>
      <trkpt lat="42.4706700257957" lon="-8.681240966543555">
        <ele>326.8</ele>
        <time>2022-05-01T08:49:29.541Z</time>
      </trkpt>
      <trkpt lat="42.470730040222406" lon="-8.681278014555573">
        <ele>327.8</ele>
        <time>2022-05-01T08:49:31.464Z</time>
      </trkpt>
      <trkpt lat="42.470774967223406" lon="-8.681295029819012">
        <ele>328.5</ele>
        <time>2022-05-01T08:49:32.797Z</time>
      </trkpt>
      <trkpt lat="42.47084202244878" lon="-8.681327970698476">
        <ele>329.7</ele>
        <time>2022-05-01T08:49:34.800Z</time>
      </trkpt>
      <trkpt lat="42.470922991633415" lon="-8.681342974305153">
        <ele>330.4</ele>
        <time>2022-05-01T08:49:37.063Z</time>
      </trkpt>
      <trkpt lat="42.47097495943308" lon="-8.681345991790295">
        <ele>330.7</ele>
        <time>2022-05-01T08:49:38.486Z</time>
      </trkpt>
      <trkpt lat="42.47108501382172" lon="-8.68133501149714">
        <ele>331.0</ele>
        <time>2022-05-01T08:49:41.476Z</time>
      </trkpt>
      <trkpt lat="42.47114301659167" lon="-8.681328976526856">
        <ele>331.1</ele>
        <time>2022-05-01T08:49:43.038Z</time>
      </trkpt>
      <trkpt lat="42.471248963847756" lon="-8.681342974305153">
        <ele>332.1</ele>
        <time>2022-05-01T08:49:45.877Z</time>
      </trkpt>
      <trkpt lat="42.47134703211486" lon="-8.681363007053733">
        <ele>333.3</ele>
        <time>2022-05-01T08:49:48.709Z</time>
      </trkpt>
      <trkpt lat="42.471414003521204" lon="-8.681375999003649">
        <ele>334.1</ele>
        <time>2022-05-01T08:49:50.816Z</time>
      </trkpt>
      <trkpt lat="42.47146303765476" lon="-8.681388990953565">
        <ele>334.5</ele>
        <time>2022-05-01T08:49:52.324Z</time>
      </trkpt>
      <trkpt lat="42.471564039587975" lon="-8.68142201565206">
        <ele>335.5</ele>
        <time>2022-05-01T08:49:55.575Z</time>
      </trkpt>
      <trkpt lat="42.471590023487806" lon="-8.681434001773596">
        <ele>335.8</ele>
        <time>2022-05-01T08:49:56.405Z</time>
      </trkpt>
      <trkpt lat="42.47166403569281" lon="-8.681468032300472">
        <ele>336.8</ele>
        <time>2022-05-01T08:49:58.798Z</time>
      </trkpt>
      <trkpt lat="42.47176503762603" lon="-8.681502984836698">
        <ele>337.7</ele>
        <time>2022-05-01T08:50:01.973Z</time>
      </trkpt>
      <trkpt lat="42.47179102152586" lon="-8.681511031463742">
        <ele>337.8</ele>
        <time>2022-05-01T08:50:02.869Z</time>
      </trkpt>
      <trkpt lat="42.471891017630696" lon="-8.681535003706813">
        <ele>338.4</ele>
        <time>2022-05-01T08:50:06.405Z</time>
      </trkpt>
      <trkpt lat="42.47196100652218" lon="-8.681567022576928">
        <ele>339.7</ele>
        <time>2022-05-01T08:50:08.845Z</time>
      </trkpt>
      <trkpt lat="42.47203501872718" lon="-8.681585965678096">
        <ele>340.6</ele>
        <time>2022-05-01T08:50:11.338Z</time>
      </trkpt>
      <trkpt lat="42.47213501483202" lon="-8.681583032011986">
        <ele>341.4</ele>
        <time>2022-05-01T08:50:15.147Z</time>
      </trkpt>
      <trkpt lat="42.47215596958995" lon="-8.68157397955656">
        <ele>341.4</ele>
        <time>2022-05-01T08:50:15.926Z</time>
      </trkpt>
      <trkpt lat="42.47226702980697" lon="-8.681520000100136">
        <ele>341.7</ele>
        <time>2022-05-01T08:50:20.292Z</time>
      </trkpt>
      <trkpt lat="42.4722930137068" lon="-8.68150600232184">
        <ele>341.7</ele>
        <time>2022-05-01T08:50:21.401Z</time>
      </trkpt>
      <trkpt lat="42.4723950214684" lon="-8.681450011208653">
        <ele>342.1</ele>
        <time>2022-05-01T08:50:25.939Z</time>
      </trkpt>
      <trkpt lat="42.47242100536823" lon="-8.681438025087118">
        <ele>342.3</ele>
        <time>2022-05-01T08:50:27.135Z</time>
      </trkpt>
      <trkpt lat="42.47255100868642" lon="-8.681396031752229">
        <ele>343.8</ele>
        <time>2022-05-01T08:50:33.180Z</time>
      </trkpt>
      <trkpt lat="42.472619991749525" lon="-8.681384967640042">
        <ele>344.4</ele>
        <time>2022-05-01T08:50:36.158Z</time>
      </trkpt>
      <trkpt lat="42.47266701422632" lon="-8.68137801066041">
        <ele>344.7</ele>
        <time>2022-05-01T08:50:38.359Z</time>
      </trkpt>
      <trkpt lat="42.47275896370411" lon="-8.681393014267087">
        <ele>346.2</ele>
        <time>2022-05-01T08:50:42.603Z</time>
      </trkpt>
      <trkpt lat="42.47278402559459" lon="-8.681398965418339">
        <ele>346.7</ele>
        <time>2022-05-01T08:50:43.645Z</time>
      </trkpt>
      <trkpt lat="42.472878992557526" lon="-8.681412963196635">
        <ele>347.2</ele>
        <time>2022-05-01T08:50:47.762Z</time>
      </trkpt>
      <trkpt lat="42.47294898144901" lon="-8.681436013430357">
        <ele>347.8</ele>
        <time>2022-05-01T08:50:50.691Z</time>
      </trkpt>
      <trkpt lat="42.47297395952046" lon="-8.68144003674388">
        <ele>347.9</ele>
        <time>2022-05-01T08:50:51.631Z</time>
      </trkpt>
      <trkpt lat="42.47306297533214" lon="-8.68146501481533">
        <ele>348.4</ele>
        <time>2022-05-01T08:50:55.356Z</time>
      </trkpt>
      <trkpt lat="42.4730840139091" lon="-8.681473983451724">
        <ele>348.5</ele>
        <time>2022-05-01T08:50:56.184Z</time>
      </trkpt>
      <trkpt lat="42.4731720238924" lon="-8.681520000100136">
        <ele>349.3</ele>
        <time>2022-05-01T08:50:59.786Z</time>
      </trkpt>
      <trkpt lat="42.473198007792234" lon="-8.6815270408988">
        <ele>349.4</ele>
        <time>2022-05-01T08:51:00.945Z</time>
      </trkpt>
      <trkpt lat="42.47329599224031" lon="-8.681575991213322">
        <ele>350.1</ele>
        <time>2022-05-01T08:51:05.497Z</time>
      </trkpt>
      <trkpt lat="42.47336396947503" lon="-8.681624019518495">
        <ele>350.9</ele>
        <time>2022-05-01T08:51:08.962Z</time>
      </trkpt>
      <trkpt lat="42.4734259955585" lon="-8.681670958176255">
        <ele>351.6</ele>
        <time>2022-05-01T08:51:12.027Z</time>
      </trkpt>
      <trkpt lat="42.47351501137018" lon="-8.68174396455288">
        <ele>352.9</ele>
        <time>2022-05-01T08:51:16.695Z</time>
      </trkpt>
      <trkpt lat="42.473540995270014" lon="-8.681759973987937">
        <ele>352.9</ele>
        <time>2022-05-01T08:51:18.148Z</time>
      </trkpt>
      <trkpt lat="42.473696982488036" lon="-8.681889977306128">
        <ele>354.1</ele>
        <time>2022-05-01T08:51:27.152Z</time>
      </trkpt>
      <trkpt lat="42.47379396110773" lon="-8.681989973410964">
        <ele>354.6</ele>
        <time>2022-05-01T08:51:33.351Z</time>
      </trkpt>
      <trkpt lat="42.47382698580623" lon="-8.682038001716137">
        <ele>355.1</ele>
        <time>2022-05-01T08:51:35.765Z</time>
      </trkpt>
      <trkpt lat="42.47387803159654" lon="-8.682112013921142">
        <ele>355.7</ele>
        <time>2022-05-01T08:51:39.551Z</time>
      </trkpt>
      <trkpt lat="42.47391700744629" lon="-8.682204969227314">
        <ele>357.2</ele>
        <time>2022-05-01T08:51:43.859Z</time>
      </trkpt>
      <trkpt lat="42.47396897524595" lon="-8.68230002000928">
        <ele>358.0</ele>
        <time>2022-05-01T08:51:48.614Z</time>
      </trkpt>
      <trkpt lat="42.47402203269303" lon="-8.682377971708775">
        <ele>358.2</ele>
        <time>2022-05-01T08:51:53.191Z</time>
      </trkpt>
      <trkpt lat="42.47405002824962" lon="-8.68243102915585">
        <ele>358.7</ele>
        <time>2022-05-01T08:51:55.912Z</time>
      </trkpt>
      <trkpt lat="42.47409302741289" lon="-8.682493977248669">
        <ele>359.0</ele>
        <time>2022-05-01T08:51:59.839Z</time>
      </trkpt>
      <trkpt lat="42.474169973284006" lon="-8.682589028030634">
        <ele>359.2</ele>
        <time>2022-05-01T08:52:05.899Z</time>
      </trkpt>
      <trkpt lat="42.47419402934611" lon="-8.682616017758846">
        <ele>359.2</ele>
        <time>2022-05-01T08:52:07.788Z</time>
      </trkpt>
      <trkpt lat="42.474298970773816" lon="-8.682735962793231">
        <ele>360.2</ele>
        <time>2022-05-01T08:52:15.365Z</time>
      </trkpt>
      <trkpt lat="42.47433300130069" lon="-8.682786002755165">
        <ele>361.1</ele>
        <time>2022-05-01T08:52:18.478Z</time>
      </trkpt>
      <trkpt lat="42.47441195882857" lon="-8.682879963889718">
        <ele>362.2</ele>
        <time>2022-05-01T08:52:25.083Z</time>
      </trkpt>
      <trkpt lat="42.47450399212539" lon="-8.682994041591883">
        <ele>363.7</ele>
        <time>2022-05-01T08:52:33.161Z</time>
      </trkpt>
      <trkpt lat="42.47452201321721" lon="-8.683018013834953">
        <ele>364.1</ele>
        <time>2022-05-01T08:52:34.491Z</time>
      </trkpt>
      <trkpt lat="42.47457196936011" lon="-8.683084985241294">
        <ele>365.0</ele>
        <time>2022-05-01T08:52:38.289Z</time>
      </trkpt>
      <trkpt lat="42.47462200932205" lon="-8.683150028809905">
        <ele>365.7</ele>
        <time>2022-05-01T08:52:42.138Z</time>
      </trkpt>
      <trkpt lat="42.474637012928724" lon="-8.683169977739453">
        <ele>365.8</ele>
        <time>2022-05-01T08:52:43.131Z</time>
      </trkpt>
      <trkpt lat="42.474704990163445" lon="-8.68326997384429">
        <ele>366.9</ele>
        <time>2022-05-01T08:52:48.305Z</time>
      </trkpt>
      <trkpt lat="42.47473801486194" lon="-8.683319007977843">
        <ele>367.4</ele>
        <time>2022-05-01T08:52:51.068Z</time>
      </trkpt>
      <trkpt lat="42.47478696517646" lon="-8.68339603766799">
        <ele>368.2</ele>
        <time>2022-05-01T08:52:55.370Z</time>
      </trkpt>
      <trkpt lat="42.474834993481636" lon="-8.683474995195866">
        <ele>369.1</ele>
        <time>2022-05-01T08:53:00.081Z</time>
      </trkpt>
      <trkpt lat="42.47486399486661" lon="-8.68352402932942">
        <ele>369.6</ele>
        <time>2022-05-01T08:53:02.461Z</time>
      </trkpt>
      <trkpt lat="42.47492199763656" lon="-8.683615978807211">
        <ele>370.7</ele>
        <time>2022-05-01T08:53:07.408Z</time>
      </trkpt>
      <trkpt lat="42.474937001243234" lon="-8.683637017384171">
        <ele>370.9</ele>
        <time>2022-05-01T08:53:08.426Z</time>
      </trkpt>
      <trkpt lat="42.4749749712646" lon="-8.683703988790512">
        <ele>371.8</ele>
        <time>2022-05-01T08:53:11.594Z</time>
      </trkpt>
      <trkpt lat="42.475013025105" lon="-8.683773977681994">
        <ele>372.8</ele>
        <time>2022-05-01T08:53:14.743Z</time>
      </trkpt>
      <trkpt lat="42.47502903454006" lon="-8.683799039572477">
        <ele>373.1</ele>
        <time>2022-05-01T08:53:16.063Z</time>
      </trkpt>
      <trkpt lat="42.47507303953171" lon="-8.68387196213007">
        <ele>373.8</ele>
        <time>2022-05-01T08:53:19.628Z</time>
      </trkpt>
      <trkpt lat="42.475129030644894" lon="-8.68395896628499">
        <ele>374.5</ele>
        <time>2022-05-01T08:53:24.487Z</time>
      </trkpt>
      <trkpt lat="42.47517999261618" lon="-8.684054017066956">
        <ele>375.5</ele>
        <time>2022-05-01T08:53:29.747Z</time>
      </trkpt>
      <trkpt lat="42.475221985951066" lon="-8.68412702344358">
        <ele>376.3</ele>
        <time>2022-05-01T08:53:34.427Z</time>
      </trkpt>
      <trkpt lat="42.47523296624422" lon="-8.684154013171792">
        <ele>376.7</ele>
        <time>2022-05-01T08:53:35.671Z</time>
      </trkpt>
      <trkpt lat="42.47527797706425" lon="-8.684246968477964">
        <ele>378.0</ele>
        <time>2022-05-01T08:53:40.203Z</time>
      </trkpt>
      <trkpt lat="42.47529298067093" lon="-8.684271024540067">
        <ele>378.2</ele>
        <time>2022-05-01T08:53:41.297Z</time>
      </trkpt>
      <trkpt lat="42.47531502507627" lon="-8.684317963197827">
        <ele>378.9</ele>
        <time>2022-05-01T08:53:43.301Z</time>
      </trkpt>
      <trkpt lat="42.47536397539079" lon="-8.684418965131044">
        <ele>380.4</ele>
        <time>2022-05-01T08:53:47.644Z</time>
      </trkpt>
      <trkpt lat="42.47542499564588" lon="-8.684532037004828">
        <ele>381.8</ele>
        <time>2022-05-01T08:53:52.658Z</time>
      </trkpt>
      <trkpt lat="42.47544704005122" lon="-8.684574030339718">
        <ele>382.2</ele>
        <time>2022-05-01T08:53:54.695Z</time>
      </trkpt>
      <trkpt lat="42.47547201812267" lon="-8.684620968997478">
        <ele>382.7</ele>
        <time>2022-05-01T08:53:57.228Z</time>
      </trkpt>
      <trkpt lat="42.475521974265575" lon="-8.68470897898078">
        <ele>383.6</ele>
        <time>2022-05-01T08:54:02.032Z</time>
      </trkpt>
      <trkpt lat="42.47557000257075" lon="-8.684812998399138">
        <ele>384.8</ele>
        <time>2022-05-01T08:54:07.583Z</time>
      </trkpt>
      <trkpt lat="42.47561995871365" lon="-8.684883993119001">
        <ele>385.4</ele>
        <time>2022-05-01T08:54:12.593Z</time>
      </trkpt>
      <trkpt lat="42.475648038089275" lon="-8.684930009767413">
        <ele>385.9</ele>
        <time>2022-05-01T08:54:15.022Z</time>
      </trkpt>
      <trkpt lat="42.47565298341215" lon="-8.684954987838864">
        <ele>386.4</ele>
        <time>2022-05-01T08:54:16.192Z</time>
      </trkpt>
      <trkpt lat="42.47566203586757" lon="-8.684983989223838">
        <ele>386.9</ele>
        <time>2022-05-01T08:54:17.370Z</time>
      </trkpt>
      <trkpt lat="42.475692965090275" lon="-8.685064958408475">
        <ele>388.3</ele>
        <time>2022-05-01T08:54:20.601Z</time>
      </trkpt>
      <trkpt lat="42.47570503503084" lon="-8.685091026127338">
        <ele>388.8</ele>
        <time>2022-05-01T08:54:21.564Z</time>
      </trkpt>
      <trkpt lat="42.47580695897341" lon="-8.685164032503963">
        <ele>388.4</ele>
        <time>2022-05-01T08:54:26.431Z</time>
      </trkpt>
      <trkpt lat="42.47598599642515" lon="-8.685233015567064">
        <ele>387.1</ele>
        <time>2022-05-01T08:54:34.182Z</time>
      </trkpt>
      <trkpt lat="42.47609303332865" lon="-8.685363018885255">
        <ele>388.7</ele>
        <time>2022-05-01T08:54:39.972Z</time>
      </trkpt>
      <trkpt lat="42.47610895894468" lon="-8.685385985299945">
        <ele>389.0</ele>
        <time>2022-05-01T08:54:40.834Z</time>
      </trkpt>
      <trkpt lat="42.47617903165519" lon="-8.685501990839839">
        <ele>390.2</ele>
        <time>2022-05-01T08:54:44.974Z</time>
      </trkpt>
      <trkpt lat="42.47622303664684" lon="-8.685580026358366">
        <ele>391.2</ele>
        <time>2022-05-01T08:54:47.639Z</time>
      </trkpt>
      <trkpt lat="42.47623996809125" lon="-8.68563199415803">
        <ele>392.2</ele>
        <time>2022-05-01T08:54:49.230Z</time>
      </trkpt>
      <trkpt lat="42.47623996809125" lon="-8.68565202690661">
        <ele>392.8</ele>
        <time>2022-05-01T08:54:49.753Z</time>
      </trkpt>
      <trkpt lat="42.47622102499008" lon="-8.685659989714622">
        <ele>393.6</ele>
        <time>2022-05-01T08:54:50.416Z</time>
      </trkpt>
      <trkpt lat="42.47619202360511" lon="-8.685627970844507">
        <ele>393.5</ele>
        <time>2022-05-01T08:54:51.613Z</time>
      </trkpt>
      <trkpt lat="42.4761460069567" lon="-8.685562005266547">
        <ele>393.0</ele>
        <time>2022-05-01T08:54:53.680Z</time>
      </trkpt>
      <trkpt lat="42.47613100335002" lon="-8.685542978346348">
        <ele>392.9</ele>
        <time>2022-05-01T08:54:54.294Z</time>
      </trkpt>
      <trkpt lat="42.47608297504485" lon="-8.685520011931658">
        <ele>393.7</ele>
        <time>2022-05-01T08:54:55.781Z</time>
      </trkpt>
      <trkpt lat="42.47606797143817" lon="-8.685518000274897">
        <ele>394.1</ele>
        <time>2022-05-01T08:54:56.212Z</time>
      </trkpt>
      <trkpt lat="42.47600703500211" lon="-8.685512971132994">
        <ele>395.4</ele>
        <time>2022-05-01T08:54:57.928Z</time>
      </trkpt>
      <trkpt lat="42.47594098560512" lon="-8.68552504107356">
        <ele>396.8</ele>
        <time>2022-05-01T08:54:59.775Z</time>
      </trkpt>
      <trkpt lat="42.475903015583754" lon="-8.685536021366715">
        <ele>397.7</ele>
        <time>2022-05-01T08:55:00.837Z</time>
      </trkpt>
      <trkpt lat="42.47583302669227" lon="-8.685565022751689">
        <ele>399.6</ele>
        <time>2022-05-01T08:55:02.820Z</time>
      </trkpt>
      <trkpt lat="42.47574199922383" lon="-8.685582960024476">
        <ele>401.4</ele>
        <time>2022-05-01T08:55:05.291Z</time>
      </trkpt>
      <trkpt lat="42.4756969884038" lon="-8.68556703440845">
        <ele>401.7</ele>
        <time>2022-05-01T08:55:06.532Z</time>
      </trkpt>
      <trkpt lat="42.47565600089729" lon="-8.68554599583149">
        <ele>401.8</ele>
        <time>2022-05-01T08:55:07.694Z</time>
      </trkpt>
      <trkpt lat="42.47553002089262" lon="-8.685463014990091">
        <ele>402.0</ele>
        <time>2022-05-01T08:55:11.389Z</time>
      </trkpt>
      <trkpt lat="42.475476041436195" lon="-8.685424039140344">
        <ele>402.3</ele>
        <time>2022-05-01T08:55:12.995Z</time>
      </trkpt>
      <trkpt lat="42.47531997039914" lon="-8.685307027772069">
        <ele>403.6</ele>
        <time>2022-05-01T08:55:17.851Z</time>
      </trkpt>
      <trkpt lat="42.47527898289263" lon="-8.685270985588431">
        <ele>404.1</ele>
        <time>2022-05-01T08:55:19.168Z</time>
      </trkpt>
      <trkpt lat="42.475197007879615" lon="-8.685148023068905">
        <ele>404.2</ele>
        <time>2022-05-01T08:55:22.515Z</time>
      </trkpt>
      <trkpt lat="42.475090976804495" lon="-8.68500997312367">
        <ele>405.0</ele>
        <time>2022-05-01T08:55:26.681Z</time>
      </trkpt>
      <trkpt lat="42.47501595877111" lon="-8.684952976182103">
        <ele>406.7</ele>
        <time>2022-05-01T08:55:29.080Z</time>
      </trkpt>
      <trkpt lat="42.47488997876644" lon="-8.684852980077267">
        <ele>409.0</ele>
        <time>2022-05-01T08:55:33.099Z</time>
      </trkpt>
      <trkpt lat="42.47486701235175" lon="-8.68483797647059">
        <ele>409.5</ele>
        <time>2022-05-01T08:55:33.792Z</time>
      </trkpt>
      <trkpt lat="42.47473801486194" lon="-8.68473102338612">
        <ele>411.1</ele>
        <time>2022-05-01T08:55:38.011Z</time>
      </trkpt>
      <trkpt lat="42.47471203096211" lon="-8.68471099063754">
        <ele>411.3</ele>
        <time>2022-05-01T08:55:38.973Z</time>
      </trkpt>
      <trkpt lat="42.47458496131003" lon="-8.684619963169098">
        <ele>412.4</ele>
        <time>2022-05-01T08:55:43.446Z</time>
      </trkpt>
      <trkpt lat="42.47451899573207" lon="-8.68455802090466">
        <ele>412.5</ele>
        <time>2022-05-01T08:55:46.151Z</time>
      </trkpt>
      <trkpt lat="42.47440801933408" lon="-8.684438997879624">
        <ele>412.3</ele>
        <time>2022-05-01T08:55:50.999Z</time>
      </trkpt>
      <trkpt lat="42.47434699907899" lon="-8.684358028694987">
        <ele>411.8</ele>
        <time>2022-05-01T08:55:53.783Z</time>
      </trkpt>
      <trkpt lat="42.4741340149194" lon="-8.68412802927196">
        <ele>411.3</ele>
        <time>2022-05-01T08:56:02.879Z</time>
      </trkpt>
      <trkpt lat="42.47401096858084" lon="-8.684015963226557">
        <ele>411.3</ele>
        <time>2022-05-01T08:56:07.630Z</time>
      </trkpt>
      <trkpt lat="42.473906027153134" lon="-8.683938011527061">
        <ele>411.6</ele>
        <time>2022-05-01T08:56:11.495Z</time>
      </trkpt>
      <trkpt lat="42.47369798831642" lon="-8.68382602930069">
        <ele>412.7</ele>
        <time>2022-05-01T08:56:18.528Z</time>
      </trkpt>
      <trkpt lat="42.47365901246667" lon="-8.683813037350774">
        <ele>412.8</ele>
        <time>2022-05-01T08:56:19.747Z</time>
      </trkpt>
      <trkpt lat="42.47345197945833" lon="-8.683766014873981">
        <ele>414.1</ele>
        <time>2022-05-01T08:56:26.097Z</time>
      </trkpt>
      <trkpt lat="42.47329498641193" lon="-8.683704994618893">
        <ele>414.3</ele>
        <time>2022-05-01T08:56:30.928Z</time>
      </trkpt>
      <trkpt lat="42.47323296032846" lon="-8.683684039860964">
        <ele>414.4</ele>
        <time>2022-05-01T08:56:32.913Z</time>
      </trkpt>
      <trkpt lat="42.473114021122456" lon="-8.683643974363804">
        <ele>414.6</ele>
        <time>2022-05-01T08:56:36.640Z</time>
      </trkpt>
      <trkpt lat="42.473050989210606" lon="-8.683640034869313">
        <ele>415.1</ele>
        <time>2022-05-01T08:56:38.705Z</time>
      </trkpt>
      <trkpt lat="42.47301603667438" lon="-8.68363399989903">
        <ele>415.2</ele>
        <time>2022-05-01T08:56:39.915Z</time>
      </trkpt>
      <trkpt lat="42.472878992557526" lon="-8.68363299407065">
        <ele>415.7</ele>
        <time>2022-05-01T08:56:44.601Z</time>
      </trkpt>
      <trkpt lat="42.472665002569556" lon="-8.683667024597526">
        <ele>416.5</ele>
        <time>2022-05-01T08:56:52.402Z</time>
      </trkpt>
      <trkpt lat="42.4726299662143" lon="-8.683670964092016">
        <ele>416.5</ele>
        <time>2022-05-01T08:56:53.600Z</time>
      </trkpt>
      <trkpt lat="42.472429974004626" lon="-8.683759979903698">
        <ele>417.1</ele>
        <time>2022-05-01T08:57:00.529Z</time>
      </trkpt>
      <trkpt lat="42.47237197123468" lon="-8.683801973238587">
        <ele>417.5</ele>
        <time>2022-05-01T08:57:02.660Z</time>
      </trkpt>
      <trkpt lat="42.472234005108476" lon="-8.68391202762723">
        <ele>418.9</ele>
        <time>2022-05-01T08:57:07.883Z</time>
      </trkpt>
      <trkpt lat="42.47219301760197" lon="-8.683963995426893">
        <ele>419.6</ele>
        <time>2022-05-01T08:57:09.641Z</time>
      </trkpt>
      <trkpt lat="42.472125962376595" lon="-8.6840879637748">
        <ele>420.6</ele>
        <time>2022-05-01T08:57:13.232Z</time>
      </trkpt>
      <trkpt lat="42.47209402732551" lon="-8.684138003736734">
        <ele>420.6</ele>
        <time>2022-05-01T08:57:14.724Z</time>
      </trkpt>
      <trkpt lat="42.472081035375595" lon="-8.684251997619867">
        <ele>421.0</ele>
        <time>2022-05-01T08:57:17.313Z</time>
      </trkpt>
      <trkpt lat="42.472082041203976" lon="-8.684298014268279">
        <ele>420.9</ele>
        <time>2022-05-01T08:57:18.317Z</time>
      </trkpt>
      <trkpt lat="42.47210701927543" lon="-8.684437992051244">
        <ele>421.0</ele>
        <time>2022-05-01T08:57:21.533Z</time>
      </trkpt>
      <trkpt lat="42.47213400900364" lon="-8.684523990377784">
        <ele>421.1</ele>
        <time>2022-05-01T08:57:23.565Z</time>
      </trkpt>
      <trkpt lat="42.472235010936856" lon="-8.68470897898078">
        <ele>421.7</ele>
        <time>2022-05-01T08:57:28.490Z</time>
      </trkpt>
      <trkpt lat="42.47228697873652" lon="-8.684765975922346">
        <ele>422.1</ele>
        <time>2022-05-01T08:57:30.391Z</time>
      </trkpt>
      <trkpt lat="42.47248001396656" lon="-8.684962028637528">
        <ele>423.4</ele>
        <time>2022-05-01T08:57:37.406Z</time>
      </trkpt>
      <trkpt lat="42.47254497371614" lon="-8.685002010315657">
        <ele>423.8</ele>
        <time>2022-05-01T08:57:39.699Z</time>
      </trkpt>
      <trkpt lat="42.472747983410954" lon="-8.685123967006803">
        <ele>424.5</ele>
        <time>2022-05-01T08:57:47.336Z</time>
      </trkpt>
      <trkpt lat="42.47281897813082" lon="-8.685165960341692">
        <ele>424.7</ele>
        <time>2022-05-01T08:57:50.243Z</time>
      </trkpt>
      <trkpt lat="42.47299298644066" lon="-8.685275008901954">
        <ele>425.6</ele>
        <time>2022-05-01T08:57:57.920Z</time>
      </trkpt>
      <trkpt lat="42.47307596728206" lon="-8.6853520385921">
        <ele>426.1</ele>
        <time>2022-05-01T08:58:02.242Z</time>
      </trkpt>
      <trkpt lat="42.47314201667905" lon="-8.685448011383414">
        <ele>426.4</ele>
        <time>2022-05-01T08:58:06.445Z</time>
      </trkpt>
      <trkpt lat="42.47329004108906" lon="-8.68563199415803">
        <ele>427.3</ele>
        <time>2022-05-01T08:58:14.618Z</time>
      </trkpt>
      <trkpt lat="42.473349971696734" lon="-8.68565697222948">
        <ele>428.1</ele>
        <time>2022-05-01T08:58:17.349Z</time>
      </trkpt>
      <trkpt lat="42.473432030528784" lon="-8.685660995543003">
        <ele>429.3</ele>
        <time>2022-05-01T08:58:20.712Z</time>
      </trkpt>
      <trkpt lat="42.473561028018594" lon="-8.685657978057861">
        <ele>431.2</ele>
        <time>2022-05-01T08:58:25.856Z</time>
      </trkpt>
      <trkpt lat="42.473609978333116" lon="-8.685670970007777">
        <ele>431.8</ele>
        <time>2022-05-01T08:58:27.801Z</time>
      </trkpt>
      <trkpt lat="42.473650965839624" lon="-8.685700977221131">
        <ele>432.2</ele>
        <time>2022-05-01T08:58:29.682Z</time>
      </trkpt>
      <trkpt lat="42.47374802827835" lon="-8.685770966112614">
        <ele>433.2</ele>
        <time>2022-05-01T08:58:33.836Z</time>
      </trkpt>
      <trkpt lat="42.47377099469304" lon="-8.685789993032813">
        <ele>433.4</ele>
        <time>2022-05-01T08:58:34.905Z</time>
      </trkpt>
      <trkpt lat="42.47381298802793" lon="-8.685840032994747">
        <ele>433.6</ele>
        <time>2022-05-01T08:58:37.138Z</time>
      </trkpt>
      <trkpt lat="42.47390401549637" lon="-8.685926031321287">
        <ele>434.3</ele>
        <time>2022-05-01T08:58:41.525Z</time>
      </trkpt>
      <trkpt lat="42.473929999396205" lon="-8.685942962765694">
        <ele>434.6</ele>
        <time>2022-05-01T08:58:42.578Z</time>
      </trkpt>
      <trkpt lat="42.47405203990638" lon="-8.686030972748995">
        <ele>435.1</ele>
        <time>2022-05-01T08:58:47.703Z</time>
      </trkpt>
      <trkpt lat="42.47417500242591" lon="-8.686137003824115">
        <ele>435.7</ele>
        <time>2022-05-01T08:58:52.975Z</time>
      </trkpt>
      <trkpt lat="42.47422797605395" lon="-8.68617296218872">
        <ele>435.8</ele>
        <time>2022-05-01T08:58:55.139Z</time>
      </trkpt>
      <trkpt lat="42.474338030442595" lon="-8.686229959130287">
        <ele>435.8</ele>
        <time>2022-05-01T08:58:59.388Z</time>
      </trkpt>
      <trkpt lat="42.4743930157274" lon="-8.686259966343641">
        <ele>435.9</ele>
        <time>2022-05-01T08:59:01.481Z</time>
      </trkpt>
      <trkpt lat="42.474510027095675" lon="-8.686390975490212">
        <ele>436.7</ele>
        <time>2022-05-01T08:59:06.806Z</time>
      </trkpt>
      <trkpt lat="42.474532993510365" lon="-8.686415031552315">
        <ele>436.9</ele>
        <time>2022-05-01T08:59:07.852Z</time>
      </trkpt>
      <trkpt lat="42.47464103624225" lon="-8.686507986858487">
        <ele>437.8</ele>
        <time>2022-05-01T08:59:12.634Z</time>
      </trkpt>
      <trkpt lat="42.474722005426884" lon="-8.686576969921589">
        <ele>438.3</ele>
        <time>2022-05-01T08:59:16.137Z</time>
      </trkpt>
      <trkpt lat="42.47475100681186" lon="-8.686595996841788">
        <ele>438.4</ele>
        <time>2022-05-01T08:59:17.245Z</time>
      </trkpt>
      <trkpt lat="42.474937001243234" lon="-8.686718959361315">
        <ele>439.0</ele>
        <time>2022-05-01T08:59:24.218Z</time>
      </trkpt>
      <trkpt lat="42.475088965147734" lon="-8.686833959072828">
        <ele>439.6</ele>
        <time>2022-05-01T08:59:29.905Z</time>
      </trkpt>
      <trkpt lat="42.47524302452803" lon="-8.686959017068148">
        <ele>440.4</ele>
        <time>2022-05-01T08:59:35.839Z</time>
      </trkpt>
      <trkpt lat="42.475391970947385" lon="-8.687079967930913">
        <ele>441.1</ele>
        <time>2022-05-01T08:59:41.461Z</time>
      </trkpt>
      <trkpt lat="42.47542298398912" lon="-8.687103018164635">
        <ele>441.3</ele>
        <time>2022-05-01T08:59:42.661Z</time>
      </trkpt>
      <trkpt lat="42.475651977583766" lon="-8.68726696819067">
        <ele>441.9</ele>
        <time>2022-05-01T08:59:51.386Z</time>
      </trkpt>
      <trkpt lat="42.47568399645388" lon="-8.687290018424392">
        <ele>441.9</ele>
        <time>2022-05-01T08:59:52.552Z</time>
      </trkpt>
      <trkpt lat="42.475906033068895" lon="-8.687456985935569">
        <ele>441.8</ele>
        <time>2022-05-01T09:00:00.739Z</time>
      </trkpt>
      <trkpt lat="42.47593796811998" lon="-8.68748196400702">
        <ele>441.9</ele>
        <time>2022-05-01T09:00:01.882Z</time>
      </trkpt>
      <trkpt lat="42.476184982806444" lon="-8.687670975923538">
        <ele>443.5</ele>
        <time>2022-05-01T09:00:10.680Z</time>
      </trkpt>
      <trkpt lat="42.4763960391283" lon="-8.687719004228711">
        <ele>444.7</ele>
        <time>2022-05-01T09:00:17.164Z</time>
      </trkpt>
      <trkpt lat="42.476574992761016" lon="-8.687679022550583">
        <ele>445.0</ele>
        <time>2022-05-01T09:00:22.709Z</time>
      </trkpt>
      <trkpt lat="42.47661103494465" lon="-8.687667958438396">
        <ele>445.0</ele>
        <time>2022-05-01T09:00:23.806Z</time>
      </trkpt>
      <trkpt lat="42.476831981912255" lon="-8.687624959275126">
        <ele>445.2</ele>
        <time>2022-05-01T09:00:30.651Z</time>
      </trkpt>
      <trkpt lat="42.47696902602911" lon="-8.687598975375295">
        <ele>445.4</ele>
        <time>2022-05-01T09:00:34.996Z</time>
      </trkpt>
      <trkpt lat="42.47707296162844" lon="-8.687578020617366">
        <ele>445.5</ele>
        <time>2022-05-01T09:00:38.435Z</time>
      </trkpt>
      <trkpt lat="42.47718301601708" lon="-8.687556982040405">
        <ele>445.5</ele>
        <time>2022-05-01T09:00:42.148Z</time>
      </trkpt>
      <trkpt lat="42.47733196243644" lon="-8.687528986483812">
        <ele>446.1</ele>
        <time>2022-05-01T09:00:47.144Z</time>
      </trkpt>
      <trkpt lat="42.477366998791695" lon="-8.68752303533256">
        <ele>446.3</ele>
        <time>2022-05-01T09:00:48.418Z</time>
      </trkpt>
      <trkpt lat="42.47757302597165" lon="-8.687489004805684">
        <ele>448.4</ele>
        <time>2022-05-01T09:00:56.026Z</time>
      </trkpt>
      <trkpt lat="42.47766204178333" lon="-8.687467966228724">
        <ele>449.5</ele>
        <time>2022-05-01T09:00:59.259Z</time>
      </trkpt>
      <trkpt lat="42.47774502262473" lon="-8.687452040612698">
        <ele>450.5</ele>
        <time>2022-05-01T09:01:02.409Z</time>
      </trkpt>
      <trkpt lat="42.477796990424395" lon="-8.687434019520879">
        <ele>451.0</ele>
        <time>2022-05-01T09:01:04.293Z</time>
      </trkpt>
      <trkpt lat="42.47788097709417" lon="-8.687413986772299">
        <ele>451.8</ele>
        <time>2022-05-01T09:01:07.478Z</time>
      </trkpt>
      <trkpt lat="42.47791098430753" lon="-8.687400994822383">
        <ele>452.0</ele>
        <time>2022-05-01T09:01:08.578Z</time>
      </trkpt>
      <trkpt lat="42.478055991232395" lon="-8.687360007315874">
        <ele>453.1</ele>
        <time>2022-05-01T09:01:14.032Z</time>
      </trkpt>
      <trkpt lat="42.47816797345877" lon="-8.687348021194339">
        <ele>454.2</ele>
        <time>2022-05-01T09:01:18.294Z</time>
      </trkpt>
      <trkpt lat="42.478247014805675" lon="-8.687316002324224">
        <ele>454.6</ele>
        <time>2022-05-01T09:01:21.408Z</time>
      </trkpt>
      <trkpt lat="42.47833100147545" lon="-8.687281971797347">
        <ele>455.0</ele>
        <time>2022-05-01T09:01:25.052Z</time>
      </trkpt>
      <trkpt lat="42.478420017287135" lon="-8.687259005382657">
        <ele>455.6</ele>
        <time>2022-05-01T09:01:28.497Z</time>
      </trkpt>
      <trkpt lat="42.4784719850868" lon="-8.687248025089502">
        <ele>456.1</ele>
        <time>2022-05-01T09:01:30.710Z</time>
      </trkpt>
      <trkpt lat="42.47860902920365" lon="-8.687218017876148">
        <ele>457.3</ele>
        <time>2022-05-01T09:01:36.405Z</time>
      </trkpt>
      <trkpt lat="42.478745989501476" lon="-8.68722204118967">
        <ele>458.9</ele>
        <time>2022-05-01T09:01:42.159Z</time>
      </trkpt>
      <trkpt lat="42.47886601835489" lon="-8.6872239690274">
        <ele>459.8</ele>
        <time>2022-05-01T09:01:47.613Z</time>
      </trkpt>
      <trkpt lat="42.47892402112484" lon="-8.687225980684161">
        <ele>460.0</ele>
        <time>2022-05-01T09:01:50.211Z</time>
      </trkpt>
      <trkpt lat="42.47898302972317" lon="-8.687226986512542">
        <ele>460.3</ele>
        <time>2022-05-01T09:01:52.815Z</time>
      </trkpt>
      <trkpt lat="42.47915603220463" lon="-8.687235033139586">
        <ele>461.0</ele>
        <time>2022-05-01T09:02:00.377Z</time>
      </trkpt>
      <trkpt lat="42.47918603941798" lon="-8.687237966805696">
        <ele>461.1</ele>
        <time>2022-05-01T09:02:01.811Z</time>
      </trkpt>
      <trkpt lat="42.479368010535836" lon="-8.687257999554276">
        <ele>462.1</ele>
        <time>2022-05-01T09:02:10.657Z</time>
      </trkpt>
      <trkpt lat="42.479449985548854" lon="-8.687262022867799">
        <ele>462.5</ele>
        <time>2022-05-01T09:02:14.748Z</time>
      </trkpt>
      <trkpt lat="42.47950899414718" lon="-8.68726596236229">
        <ele>462.9</ele>
        <time>2022-05-01T09:02:17.882Z</time>
      </trkpt>
      <trkpt lat="42.47965500690043" lon="-8.687284989282489">
        <ele>464.4</ele>
        <time>2022-05-01T09:02:25.078Z</time>
      </trkpt>
      <trkpt lat="42.47971401549876" lon="-8.687290018424392">
        <ele>465.0</ele>
        <time>2022-05-01T09:02:27.628Z</time>
      </trkpt>
      <trkpt lat="42.479794984683394" lon="-8.687302004545927">
        <ele>465.8</ele>
        <time>2022-05-01T09:02:31.455Z</time>
      </trkpt>
      <trkpt lat="42.479905961081386" lon="-8.687313990667462">
        <ele>466.9</ele>
        <time>2022-05-01T09:02:36.580Z</time>
      </trkpt>
      <trkpt lat="42.480053985491395" lon="-8.687327988445759">
        <ele>468.0</ele>
        <time>2022-05-01T09:02:44.369Z</time>
      </trkpt>
      <trkpt lat="42.48016999103129" lon="-8.6873310059309">
        <ele>468.6</ele>
        <time>2022-05-01T09:02:49.823Z</time>
      </trkpt>
      <trkpt lat="42.48019798658788" lon="-8.6873310059309">
        <ele>468.7</ele>
        <time>2022-05-01T09:02:50.991Z</time>
      </trkpt>
      <trkpt lat="42.48034701682627" lon="-8.687345003709197">
        <ele>469.3</ele>
        <time>2022-05-01T09:02:56.798Z</time>
      </trkpt>
      <trkpt lat="42.480377024039626" lon="-8.687359001487494">
        <ele>469.7</ele>
        <time>2022-05-01T09:02:58.132Z</time>
      </trkpt>
      <trkpt lat="42.48049202375114" lon="-8.687413986772299">
        <ele>470.9</ele>
        <time>2022-05-01T09:03:02.947Z</time>
      </trkpt>
      <trkpt lat="42.48060199432075" lon="-8.687484981492162">
        <ele>472.1</ele>
        <time>2022-05-01T09:03:07.745Z</time>
      </trkpt>
      <trkpt lat="42.480657985433936" lon="-8.687507025897503">
        <ele>472.4</ele>
        <time>2022-05-01T09:03:09.870Z</time>
      </trkpt>
      <trkpt lat="42.48080098070204" lon="-8.68756603449583">
        <ele>473.0</ele>
        <time>2022-05-01T09:03:15.259Z</time>
      </trkpt>
      <trkpt lat="42.480822019279" lon="-8.687596041709185">
        <ele>473.5</ele>
        <time>2022-05-01T09:03:16.296Z</time>
      </trkpt>
      <trkpt lat="42.480825036764145" lon="-8.687666030600667">
        <ele>474.9</ele>
        <time>2022-05-01T09:03:17.971Z</time>
      </trkpt>
      <trkpt lat="42.480738032609224" lon="-8.687723027542233">
        <ele>476.5</ele>
        <time>2022-05-01T09:03:20.982Z</time>
      </trkpt>
      <trkpt lat="42.48070802539587" lon="-8.687719004228711">
        <ele>476.6</ele>
        <time>2022-05-01T09:03:21.891Z</time>
      </trkpt>
      <trkpt lat="42.48064901679754" lon="-8.68769796565175">
        <ele>476.4</ele>
        <time>2022-05-01T09:03:23.684Z</time>
      </trkpt>
      <trkpt lat="42.480591014027596" lon="-8.68769503198564">
        <ele>476.6</ele>
        <time>2022-05-01T09:03:25.353Z</time>
      </trkpt>
      <trkpt lat="42.48053703457117" lon="-8.687702994793653">
        <ele>477.0</ele>
        <time>2022-05-01T09:03:26.886Z</time>
      </trkpt>
      <trkpt lat="42.48045103624463" lon="-8.687720010057092">
        <ele>477.7</ele>
        <time>2022-05-01T09:03:29.303Z</time>
      </trkpt>
      <trkpt lat="42.480393033474684" lon="-8.687725039198995">
        <ele>477.9</ele>
        <time>2022-05-01T09:03:30.899Z</time>
      </trkpt>
      <trkpt lat="42.480307035148144" lon="-8.68773702532053">
        <ele>478.0</ele>
        <time>2022-05-01T09:03:33.248Z</time>
      </trkpt>
      <trkpt lat="42.480230005458" lon="-8.687774995341897">
        <ele>478.8</ele>
        <time>2022-05-01T09:03:35.535Z</time>
      </trkpt>
      <trkpt lat="42.480204021558166" lon="-8.687786981463432">
        <ele>479.0</ele>
        <time>2022-05-01T09:03:36.290Z</time>
      </trkpt>
      <trkpt lat="42.48008801601827" lon="-8.687852025032043">
        <ele>480.2</ele>
        <time>2022-05-01T09:03:40.023Z</time>
      </trkpt>
      <trkpt lat="42.48004702851176" lon="-8.687878008931875">
        <ele>480.6</ele>
        <time>2022-05-01T09:03:41.337Z</time>
      </trkpt>
      <trkpt lat="42.47993898577988" lon="-8.687954032793641">
        <ele>482.0</ele>
        <time>2022-05-01T09:03:45.017Z</time>
      </trkpt>
      <trkpt lat="42.47989799827337" lon="-8.68799502030015">
        <ele>482.7</ele>
        <time>2022-05-01T09:03:46.639Z</time>
      </trkpt>
      <trkpt lat="42.47985600493848" lon="-8.68803701363504">
        <ele>483.5</ele>
        <time>2022-05-01T09:03:48.377Z</time>
      </trkpt>
      <trkpt lat="42.479775035753846" lon="-8.68812401778996">
        <ele>485.0</ele>
        <time>2022-05-01T09:03:51.767Z</time>
      </trkpt>
      <trkpt lat="42.479731030762196" lon="-8.688163999468088">
        <ele>485.7</ele>
        <time>2022-05-01T09:03:53.693Z</time>
      </trkpt>
      <trkpt lat="42.47966397553682" lon="-8.688216973096132">
        <ele>486.2</ele>
        <time>2022-05-01T09:03:56.932Z</time>
      </trkpt>
      <trkpt lat="42.479580994695425" lon="-8.688303977251053">
        <ele>487.3</ele>
        <time>2022-05-01T09:04:00.933Z</time>
      </trkpt>
      <trkpt lat="42.479561967775226" lon="-8.688321998342872">
        <ele>487.5</ele>
        <time>2022-05-01T09:04:01.758Z</time>
      </trkpt>
      <trkpt lat="42.47948803938925" lon="-8.688390981405973">
        <ele>488.3</ele>
        <time>2022-05-01T09:04:05.421Z</time>
      </trkpt>
      <trkpt lat="42.479433976113796" lon="-8.68844403885305">
        <ele>489.2</ele>
        <time>2022-05-01T09:04:08.331Z</time>
      </trkpt>
      <trkpt lat="42.47941603884101" lon="-8.688459964469075">
        <ele>489.4</ele>
        <time>2022-05-01T09:04:09.176Z</time>
      </trkpt>
      <trkpt lat="42.479363987222314" lon="-8.688513021916151">
        <ele>490.4</ele>
        <time>2022-05-01T09:04:11.553Z</time>
      </trkpt>
      <trkpt lat="42.47928603552282" lon="-8.688572030514479">
        <ele>491.3</ele>
        <time>2022-05-01T09:04:14.955Z</time>
      </trkpt>
      <trkpt lat="42.479268014431" lon="-8.688590973615646">
        <ele>491.7</ele>
        <time>2022-05-01T09:04:15.764Z</time>
      </trkpt>
      <trkpt lat="42.479194002225995" lon="-8.6886590346694">
        <ele>492.7</ele>
        <time>2022-05-01T09:04:18.879Z</time>
      </trkpt>
      <trkpt lat="42.47911496087909" lon="-8.688718965277076">
        <ele>493.5</ele>
        <time>2022-05-01T09:04:21.979Z</time>
      </trkpt>
      <trkpt lat="42.47909501194954" lon="-8.688733968883753">
        <ele>493.7</ele>
        <time>2022-05-01T09:04:22.851Z</time>
      </trkpt>
      <trkpt lat="42.479020999744534" lon="-8.68879096582532">
        <ele>494.4</ele>
        <time>2022-05-01T09:04:25.995Z</time>
      </trkpt>
      <trkpt lat="42.47897498309612" lon="-8.688816027715802">
        <ele>494.8</ele>
        <time>2022-05-01T09:04:27.713Z</time>
      </trkpt>
      <trkpt lat="42.478960985317826" lon="-8.688824996352196">
        <ele>494.9</ele>
        <time>2022-05-01T09:04:28.323Z</time>
      </trkpt>
      <trkpt lat="42.47896400280297" lon="-8.688865983858705">
        <ele>496.1</ele>
        <time>2022-05-01T09:04:29.432Z</time>
      </trkpt>
      <trkpt lat="42.479019993916154" lon="-8.688882999122143">
        <ele>496.9</ele>
        <time>2022-05-01T09:04:31.402Z</time>
      </trkpt>
      <trkpt lat="42.47904899530113" lon="-8.688880987465382">
        <ele>497.2</ele>
        <time>2022-05-01T09:04:32.350Z</time>
      </trkpt>
      <trkpt lat="42.479152008891106" lon="-8.688869001343846">
        <ele>498.2</ele>
        <time>2022-05-01T09:04:35.594Z</time>
      </trkpt>
      <trkpt lat="42.479174975305796" lon="-8.688867995515466">
        <ele>498.5</ele>
        <time>2022-05-01T09:04:36.291Z</time>
      </trkpt>
      <trkpt lat="42.47926600277424" lon="-8.688863972201943">
        <ele>499.6</ele>
        <time>2022-05-01T09:04:38.981Z</time>
      </trkpt>
      <trkpt lat="42.47928997501731" lon="-8.688861960545182">
        <ele>499.8</ele>
        <time>2022-05-01T09:04:39.674Z</time>
      </trkpt>
      <trkpt lat="42.47933297418058" lon="-8.688864978030324">
        <ele>500.3</ele>
        <time>2022-05-01T09:04:40.893Z</time>
      </trkpt>
      <trkpt lat="42.47935501858592" lon="-8.688862966373563">
        <ele>500.5</ele>
        <time>2022-05-01T09:04:41.508Z</time>
      </trkpt>
      <trkpt lat="42.47945996001363" lon="-8.68883497081697">
        <ele>500.7</ele>
        <time>2022-05-01T09:04:44.452Z</time>
      </trkpt>
      <trkpt lat="42.47948099859059" lon="-8.688828013837337">
        <ele>500.7</ele>
        <time>2022-05-01T09:04:45.040Z</time>
      </trkpt>
      <trkpt lat="42.479583006352186" lon="-8.688798006623983">
        <ele>501.3</ele>
        <time>2022-05-01T09:04:47.856Z</time>
      </trkpt>
      <trkpt lat="42.479642014950514" lon="-8.6887919716537">
        <ele>501.9</ele>
        <time>2022-05-01T09:04:49.439Z</time>
      </trkpt>
      <trkpt lat="42.47968199662864" lon="-8.688781997188926">
        <ele>502.2</ele>
        <time>2022-05-01T09:04:50.519Z</time>
      </trkpt>
      <trkpt lat="42.47975902631879" lon="-8.688776968047023">
        <ele>503.2</ele>
        <time>2022-05-01T09:04:52.693Z</time>
      </trkpt>
      <trkpt lat="42.479796996340156" lon="-8.688776968047023">
        <ele>503.8</ele>
        <time>2022-05-01T09:04:53.747Z</time>
      </trkpt>
      <trkpt lat="42.479906966909766" lon="-8.688776968047023">
        <ele>505.4</ele>
        <time>2022-05-01T09:04:56.805Z</time>
      </trkpt>
      <trkpt lat="42.47995097190142" lon="-8.688784008845687">
        <ele>506.3</ele>
        <time>2022-05-01T09:04:58.095Z</time>
      </trkpt>
      <trkpt lat="42.48003797605634" lon="-8.688762970268726">
        <ele>506.3</ele>
        <time>2022-05-01T09:05:00.618Z</time>
      </trkpt>
      <trkpt lat="42.48009002767503" lon="-8.688754001632333">
        <ele>506.4</ele>
        <time>2022-05-01T09:05:02.090Z</time>
      </trkpt>
      <trkpt lat="42.48015096411109" lon="-8.68874603882432">
        <ele>506.7</ele>
        <time>2022-05-01T09:05:03.851Z</time>
      </trkpt>
      <trkpt lat="42.48021399602294" lon="-8.68874897249043">
        <ele>506.9</ele>
        <time>2022-05-01T09:05:05.632Z</time>
      </trkpt>
      <trkpt lat="42.480245009064674" lon="-8.688752995803952">
        <ele>507.0</ele>
        <time>2022-05-01T09:05:06.498Z</time>
      </trkpt>
      <trkpt lat="42.48027501627803" lon="-8.688758024945855">
        <ele>507.1</ele>
        <time>2022-05-01T09:05:07.327Z</time>
      </trkpt>
      <trkpt lat="42.48044600710273" lon="-8.688801024109125">
        <ele>507.8</ele>
        <time>2022-05-01T09:05:12.159Z</time>
      </trkpt>
      <trkpt lat="42.48058003373444" lon="-8.688865983858705">
        <ele>508.4</ele>
        <time>2022-05-01T09:05:16.724Z</time>
      </trkpt>
      <trkpt lat="42.480632001534104" lon="-8.688890961930156">
        <ele>508.6</ele>
        <time>2022-05-01T09:05:18.427Z</time>
      </trkpt>
      <trkpt lat="42.4807530362159" lon="-8.688989030197263">
        <ele>509.8</ele>
        <time>2022-05-01T09:05:22.929Z</time>
      </trkpt>
      <trkpt lat="42.48079896904528" lon="-8.68902700021863">
        <ele>510.2</ele>
        <time>2022-05-01T09:05:24.765Z</time>
      </trkpt>
      <trkpt lat="42.48096995986998" lon="-8.689163960516453">
        <ele>511.1</ele>
        <time>2022-05-01T09:05:31.620Z</time>
      </trkpt>
      <trkpt lat="42.48116500675678" lon="-8.689336962997913">
        <ele>512.0</ele>
        <time>2022-05-01T09:05:39.775Z</time>
      </trkpt>
      <trkpt lat="42.48119601979852" lon="-8.689364036545157">
        <ele>512.2</ele>
        <time>2022-05-01T09:05:40.998Z</time>
      </trkpt>
      <trkpt lat="42.48141503892839" lon="-8.689537961035967">
        <ele>512.9</ele>
        <time>2022-05-01T09:05:49.617Z</time>
      </trkpt>
      <trkpt lat="42.48154797591269" lon="-8.689620019868016">
        <ele>513.2</ele>
        <time>2022-05-01T09:05:54.499Z</time>
      </trkpt>
      <trkpt lat="42.48161796480417" lon="-8.689651032909751">
        <ele>513.1</ele>
        <time>2022-05-01T09:05:57.047Z</time>
      </trkpt>
      <trkpt lat="42.481728019192815" lon="-8.68971398100257">
        <ele>513.3</ele>
        <time>2022-05-01T09:06:01.054Z</time>
      </trkpt>
      <trkpt lat="42.481835978105664" lon="-8.689794028177857">
        <ele>513.9</ele>
        <time>2022-05-01T09:06:05.128Z</time>
      </trkpt>
      <trkpt lat="42.482047034427524" lon="-8.689980022609234">
        <ele>515.1</ele>
        <time>2022-05-01T09:06:13.892Z</time>
      </trkpt>
      <trkpt lat="42.482182988896966" lon="-8.690117988735437">
        <ele>515.6</ele>
        <time>2022-05-01T09:06:19.694Z</time>
      </trkpt>
      <trkpt lat="42.48227703385055" lon="-8.6902270372957">
        <ele>515.9</ele>
        <time>2022-05-01T09:06:23.928Z</time>
      </trkpt>
      <trkpt lat="42.48233998194337" lon="-8.69031596928835">
        <ele>515.9</ele>
        <time>2022-05-01T09:06:26.948Z</time>
      </trkpt>
      <trkpt lat="42.48240200802684" lon="-8.690406996756792">
        <ele>515.7</ele>
        <time>2022-05-01T09:06:29.926Z</time>
      </trkpt>
      <trkpt lat="42.48242497444153" lon="-8.690474973991513">
        <ele>516.1</ele>
        <time>2022-05-01T09:06:31.794Z</time>
      </trkpt>
      <trkpt lat="42.48244802467525" lon="-8.690611012279987">
        <ele>517.1</ele>
        <time>2022-05-01T09:06:35.384Z</time>
      </trkpt>
      <trkpt lat="42.48245296999812" lon="-8.690688963979483">
        <ele>517.9</ele>
        <time>2022-05-01T09:06:37.573Z</time>
      </trkpt>
      <trkpt lat="42.482440983876586" lon="-8.690800024196506">
        <ele>519.3</ele>
        <time>2022-05-01T09:06:40.502Z</time>
      </trkpt>
      <trkpt lat="42.482434026896954" lon="-8.690863978117704">
        <ele>519.9</ele>
        <time>2022-05-01T09:06:42.241Z</time>
      </trkpt>
      <trkpt lat="42.48242396861315" lon="-8.690950982272625">
        <ele>520.9</ele>
        <time>2022-05-01T09:06:44.469Z</time>
      </trkpt>
      <trkpt lat="42.48240997083485" lon="-8.691059025004506">
        <ele>521.4</ele>
        <time>2022-05-01T09:06:47.110Z</time>
      </trkpt>
      <trkpt lat="42.482394967228174" lon="-8.691138988360763">
        <ele>521.9</ele>
        <time>2022-05-01T09:06:49.269Z</time>
      </trkpt>
      <trkpt lat="42.48238801024854" lon="-8.691180981695652">
        <ele>522.1</ele>
        <time>2022-05-01T09:06:50.334Z</time>
      </trkpt>
      <trkpt lat="42.48232698999345" lon="-8.691420033574104">
        <ele>523.7</ele>
        <time>2022-05-01T09:06:56.764Z</time>
      </trkpt>
      <trkpt lat="42.4822829850018" lon="-8.691622959449887">
        <ele>524.5</ele>
        <time>2022-05-01T09:07:02.541Z</time>
      </trkpt>
      <trkpt lat="42.482263036072254" lon="-8.691739970818162">
        <ele>524.8</ele>
        <time>2022-05-01T09:07:06.198Z</time>
      </trkpt>
      <trkpt lat="42.482243003323674" lon="-8.69182102382183">
        <ele>525.2</ele>
        <time>2022-05-01T09:07:08.821Z</time>
      </trkpt>
      <trkpt lat="42.48221701942384" lon="-8.692021016031504">
        <ele>525.6</ele>
        <time>2022-05-01T09:07:15.322Z</time>
      </trkpt>
      <trkpt lat="42.48216203413904" lon="-8.69227297604084">
        <ele>527.0</ele>
        <time>2022-05-01T09:07:24.567Z</time>
      </trkpt>
      <trkpt lat="42.48207502998412" lon="-8.69248503819108">
        <ele>528.8</ele>
        <time>2022-05-01T09:07:33.724Z</time>
      </trkpt>
      <trkpt lat="42.482030019164085" lon="-8.692567013204098">
        <ele>529.7</ele>
        <time>2022-05-01T09:07:37.697Z</time>
      </trkpt>
      <trkpt lat="42.481961036100984" lon="-8.69265996851027">
        <ele>531.0</ele>
        <time>2022-05-01T09:07:42.857Z</time>
      </trkpt>
      <trkpt lat="42.48189096339047" lon="-8.692783014848828">
        <ele>532.0</ele>
        <time>2022-05-01T09:07:49.136Z</time>
      </trkpt>
      <trkpt lat="42.48187302611768" lon="-8.692816039547324">
        <ele>532.3</ele>
        <time>2022-05-01T09:07:50.863Z</time>
      </trkpt>
      <trkpt lat="42.48177696950734" lon="-8.692995999008417">
        <ele>534.4</ele>
        <time>2022-05-01T09:08:00.292Z</time>
      </trkpt>
      <trkpt lat="42.481729025021195" lon="-8.693118961527944">
        <ele>535.7</ele>
        <time>2022-05-01T09:08:06.008Z</time>
      </trkpt>
      <trkpt lat="42.481709998100996" lon="-8.693165984004736">
        <ele>536.2</ele>
        <time>2022-05-01T09:08:07.882Z</time>
      </trkpt>
      <trkpt lat="42.48169700615108" lon="-8.693219041451812">
        <ele>536.5</ele>
        <time>2022-05-01T09:08:09.789Z</time>
      </trkpt>
      <trkpt lat="42.48167001642287" lon="-8.693309985101223">
        <ele>537.1</ele>
        <time>2022-05-01T09:08:13.259Z</time>
      </trkpt>
      <trkpt lat="42.48165995813906" lon="-8.693343009799719">
        <ele>537.3</ele>
        <time>2022-05-01T09:08:14.377Z</time>
      </trkpt>
      <trkpt lat="42.48164897784591" lon="-8.693404030054808">
        <ele>537.3</ele>
        <time>2022-05-01T09:08:16.166Z</time>
      </trkpt>
      <trkpt lat="42.48161695897579" lon="-8.693536967039108">
        <ele>538.0</ele>
        <time>2022-05-01T09:08:20.202Z</time>
      </trkpt>
      <trkpt lat="42.48160497285426" lon="-8.693577032536268">
        <ele>538.4</ele>
        <time>2022-05-01T09:08:21.358Z</time>
      </trkpt>
      <trkpt lat="42.481556022539735" lon="-8.693726984784007">
        <ele>539.9</ele>
        <time>2022-05-01T09:08:25.600Z</time>
      </trkpt>
      <trkpt lat="42.48154697008431" lon="-8.693788005039096">
        <ele>540.4</ele>
        <time>2022-05-01T09:08:27.282Z</time>
      </trkpt>
      <trkpt lat="42.48154596425593" lon="-8.693820023909211">
        <ele>540.5</ele>
        <time>2022-05-01T09:08:28.239Z</time>
      </trkpt>
      <trkpt lat="42.48154202476144" lon="-8.693928988650441">
        <ele>540.9</ele>
        <time>2022-05-01T09:08:31.385Z</time>
      </trkpt>
      <trkpt lat="42.48154898174107" lon="-8.69405304081738">
        <ele>541.3</ele>
        <time>2022-05-01T09:08:35.075Z</time>
      </trkpt>
      <trkpt lat="42.48155904002488" lon="-8.694136021658778">
        <ele>541.3</ele>
        <time>2022-05-01T09:08:37.538Z</time>
      </trkpt>
      <trkpt lat="42.481576977297664" lon="-8.694311035797">
        <ele>541.8</ele>
        <time>2022-05-01T09:08:42.391Z</time>
      </trkpt>
      <trkpt lat="42.48158602975309" lon="-8.69439803995192">
        <ele>542.0</ele>
        <time>2022-05-01T09:08:45.030Z</time>
      </trkpt>
      <trkpt lat="42.48158703558147" lon="-8.69444103911519">
        <ele>542.1</ele>
        <time>2022-05-01T09:08:46.364Z</time>
      </trkpt>
      <trkpt lat="42.48156901448965" lon="-8.694700039923191">
        <ele>543.7</ele>
        <time>2022-05-01T09:08:54.581Z</time>
      </trkpt>
      <trkpt lat="42.48152601532638" lon="-8.695029029622674">
        <ele>545.5</ele>
        <time>2022-05-01T09:09:05.494Z</time>
      </trkpt>
      <trkpt lat="42.48150799423456" lon="-8.695165989920497">
        <ele>546.3</ele>
        <time>2022-05-01T09:09:09.929Z</time>
      </trkpt>
      <trkpt lat="42.48149600811303" lon="-8.695345027372241">
        <ele>546.9</ele>
        <time>2022-05-01T09:09:16.069Z</time>
      </trkpt>
      <trkpt lat="42.48150497674942" lon="-8.69560000486672">
        <ele>547.0</ele>
        <time>2022-05-01T09:09:24.971Z</time>
      </trkpt>
      <trkpt lat="42.48149701394141" lon="-8.69573000818491">
        <ele>547.3</ele>
        <time>2022-05-01T09:09:29.885Z</time>
      </trkpt>
      <trkpt lat="42.48148301616311" lon="-8.695812989026308">
        <ele>547.8</ele>
        <time>2022-05-01T09:09:32.675Z</time>
      </trkpt>
      <trkpt lat="42.48143297620118" lon="-8.69596503674984">
        <ele>549.0</ele>
        <time>2022-05-01T09:09:38.080Z</time>
      </trkpt>
      <trkpt lat="42.48142199590802" lon="-8.695996971800923">
        <ele>549.3</ele>
        <time>2022-05-01T09:09:39.112Z</time>
      </trkpt>
      <trkpt lat="42.48133700340986" lon="-8.696207022294402">
        <ele>550.4</ele>
        <time>2022-05-01T09:09:45.716Z</time>
      </trkpt>
      <trkpt lat="42.481277994811535" lon="-8.696344988420606">
        <ele>551.3</ele>
        <time>2022-05-01T09:09:50.406Z</time>
      </trkpt>
      <trkpt lat="42.481215968728065" lon="-8.6964609939605">
        <ele>552.8</ele>
        <time>2022-05-01T09:09:54.738Z</time>
      </trkpt>
      <trkpt lat="42.48120197094977" lon="-8.696491001173854">
        <ele>553.1</ele>
        <time>2022-05-01T09:09:55.722Z</time>
      </trkpt>
      <trkpt lat="42.48113499954343" lon="-8.696646988391876">
        <ele>554.4</ele>
        <time>2022-05-01T09:10:00.950Z</time>
      </trkpt>
      <trkpt lat="42.48112200759351" lon="-8.69667598977685">
        <ele>554.7</ele>
        <time>2022-05-01T09:10:02.041Z</time>
      </trkpt>
      <trkpt lat="42.481087977066636" lon="-8.696766011416912">
        <ele>555.1</ele>
        <time>2022-05-01T09:10:05.489Z</time>
      </trkpt>
      <trkpt lat="42.48101295903325" lon="-8.696970026940107">
        <ele>555.8</ele>
        <time>2022-05-01T09:10:13.586Z</time>
      </trkpt>
      <trkpt lat="42.480936013162136" lon="-8.697219975292683">
        <ele>557.5</ele>
        <time>2022-05-01T09:10:22.930Z</time>
      </trkpt>
      <trkpt lat="42.48089795932174" lon="-8.697378979995847">
        <ele>558.9</ele>
        <time>2022-05-01T09:10:28.540Z</time>
      </trkpt>
      <trkpt lat="42.4809240270406" lon="-8.697495991364121">
        <ele>559.0</ele>
        <time>2022-05-01T09:10:32.435Z</time>
      </trkpt>
      <trkpt lat="42.48094900511205" lon="-8.697575032711029">
        <ele>559.0</ele>
        <time>2022-05-01T09:10:35.025Z</time>
      </trkpt>
      <trkpt lat="42.48100499622524" lon="-8.697719033807516">
        <ele>559.7</ele>
        <time>2022-05-01T09:10:39.928Z</time>
      </trkpt>
      <trkpt lat="42.48103399761021" lon="-8.697781981900334">
        <ele>560.1</ele>
        <time>2022-05-01T09:10:42.009Z</time>
      </trkpt>
      <trkpt lat="42.4810709618032" lon="-8.697887007147074">
        <ele>561.1</ele>
        <time>2022-05-01T09:10:45.225Z</time>
      </trkpt>
      <trkpt lat="42.48111002147198" lon="-8.697982979938388">
        <ele>562.3</ele>
        <time>2022-05-01T09:10:48.186Z</time>
      </trkpt>
      <trkpt lat="42.481169030070305" lon="-8.698106026276946">
        <ele>563.3</ele>
        <time>2022-05-01T09:10:51.992Z</time>
      </trkpt>
      <trkpt lat="42.48118596151471" lon="-8.698134021833539">
        <ele>563.5</ele>
        <time>2022-05-01T09:10:52.881Z</time>
      </trkpt>
      <trkpt lat="42.481296015903354" lon="-8.698320016264915">
        <ele>564.0</ele>
        <time>2022-05-01T09:10:58.504Z</time>
      </trkpt>
      <trkpt lat="42.48132401145995" lon="-8.698356980457902">
        <ele>563.8</ele>
        <time>2022-05-01T09:10:59.756Z</time>
      </trkpt>
      <trkpt lat="42.48143901117146" lon="-8.69852202013135">
        <ele>563.2</ele>
        <time>2022-05-01T09:11:04.961Z</time>
      </trkpt>
      <trkpt lat="42.48158200643957" lon="-8.698709020391107">
        <ele>561.7</ele>
        <time>2022-05-01T09:11:10.969Z</time>
      </trkpt>
      <trkpt lat="42.48164797201753" lon="-8.698809016495943">
        <ele>561.6</ele>
        <time>2022-05-01T09:11:13.849Z</time>
      </trkpt>
      <trkpt lat="42.481794990599155" lon="-8.698977995663881">
        <ele>560.1</ele>
        <time>2022-05-01T09:11:19.340Z</time>
      </trkpt>
      <trkpt lat="42.48183002695441" lon="-8.699026023969054">
        <ele>560.3</ele>
        <time>2022-05-01T09:11:20.460Z</time>
      </trkpt>
      <trkpt lat="42.48186799697578" lon="-8.699069023132324">
        <ele>560.2</ele>
        <time>2022-05-01T09:11:21.593Z</time>
      </trkpt>
      <trkpt lat="42.48193798586726" lon="-8.699155021458864">
        <ele>560.4</ele>
        <time>2022-05-01T09:11:23.792Z</time>
      </trkpt>
      <trkpt lat="42.48197101056576" lon="-8.699192991480231">
        <ele>560.5</ele>
        <time>2022-05-01T09:11:24.739Z</time>
      </trkpt>
      <trkpt lat="42.48206698335707" lon="-8.699303967878222">
        <ele>560.8</ele>
        <time>2022-05-01T09:11:27.366Z</time>
      </trkpt>
      <trkpt lat="42.48212900944054" lon="-8.699378985911608">
        <ele>561.4</ele>
        <time>2022-05-01T09:11:29.089Z</time>
      </trkpt>
      <trkpt lat="42.48216303996742" lon="-8.699416033923626">
        <ele>561.6</ele>
        <time>2022-05-01T09:11:30.019Z</time>
      </trkpt>
      <trkpt lat="42.48231500387192" lon="-8.699503960087895">
        <ele>560.4</ele>
        <time>2022-05-01T09:11:33.274Z</time>
      </trkpt>
      <trkpt lat="42.48235699720681" lon="-8.699523992836475">
        <ele>560.1</ele>
        <time>2022-05-01T09:11:34.182Z</time>
      </trkpt>
      <trkpt lat="42.48259202577174" lon="-8.699629018083215">
        <ele>558.1</ele>
        <time>2022-05-01T09:11:38.948Z</time>
      </trkpt>
      <trkpt lat="42.48288002796471" lon="-8.699767990037799">
        <ele>555.5</ele>
        <time>2022-05-01T09:11:44.735Z</time>
      </trkpt>
      <trkpt lat="42.48306501656771" lon="-8.6998560000211">
        <ele>553.7</ele>
        <time>2022-05-01T09:11:48.224Z</time>
      </trkpt>
      <trkpt lat="42.483127964660525" lon="-8.699892964214087">
        <ele>553.2</ele>
        <time>2022-05-01T09:11:49.517Z</time>
      </trkpt>
      <trkpt lat="42.48324296437204" lon="-8.699975023046136">
        <ele>552.8</ele>
        <time>2022-05-01T09:11:51.839Z</time>
      </trkpt>
      <trkpt lat="42.48328998684883" lon="-8.700019028037786">
        <ele>553.0</ele>
        <time>2022-05-01T09:11:52.908Z</time>
      </trkpt>
      <trkpt lat="42.48332996852696" lon="-8.700064038857818">
        <ele>553.3</ele>
        <time>2022-05-01T09:11:53.944Z</time>
      </trkpt>
      <trkpt lat="42.48345603235066" lon="-8.700210973620415">
        <ele>554.5</ele>
        <time>2022-05-01T09:11:57.358Z</time>
      </trkpt>
      <trkpt lat="42.48348302207887" lon="-8.700239975005388">
        <ele>554.6</ele>
        <time>2022-05-01T09:11:58.117Z</time>
      </trkpt>
      <trkpt lat="42.48367798514664" lon="-8.7004569824785">
        <ele>555.5</ele>
        <time>2022-05-01T09:12:03.806Z</time>
      </trkpt>
      <trkpt lat="42.483790973201394" lon="-8.700590003281832">
        <ele>556.5</ele>
        <time>2022-05-01T09:12:07.328Z</time>
      </trkpt>
      <trkpt lat="42.48382198624313" lon="-8.700625961646438">
        <ele>556.8</ele>
        <time>2022-05-01T09:12:08.300Z</time>
      </trkpt>
      <trkpt lat="42.48400202952325" lon="-8.700835006311536">
        <ele>557.3</ele>
        <time>2022-05-01T09:12:14.179Z</time>
      </trkpt>
      <trkpt lat="42.48406698927283" lon="-8.700911030173302">
        <ele>557.3</ele>
        <time>2022-05-01T09:12:16.372Z</time>
      </trkpt>
      <trkpt lat="42.484137983992696" lon="-8.701051007956266">
        <ele>557.5</ele>
        <time>2022-05-01T09:12:19.629Z</time>
      </trkpt>
      <trkpt lat="42.48417302034795" lon="-8.701152009889483">
        <ele>557.7</ele>
        <time>2022-05-01T09:12:21.786Z</time>
      </trkpt>
      <trkpt lat="42.48423202894628" lon="-8.701483011245728">
        <ele>557.7</ele>
        <time>2022-05-01T09:12:28.360Z</time>
      </trkpt>
      <trkpt lat="42.48423202894628" lon="-8.701540008187294">
        <ele>557.8</ele>
        <time>2022-05-01T09:12:29.456Z</time>
      </trkpt>
      <trkpt lat="42.484223982319236" lon="-8.70165802538395">
        <ele>557.5</ele>
        <time>2022-05-01T09:12:31.730Z</time>
      </trkpt>
      <trkpt lat="42.48419104143977" lon="-8.701774030923843">
        <ele>557.7</ele>
        <time>2022-05-01T09:12:34.128Z</time>
      </trkpt>
      <trkpt lat="42.484115017578006" lon="-8.70191602036357">
        <ele>558.0</ele>
        <time>2022-05-01T09:12:37.503Z</time>
      </trkpt>
      <trkpt lat="42.48406698927283" lon="-8.701996989548206">
        <ele>558.3</ele>
        <time>2022-05-01T09:12:39.410Z</time>
      </trkpt>
      <trkpt lat="42.484026001766324" lon="-8.702081982046366">
        <ele>558.2</ele>
        <time>2022-05-01T09:12:41.283Z</time>
      </trkpt>
      <trkpt lat="42.48398099094629" lon="-8.702149037271738">
        <ele>558.5</ele>
        <time>2022-05-01T09:12:42.962Z</time>
      </trkpt>
      <trkpt lat="42.483963975682855" lon="-8.702157000079751">
        <ele>558.8</ele>
        <time>2022-05-01T09:12:43.415Z</time>
      </trkpt>
      <trkpt lat="42.48379901982844" lon="-8.70245011523366">
        <ele>559.1</ele>
        <time>2022-05-01T09:12:50.285Z</time>
      </trkpt>
      <trkpt lat="42.48365208506584" lon="-8.703057384118438">
        <ele>555.0</ele>
        <time>2022-05-01T09:13:02.221Z</time>
      </trkpt>
      <trkpt lat="42.48329577036202" lon="-8.70419112034142">
        <ele>547.2</ele>
        <time>2022-05-01T09:13:19.435Z</time>
      </trkpt>
      <trkpt lat="42.48307876288891" lon="-8.704624800011516">
        <ele>544.2</ele>
        <time>2022-05-01T09:13:27.053Z</time>
      </trkpt>
      <trkpt lat="42.48277768492699" lon="-8.705103741958737">
        <ele>540.1</ele>
        <time>2022-05-01T09:13:35.338Z</time>
      </trkpt>
      <trkpt lat="42.482404271140695" lon="-8.705445555970073">
        <ele>538.7</ele>
        <time>2022-05-01T09:13:42.056Z</time>
      </trkpt>
      <trkpt lat="42.48214694671333" lon="-8.70587445795536">
        <ele>531.1</ele>
        <time>2022-05-01T09:13:48.275Z</time>
      </trkpt>
      <trkpt lat="42.48181024566293" lon="-8.706275699660182">
        <ele>526.0</ele>
        <time>2022-05-01T09:13:54.874Z</time>
      </trkpt>
      <trkpt lat="42.4814473092556" lon="-8.70645347982645">
        <ele>526.3</ele>
        <time>2022-05-01T09:14:00.287Z</time>
      </trkpt>
      <trkpt lat="42.48098035342991" lon="-8.70656386949122">
        <ele>524.1</ele>
        <time>2022-05-01T09:14:07.166Z</time>
      </trkpt>
      <trkpt lat="42.48069201596081" lon="-8.706419700756669">
        <ele>522.9</ele>
        <time>2022-05-01T09:14:11.878Z</time>
      </trkpt>
      <trkpt lat="42.48037090525031" lon="-8.705941010266542">
        <ele>522.9</ele>
        <time>2022-05-01T09:14:19.480Z</time>
      </trkpt>
      <trkpt lat="42.479808647185564" lon="-8.705213544890285">
        <ele>522.0</ele>
        <time>2022-05-01T09:14:32.265Z</time>
      </trkpt>
      <trkpt lat="42.479332806542516" lon="-8.704404439777136">
        <ele>518.5</ele>
        <time>2022-05-01T09:14:45.093Z</time>
      </trkpt>
      <trkpt lat="42.47890482656658" lon="-8.703692816197872">
        <ele>516.2</ele>
        <time>2022-05-01T09:14:56.046Z</time>
      </trkpt>
      <trkpt lat="42.478592433035374" lon="-8.70328864082694">
        <ele>513.0</ele>
        <time>2022-05-01T09:15:02.101Z</time>
      </trkpt>
      <trkpt lat="42.47828188352287" lon="-8.703068448230624">
        <ele>510.7</ele>
        <time>2022-05-01T09:15:07.373Z</time>
      </trkpt>
      <trkpt lat="42.47794099152088" lon="-8.702899720519781">
        <ele>509.8</ele>
        <time>2022-05-01T09:15:13.022Z</time>
      </trkpt>
      <trkpt lat="42.47780445031822" lon="-8.702920423820615">
        <ele>508.8</ele>
        <time>2022-05-01T09:15:15.294Z</time>
      </trkpt>
      <trkpt lat="42.47772683389485" lon="-8.7030765786767">
        <ele>507.9</ele>
        <time>2022-05-01T09:15:17.720Z</time>
      </trkpt>
      <trkpt lat="42.47785943560302" lon="-8.703330969437957">
        <ele>505.7</ele>
        <time>2022-05-01T09:15:21.934Z</time>
      </trkpt>
      <trkpt lat="42.477958258241415" lon="-8.704114090651274">
        <ele>501.3</ele>
        <time>2022-05-01T09:15:33.164Z</time>
      </trkpt>
      <trkpt lat="42.477992959320545" lon="-8.705477574840188">
        <ele>488.3</ele>
        <time>2022-05-01T09:15:51.768Z</time>
      </trkpt>
      <trkpt lat="42.477994887158275" lon="-8.706083921715617">
        <ele>483.4</ele>
        <time>2022-05-01T09:15:59.979Z</time>
      </trkpt>
      <trkpt lat="42.47789287939668" lon="-8.70662304572761">
        <ele>480.5</ele>
        <time>2022-05-01T09:16:06.317Z</time>
      </trkpt>
      <trkpt lat="42.47770965099335" lon="-8.706950526684523">
        <ele>477.5</ele>
        <time>2022-05-01T09:16:10.984Z</time>
      </trkpt>
      <trkpt lat="42.4774307012558" lon="-8.707082960754633">
        <ele>474.7</ele>
        <time>2022-05-01T09:16:15.583Z</time>
      </trkpt>
      <trkpt lat="42.47721595689654" lon="-8.707057731226087">
        <ele>473.6</ele>
        <time>2022-05-01T09:16:18.932Z</time>
      </trkpt>
      <trkpt lat="42.4770781584084" lon="-8.707096623256803">
        <ele>472.2</ele>
        <time>2022-05-01T09:16:21.256Z</time>
      </trkpt>
      <trkpt lat="42.47714705765247" lon="-8.707288401201367">
        <ele>469.1</ele>
        <time>2022-05-01T09:16:24.001Z</time>
      </trkpt>
      <trkpt lat="42.47650684788823" lon="-8.707360066473484">
        <ele>467.1</ele>
        <time>2022-05-01T09:16:34.870Z</time>
      </trkpt>
      <trkpt lat="42.47598968446255" lon="-8.70733441784978">
        <ele>467.7</ele>
        <time>2022-05-01T09:16:43.428Z</time>
      </trkpt>
      <trkpt lat="42.47541359625757" lon="-8.707248251885176">
        <ele>466.6</ele>
        <time>2022-05-01T09:16:53.364Z</time>
      </trkpt>
      <trkpt lat="42.4750423617661" lon="-8.70713115669787">
        <ele>465.0</ele>
        <time>2022-05-01T09:17:00.216Z</time>
      </trkpt>
      <trkpt lat="42.47483566403389" lon="-8.706978186964989">
        <ele>465.4</ele>
        <time>2022-05-01T09:17:04.647Z</time>
      </trkpt>
      <trkpt lat="42.47460105456412" lon="-8.706840388476849">
        <ele>466.0</ele>
        <time>2022-05-01T09:17:09.540Z</time>
      </trkpt>
      <trkpt lat="42.47428648173809" lon="-8.70689520612359">
        <ele>467.1</ele>
        <time>2022-05-01T09:17:15.682Z</time>
      </trkpt>
      <trkpt lat="42.47390418313444" lon="-8.70716250501573">
        <ele>463.1</ele>
        <time>2022-05-01T09:17:24.287Z</time>
      </trkpt>
      <trkpt lat="42.47346882708371" lon="-8.707203157246113">
        <ele>462.6</ele>
        <time>2022-05-01T09:17:32.825Z</time>
      </trkpt>
      <trkpt lat="42.47295870445669" lon="-8.707143142819405">
        <ele>463.0</ele>
        <time>2022-05-01T09:17:43.015Z</time>
      </trkpt>
      <trkpt lat="42.47273297980428" lon="-8.707234002649784">
        <ele>462.6</ele>
        <time>2022-05-01T09:17:47.864Z</time>
      </trkpt>
      <trkpt lat="42.472703978419304" lon="-8.707317989319563">
        <ele>462.1</ele>
        <time>2022-05-01T09:17:49.352Z</time>
      </trkpt>
      <trkpt lat="42.47264597564936" lon="-8.707479005679488">
        <ele>461.8</ele>
        <time>2022-05-01T09:17:52.323Z</time>
      </trkpt>
      <trkpt lat="42.47261404059827" lon="-8.707555029541254">
        <ele>461.9</ele>
        <time>2022-05-01T09:17:53.889Z</time>
      </trkpt>
      <trkpt lat="42.4725800100714" lon="-8.707626024261117">
        <ele>462.1</ele>
        <time>2022-05-01T09:17:55.557Z</time>
      </trkpt>
      <trkpt lat="42.47254597954452" lon="-8.707695007324219">
        <ele>462.0</ele>
        <time>2022-05-01T09:17:57.415Z</time>
      </trkpt>
      <trkpt lat="42.4724830314517" lon="-8.70782501064241">
        <ele>462.0</ele>
        <time>2022-05-01T09:18:01.276Z</time>
      </trkpt>
      <trkpt lat="42.47234799899161" lon="-8.708045035600662">
        <ele>463.0</ele>
        <time>2022-05-01T09:18:09.279Z</time>
      </trkpt>
      <trkpt lat="42.47219603508711" lon="-8.708258019760251">
        <ele>465.3</ele>
        <time>2022-05-01T09:18:17.466Z</time>
      </trkpt>
      <trkpt lat="42.472169967368245" lon="-8.708303030580282">
        <ele>465.9</ele>
        <time>2022-05-01T09:18:19.248Z</time>
      </trkpt>
      <trkpt lat="42.47207600623369" lon="-8.70844803750515">
        <ele>468.4</ele>
        <time>2022-05-01T09:18:25.664Z</time>
      </trkpt>
      <trkpt lat="42.47201096266508" lon="-8.708526995033026">
        <ele>470.1</ele>
        <time>2022-05-01T09:18:30.153Z</time>
      </trkpt>
      <trkpt lat="42.47198397293687" lon="-8.708552978932858">
        <ele>470.8</ele>
        <time>2022-05-01T09:18:31.954Z</time>
      </trkpt>
      <trkpt lat="42.471951032057405" lon="-8.708590026944876">
        <ele>471.6</ele>
        <time>2022-05-01T09:18:34.193Z</time>
      </trkpt>
      <trkpt lat="42.47191599570215" lon="-8.70862003415823">
        <ele>472.5</ele>
        <time>2022-05-01T09:18:36.424Z</time>
      </trkpt>
      <trkpt lat="42.471888000145555" lon="-8.7086440064013">
        <ele>473.1</ele>
        <time>2022-05-01T09:18:38.387Z</time>
      </trkpt>
      <trkpt lat="42.4718579929322" lon="-8.708667978644371">
        <ele>473.8</ele>
        <time>2022-05-01T09:18:40.112Z</time>
      </trkpt>
      <trkpt lat="42.47183502651751" lon="-8.708704020828009">
        <ele>474.6</ele>
        <time>2022-05-01T09:18:41.965Z</time>
      </trkpt>
      <trkpt lat="42.471824968233705" lon="-8.708715001121163">
        <ele>474.9</ele>
        <time>2022-05-01T09:18:42.552Z</time>
      </trkpt>
      <trkpt lat="42.47179496102035" lon="-8.708733022212982">
        <ele>475.5</ele>
        <time>2022-05-01T09:18:43.890Z</time>
      </trkpt>
      <trkpt lat="42.47176503762603" lon="-8.708739979192615">
        <ele>476.0</ele>
        <time>2022-05-01T09:18:45.027Z</time>
      </trkpt>
      <trkpt lat="42.47171399183571" lon="-8.708758000284433">
        <ele>476.8</ele>
        <time>2022-05-01T09:18:46.875Z</time>
      </trkpt>
      <trkpt lat="42.471697982400656" lon="-8.708766968920827">
        <ele>477.1</ele>
        <time>2022-05-01T09:18:47.556Z</time>
      </trkpt>
      <trkpt lat="42.47166504152119" lon="-8.708782978355885">
        <ele>477.6</ele>
        <time>2022-05-01T09:18:48.830Z</time>
      </trkpt>
      <trkpt lat="42.471650037914515" lon="-8.70879102498293">
        <ele>477.9</ele>
        <time>2022-05-01T09:18:49.382Z</time>
      </trkpt>
      <trkpt lat="42.471611984074116" lon="-8.708845004439354">
        <ele>478.9</ele>
        <time>2022-05-01T09:18:51.354Z</time>
      </trkpt>
      <trkpt lat="42.47147100046277" lon="-8.7088340241462">
        <ele>480.2</ele>
        <time>2022-05-01T09:18:56.127Z</time>
      </trkpt>
      <trkpt lat="42.47139003127813" lon="-8.708860008046031">
        <ele>481.1</ele>
        <time>2022-05-01T09:18:58.940Z</time>
      </trkpt>
      <trkpt lat="42.47135600075126" lon="-8.708884986117482">
        <ele>481.6</ele>
        <time>2022-05-01T09:19:00.348Z</time>
      </trkpt>
      <trkpt lat="42.47129498049617" lon="-8.708919016644359">
        <ele>482.3</ele>
        <time>2022-05-01T09:19:02.606Z</time>
      </trkpt>
      <trkpt lat="42.47126396745443" lon="-8.708937037736177">
        <ele>482.6</ele>
        <time>2022-05-01T09:19:03.704Z</time>
      </trkpt>
      <trkpt lat="42.471244018524885" lon="-8.708979031071067">
        <ele>483.2</ele>
        <time>2022-05-01T09:19:04.989Z</time>
      </trkpt>
      <trkpt lat="42.471248963847756" lon="-8.708994034677744">
        <ele>483.3</ele>
        <time>2022-05-01T09:19:05.389Z</time>
      </trkpt>
      <trkpt lat="42.471289029344916" lon="-8.709033010527492">
        <ele>483.5</ele>
        <time>2022-05-01T09:19:07.047Z</time>
      </trkpt>
      <trkpt lat="42.47130202129483" lon="-8.709048014134169">
        <ele>483.6</ele>
        <time>2022-05-01T09:19:07.595Z</time>
      </trkpt>
      <trkpt lat="42.47132398188114" lon="-8.709089001640677">
        <ele>483.9</ele>
        <time>2022-05-01T09:19:08.846Z</time>
      </trkpt>
      <trkpt lat="42.471332028508186" lon="-8.709110962226987">
        <ele>484.1</ele>
        <time>2022-05-01T09:19:09.425Z</time>
      </trkpt>
      <trkpt lat="42.471351977437735" lon="-8.709149016067386">
        <ele>484.4</ele>
        <time>2022-05-01T09:19:10.487Z</time>
      </trkpt>
      <trkpt lat="42.471395982429385" lon="-8.709250018000603">
        <ele>485.3</ele>
        <time>2022-05-01T09:19:13.078Z</time>
      </trkpt>
      <trkpt lat="42.47140503488481" lon="-8.709269966930151">
        <ele>485.5</ele>
        <time>2022-05-01T09:19:13.582Z</time>
      </trkpt>
      <trkpt lat="42.471415009349585" lon="-8.70928798802197">
        <ele>485.7</ele>
        <time>2022-05-01T09:19:14.057Z</time>
      </trkpt>
      <trkpt lat="42.47144602239132" lon="-8.709357976913452">
        <ele>486.3</ele>
        <time>2022-05-01T09:19:15.750Z</time>
      </trkpt>
      <trkpt lat="42.47145398519933" lon="-8.709382032975554">
        <ele>486.6</ele>
        <time>2022-05-01T09:19:16.360Z</time>
      </trkpt>
      <trkpt lat="42.471480974927545" lon="-8.709455961361527">
        <ele>487.3</ele>
        <time>2022-05-01T09:19:18.208Z</time>
      </trkpt>
      <trkpt lat="42.47149002738297" lon="-8.709488986060023">
        <ele>487.6</ele>
        <time>2022-05-01T09:19:18.975Z</time>
      </trkpt>
      <trkpt lat="42.471526991575956" lon="-8.70963198132813">
        <ele>488.9</ele>
        <time>2022-05-01T09:19:22.382Z</time>
      </trkpt>
      <trkpt lat="42.471544006839395" lon="-8.70973700657487">
        <ele>489.6</ele>
        <time>2022-05-01T09:19:25.012Z</time>
      </trkpt>
      <trkpt lat="42.4715490359813" lon="-8.709772964939475">
        <ele>489.9</ele>
        <time>2022-05-01T09:19:25.958Z</time>
      </trkpt>
      <trkpt lat="42.47157501988113" lon="-8.709962982684374">
        <ele>490.7</ele>
        <time>2022-05-01T09:19:31.476Z</time>
      </trkpt>
      <trkpt lat="42.47160796076059" lon="-8.710159035399556">
        <ele>491.0</ele>
        <time>2022-05-01T09:19:37.972Z</time>
      </trkpt>
      <trkpt lat="42.47161399573088" lon="-8.710200022906065">
        <ele>491.1</ele>
        <time>2022-05-01T09:19:39.449Z</time>
      </trkpt>
      <trkpt lat="42.47165095992386" lon="-8.710559019818902">
        <ele>491.6</ele>
        <time>2022-05-01T09:19:52.299Z</time>
      </trkpt>
      <trkpt lat="42.47165699489415" lon="-8.710904018953443">
        <ele>491.4</ele>
        <time>2022-05-01T09:20:03.628Z</time>
      </trkpt>
      <trkpt lat="42.471652971580625" lon="-8.710953975096345">
        <ele>491.3</ele>
        <time>2022-05-01T09:20:05.169Z</time>
      </trkpt>
      <trkpt lat="42.471588011831045" lon="-8.711215993389487">
        <ele>491.3</ele>
        <time>2022-05-01T09:20:12.945Z</time>
      </trkpt>
      <trkpt lat="42.47156102210283" lon="-8.711337028071284">
        <ele>491.4</ele>
        <time>2022-05-01T09:20:16.259Z</time>
      </trkpt>
      <trkpt lat="42.4715300090611" lon="-8.711526039987803">
        <ele>491.7</ele>
        <time>2022-05-01T09:20:21.072Z</time>
      </trkpt>
      <trkpt lat="42.471522968262434" lon="-8.711589993909001">
        <ele>491.9</ele>
        <time>2022-05-01T09:20:22.606Z</time>
      </trkpt>
      <trkpt lat="42.471520034596324" lon="-8.71165101416409">
        <ele>492.0</ele>
        <time>2022-05-01T09:20:24.024Z</time>
      </trkpt>
      <trkpt lat="42.47153101488948" lon="-8.711776994168758">
        <ele>492.0</ele>
        <time>2022-05-01T09:20:26.870Z</time>
      </trkpt>
      <trkpt lat="42.47155800461769" lon="-8.711900040507317">
        <ele>491.7</ele>
        <time>2022-05-01T09:20:29.671Z</time>
      </trkpt>
      <trkpt lat="42.47160502709448" lon="-8.71214596554637">
        <ele>491.5</ele>
        <time>2022-05-01T09:20:35.189Z</time>
      </trkpt>
      <trkpt lat="42.47162598185241" lon="-8.712332965806127">
        <ele>491.5</ele>
        <time>2022-05-01T09:20:39.228Z</time>
      </trkpt>
      <trkpt lat="42.47162003070116" lon="-8.712520971894264">
        <ele>491.9</ele>
        <time>2022-05-01T09:20:43.172Z</time>
      </trkpt>
      <trkpt lat="42.471587006002665" lon="-8.712688023224473">
        <ele>492.5</ele>
        <time>2022-05-01T09:20:46.743Z</time>
      </trkpt>
      <trkpt lat="42.471547024324536" lon="-8.71283202432096">
        <ele>493.3</ele>
        <time>2022-05-01T09:20:49.919Z</time>
      </trkpt>
      <trkpt lat="42.471458008512855" lon="-8.713123966008425">
        <ele>494.3</ele>
        <time>2022-05-01T09:20:56.400Z</time>
      </trkpt>
      <trkpt lat="42.47144401073456" lon="-8.7131770234555">
        <ele>494.3</ele>
        <time>2022-05-01T09:20:57.541Z</time>
      </trkpt>
      <trkpt lat="42.471414003521204" lon="-8.713332004845142">
        <ele>494.4</ele>
        <time>2022-05-01T09:21:00.748Z</time>
      </trkpt>
      <trkpt lat="42.471375027671456" lon="-8.713427977636456">
        <ele>494.4</ele>
        <time>2022-05-01T09:21:02.933Z</time>
      </trkpt>
      <trkpt lat="42.471245024353266" lon="-8.713827040046453">
        <ele>494.3</ele>
        <time>2022-05-01T09:21:11.605Z</time>
      </trkpt>
      <trkpt lat="42.471182998269796" lon="-8.714071037247777">
        <ele>493.9</ele>
        <time>2022-05-01T09:21:16.390Z</time>
      </trkpt>
      <trkpt lat="42.47115097939968" lon="-8.71418603695929">
        <ele>493.7</ele>
        <time>2022-05-01T09:21:18.676Z</time>
      </trkpt>
      <trkpt lat="42.47109096497297" lon="-8.714428022503853">
        <ele>493.2</ele>
        <time>2022-05-01T09:21:23.135Z</time>
      </trkpt>
      <trkpt lat="42.471072021871805" lon="-8.71455098502338">
        <ele>493.0</ele>
        <time>2022-05-01T09:21:25.185Z</time>
      </trkpt>
      <trkpt lat="42.470990968868136" lon="-8.715035039931536">
        <ele>491.5</ele>
        <time>2022-05-01T09:21:32.847Z</time>
      </trkpt>
      <trkpt lat="42.47097697108984" lon="-8.715104022994637">
        <ele>491.1</ele>
        <time>2022-05-01T09:21:33.982Z</time>
      </trkpt>
      <trkpt lat="42.47095903381705" lon="-8.7151750177145">
        <ele>490.7</ele>
        <time>2022-05-01T09:21:35.120Z</time>
      </trkpt>
      <trkpt lat="42.47090597636998" lon="-8.715381966903806">
        <ele>490.4</ele>
        <time>2022-05-01T09:21:38.210Z</time>
      </trkpt>
      <trkpt lat="42.47086398303509" lon="-8.715521022677422">
        <ele>489.9</ele>
        <time>2022-05-01T09:21:40.353Z</time>
      </trkpt>
      <trkpt lat="42.47080204077065" lon="-8.715644991025329">
        <ele>489.3</ele>
        <time>2022-05-01T09:21:42.415Z</time>
      </trkpt>
      <trkpt lat="42.470769016072154" lon="-8.715703999623656">
        <ele>489.1</ele>
        <time>2022-05-01T09:21:43.398Z</time>
      </trkpt>
      <trkpt lat="42.47069198638201" lon="-8.715889994055033">
        <ele>488.2</ele>
        <time>2022-05-01T09:21:46.210Z</time>
      </trkpt>
      <trkpt lat="42.47069098055363" lon="-8.715958977118134">
        <ele>488.0</ele>
        <time>2022-05-01T09:21:47.162Z</time>
      </trkpt>
      <trkpt lat="42.47075501829386" lon="-8.716153018176556">
        <ele>487.3</ele>
        <time>2022-05-01T09:21:50.146Z</time>
      </trkpt>
      <trkpt lat="42.4707889650017" lon="-8.716212026774883">
        <ele>487.1</ele>
        <time>2022-05-01T09:21:51.238Z</time>
      </trkpt>
      <trkpt lat="42.47085199691355" lon="-8.716331971809268">
        <ele>486.6</ele>
        <time>2022-05-01T09:21:53.184Z</time>
      </trkpt>
      <trkpt lat="42.47090698219836" lon="-8.716468010097742">
        <ele>486.1</ele>
        <time>2022-05-01T09:21:55.273Z</time>
      </trkpt>
      <trkpt lat="42.47091704048216" lon="-8.716546967625618">
        <ele>485.7</ele>
        <time>2022-05-01T09:21:56.400Z</time>
      </trkpt>
      <trkpt lat="42.47090698219836" lon="-8.716627014800906">
        <ele>485.2</ele>
        <time>2022-05-01T09:21:57.514Z</time>
      </trkpt>
      <trkpt lat="42.47085400857031" lon="-8.716772021725774">
        <ele>484.1</ele>
        <time>2022-05-01T09:21:59.649Z</time>
      </trkpt>
      <trkpt lat="42.4707889650017" lon="-8.716933960095048">
        <ele>483.0</ele>
        <time>2022-05-01T09:22:01.928Z</time>
      </trkpt>
      <trkpt lat="42.47071897611022" lon="-8.717105034738779">
        <ele>482.0</ele>
        <time>2022-05-01T09:22:04.402Z</time>
      </trkpt>
      <trkpt lat="42.470687963068485" lon="-8.717198995873332">
        <ele>481.5</ele>
        <time>2022-05-01T09:22:05.609Z</time>
      </trkpt>
      <trkpt lat="42.47058997862041" lon="-8.717489009723067">
        <ele>480.4</ele>
        <time>2022-05-01T09:22:09.257Z</time>
      </trkpt>
      <trkpt lat="42.470494005829096" lon="-8.717771982774138">
        <ele>479.5</ele>
        <time>2022-05-01T09:22:12.686Z</time>
      </trkpt>
      <trkpt lat="42.470428962260485" lon="-8.717955965548754">
        <ele>478.8</ele>
        <time>2022-05-01T09:22:14.877Z</time>
      </trkpt>
      <trkpt lat="42.47036903165281" lon="-8.71813902631402">
        <ele>478.2</ele>
        <time>2022-05-01T09:22:17.107Z</time>
      </trkpt>
      <trkpt lat="42.47030801139772" lon="-8.718326026573777">
        <ele>477.6</ele>
        <time>2022-05-01T09:22:19.097Z</time>
      </trkpt>
      <trkpt lat="42.470232993364334" lon="-8.718518977984786">
        <ele>476.5</ele>
        <time>2022-05-01T09:22:21.323Z</time>
      </trkpt>
      <trkpt lat="42.47005697339773" lon="-8.718904964625835">
        <ele>474.0</ele>
        <time>2022-05-01T09:22:25.928Z</time>
      </trkpt>
      <trkpt lat="42.46989796869457" lon="-8.719220962375402">
        <ele>472.1</ele>
        <time>2022-05-01T09:22:29.929Z</time>
      </trkpt>
      <trkpt lat="42.469840971753" lon="-8.719320958480239">
        <ele>471.9</ele>
        <time>2022-05-01T09:22:31.345Z</time>
      </trkpt>
      <trkpt lat="42.46979000978172" lon="-8.719417015090585">
        <ele>471.9</ele>
        <time>2022-05-01T09:22:32.629Z</time>
      </trkpt>
      <trkpt lat="42.46971499174833" lon="-8.71960200369358">
        <ele>472.3</ele>
        <time>2022-05-01T09:22:35.021Z</time>
      </trkpt>
      <trkpt lat="42.469698982313275" lon="-8.71968699619174">
        <ele>472.4</ele>
        <time>2022-05-01T09:22:36.028Z</time>
      </trkpt>
      <trkpt lat="42.46969303116202" lon="-8.719770982861519">
        <ele>472.4</ele>
        <time>2022-05-01T09:22:37.008Z</time>
      </trkpt>
      <trkpt lat="42.46970199979842" lon="-8.719938034191728">
        <ele>471.9</ele>
        <time>2022-05-01T09:22:39.028Z</time>
      </trkpt>
      <trkpt lat="42.4697080347687" lon="-8.720025038346648">
        <ele>471.6</ele>
        <time>2022-05-01T09:22:40.088Z</time>
      </trkpt>
      <trkpt lat="42.46970996260643" lon="-8.720112964510918">
        <ele>471.4</ele>
        <time>2022-05-01T09:22:41.174Z</time>
      </trkpt>
      <trkpt lat="42.46970904059708" lon="-8.720300970599055">
        <ele>471.1</ele>
        <time>2022-05-01T09:22:43.562Z</time>
      </trkpt>
      <trkpt lat="42.46971298009157" lon="-8.720612023025751">
        <ele>469.7</ele>
        <time>2022-05-01T09:22:47.398Z</time>
      </trkpt>
      <trkpt lat="42.469715997576714" lon="-8.720839004963636">
        <ele>468.4</ele>
        <time>2022-05-01T09:22:50.269Z</time>
      </trkpt>
      <trkpt lat="42.46970401145518" lon="-8.720958027988672">
        <ele>468.0</ele>
        <time>2022-05-01T09:22:51.674Z</time>
      </trkpt>
      <trkpt lat="42.46968498453498" lon="-8.721078978851438">
        <ele>467.5</ele>
        <time>2022-05-01T09:22:53.147Z</time>
      </trkpt>
      <trkpt lat="42.46966402977705" lon="-8.721196996048093">
        <ele>467.0</ele>
        <time>2022-05-01T09:22:54.465Z</time>
      </trkpt>
      <trkpt lat="42.4696060270071" lon="-8.721434036269784">
        <ele>465.8</ele>
        <time>2022-05-01T09:22:57.081Z</time>
      </trkpt>
      <trkpt lat="42.469567973166704" lon="-8.721547024324536">
        <ele>464.9</ele>
        <time>2022-05-01T09:22:58.393Z</time>
      </trkpt>
      <trkpt lat="42.469521034508944" lon="-8.721652971580625">
        <ele>464.1</ele>
        <time>2022-05-01T09:22:59.677Z</time>
      </trkpt>
      <trkpt lat="42.46946998871863" lon="-8.721756990998983">
        <ele>463.3</ele>
        <time>2022-05-01T09:23:00.969Z</time>
      </trkpt>
      <trkpt lat="42.46937803924084" lon="-8.721981039270759">
        <ele>461.6</ele>
        <time>2022-05-01T09:23:03.548Z</time>
      </trkpt>
      <trkpt lat="42.469306038692594" lon="-8.722226964309812">
        <ele>460.0</ele>
        <time>2022-05-01T09:23:05.943Z</time>
      </trkpt>
      <trkpt lat="42.46923403814435" lon="-8.722476996481419">
        <ele>458.2</ele>
        <time>2022-05-01T09:23:08.439Z</time>
      </trkpt>
      <trkpt lat="42.46915499679744" lon="-8.722706995904446">
        <ele>457.0</ele>
        <time>2022-05-01T09:23:10.732Z</time>
      </trkpt>
      <trkpt lat="42.46911099180579" lon="-8.722814032807946">
        <ele>456.4</ele>
        <time>2022-05-01T09:23:11.764Z</time>
      </trkpt>
      <trkpt lat="42.46906204149127" lon="-8.722912017256021">
        <ele>455.8</ele>
        <time>2022-05-01T09:23:12.773Z</time>
      </trkpt>
      <trkpt lat="42.46895399875939" lon="-8.723085019737482">
        <ele>454.5</ele>
        <time>2022-05-01T09:23:14.741Z</time>
      </trkpt>
      <trkpt lat="42.468903958797455" lon="-8.723171018064022">
        <ele>454.0</ele>
        <time>2022-05-01T09:23:15.696Z</time>
      </trkpt>
      <trkpt lat="42.46884897351265" lon="-8.723256010562181">
        <ele>453.4</ele>
        <time>2022-05-01T09:23:16.769Z</time>
      </trkpt>
      <trkpt lat="42.46873497962952" lon="-8.723428007215261">
        <ele>452.3</ele>
        <time>2022-05-01T09:23:18.789Z</time>
      </trkpt>
      <trkpt lat="42.46861402876675" lon="-8.72359799221158">
        <ele>451.0</ele>
        <time>2022-05-01T09:23:20.762Z</time>
      </trkpt>
      <trkpt lat="42.468555020168424" lon="-8.723689019680023">
        <ele>450.2</ele>
        <time>2022-05-01T09:23:21.707Z</time>
      </trkpt>
      <trkpt lat="42.46843499131501" lon="-8.723871996626258">
        <ele>448.4</ele>
        <time>2022-05-01T09:23:23.548Z</time>
      </trkpt>
      <trkpt lat="42.46832602657378" lon="-8.724051034078002">
        <ele>446.7</ele>
        <time>2022-05-01T09:23:25.347Z</time>
      </trkpt>
      <trkpt lat="42.468254026025534" lon="-8.724210038781166">
        <ele>445.0</ele>
        <time>2022-05-01T09:23:26.734Z</time>
      </trkpt>
      <trkpt lat="42.468195017427206" lon="-8.724298970773816">
        <ele>443.7</ele>
        <time>2022-05-01T09:23:27.645Z</time>
      </trkpt>
      <trkpt lat="42.46817599050701" lon="-8.724325960502028">
        <ele>443.4</ele>
        <time>2022-05-01T09:23:27.957Z</time>
      </trkpt>
      <trkpt lat="42.46815998107195" lon="-8.72434901073575">
        <ele>443.1</ele>
        <time>2022-05-01T09:23:28.205Z</time>
      </trkpt>
      <trkpt lat="42.4681400321424" lon="-8.724363008514047">
        <ele>442.9</ele>
        <time>2022-05-01T09:23:28.443Z</time>
      </trkpt>
      <trkpt lat="42.468084963038564" lon="-8.724376000463963">
        <ele>442.4</ele>
        <time>2022-05-01T09:23:29.066Z</time>
      </trkpt>
      <trkpt lat="42.46801597997546" lon="-8.724387986585498">
        <ele>441.8</ele>
        <time>2022-05-01T09:23:29.890Z</time>
      </trkpt>
      <trkpt lat="42.4679309874773" lon="-8.724396033212543">
        <ele>441.2</ele>
        <time>2022-05-01T09:23:30.910Z</time>
      </trkpt>
      <trkpt lat="42.467891005799174" lon="-8.72441103681922">
        <ele>440.8</ele>
        <time>2022-05-01T09:23:31.449Z</time>
      </trkpt>
      <trkpt lat="42.46779696084559" lon="-8.724440038204193">
        <ele>439.9</ele>
        <time>2022-05-01T09:23:32.732Z</time>
      </trkpt>
      <trkpt lat="42.467762008309364" lon="-8.724440960213542">
        <ele>439.7</ele>
        <time>2022-05-01T09:23:33.233Z</time>
      </trkpt>
      <trkpt lat="42.46766201220453" lon="-8.72445403598249">
        <ele>438.9</ele>
        <time>2022-05-01T09:23:34.775Z</time>
      </trkpt>
      <trkpt lat="42.467633010819554" lon="-8.724483037367463">
        <ele>438.4</ele>
        <time>2022-05-01T09:23:35.308Z</time>
      </trkpt>
      <trkpt lat="42.46757903136313" lon="-8.724566018208861">
        <ele>437.3</ele>
        <time>2022-05-01T09:23:36.604Z</time>
      </trkpt>
      <trkpt lat="42.467509964480996" lon="-8.724619997665286">
        <ele>436.4</ele>
        <time>2022-05-01T09:23:37.926Z</time>
      </trkpt>
      <trkpt lat="42.467482974752784" lon="-8.724639024585485">
        <ele>436.1</ele>
        <time>2022-05-01T09:23:38.459Z</time>
      </trkpt>
      <trkpt lat="42.46742597781122" lon="-8.724710019305348">
        <ele>435.6</ele>
        <time>2022-05-01T09:23:39.878Z</time>
      </trkpt>
      <trkpt lat="42.46739203110337" lon="-8.724769027903676">
        <ele>435.3</ele>
        <time>2022-05-01T09:23:40.955Z</time>
      </trkpt>
      <trkpt lat="42.46735196560621" lon="-8.72482200153172">
        <ele>435.0</ele>
        <time>2022-05-01T09:23:42.076Z</time>
      </trkpt>
      <trkpt lat="42.46730200946331" lon="-8.72484396211803">
        <ele>434.8</ele>
        <time>2022-05-01T09:23:43.164Z</time>
      </trkpt>
      <trkpt lat="42.46721098199487" lon="-8.724781014025211">
        <ele>435.5</ele>
        <time>2022-05-01T09:23:45.358Z</time>
      </trkpt>
      <trkpt lat="42.46712699532509" lon="-8.724711025133729">
        <ele>436.5</ele>
        <time>2022-05-01T09:23:47.554Z</time>
      </trkpt>
      <trkpt lat="42.46700000949204" lon="-8.724701972678304">
        <ele>438.0</ele>
        <time>2022-05-01T09:23:50.561Z</time>
      </trkpt>
      <trkpt lat="42.46687696315348" lon="-8.724753018468618">
        <ele>439.8</ele>
        <time>2022-05-01T09:23:53.911Z</time>
      </trkpt>
      <trkpt lat="42.466837987303734" lon="-8.724776990711689">
        <ele>440.5</ele>
        <time>2022-05-01T09:23:55.119Z</time>
      </trkpt>
      <trkpt lat="42.466777972877026" lon="-8.724811021238565">
        <ele>441.5</ele>
        <time>2022-05-01T09:23:56.944Z</time>
      </trkpt>
      <trkpt lat="42.466756012290716" lon="-8.724819989874959">
        <ele>441.8</ele>
        <time>2022-05-01T09:23:57.686Z</time>
      </trkpt>
      <trkpt lat="42.466734973713756" lon="-8.724825019016862">
        <ele>442.1</ele>
        <time>2022-05-01T09:23:58.350Z</time>
      </trkpt>
      <trkpt lat="42.466646963730454" lon="-8.72484597377479">
        <ele>443.4</ele>
        <time>2022-05-01T09:24:01.253Z</time>
      </trkpt>
      <trkpt lat="42.46657798066735" lon="-8.724867012351751">
        <ele>444.3</ele>
        <time>2022-05-01T09:24:03.858Z</time>
      </trkpt>
      <trkpt lat="42.46650296263397" lon="-8.724897019565105">
        <ele>445.5</ele>
        <time>2022-05-01T09:24:06.888Z</time>
      </trkpt>
      <trkpt lat="42.46647999621928" lon="-8.72490699402988">
        <ele>445.9</ele>
        <time>2022-05-01T09:24:07.929Z</time>
      </trkpt>
      <trkpt lat="42.46643900871277" lon="-8.72492702677846">
        <ele>446.6</ele>
        <time>2022-05-01T09:24:09.900Z</time>
      </trkpt>
      <trkpt lat="42.46637497097254" lon="-8.724954016506672">
        <ele>447.5</ele>
        <time>2022-05-01T09:24:12.920Z</time>
      </trkpt>
      <trkpt lat="42.466288972646" lon="-8.724984023720026">
        <ele>448.8</ele>
        <time>2022-05-01T09:24:17.024Z</time>
      </trkpt>
      <trkpt lat="42.46624396182597" lon="-8.725001960992813">
        <ele>449.5</ele>
        <time>2022-05-01T09:24:19.412Z</time>
      </trkpt>
      <trkpt lat="42.46618503704667" lon="-8.725032974034548">
        <ele>450.3</ele>
        <time>2022-05-01T09:24:22.214Z</time>
      </trkpt>
      <trkpt lat="42.46612401679158" lon="-8.72505996376276">
        <ele>451.2</ele>
        <time>2022-05-01T09:24:25.044Z</time>
      </trkpt>
      <trkpt lat="42.46610498987138" lon="-8.725067004561424">
        <ele>451.5</ele>
        <time>2022-05-01T09:24:25.828Z</time>
      </trkpt>
      <trkpt lat="42.46606299653649" lon="-8.72507999651134">
        <ele>451.9</ele>
        <time>2022-05-01T09:24:27.551Z</time>
      </trkpt>
      <trkpt lat="42.46599703095853" lon="-8.725104974582791">
        <ele>452.6</ele>
        <time>2022-05-01T09:24:30.261Z</time>
      </trkpt>
      <trkpt lat="42.465894017368555" lon="-8.725133975967765">
        <ele>453.5</ele>
        <time>2022-05-01T09:24:34.501Z</time>
      </trkpt>
      <trkpt lat="42.46578396297991" lon="-8.725158032029867">
        <ele>453.9</ele>
        <time>2022-05-01T09:24:39.239Z</time>
      </trkpt>
      <trkpt lat="42.46576099656522" lon="-8.725149985402822">
        <ele>454.0</ele>
        <time>2022-05-01T09:24:40.390Z</time>
      </trkpt>
      <trkpt lat="42.465742975473404" lon="-8.725127018988132">
        <ele>454.2</ele>
        <time>2022-05-01T09:24:41.449Z</time>
      </trkpt>
      <trkpt lat="42.46563199907541" lon="-8.724955022335052">
        <ele>454.4</ele>
        <time>2022-05-01T09:24:48.555Z</time>
      </trkpt>
      <trkpt lat="42.465465031564236" lon="-8.724723011255264">
        <ele>454.5</ele>
        <time>2022-05-01T09:24:59.396Z</time>
      </trkpt>
      <trkpt lat="42.46539697051048" lon="-8.72465101070702">
        <ele>454.7</ele>
        <time>2022-05-01T09:25:03.452Z</time>
      </trkpt>
      <trkpt lat="42.46526001021266" lon="-8.724537016823888">
        <ele>455.4</ele>
        <time>2022-05-01T09:25:11.257Z</time>
      </trkpt>
      <trkpt lat="42.46508499607444" lon="-8.724410030990839">
        <ele>456.6</ele>
        <time>2022-05-01T09:25:20.327Z</time>
      </trkpt>
      <trkpt lat="42.46506102383137" lon="-8.724384969100356">
        <ele>456.9</ele>
        <time>2022-05-01T09:25:21.717Z</time>
      </trkpt>
      <trkpt lat="42.46499799191952" lon="-8.72426301240921">
        <ele>458.2</ele>
        <time>2022-05-01T09:25:26.508Z</time>
      </trkpt>
      <trkpt lat="42.46496303938329" lon="-8.72417600825429">
        <ele>459.2</ele>
        <time>2022-05-01T09:25:29.474Z</time>
      </trkpt>
      <trkpt lat="42.46494099497795" lon="-8.724096966907382">
        <ele>459.8</ele>
        <time>2022-05-01T09:25:31.926Z</time>
      </trkpt>
      <trkpt lat="42.46493403799832" lon="-8.72407198883593">
        <ele>460.0</ele>
        <time>2022-05-01T09:25:32.642Z</time>
      </trkpt>
      <trkpt lat="42.46490000747144" lon="-8.723993031308055">
        <ele>460.6</ele>
        <time>2022-05-01T09:25:34.952Z</time>
      </trkpt>
      <trkpt lat="42.464886009693146" lon="-8.723966963589191">
        <ele>460.8</ele>
        <time>2022-05-01T09:25:35.839Z</time>
      </trkpt>
      <trkpt lat="42.46484896168113" lon="-8.723890017718077">
        <ele>461.3</ele>
        <time>2022-05-01T09:25:38.206Z</time>
      </trkpt>
      <trkpt lat="42.4648330360651" lon="-8.723830003291368">
        <ele>461.5</ele>
        <time>2022-05-01T09:25:40.007Z</time>
      </trkpt>
      <trkpt lat="42.46482700109482" lon="-8.723793039098382">
        <ele>461.7</ele>
        <time>2022-05-01T09:25:41.132Z</time>
      </trkpt>
      <trkpt lat="42.46480302885175" lon="-8.72362095862627">
        <ele>462.0</ele>
        <time>2022-05-01T09:25:46.182Z</time>
      </trkpt>
      <trkpt lat="42.46479196473956" lon="-8.723579971119761">
        <ele>462.0</ele>
        <time>2022-05-01T09:25:47.348Z</time>
      </trkpt>
      <trkpt lat="42.4646570160985" lon="-8.72333999723196">
        <ele>462.1</ele>
        <time>2022-05-01T09:25:55.086Z</time>
      </trkpt>
      <trkpt lat="42.464475966989994" lon="-8.723162971436977">
        <ele>463.0</ele>
        <time>2022-05-01T09:26:03.013Z</time>
      </trkpt>
      <trkpt lat="42.46431604027748" lon="-8.723032968118787">
        <ele>464.4</ele>
        <time>2022-05-01T09:26:09.577Z</time>
      </trkpt>
      <trkpt lat="42.46423599310219" lon="-8.722982006147504">
        <ele>464.9</ele>
        <time>2022-05-01T09:26:13.015Z</time>
      </trkpt>
      <trkpt lat="42.46419098228216" lon="-8.72295300476253">
        <ele>465.1</ele>
        <time>2022-05-01T09:26:14.924Z</time>
      </trkpt>
      <trkpt lat="42.464090986177325" lon="-8.722893996164203">
        <ele>465.7</ele>
        <time>2022-05-01T09:26:19.377Z</time>
      </trkpt>
      <trkpt lat="42.46397799812257" lon="-8.722816966474056">
        <ele>466.4</ele>
        <time>2022-05-01T09:26:24.741Z</time>
      </trkpt>
      <trkpt lat="42.46379401534796" lon="-8.722732979804277">
        <ele>467.4</ele>
        <time>2022-05-01T09:26:32.918Z</time>
      </trkpt>
      <trkpt lat="42.46366501785815" lon="-8.722761981189251">
        <ele>467.9</ele>
        <time>2022-05-01T09:26:38.456Z</time>
      </trkpt>
      <trkpt lat="42.4634309951216" lon="-8.722792994230986">
        <ele>469.5</ele>
        <time>2022-05-01T09:26:49.206Z</time>
      </trkpt>
      <trkpt lat="42.4633979704231" lon="-8.72280196286738">
        <ele>469.7</ele>
        <time>2022-05-01T09:26:50.836Z</time>
      </trkpt>
      <trkpt lat="42.463254975154996" lon="-8.722857031971216">
        <ele>471.1</ele>
        <time>2022-05-01T09:26:58.046Z</time>
      </trkpt>
      <trkpt lat="42.463207030668855" lon="-8.72288796119392">
        <ele>471.5</ele>
        <time>2022-05-01T09:27:00.582Z</time>
      </trkpt>
      <trkpt lat="42.46311298571527" lon="-8.722955016419291">
        <ele>472.4</ele>
        <time>2022-05-01T09:27:05.302Z</time>
      </trkpt>
      <trkpt lat="42.46306596323848" lon="-8.722990974783897">
        <ele>472.9</ele>
        <time>2022-05-01T09:27:07.921Z</time>
      </trkpt>
      <trkpt lat="42.46301902458072" lon="-8.723020981997252">
        <ele>473.6</ele>
        <time>2022-05-01T09:27:10.141Z</time>
      </trkpt>
      <trkpt lat="42.46292296797037" lon="-8.723068004474044">
        <ele>475.0</ele>
        <time>2022-05-01T09:27:14.301Z</time>
      </trkpt>
      <trkpt lat="42.46282800100744" lon="-8.723112009465694">
        <ele>476.3</ele>
        <time>2022-05-01T09:27:18.149Z</time>
      </trkpt>
      <trkpt lat="42.4627969879657" lon="-8.723142016679049">
        <ele>476.6</ele>
        <time>2022-05-01T09:27:19.790Z</time>
      </trkpt>
      <trkpt lat="42.46271903626621" lon="-8.723178980872035">
        <ele>477.7</ele>
        <time>2022-05-01T09:27:23.018Z</time>
      </trkpt>
      <trkpt lat="42.46268098242581" lon="-8.723193984478712">
        <ele>478.2</ele>
        <time>2022-05-01T09:27:24.453Z</time>
      </trkpt>
      <trkpt lat="42.46266497299075" lon="-8.723204964771867">
        <ele>478.4</ele>
        <time>2022-05-01T09:27:25.064Z</time>
      </trkpt>
      <trkpt lat="42.462608981877565" lon="-8.72323203831911">
        <ele>478.9</ele>
        <time>2022-05-01T09:27:27.030Z</time>
      </trkpt>
      <trkpt lat="42.46255902573466" lon="-8.723235977813601">
        <ele>479.4</ele>
        <time>2022-05-01T09:27:28.757Z</time>
      </trkpt>
      <trkpt lat="42.462500017136335" lon="-8.723226003348827">
        <ele>480.0</ele>
        <time>2022-05-01T09:27:30.918Z</time>
      </trkpt>
      <trkpt lat="42.46236498467624" lon="-8.723228015005589">
        <ele>480.8</ele>
        <time>2022-05-01T09:27:35.655Z</time>
      </trkpt>
      <trkpt lat="42.46221402660012" lon="-8.723281994462013">
        <ele>480.9</ele>
        <time>2022-05-01T09:27:41.064Z</time>
      </trkpt>
      <trkpt lat="42.46199903078377" lon="-8.723368998616934">
        <ele>480.8</ele>
        <time>2022-05-01T09:27:48.704Z</time>
      </trkpt>
      <trkpt lat="42.4619459733367" lon="-8.723385008051991">
        <ele>480.6</ele>
        <time>2022-05-01T09:27:50.521Z</time>
      </trkpt>
      <trkpt lat="42.46175696142018" lon="-8.723434964194894">
        <ele>479.3</ele>
        <time>2022-05-01T09:27:56.683Z</time>
      </trkpt>
      <trkpt lat="42.46164799667895" lon="-8.723443010821939">
        <ele>479.1</ele>
        <time>2022-05-01T09:27:59.963Z</time>
      </trkpt>
      <trkpt lat="42.46154800057411" lon="-8.723452985286713">
        <ele>479.0</ele>
        <time>2022-05-01T09:28:02.866Z</time>
      </trkpt>
      <trkpt lat="42.4612429831177" lon="-8.723480980843306">
        <ele>477.9</ele>
        <time>2022-05-01T09:28:11.314Z</time>
      </trkpt>
      <trkpt lat="42.46104399673641" lon="-8.723506964743137">
        <ele>478.0</ele>
        <time>2022-05-01T09:28:16.622Z</time>
      </trkpt>
      <trkpt lat="42.460993034765124" lon="-8.723546024411917">
        <ele>477.9</ele>
        <time>2022-05-01T09:28:18.167Z</time>
      </trkpt>
      <trkpt lat="42.4609149992466" lon="-8.723667981103063">
        <ele>477.3</ele>
        <time>2022-05-01T09:28:21.321Z</time>
      </trkpt>
      <trkpt lat="42.46083604171872" lon="-8.723788009956479">
        <ele>477.1</ele>
        <time>2022-05-01T09:28:24.421Z</time>
      </trkpt>
      <trkpt lat="42.46071903035045" lon="-8.723970986902714">
        <ele>477.7</ele>
        <time>2022-05-01T09:28:29.075Z</time>
      </trkpt>
      <trkpt lat="42.46065700426698" lon="-8.724081041291356">
        <ele>478.2</ele>
        <time>2022-05-01T09:28:31.733Z</time>
      </trkpt>
      <trkpt lat="42.46057100594044" lon="-8.72423904016614">
        <ele>478.7</ele>
        <time>2022-05-01T09:28:35.492Z</time>
      </trkpt>
      <trkpt lat="42.46051501482725" lon="-8.724346999078989">
        <ele>478.8</ele>
        <time>2022-05-01T09:28:38.015Z</time>
      </trkpt>
      <trkpt lat="42.46042700484395" lon="-8.724496029317379">
        <ele>479.4</ele>
        <time>2022-05-01T09:28:41.542Z</time>
      </trkpt>
      <trkpt lat="42.46035601012409" lon="-8.724579010158777">
        <ele>480.0</ele>
        <time>2022-05-01T09:28:43.799Z</time>
      </trkpt>
      <trkpt lat="42.46016800403595" lon="-8.724743966013193">
        <ele>479.9</ele>
        <time>2022-05-01T09:28:49.147Z</time>
      </trkpt>
      <trkpt lat="42.46004797518253" lon="-8.724860977381468">
        <ele>479.4</ele>
        <time>2022-05-01T09:28:52.215Z</time>
      </trkpt>
      <trkpt lat="42.459897017106414" lon="-8.724935995414853">
        <ele>478.4</ele>
        <time>2022-05-01T09:28:55.428Z</time>
      </trkpt>
      <trkpt lat="42.45974002406001" lon="-8.725005984306335">
        <ele>476.5</ele>
        <time>2022-05-01T09:28:58.092Z</time>
      </trkpt>
      <trkpt lat="42.4596800096333" lon="-8.725031968206167">
        <ele>475.7</ele>
        <time>2022-05-01T09:28:59.016Z</time>
      </trkpt>
      <trkpt lat="42.45961396023631" lon="-8.725071027874947">
        <ele>474.8</ele>
        <time>2022-05-01T09:28:59.947Z</time>
      </trkpt>
      <trkpt lat="42.459490997716784" lon="-8.725184015929699">
        <ele>473.0</ele>
        <time>2022-05-01T09:29:01.694Z</time>
      </trkpt>
      <trkpt lat="42.45930802077055" lon="-8.725344026461244">
        <ele>470.5</ele>
        <time>2022-05-01T09:29:04.364Z</time>
      </trkpt>
      <trkpt lat="42.45925999246538" lon="-8.725417032837868">
        <ele>469.5</ele>
        <time>2022-05-01T09:29:05.323Z</time>
      </trkpt>
      <trkpt lat="42.45922101661563" lon="-8.725502025336027">
        <ele>468.5</ele>
        <time>2022-05-01T09:29:06.287Z</time>
      </trkpt>
      <trkpt lat="42.45918698608875" lon="-8.725686008110642">
        <ele>466.5</ele>
        <time>2022-05-01T09:29:08.171Z</time>
      </trkpt>
      <trkpt lat="42.4591760057956" lon="-8.72576697729528">
        <ele>465.6</ele>
        <time>2022-05-01T09:29:09.051Z</time>
      </trkpt>
      <trkpt lat="42.45916100218892" lon="-8.725837972015142">
        <ele>464.9</ele>
        <time>2022-05-01T09:29:09.896Z</time>
      </trkpt>
      <trkpt lat="42.45910903438926" lon="-8.725941991433501">
        <ele>463.8</ele>
        <time>2022-05-01T09:29:11.325Z</time>
      </trkpt>
      <trkpt lat="42.45906603522599" lon="-8.725965963676572">
        <ele>463.7</ele>
        <time>2022-05-01T09:29:11.971Z</time>
      </trkpt>
      <trkpt lat="42.458975007757545" lon="-8.72595900669694">
        <ele>464.1</ele>
        <time>2022-05-01T09:29:13.247Z</time>
      </trkpt>
      <trkpt lat="42.458935026079416" lon="-8.725946014747024">
        <ele>464.3</ele>
        <time>2022-05-01T09:29:13.868Z</time>
      </trkpt>
      <trkpt lat="42.45889303274453" lon="-8.725932016968727">
        <ele>464.5</ele>
        <time>2022-05-01T09:29:14.564Z</time>
      </trkpt>
      <trkpt lat="42.458846010267735" lon="-8.725919025018811">
        <ele>464.7</ele>
        <time>2022-05-01T09:29:15.386Z</time>
      </trkpt>
      <trkpt lat="42.458739979192615" lon="-8.725899998098612">
        <ele>464.9</ele>
        <time>2022-05-01T09:29:17.284Z</time>
      </trkpt>
      <trkpt lat="42.45868801139295" lon="-8.72589798644185">
        <ele>465.1</ele>
        <time>2022-05-01T09:29:18.251Z</time>
      </trkpt>
      <trkpt lat="42.45833898894489" lon="-8.725876025855541">
        <ele>466.6</ele>
        <time>2022-05-01T09:29:24.924Z</time>
      </trkpt>
      <trkpt lat="42.45805903337896" lon="-8.72583202086389">
        <ele>467.7</ele>
        <time>2022-05-01T09:29:30.543Z</time>
      </trkpt>
      <trkpt lat="42.45797303505242" lon="-8.72583000920713">
        <ele>467.9</ele>
        <time>2022-05-01T09:29:32.338Z</time>
      </trkpt>
      <trkpt lat="42.45793498121202" lon="-8.725841995328665">
        <ele>467.9</ele>
        <time>2022-05-01T09:29:33.189Z</time>
      </trkpt>
      <trkpt lat="42.457902040332556" lon="-8.725867979228497">
        <ele>467.8</ele>
        <time>2022-05-01T09:29:34.038Z</time>
      </trkpt>
      <trkpt lat="42.457862980663776" lon="-8.726013991981745">
        <ele>467.0</ele>
        <time>2022-05-01T09:29:36.642Z</time>
      </trkpt>
      <trkpt lat="42.457883013412356" lon="-8.726124968379736">
        <ele>466.6</ele>
        <time>2022-05-01T09:29:38.589Z</time>
      </trkpt>
      <trkpt lat="42.45788703672588" lon="-8.726188000291586">
        <ele>466.3</ele>
        <time>2022-05-01T09:29:39.683Z</time>
      </trkpt>
      <trkpt lat="42.45788502506912" lon="-8.726253965869546">
        <ele>466.1</ele>
        <time>2022-05-01T09:29:40.839Z</time>
      </trkpt>
      <trkpt lat="42.45784303173423" lon="-8.72645697556436">
        <ele>465.8</ele>
        <time>2022-05-01T09:29:44.592Z</time>
      </trkpt>
      <trkpt lat="42.457815958186984" lon="-8.726523024961352">
        <ele>465.9</ele>
        <time>2022-05-01T09:29:45.949Z</time>
      </trkpt>
      <trkpt lat="42.457728032022715" lon="-8.726813038811088">
        <ele>466.3</ele>
        <time>2022-05-01T09:29:51.638Z</time>
      </trkpt>
      <trkpt lat="42.45770498178899" lon="-8.726879004389048">
        <ele>466.5</ele>
        <time>2022-05-01T09:29:52.992Z</time>
      </trkpt>
      <trkpt lat="42.4576960131526" lon="-8.726957039907575">
        <ele>466.4</ele>
        <time>2022-05-01T09:29:54.451Z</time>
      </trkpt>
      <trkpt lat="42.45766198262572" lon="-8.7272509932518">
        <ele>466.4</ele>
        <time>2022-05-01T09:29:59.987Z</time>
      </trkpt>
      <trkpt lat="42.45762803591788" lon="-8.727483004331589">
        <ele>466.9</ele>
        <time>2022-05-01T09:30:04.476Z</time>
      </trkpt>
      <trkpt lat="42.45763298124075" lon="-8.727642009034753">
        <ele>467.1</ele>
        <time>2022-05-01T09:30:07.494Z</time>
      </trkpt>
      <trkpt lat="42.45766097679734" lon="-8.7278710026294">
        <ele>468.4</ele>
        <time>2022-05-01T09:30:11.908Z</time>
      </trkpt>
      <trkpt lat="42.45767002925277" lon="-8.728012992069125">
        <ele>469.4</ele>
        <time>2022-05-01T09:30:14.615Z</time>
      </trkpt>
      <trkpt lat="42.45767103508115" lon="-8.728079963475466">
        <ele>469.9</ele>
        <time>2022-05-01T09:30:15.905Z</time>
      </trkpt>
      <trkpt lat="42.457646979019046" lon="-8.728340975940228">
        <ele>470.6</ele>
        <time>2022-05-01T09:30:20.962Z</time>
      </trkpt>
      <trkpt lat="42.45760699734092" lon="-8.728466033935547">
        <ele>470.2</ele>
        <time>2022-05-01T09:30:23.444Z</time>
      </trkpt>
      <trkpt lat="42.457561986520886" lon="-8.728607017546892">
        <ele>469.7</ele>
        <time>2022-05-01T09:30:26.172Z</time>
      </trkpt>
      <trkpt lat="42.45754203759134" lon="-8.728681029751897">
        <ele>469.3</ele>
        <time>2022-05-01T09:30:27.583Z</time>
      </trkpt>
      <trkpt lat="42.457493003457785" lon="-8.728849003091455">
        <ele>468.0</ele>
        <time>2022-05-01T09:30:30.711Z</time>
      </trkpt>
      <trkpt lat="42.45741396211088" lon="-8.729005996137857">
        <ele>466.5</ele>
        <time>2022-05-01T09:30:33.850Z</time>
      </trkpt>
      <trkpt lat="42.457194020971656" lon="-8.729220991954207">
        <ele>465.6</ele>
        <time>2022-05-01T09:30:39.833Z</time>
      </trkpt>
      <trkpt lat="42.45703803375363" lon="-8.729404974728823">
        <ele>464.1</ele>
        <time>2022-05-01T09:30:43.608Z</time>
      </trkpt>
      <trkpt lat="42.45699101127684" lon="-8.729474963620305">
        <ele>463.4</ele>
        <time>2022-05-01T09:30:44.777Z</time>
      </trkpt>
      <trkpt lat="42.456895960494876" lon="-8.729646038264036">
        <ele>461.6</ele>
        <time>2022-05-01T09:30:47.102Z</time>
      </trkpt>
      <trkpt lat="42.45679697021842" lon="-8.729842007160187">
        <ele>460.3</ele>
        <time>2022-05-01T09:30:49.555Z</time>
      </trkpt>
      <trkpt lat="42.45657904073596" lon="-8.730250960215926">
        <ele>456.3</ele>
        <time>2022-05-01T09:30:54.645Z</time>
      </trkpt>
      <trkpt lat="42.45651500299573" lon="-8.730350034311414">
        <ele>455.2</ele>
        <time>2022-05-01T09:30:55.967Z</time>
      </trkpt>
      <trkpt lat="42.45644400827587" lon="-8.730443995445967">
        <ele>454.4</ele>
        <time>2022-05-01T09:30:57.309Z</time>
      </trkpt>
      <trkpt lat="42.45636899024248" lon="-8.73053703457117">
        <ele>453.5</ele>
        <time>2022-05-01T09:30:58.679Z</time>
      </trkpt>
      <trkpt lat="42.45621903799474" lon="-8.730728980153799">
        <ele>452.1</ele>
        <time>2022-05-01T09:31:01.326Z</time>
      </trkpt>
      <trkpt lat="42.45614997111261" lon="-8.730824030935764">
        <ele>451.5</ele>
        <time>2022-05-01T09:31:02.487Z</time>
      </trkpt>
      <trkpt lat="42.45608400553465" lon="-8.73092201538384">
        <ele>450.8</ele>
        <time>2022-05-01T09:31:03.743Z</time>
      </trkpt>
      <trkpt lat="42.45595400221646" lon="-8.731128964573145">
        <ele>449.2</ele>
        <time>2022-05-01T09:31:06.194Z</time>
      </trkpt>
      <trkpt lat="42.4558499827981" lon="-8.731355024501681">
        <ele>447.0</ele>
        <time>2022-05-01T09:31:08.667Z</time>
      </trkpt>
      <trkpt lat="42.455816036090255" lon="-8.731477987021208">
        <ele>445.9</ele>
        <time>2022-05-01T09:31:09.818Z</time>
      </trkpt>
      <trkpt lat="42.4557860288769" lon="-8.731602039188147">
        <ele>445.2</ele>
        <time>2022-05-01T09:31:10.912Z</time>
      </trkpt>
      <trkpt lat="42.4557619728148" lon="-8.731725001707673">
        <ele>445.0</ele>
        <time>2022-05-01T09:31:12.075Z</time>
      </trkpt>
      <trkpt lat="42.45575602166355" lon="-8.7318479642272">
        <ele>444.6</ele>
        <time>2022-05-01T09:31:13.227Z</time>
      </trkpt>
      <trkpt lat="42.45579198002815" lon="-8.732091039419174">
        <ele>443.2</ele>
        <time>2022-05-01T09:31:15.469Z</time>
      </trkpt>
      <trkpt lat="42.45580798946321" lon="-8.732207966968417">
        <ele>442.4</ele>
        <time>2022-05-01T09:31:16.466Z</time>
      </trkpt>
      <trkpt lat="42.45582198724151" lon="-8.732324978336692">
        <ele>441.6</ele>
        <time>2022-05-01T09:31:17.488Z</time>
      </trkpt>
      <trkpt lat="42.45584403164685" lon="-8.732571993023157">
        <ele>440.0</ele>
        <time>2022-05-01T09:31:19.614Z</time>
      </trkpt>
      <trkpt lat="42.455860041081905" lon="-8.732691016048193">
        <ele>439.2</ele>
        <time>2022-05-01T09:31:20.597Z</time>
      </trkpt>
      <trkpt lat="42.455883007496595" lon="-8.732810039073229">
        <ele>438.4</ele>
        <time>2022-05-01T09:31:21.643Z</time>
      </trkpt>
      <trkpt lat="42.45598300360143" lon="-8.733044983819127">
        <ele>436.6</ele>
        <time>2022-05-01T09:31:23.790Z</time>
      </trkpt>
      <trkpt lat="42.456051986664534" lon="-8.733260985463858">
        <ele>435.1</ele>
        <time>2022-05-01T09:31:25.560Z</time>
      </trkpt>
      <trkpt lat="42.456074031069875" lon="-8.733358969911933">
        <ele>434.4</ele>
        <time>2022-05-01T09:31:26.353Z</time>
      </trkpt>
      <trkpt lat="42.456095991656184" lon="-8.73345603235066">
        <ele>433.6</ele>
        <time>2022-05-01T09:31:27.154Z</time>
      </trkpt>
      <trkpt lat="42.45611200109124" lon="-8.733549993485212">
        <ele>432.8</ele>
        <time>2022-05-01T09:31:27.875Z</time>
      </trkpt>
      <trkpt lat="42.45612398721278" lon="-8.733646972104907">
        <ele>432.0</ele>
        <time>2022-05-01T09:31:28.577Z</time>
      </trkpt>
      <trkpt lat="42.45613697916269" lon="-8.733849981799722">
        <ele>430.1</ele>
        <time>2022-05-01T09:31:29.979Z</time>
      </trkpt>
      <trkpt lat="42.456161035224795" lon="-8.73401996679604">
        <ele>428.2</ele>
        <time>2022-05-01T09:31:31.147Z</time>
      </trkpt>
      <trkpt lat="42.456182995811105" lon="-8.734147036448121">
        <ele>426.9</ele>
        <time>2022-05-01T09:31:32.096Z</time>
      </trkpt>
      <trkpt lat="42.4561919644475" lon="-8.734251977875829">
        <ele>426.0</ele>
        <time>2022-05-01T09:31:32.855Z</time>
      </trkpt>
      <trkpt lat="42.45618601329625" lon="-8.734306041151285">
        <ele>425.6</ele>
        <time>2022-05-01T09:31:33.288Z</time>
      </trkpt>
      <trkpt lat="42.45617000386119" lon="-8.734367983415723">
        <ele>425.2</ele>
        <time>2022-05-01T09:31:33.824Z</time>
      </trkpt>
      <trkpt lat="42.45613396167755" lon="-8.734516007825732">
        <ele>424.1</ele>
        <time>2022-05-01T09:31:35.095Z</time>
      </trkpt>
      <trkpt lat="42.45610998943448" lon="-8.73468498699367">
        <ele>422.5</ele>
        <time>2022-05-01T09:31:36.487Z</time>
      </trkpt>
      <trkpt lat="42.456098003312945" lon="-8.73476897366345">
        <ele>421.6</ele>
        <time>2022-05-01T09:31:37.191Z</time>
      </trkpt>
      <trkpt lat="42.456078976392746" lon="-8.734844997525215">
        <ele>421.0</ele>
        <time>2022-05-01T09:31:37.913Z</time>
      </trkpt>
      <trkpt lat="42.456009993329644" lon="-8.734950022771955">
        <ele>420.3</ele>
        <time>2022-05-01T09:31:39.198Z</time>
      </trkpt>
      <trkpt lat="42.45596003718674" lon="-8.734967960044742">
        <ele>420.3</ele>
        <time>2022-05-01T09:31:39.891Z</time>
      </trkpt>
      <trkpt lat="42.45584403164685" lon="-8.734953040257096">
        <ele>419.7</ele>
        <time>2022-05-01T09:31:41.576Z</time>
      </trkpt>
      <trkpt lat="42.45578502304852" lon="-8.734938958659768">
        <ele>419.5</ele>
        <time>2022-05-01T09:31:42.502Z</time>
      </trkpt>
      <trkpt lat="42.455730037763715" lon="-8.734938958659768">
        <ele>419.1</ele>
        <time>2022-05-01T09:31:43.321Z</time>
      </trkpt>
      <trkpt lat="42.455686032772064" lon="-8.734965026378632">
        <ele>418.4</ele>
        <time>2022-05-01T09:31:44.084Z</time>
      </trkpt>
      <trkpt lat="42.45565895922482" lon="-8.735008025541902">
        <ele>417.8</ele>
        <time>2022-05-01T09:31:44.787Z</time>
      </trkpt>
      <trkpt lat="42.45565200224519" lon="-8.735128976404667">
        <ele>417.2</ele>
        <time>2022-05-01T09:31:46.303Z</time>
      </trkpt>
      <trkpt lat="42.455669017508626" lon="-8.73519603163004">
        <ele>417.2</ele>
        <time>2022-05-01T09:31:47.160Z</time>
      </trkpt>
      <trkpt lat="42.4556980188936" lon="-8.735345983877778">
        <ele>417.1</ele>
        <time>2022-05-01T09:31:48.905Z</time>
      </trkpt>
      <trkpt lat="42.455711010843515" lon="-8.735428964719176">
        <ele>417.1</ele>
        <time>2022-05-01T09:31:49.862Z</time>
      </trkpt>
      <trkpt lat="42.45572601445019" lon="-8.735514041036367">
        <ele>417.1</ele>
        <time>2022-05-01T09:31:50.912Z</time>
      </trkpt>
      <trkpt lat="42.45577999390662" lon="-8.735782010480762">
        <ele>417.0</ele>
        <time>2022-05-01T09:31:54.353Z</time>
      </trkpt>
      <trkpt lat="42.45585098862648" lon="-8.736050985753536">
        <ele>416.7</ele>
        <time>2022-05-01T09:31:57.808Z</time>
      </trkpt>
      <trkpt lat="42.455948973074555" lon="-8.736408976837993">
        <ele>415.9</ele>
        <time>2022-05-01T09:32:02.078Z</time>
      </trkpt>
      <trkpt lat="42.45597403496504" lon="-8.736497992649674">
        <ele>415.8</ele>
        <time>2022-05-01T09:32:03.158Z</time>
      </trkpt>
      <trkpt lat="42.456072019413114" lon="-8.736849026754498">
        <ele>414.6</ele>
        <time>2022-05-01T09:32:07.589Z</time>
      </trkpt>
      <trkpt lat="42.45610596612096" lon="-8.736934019252658">
        <ele>414.2</ele>
        <time>2022-05-01T09:32:08.750Z</time>
      </trkpt>
      <trkpt lat="42.45614896528423" lon="-8.737009037286043">
        <ele>413.9</ele>
        <time>2022-05-01T09:32:09.957Z</time>
      </trkpt>
      <trkpt lat="42.45621702633798" lon="-8.737145997583866">
        <ele>413.5</ele>
        <time>2022-05-01T09:32:12.165Z</time>
      </trkpt>
      <trkpt lat="42.456228006631136" lon="-8.737208023667336">
        <ele>413.5</ele>
        <time>2022-05-01T09:32:12.987Z</time>
      </trkpt>
      <trkpt lat="42.45616698637605" lon="-8.7373670283705">
        <ele>413.1</ele>
        <time>2022-05-01T09:32:15.290Z</time>
      </trkpt>
      <trkpt lat="42.45612901635468" lon="-8.737417990341783">
        <ele>412.8</ele>
        <time>2022-05-01T09:32:16.267Z</time>
      </trkpt>
      <trkpt lat="42.45602399110794" lon="-8.737512035295367">
        <ele>411.8</ele>
        <time>2022-05-01T09:32:18.674Z</time>
      </trkpt>
      <trkpt lat="42.455965988337994" lon="-8.737554028630257">
        <ele>411.2</ele>
        <time>2022-05-01T09:32:19.773Z</time>
      </trkpt>
      <trkpt lat="42.45574302971363" lon="-8.737667016685009">
        <ele>409.7</ele>
        <time>2022-05-01T09:32:23.762Z</time>
      </trkpt>
      <trkpt lat="42.45539601892233" lon="-8.737818980589509">
        <ele>406.4</ele>
        <time>2022-05-01T09:32:29.122Z</time>
      </trkpt>
      <trkpt lat="42.45513802394271" lon="-8.737903973087668">
        <ele>404.0</ele>
        <time>2022-05-01T09:32:32.555Z</time>
      </trkpt>
      <trkpt lat="42.45496703311801" lon="-8.737958958372474">
        <ele>402.3</ele>
        <time>2022-05-01T09:32:34.617Z</time>
      </trkpt>
      <trkpt lat="42.45479696430266" lon="-8.738022996112704">
        <ele>400.7</ele>
        <time>2022-05-01T09:32:36.699Z</time>
      </trkpt>
      <trkpt lat="42.454617004841566" lon="-8.738074963912368">
        <ele>399.5</ele>
        <time>2022-05-01T09:32:38.979Z</time>
      </trkpt>
      <trkpt lat="42.45443000458181" lon="-8.738126009702682">
        <ele>398.1</ele>
        <time>2022-05-01T09:32:41.329Z</time>
      </trkpt>
      <trkpt lat="42.45434601791203" lon="-8.738161968067288">
        <ele>397.3</ele>
        <time>2022-05-01T09:32:42.483Z</time>
      </trkpt>
      <trkpt lat="42.45426597073674" lon="-8.738216031342745">
        <ele>396.8</ele>
        <time>2022-05-01T09:32:43.678Z</time>
      </trkpt>
      <trkpt lat="42.45418801903725" lon="-8.738263975828886">
        <ele>396.3</ele>
        <time>2022-05-01T09:32:44.886Z</time>
      </trkpt>
      <trkpt lat="42.45411199517548" lon="-8.738295994699001">
        <ele>395.9</ele>
        <time>2022-05-01T09:32:46.091Z</time>
      </trkpt>
      <trkpt lat="42.454037982970476" lon="-8.738307980820537">
        <ele>395.6</ele>
        <time>2022-05-01T09:32:47.221Z</time>
      </trkpt>
      <trkpt lat="42.45389901101589" lon="-8.738280991092324">
        <ele>395.1</ele>
        <time>2022-05-01T09:32:49.448Z</time>
      </trkpt>
      <trkpt lat="42.45376003906131" lon="-8.738240003585815">
        <ele>394.5</ele>
        <time>2022-05-01T09:32:51.841Z</time>
      </trkpt>
      <trkpt lat="42.45368502102792" lon="-8.738223994150758">
        <ele>394.3</ele>
        <time>2022-05-01T09:32:53.142Z</time>
      </trkpt>
      <trkpt lat="42.45361302047968" lon="-8.738204967230558">
        <ele>394.1</ele>
        <time>2022-05-01T09:32:54.464Z</time>
      </trkpt>
      <trkpt lat="42.453542025759816" lon="-8.738182000815868">
        <ele>394.1</ele>
        <time>2022-05-01T09:32:55.841Z</time>
      </trkpt>
      <trkpt lat="42.453477988019586" lon="-8.738150987774134">
        <ele>394.2</ele>
        <time>2022-05-01T09:32:57.140Z</time>
      </trkpt>
      <trkpt lat="42.453367011621594" lon="-8.73805996030569">
        <ele>394.8</ele>
        <time>2022-05-01T09:32:59.656Z</time>
      </trkpt>
      <trkpt lat="42.45331697165966" lon="-8.73801402747631">
        <ele>395.3</ele>
        <time>2022-05-01T09:33:00.872Z</time>
      </trkpt>
      <trkpt lat="42.45318504050374" lon="-8.738004975020885">
        <ele>396.0</ele>
        <time>2022-05-01T09:33:03.581Z</time>
      </trkpt>
      <trkpt lat="42.453071968629956" lon="-8.738126009702682">
        <ele>396.1</ele>
        <time>2022-05-01T09:33:06.624Z</time>
      </trkpt>
      <trkpt lat="42.45303098112345" lon="-8.738176971673965">
        <ele>396.0</ele>
        <time>2022-05-01T09:33:07.830Z</time>
      </trkpt>
      <trkpt lat="42.45278203859925" lon="-8.738505961373448">
        <ele>395.5</ele>
        <time>2022-05-01T09:33:15.558Z</time>
      </trkpt>
      <trkpt lat="42.4526259675622" lon="-8.738740989938378">
        <ele>394.8</ele>
        <time>2022-05-01T09:33:20.862Z</time>
      </trkpt>
      <trkpt lat="42.45258498005569" lon="-8.738774014636874">
        <ele>394.8</ele>
        <time>2022-05-01T09:33:21.969Z</time>
      </trkpt>
      <trkpt lat="42.452447013929486" lon="-8.738782983273268">
        <ele>395.4</ele>
        <time>2022-05-01T09:33:25.211Z</time>
      </trkpt>
      <trkpt lat="42.45226898230612" lon="-8.73889496549964">
        <ele>395.8</ele>
        <time>2022-05-01T09:33:29.835Z</time>
      </trkpt>
      <trkpt lat="42.452163035050035" lon="-8.739040978252888">
        <ele>395.6</ele>
        <time>2022-05-01T09:33:33.413Z</time>
      </trkpt>
      <trkpt lat="42.45213101617992" lon="-8.739096969366074">
        <ele>395.5</ele>
        <time>2022-05-01T09:33:34.629Z</time>
      </trkpt>
      <trkpt lat="42.452100003138185" lon="-8.739158995449543">
        <ele>395.4</ele>
        <time>2022-05-01T09:33:35.932Z</time>
      </trkpt>
      <trkpt lat="42.451972011476755" lon="-8.739477004855871">
        <ele>395.5</ele>
        <time>2022-05-01T09:33:42.173Z</time>
      </trkpt>
      <trkpt lat="42.451884001493454" lon="-8.739622011780739">
        <ele>395.5</ele>
        <time>2022-05-01T09:33:45.280Z</time>
      </trkpt>
      <trkpt lat="42.451804960146546" lon="-8.739698035642505">
        <ele>395.6</ele>
        <time>2022-05-01T09:33:47.470Z</time>
      </trkpt>
      <trkpt lat="42.45171099901199" lon="-8.739780010655522">
        <ele>395.0</ele>
        <time>2022-05-01T09:33:50.041Z</time>
      </trkpt>
      <trkpt lat="42.45162198320031" lon="-8.73986097984016">
        <ele>394.4</ele>
        <time>2022-05-01T09:33:52.387Z</time>
      </trkpt>
      <trkpt lat="42.4515310395509" lon="-8.739943960681558">
        <ele>393.9</ele>
        <time>2022-05-01T09:33:54.798Z</time>
      </trkpt>
      <trkpt lat="42.451390977948904" lon="-8.740040017291903">
        <ele>392.6</ele>
        <time>2022-05-01T09:33:57.921Z</time>
      </trkpt>
      <trkpt lat="42.45129299350083" lon="-8.740143030881882">
        <ele>392.1</ele>
        <time>2022-05-01T09:34:00.391Z</time>
      </trkpt>
      <trkpt lat="42.451199032366276" lon="-8.740251995623112">
        <ele>391.6</ele>
        <time>2022-05-01T09:34:02.762Z</time>
      </trkpt>
      <trkpt lat="42.45115200988948" lon="-8.740304969251156">
        <ele>391.2</ele>
        <time>2022-05-01T09:34:03.980Z</time>
      </trkpt>
      <trkpt lat="42.45096802711487" lon="-8.740560030564666">
        <ele>389.8</ele>
        <time>2022-05-01T09:34:08.650Z</time>
      </trkpt>
      <trkpt lat="42.45084003545344" lon="-8.74078399501741">
        <ele>388.7</ele>
        <time>2022-05-01T09:34:12.238Z</time>
      </trkpt>
      <trkpt lat="42.450810028240085" lon="-8.740868987515569">
        <ele>388.6</ele>
        <time>2022-05-01T09:34:13.493Z</time>
      </trkpt>
      <trkpt lat="42.45078303851187" lon="-8.740954985842109">
        <ele>388.4</ele>
        <time>2022-05-01T09:34:14.705Z</time>
      </trkpt>
      <trkpt lat="42.4507159832865" lon="-8.741122959181666">
        <ele>387.3</ele>
        <time>2022-05-01T09:34:17.126Z</time>
      </trkpt>
      <trkpt lat="42.450617998838425" lon="-8.741287998855114">
        <ele>386.0</ele>
        <time>2022-05-01T09:34:19.497Z</time>
      </trkpt>
      <trkpt lat="42.45056200772524" lon="-8.74136502854526">
        <ele>385.6</ele>
        <time>2022-05-01T09:34:20.786Z</time>
      </trkpt>
      <trkpt lat="42.450448013842106" lon="-8.741525039076805">
        <ele>384.0</ele>
        <time>2022-05-01T09:34:23.543Z</time>
      </trkpt>
      <trkpt lat="42.450338965281844" lon="-8.741684965789318">
        <ele>383.6</ele>
        <time>2022-05-01T09:34:26.319Z</time>
      </trkpt>
      <trkpt lat="42.45024299249053" lon="-8.741941032931209">
        <ele>383.5</ele>
        <time>2022-05-01T09:34:29.996Z</time>
      </trkpt>
      <trkpt lat="42.450233018025756" lon="-8.742172960191965">
        <ele>383.0</ele>
        <time>2022-05-01T09:34:33.086Z</time>
      </trkpt>
      <trkpt lat="42.45023502968252" lon="-8.742248984053731">
        <ele>383.0</ele>
        <time>2022-05-01T09:34:34.144Z</time>
      </trkpt>
      <trkpt lat="42.45024399831891" lon="-8.742319978773594">
        <ele>382.9</ele>
        <time>2022-05-01T09:34:35.188Z</time>
      </trkpt>
      <trkpt lat="42.4502669647336" lon="-8.74254503287375">
        <ele>383.3</ele>
        <time>2022-05-01T09:34:38.554Z</time>
      </trkpt>
      <trkpt lat="42.45028498582542" lon="-8.74269599094987">
        <ele>383.9</ele>
        <time>2022-05-01T09:34:40.907Z</time>
      </trkpt>
      <trkpt lat="42.45034500025213" lon="-8.742902018129826">
        <ele>384.6</ele>
        <time>2022-05-01T09:34:44.426Z</time>
      </trkpt>
      <trkpt lat="42.45037198998034" lon="-8.742963038384914">
        <ele>384.8</ele>
        <time>2022-05-01T09:34:45.587Z</time>
      </trkpt>
      <trkpt lat="42.45047299191356" lon="-8.743115002289414">
        <ele>385.1</ele>
        <time>2022-05-01T09:34:49.019Z</time>
      </trkpt>
      <trkpt lat="42.450551027432084" lon="-8.743188008666039">
        <ele>384.8</ele>
        <time>2022-05-01T09:34:51.281Z</time>
      </trkpt>
      <trkpt lat="42.450749007984996" lon="-8.743365034461021">
        <ele>385.0</ele>
        <time>2022-05-01T09:34:57.234Z</time>
      </trkpt>
      <trkpt lat="42.45091597549617" lon="-8.743545999750495">
        <ele>386.5</ele>
        <time>2022-05-01T09:35:02.678Z</time>
      </trkpt>
      <trkpt lat="42.45099300518632" lon="-8.743654964491725">
        <ele>387.0</ele>
        <time>2022-05-01T09:35:05.654Z</time>
      </trkpt>
      <trkpt lat="42.45112803764641" lon="-8.74385797418654">
        <ele>388.4</ele>
        <time>2022-05-01T09:35:11.102Z</time>
      </trkpt>
      <trkpt lat="42.4511840287596" lon="-8.743960987776518">
        <ele>389.0</ele>
        <time>2022-05-01T09:35:13.661Z</time>
      </trkpt>
      <trkpt lat="42.45123197324574" lon="-8.744070958346128">
        <ele>389.3</ele>
        <time>2022-05-01T09:35:16.243Z</time>
      </trkpt>
      <trkpt lat="42.45130196213722" lon="-8.744320990517735">
        <ele>389.5</ele>
        <time>2022-05-01T09:35:21.501Z</time>
      </trkpt>
      <trkpt lat="42.451330963522196" lon="-8.744382010772824">
        <ele>389.6</ele>
        <time>2022-05-01T09:35:22.870Z</time>
      </trkpt>
      <trkpt lat="42.45145300403237" lon="-8.744526011869311">
        <ele>389.5</ele>
        <time>2022-05-01T09:35:26.856Z</time>
      </trkpt>
      <trkpt lat="42.451503966003656" lon="-8.744560964405537">
        <ele>389.3</ele>
        <time>2022-05-01T09:35:28.270Z</time>
      </trkpt>
      <trkpt lat="42.45166799984872" lon="-8.744619973003864">
        <ele>388.7</ele>
        <time>2022-05-01T09:35:31.827Z</time>
      </trkpt>
      <trkpt lat="42.45173002593219" lon="-8.74463003128767">
        <ele>388.3</ele>
        <time>2022-05-01T09:35:33.172Z</time>
      </trkpt>
      <trkpt lat="42.45204702951014" lon="-8.744612010195851">
        <ele>385.6</ele>
        <time>2022-05-01T09:35:38.960Z</time>
      </trkpt>
      <trkpt lat="42.452184995636344" lon="-8.744605975225568">
        <ele>383.5</ele>
        <time>2022-05-01T09:35:41.219Z</time>
      </trkpt>
      <trkpt lat="42.45230401866138" lon="-8.744665989652276">
        <ele>381.6</ele>
        <time>2022-05-01T09:35:43.079Z</time>
      </trkpt>
      <trkpt lat="42.452467968687415" lon="-8.744885008782148">
        <ele>378.3</ele>
        <time>2022-05-01T09:35:46.095Z</time>
      </trkpt>
      <trkpt lat="42.45252798311412" lon="-8.744967989623547">
        <ele>377.2</ele>
        <time>2022-05-01T09:35:47.307Z</time>
      </trkpt>
      <trkpt lat="42.45258598588407" lon="-8.74505901709199">
        <ele>376.3</ele>
        <time>2022-05-01T09:35:48.629Z</time>
      </trkpt>
      <trkpt lat="42.45266997255385" lon="-8.745262026786804">
        <ele>374.6</ele>
        <time>2022-05-01T09:35:51.112Z</time>
      </trkpt>
      <trkpt lat="42.452701991423965" lon="-8.745376020669937">
        <ele>373.4</ele>
        <time>2022-05-01T09:35:52.407Z</time>
      </trkpt>
      <trkpt lat="42.45273401029408" lon="-8.745496971532702">
        <ele>372.3</ele>
        <time>2022-05-01T09:35:53.618Z</time>
      </trkpt>
      <trkpt lat="42.452766029164195" lon="-8.745634015649557">
        <ele>371.3</ele>
        <time>2022-05-01T09:35:54.852Z</time>
      </trkpt>
      <trkpt lat="42.45279603637755" lon="-8.745762007310987">
        <ele>370.4</ele>
        <time>2022-05-01T09:35:55.950Z</time>
      </trkpt>
      <trkpt lat="42.45282302610576" lon="-8.745882036164403">
        <ele>369.6</ele>
        <time>2022-05-01T09:35:57.028Z</time>
      </trkpt>
      <trkpt lat="42.45287901721895" lon="-8.74611496925354">
        <ele>367.7</ele>
        <time>2022-05-01T09:35:59.125Z</time>
      </trkpt>
      <trkpt lat="42.452896032482386" lon="-8.746210020035505">
        <ele>366.9</ele>
        <time>2022-05-01T09:35:59.968Z</time>
      </trkpt>
      <trkpt lat="42.45289200916886" lon="-8.746410012245178">
        <ele>366.0</ele>
        <time>2022-05-01T09:36:01.797Z</time>
      </trkpt>
      <trkpt lat="42.452875999733806" lon="-8.746512020006776">
        <ele>365.9</ele>
        <time>2022-05-01T09:36:02.678Z</time>
      </trkpt>
      <trkpt lat="42.452854039147496" lon="-8.746616039425135">
        <ele>365.4</ele>
        <time>2022-05-01T09:36:03.545Z</time>
      </trkpt>
      <trkpt lat="42.45282696560025" lon="-8.746728021651506">
        <ele>364.6</ele>
        <time>2022-05-01T09:36:04.530Z</time>
      </trkpt>
      <trkpt lat="42.45279897004366" lon="-8.746840003877878">
        <ele>363.9</ele>
        <time>2022-05-01T09:36:05.475Z</time>
      </trkpt>
      <trkpt lat="42.452768040820956" lon="-8.746948968619108">
        <ele>363.2</ele>
        <time>2022-05-01T09:36:06.380Z</time>
      </trkpt>
      <trkpt lat="42.45273602195084" lon="-8.747062040492892">
        <ele>362.5</ele>
        <time>2022-05-01T09:36:07.305Z</time>
      </trkpt>
      <trkpt lat="42.45269696228206" lon="-8.747168993577361">
        <ele>361.7</ele>
        <time>2022-05-01T09:36:08.203Z</time>
      </trkpt>
      <trkpt lat="42.45260995812714" lon="-8.747373009100556">
        <ele>359.9</ele>
        <time>2022-05-01T09:36:09.965Z</time>
      </trkpt>
      <trkpt lat="42.45251599699259" lon="-8.747557997703552">
        <ele>358.3</ele>
        <time>2022-05-01T09:36:11.599Z</time>
      </trkpt>
      <trkpt lat="42.452466962859035" lon="-8.747643996030092">
        <ele>357.6</ele>
        <time>2022-05-01T09:36:12.359Z</time>
      </trkpt>
      <trkpt lat="42.45237300172448" lon="-8.747804006561637">
        <ele>356.3</ele>
        <time>2022-05-01T09:36:13.828Z</time>
      </trkpt>
      <trkpt lat="42.45232698507607" lon="-8.747869972139597">
        <ele>355.7</ele>
        <time>2022-05-01T09:36:14.547Z</time>
      </trkpt>
      <trkpt lat="42.45227904058993" lon="-8.747929986566305">
        <ele>355.0</ele>
        <time>2022-05-01T09:36:15.214Z</time>
      </trkpt>
      <trkpt lat="42.452232018113136" lon="-8.747988995164633">
        <ele>354.7</ele>
        <time>2022-05-01T09:36:15.889Z</time>
      </trkpt>
      <trkpt lat="42.452144008129835" lon="-8.74811296351254">
        <ele>353.7</ele>
        <time>2022-05-01T09:36:17.269Z</time>
      </trkpt>
      <trkpt lat="42.452077036723495" lon="-8.748254030942917">
        <ele>352.6</ele>
        <time>2022-05-01T09:36:18.698Z</time>
      </trkpt>
      <trkpt lat="42.4520490411669" lon="-8.74832502566278">
        <ele>352.2</ele>
        <time>2022-05-01T09:36:19.445Z</time>
      </trkpt>
      <trkpt lat="42.45202800258994" lon="-8.748384034261107">
        <ele>351.7</ele>
        <time>2022-05-01T09:36:20.041Z</time>
      </trkpt>
      <trkpt lat="42.45200000703335" lon="-8.748459974303842">
        <ele>351.1</ele>
        <time>2022-05-01T09:36:20.823Z</time>
      </trkpt>
      <trkpt lat="42.451992966234684" lon="-8.748471960425377">
        <ele>351.0</ele>
        <time>2022-05-01T09:36:20.975Z</time>
      </trkpt>
      <trkpt lat="42.451990032568574" lon="-8.748470032587647">
        <ele>351.0</ele>
        <time>2022-05-01T09:36:21.022Z</time>
      </trkpt>
      <trkpt lat="42.45196396484971" lon="-8.748558964580297">
        <ele>350.3</ele>
        <time>2022-05-01T09:36:22.060Z</time>
      </trkpt>
      <trkpt lat="42.452055998146534" lon="-8.748696008697152">
        <ele>349.9</ele>
        <time>2022-05-01T09:36:24.024Z</time>
      </trkpt>
      <trkpt lat="42.45226101949811" lon="-8.748919973149896">
        <ele>348.5</ele>
        <time>2022-05-01T09:36:27.984Z</time>
      </trkpt>
      <trkpt lat="42.45244198478758" lon="-8.749123988673091">
        <ele>347.0</ele>
        <time>2022-05-01T09:36:31.615Z</time>
      </trkpt>
      <trkpt lat="42.45247199200094" lon="-8.749190960079432">
        <ele>346.4</ele>
        <time>2022-05-01T09:36:32.418Z</time>
      </trkpt>
      <trkpt lat="42.452510967850685" lon="-8.749417020007968">
        <ele>345.0</ele>
        <time>2022-05-01T09:36:34.750Z</time>
      </trkpt>
      <trkpt lat="42.45242999866605" lon="-8.749644001945853">
        <ele>345.0</ele>
        <time>2022-05-01T09:36:37.260Z</time>
      </trkpt>
      <trkpt lat="42.45239303447306" lon="-8.74970301054418">
        <ele>345.1</ele>
        <time>2022-05-01T09:36:38.088Z</time>
      </trkpt>
      <trkpt lat="42.45232698507607" lon="-8.74981197528541">
        <ele>345.3</ele>
        <time>2022-05-01T09:36:39.704Z</time>
      </trkpt>
      <trkpt lat="42.45223998092115" lon="-8.749975003302097">
        <ele>345.1</ele>
        <time>2022-05-01T09:36:42.102Z</time>
      </trkpt>
      <trkpt lat="42.45210402645171" lon="-8.75024196691811">
        <ele>345.5</ele>
        <time>2022-05-01T09:36:46.171Z</time>
      </trkpt>
      <trkpt lat="42.45204501785338" lon="-8.750349003821611">
        <ele>345.6</ele>
        <time>2022-05-01T09:36:47.895Z</time>
      </trkpt>
      <trkpt lat="42.45177403092384" lon="-8.75077597796917">
        <ele>346.5</ele>
        <time>2022-05-01T09:36:55.567Z</time>
      </trkpt>
      <trkpt lat="42.451501032337546" lon="-8.751109996810555">
        <ele>346.9</ele>
        <time>2022-05-01T09:37:02.811Z</time>
      </trkpt>
      <trkpt lat="42.45141997933388" lon="-8.751240000128746">
        <ele>346.7</ele>
        <time>2022-05-01T09:37:05.574Z</time>
      </trkpt>
      <trkpt lat="42.45133398100734" lon="-8.75146103091538">
        <ele>346.6</ele>
        <time>2022-05-01T09:37:10.042Z</time>
      </trkpt>
      <trkpt lat="42.45131998322904" lon="-8.751702010631561">
        <ele>347.3</ele>
        <time>2022-05-01T09:37:14.515Z</time>
      </trkpt>
      <trkpt lat="42.45137999765575" lon="-8.751921029761434">
        <ele>348.7</ele>
        <time>2022-05-01T09:37:19.179Z</time>
      </trkpt>
      <trkpt lat="42.45140296407044" lon="-8.751983977854252">
        <ele>349.2</ele>
        <time>2022-05-01T09:37:20.568Z</time>
      </trkpt>
      <trkpt lat="42.4514430295676" lon="-8.752099983394146">
        <ele>350.1</ele>
        <time>2022-05-01T09:37:23.159Z</time>
      </trkpt>
      <trkpt lat="42.451477982103825" lon="-8.752253036946058">
        <ele>351.3</ele>
        <time>2022-05-01T09:37:26.576Z</time>
      </trkpt>
      <trkpt lat="42.451477982103825" lon="-8.752337023615837">
        <ele>351.9</ele>
        <time>2022-05-01T09:37:28.545Z</time>
      </trkpt>
      <trkpt lat="42.45144504122436" lon="-8.752438025549054">
        <ele>352.7</ele>
        <time>2022-05-01T09:37:31.044Z</time>
      </trkpt>
      <trkpt lat="42.45142500847578" lon="-8.752466021105647">
        <ele>352.9</ele>
        <time>2022-05-01T09:37:32.060Z</time>
      </trkpt>
      <trkpt lat="42.451352002099156" lon="-8.752544978633523">
        <ele>353.6</ele>
        <time>2022-05-01T09:37:35.290Z</time>
      </trkpt>
      <trkpt lat="42.451326018199325" lon="-8.752570040524006">
        <ele>353.9</ele>
        <time>2022-05-01T09:37:36.337Z</time>
      </trkpt>
      <trkpt lat="42.45127497240901" lon="-8.75262200832367">
        <ele>354.6</ele>
        <time>2022-05-01T09:37:38.466Z</time>
      </trkpt>
      <trkpt lat="42.45125100016594" lon="-8.752648998051882">
        <ele>354.9</ele>
        <time>2022-05-01T09:37:39.460Z</time>
      </trkpt>
      <trkpt lat="42.451158966869116" lon="-8.752772966399789">
        <ele>356.2</ele>
        <time>2022-05-01T09:37:43.540Z</time>
      </trkpt>
      <trkpt lat="42.45114496909082" lon="-8.752806996926665">
        <ele>356.5</ele>
        <time>2022-05-01T09:37:44.414Z</time>
      </trkpt>
      <trkpt lat="42.45112703181803" lon="-8.752952003851533">
        <ele>357.7</ele>
        <time>2022-05-01T09:37:47.861Z</time>
      </trkpt>
      <trkpt lat="42.45112895965576" lon="-8.752991985529661">
        <ele>358.0</ele>
        <time>2022-05-01T09:37:48.767Z</time>
      </trkpt>
      <trkpt lat="42.4511510040611" lon="-8.75307697802782">
        <ele>358.6</ele>
        <time>2022-05-01T09:37:50.747Z</time>
      </trkpt>
      <trkpt lat="42.45121101848781" lon="-8.753230031579733">
        <ele>359.7</ele>
        <time>2022-05-01T09:37:54.930Z</time>
      </trkpt>
      <trkpt lat="42.45125703513622" lon="-8.753380989655852">
        <ele>361.0</ele>
        <time>2022-05-01T09:37:58.972Z</time>
      </trkpt>
      <trkpt lat="42.45126902125776" lon="-8.753421977162361">
        <ele>361.3</ele>
        <time>2022-05-01T09:38:00.150Z</time>
      </trkpt>
      <trkpt lat="42.45131998322904" lon="-8.753534965217113">
        <ele>362.0</ele>
        <time>2022-05-01T09:38:03.774Z</time>
      </trkpt>
      <trkpt lat="42.451373962685466" lon="-8.75365499407053">
        <ele>362.5</ele>
        <time>2022-05-01T09:38:07.859Z</time>
      </trkpt>
      <trkpt lat="42.45138896629214" lon="-8.753694975748658">
        <ele>362.7</ele>
        <time>2022-05-01T09:38:09.334Z</time>
      </trkpt>
      <trkpt lat="42.4514430295676" lon="-8.753812992945313">
        <ele>363.2</ele>
        <time>2022-05-01T09:38:14.111Z</time>
      </trkpt>
      <trkpt lat="42.45151402428746" lon="-8.753976020962">
        <ele>363.8</ele>
        <time>2022-05-01T09:38:21.096Z</time>
      </trkpt>
      <trkpt lat="42.45161301456392" lon="-8.754195962101221">
        <ele>365.0</ele>
        <time>2022-05-01T09:38:30.656Z</time>
      </trkpt>
      <trkpt lat="42.45164201594889" lon="-8.754267962649465">
        <ele>365.5</ele>
        <time>2022-05-01T09:38:33.461Z</time>
      </trkpt>
      <trkpt lat="42.451712004840374" lon="-8.754411041736603">
        <ele>366.4</ele>
        <time>2022-05-01T09:38:38.986Z</time>
      </trkpt>
      <trkpt lat="42.45173103176057" lon="-8.754444988444448">
        <ele>366.6</ele>
        <time>2022-05-01T09:38:40.401Z</time>
      </trkpt>
      <trkpt lat="42.45174997486174" lon="-8.754481030628085">
        <ele>366.8</ele>
        <time>2022-05-01T09:38:41.911Z</time>
      </trkpt>
      <trkpt lat="42.45184997096658" lon="-8.754660990089178">
        <ele>367.7</ele>
        <time>2022-05-01T09:38:48.975Z</time>
      </trkpt>
      <trkpt lat="42.4518730212003" lon="-8.754692003130913">
        <ele>367.9</ele>
        <time>2022-05-01T09:38:50.398Z</time>
      </trkpt>
      <trkpt lat="42.45193303562701" lon="-8.754797028377652">
        <ele>368.5</ele>
        <time>2022-05-01T09:38:54.560Z</time>
      </trkpt>
      <trkpt lat="42.451994977891445" lon="-8.754919990897179">
        <ele>369.1</ele>
        <time>2022-05-01T09:38:59.038Z</time>
      </trkpt>
      <trkpt lat="42.45204501785338" lon="-8.754997020587325">
        <ele>369.4</ele>
        <time>2022-05-01T09:39:01.986Z</time>
      </trkpt>
      <trkpt lat="42.45213302783668" lon="-8.755080001428723">
        <ele>369.7</ele>
        <time>2022-05-01T09:39:05.903Z</time>
      </trkpt>
      <trkpt lat="42.45224400423467" lon="-8.755139010027051">
        <ele>370.0</ele>
        <time>2022-05-01T09:39:10.148Z</time>
      </trkpt>
      <trkpt lat="42.45232799090445" lon="-8.755163988098502">
        <ele>370.1</ele>
        <time>2022-05-01T09:39:13.219Z</time>
      </trkpt>
      <trkpt lat="42.45256100781262" lon="-8.755184020847082">
        <ele>370.4</ele>
        <time>2022-05-01T09:39:21.677Z</time>
      </trkpt>
      <trkpt lat="42.452767034992576" lon="-8.755182009190321">
        <ele>371.0</ele>
        <time>2022-05-01T09:39:29.034Z</time>
      </trkpt>
      <trkpt lat="42.45279897004366" lon="-8.755184020847082">
        <ele>371.1</ele>
        <time>2022-05-01T09:39:30.201Z</time>
      </trkpt>
      <trkpt lat="42.452963003888726" lon="-8.755188966169953">
        <ele>371.8</ele>
        <time>2022-05-01T09:39:36.249Z</time>
      </trkpt>
      <trkpt lat="42.45305503718555" lon="-8.75519902445376">
        <ele>372.4</ele>
        <time>2022-05-01T09:39:39.657Z</time>
      </trkpt>
      <trkpt lat="42.4531629960984" lon="-8.755196006968617">
        <ele>372.9</ele>
        <time>2022-05-01T09:39:43.448Z</time>
      </trkpt>
      <trkpt lat="42.453343039378524" lon="-8.755214028060436">
        <ele>373.8</ele>
        <time>2022-05-01T09:39:49.802Z</time>
      </trkpt>
      <trkpt lat="42.453370029106736" lon="-8.755220985040069">
        <ele>374.0</ele>
        <time>2022-05-01T09:39:50.717Z</time>
      </trkpt>
      <trkpt lat="42.453456027433276" lon="-8.755254009738564">
        <ele>374.6</ele>
        <time>2022-05-01T09:39:53.656Z</time>
      </trkpt>
      <trkpt lat="42.45349399745464" lon="-8.755262978374958">
        <ele>374.8</ele>
        <time>2022-05-01T09:39:54.981Z</time>
      </trkpt>
      <trkpt lat="42.45359399355948" lon="-8.755276976153255">
        <ele>375.5</ele>
        <time>2022-05-01T09:39:58.485Z</time>
      </trkpt>
      <trkpt lat="42.45371603406966" lon="-8.755297008901834">
        <ele>376.2</ele>
        <time>2022-05-01T09:40:02.760Z</time>
      </trkpt>
      <trkpt lat="42.4538379907608" lon="-8.755333973094821">
        <ele>377.0</ele>
        <time>2022-05-01T09:40:06.930Z</time>
      </trkpt>
      <trkpt lat="42.45391099713743" lon="-8.75535199418664">
        <ele>377.5</ele>
        <time>2022-05-01T09:40:09.387Z</time>
      </trkpt>
      <trkpt lat="42.45408399961889" lon="-8.755383007228374">
        <ele>378.7</ele>
        <time>2022-05-01T09:40:15.186Z</time>
      </trkpt>
      <trkpt lat="42.454120963811874" lon="-8.755387030541897">
        <ele>379.0</ele>
        <time>2022-05-01T09:40:16.365Z</time>
      </trkpt>
      <trkpt lat="42.45431701652706" lon="-8.7554369866848">
        <ele>379.6</ele>
        <time>2022-05-01T09:40:22.672Z</time>
      </trkpt>
      <trkpt lat="42.45441198348999" lon="-8.755423994734883">
        <ele>379.8</ele>
        <time>2022-05-01T09:40:25.789Z</time>
      </trkpt>
      <trkpt lat="42.454442996531725" lon="-8.75541896559298">
        <ele>379.9</ele>
        <time>2022-05-01T09:40:26.799Z</time>
      </trkpt>
      <trkpt lat="42.45468699373305" lon="-8.755370015278459">
        <ele>380.1</ele>
        <time>2022-05-01T09:40:34.608Z</time>
      </trkpt>
      <trkpt lat="42.45496703311801" lon="-8.75537102110684">
        <ele>380.2</ele>
        <time>2022-05-01T09:40:43.210Z</time>
      </trkpt>
      <trkpt lat="42.45518697425723" lon="-8.7554369866848">
        <ele>380.0</ele>
        <time>2022-05-01T09:40:49.933Z</time>
      </trkpt>
      <trkpt lat="42.455323012545705" lon="-8.755432963371277">
        <ele>380.0</ele>
        <time>2022-05-01T09:40:53.896Z</time>
      </trkpt>
      <trkpt lat="42.45554303750396" lon="-8.755404967814684">
        <ele>380.2</ele>
        <time>2022-05-01T09:41:00.201Z</time>
      </trkpt>
      <trkpt lat="42.45561797171831" lon="-8.755591968074441">
        <ele>379.5</ele>
        <time>2022-05-01T09:41:04.606Z</time>
      </trkpt>
      <trkpt lat="42.455731965601444" lon="-8.755968986079097">
        <ele>379.2</ele>
        <time>2022-05-01T09:41:12.951Z</time>
      </trkpt>
      <trkpt lat="42.455796003341675" lon="-8.756177024915814">
        <ele>379.4</ele>
        <time>2022-05-01T09:41:17.560Z</time>
      </trkpt>
      <trkpt lat="42.45583296753466" lon="-8.756269980221987">
        <ele>379.6</ele>
        <time>2022-05-01T09:41:19.731Z</time>
      </trkpt>
      <trkpt lat="42.45589298196137" lon="-8.756475001573563">
        <ele>379.8</ele>
        <time>2022-05-01T09:41:24.505Z</time>
      </trkpt>
      <trkpt lat="42.45592801831663" lon="-8.756714975461364">
        <ele>380.2</ele>
        <time>2022-05-01T09:41:30.095Z</time>
      </trkpt>
      <trkpt lat="42.45600001886487" lon="-8.756870040670037">
        <ele>380.8</ele>
        <time>2022-05-01T09:41:34.681Z</time>
      </trkpt>
      <trkpt lat="42.45604997500777" lon="-8.75700800679624">
        <ele>381.5</ele>
        <time>2022-05-01T09:41:38.479Z</time>
      </trkpt>
      <trkpt lat="42.45604997500777" lon="-8.757046982645988">
        <ele>381.6</ele>
        <time>2022-05-01T09:41:39.399Z</time>
      </trkpt>
      <trkpt lat="42.45606003329158" lon="-8.757232977077365">
        <ele>382.5</ele>
        <time>2022-05-01T09:41:44.214Z</time>
      </trkpt>
      <trkpt lat="42.45606900192797" lon="-8.757262984290719">
        <ele>382.8</ele>
        <time>2022-05-01T09:41:45.006Z</time>
      </trkpt>
      <trkpt lat="42.45609196834266" lon="-8.757373038679361">
        <ele>383.7</ele>
        <time>2022-05-01T09:41:47.782Z</time>
      </trkpt>
      <trkpt lat="42.45610496029258" lon="-8.757469011470675">
        <ele>384.6</ele>
        <time>2022-05-01T09:41:50.328Z</time>
      </trkpt>
      <trkpt lat="42.4561229813844" lon="-8.757531959563494">
        <ele>385.4</ele>
        <time>2022-05-01T09:41:51.994Z</time>
      </trkpt>
      <trkpt lat="42.45614896528423" lon="-8.757642013952136">
        <ele>386.7</ele>
        <time>2022-05-01T09:41:54.721Z</time>
      </trkpt>
      <trkpt lat="42.45617100968957" lon="-8.757718037813902">
        <ele>387.7</ele>
        <time>2022-05-01T09:41:56.710Z</time>
      </trkpt>
      <trkpt lat="42.45619498193264" lon="-8.757796995341778">
        <ele>388.8</ele>
        <time>2022-05-01T09:41:58.901Z</time>
      </trkpt>
      <trkpt lat="42.456203028559685" lon="-8.757825996726751">
        <ele>389.2</ele>
        <time>2022-05-01T09:41:59.655Z</time>
      </trkpt>
      <trkpt lat="42.45621803216636" lon="-8.757938984781504">
        <ele>390.8</ele>
        <time>2022-05-01T09:42:02.454Z</time>
      </trkpt>
      <trkpt lat="42.45621903799474" lon="-8.75797200948">
        <ele>391.3</ele>
        <time>2022-05-01T09:42:03.226Z</time>
      </trkpt>
      <trkpt lat="42.45622096583247" lon="-8.75803504139185">
        <ele>392.1</ele>
        <time>2022-05-01T09:42:04.685Z</time>
      </trkpt>
      <trkpt lat="42.45618802495301" lon="-8.758160015568137">
        <ele>393.1</ele>
        <time>2022-05-01T09:42:07.751Z</time>
      </trkpt>
      <trkpt lat="42.45614502578974" lon="-8.758299993351102">
        <ele>394.0</ele>
        <time>2022-05-01T09:42:11.479Z</time>
      </trkpt>
      <trkpt lat="42.45612901635468" lon="-8.758371993899345">
        <ele>394.2</ele>
        <time>2022-05-01T09:42:13.260Z</time>
      </trkpt>
      <trkpt lat="42.4561089836061" lon="-8.75844600610435">
        <ele>394.3</ele>
        <time>2022-05-01T09:42:15.060Z</time>
      </trkpt>
      <trkpt lat="42.45606397278607" lon="-8.758611967787147">
        <ele>394.1</ele>
        <time>2022-05-01T09:42:19.387Z</time>
      </trkpt>
      <trkpt lat="42.456033965572715" lon="-8.758923020213842">
        <ele>393.1</ele>
        <time>2022-05-01T09:42:27.214Z</time>
      </trkpt>
      <trkpt lat="42.45604603551328" lon="-8.758980017155409">
        <ele>393.1</ele>
        <time>2022-05-01T09:42:28.625Z</time>
      </trkpt>
      <trkpt lat="42.456075036898255" lon="-8.75917699187994">
        <ele>391.7</ele>
        <time>2022-05-01T09:42:33.414Z</time>
      </trkpt>
      <trkpt lat="42.45619095861912" lon="-8.759386958554387">
        <ele>391.2</ele>
        <time>2022-05-01T09:42:39.426Z</time>
      </trkpt>
      <trkpt lat="42.45626002550125" lon="-8.759462982416153">
        <ele>391.5</ele>
        <time>2022-05-01T09:42:42.104Z</time>
      </trkpt>
      <trkpt lat="42.456334959715605" lon="-8.759536994621158">
        <ele>391.8</ele>
        <time>2022-05-01T09:42:44.788Z</time>
      </trkpt>
      <trkpt lat="42.456420036032796" lon="-8.75960698351264">
        <ele>392.3</ele>
        <time>2022-05-01T09:42:47.557Z</time>
      </trkpt>
      <trkpt lat="42.45653696358204" lon="-8.759697005152702">
        <ele>393.0</ele>
        <time>2022-05-01T09:42:51.207Z</time>
      </trkpt>
      <trkpt lat="42.45662597939372" lon="-8.759791972115636">
        <ele>393.3</ele>
        <time>2022-05-01T09:42:54.258Z</time>
      </trkpt>
      <trkpt lat="42.45672496967018" lon="-8.759958017617464">
        <ele>392.9</ele>
        <time>2022-05-01T09:42:58.442Z</time>
      </trkpt>
      <trkpt lat="42.45681599713862" lon="-8.760091038420796">
        <ele>392.6</ele>
        <time>2022-05-01T09:43:01.985Z</time>
      </trkpt>
      <trkpt lat="42.45687902905047" lon="-8.760168990120292">
        <ele>392.5</ele>
        <time>2022-05-01T09:43:04.232Z</time>
      </trkpt>
      <trkpt lat="42.456955974921584" lon="-8.760221963748336">
        <ele>392.8</ele>
        <time>2022-05-01T09:43:06.511Z</time>
      </trkpt>
      <trkpt lat="42.4570810329169" lon="-8.76029103063047">
        <ele>393.3</ele>
        <time>2022-05-01T09:43:10.077Z</time>
      </trkpt>
      <trkpt lat="42.457125037908554" lon="-8.760325983166695">
        <ele>393.3</ele>
        <time>2022-05-01T09:43:11.417Z</time>
      </trkpt>
      <trkpt lat="42.45727297849953" lon="-8.760407958179712">
        <ele>393.2</ele>
        <time>2022-05-01T09:43:15.607Z</time>
      </trkpt>
      <trkpt lat="42.457320000976324" lon="-8.760448023676872">
        <ele>393.2</ele>
        <time>2022-05-01T09:43:17.063Z</time>
      </trkpt>
      <trkpt lat="42.457600040361285" lon="-8.760653967037797">
        <ele>393.5</ele>
        <time>2022-05-01T09:43:25.416Z</time>
      </trkpt>
      <trkpt lat="42.457686038687825" lon="-8.76072596758604">
        <ele>393.3</ele>
        <time>2022-05-01T09:43:28.150Z</time>
      </trkpt>
      <trkpt lat="42.45788401924074" lon="-8.76091598533094">
        <ele>393.3</ele>
        <time>2022-05-01T09:43:34.680Z</time>
      </trkpt>
      <trkpt lat="42.45796096511185" lon="-8.761000977829099">
        <ele>393.5</ele>
        <time>2022-05-01T09:43:37.357Z</time>
      </trkpt>
      <trkpt lat="42.4580239970237" lon="-8.761115977540612">
        <ele>394.1</ele>
        <time>2022-05-01T09:43:40.191Z</time>
      </trkpt>
      <trkpt lat="42.458054004237056" lon="-8.761168029159307">
        <ele>394.4</ele>
        <time>2022-05-01T09:43:41.505Z</time>
      </trkpt>
      <trkpt lat="42.458117958158255" lon="-8.76126199029386">
        <ele>395.0</ele>
        <time>2022-05-01T09:43:44.039Z</time>
      </trkpt>
      <trkpt lat="42.45818601921201" lon="-8.761334996670485">
        <ele>395.4</ele>
        <time>2022-05-01T09:43:46.354Z</time>
      </trkpt>
      <trkpt lat="42.45833798311651" lon="-8.761446978896856">
        <ele>395.7</ele>
        <time>2022-05-01T09:43:50.945Z</time>
      </trkpt>
      <trkpt lat="42.458378970623016" lon="-8.761471034958959">
        <ele>395.8</ele>
        <time>2022-05-01T09:43:52.127Z</time>
      </trkpt>
      <trkpt lat="42.45853303000331" lon="-8.761566001921892">
        <ele>396.0</ele>
        <time>2022-05-01T09:43:56.595Z</time>
      </trkpt>
      <trkpt lat="42.45864199474454" lon="-8.761620987206697">
        <ele>396.1</ele>
        <time>2022-05-01T09:43:59.649Z</time>
      </trkpt>
      <trkpt lat="42.45888297446072" lon="-8.761799018830061">
        <ele>396.2</ele>
        <time>2022-05-01T09:44:06.625Z</time>
      </trkpt>
      <trkpt lat="42.45918799191713" lon="-8.761974032968283">
        <ele>395.5</ele>
        <time>2022-05-01T09:44:14.647Z</time>
      </trkpt>
      <trkpt lat="42.45924901217222" lon="-8.761999011039734">
        <ele>395.3</ele>
        <time>2022-05-01T09:44:16.150Z</time>
      </trkpt>
      <trkpt lat="42.45935797691345" lon="-8.762061037123203">
        <ele>394.6</ele>
        <time>2022-05-01T09:44:18.624Z</time>
      </trkpt>
      <trkpt lat="42.45943601243198" lon="-8.76212197355926">
        <ele>393.8</ele>
        <time>2022-05-01T09:44:20.562Z</time>
      </trkpt>
      <trkpt lat="42.45947498828173" lon="-8.762143012136221">
        <ele>393.3</ele>
        <time>2022-05-01T09:44:21.368Z</time>
      </trkpt>
      <trkpt lat="42.4595039896667" lon="-8.762150974944234">
        <ele>393.0</ele>
        <time>2022-05-01T09:44:21.958Z</time>
      </trkpt>
      <trkpt lat="42.45954296551645" lon="-8.762100012972951">
        <ele>393.4</ele>
        <time>2022-05-01T09:44:23.077Z</time>
      </trkpt>
      <trkpt lat="42.45955000631511" lon="-8.762080986052752">
        <ele>393.6</ele>
        <time>2022-05-01T09:44:23.411Z</time>
      </trkpt>
      <trkpt lat="42.45960901491344" lon="-8.762082997709513">
        <ele>393.2</ele>
        <time>2022-05-01T09:44:24.430Z</time>
      </trkpt>
      <trkpt lat="42.45965100824833" lon="-8.762124991044402">
        <ele>392.5</ele>
        <time>2022-05-01T09:44:25.377Z</time>
      </trkpt>
      <trkpt lat="42.45978796854615" lon="-8.762230016291142">
        <ele>389.6</ele>
        <time>2022-05-01T09:44:27.749Z</time>
      </trkpt>
      <trkpt lat="42.46001604013145" lon="-8.762236973270774">
        <ele>386.4</ele>
        <time>2022-05-01T09:44:30.988Z</time>
      </trkpt>
      <trkpt lat="42.460220977663994" lon="-8.762237979099154">
        <ele>384.0</ele>
        <time>2022-05-01T09:44:33.572Z</time>
      </trkpt>
      <trkpt lat="42.46035601012409" lon="-8.762243008241057">
        <ele>382.5</ele>
        <time>2022-05-01T09:44:35.255Z</time>
      </trkpt>
      <trkpt lat="42.46049297042191" lon="-8.762253988534212">
        <ele>380.7</ele>
        <time>2022-05-01T09:44:37.157Z</time>
      </trkpt>
      <trkpt lat="42.460553990677" lon="-8.762265974655747">
        <ele>379.9</ele>
        <time>2022-05-01T09:44:37.924Z</time>
      </trkpt>
      <trkpt lat="42.46061400510371" lon="-8.762281984090805">
        <ele>378.9</ele>
        <time>2022-05-01T09:44:38.749Z</time>
      </trkpt>
      <trkpt lat="42.46066798456013" lon="-8.762297993525863">
        <ele>378.0</ele>
        <time>2022-05-01T09:44:39.551Z</time>
      </trkpt>
      <trkpt lat="42.46072003617883" lon="-8.762317020446062">
        <ele>377.0</ele>
        <time>2022-05-01T09:44:40.297Z</time>
      </trkpt>
      <trkpt lat="42.46081600897014" lon="-8.762360019609332">
        <ele>375.1</ele>
        <time>2022-05-01T09:44:41.800Z</time>
      </trkpt>
      <trkpt lat="42.46089999563992" lon="-8.762396983802319">
        <ele>373.2</ele>
        <time>2022-05-01T09:44:43.201Z</time>
      </trkpt>
      <trkpt lat="42.46093796566129" lon="-8.762408969923854">
        <ele>372.5</ele>
        <time>2022-05-01T09:44:43.762Z</time>
      </trkpt>
      <trkpt lat="42.460975013673306" lon="-8.762416010722518">
        <ele>371.8</ele>
        <time>2022-05-01T09:44:44.338Z</time>
      </trkpt>
      <trkpt lat="42.46105003170669" lon="-8.76241902820766">
        <ele>370.5</ele>
        <time>2022-05-01T09:44:45.569Z</time>
      </trkpt>
      <trkpt lat="42.461125971749425" lon="-8.762411987408996">
        <ele>369.3</ele>
        <time>2022-05-01T09:44:46.815Z</time>
      </trkpt>
      <trkpt lat="42.46116301976144" lon="-8.762406036257744">
        <ele>368.7</ele>
        <time>2022-05-01T09:44:47.460Z</time>
      </trkpt>
      <trkpt lat="42.46119897812605" lon="-8.762402012944221">
        <ele>368.1</ele>
        <time>2022-05-01T09:44:48.117Z</time>
      </trkpt>
      <trkpt lat="42.461253963410854" lon="-8.762403018772602">
        <ele>367.2</ele>
        <time>2022-05-01T09:44:49.077Z</time>
      </trkpt>
      <trkpt lat="42.46126997284591" lon="-8.762406958267093">
        <ele>366.9</ele>
        <time>2022-05-01T09:44:49.374Z</time>
      </trkpt>
      <trkpt lat="42.46128195896745" lon="-8.762411987408996">
        <ele>366.9</ele>
        <time>2022-05-01T09:44:49.614Z</time>
      </trkpt>
      <trkpt lat="42.461295034736395" lon="-8.762431014329195">
        <ele>366.7</ele>
        <time>2022-05-01T09:44:49.995Z</time>
      </trkpt>
      <trkpt lat="42.46130199171603" lon="-8.762458004057407">
        <ele>366.5</ele>
        <time>2022-05-01T09:44:50.429Z</time>
      </trkpt>
      <trkpt lat="42.46128799393773" lon="-8.76250603236258">
        <ele>366.2</ele>
        <time>2022-05-01T09:44:51.237Z</time>
      </trkpt>
      <trkpt lat="42.461295034736395" lon="-8.762509971857071">
        <ele>366.1</ele>
        <time>2022-05-01T09:44:51.402Z</time>
      </trkpt>
      <trkpt lat="42.46128195896745" lon="-8.762540984898806">
        <ele>365.9</ele>
        <time>2022-05-01T09:44:51.988Z</time>
      </trkpt>
      <trkpt lat="42.461234014481306" lon="-8.762562023475766">
        <ele>366.2</ele>
        <time>2022-05-01T09:44:53.132Z</time>
      </trkpt>
      <trkpt lat="42.46111599728465" lon="-8.762630000710487">
        <ele>367.1</ele>
        <time>2022-05-01T09:44:56.097Z</time>
      </trkpt>
      <trkpt lat="42.461083978414536" lon="-8.762651039287448">
        <ele>367.2</ele>
        <time>2022-05-01T09:44:56.931Z</time>
      </trkpt>
      <trkpt lat="42.46088499203324" lon="-8.762754974886775">
        <ele>367.9</ele>
        <time>2022-05-01T09:45:02.000Z</time>
      </trkpt>
      <trkpt lat="42.46074300259352" lon="-8.762800991535187">
        <ele>368.5</ele>
        <time>2022-05-01T09:45:05.508Z</time>
      </trkpt>
      <trkpt lat="42.46059103868902" lon="-8.762820018455386">
        <ele>369.7</ele>
        <time>2022-05-01T09:45:09.209Z</time>
      </trkpt>
      <trkpt lat="42.46051199734211" lon="-8.762820018455386">
        <ele>370.3</ele>
        <time>2022-05-01T09:45:11.141Z</time>
      </trkpt>
      <trkpt lat="42.460331032052636" lon="-8.762795962393284">
        <ele>372.3</ele>
        <time>2022-05-01T09:45:15.622Z</time>
      </trkpt>
      <trkpt lat="42.460294989869" lon="-8.762791017070413">
        <ele>372.7</ele>
        <time>2022-05-01T09:45:16.520Z</time>
      </trkpt>
      <trkpt lat="42.46010899543762" lon="-8.76280602067709">
        <ele>373.4</ele>
        <time>2022-05-01T09:45:21.162Z</time>
      </trkpt>
      <trkpt lat="42.460070019587874" lon="-8.762817000970244">
        <ele>373.6</ele>
        <time>2022-05-01T09:45:22.157Z</time>
      </trkpt>
      <trkpt lat="42.459924006834626" lon="-8.76285295933485">
        <ele>374.2</ele>
        <time>2022-05-01T09:45:25.901Z</time>
      </trkpt>
      <trkpt lat="42.45981001295149" lon="-8.762878021225333">
        <ele>374.8</ele>
        <time>2022-05-01T09:45:28.821Z</time>
      </trkpt>
      <trkpt lat="42.45973398908973" lon="-8.76289595849812">
        <ele>375.1</ele>
        <time>2022-05-01T09:45:30.800Z</time>
      </trkpt>
      <trkpt lat="42.459493009373546" lon="-8.76293602399528">
        <ele>375.2</ele>
        <time>2022-05-01T09:45:37.730Z</time>
      </trkpt>
      <trkpt lat="42.45915102772415" lon="-8.76293702982366">
        <ele>375.3</ele>
        <time>2022-05-01T09:45:47.511Z</time>
      </trkpt>
      <trkpt lat="42.45904499664903" lon="-8.762928983196616">
        <ele>375.4</ele>
        <time>2022-05-01T09:45:50.496Z</time>
      </trkpt>
      <trkpt lat="42.458888003602624" lon="-8.762928983196616">
        <ele>375.1</ele>
        <time>2022-05-01T09:45:55.085Z</time>
      </trkpt>
      <trkpt lat="42.45883796364069" lon="-8.762924959883094">
        <ele>375.1</ele>
        <time>2022-05-01T09:45:56.594Z</time>
      </trkpt>
      <trkpt lat="42.45854903943837" lon="-8.76289302483201">
        <ele>376.0</ele>
        <time>2022-05-01T09:46:05.236Z</time>
      </trkpt>
      <trkpt lat="42.45827897451818" lon="-8.762910962104797">
        <ele>377.0</ele>
        <time>2022-05-01T09:46:13.111Z</time>
      </trkpt>
      <trkpt lat="42.45806699618697" lon="-8.762921020388603">
        <ele>378.6</ele>
        <time>2022-05-01T09:46:19.279Z</time>
      </trkpt>
      <trkpt lat="42.457988960668445" lon="-8.7629350181669">
        <ele>378.8</ele>
        <time>2022-05-01T09:46:21.422Z</time>
      </trkpt>
      <trkpt lat="42.457945961505175" lon="-8.762940969318151">
        <ele>378.9</ele>
        <time>2022-05-01T09:46:22.637Z</time>
      </trkpt>
      <trkpt lat="42.457859963178635" lon="-8.762955972924829">
        <ele>379.1</ele>
        <time>2022-05-01T09:46:25.036Z</time>
      </trkpt>
      <trkpt lat="42.457688972353935" lon="-8.762991009280086">
        <ele>378.9</ele>
        <time>2022-05-01T09:46:29.765Z</time>
      </trkpt>
      <trkpt lat="42.457603979855776" lon="-8.76300098374486">
        <ele>378.9</ele>
        <time>2022-05-01T09:46:31.883Z</time>
      </trkpt>
      <trkpt lat="42.457344979047775" lon="-8.763008024543524">
        <ele>378.9</ele>
        <time>2022-05-01T09:46:38.090Z</time>
      </trkpt>
      <trkpt lat="42.457301979884505" lon="-8.7630230281502">
        <ele>378.7</ele>
        <time>2022-05-01T09:46:38.896Z</time>
      </trkpt>
      <trkpt lat="42.45716501958668" lon="-8.763113971799612">
        <ele>376.9</ele>
        <time>2022-05-01T09:46:41.571Z</time>
      </trkpt>
      <trkpt lat="42.45711296796799" lon="-8.763154037296772">
        <ele>376.1</ele>
        <time>2022-05-01T09:46:42.672Z</time>
      </trkpt>
      <trkpt lat="42.45705597102642" lon="-8.763192007318139">
        <ele>375.0</ele>
        <time>2022-05-01T09:46:43.742Z</time>
      </trkpt>
      <trkpt lat="42.456783978268504" lon="-8.763317987322807">
        <ele>371.1</ele>
        <time>2022-05-01T09:46:47.984Z</time>
      </trkpt>
      <trkpt lat="42.456551967188716" lon="-8.763423012569547">
        <ele>368.5</ele>
        <time>2022-05-01T09:46:51.325Z</time>
      </trkpt>
      <trkpt lat="42.45647803880274" lon="-8.763468023389578">
        <ele>367.8</ele>
        <time>2022-05-01T09:46:52.396Z</time>
      </trkpt>
      <trkpt lat="42.45640897192061" lon="-8.76351797953248">
        <ele>366.9</ele>
        <time>2022-05-01T09:46:53.544Z</time>
      </trkpt>
      <trkpt lat="42.45627704076469" lon="-8.763631973415613">
        <ele>365.0</ele>
        <time>2022-05-01T09:46:56.055Z</time>
      </trkpt>
      <trkpt lat="42.45621300302446" lon="-8.76368997618556">
        <ele>364.0</ele>
        <time>2022-05-01T09:46:57.409Z</time>
      </trkpt>
      <trkpt lat="42.45615600608289" lon="-8.763744961470366">
        <ele>362.8</ele>
        <time>2022-05-01T09:46:58.699Z</time>
      </trkpt>
      <trkpt lat="42.456051986664534" lon="-8.763849986717105">
        <ele>360.5</ele>
        <time>2022-05-01T09:47:01.198Z</time>
      </trkpt>
      <trkpt lat="42.45597403496504" lon="-8.763954006135464">
        <ele>358.4</ele>
        <time>2022-05-01T09:47:03.217Z</time>
      </trkpt>
      <trkpt lat="42.45589801110327" lon="-8.764065988361835">
        <ele>355.6</ele>
        <time>2022-05-01T09:47:05.380Z</time>
      </trkpt>
      <trkpt lat="42.45582299306989" lon="-8.76416196115315">
        <ele>353.5</ele>
        <time>2022-05-01T09:47:07.288Z</time>
      </trkpt>
      <trkpt lat="42.4557670019567" lon="-8.76422700472176">
        <ele>352.4</ele>
        <time>2022-05-01T09:47:08.550Z</time>
      </trkpt>
      <trkpt lat="42.45574001222849" lon="-8.764257011935115">
        <ele>351.9</ele>
        <time>2022-05-01T09:47:09.178Z</time>
      </trkpt>
      <trkpt lat="42.45571402832866" lon="-8.76428802497685">
        <ele>351.1</ele>
        <time>2022-05-01T09:47:09.830Z</time>
      </trkpt>
      <trkpt lat="42.455686032772064" lon="-8.764314008876681">
        <ele>350.3</ele>
        <time>2022-05-01T09:47:10.360Z</time>
      </trkpt>
      <trkpt lat="42.4556599650532" lon="-8.764338986948133">
        <ele>349.5</ele>
        <time>2022-05-01T09:47:10.890Z</time>
      </trkpt>
      <trkpt lat="42.455623000860214" lon="-8.764380980283022">
        <ele>348.2</ele>
        <time>2022-05-01T09:47:11.735Z</time>
      </trkpt>
      <trkpt lat="42.45560799725354" lon="-8.764401013031602">
        <ele>347.7</ele>
        <time>2022-05-01T09:47:12.122Z</time>
      </trkpt>
      <trkpt lat="42.455600034445524" lon="-8.764425991103053">
        <ele>347.2</ele>
        <time>2022-05-01T09:47:12.507Z</time>
      </trkpt>
      <trkpt lat="42.45562098920345" lon="-8.764465972781181">
        <ele>346.7</ele>
        <time>2022-05-01T09:47:13.074Z</time>
      </trkpt>
      <trkpt lat="42.45566097088158" lon="-8.76448298804462">
        <ele>346.9</ele>
        <time>2022-05-01T09:47:13.771Z</time>
      </trkpt>
      <trkpt lat="42.455690978094935" lon="-8.76448499970138">
        <ele>347.1</ele>
        <time>2022-05-01T09:47:14.299Z</time>
      </trkpt>
      <trkpt lat="42.45572702027857" lon="-8.764483993873">
        <ele>347.5</ele>
        <time>2022-05-01T09:47:14.963Z</time>
      </trkpt>
      <trkpt lat="42.455771025270224" lon="-8.764479970559478">
        <ele>347.5</ele>
        <time>2022-05-01T09:47:15.812Z</time>
      </trkpt>
      <trkpt lat="42.455819975584745" lon="-8.764474019408226">
        <ele>347.5</ele>
        <time>2022-05-01T09:47:16.794Z</time>
      </trkpt>
      <trkpt lat="42.45593103580177" lon="-8.764453986659646">
        <ele>347.5</ele>
        <time>2022-05-01T09:47:19.111Z</time>
      </trkpt>
      <trkpt lat="42.456248961389065" lon="-8.764389026910067">
        <ele>346.1</ele>
        <time>2022-05-01T09:47:25.961Z</time>
      </trkpt>
      <trkpt lat="42.45630897581577" lon="-8.764363965019584">
        <ele>346.2</ele>
        <time>2022-05-01T09:47:27.333Z</time>
      </trkpt>
      <trkpt lat="42.45649798773229" lon="-8.764309985563159">
        <ele>346.2</ele>
        <time>2022-05-01T09:47:31.605Z</time>
      </trkpt>
      <trkpt lat="42.45662799105048" lon="-8.764285007491708">
        <ele>346.3</ele>
        <time>2022-05-01T09:47:34.570Z</time>
      </trkpt>
      <trkpt lat="42.45689897798002" lon="-8.764256006106734">
        <ele>346.3</ele>
        <time>2022-05-01T09:47:40.790Z</time>
      </trkpt>
      <trkpt lat="42.45696703903377" lon="-8.764256006106734">
        <ele>346.3</ele>
        <time>2022-05-01T09:47:42.372Z</time>
      </trkpt>
      <trkpt lat="42.45726702734828" lon="-8.764223987236619">
        <ele>346.1</ele>
        <time>2022-05-01T09:47:47.886Z</time>
      </trkpt>
      <trkpt lat="42.45765896514058" lon="-8.764090966433287">
        <ele>347.5</ele>
        <time>2022-05-01T09:47:55.654Z</time>
      </trkpt>
      <trkpt lat="42.45801796205342" lon="-8.763980995863676">
        <ele>347.9</ele>
        <time>2022-05-01T09:48:03.049Z</time>
      </trkpt>
      <trkpt lat="42.458310993388295" lon="-8.763836994767189">
        <ele>348.2</ele>
        <time>2022-05-01T09:48:09.326Z</time>
      </trkpt>
      <trkpt lat="42.45836103335023" lon="-8.7637950014323">
        <ele>348.7</ele>
        <time>2022-05-01T09:48:10.550Z</time>
      </trkpt>
      <trkpt lat="42.458549961447716" lon="-8.76364798285067">
        <ele>350.9</ele>
        <time>2022-05-01T09:48:15.206Z</time>
      </trkpt>
      <trkpt lat="42.45868801139295" lon="-8.763714032247663">
        <ele>348.5</ele>
        <time>2022-05-01T09:48:18.045Z</time>
      </trkpt>
      <trkpt lat="42.458892026916146" lon="-8.763829031959176">
        <ele>345.7</ele>
        <time>2022-05-01T09:48:22.240Z</time>
      </trkpt>
      <trkpt lat="42.458999985828996" lon="-8.763869013637304">
        <ele>344.9</ele>
        <time>2022-05-01T09:48:23.996Z</time>
      </trkpt>
      <trkpt lat="42.459190003573895" lon="-8.763945959508419">
        <ele>342.7</ele>
        <time>2022-05-01T09:48:26.794Z</time>
      </trkpt>
      <trkpt lat="42.459512036293745" lon="-8.764089038595557">
        <ele>338.2</ele>
        <time>2022-05-01T09:48:31.160Z</time>
      </trkpt>
      <trkpt lat="42.45959199965" lon="-8.764129020273685">
        <ele>337.2</ele>
        <time>2022-05-01T09:48:32.157Z</time>
      </trkpt>
      <trkpt lat="42.459814958274364" lon="-8.764235973358154">
        <ele>333.5</ele>
        <time>2022-05-01T09:48:34.837Z</time>
      </trkpt>
      <trkpt lat="42.45988201349974" lon="-8.764275033026934">
        <ele>332.2</ele>
        <time>2022-05-01T09:48:35.755Z</time>
      </trkpt>
      <trkpt lat="42.4599530082196" lon="-8.764319038018584">
        <ele>330.3</ele>
        <time>2022-05-01T09:48:36.654Z</time>
      </trkpt>
      <trkpt lat="42.460118969902396" lon="-8.764408975839615">
        <ele>326.5</ele>
        <time>2022-05-01T09:48:38.753Z</time>
      </trkpt>
      <trkpt lat="42.460203962400556" lon="-8.764446023851633">
        <ele>325.2</ele>
        <time>2022-05-01T09:48:39.923Z</time>
      </trkpt>
      <trkpt lat="42.460286021232605" lon="-8.764490028843284">
        <ele>323.9</ele>
        <time>2022-05-01T09:48:41.171Z</time>
      </trkpt>
      <trkpt lat="42.460435973480344" lon="-8.764595976099372">
        <ele>320.7</ele>
        <time>2022-05-01T09:48:43.497Z</time>
      </trkpt>
      <trkpt lat="42.46050504036248" lon="-8.764664959162474">
        <ele>318.7</ele>
        <time>2022-05-01T09:48:44.764Z</time>
      </trkpt>
      <trkpt lat="42.46057100594044" lon="-8.76474098302424">
        <ele>316.5</ele>
        <time>2022-05-01T09:48:46.130Z</time>
      </trkpt>
      <trkpt lat="42.46063403785229" lon="-8.764821030199528">
        <ele>314.7</ele>
        <time>2022-05-01T09:48:47.451Z</time>
      </trkpt>
      <trkpt lat="42.460691034793854" lon="-8.764900993555784">
        <ele>313.0</ele>
        <time>2022-05-01T09:48:48.667Z</time>
      </trkpt>
      <trkpt lat="42.46074199676514" lon="-8.76497802324593">
        <ele>311.4</ele>
        <time>2022-05-01T09:48:49.767Z</time>
      </trkpt>
      <trkpt lat="42.46078901924193" lon="-8.76504197716713">
        <ele>310.4</ele>
        <time>2022-05-01T09:48:50.794Z</time>
      </trkpt>
      <trkpt lat="42.46083000674844" lon="-8.765090005472302">
        <ele>309.9</ele>
        <time>2022-05-01T09:48:51.682Z</time>
      </trkpt>
      <trkpt lat="42.460864037275314" lon="-8.765123030170798">
        <ele>309.6</ele>
        <time>2022-05-01T09:48:52.290Z</time>
      </trkpt>
      <trkpt lat="42.46089102700353" lon="-8.76514901407063">
        <ele>309.4</ele>
        <time>2022-05-01T09:48:52.804Z</time>
      </trkpt>
      <trkpt lat="42.46090795844793" lon="-8.765177009627223">
        <ele>309.0</ele>
        <time>2022-05-01T09:48:53.244Z</time>
      </trkpt>
      <trkpt lat="42.460906030610204" lon="-8.765202993527055">
        <ele>308.4</ele>
        <time>2022-05-01T09:48:53.580Z</time>
      </trkpt>
      <trkpt lat="42.460887003690004" lon="-8.765207016840577">
        <ele>308.1</ele>
        <time>2022-05-01T09:48:53.932Z</time>
      </trkpt>
      <trkpt lat="42.460863031446934" lon="-8.765194024890661">
        <ele>308.1</ele>
        <time>2022-05-01T09:48:54.425Z</time>
      </trkpt>
      <trkpt lat="42.460844004526734" lon="-8.76517097465694">
        <ele>308.3</ele>
        <time>2022-05-01T09:48:54.933Z</time>
      </trkpt>
      <trkpt lat="42.460826989263296" lon="-8.76514800824225">
        <ele>308.6</ele>
        <time>2022-05-01T09:48:55.427Z</time>
      </trkpt>
      <trkpt lat="42.46081399731338" lon="-8.765130992978811">
        <ele>308.8</ele>
        <time>2022-05-01T09:48:55.810Z</time>
      </trkpt>
      <trkpt lat="42.4608079623431" lon="-8.765120012685657">
        <ele>308.9</ele>
        <time>2022-05-01T09:48:56.029Z</time>
      </trkpt>
      <trkpt lat="42.4608079623431" lon="-8.765115989372134">
        <ele>309.0</ele>
        <time>2022-05-01T09:48:56.094Z</time>
      </trkpt>
      <trkpt lat="42.46083403006196" lon="-8.765113977715373">
        <ele>309.4</ele>
        <time>2022-05-01T09:48:56.687Z</time>
      </trkpt>
      <trkpt lat="42.46084199286997" lon="-8.765094028785825">
        <ele>310.0</ele>
        <time>2022-05-01T09:48:57.073Z</time>
      </trkpt>
      <trkpt lat="42.46080502867699" lon="-8.765040971338749">
        <ele>310.6</ele>
        <time>2022-05-01T09:48:58.336Z</time>
      </trkpt>
      <trkpt lat="42.460780972614884" lon="-8.765029991045594">
        <ele>310.6</ele>
        <time>2022-05-01T09:48:58.939Z</time>
      </trkpt>
      <trkpt lat="42.46070796623826" lon="-8.765009958297014">
        <ele>310.3</ele>
        <time>2022-05-01T09:49:00.728Z</time>
      </trkpt>
      <trkpt lat="42.46065901592374" lon="-8.765004007145762">
        <ele>310.0</ele>
        <time>2022-05-01T09:49:01.920Z</time>
      </trkpt>
      <trkpt lat="42.460546027868986" lon="-8.76499897800386">
        <ele>309.3</ele>
        <time>2022-05-01T09:49:04.684Z</time>
      </trkpt>
      <trkpt lat="42.46036003343761" lon="-8.765023034065962">
        <ele>308.4</ele>
        <time>2022-05-01T09:49:09.284Z</time>
      </trkpt>
      <trkpt lat="42.46000397019088" lon="-8.76501901075244">
        <ele>308.9</ele>
        <time>2022-05-01T09:49:18.117Z</time>
      </trkpt>
      <trkpt lat="42.45963801629841" lon="-8.764949021860957">
        <ele>309.8</ele>
        <time>2022-05-01T09:49:27.394Z</time>
      </trkpt>
      <trkpt lat="42.459427965804935" lon="-8.764822036027908">
        <ele>313.4</ele>
        <time>2022-05-01T09:49:33.273Z</time>
      </trkpt>
      <trkpt lat="42.459301985800266" lon="-8.764751963317394">
        <ele>315.7</ele>
        <time>2022-05-01T09:49:37.296Z</time>
      </trkpt>
      <trkpt lat="42.45920299552381" lon="-8.764708964154124">
        <ele>317.0</ele>
        <time>2022-05-01T09:49:40.620Z</time>
      </trkpt>
      <trkpt lat="42.45909897610545" lon="-8.764680968597531">
        <ele>317.7</ele>
        <time>2022-05-01T09:49:44.296Z</time>
      </trkpt>
      <trkpt lat="42.45899001136422" lon="-8.764664037153125">
        <ele>318.0</ele>
        <time>2022-05-01T09:49:48.203Z</time>
      </trkpt>
      <trkpt lat="42.45892102830112" lon="-8.764650961384177">
        <ele>318.2</ele>
        <time>2022-05-01T09:49:50.676Z</time>
      </trkpt>
      <trkpt lat="42.4588839802891" lon="-8.764644004404545">
        <ele>318.2</ele>
        <time>2022-05-01T09:49:51.931Z</time>
      </trkpt>
      <trkpt lat="42.45874701999128" lon="-8.764588013291359">
        <ele>319.2</ele>
        <time>2022-05-01T09:49:56.886Z</time>
      </trkpt>
      <trkpt lat="42.458716006949544" lon="-8.76456999219954">
        <ele>319.7</ele>
        <time>2022-05-01T09:49:57.996Z</time>
      </trkpt>
      <trkpt lat="42.45859798975289" lon="-8.764481982216239">
        <ele>323.3</ele>
        <time>2022-05-01T09:50:02.290Z</time>
      </trkpt>
      <trkpt lat="42.45850997976959" lon="-8.764451975002885">
        <ele>324.7</ele>
        <time>2022-05-01T09:50:05.335Z</time>
      </trkpt>
      <trkpt lat="42.45844602584839" lon="-8.764471001923084">
        <ele>325.4</ele>
        <time>2022-05-01T09:50:07.434Z</time>
      </trkpt>
      <trkpt lat="42.45836799032986" lon="-8.764532022178173">
        <ele>325.3</ele>
        <time>2022-05-01T09:50:10.407Z</time>
      </trkpt>
      <trkpt lat="42.45831904001534" lon="-8.764567980542779">
        <ele>325.3</ele>
        <time>2022-05-01T09:50:12.168Z</time>
      </trkpt>
      <trkpt lat="42.458266988396645" lon="-8.764601005241275">
        <ele>325.5</ele>
        <time>2022-05-01T09:50:14.038Z</time>
      </trkpt>
      <trkpt lat="42.45817302726209" lon="-8.764639981091022">
        <ele>325.8</ele>
        <time>2022-05-01T09:50:17.196Z</time>
      </trkpt>
      <trkpt lat="42.458137990906835" lon="-8.764649033546448">
        <ele>326.1</ele>
        <time>2022-05-01T09:50:18.304Z</time>
      </trkpt>
      <trkpt lat="42.45806900784373" lon="-8.764664959162474">
        <ele>326.6</ele>
        <time>2022-05-01T09:50:20.511Z</time>
      </trkpt>
      <trkpt lat="42.45788795873523" lon="-8.764707958325744">
        <ele>326.8</ele>
        <time>2022-05-01T09:50:26.348Z</time>
      </trkpt>
      <trkpt lat="42.45780698955059" lon="-8.764731008559465">
        <ele>326.7</ele>
        <time>2022-05-01T09:50:29.165Z</time>
      </trkpt>
      <trkpt lat="42.4576820153743" lon="-8.76476101577282">
        <ele>326.5</ele>
        <time>2022-05-01T09:50:33.304Z</time>
      </trkpt>
      <trkpt lat="42.45750297792256" lon="-8.764818012714386">
        <ele>326.0</ele>
        <time>2022-05-01T09:50:39.088Z</time>
      </trkpt>
      <trkpt lat="42.45726199820638" lon="-8.764921026304364">
        <ele>324.5</ele>
        <time>2022-05-01T09:50:46.952Z</time>
      </trkpt>
      <trkpt lat="42.45703199878335" lon="-8.764949021860957">
        <ele>325.3</ele>
        <time>2022-05-01T09:50:54.209Z</time>
      </trkpt>
      <trkpt lat="42.45679202489555" lon="-8.764966959133744">
        <ele>326.9</ele>
        <time>2022-05-01T09:51:01.825Z</time>
      </trkpt>
      <trkpt lat="42.45655599050224" lon="-8.765010964125395">
        <ele>328.7</ele>
        <time>2022-05-01T09:51:09.249Z</time>
      </trkpt>
      <trkpt lat="42.456439984962344" lon="-8.765026973560452">
        <ele>329.6</ele>
        <time>2022-05-01T09:51:12.972Z</time>
      </trkpt>
      <trkpt lat="42.456353986635804" lon="-8.765038959681988">
        <ele>330.1</ele>
        <time>2022-05-01T09:51:15.792Z</time>
      </trkpt>
      <trkpt lat="42.456309981644154" lon="-8.765048012137413">
        <ele>330.3</ele>
        <time>2022-05-01T09:51:17.186Z</time>
      </trkpt>
      <trkpt lat="42.456184001639485" lon="-8.765081036835909">
        <ele>330.7</ele>
        <time>2022-05-01T09:51:21.108Z</time>
      </trkpt>
      <trkpt lat="42.456099009141326" lon="-8.765093022957444">
        <ele>331.3</ele>
        <time>2022-05-01T09:51:23.803Z</time>
      </trkpt>
      <trkpt lat="42.45594101026654" lon="-8.76510702073574">
        <ele>332.3</ele>
        <time>2022-05-01T09:51:28.630Z</time>
      </trkpt>
      <trkpt lat="42.45586599223316" lon="-8.765104003250599">
        <ele>332.8</ele>
        <time>2022-05-01T09:51:30.941Z</time>
      </trkpt>
      <trkpt lat="42.45561797171831" lon="-8.765102997422218">
        <ele>333.3</ele>
        <time>2022-05-01T09:51:38.367Z</time>
      </trkpt>
      <trkpt lat="42.45558402501047" lon="-8.765100985765457">
        <ele>333.3</ele>
        <time>2022-05-01T09:51:39.309Z</time>
      </trkpt>
      <trkpt lat="42.45538000948727" lon="-8.765057986602187">
        <ele>332.0</ele>
        <time>2022-05-01T09:51:45.015Z</time>
      </trkpt>
      <trkpt lat="42.45533600449562" lon="-8.765034014359117">
        <ele>331.8</ele>
        <time>2022-05-01T09:51:46.309Z</time>
      </trkpt>
      <trkpt lat="42.455238020047545" lon="-8.764915997162461">
        <ele>331.8</ele>
        <time>2022-05-01T09:51:49.830Z</time>
      </trkpt>
      <trkpt lat="42.45511799119413" lon="-8.76469798386097">
        <ele>331.6</ele>
        <time>2022-05-01T09:51:55.183Z</time>
      </trkpt>
      <trkpt lat="42.45508496649563" lon="-8.764637969434261">
        <ele>331.5</ele>
        <time>2022-05-01T09:51:56.629Z</time>
      </trkpt>
      <trkpt lat="42.45486795902252" lon="-8.764408975839615">
        <ele>330.2</ele>
        <time>2022-05-01T09:52:03.735Z</time>
      </trkpt>
      <trkpt lat="42.454526983201504" lon="-8.764196997508407">
        <ele>330.0</ele>
        <time>2022-05-01T09:52:13.313Z</time>
      </trkpt>
      <trkpt lat="42.45427703484893" lon="-8.76403396949172">
        <ele>332.2</ele>
        <time>2022-05-01T09:52:20.369Z</time>
      </trkpt>
      <trkpt lat="42.45411300100386" lon="-8.763997005298734">
        <ele>332.0</ele>
        <time>2022-05-01T09:52:24.603Z</time>
      </trkpt>
      <trkpt lat="42.453994983807206" lon="-8.76398803666234">
        <ele>331.6</ele>
        <time>2022-05-01T09:52:27.730Z</time>
      </trkpt>
      <trkpt lat="42.45358997024596" lon="-8.763961968943477">
        <ele>331.7</ele>
        <time>2022-05-01T09:52:38.409Z</time>
      </trkpt>
      <trkpt lat="42.453173976391554" lon="-8.763988958671689">
        <ele>333.4</ele>
        <time>2022-05-01T09:52:48.998Z</time>
      </trkpt>
      <trkpt lat="42.45292796753347" lon="-8.764005973935127">
        <ele>331.9</ele>
        <time>2022-05-01T09:52:55.082Z</time>
      </trkpt>
      <trkpt lat="42.45278396643698" lon="-8.764001028612256">
        <ele>330.6</ele>
        <time>2022-05-01T09:52:58.524Z</time>
      </trkpt>
      <trkpt lat="42.45262999087572" lon="-8.763974038884044">
        <ele>329.5</ele>
        <time>2022-05-01T09:53:02.039Z</time>
      </trkpt>
      <trkpt lat="42.4525569844991" lon="-8.763939002528787">
        <ele>329.3</ele>
        <time>2022-05-01T09:53:03.823Z</time>
      </trkpt>
      <trkpt lat="42.452206034213305" lon="-8.76368997618556">
        <ele>328.4</ele>
        <time>2022-05-01T09:53:12.352Z</time>
      </trkpt>
      <trkpt lat="42.45206102728844" lon="-8.763594003394246">
        <ele>327.9</ele>
        <time>2022-05-01T09:53:15.646Z</time>
      </trkpt>
      <trkpt lat="42.451907973736525" lon="-8.763558967038989">
        <ele>327.0</ele>
        <time>2022-05-01T09:53:18.588Z</time>
      </trkpt>
      <trkpt lat="42.4516639765352" lon="-8.763551004230976">
        <ele>325.0</ele>
        <time>2022-05-01T09:53:23.055Z</time>
      </trkpt>
      <trkpt lat="42.451587030664086" lon="-8.763500964269042">
        <ele>324.5</ele>
        <time>2022-05-01T09:53:24.626Z</time>
      </trkpt>
      <trkpt lat="42.45139801874757" lon="-8.76325998455286">
        <ele>324.4</ele>
        <time>2022-05-01T09:53:29.562Z</time>
      </trkpt>
      <trkpt lat="42.451325012370944" lon="-8.763197036460042">
        <ele>324.2</ele>
        <time>2022-05-01T09:53:31.184Z</time>
      </trkpt>
      <trkpt lat="42.45116399601102" lon="-8.763139033690095">
        <ele>323.7</ele>
        <time>2022-05-01T09:53:34.271Z</time>
      </trkpt>
      <trkpt lat="42.45108503848314" lon="-8.763143979012966">
        <ele>323.4</ele>
        <time>2022-05-01T09:53:35.798Z</time>
      </trkpt>
      <trkpt lat="42.450939025729895" lon="-8.763197036460042">
        <ele>323.0</ele>
        <time>2022-05-01T09:53:38.585Z</time>
      </trkpt>
      <trkpt lat="42.45080097578466" lon="-8.763290997594595">
        <ele>322.3</ele>
        <time>2022-05-01T09:53:41.500Z</time>
      </trkpt>
      <trkpt lat="42.45073400437832" lon="-8.763350006192923">
        <ele>321.9</ele>
        <time>2022-05-01T09:53:42.936Z</time>
      </trkpt>
      <trkpt lat="42.45066996663809" lon="-8.763411026448011">
        <ele>321.4</ele>
        <time>2022-05-01T09:53:44.288Z</time>
      </trkpt>
      <trkpt lat="42.45041297748685" lon="-8.76364798285067">
        <ele>320.3</ele>
        <time>2022-05-01T09:53:49.783Z</time>
      </trkpt>
      <trkpt lat="42.45028900913894" lon="-8.76377203501761">
        <ele>319.9</ele>
        <time>2022-05-01T09:53:52.400Z</time>
      </trkpt>
      <trkpt lat="42.450230000540614" lon="-8.763834983110428">
        <ele>319.8</ele>
        <time>2022-05-01T09:53:53.686Z</time>
      </trkpt>
      <trkpt lat="42.45010796003044" lon="-8.763964986428618">
        <ele>319.0</ele>
        <time>2022-05-01T09:53:56.312Z</time>
      </trkpt>
      <trkpt lat="42.45005196891725" lon="-8.764036986976862">
        <ele>318.6</ele>
        <time>2022-05-01T09:53:57.625Z</time>
      </trkpt>
      <trkpt lat="42.45000100694597" lon="-8.76411896198988">
        <ele>318.2</ele>
        <time>2022-05-01T09:53:58.976Z</time>
      </trkpt>
      <trkpt lat="42.44994996115565" lon="-8.76420403830707">
        <ele>317.8</ele>
        <time>2022-05-01T09:54:00.363Z</time>
      </trkpt>
      <trkpt lat="42.44971199892461" lon="-8.76461198553443">
        <ele>315.4</ele>
        <time>2022-05-01T09:54:07.237Z</time>
      </trkpt>
      <trkpt lat="42.449588030576706" lon="-8.764622965827584">
        <ele>314.9</ele>
        <time>2022-05-01T09:54:09.504Z</time>
      </trkpt>
      <trkpt lat="42.44954897090793" lon="-8.764395983889699">
        <ele>314.9</ele>
        <time>2022-05-01T09:54:12.785Z</time>
      </trkpt>
      <trkpt lat="42.44950697757304" lon="-8.764022989198565">
        <ele>314.4</ele>
        <time>2022-05-01T09:54:18.157Z</time>
      </trkpt>
      <trkpt lat="42.44948904030025" lon="-8.763917963951826">
        <ele>313.7</ele>
        <time>2022-05-01T09:54:19.750Z</time>
      </trkpt>
      <trkpt lat="42.44946800172329" lon="-8.763812016695738">
        <ele>313.3</ele>
        <time>2022-05-01T09:54:21.339Z</time>
      </trkpt>
      <trkpt lat="42.44940103031695" lon="-8.763499958440661">
        <ele>313.2</ele>
        <time>2022-05-01T09:54:26.136Z</time>
      </trkpt>
      <trkpt lat="42.44938996620476" lon="-8.763398034498096">
        <ele>313.5</ele>
        <time>2022-05-01T09:54:27.447Z</time>
      </trkpt>
      <trkpt lat="42.44938200339675" lon="-8.76330197788775">
        <ele>313.5</ele>
        <time>2022-05-01T09:54:28.625Z</time>
      </trkpt>
      <trkpt lat="42.44938896037638" lon="-8.763111038133502">
        <ele>313.3</ele>
        <time>2022-05-01T09:54:30.681Z</time>
      </trkpt>
      <trkpt lat="42.449416033923626" lon="-8.762911967933178">
        <ele>312.1</ele>
        <time>2022-05-01T09:54:32.912Z</time>
      </trkpt>
      <trkpt lat="42.449437994509935" lon="-8.762810965999961">
        <ele>311.4</ele>
        <time>2022-05-01T09:54:34.150Z</time>
      </trkpt>
      <trkpt lat="42.44950597174466" lon="-8.762616002932191">
        <ele>309.7</ele>
        <time>2022-05-01T09:54:36.413Z</time>
      </trkpt>
      <trkpt lat="42.44955400004983" lon="-8.762522963806987">
        <ele>308.6</ele>
        <time>2022-05-01T09:54:37.516Z</time>
      </trkpt>
      <trkpt lat="42.449674028903246" lon="-8.76233696937561">
        <ele>305.9</ele>
        <time>2022-05-01T09:54:39.982Z</time>
      </trkpt>
      <trkpt lat="42.44975097477436" lon="-8.76224996522069">
        <ele>304.7</ele>
        <time>2022-05-01T09:54:41.283Z</time>
      </trkpt>
      <trkpt lat="42.44983496144414" lon="-8.762173019349575">
        <ele>303.5</ele>
        <time>2022-05-01T09:54:42.560Z</time>
      </trkpt>
      <trkpt lat="42.45002497918904" lon="-8.762058019638062">
        <ele>302.1</ele>
        <time>2022-05-01T09:54:45.252Z</time>
      </trkpt>
      <trkpt lat="42.45011701248586" lon="-8.761995993554592">
        <ele>301.6</ele>
        <time>2022-05-01T09:54:46.497Z</time>
      </trkpt>
      <trkpt lat="42.45019697584212" lon="-8.761918963864446">
        <ele>300.8</ele>
        <time>2022-05-01T09:54:47.788Z</time>
      </trkpt>
      <trkpt lat="42.45026797056198" lon="-8.761827014386654">
        <ele>300.5</ele>
        <time>2022-05-01T09:54:49.135Z</time>
      </trkpt>
      <trkpt lat="42.45041297748685" lon="-8.761654011905193">
        <ele>300.5</ele>
        <time>2022-05-01T09:54:51.942Z</time>
      </trkpt>
      <trkpt lat="42.450491013005376" lon="-8.76158301718533">
        <ele>300.5</ele>
        <time>2022-05-01T09:54:53.371Z</time>
      </trkpt>
      <trkpt lat="42.45056703686714" lon="-8.76151503995061">
        <ele>300.6</ele>
        <time>2022-05-01T09:54:54.820Z</time>
      </trkpt>
      <trkpt lat="42.450637025758624" lon="-8.761448990553617">
        <ele>301.0</ele>
        <time>2022-05-01T09:54:56.242Z</time>
      </trkpt>
      <trkpt lat="42.45068798772991" lon="-8.761365003883839">
        <ele>300.5</ele>
        <time>2022-05-01T09:54:57.653Z</time>
      </trkpt>
      <trkpt lat="42.45071003213525" lon="-8.761255033314228">
        <ele>300.6</ele>
        <time>2022-05-01T09:54:59.201Z</time>
      </trkpt>
      <trkpt lat="42.45068899355829" lon="-8.761060992255807">
        <ele>302.8</ele>
        <time>2022-05-01T09:55:01.983Z</time>
      </trkpt>
      <trkpt lat="42.45063501410186" lon="-8.761000977829099">
        <ele>303.8</ele>
        <time>2022-05-01T09:55:03.377Z</time>
      </trkpt>
      <trkpt lat="42.45041498914361" lon="-8.760922020301223">
        <ele>304.3</ele>
        <time>2022-05-01T09:55:08.079Z</time>
      </trkpt>
      <trkpt lat="42.45026503689587" lon="-8.760953033342957">
        <ele>304.1</ele>
        <time>2022-05-01T09:55:11.240Z</time>
      </trkpt>
      <trkpt lat="42.45019203051925" lon="-8.760972982272506">
        <ele>303.8</ele>
        <time>2022-05-01T09:55:12.759Z</time>
      </trkpt>
      <trkpt lat="42.44983898475766" lon="-8.761049006134272">
        <ele>301.4</ele>
        <time>2022-05-01T09:55:20.283Z</time>
      </trkpt>
      <trkpt lat="42.44945199228823" lon="-8.761078007519245">
        <ele>297.9</ele>
        <time>2022-05-01T09:55:27.775Z</time>
      </trkpt>
      <trkpt lat="42.44936800561845" lon="-8.761078007519245">
        <ele>297.3</ele>
        <time>2022-05-01T09:55:29.240Z</time>
      </trkpt>
      <trkpt lat="42.44884396903217" lon="-8.761048000305891">
        <ele>294.2</ele>
        <time>2022-05-01T09:55:37.892Z</time>
      </trkpt>
      <trkpt lat="42.44867599569261" lon="-8.761005001142621">
        <ele>292.9</ele>
        <time>2022-05-01T09:55:40.834Z</time>
      </trkpt>
      <trkpt lat="42.44850701652467" lon="-8.760955967009068">
        <ele>291.8</ele>
        <time>2022-05-01T09:55:43.830Z</time>
      </trkpt>
      <trkpt lat="42.44841900654137" lon="-8.7609370239079">
        <ele>291.3</ele>
        <time>2022-05-01T09:55:45.239Z</time>
      </trkpt>
      <trkpt lat="42.44833602569997" lon="-8.7609179969877">
        <ele>291.0</ele>
        <time>2022-05-01T09:55:46.650Z</time>
      </trkpt>
      <trkpt lat="42.44817299768329" lon="-8.760882038623095">
        <ele>290.8</ele>
        <time>2022-05-01T09:55:49.572Z</time>
      </trkpt>
      <trkpt lat="42.44783696718514" lon="-8.760828981176019">
        <ele>291.6</ele>
        <time>2022-05-01T09:55:55.778Z</time>
      </trkpt>
      <trkpt lat="42.44752801023424" lon="-8.760825041681528">
        <ele>291.1</ele>
        <time>2022-05-01T09:56:01.667Z</time>
      </trkpt>
      <trkpt lat="42.44726297445595" lon="-8.760708030313253">
        <ele>291.5</ele>
        <time>2022-05-01T09:56:07.309Z</time>
      </trkpt>
      <trkpt lat="42.4471499864012" lon="-8.760613985359669">
        <ele>291.6</ele>
        <time>2022-05-01T09:56:10.115Z</time>
      </trkpt>
      <trkpt lat="42.4471000302583" lon="-8.760560005903244">
        <ele>291.4</ele>
        <time>2022-05-01T09:56:11.502Z</time>
      </trkpt>
      <trkpt lat="42.44705703109503" lon="-8.760494040325284">
        <ele>291.3</ele>
        <time>2022-05-01T09:56:13.034Z</time>
      </trkpt>
      <trkpt lat="42.44691696949303" lon="-8.760280972346663">
        <ele>290.9</ele>
        <time>2022-05-01T09:56:18.220Z</time>
      </trkpt>
      <trkpt lat="42.44684597477317" lon="-8.760134959593415">
        <ele>292.1</ele>
        <time>2022-05-01T09:56:21.416Z</time>
      </trkpt>
      <trkpt lat="42.44678403250873" lon="-8.760008979588747">
        <ele>293.5</ele>
        <time>2022-05-01T09:56:24.339Z</time>
      </trkpt>
      <trkpt lat="42.4467250239104" lon="-8.759888028725982">
        <ele>295.0</ele>
        <time>2022-05-01T09:56:27.130Z</time>
      </trkpt>
      <trkpt lat="42.44669904001057" lon="-8.759828014299273">
        <ele>295.8</ele>
        <time>2022-05-01T09:56:28.466Z</time>
      </trkpt>
      <trkpt lat="42.44666802696884" lon="-8.759769005700946">
        <ele>296.6</ele>
        <time>2022-05-01T09:56:29.972Z</time>
      </trkpt>
      <trkpt lat="42.44655596092343" lon="-8.759524002671242">
        <ele>298.6</ele>
        <time>2022-05-01T09:56:36.034Z</time>
      </trkpt>
      <trkpt lat="42.44652796536684" lon="-8.759457031264901">
        <ele>298.7</ele>
        <time>2022-05-01T09:56:37.732Z</time>
      </trkpt>
      <trkpt lat="42.44648303836584" lon="-8.75930699519813">
        <ele>298.1</ele>
        <time>2022-05-01T09:56:41.223Z</time>
      </trkpt>
      <trkpt lat="42.44639896787703" lon="-8.759058974683285">
        <ele>297.2</ele>
        <time>2022-05-01T09:56:47.186Z</time>
      </trkpt>
      <trkpt lat="42.44636099785566" lon="-8.758975993841887">
        <ele>297.1</ele>
        <time>2022-05-01T09:56:49.270Z</time>
      </trkpt>
      <trkpt lat="42.44622898288071" lon="-8.758772984147072">
        <ele>298.0</ele>
        <time>2022-05-01T09:56:55.033Z</time>
      </trkpt>
      <trkpt lat="42.44618397206068" lon="-8.758713975548744">
        <ele>298.1</ele>
        <time>2022-05-01T09:56:56.817Z</time>
      </trkpt>
      <trkpt lat="42.44594600982964" lon="-8.758415998890996">
        <ele>297.5</ele>
        <time>2022-05-01T09:57:05.656Z</time>
      </trkpt>
      <trkpt lat="42.445677034556866" lon="-8.758063036948442">
        <ele>296.8</ele>
        <time>2022-05-01T09:57:15.443Z</time>
      </trkpt>
      <trkpt lat="42.445591036230326" lon="-8.757943008095026">
        <ele>296.1</ele>
        <time>2022-05-01T09:57:18.660Z</time>
      </trkpt>
      <trkpt lat="42.445546025410295" lon="-8.757791966199875">
        <ele>296.4</ele>
        <time>2022-05-01T09:57:21.601Z</time>
      </trkpt>
      <trkpt lat="42.44557402096689" lon="-8.75745995901525">
        <ele>296.5</ele>
        <time>2022-05-01T09:57:27.397Z</time>
      </trkpt>
      <trkpt lat="42.445594975724816" lon="-8.757377984002233">
        <ele>296.5</ele>
        <time>2022-05-01T09:57:28.920Z</time>
      </trkpt>
      <trkpt lat="42.445719027891755" lon="-8.757062992081046">
        <ele>294.2</ele>
        <time>2022-05-01T09:57:34.876Z</time>
      </trkpt>
      <trkpt lat="42.445766972377896" lon="-8.75698797404766">
        <ele>293.8</ele>
        <time>2022-05-01T09:57:36.560Z</time>
      </trkpt>
      <trkpt lat="42.446018010377884" lon="-8.75670600682497">
        <ele>292.8</ele>
        <time>2022-05-01T09:57:42.773Z</time>
      </trkpt>
      <trkpt lat="42.44608196429908" lon="-8.756615985184908">
        <ele>292.1</ele>
        <time>2022-05-01T09:57:44.599Z</time>
      </trkpt>
      <trkpt lat="42.44625396095216" lon="-8.75627601519227">
        <ele>287.7</ele>
        <time>2022-05-01T09:57:49.488Z</time>
      </trkpt>
      <trkpt lat="42.446345994248986" lon="-8.75601802021265">
        <ele>284.5</ele>
        <time>2022-05-01T09:57:53.211Z</time>
      </trkpt>
      <trkpt lat="42.44640299119055" lon="-8.755735969170928">
        <ele>282.1</ele>
        <time>2022-05-01T09:57:56.997Z</time>
      </trkpt>
      <trkpt lat="42.44644498452544" lon="-8.755469005554914">
        <ele>280.5</ele>
        <time>2022-05-01T09:58:00.061Z</time>
      </trkpt>
      <trkpt lat="42.44650399312377" lon="-8.75524403527379">
        <ele>278.7</ele>
        <time>2022-05-01T09:58:02.854Z</time>
      </trkpt>
      <trkpt lat="42.44654196314514" lon="-8.755153007805347">
        <ele>278.3</ele>
        <time>2022-05-01T09:58:04.081Z</time>
      </trkpt>
      <trkpt lat="42.44657599367201" lon="-8.75507002696395">
        <ele>278.0</ele>
        <time>2022-05-01T09:58:05.053Z</time>
      </trkpt>
      <trkpt lat="42.446600971743464" lon="-8.754995008930564">
        <ele>277.7</ele>
        <time>2022-05-01T09:58:05.910Z</time>
      </trkpt>
      <trkpt lat="42.44658797979355" lon="-8.75494102947414">
        <ele>276.5</ele>
        <time>2022-05-01T09:58:06.544Z</time>
      </trkpt>
      <trkpt lat="42.44656199589372" lon="-8.754910016432405">
        <ele>275.3</ele>
        <time>2022-05-01T09:58:07.103Z</time>
      </trkpt>
      <trkpt lat="42.44653198868036" lon="-8.754899958148599">
        <ele>274.1</ele>
        <time>2022-05-01T09:58:07.631Z</time>
      </trkpt>
      <trkpt lat="42.44650801643729" lon="-8.754927031695843">
        <ele>273.7</ele>
        <time>2022-05-01T09:58:08.191Z</time>
      </trkpt>
      <trkpt lat="42.44648697786033" lon="-8.75496500171721">
        <ele>273.7</ele>
        <time>2022-05-01T09:58:08.850Z</time>
      </trkpt>
      <trkpt lat="42.44644096121192" lon="-8.755039013922215">
        <ele>273.6</ele>
        <time>2022-05-01T09:58:10.250Z</time>
      </trkpt>
      <trkpt lat="42.44641900062561" lon="-8.755055023357272">
        <ele>273.3</ele>
        <time>2022-05-01T09:58:10.756Z</time>
      </trkpt>
      <trkpt lat="42.446405002847314" lon="-8.755040019750595">
        <ele>272.7</ele>
        <time>2022-05-01T09:58:11.129Z</time>
      </trkpt>
      <trkpt lat="42.44641003198922" lon="-8.755005989223719">
        <ele>272.2</ele>
        <time>2022-05-01T09:58:11.681Z</time>
      </trkpt>
      <trkpt lat="42.44642000645399" lon="-8.754957960918546">
        <ele>271.7</ele>
        <time>2022-05-01T09:58:12.493Z</time>
      </trkpt>
      <trkpt lat="42.446431992575526" lon="-8.75489903613925">
        <ele>271.0</ele>
        <time>2022-05-01T09:58:13.510Z</time>
      </trkpt>
      <trkpt lat="42.44645998813212" lon="-8.75474900007248">
        <ele>269.2</ele>
        <time>2022-05-01T09:58:15.845Z</time>
      </trkpt>
      <trkpt lat="42.44650097563863" lon="-8.754571974277496">
        <ele>267.5</ele>
        <time>2022-05-01T09:58:18.658Z</time>
      </trkpt>
      <trkpt lat="42.44653198868036" lon="-8.754480024799705">
        <ele>266.9</ele>
        <time>2022-05-01T09:58:20.030Z</time>
      </trkpt>
      <trkpt lat="42.44657197035849" lon="-8.754381034523249">
        <ele>266.7</ele>
        <time>2022-05-01T09:58:21.629Z</time>
      </trkpt>
      <trkpt lat="42.4466370139271" lon="-8.754177019000053">
        <ele>266.3</ele>
        <time>2022-05-01T09:58:24.776Z</time>
      </trkpt>
      <trkpt lat="42.44667397812009" lon="-8.753979038447142">
        <ele>266.0</ele>
        <time>2022-05-01T09:58:27.903Z</time>
      </trkpt>
      <trkpt lat="42.446688981726766" lon="-8.753883987665176">
        <ele>265.9</ele>
        <time>2022-05-01T09:58:29.342Z</time>
      </trkpt>
      <trkpt lat="42.44670499116182" lon="-8.753792038187385">
        <ele>266.0</ele>
        <time>2022-05-01T09:58:30.699Z</time>
      </trkpt>
      <trkpt lat="42.446730975061655" lon="-8.753614006564021">
        <ele>265.7</ele>
        <time>2022-05-01T09:58:33.289Z</time>
      </trkpt>
      <trkpt lat="42.446728041395545" lon="-8.7535270024091">
        <ele>265.3</ele>
        <time>2022-05-01T09:58:34.506Z</time>
      </trkpt>
      <trkpt lat="42.44670398533344" lon="-8.753301026299596">
        <ele>266.5</ele>
        <time>2022-05-01T09:58:37.778Z</time>
      </trkpt>
      <trkpt lat="42.44668202474713" lon="-8.7531609646976">
        <ele>267.5</ele>
        <time>2022-05-01T09:58:39.786Z</time>
      </trkpt>
      <trkpt lat="42.44661203585565" lon="-8.752955021336675">
        <ele>269.4</ele>
        <time>2022-05-01T09:58:43.043Z</time>
      </trkpt>
      <trkpt lat="42.44656199589372" lon="-8.752974970266223">
        <ele>269.0</ele>
        <time>2022-05-01T09:58:44.096Z</time>
      </trkpt>
      <trkpt lat="42.44654699228704" lon="-8.753133974969387">
        <ele>266.6</ele>
        <time>2022-05-01T09:58:46.563Z</time>
      </trkpt>
      <trkpt lat="42.44656501337886" lon="-8.75333103351295">
        <ele>264.6</ele>
        <time>2022-05-01T09:58:49.707Z</time>
      </trkpt>
      <trkpt lat="42.446559984236956" lon="-8.753480985760689">
        <ele>263.0</ele>
        <time>2022-05-01T09:58:52.143Z</time>
      </trkpt>
      <trkpt lat="42.4465490039438" lon="-8.753552986308932">
        <ele>262.5</ele>
        <time>2022-05-01T09:58:53.361Z</time>
      </trkpt>
      <trkpt lat="42.44652603752911" lon="-8.753677038475871">
        <ele>261.5</ele>
        <time>2022-05-01T09:58:55.356Z</time>
      </trkpt>
      <trkpt lat="42.446514973416924" lon="-8.75373998656869">
        <ele>260.8</ele>
        <time>2022-05-01T09:58:56.230Z</time>
      </trkpt>
      <trkpt lat="42.44648798368871" lon="-8.753801006823778">
        <ele>260.2</ele>
        <time>2022-05-01T09:58:57.113Z</time>
      </trkpt>
      <trkpt lat="42.44641799479723" lon="-8.75393696129322">
        <ele>259.1</ele>
        <time>2022-05-01T09:58:59.092Z</time>
      </trkpt>
      <trkpt lat="42.44633501395583" lon="-8.754072999581695">
        <ele>257.6</ele>
        <time>2022-05-01T09:59:01.125Z</time>
      </trkpt>
      <trkpt lat="42.446239963173866" lon="-8.754184981808066">
        <ele>255.1</ele>
        <time>2022-05-01T09:59:03.127Z</time>
      </trkpt>
      <trkpt lat="42.44609302841127" lon="-8.754322025924921">
        <ele>252.3</ele>
        <time>2022-05-01T09:59:05.823Z</time>
      </trkpt>
      <trkpt lat="42.44604600593448" lon="-8.75434298068285">
        <ele>251.2</ele>
        <time>2022-05-01T09:59:06.525Z</time>
      </trkpt>
      <trkpt lat="42.44600401259959" lon="-8.754354966804385">
        <ele>250.7</ele>
        <time>2022-05-01T09:59:07.178Z</time>
      </trkpt>
      <trkpt lat="42.445933017879725" lon="-8.754372987896204">
        <ele>249.8</ele>
        <time>2022-05-01T09:59:08.265Z</time>
      </trkpt>
      <trkpt lat="42.44590602815151" lon="-8.754390003159642">
        <ele>249.3</ele>
        <time>2022-05-01T09:59:08.742Z</time>
      </trkpt>
      <trkpt lat="42.44587803259492" lon="-8.754408024251461">
        <ele>249.2</ele>
        <time>2022-05-01T09:59:09.268Z</time>
      </trkpt>
      <trkpt lat="42.44583997875452" lon="-8.754439959302545">
        <ele>249.1</ele>
        <time>2022-05-01T09:59:10.097Z</time>
      </trkpt>
      <trkpt lat="42.44579999707639" lon="-8.754463009536266">
        <ele>248.8</ele>
        <time>2022-05-01T09:59:10.778Z</time>
      </trkpt>
      <trkpt lat="42.445764038711786" lon="-8.754482958465815">
        <ele>248.4</ele>
        <time>2022-05-01T09:59:11.399Z</time>
      </trkpt>
      <trkpt lat="42.445723973214626" lon="-8.754506008699536">
        <ele>247.8</ele>
        <time>2022-05-01T09:59:12.006Z</time>
      </trkpt>
      <trkpt lat="42.44569597765803" lon="-8.75451497733593">
        <ele>247.4</ele>
        <time>2022-05-01T09:59:12.368Z</time>
      </trkpt>
      <trkpt lat="42.44559799320996" lon="-8.754553031176329">
        <ele>245.4</ele>
        <time>2022-05-01T09:59:13.682Z</time>
      </trkpt>
      <trkpt lat="42.44551400654018" lon="-8.754569962620735">
        <ele>244.1</ele>
        <time>2022-05-01T09:59:14.783Z</time>
      </trkpt>
      <trkpt lat="42.44544502347708" lon="-8.754607010632753">
        <ele>242.6</ele>
        <time>2022-05-01T09:59:15.657Z</time>
      </trkpt>
      <trkpt lat="42.44539297185838" lon="-8.754680017009377">
        <ele>241.8</ele>
        <time>2022-05-01T09:59:16.479Z</time>
      </trkpt>
      <trkpt lat="42.44536598213017" lon="-8.754721004515886">
        <ele>241.3</ele>
        <time>2022-05-01T09:59:16.965Z</time>
      </trkpt>
      <trkpt lat="42.44530697353184" lon="-8.75481203198433">
        <ele>240.3</ele>
        <time>2022-05-01T09:59:17.969Z</time>
      </trkpt>
      <trkpt lat="42.44525802321732" lon="-8.75492099672556">
        <ele>240.0</ele>
        <time>2022-05-01T09:59:19.007Z</time>
      </trkpt>
      <trkpt lat="42.445228016003966" lon="-8.754973970353603">
        <ele>239.6</ele>
        <time>2022-05-01T09:59:19.583Z</time>
      </trkpt>
      <trkpt lat="42.44512299075723" lon="-8.755145967006683">
        <ele>236.7</ele>
        <time>2022-05-01T09:59:21.433Z</time>
      </trkpt>
      <trkpt lat="42.44505702517927" lon="-8.755191983655095">
        <ele>236.1</ele>
        <time>2022-05-01T09:59:22.260Z</time>
      </trkpt>
      <trkpt lat="42.4449810013175" lon="-8.755249986425042">
        <ele>234.8</ele>
        <time>2022-05-01T09:59:23.276Z</time>
      </trkpt>
      <trkpt lat="42.44486801326275" lon="-8.755388958379626">
        <ele>232.5</ele>
        <time>2022-05-01T09:59:24.926Z</time>
      </trkpt>
      <trkpt lat="42.44482300244272" lon="-8.755446961149573">
        <ele>231.9</ele>
        <time>2022-05-01T09:59:25.567Z</time>
      </trkpt>
      <trkpt lat="42.444776985794306" lon="-8.755491971969604">
        <ele>231.2</ele>
        <time>2022-05-01T09:59:26.142Z</time>
      </trkpt>
      <trkpt lat="42.44469601660967" lon="-8.75554796308279">
        <ele>229.6</ele>
        <time>2022-05-01T09:59:27.036Z</time>
      </trkpt>
      <trkpt lat="42.44465896859765" lon="-8.755561038851738">
        <ele>229.0</ele>
        <time>2022-05-01T09:59:27.450Z</time>
      </trkpt>
      <trkpt lat="42.444625021889806" lon="-8.755575958639383">
        <ele>228.8</ele>
        <time>2022-05-01T09:59:27.814Z</time>
      </trkpt>
      <trkpt lat="42.444537011906505" lon="-8.755633039399981">
        <ele>227.8</ele>
        <time>2022-05-01T09:59:28.857Z</time>
      </trkpt>
      <trkpt lat="42.44449200108647" lon="-8.755654999986291">
        <ele>227.2</ele>
        <time>2022-05-01T09:59:29.392Z</time>
      </trkpt>
      <trkpt lat="42.44443701580167" lon="-8.755671009421349">
        <ele>226.3</ele>
        <time>2022-05-01T09:59:29.997Z</time>
      </trkpt>
      <trkpt lat="42.44429603219032" lon="-8.755773017182946">
        <ele>223.6</ele>
        <time>2022-05-01T09:59:31.625Z</time>
      </trkpt>
      <trkpt lat="42.444257978349924" lon="-8.755807969719172">
        <ele>223.2</ele>
        <time>2022-05-01T09:59:32.111Z</time>
      </trkpt>
      <trkpt lat="42.44421103969216" lon="-8.755833031609654">
        <ele>222.5</ele>
        <time>2022-05-01T09:59:32.638Z</time>
      </trkpt>
      <trkpt lat="42.44411900639534" lon="-8.755871001631021">
        <ele>220.9</ele>
        <time>2022-05-01T09:59:33.626Z</time>
      </trkpt>
      <trkpt lat="42.44407097809017" lon="-8.755908971652389">
        <ele>219.8</ele>
        <time>2022-05-01T09:59:34.209Z</time>
      </trkpt>
      <trkpt lat="42.44403401389718" lon="-8.7559549883008">
        <ele>218.7</ele>
        <time>2022-05-01T09:59:34.716Z</time>
      </trkpt>
      <trkpt lat="42.44399403221905" lon="-8.756001004949212">
        <ele>217.4</ele>
        <time>2022-05-01T09:59:35.245Z</time>
      </trkpt>
      <trkpt lat="42.44390602223575" lon="-8.756112987175584">
        <ele>216.7</ele>
        <time>2022-05-01T09:59:36.492Z</time>
      </trkpt>
      <trkpt lat="42.443853970617056" lon="-8.756183981895447">
        <ele>215.8</ele>
        <time>2022-05-01T09:59:37.234Z</time>
      </trkpt>
      <trkpt lat="42.44375003501773" lon="-8.756334017962217">
        <ele>213.8</ele>
        <time>2022-05-01T09:59:38.694Z</time>
      </trkpt>
      <trkpt lat="42.44369396008551" lon="-8.756399983540177">
        <ele>213.2</ele>
        <time>2022-05-01T09:59:39.382Z</time>
      </trkpt>
      <trkpt lat="42.44364400394261" lon="-8.756446000188589">
        <ele>212.4</ele>
        <time>2022-05-01T09:59:39.964Z</time>
      </trkpt>
      <trkpt lat="42.443593963980675" lon="-8.756479024887085">
        <ele>211.7</ele>
        <time>2022-05-01T09:59:40.555Z</time>
      </trkpt>
      <trkpt lat="42.44354199618101" lon="-8.756511965766549">
        <ele>211.0</ele>
        <time>2022-05-01T09:59:41.172Z</time>
      </trkpt>
      <trkpt lat="42.44349799118936" lon="-8.75655798241496">
        <ele>210.6</ele>
        <time>2022-05-01T09:59:41.770Z</time>
      </trkpt>
      <trkpt lat="42.44346002116799" lon="-8.756609028205276">
        <ele>210.6</ele>
        <time>2022-05-01T09:59:42.323Z</time>
      </trkpt>
      <trkpt lat="42.44341601617634" lon="-8.7566630076617">
        <ele>210.2</ele>
        <time>2022-05-01T09:59:42.907Z</time>
      </trkpt>
      <trkpt lat="42.44336497038603" lon="-8.756717992946506">
        <ele>209.8</ele>
        <time>2022-05-01T09:59:43.523Z</time>
      </trkpt>
      <trkpt lat="42.443203032016754" lon="-8.75685797072947">
        <ele>209.0</ele>
        <time>2022-05-01T09:59:45.349Z</time>
      </trkpt>
      <trkpt lat="42.44315198622644" lon="-8.756893007084727">
        <ele>208.4</ele>
        <time>2022-05-01T09:59:45.875Z</time>
      </trkpt>
      <trkpt lat="42.443099012598395" lon="-8.75690096989274">
        <ele>207.4</ele>
        <time>2022-05-01T09:59:46.380Z</time>
      </trkpt>
      <trkpt lat="42.44300496764481" lon="-8.756889989599586">
        <ele>205.5</ele>
        <time>2022-05-01T09:59:47.280Z</time>
      </trkpt>
      <trkpt lat="42.44296004064381" lon="-8.756892001256347">
        <ele>204.8</ele>
        <time>2022-05-01T09:59:47.753Z</time>
      </trkpt>
      <trkpt lat="42.44285199791193" lon="-8.756960984319448">
        <ele>203.7</ele>
        <time>2022-05-01T09:59:48.993Z</time>
      </trkpt>
      <trkpt lat="42.44265804067254" lon="-8.757099034264684">
        <ele>201.9</ele>
        <time>2022-05-01T09:59:51.209Z</time>
      </trkpt>
      <trkpt lat="42.44260800071061" lon="-8.75711495988071">
        <ele>200.9</ele>
        <time>2022-05-01T09:59:51.732Z</time>
      </trkpt>
      <trkpt lat="42.44254597462714" lon="-8.757124012336135">
        <ele>199.9</ele>
        <time>2022-05-01T09:59:52.380Z</time>
      </trkpt>
      <trkpt lat="42.44245000183582" lon="-8.757153013721108">
        <ele>198.3</ele>
        <time>2022-05-01T09:59:53.453Z</time>
      </trkpt>
      <trkpt lat="42.44241303764284" lon="-8.757171034812927">
        <ele>197.7</ele>
        <time>2022-05-01T09:59:53.921Z</time>
      </trkpt>
      <trkpt lat="42.442302983254194" lon="-8.757277987897396">
        <ele>197.0</ele>
        <time>2022-05-01T09:59:55.544Z</time>
      </trkpt>
      <trkpt lat="42.4422559607774" lon="-8.757333979010582">
        <ele>196.7</ele>
        <time>2022-05-01T09:59:56.320Z</time>
      </trkpt>
      <trkpt lat="42.44220399297774" lon="-8.757379995658994">
        <ele>196.2</ele>
        <time>2022-05-01T09:59:57.087Z</time>
      </trkpt>
      <trkpt lat="42.44209796190262" lon="-8.757485020905733">
        <ele>195.7</ele>
        <time>2022-05-01T09:59:58.576Z</time>
      </trkpt>
      <trkpt lat="42.44205001741648" lon="-8.757548974826932">
        <ele>195.3</ele>
        <time>2022-05-01T09:59:59.292Z</time>
      </trkpt>
      <trkpt lat="42.441936023533344" lon="-8.757691970095038">
        <ele>193.9</ele>
        <time>2022-05-01T10:00:01.071Z</time>
      </trkpt>
      <trkpt lat="42.44184197857976" lon="-8.757764976471663">
        <ele>192.9</ele>
        <time>2022-05-01T10:00:02.229Z</time>
      </trkpt>
      <trkpt lat="42.44179596193135" lon="-8.757765982300043">
        <ele>192.4</ele>
        <time>2022-05-01T10:00:02.767Z</time>
      </trkpt>
      <trkpt lat="42.44162203744054" lon="-8.757820967584848">
        <ele>190.5</ele>
        <time>2022-05-01T10:00:04.766Z</time>
      </trkpt>
      <trkpt lat="42.441527992486954" lon="-8.757904032245278">
        <ele>189.8</ele>
        <time>2022-05-01T10:00:06.054Z</time>
      </trkpt>
      <trkpt lat="42.44146001525223" lon="-8.75801500864327">
        <ele>188.8</ele>
        <time>2022-05-01T10:00:07.295Z</time>
      </trkpt>
      <trkpt lat="42.44141701608896" lon="-8.758088015019894">
        <ele>188.0</ele>
        <time>2022-05-01T10:00:08.068Z</time>
      </trkpt>
      <trkpt lat="42.44137099944055" lon="-8.758154986426234">
        <ele>187.8</ele>
        <time>2022-05-01T10:00:08.814Z</time>
      </trkpt>
      <trkpt lat="42.441321965307" lon="-8.758220029994845">
        <ele>187.3</ele>
        <time>2022-05-01T10:00:09.597Z</time>
      </trkpt>
      <trkpt lat="42.44126899167895" lon="-8.758265962824225">
        <ele>186.7</ele>
        <time>2022-05-01T10:00:10.326Z</time>
      </trkpt>
      <trkpt lat="42.441101018339396" lon="-8.758291024714708">
        <ele>185.2</ele>
        <time>2022-05-01T10:00:12.313Z</time>
      </trkpt>
      <trkpt lat="42.4410539958626" lon="-8.758294964209199">
        <ele>184.8</ele>
        <time>2022-05-01T10:00:12.862Z</time>
      </trkpt>
      <trkpt lat="42.44095701724291" lon="-8.75831801444292">
        <ele>184.1</ele>
        <time>2022-05-01T10:00:13.930Z</time>
      </trkpt>
      <trkpt lat="42.44083698838949" lon="-8.758331006392837">
        <ele>183.7</ele>
        <time>2022-05-01T10:00:15.283Z</time>
      </trkpt>
      <trkpt lat="42.44074302725494" lon="-8.758320026099682">
        <ele>183.4</ele>
        <time>2022-05-01T10:00:16.356Z</time>
      </trkpt>
      <trkpt lat="42.440668009221554" lon="-8.75833997502923">
        <ele>183.3</ele>
        <time>2022-05-01T10:00:17.213Z</time>
      </trkpt>
      <trkpt lat="42.440587962046266" lon="-8.75838398002088">
        <ele>182.8</ele>
        <time>2022-05-01T10:00:18.237Z</time>
      </trkpt>
      <trkpt lat="42.44054898619652" lon="-8.75842697918415">
        <ele>182.2</ele>
        <time>2022-05-01T10:00:18.819Z</time>
      </trkpt>
      <trkpt lat="42.44051001034677" lon="-8.758479030802846">
        <ele>181.5</ele>
        <time>2022-05-01T10:00:19.509Z</time>
      </trkpt>
      <trkpt lat="42.44034203700721" lon="-8.75865999609232">
        <ele>179.3</ele>
        <time>2022-05-01T10:00:22.163Z</time>
      </trkpt>
      <trkpt lat="42.44029903784394" lon="-8.75870299525559">
        <ele>178.4</ele>
        <time>2022-05-01T10:00:22.820Z</time>
      </trkpt>
      <trkpt lat="42.440260984003544" lon="-8.758738031610847">
        <ele>177.6</ele>
        <time>2022-05-01T10:00:23.338Z</time>
      </trkpt>
      <trkpt lat="42.440196024253964" lon="-8.758784970268607">
        <ele>176.8</ele>
        <time>2022-05-01T10:00:24.208Z</time>
      </trkpt>
      <trkpt lat="42.44016903452575" lon="-8.758806008845568">
        <ele>176.6</ele>
        <time>2022-05-01T10:00:24.608Z</time>
      </trkpt>
      <trkpt lat="42.44012997485697" lon="-8.758823024109006">
        <ele>176.2</ele>
        <time>2022-05-01T10:00:25.099Z</time>
      </trkpt>
      <trkpt lat="42.44003601372242" lon="-8.758839033544064">
        <ele>175.3</ele>
        <time>2022-05-01T10:00:26.287Z</time>
      </trkpt>
      <trkpt lat="42.43999100290239" lon="-8.758850013837218">
        <ele>175.0</ele>
        <time>2022-05-01T10:00:26.854Z</time>
      </trkpt>
      <trkpt lat="42.43988296017051" lon="-8.758870968595147">
        <ele>174.3</ele>
        <time>2022-05-01T10:00:28.278Z</time>
      </trkpt>
      <trkpt lat="42.4397589918226" lon="-8.75891899690032">
        <ele>173.3</ele>
        <time>2022-05-01T10:00:29.814Z</time>
      </trkpt>
      <trkpt lat="42.43973501957953" lon="-8.758935006335378">
        <ele>173.1</ele>
        <time>2022-05-01T10:00:30.159Z</time>
      </trkpt>
      <trkpt lat="42.439705012366176" lon="-8.759040031582117">
        <ele>171.7</ele>
        <time>2022-05-01T10:00:31.135Z</time>
      </trkpt>
      <trkpt lat="42.439683973789215" lon="-8.759098034352064">
        <ele>171.2</ele>
        <time>2022-05-01T10:00:31.744Z</time>
      </trkpt>
      <trkpt lat="42.43955195881426" lon="-8.759259972721338">
        <ele>169.4</ele>
        <time>2022-05-01T10:00:34.101Z</time>
      </trkpt>
      <trkpt lat="42.43949797935784" lon="-8.759301966056228">
        <ele>169.3</ele>
        <time>2022-05-01T10:00:34.851Z</time>
      </trkpt>
      <trkpt lat="42.43936596438289" lon="-8.759424006566405">
        <ele>167.9</ele>
        <time>2022-05-01T10:00:36.657Z</time>
      </trkpt>
      <trkpt lat="42.43930201046169" lon="-8.759489972144365">
        <ele>167.5</ele>
        <time>2022-05-01T10:00:37.505Z</time>
      </trkpt>
      <trkpt lat="42.439168989658356" lon="-8.759617041796446">
        <ele>166.5</ele>
        <time>2022-05-01T10:00:39.139Z</time>
      </trkpt>
      <trkpt lat="42.4390750285238" lon="-8.759708991274238">
        <ele>165.4</ele>
        <time>2022-05-01T10:00:40.377Z</time>
      </trkpt>
      <trkpt lat="42.43902800604701" lon="-8.759752996265888">
        <ele>165.3</ele>
        <time>2022-05-01T10:00:41.009Z</time>
      </trkpt>
      <trkpt lat="42.438866989687085" lon="-8.759877970442176">
        <ele>163.9</ele>
        <time>2022-05-01T10:00:43.072Z</time>
      </trkpt>
      <trkpt lat="42.438778979703784" lon="-8.75997201539576">
        <ele>162.8</ele>
        <time>2022-05-01T10:00:44.374Z</time>
      </trkpt>
      <trkpt lat="42.43873002938926" lon="-8.760017026215792">
        <ele>162.5</ele>
        <time>2022-05-01T10:00:45.081Z</time>
      </trkpt>
      <trkpt lat="42.43868200108409" lon="-8.7600580137223">
        <ele>162.1</ele>
        <time>2022-05-01T10:00:45.818Z</time>
      </trkpt>
      <trkpt lat="42.43860103189945" lon="-8.760126996785402">
        <ele>161.2</ele>
        <time>2022-05-01T10:00:47.042Z</time>
      </trkpt>
      <trkpt lat="42.438563983887434" lon="-8.760168990120292">
        <ele>160.7</ele>
        <time>2022-05-01T10:00:47.710Z</time>
      </trkpt>
      <trkpt lat="42.43850799277425" lon="-8.760269992053509">
        <ele>160.7</ele>
        <time>2022-05-01T10:00:49.012Z</time>
      </trkpt>
      <trkpt lat="42.438482008874416" lon="-8.76035699620843">
        <ele>160.8</ele>
        <time>2022-05-01T10:00:50.050Z</time>
      </trkpt>
      <trkpt lat="42.43847496807575" lon="-8.760383985936642">
        <ele>160.8</ele>
        <time>2022-05-01T10:00:50.387Z</time>
      </trkpt>
      <trkpt lat="42.438461976125836" lon="-8.760398989543319">
        <ele>160.8</ele>
        <time>2022-05-01T10:00:50.670Z</time>
      </trkpt>
      <trkpt lat="42.43838896974921" lon="-8.7603999953717">
        <ele>160.1</ele>
        <time>2022-05-01T10:00:51.916Z</time>
      </trkpt>
      <trkpt lat="42.43829098530114" lon="-8.760339980944991">
        <ele>159.0</ele>
        <time>2022-05-01T10:00:53.753Z</time>
      </trkpt>
      <trkpt lat="42.43823901750147" lon="-8.760310979560018">
        <ele>158.5</ele>
        <time>2022-05-01T10:00:54.724Z</time>
      </trkpt>
      <trkpt lat="42.43818503804505" lon="-8.760286001488566">
        <ele>158.1</ele>
        <time>2022-05-01T10:00:55.642Z</time>
      </trkpt>
      <trkpt lat="42.43812896311283" lon="-8.760263035073876">
        <ele>157.8</ele>
        <time>2022-05-01T10:00:56.640Z</time>
      </trkpt>
      <trkpt lat="42.43801798671484" lon="-8.760237973183393">
        <ele>157.2</ele>
        <time>2022-05-01T10:00:58.617Z</time>
      </trkpt>
      <trkpt lat="42.43797297589481" lon="-8.760244008153677">
        <ele>157.0</ele>
        <time>2022-05-01T10:00:59.398Z</time>
      </trkpt>
      <trkpt lat="42.43778396397829" lon="-8.760369988158345">
        <ele>156.6</ele>
        <time>2022-05-01T10:01:02.905Z</time>
      </trkpt>
      <trkpt lat="42.437727972865105" lon="-8.76040200702846">
        <ele>156.3</ele>
        <time>2022-05-01T10:01:03.927Z</time>
      </trkpt>
      <trkpt lat="42.437620013952255" lon="-8.760452968999743">
        <ele>156.0</ele>
        <time>2022-05-01T10:01:05.753Z</time>
      </trkpt>
      <trkpt lat="42.4375709798187" lon="-8.760475013405085">
        <ele>155.8</ele>
        <time>2022-05-01T10:01:06.471Z</time>
      </trkpt>
      <trkpt lat="42.43752496317029" lon="-8.760479036718607">
        <ele>155.7</ele>
        <time>2022-05-01T10:01:07.067Z</time>
      </trkpt>
      <trkpt lat="42.4374139867723" lon="-8.760523041710258">
        <ele>155.2</ele>
        <time>2022-05-01T10:01:08.589Z</time>
      </trkpt>
      <trkpt lat="42.437383979558945" lon="-8.76055397093296">
        <ele>154.8</ele>
        <time>2022-05-01T10:01:09.093Z</time>
      </trkpt>
      <trkpt lat="42.43735397234559" lon="-8.760597975924611">
        <ele>154.3</ele>
        <time>2022-05-01T10:01:09.659Z</time>
      </trkpt>
      <trkpt lat="42.43729001842439" lon="-8.760718004778028">
        <ele>153.3</ele>
        <time>2022-05-01T10:01:11.086Z</time>
      </trkpt>
      <trkpt lat="42.43713403120637" lon="-8.760814983397722">
        <ele>152.1</ele>
        <time>2022-05-01T10:01:13.396Z</time>
      </trkpt>
      <trkpt lat="42.4370770342648" lon="-8.760825963690877">
        <ele>151.8</ele>
        <time>2022-05-01T10:01:14.229Z</time>
      </trkpt>
      <trkpt lat="42.43702598847449" lon="-8.76083199866116">
        <ele>151.6</ele>
        <time>2022-05-01T10:01:15.023Z</time>
      </trkpt>
      <trkpt lat="42.43693697266281" lon="-8.760859994217753">
        <ele>151.4</ele>
        <time>2022-05-01T10:01:16.401Z</time>
      </trkpt>
      <trkpt lat="42.43687503039837" lon="-8.760942975059152">
        <ele>150.8</ele>
        <time>2022-05-01T10:01:17.765Z</time>
      </trkpt>
      <trkpt lat="42.43683496490121" lon="-8.760996032506227">
        <ele>150.3</ele>
        <time>2022-05-01T10:01:18.696Z</time>
      </trkpt>
      <trkpt lat="42.4367990065366" lon="-8.761055041104555">
        <ele>149.8</ele>
        <time>2022-05-01T10:01:19.597Z</time>
      </trkpt>
      <trkpt lat="42.43676698766649" lon="-8.76111296005547">
        <ele>149.6</ele>
        <time>2022-05-01T10:01:20.423Z</time>
      </trkpt>
      <trkpt lat="42.43673203513026" lon="-8.761156965047121">
        <ele>149.5</ele>
        <time>2022-05-01T10:01:21.162Z</time>
      </trkpt>
      <trkpt lat="42.43669004179537" lon="-8.761163000017405">
        <ele>149.3</ele>
        <time>2022-05-01T10:01:21.857Z</time>
      </trkpt>
      <trkpt lat="42.436588034033775" lon="-8.761135004460812">
        <ele>149.1</ele>
        <time>2022-05-01T10:01:23.542Z</time>
      </trkpt>
      <trkpt lat="42.436480997130275" lon="-8.761170040816069">
        <ele>148.7</ele>
        <time>2022-05-01T10:01:25.370Z</time>
      </trkpt>
      <trkpt lat="42.4363779835403" lon="-8.761182026937604">
        <ele>148.3</ele>
        <time>2022-05-01T10:01:27.063Z</time>
      </trkpt>
      <trkpt lat="42.43632500991225" lon="-8.761184038594365">
        <ele>148.2</ele>
        <time>2022-05-01T10:01:27.980Z</time>
      </trkpt>
      <trkpt lat="42.43616801686585" lon="-8.761274982243776">
        <ele>147.3</ele>
        <time>2022-05-01T10:01:30.948Z</time>
      </trkpt>
      <trkpt lat="42.436115965247154" lon="-8.761300966143608">
        <ele>147.0</ele>
        <time>2022-05-01T10:01:31.922Z</time>
      </trkpt>
      <trkpt lat="42.43595503270626" lon="-8.761315969750285">
        <ele>147.5</ele>
        <time>2022-05-01T10:01:34.712Z</time>
      </trkpt>
      <trkpt lat="42.435899041593075" lon="-8.761308006942272">
        <ele>147.8</ele>
        <time>2022-05-01T10:01:35.709Z</time>
      </trkpt>
      <trkpt lat="42.4357960280031" lon="-8.761300966143608">
        <ele>147.9</ele>
        <time>2022-05-01T10:01:37.535Z</time>
      </trkpt>
      <trkpt lat="42.43565797805786" lon="-8.761300966143608">
        <ele>147.9</ele>
        <time>2022-05-01T10:01:40.022Z</time>
      </trkpt>
      <trkpt lat="42.43554297834635" lon="-8.761285040527582">
        <ele>147.4</ele>
        <time>2022-05-01T10:01:42.174Z</time>
      </trkpt>
      <trkpt lat="42.43550701998174" lon="-8.761298032477498">
        <ele>146.9</ele>
        <time>2022-05-01T10:01:42.896Z</time>
      </trkpt>
      <trkpt lat="42.43550802581012" lon="-8.761408003047109">
        <ele>145.8</ele>
        <time>2022-05-01T10:01:44.402Z</time>
      </trkpt>
      <trkpt lat="42.43548195809126" lon="-8.761699022725224">
        <ele>144.7</ele>
        <time>2022-05-01T10:01:48.480Z</time>
      </trkpt>
      <trkpt lat="42.435363018885255" lon="-8.761856015771627">
        <ele>144.6</ele>
        <time>2022-05-01T10:01:51.582Z</time>
      </trkpt>
      <trkpt lat="42.43530702777207" lon="-8.761911001056433">
        <ele>144.4</ele>
        <time>2022-05-01T10:01:52.797Z</time>
      </trkpt>
      <trkpt lat="42.4352450016886" lon="-8.761967997998">
        <ele>143.9</ele>
        <time>2022-05-01T10:01:53.985Z</time>
      </trkpt>
      <trkpt lat="42.4350930377841" lon="-8.76211803406477">
        <ele>143.3</ele>
        <time>2022-05-01T10:01:56.666Z</time>
      </trkpt>
      <trkpt lat="42.434978960081935" lon="-8.76229103654623">
        <ele>142.5</ele>
        <time>2022-05-01T10:01:58.844Z</time>
      </trkpt>
      <trkpt lat="42.434937972575426" lon="-8.762345016002655">
        <ele>142.6</ele>
        <time>2022-05-01T10:01:59.587Z</time>
      </trkpt>
      <trkpt lat="42.4348979908973" lon="-8.762393966317177">
        <ele>142.5</ele>
        <time>2022-05-01T10:02:00.242Z</time>
      </trkpt>
      <trkpt lat="42.434762036427855" lon="-8.762520030140877">
        <ele>141.4</ele>
        <time>2022-05-01T10:02:02.352Z</time>
      </trkpt>
      <trkpt lat="42.43469196371734" lon="-8.762566968798637">
        <ele>140.7</ele>
        <time>2022-05-01T10:02:03.434Z</time>
      </trkpt>
      <trkpt lat="42.43458199314773" lon="-8.762620026245713">
        <ele>138.9</ele>
        <time>2022-05-01T10:02:05.072Z</time>
      </trkpt>
      <trkpt lat="42.434524996206164" lon="-8.76263301819563">
        <ele>137.8</ele>
        <time>2022-05-01T10:02:05.821Z</time>
      </trkpt>
      <trkpt lat="42.43451099842787" lon="-8.762616002932191">
        <ele>137.6</ele>
        <time>2022-05-01T10:02:06.084Z</time>
      </trkpt>
      <trkpt lat="42.43445198982954" lon="-8.762595970183611">
        <ele>137.0</ele>
        <time>2022-05-01T10:02:06.945Z</time>
      </trkpt>
      <trkpt lat="42.434458024799824" lon="-8.762684985995293">
        <ele>136.9</ele>
        <time>2022-05-01T10:02:07.946Z</time>
      </trkpt>
      <trkpt lat="42.434458024799824" lon="-8.76274298876524">
        <ele>136.6</ele>
        <time>2022-05-01T10:02:08.638Z</time>
      </trkpt>
      <trkpt lat="42.43440798483789" lon="-8.762838039547205">
        <ele>135.5</ele>
        <time>2022-05-01T10:02:10.113Z</time>
      </trkpt>
      <trkpt lat="42.434372026473284" lon="-8.76285295933485">
        <ele>135.0</ele>
        <time>2022-05-01T10:02:10.672Z</time>
      </trkpt>
      <trkpt lat="42.434310000389814" lon="-8.762863017618656">
        <ele>134.2</ele>
        <time>2022-05-01T10:02:11.664Z</time>
      </trkpt>
      <trkpt lat="42.43427898734808" lon="-8.762942980974913">
        <ele>133.4</ele>
        <time>2022-05-01T10:02:12.786Z</time>
      </trkpt>
      <trkpt lat="42.434289967641234" lon="-8.763062003999949">
        <ele>133.0</ele>
        <time>2022-05-01T10:02:14.278Z</time>
      </trkpt>
      <trkpt lat="42.4342830106616" lon="-8.763127969577909">
        <ele>132.7</ele>
        <time>2022-05-01T10:02:15.075Z</time>
      </trkpt>
      <trkpt lat="42.43425803259015" lon="-8.763188989832997">
        <ele>132.5</ele>
        <time>2022-05-01T10:02:15.878Z</time>
      </trkpt>
      <trkpt lat="42.43418795987964" lon="-8.763284040614963">
        <ele>132.2</ele>
        <time>2022-05-01T10:02:17.353Z</time>
      </trkpt>
      <trkpt lat="42.43404798209667" lon="-8.763479003682733">
        <ele>131.0</ele>
        <time>2022-05-01T10:02:20.167Z</time>
      </trkpt>
      <trkpt lat="42.433971958234906" lon="-8.763586040586233">
        <ele>130.5</ele>
        <time>2022-05-01T10:02:21.650Z</time>
      </trkpt>
      <trkpt lat="42.43384899571538" lon="-8.763812016695738">
        <ele>128.7</ele>
        <time>2022-05-01T10:02:24.183Z</time>
      </trkpt>
      <trkpt lat="42.433754028752446" lon="-8.763971021398902">
        <ele>127.8</ele>
        <time>2022-05-01T10:02:26.019Z</time>
      </trkpt>
      <trkpt lat="42.43364003486931" lon="-8.76411996781826">
        <ele>126.7</ele>
        <time>2022-05-01T10:02:27.971Z</time>
      </trkpt>
      <trkpt lat="42.43352897465229" lon="-8.764250976964831">
        <ele>126.1</ele>
        <time>2022-05-01T10:02:29.852Z</time>
      </trkpt>
      <trkpt lat="42.43348597548902" lon="-8.764308979734778">
        <ele>126.0</ele>
        <time>2022-05-01T10:02:30.690Z</time>
      </trkpt>
      <trkpt lat="42.433452028781176" lon="-8.764361031353474">
        <ele>126.0</ele>
        <time>2022-05-01T10:02:31.420Z</time>
      </trkpt>
      <trkpt lat="42.433411963284016" lon="-8.764444012194872">
        <ele>125.8</ele>
        <time>2022-05-01T10:02:32.406Z</time>
      </trkpt>
      <trkpt lat="42.43339997716248" lon="-8.764479970559478">
        <ele>125.6</ele>
        <time>2022-05-01T10:02:32.828Z</time>
      </trkpt>
      <trkpt lat="42.4333849735558" lon="-8.764511989429593">
        <ele>125.5</ele>
        <time>2022-05-01T10:02:33.189Z</time>
      </trkpt>
      <trkpt lat="42.433365024626255" lon="-8.764533028006554">
        <ele>125.3</ele>
        <time>2022-05-01T10:02:33.541Z</time>
      </trkpt>
      <trkpt lat="42.433320013806224" lon="-8.76457099802792">
        <ele>125.8</ele>
        <time>2022-05-01T10:02:34.303Z</time>
      </trkpt>
      <trkpt lat="42.43327600881457" lon="-8.76471902243793">
        <ele>125.7</ele>
        <time>2022-05-01T10:02:36.061Z</time>
      </trkpt>
      <trkpt lat="42.43326301686466" lon="-8.76478498801589">
        <ele>125.6</ele>
        <time>2022-05-01T10:02:36.830Z</time>
      </trkpt>
      <trkpt lat="42.43322202935815" lon="-8.764926977455616">
        <ele>125.3</ele>
        <time>2022-05-01T10:02:38.631Z</time>
      </trkpt>
      <trkpt lat="42.43318104185164" lon="-8.765051029622555">
        <ele>124.5</ele>
        <time>2022-05-01T10:02:40.268Z</time>
      </trkpt>
      <trkpt lat="42.43313795886934" lon="-8.765155971050262">
        <ele>123.5</ele>
        <time>2022-05-01T10:02:41.735Z</time>
      </trkpt>
      <trkpt lat="42.43308397941291" lon="-8.765283040702343">
        <ele>122.8</ele>
        <time>2022-05-01T10:02:43.544Z</time>
      </trkpt>
      <trkpt lat="42.43302798829973" lon="-8.765378007665277">
        <ele>122.3</ele>
        <time>2022-05-01T10:02:45.074Z</time>
      </trkpt>
      <trkpt lat="42.432998986914754" lon="-8.76542896963656">
        <ele>121.9</ele>
        <time>2022-05-01T10:02:45.822Z</time>
      </trkpt>
      <trkpt lat="42.43297300301492" lon="-8.765480015426874">
        <ele>121.4</ele>
        <time>2022-05-01T10:02:46.536Z</time>
      </trkpt>
      <trkpt lat="42.432939978316426" lon="-8.765529971569777">
        <ele>121.0</ele>
        <time>2022-05-01T10:02:47.290Z</time>
      </trkpt>
      <trkpt lat="42.43288599886" lon="-8.765582023188472">
        <ele>120.4</ele>
        <time>2022-05-01T10:02:48.296Z</time>
      </trkpt>
      <trkpt lat="42.43281802162528" lon="-8.7656410317868">
        <ele>120.6</ele>
        <time>2022-05-01T10:02:49.504Z</time>
      </trkpt>
      <trkpt lat="42.43278298527002" lon="-8.765674978494644">
        <ele>120.5</ele>
        <time>2022-05-01T10:02:50.140Z</time>
      </trkpt>
      <trkpt lat="42.432698998600245" lon="-8.765758965164423">
        <ele>120.2</ele>
        <time>2022-05-01T10:02:51.587Z</time>
      </trkpt>
      <trkpt lat="42.43259699083865" lon="-8.765866002067924">
        <ele>119.8</ele>
        <time>2022-05-01T10:02:53.471Z</time>
      </trkpt>
      <trkpt lat="42.432551980018616" lon="-8.76592400483787">
        <ele>119.3</ele>
        <time>2022-05-01T10:02:54.350Z</time>
      </trkpt>
      <trkpt lat="42.43247201666236" lon="-8.766055013984442">
        <ele>118.5</ele>
        <time>2022-05-01T10:02:56.164Z</time>
      </trkpt>
      <trkpt lat="42.432443015277386" lon="-8.766122991219163">
        <ele>117.9</ele>
        <time>2022-05-01T10:02:57.042Z</time>
      </trkpt>
      <trkpt lat="42.43243798613548" lon="-8.766360031440854">
        <ele>116.6</ele>
        <time>2022-05-01T10:02:59.753Z</time>
      </trkpt>
      <trkpt lat="42.432442009449005" lon="-8.766445023939013">
        <ele>116.3</ele>
        <time>2022-05-01T10:03:00.758Z</time>
      </trkpt>
      <trkpt lat="42.43244703859091" lon="-8.766692038625479">
        <ele>115.5</ele>
        <time>2022-05-01T10:03:03.711Z</time>
      </trkpt>
      <trkpt lat="42.43242600001395" lon="-8.766751969233155">
        <ele>115.3</ele>
        <time>2022-05-01T10:03:04.505Z</time>
      </trkpt>
      <trkpt lat="42.432336984202266" lon="-8.766811983659863">
        <ele>115.3</ele>
        <time>2022-05-01T10:03:06.183Z</time>
      </trkpt>
      <trkpt lat="42.43228702805936" lon="-8.766840985044837">
        <ele>115.3</ele>
        <time>2022-05-01T10:03:07.149Z</time>
      </trkpt>
      <trkpt lat="42.432163981720805" lon="-8.766986997798085">
        <ele>115.0</ele>
        <time>2022-05-01T10:03:10.099Z</time>
      </trkpt>
      <trkpt lat="42.4321280233562" lon="-8.76704097725451">
        <ele>115.1</ele>
        <time>2022-05-01T10:03:11.073Z</time>
      </trkpt>
      <trkpt lat="42.43208703584969" lon="-8.767093028873205">
        <ele>115.3</ele>
        <time>2022-05-01T10:03:12.134Z</time>
      </trkpt>
      <trkpt lat="42.43200900033116" lon="-8.767157988622785">
        <ele>115.8</ele>
        <time>2022-05-01T10:03:13.902Z</time>
      </trkpt>
      <trkpt lat="42.431930964812636" lon="-8.767264019697905">
        <ele>116.4</ele>
        <time>2022-05-01T10:03:16.033Z</time>
      </trkpt>
      <trkpt lat="42.43192199617624" lon="-8.767279023304582">
        <ele>116.5</ele>
        <time>2022-05-01T10:03:16.318Z</time>
      </trkpt>
      <trkpt lat="42.43191001005471" lon="-8.767294026911259">
        <ele>116.7</ele>
        <time>2022-05-01T10:03:16.655Z</time>
      </trkpt>
      <trkpt lat="42.43189802393317" lon="-8.767309030517936">
        <ele>116.8</ele>
        <time>2022-05-01T10:03:17.002Z</time>
      </trkpt>
      <trkpt lat="42.43189198896289" lon="-8.767311964184046">
        <ele>117.0</ele>
        <time>2022-05-01T10:03:17.142Z</time>
      </trkpt>
      <trkpt lat="42.431886959820986" lon="-8.767414977774024">
        <ele>116.1</ele>
        <time>2022-05-01T10:03:18.822Z</time>
      </trkpt>
      <trkpt lat="42.431886959820986" lon="-8.767444984987378">
        <ele>115.8</ele>
        <time>2022-05-01T10:03:19.320Z</time>
      </trkpt>
      <trkpt lat="42.43187296204269" lon="-8.76753400079906">
        <ele>115.2</ele>
        <time>2022-05-01T10:03:20.813Z</time>
      </trkpt>
      <trkpt lat="42.43185603059828" lon="-8.767593009397388">
        <ele>115.0</ele>
        <time>2022-05-01T10:03:21.872Z</time>
      </trkpt>
      <trkpt lat="42.4318309687078" lon="-8.767650006338954">
        <ele>115.0</ele>
        <time>2022-05-01T10:03:22.967Z</time>
      </trkpt>
      <trkpt lat="42.43172602728009" lon="-8.76785603351891">
        <ele>114.9</ele>
        <time>2022-05-01T10:03:27.102Z</time>
      </trkpt>
      <trkpt lat="42.43170498870313" lon="-8.767903978005052">
        <ele>115.1</ele>
        <time>2022-05-01T10:03:28.040Z</time>
      </trkpt>
      <trkpt lat="42.43168696761131" lon="-8.767953012138605">
        <ele>115.1</ele>
        <time>2022-05-01T10:03:28.977Z</time>
      </trkpt>
      <trkpt lat="42.431669030338526" lon="-8.76800799742341">
        <ele>115.1</ele>
        <time>2022-05-01T10:03:30.018Z</time>
      </trkpt>
      <trkpt lat="42.43166098371148" lon="-8.768147975206375">
        <ele>115.2</ele>
        <time>2022-05-01T10:03:32.478Z</time>
      </trkpt>
      <trkpt lat="42.43171798065305" lon="-8.768295999616385">
        <ele>114.6</ele>
        <time>2022-05-01T10:03:35.344Z</time>
      </trkpt>
      <trkpt lat="42.43181101977825" lon="-8.768403958529234">
        <ele>113.6</ele>
        <time>2022-05-01T10:03:38.079Z</time>
      </trkpt>
      <trkpt lat="42.431841026991606" lon="-8.76843698322773">
        <ele>113.3</ele>
        <time>2022-05-01T10:03:38.958Z</time>
      </trkpt>
      <trkpt lat="42.43185896426439" lon="-8.768469002097845">
        <ele>113.2</ele>
        <time>2022-05-01T10:03:39.644Z</time>
      </trkpt>
      <trkpt lat="42.43195401504636" lon="-8.768668994307518">
        <ele>113.3</ele>
        <time>2022-05-01T10:03:43.220Z</time>
      </trkpt>
      <trkpt lat="42.431970024481416" lon="-8.768723979592323">
        <ele>113.1</ele>
        <time>2022-05-01T10:03:43.996Z</time>
      </trkpt>
      <trkpt lat="42.43199902586639" lon="-8.768835039809346">
        <ele>112.5</ele>
        <time>2022-05-01T10:03:45.552Z</time>
      </trkpt>
      <trkpt lat="42.43200003169477" lon="-8.768941992893815">
        <ele>112.2</ele>
        <time>2022-05-01T10:03:46.997Z</time>
      </trkpt>
      <trkpt lat="42.43198896758258" lon="-8.769007036462426">
        <ele>111.8</ele>
        <time>2022-05-01T10:03:47.939Z</time>
      </trkpt>
      <trkpt lat="42.432011011987925" lon="-8.769287997856736">
        <ele>108.6</ele>
        <time>2022-05-01T10:03:51.535Z</time>
      </trkpt>
      <trkpt lat="42.43197203613818" lon="-8.76959997229278">
        <ele>105.0</ele>
        <time>2022-05-01T10:03:55.389Z</time>
      </trkpt>
      <trkpt lat="42.43181202560663" lon="-8.769688988104463">
        <ele>105.0</ele>
        <time>2022-05-01T10:03:57.970Z</time>
      </trkpt>
      <trkpt lat="42.43167598731816" lon="-8.76985503360629">
        <ele>104.7</ele>
        <time>2022-05-01T10:04:00.556Z</time>
      </trkpt>
      <trkpt lat="42.43164296261966" lon="-8.770222999155521">
        <ele>103.4</ele>
        <time>2022-05-01T10:04:04.004Z</time>
      </trkpt>
      <trkpt lat="42.431669030338526" lon="-8.770460961386561">
        <ele>101.9</ele>
        <time>2022-05-01T10:04:06.299Z</time>
      </trkpt>
      <trkpt lat="42.43165796622634" lon="-8.770701019093394">
        <ele>100.6</ele>
        <time>2022-05-01T10:04:08.738Z</time>
      </trkpt>
      <trkpt lat="42.431564005091786" lon="-8.770753992721438">
        <ele>100.8</ele>
        <time>2022-05-01T10:04:10.193Z</time>
      </trkpt>
      <trkpt lat="42.43149099871516" lon="-8.770888019353151">
        <ele>100.0</ele>
        <time>2022-05-01T10:04:11.960Z</time>
      </trkpt>
      <trkpt lat="42.43147297762334" lon="-8.771022967994213">
        <ele>99.0</ele>
        <time>2022-05-01T10:04:13.472Z</time>
      </trkpt>
      <trkpt lat="42.4313869792968" lon="-8.771050963550806">
        <ele>99.4</ele>
        <time>2022-05-01T10:04:14.742Z</time>
      </trkpt>
      <trkpt lat="42.43131598457694" lon="-8.77110100351274">
        <ele>99.4</ele>
        <time>2022-05-01T10:04:15.933Z</time>
      </trkpt>
      <trkpt lat="42.4312299862504" lon="-8.771281968802214">
        <ele>98.0</ele>
        <time>2022-05-01T10:04:18.407Z</time>
      </trkpt>
      <trkpt lat="42.43116703815758" lon="-8.771458994597197">
        <ele>96.8</ele>
        <time>2022-05-01T10:04:20.746Z</time>
      </trkpt>
      <trkpt lat="42.43103703483939" lon="-8.771497970446944">
        <ele>96.5</ele>
        <time>2022-05-01T10:04:22.893Z</time>
      </trkpt>
      <trkpt lat="42.43086696602404" lon="-8.771587992087007">
        <ele>96.5</ele>
        <time>2022-05-01T10:04:25.835Z</time>
      </trkpt>
      <trkpt lat="42.4308050237596" lon="-8.771705003455281">
        <ele>95.8</ele>
        <time>2022-05-01T10:04:27.596Z</time>
      </trkpt>
      <trkpt lat="42.430789014324546" lon="-8.771814974024892">
        <ele>95.4</ele>
        <time>2022-05-01T10:04:28.997Z</time>
      </trkpt>
      <trkpt lat="42.43075800128281" lon="-8.771927962079644">
        <ele>95.1</ele>
        <time>2022-05-01T10:04:30.416Z</time>
      </trkpt>
      <trkpt lat="42.43077401071787" lon="-8.772314032539725">
        <ele>93.6</ele>
        <time>2022-05-01T10:04:35.113Z</time>
      </trkpt>
      <trkpt lat="42.43070796132088" lon="-8.772569010034204">
        <ele>92.8</ele>
        <time>2022-05-01T10:04:38.265Z</time>
      </trkpt>
      <trkpt lat="42.43061902932823" lon="-8.772746035829186">
        <ele>92.3</ele>
        <time>2022-05-01T10:04:40.778Z</time>
      </trkpt>
      <trkpt lat="42.4304910376668" lon="-8.77297000028193">
        <ele>91.6</ele>
        <time>2022-05-01T10:04:44.070Z</time>
      </trkpt>
      <trkpt lat="42.43044703267515" lon="-8.773221960291266">
        <ele>90.9</ele>
        <time>2022-05-01T10:04:47.093Z</time>
      </trkpt>
      <trkpt lat="42.43036296218634" lon="-8.773483978584409">
        <ele>89.5</ele>
        <time>2022-05-01T10:04:50.489Z</time>
      </trkpt>
      <trkpt lat="42.43023798801005" lon="-8.773576011881232">
        <ele>89.3</ele>
        <time>2022-05-01T10:04:52.915Z</time>
      </trkpt>
      <trkpt lat="42.43010999634862" lon="-8.773741973564029">
        <ele>88.3</ele>
        <time>2022-05-01T10:04:55.901Z</time>
      </trkpt>
      <trkpt lat="42.43005299940705" lon="-8.774121003225446">
        <ele>87.4</ele>
        <time>2022-05-01T10:05:00.567Z</time>
      </trkpt>
      <trkpt lat="42.42998200468719" lon="-8.774421997368336">
        <ele>86.8</ele>
        <time>2022-05-01T10:05:04.359Z</time>
      </trkpt>
      <trkpt lat="42.429839009419084" lon="-8.774832962080836">
        <ele>85.3</ele>
        <time>2022-05-01T10:05:09.891Z</time>
      </trkpt>
      <trkpt lat="42.429737001657486" lon="-8.77507402561605">
        <ele>84.4</ele>
        <time>2022-05-01T10:05:13.359Z</time>
      </trkpt>
      <trkpt lat="42.4298570305109" lon="-8.775197993963957">
        <ele>84.2</ele>
        <time>2022-05-01T10:05:16.048Z</time>
      </trkpt>
      <trkpt lat="42.4299540091306" lon="-8.775384994223714">
        <ele>84.5</ele>
        <time>2022-05-01T10:05:19.068Z</time>
      </trkpt>
      <trkpt lat="42.429948979988694" lon="-8.775618011131883">
        <ele>82.7</ele>
        <time>2022-05-01T10:05:22.206Z</time>
      </trkpt>
      <trkpt lat="42.43004101328552" lon="-8.775810040533543">
        <ele>83.7</ele>
        <time>2022-05-01T10:05:25.077Z</time>
      </trkpt>
      <trkpt lat="42.4302180390805" lon="-8.77580601722002">
        <ele>83.4</ele>
        <time>2022-05-01T10:05:27.889Z</time>
      </trkpt>
      <trkpt lat="42.43039104156196" lon="-8.775838036090136">
        <ele>82.9</ele>
        <time>2022-05-01T10:05:30.776Z</time>
      </trkpt>
      <trkpt lat="42.43058399297297" lon="-8.775939960032701">
        <ele>81.9</ele>
        <time>2022-05-01T10:05:34.144Z</time>
      </trkpt>
      <trkpt lat="42.43064199574292" lon="-8.776201978325844">
        <ele>79.6</ele>
        <time>2022-05-01T10:05:37.431Z</time>
      </trkpt>
      <trkpt lat="42.43067300878465" lon="-8.77634396776557">
        <ele>78.7</ele>
        <time>2022-05-01T10:05:39.248Z</time>
      </trkpt>
      <trkpt lat="42.43077501654625" lon="-8.776463996618986">
        <ele>77.2</ele>
        <time>2022-05-01T10:05:41.523Z</time>
      </trkpt>
      <trkpt lat="42.430785996839404" lon="-8.776619983837008">
        <ele>76.5</ele>
        <time>2022-05-01T10:05:43.470Z</time>
      </trkpt>
      <trkpt lat="42.43070502765477" lon="-8.776754010468721">
        <ele>75.6</ele>
        <time>2022-05-01T10:05:45.628Z</time>
      </trkpt>
      <trkpt lat="42.43060603737831" lon="-8.77690002322197">
        <ele>74.5</ele>
        <time>2022-05-01T10:05:48.232Z</time>
      </trkpt>
      <trkpt lat="42.43051199242473" lon="-8.777150977402925">
        <ele>73.6</ele>
        <time>2022-05-01T10:05:51.624Z</time>
      </trkpt>
      <trkpt lat="42.43051199242473" lon="-8.77735298126936">
        <ele>73.0</ele>
        <time>2022-05-01T10:05:53.933Z</time>
      </trkpt>
      <trkpt lat="42.43064501322806" lon="-8.777564959600568">
        <ele>72.4</ele>
        <time>2022-05-01T10:05:56.840Z</time>
      </trkpt>
      <trkpt lat="42.43075498379767" lon="-8.777897972613573">
        <ele>70.9</ele>
        <time>2022-05-01T10:06:00.565Z</time>
      </trkpt>
      <trkpt lat="42.430833019316196" lon="-8.77812696620822">
        <ele>69.2</ele>
        <time>2022-05-01T10:06:03.071Z</time>
      </trkpt>
      <trkpt lat="42.43090401403606" lon="-8.778274990618229">
        <ele>68.7</ele>
        <time>2022-05-01T10:06:04.794Z</time>
      </trkpt>
      <trkpt lat="42.430935027077794" lon="-8.778430977836251">
        <ele>67.6</ele>
        <time>2022-05-01T10:06:06.419Z</time>
      </trkpt>
      <trkpt lat="42.431150022894144" lon="-8.778561986982822">
        <ele>66.5</ele>
        <time>2022-05-01T10:06:09.810Z</time>
      </trkpt>
      <trkpt lat="42.43131699040532" lon="-8.778717974200845">
        <ele>65.5</ele>
        <time>2022-05-01T10:06:12.755Z</time>
      </trkpt>
      <trkpt lat="42.43135797791183" lon="-8.778755022212863">
        <ele>65.2</ele>
        <time>2022-05-01T10:06:13.520Z</time>
      </trkpt>
      <trkpt lat="42.43142402730882" lon="-8.778915032744408">
        <ele>64.3</ele>
        <time>2022-05-01T10:06:15.456Z</time>
      </trkpt>
      <trkpt lat="42.43155403062701" lon="-8.779042018577456">
        <ele>63.1</ele>
        <time>2022-05-01T10:06:17.785Z</time>
      </trkpt>
      <trkpt lat="42.43177103810012" lon="-8.779218960553408">
        <ele>62.0</ele>
        <time>2022-05-01T10:06:21.419Z</time>
      </trkpt>
      <trkpt lat="42.43198301643133" lon="-8.779491959139705">
        <ele>61.3</ele>
        <time>2022-05-01T10:06:25.810Z</time>
      </trkpt>
      <trkpt lat="42.43200900033116" lon="-8.779647024348378">
        <ele>60.9</ele>
        <time>2022-05-01T10:06:27.568Z</time>
      </trkpt>
      <trkpt lat="42.43207496590912" lon="-8.779750037938356">
        <ele>60.5</ele>
        <time>2022-05-01T10:06:29.176Z</time>
      </trkpt>
      <trkpt lat="42.432250985875726" lon="-8.779810974374413">
        <ele>60.2</ele>
        <time>2022-05-01T10:06:32.216Z</time>
      </trkpt>
      <trkpt lat="42.43230102583766" lon="-8.779808040708303">
        <ele>60.2</ele>
        <time>2022-05-01T10:06:33.060Z</time>
      </trkpt>
      <trkpt lat="42.432356011122465" lon="-8.779924968257546">
        <ele>59.8</ele>
        <time>2022-05-01T10:06:34.879Z</time>
      </trkpt>
      <trkpt lat="42.43233002722263" lon="-8.780143987387419">
        <ele>59.3</ele>
        <time>2022-05-01T10:06:37.928Z</time>
      </trkpt>
      <trkpt lat="42.4323819950223" lon="-8.780370969325304">
        <ele>59.2</ele>
        <time>2022-05-01T10:06:41.263Z</time>
      </trkpt>
      <trkpt lat="42.432444021105766" lon="-8.780528968200088">
        <ele>60.0</ele>
        <time>2022-05-01T10:06:43.856Z</time>
      </trkpt>
      <trkpt lat="42.43249598890543" lon="-8.780624018982053">
        <ele>60.9</ele>
        <time>2022-05-01T10:06:45.614Z</time>
      </trkpt>
      <trkpt lat="42.43256103247404" lon="-8.780670035630465">
        <ele>61.2</ele>
        <time>2022-05-01T10:06:47.126Z</time>
      </trkpt>
      <trkpt lat="42.43278097361326" lon="-8.78076902590692">
        <ele>61.2</ele>
        <time>2022-05-01T10:06:51.988Z</time>
      </trkpt>
      <trkpt lat="42.43295297026634" lon="-8.780886037275195">
        <ele>60.5</ele>
        <time>2022-05-01T10:06:56.120Z</time>
      </trkpt>
      <trkpt lat="42.43303997442126" lon="-8.780953008681536">
        <ele>59.8</ele>
        <time>2022-05-01T10:06:58.232Z</time>
      </trkpt>
      <trkpt lat="42.433070987463" lon="-8.78098201006651">
        <ele>59.7</ele>
        <time>2022-05-01T10:06:59.048Z</time>
      </trkpt>
      <trkpt lat="42.43312102742493" lon="-8.78098201006651">
        <ele>58.7</ele>
        <time>2022-05-01T10:07:00.158Z</time>
      </trkpt>
      <trkpt lat="42.43318296968937" lon="-8.781056022271514">
        <ele>58.8</ele>
        <time>2022-05-01T10:07:02.029Z</time>
      </trkpt>
      <trkpt lat="42.43346200324595" lon="-8.781445026397705">
        <ele>57.1</ele>
        <time>2022-05-01T10:07:10.841Z</time>
      </trkpt>
      <trkpt lat="42.43363198824227" lon="-8.781764041632414">
        <ele>55.9</ele>
        <time>2022-05-01T10:07:16.759Z</time>
      </trkpt>
      <trkpt lat="42.43374296464026" lon="-8.782055983319879">
        <ele>55.4</ele>
        <time>2022-05-01T10:07:21.391Z</time>
      </trkpt>
      <trkpt lat="42.43383499793708" lon="-8.782308027148247">
        <ele>55.4</ele>
        <time>2022-05-01T10:07:25.514Z</time>
      </trkpt>
      <trkpt lat="42.43388897739351" lon="-8.782538026571274">
        <ele>55.9</ele>
        <time>2022-05-01T10:07:29.115Z</time>
      </trkpt>
      <trkpt lat="42.43391001597047" lon="-8.78266199491918">
        <ele>55.3</ele>
        <time>2022-05-01T10:07:31.075Z</time>
      </trkpt>
      <trkpt lat="42.43400766514242" lon="-8.782642465084791">
        <ele>53.7</ele>
        <time>2022-05-01T10:07:33.194Z</time>
      </trkpt>
      <trkpt lat="42.43431771174073" lon="-8.782326886430383">
        <ele>53.6</ele>
        <time>2022-05-01T10:07:41.738Z</time>
      </trkpt>
      <trkpt lat="42.43449540808797" lon="-8.782210210338235">
        <ele>54.5</ele>
        <time>2022-05-01T10:07:46.156Z</time>
      </trkpt>
      <trkpt lat="42.434897320345044" lon="-8.782958379015326">
        <ele>57.3</ele>
        <time>2022-05-01T10:08:02.031Z</time>
      </trkpt>
      <trkpt lat="42.435089349746704" lon="-8.78357763402164">
        <ele>59.0</ele>
        <time>2022-05-01T10:08:14.059Z</time>
      </trkpt>
      <trkpt lat="42.435269644483924" lon="-8.783691627904773">
        <ele>59.3</ele>
        <time>2022-05-01T10:08:18.925Z</time>
      </trkpt>
      <trkpt lat="42.43554943241179" lon="-8.783698249608278">
        <ele>59.8</ele>
        <time>2022-05-01T10:08:25.934Z</time>
      </trkpt>
      <trkpt lat="42.435929886996746" lon="-8.783689700067043">
        <ele>60.7</ele>
        <time>2022-05-01T10:08:35.535Z</time>
      </trkpt>
      <trkpt lat="42.436260636895895" lon="-8.78373496234417">
        <ele>61.8</ele>
        <time>2022-05-01T10:08:43.943Z</time>
      </trkpt>
      <trkpt lat="42.43635141290724" lon="-8.78373060375452">
        <ele>62.2</ele>
        <time>2022-05-01T10:08:46.244Z</time>
      </trkpt>
      <trkpt lat="42.436557188630104" lon="-8.783971332013607">
        <ele>60.8</ele>
        <time>2022-05-01T10:08:52.790Z</time>
      </trkpt>
      <trkpt lat="42.43695331737399" lon="-8.784260004758835">
        <ele>58.1</ele>
        <time>2022-05-01T10:09:03.242Z</time>
      </trkpt>
      <trkpt lat="42.43718692101538" lon="-8.784707598388195">
        <ele>54.8</ele>
        <time>2022-05-01T10:09:12.095Z</time>
      </trkpt>
      <trkpt lat="42.437318013980985" lon="-8.784869201481342">
        <ele>53.2</ele>
        <time>2022-05-01T10:09:15.425Z</time>
      </trkpt>
      <trkpt lat="42.43772101588547" lon="-8.785828175023198">
        <ele>46.5</ele>
        <time>2022-05-01T10:09:29.638Z</time>
      </trkpt>
      <trkpt lat="42.43775010108948" lon="-8.786102430894971">
        <ele>45.6</ele>
        <time>2022-05-01T10:09:33.118Z</time>
      </trkpt>
      <trkpt lat="42.43771749548614" lon="-8.78649034537375">
        <ele>45.7</ele>
        <time>2022-05-01T10:09:38.296Z</time>
      </trkpt>
      <trkpt lat="42.43755949661136" lon="-8.786809695884585">
        <ele>46.1</ele>
        <time>2022-05-01T10:09:43.634Z</time>
      </trkpt>
      <trkpt lat="42.43755186907947" lon="-8.787115467712283">
        <ele>47.1</ele>
        <time>2022-05-01T10:09:48.066Z</time>
      </trkpt>
      <trkpt lat="42.43753912858665" lon="-8.787267012521625">
        <ele>47.1</ele>
        <time>2022-05-01T10:09:50.355Z</time>
      </trkpt>
      <trkpt lat="42.43757299147546" lon="-8.787401206791401">
        <ele>47.2</ele>
        <time>2022-05-01T10:09:52.563Z</time>
      </trkpt>
      <trkpt lat="42.43762034922838" lon="-8.78753749653697">
        <ele>47.2</ele>
        <time>2022-05-01T10:09:54.972Z</time>
      </trkpt>
      <trkpt lat="42.43772562593222" lon="-8.787682754918933">
        <ele>47.7</ele>
        <time>2022-05-01T10:09:58.305Z</time>
      </trkpt>
      <trkpt lat="42.43798756040633" lon="-8.787901438772678">
        <ele>48.5</ele>
        <time>2022-05-01T10:10:05.441Z</time>
      </trkpt>
      <trkpt lat="42.43864436633885" lon="-8.788046445697546">
        <ele>52.6</ele>
        <time>2022-05-01T10:10:22.295Z</time>
      </trkpt>
      <trkpt lat="42.438937313854694" lon="-8.788380464538932">
        <ele>54.0</ele>
        <time>2022-05-01T10:10:32.522Z</time>
      </trkpt>
      <trkpt lat="42.4392875097692" lon="-8.78835498355329">
        <ele>56.3</ele>
        <time>2022-05-01T10:10:41.831Z</time>
      </trkpt>
      <trkpt lat="42.43929245509207" lon="-8.78834961913526">
        <ele>56.3</ele>
        <time>2022-05-01T10:10:41.998Z</time>
      </trkpt>
      <trkpt lat="42.43954684585333" lon="-8.788174269720912">
        <ele>57.3</ele>
        <time>2022-05-01T10:10:49.875Z</time>
      </trkpt>
      <trkpt lat="42.43959344923496" lon="-8.788156919181347">
        <ele>57.4</ele>
        <time>2022-05-01T10:10:51.193Z</time>
      </trkpt>
      <trkpt lat="42.44011354632676" lon="-8.787832371890545">
        <ele>59.2</ele>
        <time>2022-05-01T10:11:07.183Z</time>
      </trkpt>
      <trkpt lat="42.440238101407886" lon="-8.787802616134286">
        <ele>59.5</ele>
        <time>2022-05-01T10:11:10.667Z</time>
      </trkpt>
      <trkpt lat="42.44043130427599" lon="-8.787709828466177">
        <ele>60.2</ele>
        <time>2022-05-01T10:11:16.438Z</time>
      </trkpt>
      <trkpt lat="42.44069332256913" lon="-8.787658363580704">
        <ele>60.9</ele>
        <time>2022-05-01T10:11:23.805Z</time>
      </trkpt>
      <trkpt lat="42.440861128270626" lon="-8.787598432973027">
        <ele>61.3</ele>
        <time>2022-05-01T10:11:28.606Z</time>
      </trkpt>
      <trkpt lat="42.44124032557011" lon="-8.787152180448174">
        <ele>61.9</ele>
        <time>2022-05-01T10:11:42.529Z</time>
      </trkpt>
      <trkpt lat="42.44156428612769" lon="-8.786901645362377">
        <ele>62.5</ele>
        <time>2022-05-01T10:11:52.829Z</time>
      </trkpt>
      <trkpt lat="42.44197432883084" lon="-8.78654164262116">
        <ele>63.3</ele>
        <time>2022-05-01T10:12:06.209Z</time>
      </trkpt>
      <trkpt lat="42.4417329300195" lon="-8.785901181399822">
        <ele>64.3</ele>
        <time>2022-05-01T10:12:20.730Z</time>
      </trkpt>
      <trkpt lat="42.44152187369764" lon="-8.785660117864609">
        <ele>64.0</ele>
        <time>2022-05-01T10:12:28.251Z</time>
      </trkpt>
      <trkpt lat="42.44149396196008" lon="-8.785508405417204">
        <ele>64.1</ele>
        <time>2022-05-01T10:12:31.448Z</time>
      </trkpt>
      <trkpt lat="42.44154333136976" lon="-8.78540555946529">
        <ele>64.4</ele>
        <time>2022-05-01T10:12:33.927Z</time>
      </trkpt>
      <trkpt lat="42.4416742566973" lon="-8.784977663308382">
        <ele>65.4</ele>
        <time>2022-05-01T10:12:43.221Z</time>
      </trkpt>
      <trkpt lat="42.44170828722417" lon="-8.78484170883894">
        <ele>65.7</ele>
        <time>2022-05-01T10:12:46.074Z</time>
      </trkpt>
      <trkpt lat="42.44175941683352" lon="-8.784610200673342">
        <ele>65.9</ele>
        <time>2022-05-01T10:12:50.849Z</time>
      </trkpt>
      <trkpt lat="42.441862346604466" lon="-8.784515652805567">
        <ele>66.5</ele>
        <time>2022-05-01T10:12:54.355Z</time>
      </trkpt>
      <trkpt lat="42.442282950505614" lon="-8.784298477694392">
        <ele>68.4</ele>
        <time>2022-05-01T10:13:06.934Z</time>
      </trkpt>
      <trkpt lat="42.44265611283481" lon="-8.784215245395899">
        <ele>69.9</ele>
        <time>2022-05-01T10:13:17.639Z</time>
      </trkpt>
      <trkpt lat="42.44236886501312" lon="-8.782906914129853">
        <ele>76.4</ele>
        <time>2022-05-01T10:13:49.131Z</time>
      </trkpt>
      <trkpt lat="42.442501466721296" lon="-8.782190680503845">
        <ele>82.2</ele>
        <time>2022-05-01T10:14:05.975Z</time>
      </trkpt>
      <trkpt lat="42.44302382692695" lon="-8.781946348026395">
        <ele>84.0</ele>
        <time>2022-05-01T10:14:24.004Z</time>
      </trkpt>
      <trkpt lat="42.44343847967684" lon="-8.781746691092849">
        <ele>86.2</ele>
        <time>2022-05-01T10:14:38.339Z</time>
      </trkpt>
      <trkpt lat="42.44364936836064" lon="-8.781711822375655">
        <ele>86.9</ele>
        <time>2022-05-01T10:14:44.989Z</time>
      </trkpt>
      <trkpt lat="42.444196036085486" lon="-8.781661614775658">
        <ele>88.9</ele>
        <time>2022-05-01T10:15:01.635Z</time>
      </trkpt>
      <trkpt lat="42.44420257396996" lon="-8.781852973625064">
        <ele>87.4</ele>
        <time>2022-05-01T10:15:05.813Z</time>
      </trkpt>
      <trkpt lat="42.444256134331226" lon="-8.782076183706522">
        <ele>86.1</ele>
        <time>2022-05-01T10:15:10.238Z</time>
      </trkpt>
      <trkpt lat="42.44451228529215" lon="-8.7818752694875">
        <ele>88.6</ele>
        <time>2022-05-01T08:00:00.000Z</time>
      </trkpt>
      <trkpt lat="42.44446995668113" lon="-8.781733782961965">
        <ele>89.5</ele>
        <time>2022-05-01T08:00:03.426Z</time>
      </trkpt>
      <trkpt lat="42.444501807913184" lon="-8.781617190688848">
        <ele>90.4</ele>
        <time>2022-05-01T08:00:06.152Z</time>
      </trkpt>
      <trkpt lat="42.44456693530083" lon="-8.781581232324243">
        <ele>91.0</ele>
        <time>2022-05-01T08:00:08.202Z</time>
      </trkpt>
      <trkpt lat="42.44462225586176" lon="-8.781570252031088">
        <ele>91.4</ele>
        <time>2022-05-01T08:00:09.917Z</time>
      </trkpt>
      <trkpt lat="42.444847309961915" lon="-8.781656250357628">
        <ele>91.7</ele>
        <time>2022-05-01T08:00:16.965Z</time>
      </trkpt>
      <trkpt lat="42.445171270519495" lon="-8.781863953918219">
        <ele>93.0</ele>
        <time>2022-05-01T08:00:27.775Z</time>
      </trkpt>
      <trkpt lat="42.445362880825996" lon="-8.781962106004357">
        <ele>94.3</ele>
        <time>2022-05-01T08:00:33.893Z</time>
      </trkpt>
      <trkpt lat="42.44543454609811" lon="-8.781987335532904">
        <ele>94.4</ele>
        <time>2022-05-01T08:00:36.424Z</time>
      </trkpt>
      <trkpt lat="42.445593969896436" lon="-8.782002087682486">
        <ele>95.2</ele>
        <time>2022-05-01T08:00:42.233Z</time>
      </trkpt>
      <trkpt lat="42.44571341201663" lon="-8.78198616206646">
        <ele>95.7</ele>
        <time>2022-05-01T08:00:46.519Z</time>
      </trkpt>
      <trkpt lat="42.445789352059364" lon="-8.78195389173925">
        <ele>96.3</ele>
        <time>2022-05-01T08:00:49.216Z</time>
      </trkpt>
      <trkpt lat="42.446000408381224" lon="-8.781821625307202">
        <ele>98.0</ele>
        <time>2022-05-01T08:00:56.878Z</time>
      </trkpt>
      <trkpt lat="42.44618045166135" lon="-8.78173059783876">
        <ele>99.2</ele>
        <time>2022-05-01T08:01:03.268Z</time>
      </trkpt>
      <trkpt lat="42.4463402107358" lon="-8.781701261177659">
        <ele>100.1</ele>
        <time>2022-05-01T08:01:08.958Z</time>
      </trkpt>
      <trkpt lat="42.446437859907746" lon="-8.781719449907541">
        <ele>100.9</ele>
        <time>2022-05-01T08:01:12.267Z</time>
      </trkpt>
      <trkpt lat="42.44682954624295" lon="-8.7818942964077">
        <ele>102.4</ele>
        <time>2022-05-01T08:01:26.385Z</time>
      </trkpt>
      <trkpt lat="42.44695804081857" lon="-8.782023629173636">
        <ele>102.5</ele>
        <time>2022-05-01T08:01:32.484Z</time>
      </trkpt>
      <trkpt lat="42.44702685624361" lon="-8.782236278057098">
        <ele>103.5</ele>
        <time>2022-05-01T08:01:39.484Z</time>
      </trkpt>
      <trkpt lat="42.44713447988033" lon="-8.782968604937196">
        <ele>105.9</ele>
        <time>2022-05-01T08:02:00.649Z</time>
      </trkpt>
      <trkpt lat="42.447170270606875" lon="-8.783083353191614">
        <ele>106.0</ele>
        <time>2022-05-01T08:02:04.117Z</time>
      </trkpt>
      <trkpt lat="42.447214275598526" lon="-8.783124592155218">
        <ele>106.1</ele>
        <time>2022-05-01T08:02:06.208Z</time>
      </trkpt>
      <trkpt lat="42.44727806188166" lon="-8.783105062320828">
        <ele>106.4</ele>
        <time>2022-05-01T08:02:08.782Z</time>
      </trkpt>
      <trkpt lat="42.44754485785961" lon="-8.782935161143541">
        <ele>107.9</ele>
        <time>2022-05-01T08:02:20.246Z</time>
      </trkpt>
      <trkpt lat="42.44766538962722" lon="-8.782813204452395">
        <ele>108.8</ele>
        <time>2022-05-01T08:02:25.837Z</time>
      </trkpt>
      <trkpt lat="42.447763876989484" lon="-8.782675573602319">
        <ele>109.8</ele>
        <time>2022-05-01T08:02:30.789Z</time>
      </trkpt>
      <trkpt lat="42.4477924592793" lon="-8.782667024061084">
        <ele>110.1</ele>
        <time>2022-05-01T08:02:31.765Z</time>
      </trkpt>
      <trkpt lat="42.44794115424156" lon="-8.782723098993301">
        <ele>110.9</ele>
        <time>2022-05-01T08:02:37.189Z</time>
      </trkpt>
      <trkpt lat="42.44805632159114" lon="-8.782739527523518">
        <ele>111.8</ele>
        <time>2022-05-01T08:02:41.365Z</time>
      </trkpt>
      <trkpt lat="42.44812706485391" lon="-8.782717231661081">
        <ele>112.4</ele>
        <time>2022-05-01T08:02:44.333Z</time>
      </trkpt>
      <trkpt lat="42.4481962993741" lon="-8.78266685642302">
        <ele>113.1</ele>
        <time>2022-05-01T08:02:47.573Z</time>
      </trkpt>
      <trkpt lat="42.44823954999447" lon="-8.782586473971605">
        <ele>113.8</ele>
        <time>2022-05-01T08:02:50.901Z</time>
      </trkpt>
      <trkpt lat="42.448227647691965" lon="-8.78253785893321">
        <ele>113.9</ele>
        <time>2022-05-01T08:02:52.446Z</time>
      </trkpt>
      <trkpt lat="42.44826201349497" lon="-8.78243182785809">
        <ele>114.8</ele>
        <time>2022-05-01T08:02:55.672Z</time>
      </trkpt>
      <trkpt lat="42.44851129129529" lon="-8.781816763803363">
        <ele>122.0</ele>
        <time>2022-05-01T08:03:15.777Z</time>
      </trkpt>
      <trkpt lat="42.448569126427174" lon="-8.781699500977993">
        <ele>124.5</ele>
        <time>2022-05-01T08:03:20.410Z</time>
      </trkpt>
      <trkpt lat="42.44867255911231" lon="-8.781597577035427">
        <ele>127.1</ele>
        <time>2022-05-01T08:03:26.760Z</time>
      </trkpt>
      <trkpt lat="42.44893088936806" lon="-8.781448043882847">
        <ele>132.1</ele>
        <time>2022-05-01T08:03:42.642Z</time>
      </trkpt>
      <trkpt lat="42.44942164979875" lon="-8.781358357518911">
        <ele>138.1</ele>
        <time>2022-05-01T08:04:10.682Z</time>
      </trkpt>
      <trkpt lat="42.44974468834698" lon="-8.78133731894195">
        <ele>139.1</ele>
        <time>2022-05-01T08:04:31.141Z</time>
      </trkpt>
      <trkpt lat="42.44990880601108" lon="-8.781296079978347">
        <ele>140.0</ele>
        <time>2022-05-01T08:04:42.551Z</time>
      </trkpt>
      <trkpt lat="42.450037971138954" lon="-8.78123170696199">
        <ele>141.6</ele>
        <time>2022-05-01T08:04:51.120Z</time>
      </trkpt>
      <trkpt lat="42.450317088514566" lon="-8.7809790764004">
        <ele>147.0</ele>
        <time>2022-05-01T08:05:09.805Z</time>
      </trkpt>
      <trkpt lat="42.450447008013725" lon="-8.780913194641471">
        <ele>148.3</ele>
        <time>2022-05-01T08:05:16.419Z</time>
      </trkpt>
      <trkpt lat="42.45071615092456" lon="-8.780814120545983">
        <ele>149.8</ele>
        <time>2022-05-01T08:05:29.421Z</time>
      </trkpt>
      <trkpt lat="42.450837939977646" lon="-8.780723847448826">
        <ele>149.9</ele>
        <time>2022-05-01T08:05:35.865Z</time>
      </trkpt>
      <trkpt lat="42.451095432043076" lon="-8.780480939894915">
        <ele>150.0</ele>
        <time>2022-05-01T08:05:49.476Z</time>
      </trkpt>
      <trkpt lat="42.45127581059933" lon="-8.780265441164374">
        <ele>149.8</ele>
        <time>2022-05-01T08:05:59.493Z</time>
      </trkpt>
      <trkpt lat="42.45136289857328" lon="-8.780128564685583">
        <ele>149.9</ele>
        <time>2022-05-01T08:06:04.601Z</time>
      </trkpt>
      <trkpt lat="42.45147882029414" lon="-8.779848357662559">
        <ele>150.4</ele>
        <time>2022-05-01T08:06:13.334Z</time>
      </trkpt>
      <trkpt lat="42.4516433570534" lon="-8.779221810400486">
        <ele>152.9</ele>
        <time>2022-05-01T08:06:30.403Z</time>
      </trkpt>
      <trkpt lat="42.45176958851516" lon="-8.778984770178795">
        <ele>153.7</ele>
        <time>2022-05-01T08:06:37.683Z</time>
      </trkpt>
      <trkpt lat="42.452377611771226" lon="-8.778418824076653">
        <ele>151.4</ele>
        <time>2022-05-01T08:07:01.424Z</time>
      </trkpt>
      <trkpt lat="42.452472411096096" lon="-8.778281025588512">
        <ele>150.9</ele>
        <time>2022-05-01T08:07:05.752Z</time>
      </trkpt>
      <trkpt lat="42.45251423679292" lon="-8.778171893209219">
        <ele>150.9</ele>
        <time>2022-05-01T08:07:08.175Z</time>
      </trkpt>
      <trkpt lat="42.45257860980928" lon="-8.777814321219921">
        <ele>151.3</ele>
        <time>2022-05-01T08:07:15.476Z</time>
      </trkpt>
      <trkpt lat="42.45265446603298" lon="-8.77681109122932">
        <ele>152.9</ele>
        <time>2022-05-01T08:07:35.741Z</time>
      </trkpt>
      <trkpt lat="42.45270140469074" lon="-8.776707826182246">
        <ele>152.5</ele>
        <time>2022-05-01T08:07:38.338Z</time>
      </trkpt>
      <trkpt lat="42.45277508161962" lon="-8.776620151475072">
        <ele>152.3</ele>
        <time>2022-05-01T08:07:41.230Z</time>
      </trkpt>
      <trkpt lat="42.452784553170204" lon="-8.77653012983501">
        <ele>153.3</ele>
        <time>2022-05-01T08:07:43.374Z</time>
      </trkpt>
      <trkpt lat="42.452808022499084" lon="-8.776485957205296">
        <ele>153.8</ele>
        <time>2022-05-01T08:07:44.617Z</time>
      </trkpt>
      <trkpt lat="42.45300977490842" lon="-8.77626283094287">
        <ele>155.1</ele>
        <time>2022-05-01T08:07:52.473Z</time>
      </trkpt>
      <trkpt lat="42.45314883068204" lon="-8.7759418040514">
        <ele>157.7</ele>
        <time>2022-05-01T08:08:00.581Z</time>
      </trkpt>
      <trkpt lat="42.45315360836685" lon="-8.775793109089136">
        <ele>159.1</ele>
        <time>2022-05-01T08:08:03.820Z</time>
      </trkpt>
      <trkpt lat="42.45320649817586" lon="-8.775474177673459">
        <ele>160.0</ele>
        <time>2022-05-01T08:08:11.484Z</time>
      </trkpt>
      <trkpt lat="42.45346826501191" lon="-8.774537416175008">
        <ele>160.4</ele>
        <time>2022-05-01T08:08:36.748Z</time>
      </trkpt>
      <trkpt lat="42.45348645374179" lon="-8.774330215528607">
        <ele>160.6</ele>
        <time>2022-05-01T08:08:41.931Z</time>
      </trkpt>
      <trkpt lat="42.45347714982927" lon="-8.774131815880537">
        <ele>161.2</ele>
        <time>2022-05-01T08:08:46.817Z</time>
      </trkpt>
      <trkpt lat="42.45344387367368" lon="-8.774017570540309">
        <ele>162.6</ele>
        <time>2022-05-01T08:08:49.910Z</time>
      </trkpt>
      <trkpt lat="42.453302051872015" lon="-8.773729400709271">
        <ele>166.9</ele>
        <time>2022-05-01T08:08:58.400Z</time>
      </trkpt>
      <trkpt lat="42.4532874673605" lon="-8.773589255288243">
        <ele>167.8</ele>
        <time>2022-05-01T08:09:01.788Z</time>
      </trkpt>
      <trkpt lat="42.453301046043634" lon="-8.773508118465543">
        <ele>167.9</ele>
        <time>2022-05-01T08:09:03.762Z</time>
      </trkpt>
      <trkpt lat="42.45336592197418" lon="-8.77333452925086">
        <ele>168.5</ele>
        <time>2022-05-01T08:09:08.230Z</time>
      </trkpt>
      <trkpt lat="42.45348100550473" lon="-8.773120790719986">
        <ele>169.1</ele>
        <time>2022-05-01T08:09:14.271Z</time>
      </trkpt>
      <trkpt lat="42.45357538573444" lon="-8.772851144894958">
        <ele>170.0</ele>
        <time>2022-05-01T08:09:21.188Z</time>
      </trkpt>
      <trkpt lat="42.45358033105731" lon="-8.772725583985448">
        <ele>169.2</ele>
        <time>2022-05-01T08:09:24.137Z</time>
      </trkpt>
      <trkpt lat="42.45350807905197" lon="-8.772588707506657">
        <ele>169.1</ele>
        <time>2022-05-01T08:09:27.994Z</time>
      </trkpt>
      <trkpt lat="42.4534722045064" lon="-8.772461134940386">
        <ele>169.3</ele>
        <time>2022-05-01T08:09:31.052Z</time>
      </trkpt>
      <trkpt lat="42.45350020006299" lon="-8.772324258461595">
        <ele>169.1</ele>
        <time>2022-05-01T08:09:34.167Z</time>
      </trkpt>
      <trkpt lat="42.45359248481691" lon="-8.772138599306345">
        <ele>167.9</ele>
        <time>2022-05-01T08:09:39.089Z</time>
      </trkpt>
      <trkpt lat="42.45362852700055" lon="-8.771988730877638">
        <ele>167.4</ele>
        <time>2022-05-01T08:09:42.487Z</time>
      </trkpt>
      <trkpt lat="42.453635735437274" lon="-8.771825199946761">
        <ele>168.0</ele>
        <time>2022-05-01T08:09:45.960Z</time>
      </trkpt>
      <trkpt lat="42.453676806762815" lon="-8.771700644865632">
        <ele>168.0</ele>
        <time>2022-05-01T08:09:48.813Z</time>
      </trkpt>
      <trkpt lat="42.454121466726065" lon="-8.771702321246266">
        <ele>171.6</ele>
        <time>2022-05-01T08:10:01.328Z</time>
      </trkpt>
      <trkpt lat="42.45433076284826" lon="-8.771788654848933">
        <ele>171.3</ele>
        <time>2022-05-01T08:10:07.444Z</time>
      </trkpt>
      <trkpt lat="42.45441349223256" lon="-8.771795025095344">
        <ele>171.6</ele>
        <time>2022-05-01T08:10:09.738Z</time>
      </trkpt>
      <trkpt lat="42.45460887439549" lon="-8.771761329844594">
        <ele>172.6</ele>
        <time>2022-05-01T08:10:15.716Z</time>
      </trkpt>
      <trkpt lat="42.454949179664254" lon="-8.771641133353114">
        <ele>173.4</ele>
        <time>2022-05-01T08:10:26.628Z</time>
      </trkpt>
      <trkpt lat="42.45565602555871" lon="-8.771533593535423">
        <ele>177.2</ele>
        <time>2022-05-01T08:10:50.210Z</time>
      </trkpt>
      <trkpt lat="42.45576239190996" lon="-8.771465951576829">
        <ele>178.3</ele>
        <time>2022-05-01T08:10:54.493Z</time>
      </trkpt>
      <trkpt lat="42.45590773411095" lon="-8.771317508071661">
        <ele>179.7</ele>
        <time>2022-05-01T08:11:01.820Z</time>
      </trkpt>
      <trkpt lat="42.45608601719141" lon="-8.77117669209838">
        <ele>181.7</ele>
        <time>2022-05-01T08:11:09.516Z</time>
      </trkpt>
      <trkpt lat="42.45634786784649" lon="-8.771018274128437">
        <ele>186.2</ele>
        <time>2022-05-01T08:11:20.318Z</time>
      </trkpt>
      <trkpt lat="42.45655062608421" lon="-8.770964546129107">
        <ele>188.9</ele>
        <time>2022-05-01T08:11:28.407Z</time>
      </trkpt>
      <trkpt lat="42.45671105571091" lon="-8.770951554179192">
        <ele>189.8</ele>
        <time>2022-05-01T08:11:35.178Z</time>
      </trkpt>
      <trkpt lat="42.45705219916999" lon="-8.770864801481366">
        <ele>190.2</ele>
        <time>2022-05-01T08:11:49.781Z</time>
      </trkpt>
      <trkpt lat="42.45721321552992" lon="-8.770784167572856">
        <ele>190.4</ele>
        <time>2022-05-01T08:11:57.474Z</time>
      </trkpt>
      <trkpt lat="42.45731161907315" lon="-8.770710658282042">
        <ele>191.1</ele>
        <time>2022-05-01T08:12:03.164Z</time>
      </trkpt>
      <trkpt lat="42.457394767552614" lon="-8.770542768761516">
        <ele>193.4</ele>
        <time>2022-05-01T08:12:11.685Z</time>
      </trkpt>
      <trkpt lat="42.45762191712856" lon="-8.769746320322156">
        <ele>204.0</ele>
        <time>2022-05-01T08:12:50.339Z</time>
      </trkpt>
      <trkpt lat="42.45768763124943" lon="-8.769643055275083">
        <ele>203.7</ele>
        <time>2022-05-01T08:12:56.977Z</time>
      </trkpt>
      <trkpt lat="42.457721745595336" lon="-8.769551776349545">
        <ele>204.3</ele>
        <time>2022-05-01T08:13:02.520Z</time>
      </trkpt>
      <trkpt lat="42.45774379000068" lon="-8.769433675333858">
        <ele>205.9</ele>
        <time>2022-05-01T08:13:07.722Z</time>
      </trkpt>
      <trkpt lat="42.4578030500561" lon="-8.76927743665874">
        <ele>206.9</ele>
        <time>2022-05-01T08:13:15.557Z</time>
      </trkpt>
      <trkpt lat="42.45784412138164" lon="-8.76901893876493">
        <ele>210.7</ele>
        <time>2022-05-01T08:13:25.654Z</time>
      </trkpt>
      <trkpt lat="42.45791645720601" lon="-8.768848953768611">
        <ele>213.0</ele>
        <time>2022-05-01T08:13:32.490Z</time>
      </trkpt>
      <trkpt lat="42.4579497333616" lon="-8.768822466954589">
        <ele>213.2</ele>
        <time>2022-05-01T08:13:34.451Z</time>
      </trkpt>
      <trkpt lat="42.45798636227846" lon="-8.768820203840733">
        <ele>212.8</ele>
        <time>2022-05-01T08:13:36.085Z</time>
      </trkpt>
      <trkpt lat="42.45808945968747" lon="-8.768865717574954">
        <ele>211.6</ele>
        <time>2022-05-01T08:13:40.464Z</time>
      </trkpt>
      <trkpt lat="42.458221055567265" lon="-8.768951296806335">
        <ele>210.7</ele>
        <time>2022-05-01T08:13:46.055Z</time>
      </trkpt>
      <trkpt lat="42.45826690457761" lon="-8.768959762528539">
        <ele>210.9</ele>
        <time>2022-05-01T08:13:47.713Z</time>
      </trkpt>
      <trkpt lat="42.45835809968412" lon="-8.768958672881126">
        <ele>212.0</ele>
        <time>2022-05-01T08:13:51.185Z</time>
      </trkpt>
      <trkpt lat="42.45846572332084" lon="-8.768935203552246">
        <ele>214.0</ele>
        <time>2022-05-01T08:13:55.282Z</time>
      </trkpt>
      <trkpt lat="42.458556331694126" lon="-8.768880302086473">
        <ele>215.2</ele>
        <time>2022-05-01T08:13:59.373Z</time>
      </trkpt>
      <trkpt lat="42.458663787692785" lon="-8.76876044087112">
        <ele>217.0</ele>
        <time>2022-05-01T08:14:04.840Z</time>
      </trkpt>
      <trkpt lat="42.45873402804136" lon="-8.768643010407686">
        <ele>218.9</ele>
        <time>2022-05-01T08:14:08.995Z</time>
      </trkpt>
      <trkpt lat="42.4588131532073" lon="-8.768551731482148">
        <ele>219.3</ele>
        <time>2022-05-01T08:14:12.823Z</time>
      </trkpt>
      <trkpt lat="42.45898791588843" lon="-8.768412172794342">
        <ele>219.0</ele>
        <time>2022-05-01T08:14:20.423Z</time>
      </trkpt>
      <trkpt lat="42.459089923650026" lon="-8.76835291273892">
        <ele>218.9</ele>
        <time>2022-05-01T08:14:24.826Z</time>
      </trkpt>
      <trkpt lat="42.45929813012481" lon="-8.768275044858456">
        <ele>217.8</ele>
        <time>2022-05-01T08:14:33.505Z</time>
      </trkpt>
      <trkpt lat="42.45955226942897" lon="-8.768102964386344">
        <ele>219.9</ele>
        <time>2022-05-01T08:14:44.169Z</time>
      </trkpt>
      <trkpt lat="42.45965947397053" lon="-8.76811645925045">
        <ele>219.1</ele>
        <time>2022-05-01T08:14:47.967Z</time>
      </trkpt>
      <trkpt lat="42.45984471403062" lon="-8.768209246918559">
        <ele>219.8</ele>
        <time>2022-05-01T08:14:54.349Z</time>
      </trkpt>
      <trkpt lat="42.4600513279438" lon="-8.768414100632071">
        <ele>221.5</ele>
        <time>2022-05-01T08:15:02.116Z</time>
      </trkpt>
      <trkpt lat="42.46014453470707" lon="-8.768547540530562">
        <ele>220.7</ele>
        <time>2022-05-01T08:15:05.914Z</time>
      </trkpt>
      <trkpt lat="42.460284428671" lon="-8.768799416720867">
        <ele>217.6</ele>
        <time>2022-05-01T08:15:12.368Z</time>
      </trkpt>
      <trkpt lat="42.4604467023164" lon="-8.768997732549906">
        <ele>215.7</ele>
        <time>2022-05-01T08:15:17.684Z</time>
      </trkpt>
      <trkpt lat="42.46056279167533" lon="-8.769098063930869">
        <ele>215.3</ele>
        <time>2022-05-01T08:15:20.913Z</time>
      </trkpt>
      <trkpt lat="42.46081450022757" lon="-8.76923879608512">
        <ele>214.6</ele>
        <time>2022-05-01T08:15:27.106Z</time>
      </trkpt>
      <trkpt lat="42.46115765534341" lon="-8.76961656846106">
        <ele>210.5</ele>
        <time>2022-05-01T08:15:35.390Z</time>
      </trkpt>
      <trkpt lat="42.46158764697611" lon="-8.77004999667406">
        <ele>205.7</ele>
        <time>2022-05-01T08:15:43.773Z</time>
      </trkpt>
      <trkpt lat="42.461726954206824" lon="-8.770106490701437">
        <ele>205.1</ele>
        <time>2022-05-01T08:15:46.194Z</time>
      </trkpt>
      <trkpt lat="42.46202442795038" lon="-8.770023928955197">
        <ele>203.8</ele>
        <time>2022-05-01T08:15:51.305Z</time>
      </trkpt>
      <trkpt lat="42.46219717897475" lon="-8.770009176805615">
        <ele>202.2</ele>
        <time>2022-05-01T08:15:54.382Z</time>
      </trkpt>
      <trkpt lat="42.46230128221214" lon="-8.770024850964546">
        <ele>201.9</ele>
        <time>2022-05-01T08:15:56.339Z</time>
      </trkpt>
      <trkpt lat="42.462456012144685" lon="-8.770099617540836">
        <ele>200.2</ele>
        <time>2022-05-01T08:15:59.862Z</time>
      </trkpt>
      <trkpt lat="42.462847949936986" lon="-8.770441766828299">
        <ele>202.4</ele>
        <time>2022-05-01T08:16:10.711Z</time>
      </trkpt>
      <trkpt lat="42.462904527783394" lon="-8.77052248455584">
        <ele>202.9</ele>
        <time>2022-05-01T08:16:12.892Z</time>
      </trkpt>
      <trkpt lat="42.463035034015775" lon="-8.770848037675023">
        <ele>203.5</ele>
        <time>2022-05-01T08:16:20.362Z</time>
      </trkpt>
      <trkpt lat="42.4630578327924" lon="-8.770871758460999">
        <ele>204.0</ele>
        <time>2022-05-01T08:16:21.142Z</time>
      </trkpt>
      <trkpt lat="42.46306914836168" lon="-8.770824568346143">
        <ele>205.0</ele>
        <time>2022-05-01T08:16:22.131Z</time>
      </trkpt>
      <trkpt lat="42.46302589774132" lon="-8.770779808983207">
        <ele>204.0</ele>
        <time>2022-05-01T08:16:23.596Z</time>
      </trkpt>
      <trkpt lat="42.46301718056202" lon="-8.77064268104732">
        <ele>205.1</ele>
        <time>2022-05-01T08:16:26.320Z</time>
      </trkpt>
      <trkpt lat="42.46307451277971" lon="-8.77023515291512">
        <ele>210.7</ele>
        <time>2022-05-01T08:16:34.719Z</time>
      </trkpt>
      <trkpt lat="42.463167971000075" lon="-8.770060138776898">
        <ele>214.3</ele>
        <time>2022-05-01T08:16:39.357Z</time>
      </trkpt>
      <trkpt lat="42.46331297792494" lon="-8.769931644201279">
        <ele>218.5</ele>
        <time>2022-05-01T08:16:44.939Z</time>
      </trkpt>
      <trkpt lat="42.463408280164" lon="-8.769909767434001">
        <ele>220.6</ele>
        <time>2022-05-01T08:16:48.483Z</time>
      </trkpt>
      <trkpt lat="42.463535433635116" lon="-8.769931895658374">
        <ele>222.8</ele>
        <time>2022-05-01T08:16:52.923Z</time>
      </trkpt>
      <trkpt lat="42.463676081970334" lon="-8.770017893984914">
        <ele>225.0</ele>
        <time>2022-05-01T08:16:58.422Z</time>
      </trkpt>
      <trkpt lat="42.46372469700873" lon="-8.77007438801229">
        <ele>225.6</ele>
        <time>2022-05-01T08:17:00.940Z</time>
      </trkpt>
      <trkpt lat="42.46386903338134" lon="-8.770178575068712">
        <ele>227.9</ele>
        <time>2022-05-01T08:17:08.311Z</time>
      </trkpt>
      <trkpt lat="42.46398629620671" lon="-8.770163571462035">
        <ele>229.4</ele>
        <time>2022-05-01T08:17:14.256Z</time>
      </trkpt>
      <trkpt lat="42.464123256504536" lon="-8.770101377740502">
        <ele>231.3</ele>
        <time>2022-05-01T08:17:21.549Z</time>
      </trkpt>
      <trkpt lat="42.464186204597354" lon="-8.770106490701437">
        <ele>232.1</ele>
        <time>2022-05-01T08:17:24.980Z</time>
      </trkpt>
      <trkpt lat="42.46428653597832" lon="-8.770033735781908">
        <ele>233.7</ele>
        <time>2022-05-01T08:17:31.137Z</time>
      </trkpt>
      <trkpt lat="42.46448216959834" lon="-8.770004650577903">
        <ele>235.7</ele>
        <time>2022-05-01T08:17:42.513Z</time>
      </trkpt>
      <trkpt lat="42.46482901275158" lon="-8.769805748015642">
        <ele>237.3</ele>
        <time>2022-05-01T08:18:05.505Z</time>
      </trkpt>
      <trkpt lat="42.4649953097105" lon="-8.769637271761894">
        <ele>238.8</ele>
        <time>2022-05-01T08:18:19.030Z</time>
      </trkpt>
      <trkpt lat="42.46526688337326" lon="-8.769416576251388">
        <ele>240.4</ele>
        <time>2022-05-01T08:18:38.541Z</time>
      </trkpt>
      <trkpt lat="42.465348690748215" lon="-8.769325129687786">
        <ele>241.4</ele>
        <time>2022-05-01T08:18:44.551Z</time>
      </trkpt>
      <trkpt lat="42.465465534478426" lon="-8.769133938476443">
        <ele>243.3</ele>
        <time>2022-05-01T08:18:53.400Z</time>
      </trkpt>
      <trkpt lat="42.46554348617792" lon="-8.769071996212006">
        <ele>243.8</ele>
        <time>2022-05-01T08:18:57.929Z</time>
      </trkpt>
      <trkpt lat="42.465646248310804" lon="-8.769050538539886">
        <ele>243.7</ele>
        <time>2022-05-01T08:19:03.586Z</time>
      </trkpt>
      <trkpt lat="42.46571791358292" lon="-8.769065458327532">
        <ele>243.9</ele>
        <time>2022-05-01T08:19:06.986Z</time>
      </trkpt>
      <trkpt lat="42.46576711535454" lon="-8.769097812473774">
        <ele>243.8</ele>
        <time>2022-05-01T08:19:09.280Z</time>
      </trkpt>
      <trkpt lat="42.46590516529977" lon="-8.769108625128865">
        <ele>244.5</ele>
        <time>2022-05-01T08:19:15.558Z</time>
      </trkpt>
      <trkpt lat="42.46611999347806" lon="-8.769054897129536">
        <ele>247.5</ele>
        <time>2022-05-01T08:19:25.122Z</time>
      </trkpt>
      <trkpt lat="42.46639207005501" lon="-8.768904441967607">
        <ele>252.6</ele>
        <time>2022-05-01T08:19:38.746Z</time>
      </trkpt>
      <trkpt lat="42.46648108586669" lon="-8.76887820661068">
        <ele>254.1</ele>
        <time>2022-05-01T08:19:43.538Z</time>
      </trkpt>
      <trkpt lat="42.466698763892055" lon="-8.768736133351922">
        <ele>258.0</ele>
        <time>2022-05-01T08:19:57.711Z</time>
      </trkpt>
      <trkpt lat="42.46680060401559" lon="-8.76864024437964">
        <ele>260.1</ele>
        <time>2022-05-01T08:20:05.400Z</time>
      </trkpt>
      <trkpt lat="42.46701501309872" lon="-8.768557431176305">
        <ele>262.4</ele>
        <time>2022-05-01T08:20:19.528Z</time>
      </trkpt>
      <trkpt lat="42.4672129098326" lon="-8.768351320177317">
        <ele>265.1</ele>
        <time>2022-05-01T08:20:34.393Z</time>
      </trkpt>
      <trkpt lat="42.4673939589411" lon="-8.768216371536255">
        <ele>266.0</ele>
        <time>2022-05-01T08:20:46.196Z</time>
      </trkpt>
      <trkpt lat="42.46776863001287" lon="-8.76805149950087">
        <ele>265.9</ele>
        <time>2022-05-01T08:21:06.220Z</time>
      </trkpt>
      <trkpt lat="42.46793953701854" lon="-8.767819656059146">
        <ele>265.5</ele>
        <time>2022-05-01T08:21:16.779Z</time>
      </trkpt>
      <trkpt lat="42.4680123757571" lon="-8.767596445977688">
        <ele>265.4</ele>
        <time>2022-05-01T08:21:23.960Z</time>
      </trkpt>
      <trkpt lat="42.46812201105058" lon="-8.767368122935295">
        <ele>265.0</ele>
        <time>2022-05-01T08:21:31.314Z</time>
      </trkpt>
      <trkpt lat="42.46830364689231" lon="-8.767147678881884">
        <ele>263.8</ele>
        <time>2022-05-01T08:21:39.742Z</time>
      </trkpt>
      <trkpt lat="42.46833994053304" lon="-8.767049945890903">
        <ele>263.5</ele>
        <time>2022-05-01T08:21:42.326Z</time>
      </trkpt>
      <trkpt lat="42.468340108171105" lon="-8.76700091175735">
        <ele>263.4</ele>
        <time>2022-05-01T08:21:43.447Z</time>
      </trkpt>
      <trkpt lat="42.468304401263595" lon="-8.766900999471545">
        <ele>263.6</ele>
        <time>2022-05-01T08:21:45.920Z</time>
      </trkpt>
      <trkpt lat="42.468201806768775" lon="-8.766807792708278">
        <ele>264.3</ele>
        <time>2022-05-01T08:21:49.569Z</time>
      </trkpt>
      <trkpt lat="42.46792654506862" lon="-8.766492381691933">
        <ele>267.0</ele>
        <time>2022-05-01T08:22:00.656Z</time>
      </trkpt>
      <trkpt lat="42.46754005551338" lon="-8.765944205224514">
        <ele>273.0</ele>
        <time>2022-05-01T08:22:20.290Z</time>
      </trkpt>
      <trkpt lat="42.46728776022792" lon="-8.765688557177782">
        <ele>277.5</ele>
        <time>2022-05-01T08:22:31.319Z</time>
      </trkpt>
      <trkpt lat="42.46699204668403" lon="-8.765276670455933">
        <ele>283.0</ele>
        <time>2022-05-01T08:22:47.217Z</time>
      </trkpt>
      <trkpt lat="42.466928930953145" lon="-8.765180697664618">
        <ele>284.5</ele>
        <time>2022-05-01T08:22:51.256Z</time>
      </trkpt>
      <trkpt lat="42.466884423047304" lon="-8.765041893348098">
        <ele>285.2</ele>
        <time>2022-05-01T08:22:56.576Z</time>
      </trkpt>
      <trkpt lat="42.46665350161493" lon="-8.764595557004213">
        <ele>290.3</ele>
        <time>2022-05-01T08:23:16.683Z</time>
      </trkpt>
      <trkpt lat="42.466391399502754" lon="-8.764230106025934">
        <ele>295.0</ele>
        <time>2022-05-01T08:23:34.325Z</time>
      </trkpt>
      <trkpt lat="42.46628084219992" lon="-8.764041010290384">
        <ele>295.4</ele>
        <time>2022-05-01T08:23:43.590Z</time>
      </trkpt>
      <trkpt lat="42.46610322967172" lon="-8.763821488246322">
        <ele>295.9</ele>
        <time>2022-05-01T08:23:54.501Z</time>
      </trkpt>
      <trkpt lat="42.465958055108786" lon="-8.763595595955849">
        <ele>294.6</ele>
        <time>2022-05-01T08:24:04.274Z</time>
      </trkpt>
      <trkpt lat="42.4657535366714" lon="-8.76333030872047">
        <ele>295.2</ele>
        <time>2022-05-01T08:24:16.055Z</time>
      </trkpt>
      <trkpt lat="42.46552035212517" lon="-8.762760004028678">
        <ele>297.3</ele>
        <time>2022-05-01T08:24:34.700Z</time>
      </trkpt>
      <trkpt lat="42.465243581682444" lon="-8.762435372918844">
        <ele>300.7</ele>
        <time>2022-05-01T08:24:48.312Z</time>
      </trkpt>
      <trkpt lat="42.46488617733121" lon="-8.76192457973957">
        <ele>299.4</ele>
        <time>2022-05-01T08:25:06.803Z</time>
      </trkpt>
      <trkpt lat="42.46460278518498" lon="-8.761607157066464">
        <ele>300.1</ele>
        <time>2022-05-01T08:25:19.458Z</time>
      </trkpt>
      <trkpt lat="42.464378233999014" lon="-8.761246651411057">
        <ele>300.0</ele>
        <time>2022-05-01T08:25:30.909Z</time>
      </trkpt>
      <trkpt lat="42.46428603306413" lon="-8.761128801852465">
        <ele>301.0</ele>
        <time>2022-05-01T08:25:35.005Z</time>
      </trkpt>
      <trkpt lat="42.46414898894727" lon="-8.760984297841787">
        <ele>301.4</ele>
        <time>2022-05-01T08:25:40.410Z</time>
      </trkpt>
      <trkpt lat="42.464069025591016" lon="-8.760927636176348">
        <ele>302.0</ele>
        <time>2022-05-01T08:25:43.143Z</time>
      </trkpt>
      <trkpt lat="42.463587233796716" lon="-8.760648602619767">
        <ele>303.1</ele>
        <time>2022-05-01T08:25:58.674Z</time>
      </trkpt>
      <trkpt lat="42.46349553577602" lon="-8.760538045316935">
        <ele>302.4</ele>
        <time>2022-05-01T08:26:02.244Z</time>
      </trkpt>
      <trkpt lat="42.46347608976066" lon="-8.760433690622449">
        <ele>301.3</ele>
        <time>2022-05-01T08:26:04.517Z</time>
      </trkpt>
      <trkpt lat="42.463630735874176" lon="-8.76021584495902">
        <ele>299.2</ele>
        <time>2022-05-01T08:26:10.713Z</time>
      </trkpt>
      <trkpt lat="42.46387624181807" lon="-8.759995568543673">
        <ele>299.1</ele>
        <time>2022-05-01T08:26:18.790Z</time>
      </trkpt>
      <trkpt lat="42.46440438553691" lon="-8.759619975462556">
        <ele>299.4</ele>
        <time>2022-05-01T08:26:34.567Z</time>
      </trkpt>
      <trkpt lat="42.464605048298836" lon="-8.759495420381427">
        <ele>300.3</ele>
        <time>2022-05-01T08:26:40.405Z</time>
      </trkpt>
      <trkpt lat="42.46478894725442" lon="-8.759421408176422">
        <ele>300.2</ele>
        <time>2022-05-01T08:26:45.490Z</time>
      </trkpt>
      <trkpt lat="42.46500754728913" lon="-8.759308252483606">
        <ele>300.9</ele>
        <time>2022-05-01T08:26:51.638Z</time>
      </trkpt>
      <trkpt lat="42.46568161994219" lon="-8.758896868675947">
        <ele>299.6</ele>
        <time>2022-05-01T08:27:10.830Z</time>
      </trkpt>
      <trkpt lat="42.466062577441335" lon="-8.758718082681298">
        <ele>298.4</ele>
        <time>2022-05-01T08:27:21.393Z</time>
      </trkpt>
      <trkpt lat="42.46610867790878" lon="-8.75868103466928">
        <ele>298.7</ele>
        <time>2022-05-01T08:27:22.950Z</time>
      </trkpt>
      <trkpt lat="42.46623859740794" lon="-8.758556311950088">
        <ele>298.9</ele>
        <time>2022-05-01T08:27:27.585Z</time>
      </trkpt>
      <trkpt lat="42.46644118800759" lon="-8.758282894268632">
        <ele>300.2</ele>
        <time>2022-05-01T08:27:35.798Z</time>
      </trkpt>
      <trkpt lat="42.4665220733732" lon="-8.758146855980158">
        <ele>300.8</ele>
        <time>2022-05-01T08:27:39.489Z</time>
      </trkpt>
      <trkpt lat="42.466632379218936" lon="-8.757869331166148">
        <ele>304.5</ele>
        <time>2022-05-01T08:27:46.062Z</time>
      </trkpt>
      <trkpt lat="42.466675378382206" lon="-8.75781032256782">
        <ele>304.8</ele>
        <time>2022-05-01T08:27:47.880Z</time>
      </trkpt>
      <trkpt lat="42.46679289266467" lon="-8.757688868790865">
        <ele>304.6</ele>
        <time>2022-05-01T08:27:52.274Z</time>
      </trkpt>
      <trkpt lat="42.466954328119755" lon="-8.757564648985863">
        <ele>303.9</ele>
        <time>2022-05-01T08:27:57.780Z</time>
      </trkpt>
      <trkpt lat="42.467155158519745" lon="-8.75749558210373">
        <ele>302.2</ele>
        <time>2022-05-01T08:28:03.868Z</time>
      </trkpt>
      <trkpt lat="42.467746837064624" lon="-8.757347473874688">
        <ele>302.8</ele>
        <time>2022-05-01T08:28:20.688Z</time>
      </trkpt>
      <trkpt lat="42.46849701739848" lon="-8.757020831108093">
        <ele>301.5</ele>
        <time>2022-05-01T08:28:42.276Z</time>
      </trkpt>
      <trkpt lat="42.46860070154071" lon="-8.756998116150498">
        <ele>300.9</ele>
        <time>2022-05-01T08:28:45.135Z</time>
      </trkpt>
      <trkpt lat="42.4688810762018" lon="-8.756988728418946">
        <ele>300.4</ele>
        <time>2022-05-01T08:28:52.622Z</time>
      </trkpt>
      <trkpt lat="42.46910395100713" lon="-8.75695520080626">
        <ele>303.0</ele>
        <time>2022-05-01T08:28:58.761Z</time>
      </trkpt>
      <trkpt lat="42.469937866553664" lon="-8.756743222475052">
        <ele>305.5</ele>
        <time>2022-05-01T08:29:22.231Z</time>
      </trkpt>
      <trkpt lat="42.47007348574698" lon="-8.756691757589579">
        <ele>305.7</ele>
        <time>2022-05-01T08:29:26.163Z</time>
      </trkpt>
      <trkpt lat="42.47027959674597" lon="-8.756655128672719">
        <ele>304.7</ele>
        <time>2022-05-01T08:29:31.796Z</time>
      </trkpt>
      <trkpt lat="42.47056399472058" lon="-8.756576087325811">
        <ele>303.8</ele>
        <time>2022-05-01T08:29:39.628Z</time>
      </trkpt>
      <trkpt lat="42.47107847593725" lon="-8.756291521713138">
        <ele>303.6</ele>
        <time>2022-05-01T08:29:54.123Z</time>
      </trkpt>
      <trkpt lat="42.47141785919666" lon="-8.756072837859392">
        <ele>303.0</ele>
        <time>2022-05-01T08:30:03.787Z</time>
      </trkpt>
      <trkpt lat="42.47163268737495" lon="-8.755904277786613">
        <ele>303.2</ele>
        <time>2022-05-01T08:30:10.192Z</time>
      </trkpt>
      <trkpt lat="42.47212185524404" lon="-8.755409410223365">
        <ele>303.3</ele>
        <time>2022-05-01T08:30:25.541Z</time>
      </trkpt>
      <trkpt lat="42.472501806914806" lon="-8.75517119653523">
        <ele>300.8</ele>
        <time>2022-05-01T08:30:35.877Z</time>
      </trkpt>
      <trkpt lat="42.472622003406286" lon="-8.755076648667455">
        <ele>300.5</ele>
        <time>2022-05-01T08:30:39.170Z</time>
      </trkpt>
      <trkpt lat="42.472943030297756" lon="-8.7546615768224">
        <ele>302.0</ele>
        <time>2022-05-01T08:30:49.575Z</time>
      </trkpt>
      <trkpt lat="42.4730496481061" lon="-8.754586223512888">
        <ele>300.8</ele>
        <time>2022-05-01T08:30:52.441Z</time>
      </trkpt>
      <trkpt lat="42.47323329560459" lon="-8.754392769187689">
        <ele>298.9</ele>
        <time>2022-05-01T08:30:58.068Z</time>
      </trkpt>
      <trkpt lat="42.473540073260665" lon="-8.75385146588087">
        <ele>298.7</ele>
        <time>2022-05-01T08:31:11.073Z</time>
      </trkpt>
      <trkpt lat="42.473695389926434" lon="-8.753418624401093">
        <ele>300.6</ele>
        <time>2022-05-01T08:31:20.291Z</time>
      </trkpt>
      <trkpt lat="42.47369949705899" lon="-8.753352910280228">
        <ele>301.3</ele>
        <time>2022-05-01T08:31:21.556Z</time>
      </trkpt>
      <trkpt lat="42.47368038631976" lon="-8.753319634124637">
        <ele>302.0</ele>
        <time>2022-05-01T08:31:22.476Z</time>
      </trkpt>
      <trkpt lat="42.47364476323128" lon="-8.753306474536657">
        <ele>302.8</ele>
        <time>2022-05-01T08:31:23.547Z</time>
      </trkpt>
      <trkpt lat="42.47352842241526" lon="-8.753378810361028">
        <ele>303.9</ele>
        <time>2022-05-01T08:31:27.206Z</time>
      </trkpt>
      <trkpt lat="42.47334787622094" lon="-8.753455337136984">
        <ele>305.8</ele>
        <time>2022-05-01T08:31:32.805Z</time>
      </trkpt>
      <trkpt lat="42.47329540550709" lon="-8.753550555557013">
        <ele>305.5</ele>
        <time>2022-05-01T08:31:35.352Z</time>
      </trkpt>
      <trkpt lat="42.472991812974215" lon="-8.753811735659838">
        <ele>308.9</ele>
        <time>2022-05-01T08:31:46.604Z</time>
      </trkpt>
      <trkpt lat="42.472746558487415" lon="-8.75386755913496">
        <ele>313.0</ele>
        <time>2022-05-01T08:31:55.362Z</time>
      </trkpt>
      <trkpt lat="42.47263239696622" lon="-8.753929669037461">
        <ele>314.6</ele>
        <time>2022-05-01T08:32:00.340Z</time>
      </trkpt>
      <trkpt lat="42.47244145721197" lon="-8.753995299339294">
        <ele>317.2</ele>
        <time>2022-05-01T08:32:09.447Z</time>
      </trkpt>
      <trkpt lat="42.47223081998527" lon="-8.754141228273511">
        <ele>319.2</ele>
        <time>2022-05-01T08:32:19.966Z</time>
      </trkpt>
      <trkpt lat="42.47214465402067" lon="-8.754149861633778">
        <ele>320.5</ele>
        <time>2022-05-01T08:32:24.179Z</time>
      </trkpt>
      <trkpt lat="42.472098134458065" lon="-8.75400384888053">
        <ele>322.8</ele>
        <time>2022-05-01T08:32:30.616Z</time>
      </trkpt>
      <trkpt lat="42.472091848030686" lon="-8.753885831683874">
        <ele>324.1</ele>
        <time>2022-05-01T08:32:34.734Z</time>
      </trkpt>
      <trkpt lat="42.47207055799663" lon="-8.753859009593725">
        <ele>324.8</ele>
        <time>2022-05-01T08:32:35.959Z</time>
      </trkpt>
      <trkpt lat="42.471978357061744" lon="-8.75379572622478">
        <ele>327.2</ele>
        <time>2022-05-01T08:32:39.955Z</time>
      </trkpt>
      <trkpt lat="42.47184039093554" lon="-8.753745686262846">
        <ele>330.2</ele>
        <time>2022-05-01T08:32:46.288Z</time>
      </trkpt>
      <trkpt lat="42.47174299322069" lon="-8.753736466169357">
        <ele>332.3</ele>
        <time>2022-05-01T08:32:50.906Z</time>
      </trkpt>
      <trkpt lat="42.47161466628313" lon="-8.753684163093567">
        <ele>335.6</ele>
        <time>2022-05-01T08:32:57.405Z</time>
      </trkpt>
      <trkpt lat="42.47152036987245" lon="-8.75359925441444">
        <ele>338.4</ele>
        <time>2022-05-01T08:33:03.588Z</time>
      </trkpt>
      <trkpt lat="42.471436047926545" lon="-8.753423988819122">
        <ele>341.2</ele>
        <time>2022-05-01T08:33:11.778Z</time>
      </trkpt>
      <trkpt lat="42.4714036937803" lon="-8.753295745700598">
        <ele>342.9</ele>
        <time>2022-05-01T08:33:17.767Z</time>
      </trkpt>
      <trkpt lat="42.47136144898832" lon="-8.75288201496005">
        <ele>346.1</ele>
        <time>2022-05-01T08:33:38.483Z</time>
      </trkpt>
      <trkpt lat="42.47133605182171" lon="-8.752770954743028">
        <ele>346.9</ele>
        <time>2022-05-01T08:33:44.236Z</time>
      </trkpt>
      <trkpt lat="42.47123991139233" lon="-8.752656793221831">
        <ele>349.2</ele>
        <time>2022-05-01T08:33:53.889Z</time>
      </trkpt>
      <trkpt lat="42.471087109297514" lon="-8.752544894814491">
        <ele>352.6</ele>
        <time>2022-05-01T08:34:07.741Z</time>
      </trkpt>
      <trkpt lat="42.47096967883408" lon="-8.752281283959746">
        <ele>352.3</ele>
        <time>2022-05-01T08:34:26.053Z</time>
      </trkpt>
      <trkpt lat="42.470845710486174" lon="-8.752157064154744">
        <ele>353.5</ele>
        <time>2022-05-01T08:34:38.416Z</time>
      </trkpt>
      <trkpt lat="42.47078410349786" lon="-8.752123955637217">
        <ele>354.3</ele>
        <time>2022-05-01T08:34:43.842Z</time>
      </trkpt>
      <trkpt lat="42.470638174563646" lon="-8.752072155475616">
        <ele>355.8</ele>
        <time>2022-05-01T08:34:55.938Z</time>
      </trkpt>
      <trkpt lat="42.47055879794061" lon="-8.752071652561426">
        <ele>356.8</ele>
        <time>2022-05-01T08:35:02.171Z</time>
      </trkpt>
      <trkpt lat="42.47047665528953" lon="-8.752106437459588">
        <ele>358.3</ele>
        <time>2022-05-01T08:35:07.378Z</time>
      </trkpt>
      <trkpt lat="42.470393255352974" lon="-8.75218128785491">
        <ele>359.8</ele>
        <time>2022-05-01T08:35:13.251Z</time>
      </trkpt>
      <trkpt lat="42.47032226063311" lon="-8.752350686118007">
        <ele>362.2</ele>
        <time>2022-05-01T08:35:20.374Z</time>
      </trkpt>
      <trkpt lat="42.47014137916267" lon="-8.752498961985111">
        <ele>365.5</ele>
        <time>2022-05-01T08:35:31.765Z</time>
      </trkpt>
      <trkpt lat="42.47008664533496" lon="-8.752525616437197">
        <ele>366.4</ele>
        <time>2022-05-01T08:35:35.323Z</time>
      </trkpt>
      <trkpt lat="42.46996309608221" lon="-8.752540703862906">
        <ele>368.0</ele>
        <time>2022-05-01T08:35:43.465Z</time>
      </trkpt>
      <trkpt lat="42.46986988931894" lon="-8.75257171690464">
        <ele>369.2</ele>
        <time>2022-05-01T08:35:49.748Z</time>
      </trkpt>
      <trkpt lat="42.469435622915626" lon="-8.752812948077917">
        <ele>375.9</ele>
        <time>2022-05-01T08:36:22.650Z</time>
      </trkpt>
      <trkpt lat="42.46938541531563" lon="-8.75289861112833">
        <ele>376.6</ele>
        <time>2022-05-01T08:36:27.177Z</time>
      </trkpt>
      <trkpt lat="42.46934878639877" lon="-8.75309458002448">
        <ele>377.1</ele>
        <time>2022-05-01T08:36:35.039Z</time>
      </trkpt>
      <trkpt lat="42.46927653439343" lon="-8.75330563634634">
        <ele>377.8</ele>
        <time>2022-05-01T08:36:43.826Z</time>
      </trkpt>
      <trkpt lat="42.46918483637273" lon="-8.753441171720624">
        <ele>378.2</ele>
        <time>2022-05-01T08:36:51.306Z</time>
      </trkpt>
      <trkpt lat="42.46901669539511" lon="-8.753590872511268">
        <ele>377.9</ele>
        <time>2022-05-01T08:37:00.862Z</time>
      </trkpt>
      <trkpt lat="42.46881041675806" lon="-8.753675278276205">
        <ele>377.7</ele>
        <time>2022-05-01T08:37:09.995Z</time>
      </trkpt>
      <trkpt lat="42.46860774233937" lon="-8.753809304907918">
        <ele>377.4</ele>
        <time>2022-05-01T08:37:18.974Z</time>
      </trkpt>
      <trkpt lat="42.468175906687975" lon="-8.753993874415755">
        <ele>378.8</ele>
        <time>2022-05-01T08:37:35.723Z</time>
      </trkpt>
      <trkpt lat="42.46791413985193" lon="-8.754081381484866">
        <ele>378.9</ele>
        <time>2022-05-01T08:37:45.124Z</time>
      </trkpt>
      <trkpt lat="42.46763275936246" lon="-8.754127146676183">
        <ele>378.9</ele>
        <time>2022-05-01T08:37:54.504Z</time>
      </trkpt>
      <trkpt lat="42.46719882823527" lon="-8.754125218838453">
        <ele>378.1</ele>
        <time>2022-05-01T08:38:07.723Z</time>
      </trkpt>
      <trkpt lat="42.46708047576249" lon="-8.754103509709239">
        <ele>377.6</ele>
        <time>2022-05-01T08:38:11.276Z</time>
      </trkpt>
      <trkpt lat="42.46678937226534" lon="-8.753993874415755">
        <ele>377.0</ele>
        <time>2022-05-01T08:38:19.901Z</time>
      </trkpt>
      <trkpt lat="42.46667085215449" lon="-8.753977864980698">
        <ele>376.8</ele>
        <time>2022-05-01T08:38:23.136Z</time>
      </trkpt>
      <trkpt lat="42.46656725183129" lon="-8.75399119220674">
        <ele>376.3</ele>
        <time>2022-05-01T08:38:25.901Z</time>
      </trkpt>
      <trkpt lat="42.466463232412934" lon="-8.754045087844133">
        <ele>376.0</ele>
        <time>2022-05-01T08:38:28.856Z</time>
      </trkpt>
      <trkpt lat="42.46632141061127" lon="-8.75414994545281">
        <ele>375.5</ele>
        <time>2022-05-01T08:38:33.122Z</time>
      </trkpt>
      <trkpt lat="42.46616676449776" lon="-8.754293695092201">
        <ele>375.5</ele>
        <time>2022-05-01T08:38:37.950Z</time>
      </trkpt>
      <trkpt lat="42.46589125134051" lon="-8.754699295386672">
        <ele>375.6</ele>
        <time>2022-05-01T08:38:48.426Z</time>
      </trkpt>
      <trkpt lat="42.46576233766973" lon="-8.754837177693844">
        <ele>376.1</ele>
        <time>2022-05-01T08:38:52.660Z</time>
      </trkpt>
      <trkpt lat="42.46566267684102" lon="-8.754911692813039">
        <ele>376.5</ele>
        <time>2022-05-01T08:38:55.560Z</time>
      </trkpt>
      <trkpt lat="42.46556159108877" lon="-8.754973886534572">
        <ele>376.4</ele>
        <time>2022-05-01T08:38:58.403Z</time>
      </trkpt>
      <trkpt lat="42.465418595820665" lon="-8.755026021972299">
        <ele>376.5</ele>
        <time>2022-05-01T08:39:02.131Z</time>
      </trkpt>
      <trkpt lat="42.46513964608312" lon="-8.755161305889487">
        <ele>376.4</ele>
        <time>2022-05-01T08:39:09.430Z</time>
      </trkpt>
      <trkpt lat="42.46488860808313" lon="-8.755360962823033">
        <ele>375.0</ele>
        <time>2022-05-01T08:39:16.102Z</time>
      </trkpt>
      <trkpt lat="42.464663218706846" lon="-8.755492474883795">
        <ele>373.8</ele>
        <time>2022-05-01T08:39:21.591Z</time>
      </trkpt>
      <trkpt lat="42.46457235887647" lon="-8.755586184561253">
        <ele>373.3</ele>
        <time>2022-05-01T08:39:24.103Z</time>
      </trkpt>
      <trkpt lat="42.46443372219801" lon="-8.755646534264088">
        <ele>372.9</ele>
        <time>2022-05-01T08:39:27.295Z</time>
      </trkpt>
      <trkpt lat="42.464311346411705" lon="-8.755728676915169">
        <ele>372.5</ele>
        <time>2022-05-01T08:39:30.257Z</time>
      </trkpt>
      <trkpt lat="42.464163741096854" lon="-8.755742339417338">
        <ele>372.3</ele>
        <time>2022-05-01T08:39:33.552Z</time>
      </trkpt>
      <trkpt lat="42.46414781548083" lon="-8.755700010806322">
        <ele>372.2</ele>
        <time>2022-05-01T08:39:34.350Z</time>
      </trkpt>
      <trkpt lat="42.46416935697198" lon="-8.75541653484106">
        <ele>372.0</ele>
        <time>2022-05-01T08:39:39.027Z</time>
      </trkpt>
      <trkpt lat="42.464079754427075" lon="-8.754978496581316">
        <ele>371.0</ele>
        <time>2022-05-01T08:39:46.579Z</time>
      </trkpt>
      <trkpt lat="42.464044550433755" lon="-8.75486777164042">
        <ele>370.5</ele>
        <time>2022-05-01T08:39:48.529Z</time>
      </trkpt>
      <trkpt lat="42.463899962604046" lon="-8.754665851593018">
        <ele>369.3</ele>
        <time>2022-05-01T08:39:53.056Z</time>
      </trkpt>
      <trkpt lat="42.463839864358306" lon="-8.754475498571992">
        <ele>368.5</ele>
        <time>2022-05-01T08:39:55.986Z</time>
      </trkpt>
      <trkpt lat="42.46384346857667" lon="-8.754315320402384">
        <ele>368.0</ele>
        <time>2022-05-01T08:39:58.350Z</time>
      </trkpt>
      <trkpt lat="42.463925862684846" lon="-8.75381575897336">
        <ele>367.6</ele>
        <time>2022-05-01T08:40:06.190Z</time>
      </trkpt>
      <trkpt lat="42.46397783048451" lon="-8.753379229456186">
        <ele>368.1</ele>
        <time>2022-05-01T08:40:13.387Z</time>
      </trkpt>
      <trkpt lat="42.464066594839096" lon="-8.753009755164385">
        <ele>369.8</ele>
        <time>2022-05-01T08:40:19.996Z</time>
      </trkpt>
      <trkpt lat="42.46414454653859" lon="-8.752806158736348">
        <ele>370.7</ele>
        <time>2022-05-01T08:40:23.971Z</time>
      </trkpt>
      <trkpt lat="42.46427773497999" lon="-8.752702306956053">
        <ele>372.3</ele>
        <time>2022-05-01T08:40:27.640Z</time>
      </trkpt>
      <trkpt lat="42.4643908906728" lon="-8.752581691369414">
        <ele>374.3</ele>
        <time>2022-05-01T08:40:31.202Z</time>
      </trkpt>
      <trkpt lat="42.464441349729896" lon="-8.752495525404811">
        <ele>375.2</ele>
        <time>2022-05-01T08:40:33.135Z</time>
      </trkpt>
      <trkpt lat="42.46443858370185" lon="-8.752407180145383">
        <ele>375.2</ele>
        <time>2022-05-01T08:40:34.710Z</time>
      </trkpt>
      <trkpt lat="42.46428427286446" lon="-8.752082213759422">
        <ele>373.9</ele>
        <time>2022-05-01T08:40:41.726Z</time>
      </trkpt>
      <trkpt lat="42.46418880298734" lon="-8.751740902662277">
        <ele>372.5</ele>
        <time>2022-05-01T08:40:48.230Z</time>
      </trkpt>
      <trkpt lat="42.46406324207783" lon="-8.751423312351108">
        <ele>370.1</ele>
        <time>2022-05-01T08:40:53.479Z</time>
      </trkpt>
      <trkpt lat="42.463702065870166" lon="-8.750868933275342">
        <ele>365.2</ele>
        <time>2022-05-01T08:41:02.275Z</time>
      </trkpt>
      <trkpt lat="42.46358488686383" lon="-8.7507398519665">
        <ele>363.1</ele>
        <time>2022-05-01T08:41:04.424Z</time>
      </trkpt>
      <trkpt lat="42.46344541199505" lon="-8.750632479786873">
        <ele>361.0</ele>
        <time>2022-05-01T08:41:06.876Z</time>
      </trkpt>
      <trkpt lat="42.46330702677369" lon="-8.750442964956164">
        <ele>359.1</ele>
        <time>2022-05-01T08:41:09.857Z</time>
      </trkpt>
      <trkpt lat="42.46323117054999" lon="-8.75029125250876">
        <ele>357.5</ele>
        <time>2022-05-01T08:41:12.045Z</time>
      </trkpt>
      <trkpt lat="42.46317509561777" lon="-8.750139707699418">
        <ele>356.1</ele>
        <time>2022-05-01T08:41:14.069Z</time>
      </trkpt>
      <trkpt lat="42.46316336095333" lon="-8.750056056305766">
        <ele>355.6</ele>
        <time>2022-05-01T08:41:15.147Z</time>
      </trkpt>
      <trkpt lat="42.46319412253797" lon="-8.749884394928813">
        <ele>355.0</ele>
        <time>2022-05-01T08:41:17.354Z</time>
      </trkpt>
      <trkpt lat="42.4632304161787" lon="-8.749801414087415">
        <ele>354.8</ele>
        <time>2022-05-01T08:41:18.415Z</time>
      </trkpt>
      <trkpt lat="42.46356829069555" lon="-8.749145781621337">
        <ele>352.7</ele>
        <time>2022-05-01T08:41:26.731Z</time>
      </trkpt>
      <trkpt lat="42.46364020742476" lon="-8.748951572924852">
        <ele>350.8</ele>
        <time>2022-05-01T08:41:29.192Z</time>
      </trkpt>
      <trkpt lat="42.46378529816866" lon="-8.748418735340238">
        <ele>343.8</ele>
        <time>2022-05-01T08:41:35.221Z</time>
      </trkpt>
      <trkpt lat="42.46379409916699" lon="-8.748311111703515">
        <ele>342.3</ele>
        <time>2022-05-01T08:41:36.453Z</time>
      </trkpt>
      <trkpt lat="42.46375353075564" lon="-8.74792629852891">
        <ele>336.8</ele>
        <time>2022-05-01T08:41:40.535Z</time>
      </trkpt>
      <trkpt lat="42.46373006142676" lon="-8.747855890542269">
        <ele>335.6</ele>
        <time>2022-05-01T08:41:41.405Z</time>
      </trkpt>
      <trkpt lat="42.46361690573394" lon="-8.74768448062241">
        <ele>332.2</ele>
        <time>2022-05-01T08:41:43.755Z</time>
      </trkpt>
      <trkpt lat="42.46358262374997" lon="-8.74755640514195">
        <ele>330.1</ele>
        <time>2022-05-01T08:41:45.253Z</time>
      </trkpt>
      <trkpt lat="42.463587736710906" lon="-8.747480884194374">
        <ele>329.2</ele>
        <time>2022-05-01T08:41:46.078Z</time>
      </trkpt>
      <trkpt lat="42.463634172454476" lon="-8.747308384627104">
        <ele>327.4</ele>
        <time>2022-05-01T08:41:48.216Z</time>
      </trkpt>
      <trkpt lat="42.463640877977014" lon="-8.74710051342845">
        <ele>324.8</ele>
        <time>2022-05-01T08:41:50.709Z</time>
      </trkpt>
      <trkpt lat="42.46354348026216" lon="-8.74657228589058">
        <ele>320.1</ele>
        <time>2022-05-01T08:41:57.128Z</time>
      </trkpt>
      <trkpt lat="42.46352881193161" lon="-8.746299538761377">
        <ele>318.3</ele>
        <time>2022-05-01T08:42:00.214Z</time>
      </trkpt>
      <trkpt lat="42.46354691684246" lon="-8.746016314253211">
        <ele>315.4</ele>
        <time>2022-05-01T08:42:03.031Z</time>
      </trkpt>
      <trkpt lat="42.463656635954976" lon="-8.74520125798881">
        <ele>307.2</ele>
        <time>2022-05-01T08:42:10.472Z</time>
      </trkpt>
      <trkpt lat="42.46370080858469" lon="-8.74470722861588">
        <ele>303.5</ele>
        <time>2022-05-01T08:42:15.458Z</time>
      </trkpt>
      <trkpt lat="42.463825112208724" lon="-8.744290061295033">
        <ele>299.7</ele>
        <time>2022-05-01T08:42:20.069Z</time>
      </trkpt>
      <trkpt lat="42.463976154103875" lon="-8.743881108239293">
        <ele>294.2</ele>
        <time>2022-05-01T08:42:24.837Z</time>
      </trkpt>
      <trkpt lat="42.4639783333987" lon="-8.743811789900064">
        <ele>292.8</ele>
        <time>2022-05-01T08:42:25.614Z</time>
      </trkpt>
      <trkpt lat="42.46394178830087" lon="-8.743759067729115">
        <ele>291.4</ele>
        <time>2022-05-01T08:42:26.478Z</time>
      </trkpt>
      <trkpt lat="42.46388169005513" lon="-8.743725959211588">
        <ele>290.2</ele>
        <time>2022-05-01T08:42:27.594Z</time>
      </trkpt>
      <trkpt lat="42.46339688077569" lon="-8.743587238714099">
        <ele>282.5</ele>
        <time>2022-05-01T08:42:34.857Z</time>
      </trkpt>
      <trkpt lat="42.46324433013797" lon="-8.74357751570642">
        <ele>280.6</ele>
        <time>2022-05-01T08:42:36.944Z</time>
      </trkpt>
      <trkpt lat="42.462965715676546" lon="-8.743614312261343">
        <ele>278.5</ele>
        <time>2022-05-01T08:42:40.870Z</time>
      </trkpt>
      <trkpt lat="42.46292011812329" lon="-8.74358338303864">
        <ele>277.5</ele>
        <time>2022-05-01T08:42:41.639Z</time>
      </trkpt>
      <trkpt lat="42.46297376230359" lon="-8.743470730260015">
        <ele>275.8</ele>
        <time>2022-05-01T08:42:43.232Z</time>
      </trkpt>
      <trkpt lat="42.46313142590225" lon="-8.743331003934145">
        <ele>274.2</ele>
        <time>2022-05-01T08:42:46.454Z</time>
      </trkpt>
      <trkpt lat="42.46350433677435" lon="-8.743106368929148">
        <ele>271.8</ele>
        <time>2022-05-01T08:42:53.232Z</time>
      </trkpt>
      <trkpt lat="42.46393575333059" lon="-8.742876034229994">
        <ele>266.7</ele>
        <time>2022-05-01T08:43:00.958Z</time>
      </trkpt>
      <trkpt lat="42.46410590596497" lon="-8.742761118337512">
        <ele>264.8</ele>
        <time>2022-05-01T08:43:04.426Z</time>
      </trkpt>
      <trkpt lat="42.46419726870954" lon="-8.742564311251044">
        <ele>262.8</ele>
        <time>2022-05-01T08:43:07.548Z</time>
      </trkpt>
      <trkpt lat="42.46430179104209" lon="-8.742431122809649">
        <ele>262.3</ele>
        <time>2022-05-01T08:43:09.938Z</time>
      </trkpt>
      <trkpt lat="42.46452374383807" lon="-8.742360882461071">
        <ele>260.9</ele>
        <time>2022-05-01T08:43:13.867Z</time>
      </trkpt>
      <trkpt lat="42.464774027466774" lon="-8.742353674024343">
        <ele>259.9</ele>
        <time>2022-05-01T08:43:18.151Z</time>
      </trkpt>
      <trkpt lat="42.465025736019015" lon="-8.742379322648048">
        <ele>259.0</ele>
        <time>2022-05-01T08:43:22.428Z</time>
      </trkpt>
      <trkpt lat="42.46531239710748" lon="-8.742459872737527">
        <ele>258.6</ele>
        <time>2022-05-01T08:43:27.378Z</time>
      </trkpt>
      <trkpt lat="42.4655481800437" lon="-8.742621392011642">
        <ele>257.5</ele>
        <time>2022-05-01T08:43:31.998Z</time>
      </trkpt>
      <trkpt lat="42.465674579143524" lon="-8.742657098919153">
        <ele>257.4</ele>
        <time>2022-05-01T08:43:34.318Z</time>
      </trkpt>
      <trkpt lat="42.46580500155687" lon="-8.742640586569905">
        <ele>257.2</ele>
        <time>2022-05-01T08:43:36.729Z</time>
      </trkpt>
      <trkpt lat="42.46607406064868" lon="-8.742538746446371">
        <ele>256.7</ele>
        <time>2022-05-01T08:43:42.026Z</time>
      </trkpt>
      <trkpt lat="42.4661507550627" lon="-8.742547547444701">
        <ele>256.5</ele>
        <time>2022-05-01T08:43:43.510Z</time>
      </trkpt>
      <trkpt lat="42.466400703415275" lon="-8.742708647623658">
        <ele>256.3</ele>
        <time>2022-05-01T08:43:48.979Z</time>
      </trkpt>
      <trkpt lat="42.46659331955016" lon="-8.7428705021739">
        <ele>255.9</ele>
        <time>2022-05-01T08:43:53.466Z</time>
      </trkpt>
      <trkpt lat="42.466627014800906" lon="-8.742893803864717">
        <ele>256.2</ele>
        <time>2022-05-01T08:43:54.243Z</time>
      </trkpt>
      <trkpt lat="42.46670831926167" lon="-8.742911824956536">
        <ele>256.2</ele>
        <time>2022-05-01T08:43:55.900Z</time>
      </trkpt>
      <trkpt lat="42.46678702533245" lon="-8.742880057543516">
        <ele>255.5</ele>
        <time>2022-05-01T08:43:57.569Z</time>
      </trkpt>
      <trkpt lat="42.46697603724897" lon="-8.7427444383502">
        <ele>254.8</ele>
        <time>2022-05-01T08:44:01.941Z</time>
      </trkpt>
      <trkpt lat="42.46722682379186" lon="-8.742677383124828">
        <ele>254.1</ele>
        <time>2022-05-01T08:44:07.169Z</time>
      </trkpt>
      <trkpt lat="42.4673041049391" lon="-8.742704205214977">
        <ele>253.9</ele>
        <time>2022-05-01T08:44:08.675Z</time>
      </trkpt>
      <trkpt lat="42.46743746101856" lon="-8.742860024794936">
        <ele>253.6</ele>
        <time>2022-05-01T08:44:11.901Z</time>
      </trkpt>
      <trkpt lat="42.46753167361021" lon="-8.742879219353199">
        <ele>253.4</ele>
        <time>2022-05-01T08:44:13.521Z</time>
      </trkpt>
      <trkpt lat="42.46762295253575" lon="-8.742839908227324">
        <ele>253.1</ele>
        <time>2022-05-01T08:44:15.205Z</time>
      </trkpt>
      <trkpt lat="42.4678067676723" lon="-8.742698589339852">
        <ele>252.7</ele>
        <time>2022-05-01T08:44:19.082Z</time>
      </trkpt>
      <trkpt lat="42.46786778792739" lon="-8.742678556591272">
        <ele>252.5</ele>
        <time>2022-05-01T08:44:20.288Z</time>
      </trkpt>
      <trkpt lat="42.46789083816111" lon="-8.742687357589602">
        <ele>252.4</ele>
        <time>2022-05-01T08:44:20.722Z</time>
      </trkpt>
      <trkpt lat="42.4679362680763" lon="-8.742811409756541">
        <ele>252.0</ele>
        <time>2022-05-01T08:44:22.604Z</time>
      </trkpt>
      <trkpt lat="42.468103654682636" lon="-8.742825910449028">
        <ele>251.1</ele>
        <time>2022-05-01T08:44:25.763Z</time>
      </trkpt>
      <trkpt lat="42.46814992278814" lon="-8.742846949025989">
        <ele>250.8</ele>
        <time>2022-05-01T08:44:26.686Z</time>
      </trkpt>
      <trkpt lat="42.46819040738046" lon="-8.742889109998941">
        <ele>250.5</ele>
        <time>2022-05-01T08:44:27.694Z</time>
      </trkpt>
      <trkpt lat="42.46821572072804" lon="-8.742944598197937">
        <ele>250.4</ele>
        <time>2022-05-01T08:44:28.640Z</time>
      </trkpt>
      <trkpt lat="42.46821312233806" lon="-8.743105782195926">
        <ele>249.9</ele>
        <time>2022-05-01T08:44:31.071Z</time>
      </trkpt>
      <trkpt lat="42.46807113289833" lon="-8.74327895231545">
        <ele>250.8</ele>
        <time>2022-05-01T08:44:35.111Z</time>
      </trkpt>
      <trkpt lat="42.46804213151336" lon="-8.743373584002256">
        <ele>251.2</ele>
        <time>2022-05-01T08:44:36.758Z</time>
      </trkpt>
      <trkpt lat="42.46803190559149" lon="-8.743479363620281">
        <ele>251.5</ele>
        <time>2022-05-01T08:44:38.291Z</time>
      </trkpt>
      <trkpt lat="42.468050848692656" lon="-8.74348271638155">
        <ele>251.0</ele>
        <time>2022-05-01T08:44:38.677Z</time>
      </trkpt>
      <trkpt lat="42.46806560084224" lon="-8.74342798255384">
        <ele>250.7</ele>
        <time>2022-05-01T08:44:39.579Z</time>
      </trkpt>
      <trkpt lat="42.46810642071068" lon="-8.743421444669366">
        <ele>249.8</ele>
        <time>2022-05-01T08:44:40.468Z</time>
      </trkpt>
      <trkpt lat="42.46822225861251" lon="-8.743506604805589">
        <ele>247.3</ele>
        <time>2022-05-01T08:44:43.085Z</time>
      </trkpt>
      <trkpt lat="42.46825863607228" lon="-8.74357458204031">
        <ele>246.7</ele>
        <time>2022-05-01T08:44:44.143Z</time>
      </trkpt>
      <trkpt lat="42.46827959083021" lon="-8.74380525201559">
        <ele>245.0</ele>
        <time>2022-05-01T08:44:46.939Z</time>
      </trkpt>
      <trkpt lat="42.46837070211768" lon="-8.743916815146804">
        <ele>243.0</ele>
        <time>2022-05-01T08:44:49.012Z</time>
      </trkpt>
      <trkpt lat="42.46871746145189" lon="-8.744210852310061">
        <ele>236.9</ele>
        <time>2022-05-01T08:44:55.457Z</time>
      </trkpt>
      <trkpt lat="42.46887428686023" lon="-8.744249157607555">
        <ele>234.0</ele>
        <time>2022-05-01T08:44:58.120Z</time>
      </trkpt>
      <trkpt lat="42.468942012637854" lon="-8.744284780696034">
        <ele>233.9</ele>
        <time>2022-05-01T08:44:59.376Z</time>
      </trkpt>
      <trkpt lat="42.46924862265587" lon="-8.744607148692012">
        <ele>233.2</ele>
        <time>2022-05-01T08:45:05.156Z</time>
      </trkpt>
      <trkpt lat="42.469604182988405" lon="-8.744750898331404">
        <ele>231.3</ele>
        <time>2022-05-01T08:45:10.563Z</time>
      </trkpt>
      <trkpt lat="42.46976679190993" lon="-8.744752490893006">
        <ele>229.8</ele>
        <time>2022-05-01T08:45:12.666Z</time>
      </trkpt>
      <trkpt lat="42.470107935369015" lon="-8.74464612454176">
        <ele>227.4</ele>
        <time>2022-05-01T08:45:17.059Z</time>
      </trkpt>
      <trkpt lat="42.470241291448474" lon="-8.744543110951781">
        <ele>225.3</ele>
        <time>2022-05-01T08:45:18.838Z</time>
      </trkpt>
      <trkpt lat="42.47034950181842" lon="-8.74449365772307">
        <ele>223.6</ele>
        <time>2022-05-01T08:45:20.283Z</time>
      </trkpt>
      <trkpt lat="42.47055712155998" lon="-8.74446289613843">
        <ele>221.5</ele>
        <time>2022-05-01T08:45:22.844Z</time>
      </trkpt>
      <trkpt lat="42.470619985833764" lon="-8.744436325505376">
        <ele>221.1</ele>
        <time>2022-05-01T08:45:23.721Z</time>
      </trkpt>
      <trkpt lat="42.470739763230085" lon="-8.744441857561469">
        <ele>220.3</ele>
        <time>2022-05-01T08:45:25.298Z</time>
      </trkpt>
      <trkpt lat="42.470840429887176" lon="-8.744427440688014">
        <ele>218.7</ele>
        <time>2022-05-01T08:45:26.738Z</time>
      </trkpt>
      <trkpt lat="42.47099314816296" lon="-8.744443031027913">
        <ele>216.1</ele>
        <time>2022-05-01T08:45:28.793Z</time>
      </trkpt>
      <trkpt lat="42.471055928617716" lon="-8.744473541155457">
        <ele>214.4</ele>
        <time>2022-05-01T08:45:29.605Z</time>
      </trkpt>
      <trkpt lat="42.47109238989651" lon="-8.74454109929502">
        <ele>213.5</ele>
        <time>2022-05-01T08:45:30.370Z</time>
      </trkpt>
      <trkpt lat="42.471211748197675" lon="-8.745043342933059">
        <ele>208.5</ele>
        <time>2022-05-01T08:45:34.885Z</time>
      </trkpt>
      <trkpt lat="42.47138441540301" lon="-8.745443411171436">
        <ele>201.8</ele>
        <time>2022-05-01T08:45:38.664Z</time>
      </trkpt>
      <trkpt lat="42.47147209011018" lon="-8.745571738108993">
        <ele>200.1</ele>
        <time>2022-05-01T08:45:40.244Z</time>
      </trkpt>
      <trkpt lat="42.471755063161254" lon="-8.745709955692291">
        <ele>197.8</ele>
        <time>2022-05-01T08:45:43.854Z</time>
      </trkpt>
      <trkpt lat="42.4719531275332" lon="-8.74567760154605">
        <ele>195.9</ele>
        <time>2022-05-01T08:45:46.317Z</time>
      </trkpt>
      <trkpt lat="42.47201984748244" lon="-8.745687576010823">
        <ele>195.2</ele>
        <time>2022-05-01T08:45:47.141Z</time>
      </trkpt>
      <trkpt lat="42.47228756546974" lon="-8.745856638997793">
        <ele>193.9</ele>
        <time>2022-05-01T08:45:50.730Z</time>
      </trkpt>
      <trkpt lat="42.47243642807007" lon="-8.745893938466907">
        <ele>192.5</ele>
        <time>2022-05-01T08:45:52.459Z</time>
      </trkpt>
      <trkpt lat="42.47265947051346" lon="-8.74582763761282">
        <ele>188.1</ele>
        <time>2022-05-01T08:45:54.994Z</time>
      </trkpt>
      <trkpt lat="42.472941018640995" lon="-8.7455799523741">
        <ele>179.4</ele>
        <time>2022-05-01T08:45:58.526Z</time>
      </trkpt>
      <trkpt lat="42.47303866781294" lon="-8.74552278779447">
        <ele>177.0</ele>
        <time>2022-05-01T08:45:59.755Z</time>
      </trkpt>
      <trkpt lat="42.47312592342496" lon="-8.745493786409497">
        <ele>175.3</ele>
        <time>2022-05-01T08:46:00.758Z</time>
      </trkpt>
      <trkpt lat="42.473215693607926" lon="-8.74549244530499">
        <ele>174.1</ele>
        <time>2022-05-01T08:46:01.707Z</time>
      </trkpt>
      <trkpt lat="42.47353445738554" lon="-8.745633848011494">
        <ele>174.8</ele>
        <time>2022-05-01T08:46:05.177Z</time>
      </trkpt>
      <trkpt lat="42.47360821813345" lon="-8.745642732828856">
        <ele>175.7</ele>
        <time>2022-05-01T08:46:05.931Z</time>
      </trkpt>
      <trkpt lat="42.47375347651541" lon="-8.745447099208832">
        <ele>172.2</ele>
        <time>2022-05-01T08:46:08.228Z</time>
      </trkpt>
      <trkpt lat="42.47396796941757" lon="-8.745229337364435">
        <ele>170.1</ele>
        <time>2022-05-01T08:46:11.122Z</time>
      </trkpt>
      <trkpt lat="42.47424390166998" lon="-8.745144680142403">
        <ele>166.2</ele>
        <time>2022-05-01T08:46:14.084Z</time>
      </trkpt>
      <trkpt lat="42.47432981617749" lon="-8.745138812810183">
        <ele>164.9</ele>
        <time>2022-05-01T08:46:15.074Z</time>
      </trkpt>
      <trkpt lat="42.47470096684992" lon="-8.745171166956425">
        <ele>163.5</ele>
        <time>2022-05-01T08:46:19.092Z</time>
      </trkpt>
      <trkpt lat="42.47482602484524" lon="-8.745124731212854">
        <ele>163.3</ele>
        <time>2022-05-01T08:46:20.472Z</time>
      </trkpt>
      <trkpt lat="42.47491864487529" lon="-8.744996236637235">
        <ele>160.9</ele>
        <time>2022-05-01T08:46:21.844Z</time>
      </trkpt>
      <trkpt lat="42.474916968494654" lon="-8.744572615250945">
        <ele>152.0</ele>
        <time>2022-05-01T08:46:25.254Z</time>
      </trkpt>
      <trkpt lat="42.474935157224536" lon="-8.744458705186844">
        <ele>150.8</ele>
        <time>2022-05-01T08:46:26.282Z</time>
      </trkpt>
      <trkpt lat="42.47507379390299" lon="-8.74413214623928">
        <ele>148.3</ele>
        <time>2022-05-01T08:46:29.386Z</time>
      </trkpt>
      <trkpt lat="42.4751184694469" lon="-8.744069868698716">
        <ele>147.4</ele>
        <time>2022-05-01T08:46:30.082Z</time>
      </trkpt>
      <trkpt lat="42.47523522935808" lon="-8.743975907564163">
        <ele>146.3</ele>
        <time>2022-05-01T08:46:31.522Z</time>
      </trkpt>
      <trkpt lat="42.47553085908294" lon="-8.743933914229274">
        <ele>147.1</ele>
        <time>2022-05-01T08:46:34.529Z</time>
      </trkpt>
      <trkpt lat="42.475626496598125" lon="-8.743882030248642">
        <ele>146.6</ele>
        <time>2022-05-01T08:46:35.676Z</time>
      </trkpt>
      <trkpt lat="42.47568818740547" lon="-8.743645576760173">
        <ele>140.6</ele>
        <time>2022-05-01T08:46:37.843Z</time>
      </trkpt>
      <trkpt lat="42.47581374831498" lon="-8.74344122596085">
        <ele>137.1</ele>
        <time>2022-05-01T08:46:40.349Z</time>
      </trkpt>
      <trkpt lat="42.475955905392766" lon="-8.743144758045673">
        <ele>133.8</ele>
        <time>2022-05-01T08:46:43.455Z</time>
      </trkpt>
      <trkpt lat="42.47598893009126" lon="-8.742985920980573">
        <ele>131.4</ele>
        <time>2022-05-01T08:46:44.817Z</time>
      </trkpt>
      <trkpt lat="42.475995970889926" lon="-8.742657685652375">
        <ele>127.2</ele>
        <time>2022-05-01T08:46:47.458Z</time>
      </trkpt>
      <trkpt lat="42.4760403111577" lon="-8.742548804730177">
        <ele>126.2</ele>
        <time>2022-05-01T08:46:48.554Z</time>
      </trkpt>
      <trkpt lat="42.47624256648123" lon="-8.742219312116504">
        <ele>122.8</ele>
        <time>2022-05-01T08:46:52.075Z</time>
      </trkpt>
      <trkpt lat="42.47633870691061" lon="-8.741894010454416">
        <ele>120.0</ele>
        <time>2022-05-01T08:46:54.819Z</time>
      </trkpt>
      <trkpt lat="42.47638950124383" lon="-8.741803150624037">
        <ele>119.6</ele>
        <time>2022-05-01T08:46:55.672Z</time>
      </trkpt>
      <trkpt lat="42.47669300995767" lon="-8.741404255852103">
        <ele>116.8</ele>
        <time>2022-05-01T08:47:00.209Z</time>
      </trkpt>
      <trkpt lat="42.476847069337964" lon="-8.741320772096515">
        <ele>116.3</ele>
        <time>2022-05-01T08:47:02.138Z</time>
      </trkpt>
      <trkpt lat="42.47693935409188" lon="-8.741316916421056">
        <ele>116.1</ele>
        <time>2022-05-01T08:47:03.230Z</time>
      </trkpt>
      <trkpt lat="42.47703147120774" lon="-8.741340888664126">
        <ele>115.7</ele>
        <time>2022-05-01T08:47:04.410Z</time>
      </trkpt>
      <trkpt lat="42.47711235657334" lon="-8.74138506129384">
        <ele>115.2</ele>
        <time>2022-05-01T08:47:05.600Z</time>
      </trkpt>
      <trkpt lat="42.47743061743677" lon="-8.741709273308516">
        <ele>115.0</ele>
        <time>2022-05-01T08:47:11.303Z</time>
      </trkpt>
      <trkpt lat="42.47757495380938" lon="-8.741717990487814">
        <ele>114.6</ele>
        <time>2022-05-01T08:47:13.398Z</time>
      </trkpt>
      <trkpt lat="42.47787309810519" lon="-8.741687815636396">
        <ele>113.9</ele>
        <time>2022-05-01T08:47:17.974Z</time>
      </trkpt>
      <trkpt lat="42.478010058403015" lon="-8.741628639400005">
        <ele>113.3</ele>
        <time>2022-05-01T08:47:20.037Z</time>
      </trkpt>
      <trkpt lat="42.478317338973284" lon="-8.741440046578646">
        <ele>110.1</ele>
        <time>2022-05-01T08:47:25.019Z</time>
      </trkpt>
      <trkpt lat="42.47874716296792" lon="-8.741254722699523">
        <ele>109.3</ele>
        <time>2022-05-01T08:47:31.667Z</time>
      </trkpt>
      <trkpt lat="42.478862246498466" lon="-8.741174843162298">
        <ele>109.3</ele>
        <time>2022-05-01T08:47:33.609Z</time>
      </trkpt>
      <trkpt lat="42.47890750877559" lon="-8.741123713552952">
        <ele>109.1</ele>
        <time>2022-05-01T08:47:34.488Z</time>
      </trkpt>
      <trkpt lat="42.47902896255255" lon="-8.740663547068834">
        <ele>107.1</ele>
        <time>2022-05-01T08:47:40.152Z</time>
      </trkpt>
      <trkpt lat="42.47910590842366" lon="-8.740593390539289">
        <ele>107.3</ele>
        <time>2022-05-01T08:47:41.654Z</time>
      </trkpt>
      <trkpt lat="42.479336243122816" lon="-8.740644184872508">
        <ele>107.0</ele>
        <time>2022-05-01T08:47:45.598Z</time>
      </trkpt>
      <trkpt lat="42.47946339659393" lon="-8.7406100705266">
        <ele>106.4</ele>
        <time>2022-05-01T08:47:47.819Z</time>
      </trkpt>
      <trkpt lat="42.47966188006103" lon="-8.740582913160324">
        <ele>105.1</ele>
        <time>2022-05-01T08:47:51.176Z</time>
      </trkpt>
      <trkpt lat="42.47979624196887" lon="-8.740582577884197">
        <ele>104.5</ele>
        <time>2022-05-01T08:47:53.363Z</time>
      </trkpt>
      <trkpt lat="42.47992758639157" lon="-8.740610824897885">
        <ele>104.6</ele>
        <time>2022-05-01T08:47:55.512Z</time>
      </trkpt>
      <trkpt lat="42.480090614408255" lon="-8.74055190011859">
        <ele>102.7</ele>
        <time>2022-05-01T08:47:58.338Z</time>
      </trkpt>
      <trkpt lat="42.48034693300724" lon="-8.740553744137287">
        <ele>101.3</ele>
        <time>2022-05-01T08:48:02.631Z</time>
      </trkpt>
      <trkpt lat="42.48050099238753" lon="-8.740625996142626">
        <ele>100.8</ele>
        <time>2022-05-01T08:48:05.343Z</time>
      </trkpt>
      <trkpt lat="42.4806375335902" lon="-8.740750048309565">
        <ele>99.8</ele>
        <time>2022-05-01T08:48:08.086Z</time>
      </trkpt>
      <trkpt lat="42.480791341513395" lon="-8.740925313904881">
        <ele>99.6</ele>
        <time>2022-05-01T08:48:11.429Z</time>
      </trkpt>
      <trkpt lat="42.48096928931773" lon="-8.741042744368315">
        <ele>98.9</ele>
        <time>2022-05-01T08:48:14.719Z</time>
      </trkpt>
      <trkpt lat="42.481028800830245" lon="-8.741046264767647">
        <ele>98.7</ele>
        <time>2022-05-01T08:48:15.761Z</time>
      </trkpt>
      <trkpt lat="42.48119140975177" lon="-8.740982310846448">
        <ele>97.7</ele>
        <time>2022-05-01T08:48:18.803Z</time>
      </trkpt>
      <trkpt lat="42.4813471455127" lon="-8.741048611700535">
        <ele>97.4</ele>
        <time>2022-05-01T08:48:21.804Z</time>
      </trkpt>
      <trkpt lat="42.481516459956765" lon="-8.74108205549419">
        <ele>96.9</ele>
        <time>2022-05-01T08:48:25.002Z</time>
      </trkpt>
      <trkpt lat="42.48155836947262" lon="-8.741107704117894">
        <ele>97.0</ele>
        <time>2022-05-01T08:48:25.900Z</time>
      </trkpt>
      <trkpt lat="42.48166607692838" lon="-8.741286071017385">
        <ele>98.5</ele>
        <time>2022-05-01T08:48:29.309Z</time>
      </trkpt>
      <trkpt lat="42.48176456429064" lon="-8.741333847865462">
        <ele>98.6</ele>
        <time>2022-05-01T08:48:31.455Z</time>
      </trkpt>
      <trkpt lat="42.48181443661451" lon="-8.74133912846446">
        <ele>98.1</ele>
        <time>2022-05-01T08:48:32.517Z</time>
      </trkpt>
      <trkpt lat="42.48186841607094" lon="-8.741380199790001">
        <ele>98.2</ele>
        <time>2022-05-01T08:48:33.802Z</time>
      </trkpt>
      <trkpt lat="42.48202004469931" lon="-8.741362430155277">
        <ele>96.2</ele>
        <time>2022-05-01T08:48:37.036Z</time>
      </trkpt>
      <trkpt lat="42.482157591730356" lon="-8.741388162598014">
        <ele>95.8</ele>
        <time>2022-05-01T08:48:39.996Z</time>
      </trkpt>
      <trkpt lat="42.48220704495907" lon="-8.741427892819047">
        <ele>95.6</ele>
        <time>2022-05-01T08:48:41.242Z</time>
      </trkpt>
      <trkpt lat="42.48228030279279" lon="-8.741637524217367">
        <ele>96.0</ele>
        <time>2022-05-01T08:48:45.054Z</time>
      </trkpt>
      <trkpt lat="42.482378371059895" lon="-8.74184338375926">
        <ele>96.7</ele>
        <time>2022-05-01T08:48:49.158Z</time>
      </trkpt>
      <trkpt lat="42.48248079791665" lon="-8.741973135620356">
        <ele>95.6</ele>
        <time>2022-05-01T08:48:52.173Z</time>
      </trkpt>
      <trkpt lat="42.482582135125995" lon="-8.742069443687797">
        <ele>95.5</ele>
        <time>2022-05-01T08:48:54.749Z</time>
      </trkpt>
      <trkpt lat="42.482763435691595" lon="-8.742187209427357">
        <ele>93.6</ele>
        <time>2022-05-01T08:48:58.495Z</time>
      </trkpt>
      <trkpt lat="42.48325863853097" lon="-8.742579817771912">
        <ele>90.9</ele>
        <time>2022-05-01T08:49:08.906Z</time>
      </trkpt>
      <trkpt lat="42.48346097767353" lon="-8.74269356019795">
        <ele>89.5</ele>
        <time>2022-05-01T08:49:12.724Z</time>
      </trkpt>
      <trkpt lat="42.4835333134979" lon="-8.7427185382694">
        <ele>89.1</ele>
        <time>2022-05-01T08:49:14.029Z</time>
      </trkpt>
      <trkpt lat="42.48374889604747" lon="-8.742730440571904">
        <ele>88.3</ele>
        <time>2022-05-01T08:49:17.871Z</time>
      </trkpt>
      <trkpt lat="42.4838493950665" lon="-8.74278106726706">
        <ele>88.1</ele>
        <time>2022-05-01T08:49:19.844Z</time>
      </trkpt>
      <trkpt lat="42.48397193849087" lon="-8.74293940141797">
        <ele>88.1</ele>
        <time>2022-05-01T08:49:23.106Z</time>
      </trkpt>
      <trkpt lat="42.484238063916564" lon="-8.743403926491737">
        <ele>87.4</ele>
        <time>2022-05-01T08:49:31.627Z</time>
      </trkpt>
      <trkpt lat="42.484460435807705" lon="-8.743632920086384">
        <ele>87.5</ele>
        <time>2022-05-01T08:49:37.176Z</time>
      </trkpt>
      <trkpt lat="42.484626146033406" lon="-8.743941122666001">
        <ele>86.3</ele>
        <time>2022-05-01T08:49:42.822Z</time>
      </trkpt>
      <trkpt lat="42.4849165789783" lon="-8.744347812607884">
        <ele>86.0</ele>
        <time>2022-05-01T08:49:51.375Z</time>
      </trkpt>
      <trkpt lat="42.48509888537228" lon="-8.744656099006534">
        <ele>86.0</ele>
        <time>2022-05-01T08:49:57.315Z</time>
      </trkpt>
      <trkpt lat="42.48542636632919" lon="-8.745028506964445">
        <ele>84.7</ele>
        <time>2022-05-01T08:50:05.834Z</time>
      </trkpt>
      <trkpt lat="42.48565376736224" lon="-8.745338721200824">
        <ele>83.4</ele>
        <time>2022-05-01T08:50:12.405Z</time>
      </trkpt>
      <trkpt lat="42.48574202880263" lon="-8.745519518852234">
        <ele>82.2</ele>
        <time>2022-05-01T08:50:15.612Z</time>
      </trkpt>
      <trkpt lat="42.485812939703465" lon="-8.74578757211566">
        <ele>81.9</ele>
        <time>2022-05-01T08:50:19.774Z</time>
      </trkpt>
      <trkpt lat="42.48584386892617" lon="-8.746075993403792">
        <ele>81.1</ele>
        <time>2022-05-01T08:50:24.030Z</time>
      </trkpt>
      <trkpt lat="42.48598963022232" lon="-8.746973359957337">
        <ele>78.3</ele>
        <time>2022-05-01T08:50:37.169Z</time>
      </trkpt>
      <trkpt lat="42.48600731603801" lon="-8.747223895043135">
        <ele>77.6</ele>
        <time>2022-05-01T08:50:40.768Z</time>
      </trkpt>
      <trkpt lat="42.48599139042199" lon="-8.747442159801722">
        <ele>77.1</ele>
        <time>2022-05-01T08:50:43.862Z</time>
      </trkpt>
      <trkpt lat="42.485957527533174" lon="-8.747637374326587">
        <ele>76.9</ele>
        <time>2022-05-01T08:50:46.812Z</time>
      </trkpt>
      <trkpt lat="42.485972195863724" lon="-8.747938284650445">
        <ele>76.7</ele>
        <time>2022-05-01T08:50:51.416Z</time>
      </trkpt>
      <trkpt lat="42.486319709569216" lon="-8.749924963340163">
        <ele>73.3</ele>
        <time>2022-05-01T08:51:22.513Z</time>
      </trkpt>
      <trkpt lat="42.48650997877121" lon="-8.750213384628296">
        <ele>73.7</ele>
        <time>2022-05-01T08:51:28.603Z</time>
      </trkpt>
      <trkpt lat="42.48665129765868" lon="-8.750279350206256">
        <ele>73.1</ele>
        <time>2022-05-01T08:51:31.779Z</time>
      </trkpt>
      <trkpt lat="42.48686143197119" lon="-8.75050188973546">
        <ele>73.7</ele>
        <time>2022-05-01T08:51:37.489Z</time>
      </trkpt>
      <trkpt lat="42.487173741683364" lon="-8.751131873577833">
        <ele>71.7</ele>
        <time>2022-05-01T08:51:49.229Z</time>
      </trkpt>
      <trkpt lat="42.487259237095714" lon="-8.751258188858628">
        <ele>70.5</ele>
        <time>2022-05-01T08:51:51.398Z</time>
      </trkpt>
      <trkpt lat="42.487510945647955" lon="-8.751790439710021">
        <ele>68.4</ele>
        <time>2022-05-01T08:51:59.160Z</time>
      </trkpt>
      <trkpt lat="42.48758789151907" lon="-8.751898230984807">
        <ele>67.4</ele>
        <time>2022-05-01T08:52:00.915Z</time>
      </trkpt>
      <trkpt lat="42.48781998641789" lon="-8.752112137153745">
        <ele>64.1</ele>
        <time>2022-05-01T08:52:05.346Z</time>
      </trkpt>
      <trkpt lat="42.48795258812606" lon="-8.752302238717675">
        <ele>64.2</ele>
        <time>2022-05-01T08:52:08.436Z</time>
      </trkpt>
      <trkpt lat="42.488037664443254" lon="-8.752392679452896">
        <ele>63.9</ele>
        <time>2022-05-01T08:52:10.129Z</time>
      </trkpt>
      <trkpt lat="42.48818778432906" lon="-8.75241237692535">
        <ele>61.9</ele>
        <time>2022-05-01T08:52:12.360Z</time>
      </trkpt>
      <trkpt lat="42.4884048756212" lon="-8.752390751615167">
        <ele>59.4</ele>
        <time>2022-05-01T08:52:15.386Z</time>
      </trkpt>
      <trkpt lat="42.488653399050236" lon="-8.752463422715664">
        <ele>58.4</ele>
        <time>2022-05-01T08:52:18.596Z</time>
      </trkpt>
      <trkpt lat="42.48884953558445" lon="-8.752575824037194">
        <ele>57.4</ele>
        <time>2022-05-01T08:52:21.112Z</time>
      </trkpt>
      <trkpt lat="42.48898942954838" lon="-8.752736421301961">
        <ele>56.5</ele>
        <time>2022-05-01T08:52:23.350Z</time>
      </trkpt>
      <trkpt lat="42.48903896659613" lon="-8.752719992771745">
        <ele>55.4</ele>
        <time>2022-05-01T08:52:24.026Z</time>
      </trkpt>
      <trkpt lat="42.48914575204253" lon="-8.752742791548371">
        <ele>53.5</ele>
        <time>2022-05-01T08:52:25.485Z</time>
      </trkpt>
      <trkpt lat="42.489187410101295" lon="-8.752708593383431">
        <ele>52.5</ele>
        <time>2022-05-01T08:52:26.193Z</time>
      </trkpt>
      <trkpt lat="42.489306181669235" lon="-8.752548582851887">
        <ele>50.4</ele>
        <time>2022-05-01T08:52:28.663Z</time>
      </trkpt>
      <trkpt lat="42.48935144394636" lon="-8.752518659457564">
        <ele>50.0</ele>
        <time>2022-05-01T08:52:29.377Z</time>
      </trkpt>
      <trkpt lat="42.489395113661885" lon="-8.752531735226512">
        <ele>49.5</ele>
        <time>2022-05-01T08:52:30.059Z</time>
      </trkpt>
      <trkpt lat="42.48947801068425" lon="-8.752609016373754">
        <ele>49.3</ele>
        <time>2022-05-01T08:52:31.696Z</time>
      </trkpt>
      <trkpt lat="42.48955571092665" lon="-8.752647321671247">
        <ele>49.0</ele>
        <time>2022-05-01T08:52:33.016Z</time>
      </trkpt>
      <trkpt lat="42.4896290525794" lon="-8.75262158922851">
        <ele>48.5</ele>
        <time>2022-05-01T08:52:34.220Z</time>
      </trkpt>
      <trkpt lat="42.48969434760511" lon="-8.752538776025176">
        <ele>48.0</ele>
        <time>2022-05-01T08:52:35.730Z</time>
      </trkpt>
      <trkpt lat="42.489755284041166" lon="-8.752383040264249">
        <ele>48.0</ele>
        <time>2022-05-01T08:52:37.871Z</time>
      </trkpt>
      <trkpt lat="42.48994655907154" lon="-8.752017254009843">
        <ele>47.0</ele>
        <time>2022-05-01T08:52:43.264Z</time>
      </trkpt>
      <trkpt lat="42.49009357765317" lon="-8.751905942335725">
        <ele>45.2</ele>
        <time>2022-05-01T08:52:46.142Z</time>
      </trkpt>
      <trkpt lat="42.490274123847485" lon="-8.7518588360399">
        <ele>44.4</ele>
        <time>2022-05-01T08:52:49.274Z</time>
      </trkpt>
      <trkpt lat="42.49039993621409" lon="-8.751556752249599">
        <ele>45.3</ele>
        <time>2022-05-01T08:52:53.876Z</time>
      </trkpt>
      <trkpt lat="42.49054502695799" lon="-8.751246118918061">
        <ele>46.8</ele>
        <time>2022-05-01T08:52:59.083Z</time>
      </trkpt>
      <trkpt lat="42.49067150987685" lon="-8.751032128930092">
        <ele>47.8</ele>
        <time>2022-05-01T08:53:03.131Z</time>
      </trkpt>
      <trkpt lat="42.490809643641114" lon="-8.750712191686034">
        <ele>50.2</ele>
        <time>2022-05-01T08:53:09.071Z</time>
      </trkpt>
      <trkpt lat="42.490941658616066" lon="-8.750522173941135">
        <ele>51.3</ele>
        <time>2022-05-01T08:53:13.466Z</time>
      </trkpt>
      <trkpt lat="42.49108758755028" lon="-8.750371132045984">
        <ele>51.6</ele>
        <time>2022-05-01T08:53:17.881Z</time>
      </trkpt>
      <trkpt lat="42.49128573574126" lon="-8.750027474015951">
        <ele>53.3</ele>
        <time>2022-05-01T08:53:26.459Z</time>
      </trkpt>
      <trkpt lat="42.49153367243707" lon="-8.749435041099787">
        <ele>55.8</ele>
        <time>2022-05-01T08:53:39.919Z</time>
      </trkpt>
      <trkpt lat="42.49163291417062" lon="-8.74914645217359">
        <ele>57.5</ele>
        <time>2022-05-01T08:53:46.257Z</time>
      </trkpt>
      <trkpt lat="42.4916738178581" lon="-8.74910194426775">
        <ele>57.2</ele>
        <time>2022-05-01T08:53:47.667Z</time>
      </trkpt>
      <trkpt lat="42.49177113175392" lon="-8.749131532385945">
        <ele>56.1</ele>
        <time>2022-05-01T08:53:50.305Z</time>
      </trkpt>
      <trkpt lat="42.49198453500867" lon="-8.74929741024971">
        <ele>54.7</ele>
        <time>2022-05-01T08:53:56.808Z</time>
      </trkpt>
      <trkpt lat="42.49215259216726" lon="-8.749498324468732">
        <ele>54.0</ele>
        <time>2022-05-01T08:54:02.794Z</time>
      </trkpt>
      <trkpt lat="42.49239197932184" lon="-8.749920688569546">
        <ele>54.9</ele>
        <time>2022-05-01T08:54:13.194Z</time>
      </trkpt>
      <trkpt lat="42.492693308740854" lon="-8.750220760703087">
        <ele>57.3</ele>
        <time>2022-05-01T08:54:23.088Z</time>
      </trkpt>
      <trkpt lat="42.49306194484234" lon="-8.750393092632294">
        <ele>57.5</ele>
        <time>2022-05-01T08:54:32.884Z</time>
      </trkpt>
      <trkpt lat="42.49368991702795" lon="-8.750601885840297">
        <ele>54.1</ele>
        <time>2022-05-01T08:54:48.204Z</time>
      </trkpt>
      <trkpt lat="42.4937286414206" lon="-8.75067195855081">
        <ele>53.8</ele>
        <time>2022-05-01T08:54:49.757Z</time>
      </trkpt>
      <trkpt lat="42.49374817125499" lon="-8.750841524451971">
        <ele>53.1</ele>
        <time>2022-05-01T08:54:52.840Z</time>
      </trkpt>
      <trkpt lat="42.493744902312756" lon="-8.751046378165483">
        <ele>52.6</ele>
        <time>2022-05-01T08:54:56.562Z</time>
      </trkpt>
      <trkpt lat="42.49370735138655" lon="-8.751325830817223">
        <ele>52.4</ele>
        <time>2022-05-01T08:55:01.571Z</time>
      </trkpt>
      <trkpt lat="42.4937151465565" lon="-8.751385090872645">
        <ele>52.2</ele>
        <time>2022-05-01T08:55:02.646Z</time>
      </trkpt>
      <trkpt lat="42.49375261366367" lon="-8.751428257673979">
        <ele>51.8</ele>
        <time>2022-05-01T08:55:03.851Z</time>
      </trkpt>
      <trkpt lat="42.4938031565398" lon="-8.751447284594178">
        <ele>51.2</ele>
        <time>2022-05-01T08:55:05.150Z</time>
      </trkpt>
      <trkpt lat="42.49393718317151" lon="-8.751438902691007">
        <ele>49.7</ele>
        <time>2022-05-01T08:55:08.148Z</time>
      </trkpt>
      <trkpt lat="42.49419526197016" lon="-8.751477543264627">
        <ele>47.0</ele>
        <time>2022-05-01T08:55:13.853Z</time>
      </trkpt>
      <trkpt lat="42.49472734518349" lon="-8.751512579619884">
        <ele>43.1</ele>
        <time>2022-05-01T08:55:23.458Z</time>
      </trkpt>
      <trkpt lat="42.49503957107663" lon="-8.751555662602186">
        <ele>42.6</ele>
        <time>2022-05-01T08:55:29.297Z</time>
      </trkpt>
      <trkpt lat="42.495099417865276" lon="-8.751537976786494">
        <ele>42.5</ele>
        <time>2022-05-01T08:55:30.383Z</time>
      </trkpt>
      <trkpt lat="42.49514635652304" lon="-8.751495899632573">
        <ele>42.5</ele>
        <time>2022-05-01T08:55:31.432Z</time>
      </trkpt>
      <trkpt lat="42.4951983243227" lon="-8.751376122236252">
        <ele>43.0</ele>
        <time>2022-05-01T08:55:33.430Z</time>
      </trkpt>
      <trkpt lat="42.49526169151068" lon="-8.751010587438941">
        <ele>44.6</ele>
        <time>2022-05-01T08:55:39.096Z</time>
      </trkpt>
      <trkpt lat="42.49539219774306" lon="-8.750814367085695">
        <ele>45.2</ele>
        <time>2022-05-01T08:55:43.220Z</time>
      </trkpt>
      <trkpt lat="42.49544592574239" lon="-8.750690231099725">
        <ele>45.5</ele>
        <time>2022-05-01T08:55:45.535Z</time>
      </trkpt>
      <trkpt lat="42.49554458074272" lon="-8.750203158706427">
        <ele>46.6</ele>
        <time>2022-05-01T08:55:53.934Z</time>
      </trkpt>
      <trkpt lat="42.49558229930699" lon="-8.750119339674711">
        <ele>46.6</ele>
        <time>2022-05-01T08:55:55.602Z</time>
      </trkpt>
      <trkpt lat="42.495842976495624" lon="-8.749824212864041">
        <ele>44.4</ele>
        <time>2022-05-01T08:56:03.577Z</time>
      </trkpt>
      <trkpt lat="42.49597976915538" lon="-8.749778363853693">
        <ele>43.6</ele>
        <time>2022-05-01T08:56:06.934Z</time>
      </trkpt>
      <trkpt lat="42.49605746939778" lon="-8.749712649732828">
        <ele>43.3</ele>
        <time>2022-05-01T08:56:09.131Z</time>
      </trkpt>
      <trkpt lat="42.49615855515003" lon="-8.74896414577961">
        <ele>45.1</ele>
        <time>2022-05-01T08:56:22.664Z</time>
      </trkpt>
      <trkpt lat="42.496261736378074" lon="-8.748526107519865">
        <ele>45.2</ele>
        <time>2022-05-01T08:56:30.960Z</time>
      </trkpt>
      <trkpt lat="42.49628160148859" lon="-8.748484952375293">
        <ele>45.0</ele>
        <time>2022-05-01T08:56:31.894Z</time>
      </trkpt>
      <trkpt lat="42.496319906786084" lon="-8.7484759837389">
        <ele>44.5</ele>
        <time>2022-05-01T08:56:32.898Z</time>
      </trkpt>
      <trkpt lat="42.496507326141" lon="-8.748516887426376">
        <ele>44.9</ele>
        <time>2022-05-01T08:56:37.824Z</time>
      </trkpt>
      <trkpt lat="42.49654244631529" lon="-8.748504733666778">
        <ele>45.1</ele>
        <time>2022-05-01T08:56:38.765Z</time>
      </trkpt>
      <trkpt lat="42.49670815654099" lon="-8.748185131698847">
        <ele>45.1</ele>
        <time>2022-05-01T08:56:46.270Z</time>
      </trkpt>
      <trkpt lat="42.496769009158015" lon="-8.747847424820065">
        <ele>45.3</ele>
        <time>2022-05-01T08:56:52.957Z</time>
      </trkpt>
      <trkpt lat="42.49676825478673" lon="-8.747673248872161">
        <ele>45.8</ele>
        <time>2022-05-01T08:56:56.347Z</time>
      </trkpt>
      <trkpt lat="42.49680479988456" lon="-8.747379379346967">
        <ele>46.2</ele>
        <time>2022-05-01T08:57:02.231Z</time>
      </trkpt>
      <trkpt lat="42.497002612799406" lon="-8.746540686115623">
        <ele>48.0</ele>
        <time>2022-05-01T08:57:19.928Z</time>
      </trkpt>
      <trkpt lat="42.49704033136368" lon="-8.746396349743009">
        <ele>48.2</ele>
        <time>2022-05-01T08:57:23.046Z</time>
      </trkpt>
      <trkpt lat="42.49713085591793" lon="-8.746173055842519">
        <ele>48.8</ele>
        <time>2022-05-01T08:57:28.330Z</time>
      </trkpt>
      <trkpt lat="42.49719983898103" lon="-8.746056966483593">
        <ele>48.9</ele>
        <time>2022-05-01T08:57:31.389Z</time>
      </trkpt>
      <trkpt lat="42.49728969298303" lon="-8.7459512706846">
        <ele>49.0</ele>
        <time>2022-05-01T08:57:34.700Z</time>
      </trkpt>
      <trkpt lat="42.49735708348453" lon="-8.745697131380439">
        <ele>49.4</ele>
        <time>2022-05-01T08:57:40.242Z</time>
      </trkpt>
      <trkpt lat="42.4973916169256" lon="-8.745028339326382">
        <ele>50.6</ele>
        <time>2022-05-01T08:57:54.203Z</time>
      </trkpt>
      <trkpt lat="42.49735993333161" lon="-8.744831532239914">
        <ele>50.8</ele>
        <time>2022-05-01T08:57:58.419Z</time>
      </trkpt>
      <trkpt lat="42.497358759865165" lon="-8.744693985208869">
        <ele>50.9</ele>
        <time>2022-05-01T08:58:01.301Z</time>
      </trkpt>
      <trkpt lat="42.497398322448134" lon="-8.74459675513208">
        <ele>51.3</ele>
        <time>2022-05-01T08:58:03.600Z</time>
      </trkpt>
      <trkpt lat="42.4974949657917" lon="-8.744484772905707">
        <ele>51.6</ele>
        <time>2022-05-01T08:58:07.294Z</time>
      </trkpt>
      <trkpt lat="42.4975279904902" lon="-8.744344124570489">
        <ele>52.1</ele>
        <time>2022-05-01T08:58:10.408Z</time>
      </trkpt>
      <trkpt lat="42.497582975775" lon="-8.744292827323079">
        <ele>52.4</ele>
        <time>2022-05-01T08:58:12.292Z</time>
      </trkpt>
      <trkpt lat="42.49764835461974" lon="-8.744160812348127">
        <ele>53.1</ele>
        <time>2022-05-01T08:58:15.567Z</time>
      </trkpt>
      <trkpt lat="42.497672410681844" lon="-8.744074562564492">
        <ele>53.5</ele>
        <time>2022-05-01T08:58:17.448Z</time>
      </trkpt>
      <trkpt lat="42.49769512563944" lon="-8.743936261162162">
        <ele>54.2</ele>
        <time>2022-05-01T08:58:20.427Z</time>
      </trkpt>
      <trkpt lat="42.49771926552057" lon="-8.743399903178215">
        <ele>56.1</ele>
        <time>2022-05-01T08:58:31.938Z</time>
      </trkpt>
      <trkpt lat="42.4976627714932" lon="-8.742840327322483">
        <ele>57.8</ele>
        <time>2022-05-01T08:58:44.718Z</time>
      </trkpt>
      <trkpt lat="42.497591860592365" lon="-8.742349650710821">
        <ele>58.4</ele>
        <time>2022-05-01T08:58:56.132Z</time>
      </trkpt>
      <trkpt lat="42.49749387614429" lon="-8.7419190723449">
        <ele>58.9</ele>
        <time>2022-05-01T08:59:06.210Z</time>
      </trkpt>
      <trkpt lat="42.49741609208286" lon="-8.741665184497833">
        <ele>59.6</ele>
        <time>2022-05-01T08:59:13.173Z</time>
      </trkpt>
      <trkpt lat="42.49739798717201" lon="-8.741530403494835">
        <ele>60.1</ele>
        <time>2022-05-01T08:59:16.490Z</time>
      </trkpt>
      <trkpt lat="42.497466299682856" lon="-8.740578554570675">
        <ele>67.6</ele>
        <time>2022-05-01T08:59:40.981Z</time>
      </trkpt>
      <trkpt lat="42.49749370850623" lon="-8.740472691133618">
        <ele>68.7</ele>
        <time>2022-05-01T08:59:44.077Z</time>
      </trkpt>
      <trkpt lat="42.49750276096165" lon="-8.740279152989388">
        <ele>70.5</ele>
        <time>2022-05-01T08:59:50.171Z</time>
      </trkpt>
      <trkpt lat="42.49759756028652" lon="-8.739700382575393">
        <ele>72.9</ele>
        <time>2022-05-01T09:00:07.400Z</time>
      </trkpt>
      <trkpt lat="42.49759345315397" lon="-8.739537186920643">
        <ele>73.7</ele>
        <time>2022-05-01T09:00:11.815Z</time>
      </trkpt>
      <trkpt lat="42.49761491082609" lon="-8.739264188334346">
        <ele>74.0</ele>
        <time>2022-05-01T09:00:19.019Z</time>
      </trkpt>
      <trkpt lat="42.49766184948385" lon="-8.739001750946045">
        <ele>74.0</ele>
        <time>2022-05-01T09:00:26.282Z</time>
      </trkpt>
      <trkpt lat="42.49768900685012" lon="-8.738667648285627">
        <ele>74.5</ele>
        <time>2022-05-01T09:00:34.860Z</time>
      </trkpt>
      <trkpt lat="42.497715996578336" lon="-8.7376191560179">
        <ele>75.5</ele>
        <time>2022-05-01T09:01:00.533Z</time>
      </trkpt>
      <trkpt lat="42.49779738485813" lon="-8.73600522056222">
        <ele>75.4</ele>
        <time>2022-05-01T09:01:38.774Z</time>
      </trkpt>
      <trkpt lat="42.497761426493526" lon="-8.735267193987966">
        <ele>76.7</ele>
        <time>2022-05-01T09:01:55.748Z</time>
      </trkpt>
      <trkpt lat="42.49772731214762" lon="-8.735068794339895">
        <ele>77.0</ele>
        <time>2022-05-01T09:02:00.297Z</time>
      </trkpt>
      <trkpt lat="42.4977576546371" lon="-8.734575435519218">
        <ele>77.2</ele>
        <time>2022-05-01T09:02:11.187Z</time>
      </trkpt>
      <trkpt lat="42.49782278202474" lon="-8.734253738075495">
        <ele>77.3</ele>
        <time>2022-05-01T09:02:18.421Z</time>
      </trkpt>
      <trkpt lat="42.497831750661135" lon="-8.734132703393698">
        <ele>77.7</ele>
        <time>2022-05-01T09:02:21.012Z</time>
      </trkpt>
      <trkpt lat="42.49784616753459" lon="-8.733600955456495">
        <ele>79.0</ele>
        <time>2022-05-01T09:02:32.308Z</time>
      </trkpt>
      <trkpt lat="42.49783451668918" lon="-8.733187224715948">
        <ele>80.0</ele>
        <time>2022-05-01T09:02:41.167Z</time>
      </trkpt>
      <trkpt lat="42.49785706400871" lon="-8.73290685005486">
        <ele>80.7</ele>
        <time>2022-05-01T09:02:47.406Z</time>
      </trkpt>
      <trkpt lat="42.49783434905112" lon="-8.732178378850222">
        <ele>82.8</ele>
        <time>2022-05-01T09:03:04.151Z</time>
      </trkpt>
      <trkpt lat="42.497867876663804" lon="-8.731516292318702">
        <ele>84.9</ele>
        <time>2022-05-01T09:03:19.237Z</time>
      </trkpt>
      <trkpt lat="42.497863098978996" lon="-8.731261901557446">
        <ele>85.8</ele>
        <time>2022-05-01T09:03:24.883Z</time>
      </trkpt>
      <trkpt lat="42.49784390442073" lon="-8.73117464594543">
        <ele>85.8</ele>
        <time>2022-05-01T09:03:26.877Z</time>
      </trkpt>
      <trkpt lat="42.497795624658465" lon="-8.731097867712379">
        <ele>85.4</ele>
        <time>2022-05-01T09:03:29.063Z</time>
      </trkpt>
      <trkpt lat="42.49758616089821" lon="-8.730935594066978">
        <ele>84.5</ele>
        <time>2022-05-01T09:03:36.048Z</time>
      </trkpt>
      <trkpt lat="42.497508293017745" lon="-8.73083551414311">
        <ele>84.6</ele>
        <time>2022-05-01T09:03:39.107Z</time>
      </trkpt>
      <trkpt lat="42.4974381364882" lon="-8.730599312111735">
        <ele>85.3</ele>
        <time>2022-05-01T09:03:44.421Z</time>
      </trkpt>
      <trkpt lat="42.497438387945294" lon="-8.730312567204237">
        <ele>86.0</ele>
        <time>2022-05-01T09:03:50.382Z</time>
      </trkpt>
      <trkpt lat="42.49740930274129" lon="-8.73019639402628">
        <ele>86.2</ele>
        <time>2022-05-01T09:03:52.976Z</time>
      </trkpt>
      <trkpt lat="42.49736186116934" lon="-8.730105115100741">
        <ele>86.5</ele>
        <time>2022-05-01T09:03:55.392Z</time>
      </trkpt>
      <trkpt lat="42.4969806522131" lon="-8.729645367711782">
        <ele>88.2</ele>
        <time>2022-05-01T09:04:10.505Z</time>
      </trkpt>
      <trkpt lat="42.49687629751861" lon="-8.72956657782197">
        <ele>89.0</ele>
        <time>2022-05-01T09:04:14.123Z</time>
      </trkpt>
      <trkpt lat="42.49679985456169" lon="-8.729422576725483">
        <ele>89.3</ele>
        <time>2022-05-01T09:04:18.134Z</time>
      </trkpt>
      <trkpt lat="42.496706480160356" lon="-8.729296093806624">
        <ele>89.5</ele>
        <time>2022-05-01T09:04:22.229Z</time>
      </trkpt>
      <trkpt lat="42.496581422165036" lon="-8.729182099923491">
        <ele>89.9</ele>
        <time>2022-05-01T09:04:26.925Z</time>
      </trkpt>
      <trkpt lat="42.496467679739" lon="-8.72900607995689">
        <ele>90.3</ele>
        <time>2022-05-01T09:04:32.565Z</time>
      </trkpt>
      <trkpt lat="42.496394254267216" lon="-8.728936007246375">
        <ele>90.7</ele>
        <time>2022-05-01T09:04:35.418Z</time>
      </trkpt>
      <trkpt lat="42.49633541330695" lon="-8.728922260925174">
        <ele>90.9</ele>
        <time>2022-05-01T09:04:37.288Z</time>
      </trkpt>
      <trkpt lat="42.49612720683217" lon="-8.728943886235356">
        <ele>91.6</ele>
        <time>2022-05-01T09:04:43.736Z</time>
      </trkpt>
      <trkpt lat="42.496057050302625" lon="-8.72892058454454">
        <ele>92.1</ele>
        <time>2022-05-01T09:04:45.943Z</time>
      </trkpt>
      <trkpt lat="42.49594573862851" lon="-8.728800807148218">
        <ele>92.6</ele>
        <time>2022-05-01T09:04:50.266Z</time>
      </trkpt>
      <trkpt lat="42.49590282328427" lon="-8.72867926955223">
        <ele>93.1</ele>
        <time>2022-05-01T09:04:53.338Z</time>
      </trkpt>
      <trkpt lat="42.49583928845823" lon="-8.728365115821362">
        <ele>93.9</ele>
        <time>2022-05-01T09:05:00.644Z</time>
      </trkpt>
      <trkpt lat="42.49584901146591" lon="-8.728323122486472">
        <ele>93.9</ele>
        <time>2022-05-01T09:05:01.645Z</time>
      </trkpt>
      <trkpt lat="42.49587315134704" lon="-8.728316249325871">
        <ele>93.9</ele>
        <time>2022-05-01T09:05:02.386Z</time>
      </trkpt>
      <trkpt lat="42.495823027566075" lon="-8.728389674797654">
        <ele>94.0</ele>
        <time>2022-05-01T09:05:04.559Z</time>
      </trkpt>
      <trkpt lat="42.49580659903586" lon="-8.728390093892813">
        <ele>94.1</ele>
        <time>2022-05-01T09:05:05.034Z</time>
      </trkpt>
      <trkpt lat="42.49579478055239" lon="-8.728296384215355">
        <ele>94.2</ele>
        <time>2022-05-01T09:05:07.032Z</time>
      </trkpt>
      <trkpt lat="42.495756056159735" lon="-8.728200495243073">
        <ele>94.6</ele>
        <time>2022-05-01T09:05:09.371Z</time>
      </trkpt>
      <trkpt lat="42.495739879086614" lon="-8.728066133335233">
        <ele>94.9</ele>
        <time>2022-05-01T09:05:12.259Z</time>
      </trkpt>
      <trkpt lat="42.4958045873791" lon="-8.727884832769632">
        <ele>95.1</ele>
        <time>2022-05-01T09:05:16.526Z</time>
      </trkpt>
      <trkpt lat="42.495903577655554" lon="-8.727779556065798">
        <ele>95.1</ele>
        <time>2022-05-01T09:05:20.091Z</time>
      </trkpt>
      <trkpt lat="42.4959081877023" lon="-8.727717194706202">
        <ele>95.1</ele>
        <time>2022-05-01T09:05:21.471Z</time>
      </trkpt>
      <trkpt lat="42.49587424099445" lon="-8.727647876366973">
        <ele>95.1</ele>
        <time>2022-05-01T09:05:23.267Z</time>
      </trkpt>
      <trkpt lat="42.49579017050564" lon="-8.727568751201034">
        <ele>95.6</ele>
        <time>2022-05-01T09:05:26.226Z</time>
      </trkpt>
      <trkpt lat="42.49569126404822" lon="-8.727513933554292">
        <ele>96.3</ele>
        <time>2022-05-01T09:05:29.270Z</time>
      </trkpt>
      <trkpt lat="42.49562353827059" lon="-8.72750261798501">
        <ele>96.6</ele>
        <time>2022-05-01T09:05:31.204Z</time>
      </trkpt>
      <trkpt lat="42.49556763097644" lon="-8.727450734004378">
        <ele>97.1</ele>
        <time>2022-05-01T09:05:33.102Z</time>
      </trkpt>
      <trkpt lat="42.49550275504589" lon="-8.727202713489532">
        <ele>97.2</ele>
        <time>2022-05-01T09:05:38.489Z</time>
      </trkpt>
      <trkpt lat="42.49553041532636" lon="-8.727072710171342">
        <ele>97.5</ele>
        <time>2022-05-01T09:05:41.488Z</time>
      </trkpt>
      <trkpt lat="42.495687240734696" lon="-8.72679895721376">
        <ele>98.7</ele>
        <time>2022-05-01T09:05:49.134Z</time>
      </trkpt>
      <trkpt lat="42.496091332286596" lon="-8.72627031058073">
        <ele>99.8</ele>
        <time>2022-05-01T09:06:06.662Z</time>
      </trkpt>
      <trkpt lat="42.49634220264852" lon="-8.72601080685854">
        <ele>101.5</ele>
        <time>2022-05-01T09:06:16.324Z</time>
      </trkpt>
      <trkpt lat="42.49651520512998" lon="-8.725870912894607">
        <ele>101.7</ele>
        <time>2022-05-01T09:06:22.452Z</time>
      </trkpt>
      <trkpt lat="42.49670195393264" lon="-8.725648541003466">
        <ele>102.4</ele>
        <time>2022-05-01T09:06:29.840Z</time>
      </trkpt>
      <trkpt lat="42.49759940430522" lon="-8.724410198628902">
        <ele>104.0</ele>
        <time>2022-05-01T09:07:07.874Z</time>
      </trkpt>
      <trkpt lat="42.49772563576698" lon="-8.724124962463975">
        <ele>104.7</ele>
        <time>2022-05-01T09:07:15.166Z</time>
      </trkpt>
      <trkpt lat="42.49781196936965" lon="-8.723695809021592">
        <ele>105.9</ele>
        <time>2022-05-01T09:07:24.587Z</time>
      </trkpt>
      <trkpt lat="42.49794289469719" lon="-8.723227931186557">
        <ele>106.7</ele>
        <time>2022-05-01T09:07:34.987Z</time>
      </trkpt>
      <trkpt lat="42.497987151145935" lon="-8.723126258701086">
        <ele>106.3</ele>
        <time>2022-05-01T09:07:37.414Z</time>
      </trkpt>
      <trkpt lat="42.49805571511388" lon="-8.723044032230973">
        <ele>105.8</ele>
        <time>2022-05-01T09:07:39.943Z</time>
      </trkpt>
      <trkpt lat="42.498140120878816" lon="-8.722978485748172">
        <ele>105.3</ele>
        <time>2022-05-01T09:07:42.611Z</time>
      </trkpt>
      <trkpt lat="42.49833818525076" lon="-8.722868347540498">
        <ele>104.6</ele>
        <time>2022-05-01T09:07:48.455Z</time>
      </trkpt>
      <trkpt lat="42.498438600450754" lon="-8.722823923453689">
        <ele>104.2</ele>
        <time>2022-05-01T09:07:51.322Z</time>
      </trkpt>
      <trkpt lat="42.49848319217563" lon="-8.722816966474056">
        <ele>103.9</ele>
        <time>2022-05-01T09:07:52.517Z</time>
      </trkpt>
      <trkpt lat="42.49852141365409" lon="-8.722832892090082">
        <ele>103.8</ele>
        <time>2022-05-01T09:07:53.580Z</time>
      </trkpt>
      <trkpt lat="42.498577404767275" lon="-8.722915034741163">
        <ele>103.9</ele>
        <time>2022-05-01T09:07:55.769Z</time>
      </trkpt>
      <trkpt lat="42.49860640615225" lon="-8.723016371950507">
        <ele>104.3</ele>
        <time>2022-05-01T09:07:57.893Z</time>
      </trkpt>
      <trkpt lat="42.49863674864173" lon="-8.723420966416597">
        <ele>105.9</ele>
        <time>2022-05-01T09:08:05.961Z</time>
      </trkpt>
      <trkpt lat="42.49866566620767" lon="-8.723572343587875">
        <ele>106.8</ele>
        <time>2022-05-01T09:08:09.052Z</time>
      </trkpt>
      <trkpt lat="42.49880396761" lon="-8.723815167322755">
        <ele>107.4</ele>
        <time>2022-05-01T09:08:15.101Z</time>
      </trkpt>
      <trkpt lat="42.499146619811654" lon="-8.724210541695356">
        <ele>108.5</ele>
        <time>2022-05-01T09:08:27.391Z</time>
      </trkpt>
      <trkpt lat="42.49918358400464" lon="-8.724202997982502">
        <ele>108.6</ele>
        <time>2022-05-01T09:08:28.405Z</time>
      </trkpt>
      <trkpt lat="42.499214513227344" lon="-8.724175170063972">
        <ele>108.7</ele>
        <time>2022-05-01T09:08:29.373Z</time>
      </trkpt>
      <trkpt lat="42.499308390542865" lon="-8.723877612501383">
        <ele>107.9</ele>
        <time>2022-05-01T09:08:35.607Z</time>
      </trkpt>
      <trkpt lat="42.499366477131844" lon="-8.723766133189201">
        <ele>107.3</ele>
        <time>2022-05-01T09:08:38.238Z</time>
      </trkpt>
      <trkpt lat="42.499738382175565" lon="-8.72319876216352">
        <ele>106.9</ele>
        <time>2022-05-01T09:08:52.407Z</time>
      </trkpt>
      <trkpt lat="42.49998883344233" lon="-8.722854517400265">
        <ele>107.0</ele>
        <time>2022-05-01T09:09:01.223Z</time>
      </trkpt>
      <trkpt lat="42.50008933246136" lon="-8.72278394177556">
        <ele>106.5</ele>
        <time>2022-05-01T09:09:04.046Z</time>
      </trkpt>
      <trkpt lat="42.500147335231304" lon="-8.722780924290419">
        <ele>106.1</ele>
        <time>2022-05-01T09:09:05.505Z</time>
      </trkpt>
      <trkpt lat="42.50020592473447" lon="-8.722797436639667">
        <ele>105.8</ele>
        <time>2022-05-01T09:09:07.019Z</time>
      </trkpt>
      <trkpt lat="42.50026736408472" lon="-8.722838340327144">
        <ele>105.4</ele>
        <time>2022-05-01T09:09:08.761Z</time>
      </trkpt>
      <trkpt lat="42.50062543898821" lon="-8.723170766606927">
        <ele>102.4</ele>
        <time>2022-05-01T09:09:19.596Z</time>
      </trkpt>
      <trkpt lat="42.50104017555714" lon="-8.723597824573517">
        <ele>100.3</ele>
        <time>2022-05-01T09:09:31.550Z</time>
      </trkpt>
      <trkpt lat="42.50175263732672" lon="-8.724183719605207">
        <ele>104.6</ele>
        <time>2022-05-01T09:09:51.903Z</time>
      </trkpt>
      <trkpt lat="42.50200040638447" lon="-8.724502148106694">
        <ele>107.4</ele>
        <time>2022-05-01T09:10:00.507Z</time>
      </trkpt>
      <trkpt lat="42.502121441066265" lon="-8.724685795605183">
        <ele>108.5</ele>
        <time>2022-05-01T09:10:05.113Z</time>
      </trkpt>
      <trkpt lat="42.50215848907828" lon="-8.724712869152427">
        <ele>108.8</ele>
        <time>2022-05-01T09:10:06.185Z</time>
      </trkpt>
      <trkpt lat="42.502292515709996" lon="-8.724643383175135">
        <ele>109.0</ele>
        <time>2022-05-01T09:10:09.850Z</time>
      </trkpt>
      <trkpt lat="42.502440037205815" lon="-8.724601725116372">
        <ele>109.1</ele>
        <time>2022-05-01T09:10:13.714Z</time>
      </trkpt>
      <trkpt lat="42.5030954182148" lon="-8.724578758701682">
        <ele>107.7</ele>
        <time>2022-05-01T09:10:30.800Z</time>
      </trkpt>
      <trkpt lat="42.503232127055526" lon="-8.724602395668626">
        <ele>107.8</ele>
        <time>2022-05-01T09:10:34.720Z</time>
      </trkpt>
      <trkpt lat="42.50335995107889" lon="-8.724666181951761">
        <ele>109.4</ele>
        <time>2022-05-01T09:10:38.582Z</time>
      </trkpt>
      <trkpt lat="42.50351627357304" lon="-8.724693255499005">
        <ele>110.7</ele>
        <time>2022-05-01T09:10:42.999Z</time>
      </trkpt>
      <trkpt lat="42.503636134788394" lon="-8.72473700903356">
        <ele>112.1</ele>
        <time>2022-05-01T09:10:46.966Z</time>
      </trkpt>
      <trkpt lat="42.503998316824436" lon="-8.724929373711348">
        <ele>117.4</ele>
        <time>2022-05-01T09:10:59.178Z</time>
      </trkpt>
      <trkpt lat="42.50444842502475" lon="-8.725250735878944">
        <ele>125.8</ele>
        <time>2022-05-01T09:11:17.580Z</time>
      </trkpt>
      <trkpt lat="42.50503239221871" lon="-8.725514765828848">
        <ele>134.2</ele>
        <time>2022-05-01T09:11:42.232Z</time>
      </trkpt>
      <trkpt lat="42.50517446547747" lon="-8.725552316755056">
        <ele>135.8</ele>
        <time>2022-05-01T09:11:48.011Z</time>
      </trkpt>
      <trkpt lat="42.50531829893589" lon="-8.725559692829847">
        <ele>136.9</ele>
        <time>2022-05-01T09:11:53.344Z</time>
      </trkpt>
      <trkpt lat="42.505673272535205" lon="-8.725500013679266">
        <ele>138.5</ele>
        <time>2022-05-01T09:12:06.905Z</time>
      </trkpt>
      <trkpt lat="42.50585541129112" lon="-8.725498924031854">
        <ele>139.7</ele>
        <time>2022-05-01T09:12:13.382Z</time>
      </trkpt>
      <trkpt lat="42.50599413178861" lon="-8.72552951797843">
        <ele>140.7</ele>
        <time>2022-05-01T09:12:18.392Z</time>
      </trkpt>
      <trkpt lat="42.506274841725826" lon="-8.725634878501296">
        <ele>141.7</ele>
        <time>2022-05-01T09:12:28.788Z</time>
      </trkpt>
      <trkpt lat="42.50687993131578" lon="-8.725968226790428">
        <ele>140.4</ele>
        <time>2022-05-01T09:12:50.970Z</time>
      </trkpt>
      <trkpt lat="42.50703516416252" lon="-8.726013489067554">
        <ele>140.6</ele>
        <time>2022-05-01T09:12:56.137Z</time>
      </trkpt>
      <trkpt lat="42.50717271119356" lon="-8.726001670584083">
        <ele>140.7</ele>
        <time>2022-05-01T09:13:00.473Z</time>
      </trkpt>
      <trkpt lat="42.5073520001024" lon="-8.725917683914304">
        <ele>140.8</ele>
        <time>2022-05-01T09:13:06.366Z</time>
      </trkpt>
      <trkpt lat="42.50764670781791" lon="-8.72571517713368">
        <ele>140.8</ele>
        <time>2022-05-01T09:13:16.395Z</time>
      </trkpt>
      <trkpt lat="42.507964968681335" lon="-8.725451063364744">
        <ele>142.2</ele>
        <time>2022-05-01T09:13:27.487Z</time>
      </trkpt>
      <trkpt lat="42.50805867835879" lon="-8.72542591765523">
        <ele>142.7</ele>
        <time>2022-05-01T09:13:30.302Z</time>
      </trkpt>
      <trkpt lat="42.50814601778984" lon="-8.725450560450554">
        <ele>143.0</ele>
        <time>2022-05-01T09:13:32.884Z</time>
      </trkpt>
      <trkpt lat="42.508256239816546" lon="-8.72557302005589">
        <ele>143.0</ele>
        <time>2022-05-01T09:13:36.979Z</time>
      </trkpt>
      <trkpt lat="42.508438462391496" lon="-8.725880635902286">
        <ele>143.5</ele>
        <time>2022-05-01T09:13:45.428Z</time>
      </trkpt>
      <trkpt lat="42.50879695639014" lon="-8.726599551737309">
        <ele>145.9</ele>
        <time>2022-05-01T09:14:05.302Z</time>
      </trkpt>
      <trkpt lat="42.50887809321284" lon="-8.726716144010425">
        <ele>146.7</ele>
        <time>2022-05-01T09:14:09.411Z</time>
      </trkpt>
      <trkpt lat="42.50899854116142" lon="-8.726967433467507">
        <ele>149.9</ele>
        <time>2022-05-01T09:14:17.856Z</time>
      </trkpt>
      <trkpt lat="42.509244717657566" lon="-8.727354509755969">
        <ele>155.6</ele>
        <time>2022-05-01T09:14:31.629Z</time>
      </trkpt>
      <trkpt lat="42.509359968826175" lon="-8.727576630190015">
        <ele>158.0</ele>
        <time>2022-05-01T09:14:39.136Z</time>
      </trkpt>
      <trkpt lat="42.50949114561081" lon="-8.72791014611721">
        <ele>159.2</ele>
        <time>2022-05-01T09:14:49.940Z</time>
      </trkpt>
      <trkpt lat="42.509568091481924" lon="-8.72820334509015">
        <ele>159.4</ele>
        <time>2022-05-01T09:14:59.053Z</time>
      </trkpt>
      <trkpt lat="42.509794402867556" lon="-8.728778343647718">
        <ele>158.5</ele>
        <time>2022-05-01T09:15:17.083Z</time>
      </trkpt>
      <trkpt lat="42.50992951914668" lon="-8.72922694310546">
        <ele>159.2</ele>
        <time>2022-05-01T09:15:29.817Z</time>
      </trkpt>
      <trkpt lat="42.510023564100266" lon="-8.729700017720461">
        <ele>160.7</ele>
        <time>2022-05-01T09:15:42.702Z</time>
      </trkpt>
      <trkpt lat="42.51021198928356" lon="-8.730083741247654">
        <ele>162.5</ele>
        <time>2022-05-01T09:15:54.405Z</time>
      </trkpt>
      <trkpt lat="42.51041064038873" lon="-8.730627307668328">
        <ele>167.9</ele>
        <time>2022-05-01T09:16:11.027Z</time>
      </trkpt>
      <trkpt lat="42.51063317991793" lon="-8.731234157457948">
        <ele>171.1</ele>
        <time>2022-05-01T09:16:30.670Z</time>
      </trkpt>
      <trkpt lat="42.510775588452816" lon="-8.731638249009848">
        <ele>172.4</ele>
        <time>2022-05-01T09:16:42.699Z</time>
      </trkpt>
      <trkpt lat="42.51086904667318" lon="-8.732123477384448">
        <ele>172.4</ele>
        <time>2022-05-01T09:16:55.446Z</time>
      </trkpt>
      <trkpt lat="42.510803919285536" lon="-8.73216656036675">
        <ele>172.2</ele>
        <time>2022-05-01T09:16:57.615Z</time>
      </trkpt>
      <trkpt lat="42.510495549067855" lon="-8.732028845697641">
        <ele>171.4</ele>
        <time>2022-05-01T09:17:07.139Z</time>
      </trkpt>
      <trkpt lat="42.510492112487555" lon="-8.732468727976084">
        <ele>170.7</ele>
        <time>2022-05-01T09:17:16.488Z</time>
      </trkpt>
      <trkpt lat="42.51062496565282" lon="-8.732884135097265">
        <ele>169.3</ele>
        <time>2022-05-01T09:17:25.796Z</time>
      </trkpt>
      <trkpt lat="42.51094641163945" lon="-8.733358634635806">
        <ele>168.9</ele>
        <time>2022-05-01T09:17:38.527Z</time>
      </trkpt>
      <trkpt lat="42.511055460199714" lon="-8.733894154429436">
        <ele>169.8</ele>
        <time>2022-05-01T09:17:49.122Z</time>
      </trkpt>
      <trkpt lat="42.51107348129153" lon="-8.734079143032432">
        <ele>169.6</ele>
        <time>2022-05-01T09:17:52.665Z</time>
      </trkpt>
      <trkpt lat="42.51112796366215" lon="-8.734185006469488">
        <ele>169.0</ele>
        <time>2022-05-01T09:17:55.124Z</time>
      </trkpt>
      <trkpt lat="42.51138696447015" lon="-8.73405802063644">
        <ele>167.3</ele>
        <time>2022-05-01T09:18:02.260Z</time>
      </trkpt>
      <trkpt lat="42.51329996623099" lon="-8.733150009065866">
        <ele>171.6</ele>
        <time>2022-05-01T09:18:55.123Z</time>
      </trkpt>
      <trkpt lat="42.514492962509394" lon="-8.73227996751666">
        <ele>177.6</ele>
        <time>2022-05-01T09:19:31.418Z</time>
      </trkpt>
      <trkpt lat="42.51493678428233" lon="-8.732622787356377">
        <ele>176.3</ele>
        <time>2022-05-01T09:19:44.665Z</time>
      </trkpt>
      <trkpt lat="42.515207352116704" lon="-8.732871729880571">
        <ele>175.2</ele>
        <time>2022-05-01T09:19:52.959Z</time>
      </trkpt>
      <trkpt lat="42.515557212755084" lon="-8.733171299099922">
        <ele>174.1</ele>
        <time>2022-05-01T09:20:02.785Z</time>
      </trkpt>
      <trkpt lat="42.51564497128129" lon="-8.733179848641157">
        <ele>174.1</ele>
        <time>2022-05-01T09:20:04.905Z</time>
      </trkpt>
      <trkpt lat="42.51598636619747" lon="-8.733401466161013">
        <ele>172.4</ele>
        <time>2022-05-01T09:20:13.376Z</time>
      </trkpt>
      <trkpt lat="42.51638324931264" lon="-8.733525853604078">
        <ele>167.6</ele>
        <time>2022-05-01T09:20:22.462Z</time>
      </trkpt>
      <trkpt lat="42.51664308831096" lon="-8.733499785885215">
        <ele>165.2</ele>
        <time>2022-05-01T09:20:27.476Z</time>
      </trkpt>
      <trkpt lat="42.51761111430824" lon="-8.732361188158393">
        <ele>160.1</ele>
        <time>2022-05-01T09:20:48.245Z</time>
      </trkpt>
      <trkpt lat="42.51795611344278" lon="-8.732154993340373">
        <ele>155.2</ele>
        <time>2022-05-01T09:20:54.729Z</time>
      </trkpt>
      <trkpt lat="42.51814294606447" lon="-8.732079053297639">
        <ele>152.3</ele>
        <time>2022-05-01T09:20:58.267Z</time>
      </trkpt>
      <trkpt lat="42.518013110384345" lon="-8.731792392209172">
        <ele>150.7</ele>
        <time>2022-05-01T09:21:02.986Z</time>
      </trkpt>
      <trkpt lat="42.517970614135265" lon="-8.731402968987823">
        <ele>148.7</ele>
        <time>2022-05-01T09:21:08.273Z</time>
      </trkpt>
      <trkpt lat="42.51807840541005" lon="-8.730557234957814">
        <ele>143.5</ele>
        <time>2022-05-01T09:21:17.910Z</time>
      </trkpt>
      <trkpt lat="42.51813498325646" lon="-8.730083238333464">
        <ele>139.8</ele>
        <time>2022-05-01T09:21:23.022Z</time>
      </trkpt>
      <trkpt lat="42.51812961883843" lon="-8.729825830087066">
        <ele>138.3</ele>
        <time>2022-05-01T09:21:25.826Z</time>
      </trkpt>
      <trkpt lat="42.51801730133593" lon="-8.729326855391264">
        <ele>136.9</ele>
        <time>2022-05-01T09:21:31.683Z</time>
      </trkpt>
      <trkpt lat="42.517849914729595" lon="-8.728676922619343">
        <ele>135.6</ele>
        <time>2022-05-01T09:21:39.703Z</time>
      </trkpt>
      <trkpt lat="42.51768780872226" lon="-8.728404259309173">
        <ele>136.7</ele>
        <time>2022-05-01T09:21:43.926Z</time>
      </trkpt>
      <trkpt lat="42.517657382413745" lon="-8.728144420310855">
        <ele>136.4</ele>
        <time>2022-05-01T09:21:47.246Z</time>
      </trkpt>
      <trkpt lat="42.51769962720573" lon="-8.72782314196229">
        <ele>134.9</ele>
        <time>2022-05-01T09:21:51.376Z</time>
      </trkpt>
      <trkpt lat="42.517837677150965" lon="-8.727476969361305">
        <ele>133.8</ele>
        <time>2022-05-01T09:21:56.378Z</time>
      </trkpt>
      <trkpt lat="42.517945719882846" lon="-8.727341936901212">
        <ele>133.7</ele>
        <time>2022-05-01T09:21:58.841Z</time>
      </trkpt>
      <trkpt lat="42.518400689587" lon="-8.72710682451725">
        <ele>128.4</ele>
        <time>2022-05-01T09:22:07.131Z</time>
      </trkpt>
      <trkpt lat="42.51839448697865" lon="-8.72686643153429">
        <ele>129.3</ele>
        <time>2022-05-01T09:22:10.085Z</time>
      </trkpt>
      <trkpt lat="42.51835157163441" lon="-8.726605419069529">
        <ele>128.8</ele>
        <time>2022-05-01T09:22:13.560Z</time>
      </trkpt>
      <trkpt lat="42.51828661188483" lon="-8.726402157917619">
        <ele>127.9</ele>
        <time>2022-05-01T09:22:16.372Z</time>
      </trkpt>
      <trkpt lat="42.51813121140003" lon="-8.726121531799436">
        <ele>127.6</ele>
        <time>2022-05-01T09:22:20.823Z</time>
      </trkpt>
      <trkpt lat="42.51800715923309" lon="-8.725844006985426">
        <ele>127.0</ele>
        <time>2022-05-01T09:22:25.135Z</time>
      </trkpt>
      <trkpt lat="42.517824936658144" lon="-8.725595064461231">
        <ele>126.9</ele>
        <time>2022-05-01T09:22:29.952Z</time>
      </trkpt>
      <trkpt lat="42.51774212345481" lon="-8.725253082811832">
        <ele>126.2</ele>
        <time>2022-05-01T09:22:35.273Z</time>
      </trkpt>
      <trkpt lat="42.517718402668834" lon="-8.725105226039886">
        <ele>126.4</ele>
        <time>2022-05-01T09:22:37.592Z</time>
      </trkpt>
      <trkpt lat="42.51758856698871" lon="-8.724938426166773">
        <ele>127.0</ele>
        <time>2022-05-01T09:22:41.537Z</time>
      </trkpt>
      <trkpt lat="42.517545986920595" lon="-8.72478872537613">
        <ele>127.9</ele>
        <time>2022-05-01T09:22:44.235Z</time>
      </trkpt>
      <trkpt lat="42.51756585203111" lon="-8.724413886666298">
        <ele>131.8</ele>
        <time>2022-05-01T09:22:50.744Z</time>
      </trkpt>
      <trkpt lat="42.51760893501341" lon="-8.724075593054295">
        <ele>134.2</ele>
        <time>2022-05-01T09:22:56.786Z</time>
      </trkpt>
      <trkpt lat="42.51767758280039" lon="-8.723732521757483">
        <ele>134.3</ele>
        <time>2022-05-01T09:23:03.316Z</time>
      </trkpt>
      <trkpt lat="42.5177045725286" lon="-8.723221393302083">
        <ele>131.5</ele>
        <time>2022-05-01T09:23:12.960Z</time>
      </trkpt>
      <trkpt lat="42.517645228654146" lon="-8.722555115818977">
        <ele>130.0</ele>
        <time>2022-05-01T09:23:25.647Z</time>
      </trkpt>
      <trkpt lat="42.517819069325924" lon="-8.722333498299122">
        <ele>130.2</ele>
        <time>2022-05-01T09:23:31.564Z</time>
      </trkpt>
      <trkpt lat="42.51826942898333" lon="-8.721735281869769">
        <ele>134.3</ele>
        <time>2022-05-01T09:23:47.424Z</time>
      </trkpt>
      <trkpt lat="42.51856145448983" lon="-8.72132339514792">
        <ele>134.3</ele>
        <time>2022-05-01T09:23:58.403Z</time>
      </trkpt>
      <trkpt lat="42.51869397237897" lon="-8.721135975793004">
        <ele>133.7</ele>
        <time>2022-05-01T09:24:03.398Z</time>
      </trkpt>
      <trkpt lat="42.51958999782801" lon="-8.7201380264014">
        <ele>146.9</ele>
        <time>2022-05-01T09:24:36.299Z</time>
      </trkpt>
      <trkpt lat="42.52036398276687" lon="-8.719736030325294">
        <ele>140.6</ele>
        <time>2022-05-01T09:24:59.546Z</time>
      </trkpt>
      <trkpt lat="42.52135002985597" lon="-8.71921299956739">
        <ele>134.4</ele>
        <time>2022-05-01T09:25:21.031Z</time>
      </trkpt>
      <trkpt lat="42.52204103395343" lon="-8.719044020399451">
        <ele>121.7</ele>
        <time>2022-05-01T09:25:35.786Z</time>
      </trkpt>
      <trkpt lat="42.52302196808159" lon="-8.71829099021852">
        <ele>104.0</ele>
        <time>2022-05-01T09:25:57.096Z</time>
      </trkpt>
      <trkpt lat="42.52267696894705" lon="-8.717128001153469">
        <ele>102.0</ele>
        <time>2022-05-01T09:26:13.218Z</time>
      </trkpt>
      <trkpt lat="42.5229300186038" lon="-8.716338006779552">
        <ele>92.2</ele>
        <time>2022-05-01T09:26:23.816Z</time>
      </trkpt>
      <trkpt lat="42.52369897440076" lon="-8.716251002624631">
        <ele>84.6</ele>
        <time>2022-05-01T09:26:35.571Z</time>
      </trkpt>
      <trkpt lat="42.523955963552" lon="-8.715619007125497">
        <ele>80.3</ele>
        <time>2022-05-01T09:26:42.953Z</time>
      </trkpt>
      <trkpt lat="42.52432099543512" lon="-8.715101005509496">
        <ele>75.3</ele>
        <time>2022-05-01T09:26:50.491Z</time>
      </trkpt>
      <trkpt lat="42.52526303753257" lon="-8.714348981156945">
        <ele>66.4</ele>
        <time>2022-05-01T09:27:04.651Z</time>
      </trkpt>
      <trkpt lat="42.52524895593524" lon="-8.714073384180665">
        <ele>65.1</ele>
        <time>2022-05-01T09:27:07.505Z</time>
      </trkpt>
      <trkpt lat="42.525384072214365" lon="-8.714074306190014">
        <ele>64.3</ele>
        <time>2022-05-01T09:27:09.542Z</time>
      </trkpt>
      <trkpt lat="42.52546017989516" lon="-8.714167345315218">
        <ele>64.2</ele>
        <time>2022-05-01T09:27:11.191Z</time>
      </trkpt>
      <trkpt lat="42.525572665035725" lon="-8.714765477925539">
        <ele>65.0</ele>
        <time>2022-05-01T09:27:18.957Z</time>
      </trkpt>
      <trkpt lat="42.52587147988379" lon="-8.715247185900807">
        <ele>64.5</ele>
        <time>2022-05-01T09:27:27.248Z</time>
      </trkpt>
      <trkpt lat="42.52593216486275" lon="-8.715461008250713">
        <ele>64.2</ele>
        <time>2022-05-01T09:27:30.283Z</time>
      </trkpt>
      <trkpt lat="42.525935266166925" lon="-8.716085124760866">
        <ele>63.5</ele>
        <time>2022-05-01T09:27:38.965Z</time>
      </trkpt>
      <trkpt lat="42.526028640568256" lon="-8.71636332012713">
        <ele>62.7</ele>
        <time>2022-05-01T09:27:43.426Z</time>
      </trkpt>
      <trkpt lat="42.52631722949445" lon="-8.71652601286769">
        <ele>63.2</ele>
        <time>2022-05-01T09:27:49.868Z</time>
      </trkpt>
      <trkpt lat="42.526520658284426" lon="-8.716766070574522">
        <ele>65.6</ele>
        <time>2022-05-01T09:27:55.621Z</time>
      </trkpt>
      <trkpt lat="42.526592994108796" lon="-8.71693211607635">
        <ele>66.5</ele>
        <time>2022-05-01T09:27:58.760Z</time>
      </trkpt>
      <trkpt lat="42.52680413424969" lon="-8.717197319492698">
        <ele>67.0</ele>
        <time>2022-05-01T09:28:05.309Z</time>
      </trkpt>
      <trkpt lat="42.52711317501962" lon="-8.717313073575497">
        <ele>66.0</ele>
        <time>2022-05-01T09:28:12.795Z</time>
      </trkpt>
      <trkpt lat="42.5276289973408" lon="-8.717436706647277">
        <ele>65.6</ele>
        <time>2022-05-01T09:28:24.721Z</time>
      </trkpt>
      <trkpt lat="42.52826836891472" lon="-8.717609122395515">
        <ele>62.5</ele>
        <time>2022-05-01T09:28:39.460Z</time>
      </trkpt>
      <trkpt lat="42.52840147353709" lon="-8.717817831784487">
        <ele>62.4</ele>
        <time>2022-05-01T09:28:44.157Z</time>
      </trkpt>
      <trkpt lat="42.52864982932806" lon="-8.718477068468928">
        <ele>63.2</ele>
        <time>2022-05-01T09:28:55.925Z</time>
      </trkpt>
      <trkpt lat="42.5289395917207" lon="-8.71895793825388">
        <ele>61.8</ele>
        <time>2022-05-01T09:29:05.867Z</time>
      </trkpt>
      <trkpt lat="42.52920898608863" lon="-8.719314420595765">
        <ele>60.6</ele>
        <time>2022-05-01T09:29:14.259Z</time>
      </trkpt>
      <trkpt lat="42.52939799800515" lon="-8.718635654076934">
        <ele>57.3</ele>
        <time>2022-05-01T09:29:26.259Z</time>
      </trkpt>
      <trkpt lat="42.529466561973095" lon="-8.718189736828208">
        <ele>57.0</ele>
        <time>2022-05-01T09:29:33.962Z</time>
      </trkpt>
      <trkpt lat="42.52958499826491" lon="-8.717993348836899">
        <ele>57.3</ele>
        <time>2022-05-01T09:29:37.799Z</time>
      </trkpt>
      <trkpt lat="42.529786666855216" lon="-8.717927383258939">
        <ele>57.9</ele>
        <time>2022-05-01T09:29:42.201Z</time>
      </trkpt>
      <trkpt lat="42.53005430102348" lon="-8.71746419928968">
        <ele>59.3</ele>
        <time>2022-05-01T09:29:51.399Z</time>
      </trkpt>
      <trkpt lat="42.53008380532265" lon="-8.717075698077679">
        <ele>59.2</ele>
        <time>2022-05-01T09:29:57.103Z</time>
      </trkpt>
      <trkpt lat="42.530004512518644" lon="-8.71670094318688">
        <ele>56.9</ele>
        <time>2022-05-01T09:30:02.816Z</time>
      </trkpt>
      <trkpt lat="42.52980879507959" lon="-8.71631495654583">
        <ele>51.7</ele>
        <time>2022-05-01T09:30:09.414Z</time>
      </trkpt>
      <trkpt lat="42.52964434213936" lon="-8.716188808903098">
        <ele>50.9</ele>
        <time>2022-05-01T09:30:12.400Z</time>
      </trkpt>
      <trkpt lat="42.529650796204805" lon="-8.716067103669047">
        <ele>49.7</ele>
        <time>2022-05-01T09:30:13.911Z</time>
      </trkpt>
      <trkpt lat="42.52973159775138" lon="-8.71539001353085">
        <ele>42.4</ele>
        <time>2022-05-01T09:30:21.346Z</time>
      </trkpt>
      <trkpt lat="42.52964140847325" lon="-8.715050965547562">
        <ele>41.6</ele>
        <time>2022-05-01T09:30:25.400Z</time>
      </trkpt>
      <trkpt lat="42.529548201709986" lon="-8.71476648375392">
        <ele>41.5</ele>
        <time>2022-05-01T09:30:28.723Z</time>
      </trkpt>
      <trkpt lat="42.5294903665781" lon="-8.714606976136565">
        <ele>41.9</ele>
        <time>2022-05-01T09:30:30.757Z</time>
      </trkpt>
      <trkpt lat="42.52961383201182" lon="-8.71450463309884">
        <ele>41.7</ele>
        <time>2022-05-01T09:30:33.087Z</time>
      </trkpt>
      <trkpt lat="42.52977308817208" lon="-8.714406313374639">
        <ele>41.6</ele>
        <time>2022-05-01T09:30:36.079Z</time>
      </trkpt>
      <trkpt lat="42.529827151447535" lon="-8.714406313374639">
        <ele>41.5</ele>
        <time>2022-05-01T09:30:37.054Z</time>
      </trkpt>
      <trkpt lat="42.53049820661545" lon="-8.714635223150253">
        <ele>38.8</ele>
        <time>2022-05-01T09:30:49.877Z</time>
      </trkpt>
      <trkpt lat="42.53086969256401" lon="-8.714677216485143">
        <ele>36.8</ele>
        <time>2022-05-01T09:30:56.136Z</time>
      </trkpt>
      <trkpt lat="42.53147033974528" lon="-8.714505471289158">
        <ele>35.1</ele>
        <time>2022-05-01T09:31:06.521Z</time>
      </trkpt>
      <trkpt lat="42.531763119623065" lon="-8.71450798586011">
        <ele>34.3</ele>
        <time>2022-05-01T09:31:11.598Z</time>
      </trkpt>
      <trkpt lat="42.53211264498532" lon="-8.714320985600352">
        <ele>33.2</ele>
        <time>2022-05-01T09:31:18.421Z</time>
      </trkpt>
      <trkpt lat="42.532209204509854" lon="-8.714289050549269">
        <ele>33.1</ele>
        <time>2022-05-01T09:31:20.313Z</time>
      </trkpt>
      <trkpt lat="42.53264137543738" lon="-8.714331379160285">
        <ele>32.9</ele>
        <time>2022-05-01T09:31:28.795Z</time>
      </trkpt>
      <trkpt lat="42.532826364040375" lon="-8.714401284232736">
        <ele>32.9</ele>
        <time>2022-05-01T09:31:32.657Z</time>
      </trkpt>
      <trkpt lat="42.53286927938461" lon="-8.714436739683151">
        <ele>32.9</ele>
        <time>2022-05-01T09:31:33.704Z</time>
      </trkpt>
      <trkpt lat="42.53310170955956" lon="-8.714689537882805">
        <ele>32.3</ele>
        <time>2022-05-01T09:31:40.074Z</time>
      </trkpt>
      <trkpt lat="42.53319567069411" lon="-8.714700099080801">
        <ele>31.9</ele>
        <time>2022-05-01T09:31:42.147Z</time>
      </trkpt>
      <trkpt lat="42.53421591594815" lon="-8.714667661115527">
        <ele>27.8</ele>
        <time>2022-05-01T09:32:03.434Z</time>
      </trkpt>
      <trkpt lat="42.53487012349069" lon="-8.714582500979304">
        <ele>27.4</ele>
        <time>2022-05-01T09:32:17.845Z</time>
      </trkpt>
      <trkpt lat="42.53498579375446" lon="-8.7145343888551">
        <ele>27.9</ele>
        <time>2022-05-01T09:32:20.786Z</time>
      </trkpt>
      <trkpt lat="42.53532542847097" lon="-8.714174386113882">
        <ele>30.8</ele>
        <time>2022-05-01T09:32:31.574Z</time>
      </trkpt>
      <trkpt lat="42.53543213009834" lon="-8.714125268161297">
        <ele>31.6</ele>
        <time>2022-05-01T09:32:34.575Z</time>
      </trkpt>
      <trkpt lat="42.53566296771169" lon="-8.714108504354954">
        <ele>33.5</ele>
        <time>2022-05-01T09:32:40.828Z</time>
      </trkpt>
      <trkpt lat="42.53570957109332" lon="-8.714083191007376">
        <ele>34.0</ele>
        <time>2022-05-01T09:32:42.357Z</time>
      </trkpt>
      <trkpt lat="42.535756258293986" lon="-8.713984368368983">
        <ele>34.6</ele>
        <time>2022-05-01T09:32:45.126Z</time>
      </trkpt>
      <trkpt lat="42.53594007343054" lon="-8.71334650553763">
        <ele>38.0</ele>
        <time>2022-05-01T09:33:01.301Z</time>
      </trkpt>
      <trkpt lat="42.53600159659982" lon="-8.71322488412261">
        <ele>38.3</ele>
        <time>2022-05-01T09:33:04.830Z</time>
      </trkpt>
      <trkpt lat="42.5361321028322" lon="-8.713080463930964">
        <ele>39.3</ele>
        <time>2022-05-01T09:33:10.295Z</time>
      </trkpt>
      <trkpt lat="42.53621382638812" lon="-8.712997902184725">
        <ele>39.9</ele>
        <time>2022-05-01T09:33:13.852Z</time>
      </trkpt>
      <trkpt lat="42.53628507256508" lon="-8.712791707366705">
        <ele>39.3</ele>
        <time>2022-05-01T09:33:19.595Z</time>
      </trkpt>
      <trkpt lat="42.53633016720414" lon="-8.712643766775727">
        <ele>39.0</ele>
        <time>2022-05-01T09:33:23.417Z</time>
      </trkpt>
      <trkpt lat="42.53633502870798" lon="-8.71256472542882">
        <ele>39.1</ele>
        <time>2022-05-01T09:33:25.247Z</time>
      </trkpt>
      <trkpt lat="42.53628951497376" lon="-8.712277980521321">
        <ele>38.9</ele>
        <time>2022-05-01T09:33:31.828Z</time>
      </trkpt>
      <trkpt lat="42.5362581666559" lon="-8.71205409988761">
        <ele>39.2</ele>
        <time>2022-05-01T09:33:36.841Z</time>
      </trkpt>
      <trkpt lat="42.536236541345716" lon="-8.71181907132268">
        <ele>39.8</ele>
        <time>2022-05-01T09:33:41.948Z</time>
      </trkpt>
      <trkpt lat="42.53625623881817" lon="-8.711717231199145">
        <ele>40.5</ele>
        <time>2022-05-01T09:33:44.146Z</time>
      </trkpt>
      <trkpt lat="42.535905288532376" lon="-8.711634669452906">
        <ele>38.4</ele>
        <time>2022-05-01T09:33:53.925Z</time>
      </trkpt>
      <trkpt lat="42.53515066578984" lon="-8.71166568249464">
        <ele>35.8</ele>
        <time>2022-05-01T09:34:12.967Z</time>
      </trkpt>
      <trkpt lat="42.53440677188337" lon="-8.711759811267257">
        <ele>32.9</ele>
        <time>2022-05-01T09:34:30.193Z</time>
      </trkpt>
      <trkpt lat="42.53423477523029" lon="-8.711770959198475">
        <ele>32.2</ele>
        <time>2022-05-01T09:34:33.948Z</time>
      </trkpt>
      <trkpt lat="42.533938977867365" lon="-8.71181714348495">
        <ele>31.1</ele>
        <time>2022-05-01T09:34:40.546Z</time>
      </trkpt>
      <trkpt lat="42.53373269923031" lon="-8.711799876764417">
        <ele>30.2</ele>
        <time>2022-05-01T09:34:45.237Z</time>
      </trkpt>
      <trkpt lat="42.533686850219965" lon="-8.711739610880613">
        <ele>30.1</ele>
        <time>2022-05-01T09:34:46.716Z</time>
      </trkpt>
      <trkpt lat="42.53361443057656" lon="-8.711523273959756">
        <ele>30.5</ele>
        <time>2022-05-01T09:34:50.847Z</time>
      </trkpt>
      <trkpt lat="42.53356891684234" lon="-8.711163103580475">
        <ele>30.4</ele>
        <time>2022-05-01T09:34:57.256Z</time>
      </trkpt>
      <trkpt lat="42.53354913555086" lon="-8.710897648707032">
        <ele>30.3</ele>
        <time>2022-05-01T09:35:01.948Z</time>
      </trkpt>
      <trkpt lat="42.533539831638336" lon="-8.710829252377152">
        <ele>30.3</ele>
        <time>2022-05-01T09:35:03.188Z</time>
      </trkpt>
      <trkpt lat="42.53358794376254" lon="-8.710706122219563">
        <ele>30.4</ele>
        <time>2022-05-01T09:35:05.703Z</time>
      </trkpt>
      <trkpt lat="42.53403117880225" lon="-8.71031510643661">
        <ele>31.5</ele>
        <time>2022-05-01T09:35:18.816Z</time>
      </trkpt>
      <trkpt lat="42.53433066420257" lon="-8.709987793117762">
        <ele>32.0</ele>
        <time>2022-05-01T09:35:28.817Z</time>
      </trkpt>
      <trkpt lat="42.5344895850867" lon="-8.709822166711092">
        <ele>32.4</ele>
        <time>2022-05-01T09:35:34.064Z</time>
      </trkpt>
      <trkpt lat="42.53475814126432" lon="-8.70955872349441">
        <ele>33.4</ele>
        <time>2022-05-01T09:35:42.825Z</time>
      </trkpt>
      <trkpt lat="42.53487749956548" lon="-8.70944975875318">
        <ele>33.7</ele>
        <time>2022-05-01T09:35:46.687Z</time>
      </trkpt>
      <trkpt lat="42.53511395305395" lon="-8.709415309131145">
        <ele>34.0</ele>
        <time>2022-05-01T09:35:53.134Z</time>
      </trkpt>
      <trkpt lat="42.535268012434244" lon="-8.709475575014949">
        <ele>34.9</ele>
        <time>2022-05-01T09:35:57.481Z</time>
      </trkpt>
      <trkpt lat="42.53550077788532" lon="-8.709648745134473">
        <ele>36.0</ele>
        <time>2022-05-01T09:36:04.660Z</time>
      </trkpt>
      <trkpt lat="42.53573429770768" lon="-8.70980984531343">
        <ele>36.9</ele>
        <time>2022-05-01T09:36:11.723Z</time>
      </trkpt>
      <trkpt lat="42.53577754832804" lon="-8.709692331030965">
        <ele>36.7</ele>
        <time>2022-05-01T09:36:14.345Z</time>
      </trkpt>
      <trkpt lat="42.53576036542654" lon="-8.70938429608941">
        <ele>36.2</ele>
        <time>2022-05-01T09:36:20.451Z</time>
      </trkpt>
      <trkpt lat="42.53573605790734" lon="-8.709044912829995">
        <ele>35.4</ele>
        <time>2022-05-01T09:36:27.172Z</time>
      </trkpt>
      <trkpt lat="42.53571703098714" lon="-8.708840729668736">
        <ele>34.9</ele>
        <time>2022-05-01T09:36:31.174Z</time>
      </trkpt>
      <trkpt lat="42.535735722631216" lon="-8.70861022733152">
        <ele>34.8</ele>
        <time>2022-05-01T09:36:35.633Z</time>
      </trkpt>
      <trkpt lat="42.53577930852771" lon="-8.708413168787956">
        <ele>34.7</ele>
        <time>2022-05-01T09:36:39.446Z</time>
      </trkpt>
      <trkpt lat="42.53588919527829" lon="-8.707823166623712">
        <ele>34.3</ele>
        <time>2022-05-01T09:36:50.575Z</time>
      </trkpt>
      <trkpt lat="42.535988772287965" lon="-8.707522256299853">
        <ele>33.9</ele>
        <time>2022-05-01T09:36:56.641Z</time>
      </trkpt>
      <trkpt lat="42.536127492785454" lon="-8.70724406093359">
        <ele>33.7</ele>
        <time>2022-05-01T09:37:02.804Z</time>
      </trkpt>
      <trkpt lat="42.53626059740782" lon="-8.707057144492865">
        <ele>33.7</ele>
        <time>2022-05-01T09:37:07.623Z</time>
      </trkpt>
      <trkpt lat="42.53652026876807" lon="-8.706866120919585">
        <ele>34.2</ele>
        <time>2022-05-01T09:37:15.115Z</time>
      </trkpt>
      <trkpt lat="42.53672428429127" lon="-8.7068463396281">
        <ele>34.5</ele>
        <time>2022-05-01T09:37:20.331Z</time>
      </trkpt>
      <trkpt lat="42.53700440749526" lon="-8.706774841994047">
        <ele>35.4</ele>
        <time>2022-05-01T09:37:27.707Z</time>
      </trkpt>
      <trkpt lat="42.53735133446753" lon="-8.706703931093216">
        <ele>35.9</ele>
        <time>2022-05-01T09:37:36.900Z</time>
      </trkpt>
      <trkpt lat="42.537727346643806" lon="-8.706599492579699">
        <ele>36.7</ele>
        <time>2022-05-01T09:37:47.078Z</time>
      </trkpt>
      <trkpt lat="42.53801191225648" lon="-8.706441912800074">
        <ele>36.9</ele>
        <time>2022-05-01T09:37:55.233Z</time>
      </trkpt>
      <trkpt lat="42.538209641352296" lon="-8.706378545612097">
        <ele>37.0</ele>
        <time>2022-05-01T09:38:00.617Z</time>
      </trkpt>
      <trkpt lat="42.538382643833756" lon="-8.706275699660182">
        <ele>37.2</ele>
        <time>2022-05-01T09:38:05.624Z</time>
      </trkpt>
      <trkpt lat="42.53835204988718" lon="-8.705966155976057">
        <ele>36.8</ele>
        <time>2022-05-01T09:38:11.721Z</time>
      </trkpt>
      <trkpt lat="42.538289772346616" lon="-8.705659210681915">
        <ele>37.4</ele>
        <time>2022-05-01T09:38:17.939Z</time>
      </trkpt>
      <trkpt lat="42.53821659833193" lon="-8.70530809275806">
        <ele>37.5</ele>
        <time>2022-05-01T09:38:25.074Z</time>
      </trkpt>
      <trkpt lat="42.53813604824245" lon="-8.70500517077744">
        <ele>38.0</ele>
        <time>2022-05-01T09:38:31.541Z</time>
      </trkpt>
      <trkpt lat="42.53801551647484" lon="-8.704765113070607">
        <ele>38.8</ele>
        <time>2022-05-01T09:38:37.421Z</time>
      </trkpt>
      <trkpt lat="42.53785701468587" lon="-8.704557409510016">
        <ele>39.1</ele>
        <time>2022-05-01T09:38:43.446Z</time>
      </trkpt>
      <trkpt lat="42.53765182569623" lon="-8.704301593825221">
        <ele>39.6</ele>
        <time>2022-05-01T09:38:51.107Z</time>
      </trkpt>
      <trkpt lat="42.53757798112929" lon="-8.704183073714375">
        <ele>39.7</ele>
        <time>2022-05-01T09:38:54.230Z</time>
      </trkpt>
      <trkpt lat="42.537550404667854" lon="-8.704118700698018">
        <ele>39.7</ele>
        <time>2022-05-01T09:38:55.719Z</time>
      </trkpt>
      <trkpt lat="42.53783756867051" lon="-8.703698180615902">
        <ele>41.3</ele>
        <time>2022-05-01T09:39:07.400Z</time>
      </trkpt>
      <trkpt lat="42.53809011541307" lon="-8.703328873962164">
        <ele>42.4</ele>
        <time>2022-05-01T09:39:17.904Z</time>
      </trkpt>
      <trkpt lat="42.5382818095386" lon="-8.703068951144814">
        <ele>44.5</ele>
        <time>2022-05-01T09:39:26.252Z</time>
      </trkpt>
      <trkpt lat="42.53837493248284" lon="-8.702953280881047">
        <ele>45.5</ele>
        <time>2022-05-01T09:39:30.043Z</time>
      </trkpt>
      <trkpt lat="42.53888430073857" lon="-8.70319870300591">
        <ele>48.0</ele>
        <time>2022-05-01T09:39:46.398Z</time>
      </trkpt>
      <trkpt lat="42.53901497460902" lon="-8.703146986663342">
        <ele>48.5</ele>
        <time>2022-05-01T09:39:51.051Z</time>
      </trkpt>
      <trkpt lat="42.539284033700824" lon="-8.702709032222629">
        <ele>52.6</ele>
        <time>2022-05-01T09:40:06.280Z</time>
      </trkpt>
      <trkpt lat="42.53914799541235" lon="-8.70202699676156">
        <ele>55.0</ele>
        <time>2022-05-01T09:40:26.054Z</time>
      </trkpt>
      <trkpt lat="42.5391039904207" lon="-8.701582001522183">
        <ele>58.1</ele>
        <time>2022-05-01T09:40:38.529Z</time>
      </trkpt>
      <trkpt lat="42.53959399648011" lon="-8.70133699849248">
        <ele>62.2</ele>
        <time>2022-05-01T09:40:57.402Z</time>
      </trkpt>
      <trkpt lat="42.53982290625572" lon="-8.701527267694473">
        <ele>62.3</ele>
        <time>2022-05-01T09:41:07.190Z</time>
      </trkpt>
      <trkpt lat="42.54046923480928" lon="-8.70215498842299">
        <ele>63.1</ele>
        <time>2022-05-01T09:41:38.081Z</time>
      </trkpt>
      <trkpt lat="42.54057727754116" lon="-8.702157251536846">
        <ele>64.2</ele>
        <time>2022-05-01T09:41:41.999Z</time>
      </trkpt>
      <trkpt lat="42.54082588478923" lon="-8.702014340087771">
        <ele>67.3</ele>
        <time>2022-05-01T09:41:51.510Z</time>
      </trkpt>
      <trkpt lat="42.540979608893394" lon="-8.701850809156895">
        <ele>69.2</ele>
        <time>2022-05-01T09:41:58.058Z</time>
      </trkpt>
      <trkpt lat="42.54106778651476" lon="-8.701656935736537">
        <ele>71.8</ele>
        <time>2022-05-01T09:42:03.463Z</time>
      </trkpt>
      <trkpt lat="42.54082890227437" lon="-8.701328448951244">
        <ele>74.1</ele>
        <time>2022-05-01T09:42:14.308Z</time>
      </trkpt>
      <trkpt lat="42.540680123493075" lon="-8.700973056256771">
        <ele>72.1</ele>
        <time>2022-05-01T09:42:23.740Z</time>
      </trkpt>
      <trkpt lat="42.54056369885802" lon="-8.700552368536592">
        <ele>72.2</ele>
        <time>2022-05-01T09:42:35.339Z</time>
      </trkpt>
      <trkpt lat="42.54053117707372" lon="-8.700219355523586">
        <ele>74.6</ele>
        <time>2022-05-01T09:42:43.715Z</time>
      </trkpt>
      <trkpt lat="42.540551545098424" lon="-8.699889024719596">
        <ele>76.5</ele>
        <time>2022-05-01T09:42:51.658Z</time>
      </trkpt>
      <trkpt lat="42.540607368573546" lon="-8.699581325054169">
        <ele>77.5</ele>
        <time>2022-05-01T09:42:59.129Z</time>
      </trkpt>
      <trkpt lat="42.540670819580555" lon="-8.699448639526963">
        <ele>78.0</ele>
        <time>2022-05-01T09:43:03.279Z</time>
      </trkpt>
      <trkpt lat="42.54083485342562" lon="-8.699289383366704">
        <ele>79.3</ele>
        <time>2022-05-01T09:43:10.468Z</time>
      </trkpt>
      <trkpt lat="42.54148654639721" lon="-8.699300615116954">
        <ele>86.9</ele>
        <time>2022-05-01T09:43:36.429Z</time>
      </trkpt>
      <trkpt lat="42.541885608807206" lon="-8.699147310107946">
        <ele>91.7</ele>
        <time>2022-05-01T09:43:55.019Z</time>
      </trkpt>
      <trkpt lat="42.54211803898215" lon="-8.698982438072562">
        <ele>95.3</ele>
        <time>2022-05-01T09:44:05.652Z</time>
      </trkpt>
      <trkpt lat="42.542274529114366" lon="-8.69881228543818">
        <ele>98.6</ele>
        <time>2022-05-01T09:44:14.598Z</time>
      </trkpt>
      <trkpt lat="42.54259672947228" lon="-8.69864808395505">
        <ele>104.7</ele>
        <time>2022-05-01T09:44:29.965Z</time>
      </trkpt>
      <trkpt lat="42.542988331988454" lon="-8.698330912739038">
        <ele>111.5</ele>
        <time>2022-05-01T09:44:52.554Z</time>
      </trkpt>
      <trkpt lat="42.543506836518645" lon="-8.697591293603182">
        <ele>114.9</ele>
        <time>2022-05-01T09:45:29.483Z</time>
      </trkpt>
      <trkpt lat="42.54379550926387" lon="-8.697354923933744">
        <ele>113.6</ele>
        <time>2022-05-01T09:45:44.199Z</time>
      </trkpt>
      <trkpt lat="42.54420739598572" lon="-8.69714948348701">
        <ele>110.4</ele>
        <time>2022-05-01T09:46:00.008Z</time>
      </trkpt>
      <trkpt lat="42.54461140371859" lon="-8.696803394705057">
        <ele>108.3</ele>
        <time>2022-05-01T09:46:14.854Z</time>
      </trkpt>
      <trkpt lat="42.544791363179684" lon="-8.696522433310747">
        <ele>109.5</ele>
        <time>2022-05-01T09:46:23.903Z</time>
      </trkpt>
      <trkpt lat="42.54550935700536" lon="-8.69599244557321">
        <ele>117.6</ele>
        <time>2022-05-01T09:46:52.005Z</time>
      </trkpt>
      <trkpt lat="42.54577472805977" lon="-8.695624228566885">
        <ele>119.6</ele>
        <time>2022-05-01T09:47:06.050Z</time>
      </trkpt>
      <trkpt lat="42.546117547899485" lon="-8.69525265879929">
        <ele>120.7</ele>
        <time>2022-05-01T09:47:22.892Z</time>
      </trkpt>
      <trkpt lat="42.546326676383615" lon="-8.694898188114166">
        <ele>123.9</ele>
        <time>2022-05-01T09:47:35.350Z</time>
      </trkpt>
      <trkpt lat="42.54647159948945" lon="-8.694740775972605">
        <ele>127.8</ele>
        <time>2022-05-01T09:47:42.493Z</time>
      </trkpt>
      <trkpt lat="42.546721966937184" lon="-8.694548159837723">
        <ele>131.9</ele>
        <time>2022-05-01T09:47:54.146Z</time>
      </trkpt>
      <trkpt lat="42.54718506708741" lon="-8.693989757448435">
        <ele>138.3</ele>
        <time>2022-05-01T09:48:22.380Z</time>
      </trkpt>
      <trkpt lat="42.54774833098054" lon="-8.693185932934284">
        <ele>147.7</ele>
        <time>2022-05-01T09:49:01.792Z</time>
      </trkpt>
      <trkpt lat="42.54784514196217" lon="-8.693136228248477">
        <ele>148.2</ele>
        <time>2022-05-01T09:49:07.479Z</time>
      </trkpt>
      <trkpt lat="42.54824101924896" lon="-8.69309239089489">
        <ele>150.9</ele>
        <time>2022-05-01T09:49:27.780Z</time>
      </trkpt>
      <trkpt lat="42.54846372641623" lon="-8.693031454458833">
        <ele>153.3</ele>
        <time>2022-05-01T09:49:37.953Z</time>
      </trkpt>
      <trkpt lat="42.54879338666797" lon="-8.692864319309592">
        <ele>159.7</ele>
        <time>2022-05-01T09:49:55.703Z</time>
      </trkpt>
      <trkpt lat="42.549426136538386" lon="-8.692609760910273">
        <ele>170.2</ele>
        <time>2022-05-01T09:50:30.353Z</time>
      </trkpt>
      <trkpt lat="42.549717826768756" lon="-8.692454863339663">
        <ele>165.1</ele>
        <time>2022-05-01T09:50:45.279Z</time>
      </trkpt>
      <trkpt lat="42.550479490309954" lon="-8.692344892770052">
        <ele>162.9</ele>
        <time>2022-05-01T09:51:19.516Z</time>
      </trkpt>
      <trkpt lat="42.550733126699924" lon="-8.69221773929894">
        <ele>170.3</ele>
        <time>2022-05-01T09:51:30.936Z</time>
      </trkpt>
      <trkpt lat="42.550885593518615" lon="-8.69220701046288">
        <ele>171.2</ele>
        <time>2022-05-01T09:51:36.847Z</time>
      </trkpt>
      <trkpt lat="42.55101107060909" lon="-8.692129142582417">
        <ele>172.3</ele>
        <time>2022-05-01T09:51:41.836Z</time>
      </trkpt>
      <trkpt lat="42.55118625238538" lon="-8.691873326897621">
        <ele>172.8</ele>
        <time>2022-05-01T09:51:50.646Z</time>
      </trkpt>
      <trkpt lat="42.55133343860507" lon="-8.691727984696627">
        <ele>171.1</ele>
        <time>2022-05-01T09:51:57.236Z</time>
      </trkpt>
      <trkpt lat="42.55226952955127" lon="-8.691302016377449">
        <ele>157.4</ele>
        <time>2022-05-01T09:52:20.623Z</time>
      </trkpt>
      <trkpt lat="42.55262441933155" lon="-8.691091043874621">
        <ele>158.2</ele>
        <time>2022-05-01T09:52:30.033Z</time>
      </trkpt>
      <trkpt lat="42.5529017765075" lon="-8.690996747463942">
        <ele>158.4</ele>
        <time>2022-05-01T09:52:37.364Z</time>
      </trkpt>
      <trkpt lat="42.55307679064572" lon="-8.69087546132505">
        <ele>159.5</ele>
        <time>2022-05-01T09:52:42.421Z</time>
      </trkpt>
      <trkpt lat="42.55339052528143" lon="-8.690528282895684">
        <ele>162.6</ele>
        <time>2022-05-01T09:52:52.995Z</time>
      </trkpt>
      <trkpt lat="42.55349018611014" lon="-8.690478159114718">
        <ele>164.0</ele>
        <time>2022-05-01T09:52:55.910Z</time>
      </trkpt>
      <trkpt lat="42.55365095101297" lon="-8.690526271238923">
        <ele>164.6</ele>
        <time>2022-05-01T09:53:00.670Z</time>
      </trkpt>
      <trkpt lat="42.55406401120126" lon="-8.690419821068645">
        <ele>163.8</ele>
        <time>2022-05-01T09:53:14.185Z</time>
      </trkpt>
      <trkpt lat="42.55443717353046" lon="-8.690271377563477">
        <ele>169.0</ele>
        <time>2022-05-01T09:53:27.799Z</time>
      </trkpt>
      <trkpt lat="42.554603051394224" lon="-8.690154869109392">
        <ele>173.8</ele>
        <time>2022-05-01T09:53:34.702Z</time>
      </trkpt>
      <trkpt lat="42.554798014461994" lon="-8.690121760591865">
        <ele>179.0</ele>
        <time>2022-05-01T09:53:42.723Z</time>
      </trkpt>
      <trkpt lat="42.5549391657114" lon="-8.689994271844625">
        <ele>182.1</ele>
        <time>2022-05-01T09:53:50.396Z</time>
      </trkpt>
      <trkpt lat="42.55560695193708" lon="-8.689786065369844">
        <ele>188.9</ele>
        <time>2022-05-01T09:54:22.644Z</time>
      </trkpt>
      <trkpt lat="42.55585907958448" lon="-8.689626641571522">
        <ele>187.2</ele>
        <time>2022-05-01T09:54:36.385Z</time>
      </trkpt>
      <trkpt lat="42.55622545257211" lon="-8.689452968537807">
        <ele>186.1</ele>
        <time>2022-05-01T09:54:50.140Z</time>
      </trkpt>
      <trkpt lat="42.556730629876256" lon="-8.689056755974889">
        <ele>186.5</ele>
        <time>2022-05-01T09:55:08.369Z</time>
      </trkpt>
      <trkpt lat="42.556784357875586" lon="-8.688956843689084">
        <ele>186.0</ele>
        <time>2022-05-01T09:55:11.137Z</time>
      </trkpt>
      <trkpt lat="42.556779496371746" lon="-8.688672948628664">
        <ele>183.7</ele>
        <time>2022-05-01T09:55:16.575Z</time>
      </trkpt>
      <trkpt lat="42.556601129472256" lon="-8.688518889248371">
        <ele>181.2</ele>
        <time>2022-05-01T09:55:22.081Z</time>
      </trkpt>
      <trkpt lat="42.5565624050796" lon="-8.68843817152083">
        <ele>179.9</ele>
        <time>2022-05-01T09:55:23.548Z</time>
      </trkpt>
      <trkpt lat="42.5566160492599" lon="-8.687988314777613">
        <ele>177.4</ele>
        <time>2022-05-01T09:55:29.791Z</time>
      </trkpt>
      <trkpt lat="42.5565798394382" lon="-8.687610877677798">
        <ele>173.0</ele>
        <time>2022-05-01T09:55:34.280Z</time>
      </trkpt>
      <trkpt lat="42.55660029128194" lon="-8.687279038131237">
        <ele>169.7</ele>
        <time>2022-05-01T09:55:37.719Z</time>
      </trkpt>
      <trkpt lat="42.55672828294337" lon="-8.687104862183332">
        <ele>170.8</ele>
        <time>2022-05-01T09:55:40.212Z</time>
      </trkpt>
      <trkpt lat="42.55674881860614" lon="-8.686945606023073">
        <ele>169.7</ele>
        <time>2022-05-01T09:55:41.686Z</time>
      </trkpt>
      <trkpt lat="42.55668235011399" lon="-8.686741003766656">
        <ele>166.9</ele>
        <time>2022-05-01T09:55:43.587Z</time>
      </trkpt>
      <trkpt lat="42.556375823915005" lon="-8.686133986338973">
        <ele>158.0</ele>
        <time>2022-05-01T09:55:50.305Z</time>
      </trkpt>
      <trkpt lat="42.55631254054606" lon="-8.685932233929634">
        <ele>155.3</ele>
        <time>2022-05-01T09:55:52.161Z</time>
      </trkpt>
      <trkpt lat="42.55637456662953" lon="-8.685618750751019">
        <ele>155.4</ele>
        <time>2022-05-01T09:55:54.763Z</time>
      </trkpt>
      <trkpt lat="42.55672685801983" lon="-8.684730771929026">
        <ele>149.7</ele>
        <time>2022-05-01T09:56:02.450Z</time>
      </trkpt>
      <trkpt lat="42.556735491380095" lon="-8.684462048113346">
        <ele>147.4</ele>
        <time>2022-05-01T09:56:04.576Z</time>
      </trkpt>
      <trkpt lat="42.55670053884387" lon="-8.684220062568784">
        <ele>146.1</ele>
        <time>2022-05-01T09:56:06.714Z</time>
      </trkpt>
      <trkpt lat="42.556742783635855" lon="-8.684082431718707">
        <ele>144.2</ele>
        <time>2022-05-01T09:56:08.124Z</time>
      </trkpt>
      <trkpt lat="42.55683406256139" lon="-8.684131801128387">
        <ele>143.2</ele>
        <time>2022-05-01T09:56:09.312Z</time>
      </trkpt>
      <trkpt lat="42.55692819133401" lon="-8.684285776689649">
        <ele>142.9</ele>
        <time>2022-05-01T09:56:11.251Z</time>
      </trkpt>
      <trkpt lat="42.55703086964786" lon="-8.68430103175342">
        <ele>141.7</ele>
        <time>2022-05-01T09:56:12.720Z</time>
      </trkpt>
      <trkpt lat="42.5573967397213" lon="-8.684012778103352">
        <ele>136.4</ele>
        <time>2022-05-01T09:56:18.910Z</time>
      </trkpt>
      <trkpt lat="42.55764911882579" lon="-8.68387682363391">
        <ele>134.4</ele>
        <time>2022-05-01T09:56:22.490Z</time>
      </trkpt>
      <trkpt lat="42.5579821318388" lon="-8.683827789500356">
        <ele>133.8</ele>
        <time>2022-05-01T09:56:26.655Z</time>
      </trkpt>
      <trkpt lat="42.558135855942965" lon="-8.683879422023892">
        <ele>133.2</ele>
        <time>2022-05-01T09:56:28.792Z</time>
      </trkpt>
      <trkpt lat="42.55836736410856" lon="-8.684169016778469">
        <ele>132.2</ele>
        <time>2022-05-01T09:56:33.306Z</time>
      </trkpt>
      <trkpt lat="42.558482280001044" lon="-8.68416951969266">
        <ele>131.3</ele>
        <time>2022-05-01T09:56:35.074Z</time>
      </trkpt>
      <trkpt lat="42.558818561956286" lon="-8.68402442894876">
        <ele>130.5</ele>
        <time>2022-05-01T09:56:40.828Z</time>
      </trkpt>
      <trkpt lat="42.55947360768914" lon="-8.68353727273643">
        <ele>133.0</ele>
        <time>2022-05-01T09:56:53.754Z</time>
      </trkpt>
      <trkpt lat="42.55965046584606" lon="-8.683466948568821">
        <ele>133.4</ele>
        <time>2022-05-01T09:56:57.188Z</time>
      </trkpt>
      <trkpt lat="42.559966212138534" lon="-8.683431576937437">
        <ele>133.7</ele>
        <time>2022-05-01T09:57:03.362Z</time>
      </trkpt>
      <trkpt lat="42.56012479774654" lon="-8.683341052383184">
        <ele>133.4</ele>
        <time>2022-05-01T09:57:06.850Z</time>
      </trkpt>
      <trkpt lat="42.56035974249244" lon="-8.682986497879028">
        <ele>134.1</ele>
        <time>2022-05-01T09:57:14.273Z</time>
      </trkpt>
      <trkpt lat="42.56070767529309" lon="-8.681971281766891">
        <ele>136.2</ele>
        <time>2022-05-01T09:57:32.157Z</time>
      </trkpt>
      <trkpt lat="42.56081538274884" lon="-8.681410951539874">
        <ele>134.4</ele>
        <time>2022-05-01T09:57:41.466Z</time>
      </trkpt>
      <trkpt lat="42.56078202277422" lon="-8.680973248556256">
        <ele>132.4</ele>
        <time>2022-05-01T09:57:48.646Z</time>
      </trkpt>
      <trkpt lat="42.56081479601562" lon="-8.680802006274462">
        <ele>132.2</ele>
        <time>2022-05-01T09:57:51.603Z</time>
      </trkpt>
      <trkpt lat="42.56088604219258" lon="-8.680659849196672">
        <ele>132.1</ele>
        <time>2022-05-01T09:57:54.225Z</time>
      </trkpt>
      <trkpt lat="42.561027109622955" lon="-8.680528672412038">
        <ele>132.0</ele>
        <time>2022-05-01T09:57:57.882Z</time>
      </trkpt>
      <trkpt lat="42.56135911680758" lon="-8.680348712950945">
        <ele>131.3</ele>
        <time>2022-05-01T09:58:05.373Z</time>
      </trkpt>
      <trkpt lat="42.561704870313406" lon="-8.68037193082273">
        <ele>130.6</ele>
        <time>2022-05-01T09:58:12.730Z</time>
      </trkpt>
      <trkpt lat="42.56199044175446" lon="-8.680264307186007">
        <ele>128.9</ele>
        <time>2022-05-01T09:58:18.870Z</time>
      </trkpt>
      <trkpt lat="42.56211114116013" lon="-8.680170262232423">
        <ele>128.1</ele>
        <time>2022-05-01T09:58:21.847Z</time>
      </trkpt>
      <trkpt lat="42.56259888410568" lon="-8.679539524018764">
        <ele>128.1</ele>
        <time>2022-05-01T09:58:36.163Z</time>
      </trkpt>
      <trkpt lat="42.5629588868469" lon="-8.679178934544325">
        <ele>126.8</ele>
        <time>2022-05-01T09:58:45.807Z</time>
      </trkpt>
      <trkpt lat="42.56322283297777" lon="-8.678999226540327">
        <ele>126.6</ele>
        <time>2022-05-01T09:58:52.158Z</time>
      </trkpt>
      <trkpt lat="42.5639639608562" lon="-8.678597984835505">
        <ele>124.7</ele>
        <time>2022-05-01T09:59:09.233Z</time>
      </trkpt>
      <trkpt lat="42.564359586685896" lon="-8.678332027047873">
        <ele>122.7</ele>
        <time>2022-05-01T09:59:18.024Z</time>
      </trkpt>
      <trkpt lat="42.56499451585114" lon="-8.677830453962088">
        <ele>118.8</ele>
        <time>2022-05-01T09:59:32.872Z</time>
      </trkpt>
      <trkpt lat="42.565938737243414" lon="-8.677241960540414">
        <ele>113.7</ele>
        <time>2022-05-01T09:59:51.988Z</time>
      </trkpt>
      <trkpt lat="42.566196648404" lon="-8.67704682983458">
        <ele>112.8</ele>
        <time>2022-05-01T09:59:57.621Z</time>
      </trkpt>
      <trkpt lat="42.56638473831117" lon="-8.67677559144795">
        <ele>112.5</ele>
        <time>2022-05-01T10:00:03.081Z</time>
      </trkpt>
      <trkpt lat="42.5667061842978" lon="-8.676195899024606">
        <ele>112.0</ele>
        <time>2022-05-01T10:00:14.041Z</time>
      </trkpt>
      <trkpt lat="42.56769139319658" lon="-8.674126071855426">
        <ele>112.0</ele>
        <time>2022-05-01T10:00:52.542Z</time>
      </trkpt>
      <trkpt lat="42.56803094409406" lon="-8.673314033076167">
        <ele>113.5</ele>
        <time>2022-05-01T10:01:07.544Z</time>
      </trkpt>
      <trkpt lat="42.56832799874246" lon="-8.672725455835462">
        <ele>113.4</ele>
        <time>2022-05-01T10:01:18.866Z</time>
      </trkpt>
      <trkpt lat="42.56855917163193" lon="-8.672410296276212">
        <ele>111.8</ele>
        <time>2022-05-01T10:01:25.825Z</time>
      </trkpt>
      <trkpt lat="42.56875857710838" lon="-8.672315832227468">
        <ele>110.5</ele>
        <time>2022-05-01T10:01:30.249Z</time>
      </trkpt>
      <trkpt lat="42.56907130591571" lon="-8.6723124794662">
        <ele>107.2</ele>
        <time>2022-05-01T10:01:36.784Z</time>
      </trkpt>
      <trkpt lat="42.56922796368599" lon="-8.672223128378391">
        <ele>105.6</ele>
        <time>2022-05-01T10:01:39.873Z</time>
      </trkpt>
      <trkpt lat="42.569639598950744" lon="-8.671540757641196">
        <ele>105.1</ele>
        <time>2022-05-01T10:01:51.557Z</time>
      </trkpt>
      <trkpt lat="42.5697954185307" lon="-8.67138946428895">
        <ele>104.2</ele>
        <time>2022-05-01T10:01:55.053Z</time>
      </trkpt>
      <trkpt lat="42.569958195090294" lon="-8.671299442648888">
        <ele>103.0</ele>
        <time>2022-05-01T10:01:58.327Z</time>
      </trkpt>
      <trkpt lat="42.57019020617008" lon="-8.671313524246216">
        <ele>102.4</ele>
        <time>2022-05-01T10:02:02.785Z</time>
      </trkpt>
      <trkpt lat="42.570878863334656" lon="-8.671686770394444">
        <ele>102.2</ele>
        <time>2022-05-01T10:02:15.526Z</time>
      </trkpt>
      <trkpt lat="42.57107307203114" lon="-8.671763213351369">
        <ele>100.0</ele>
        <time>2022-05-01T10:02:18.884Z</time>
      </trkpt>
      <trkpt lat="42.57119670510292" lon="-8.671775283291936">
        <ele>97.7</ele>
        <time>2022-05-01T10:02:21.063Z</time>
      </trkpt>
      <trkpt lat="42.571249175816774" lon="-8.671747874468565">
        <ele>96.1</ele>
        <time>2022-05-01T10:02:22.102Z</time>
      </trkpt>
      <trkpt lat="42.57131723687053" lon="-8.671641256660223">
        <ele>93.2</ele>
        <time>2022-05-01T10:02:24.113Z</time>
      </trkpt>
      <trkpt lat="42.57154120132327" lon="-8.671088889241219">
        <ele>91.5</ele>
        <time>2022-05-01T10:02:33.412Z</time>
      </trkpt>
      <trkpt lat="42.571623511612415" lon="-8.671102887019515">
        <ele>92.2</ele>
        <time>2022-05-01T10:02:35.147Z</time>
      </trkpt>
      <trkpt lat="42.57168176583946" lon="-8.671068688854575">
        <ele>92.5</ele>
        <time>2022-05-01T10:02:36.265Z</time>
      </trkpt>
      <trkpt lat="42.5719453766942" lon="-8.670692760497332">
        <ele>93.2</ele>
        <time>2022-05-01T10:02:43.227Z</time>
      </trkpt>
      <trkpt lat="42.57220714353025" lon="-8.670490505173802">
        <ele>95.3</ele>
        <time>2022-05-01T10:02:48.977Z</time>
      </trkpt>
      <trkpt lat="42.57236707024276" lon="-8.670443315058947">
        <ele>97.2</ele>
        <time>2022-05-01T10:02:52.279Z</time>
      </trkpt>
      <trkpt lat="42.57265029475093" lon="-8.670290261507034">
        <ele>97.9</ele>
        <time>2022-05-01T10:02:58.918Z</time>
      </trkpt>
      <trkpt lat="42.573197549209" lon="-8.669922463595867">
        <ele>98.3</ele>
        <time>2022-05-01T10:03:13.303Z</time>
      </trkpt>
      <trkpt lat="42.57374396547675" lon="-8.669912656769156">
        <ele>104.5</ele>
        <time>2022-05-01T10:03:26.132Z</time>
      </trkpt>
      <trkpt lat="42.574164317920804" lon="-8.669779133051634">
        <ele>100.8</ele>
        <time>2022-05-01T10:03:35.246Z</time>
      </trkpt>
      <trkpt lat="42.574463384225965" lon="-8.66978575475514">
        <ele>94.4</ele>
        <time>2022-05-01T10:03:40.297Z</time>
      </trkpt>
      <trkpt lat="42.57466346025467" lon="-8.669570088386536">
        <ele>87.1</ele>
        <time>2022-05-01T10:03:44.059Z</time>
      </trkpt>
      <trkpt lat="42.57493905723095" lon="-8.66880607791245">
        <ele>75.9</ele>
        <time>2022-05-01T10:03:52.895Z</time>
      </trkpt>
      <trkpt lat="42.57500762119889" lon="-8.668240886181593">
        <ele>69.2</ele>
        <time>2022-05-01T10:03:58.860Z</time>
      </trkpt>
      <trkpt lat="42.57499823346734" lon="-8.668051371350884">
        <ele>67.4</ele>
        <time>2022-05-01T10:04:00.630Z</time>
      </trkpt>
      <trkpt lat="42.5749397277832" lon="-8.667832352221012">
        <ele>65.4</ele>
        <time>2022-05-01T10:04:02.744Z</time>
      </trkpt>
      <trkpt lat="42.574670165777206" lon="-8.667234051972628">
        <ele>56.4</ele>
        <time>2022-05-01T10:04:09.205Z</time>
      </trkpt>
      <trkpt lat="42.57458249107003" lon="-8.667109413072467">
        <ele>55.3</ele>
        <time>2022-05-01T10:04:10.687Z</time>
      </trkpt>
      <trkpt lat="42.57440730929375" lon="-8.666989048942924">
        <ele>54.4</ele>
        <time>2022-05-01T10:04:12.945Z</time>
      </trkpt>
      <trkpt lat="42.57433673366904" lon="-8.66685745306313">
        <ele>52.9</ele>
        <time>2022-05-01T10:04:14.265Z</time>
      </trkpt>
      <trkpt lat="42.5738934148103" lon="-8.665350889787078">
        <ele>41.5</ele>
        <time>2022-05-01T10:04:26.970Z</time>
      </trkpt>
      <trkpt lat="42.573379101231694" lon="-8.66383963264525">
        <ele>35.0</ele>
        <time>2022-05-01T10:04:40.923Z</time>
      </trkpt>
      <trkpt lat="42.573356218636036" lon="-8.663662690669298">
        <ele>35.2</ele>
        <time>2022-05-01T10:04:42.568Z</time>
      </trkpt>
      <trkpt lat="42.57345713675022" lon="-8.663486670702696">
        <ele>35.6</ele>
        <time>2022-05-01T10:04:44.828Z</time>
      </trkpt>
      <trkpt lat="42.57359392940998" lon="-8.663415843620896">
        <ele>36.3</ele>
        <time>2022-05-01T10:04:47.051Z</time>
      </trkpt>
      <trkpt lat="42.57389651611447" lon="-8.663412742316723">
        <ele>37.2</ele>
        <time>2022-05-01T10:04:51.957Z</time>
      </trkpt>
      <trkpt lat="42.57396331988275" lon="-8.66335490718484">
        <ele>38.6</ele>
        <time>2022-05-01T10:04:53.319Z</time>
      </trkpt>
      <trkpt lat="42.57397999987006" lon="-8.663262538611889">
        <ele>40.1</ele>
        <time>2022-05-01T10:04:54.590Z</time>
      </trkpt>
      <trkpt lat="42.57389358244836" lon="-8.662991132587194">
        <ele>41.6</ele>
        <time>2022-05-01T10:04:58.802Z</time>
      </trkpt>
      <trkpt lat="42.57390414364636" lon="-8.662585532292724">
        <ele>43.9</ele>
        <time>2022-05-01T10:05:05.086Z</time>
      </trkpt>
      <trkpt lat="42.57371881976724" lon="-8.662252267822623">
        <ele>45.4</ele>
        <time>2022-05-01T10:05:12.088Z</time>
      </trkpt>
      <trkpt lat="42.573630306869745" lon="-8.662018412724137">
        <ele>46.7</ele>
        <time>2022-05-01T10:05:17.117Z</time>
      </trkpt>
      <trkpt lat="42.573626451194286" lon="-8.661664947867393">
        <ele>48.2</ele>
        <time>2022-05-01T10:05:24.145Z</time>
      </trkpt>
      <trkpt lat="42.57358454167843" lon="-8.661443665623665">
        <ele>48.7</ele>
        <time>2022-05-01T10:05:28.875Z</time>
      </trkpt>
      <trkpt lat="42.57346778176725" lon="-8.661216096952558">
        <ele>49.1</ele>
        <time>2022-05-01T10:05:34.558Z</time>
      </trkpt>
      <trkpt lat="42.573112891986966" lon="-8.660778310149908">
        <ele>49.6</ele>
        <time>2022-05-01T10:05:47.935Z</time>
      </trkpt>
      <trkpt lat="42.57305631414056" lon="-8.6606371589005">
        <ele>49.7</ele>
        <time>2022-05-01T10:05:51.232Z</time>
      </trkpt>
      <trkpt lat="42.57317366078496" lon="-8.6596648581326">
        <ele>50.0</ele>
        <time>2022-05-01T10:06:11.339Z</time>
      </trkpt>
      <trkpt lat="42.573042903095484" lon="-8.658816190436482">
        <ele>50.9</ele>
        <time>2022-05-01T10:06:28.895Z</time>
      </trkpt>
      <trkpt lat="42.57306335493922" lon="-8.658688869327307">
        <ele>51.0</ele>
        <time>2022-05-01T10:06:31.516Z</time>
      </trkpt>
      <trkpt lat="42.573525784537196" lon="-8.658391144126654">
        <ele>50.1</ele>
        <time>2022-05-01T10:06:45.414Z</time>
      </trkpt>
      <trkpt lat="42.57372862659395" lon="-8.65829668007791">
        <ele>49.8</ele>
        <time>2022-05-01T10:06:51.208Z</time>
      </trkpt>
      <trkpt lat="42.574167838320136" lon="-8.658170029520988">
        <ele>50.1</ele>
        <time>2022-05-01T10:07:03.194Z</time>
      </trkpt>
      <trkpt lat="42.574554244056344" lon="-8.658102974295616">
        <ele>50.4</ele>
        <time>2022-05-01T10:07:13.557Z</time>
      </trkpt>
      <trkpt lat="42.574778627604246" lon="-8.6581090092659">
        <ele>50.3</ele>
        <time>2022-05-01T10:07:19.518Z</time>
      </trkpt>
      <trkpt lat="42.57513745687902" lon="-8.658240269869566">
        <ele>49.9</ele>
        <time>2022-05-01T10:07:29.379Z</time>
      </trkpt>
      <trkpt lat="42.57600381039083" lon="-8.658349737524986">
        <ele>50.7</ele>
        <time>2022-05-01T10:07:52.347Z</time>
      </trkpt>
      <trkpt lat="42.57618745788932" lon="-8.658332386985421">
        <ele>50.2</ele>
        <time>2022-05-01T10:07:56.849Z</time>
      </trkpt>
      <trkpt lat="42.57643480785191" lon="-8.658219734206796">
        <ele>49.6</ele>
        <time>2022-05-01T10:08:03.298Z</time>
      </trkpt>
      <trkpt lat="42.57695138454437" lon="-8.657846739515662">
        <ele>46.9</ele>
        <time>2022-05-01T10:08:17.359Z</time>
      </trkpt>
      <trkpt lat="42.57746519520879" lon="-8.657696032896638">
        <ele>46.4</ele>
        <time>2022-05-01T10:08:29.682Z</time>
      </trkpt>
      <trkpt lat="42.57776082493365" lon="-8.65749821998179">
        <ele>46.6</ele>
        <time>2022-05-01T10:08:37.536Z</time>
      </trkpt>
      <trkpt lat="42.57859683595598" lon="-8.656530613079667">
        <ele>46.8</ele>
        <time>2022-05-01T10:09:04.091Z</time>
      </trkpt>
      <trkpt lat="42.57870722562075" lon="-8.656359706074">
        <ele>46.8</ele>
        <time>2022-05-01T10:09:08.187Z</time>
      </trkpt>
      <trkpt lat="42.578769167885184" lon="-8.65618729032576">
        <ele>46.9</ele>
        <time>2022-05-01T10:09:11.680Z</time>
      </trkpt>
      <trkpt lat="42.57884753867984" lon="-8.656124006956816">
        <ele>46.8</ele>
        <time>2022-05-01T10:09:13.961Z</time>
      </trkpt>
      <trkpt lat="42.57899757474661" lon="-8.656095089390874">
        <ele>46.6</ele>
        <time>2022-05-01T10:09:17.782Z</time>
      </trkpt>
      <trkpt lat="42.57919790223241" lon="-8.656136160716414">
        <ele>46.4</ele>
        <time>2022-05-01T10:09:22.924Z</time>
      </trkpt>
      <trkpt lat="42.579707438126206" lon="-8.656279491260648">
        <ele>47.5</ele>
        <time>2022-05-01T10:09:36.088Z</time>
      </trkpt>
      <trkpt lat="42.57995730265975" lon="-8.656319975852966">
        <ele>47.4</ele>
        <time>2022-05-01T10:09:42.538Z</time>
      </trkpt>
      <trkpt lat="42.580035673454404" lon="-8.656659359112382">
        <ele>46.0</ele>
        <time>2022-05-01T10:09:49.475Z</time>
      </trkpt>
      <trkpt lat="42.58009761571884" lon="-8.656972423195839">
        <ele>45.5</ele>
        <time>2022-05-01T10:09:55.790Z</time>
      </trkpt>
      <trkpt lat="42.58024086244404" lon="-8.657355895265937">
        <ele>47.7</ele>
        <time>2022-05-01T10:10:04.161Z</time>
      </trkpt>
      <trkpt lat="42.58032216690481" lon="-8.657426303252578">
        <ele>48.9</ele>
        <time>2022-05-01T10:10:06.708Z</time>
      </trkpt>
      <trkpt lat="42.58040053769946" lon="-8.657442480325699">
        <ele>49.4</ele>
        <time>2022-05-01T10:10:08.803Z</time>
      </trkpt>
      <trkpt lat="42.58040162734687" lon="-8.657424291595817">
        <ele>49.4</ele>
        <time>2022-05-01T10:10:09.157Z</time>
      </trkpt>
      <trkpt lat="42.58034714497626" lon="-8.657356901094317">
        <ele>49.0</ele>
        <time>2022-05-01T10:10:11.102Z</time>
      </trkpt>
      <trkpt lat="42.58027925156057" lon="-8.657214576378465">
        <ele>48.1</ele>
        <time>2022-05-01T10:10:14.397Z</time>
      </trkpt>
      <trkpt lat="42.58030272088945" lon="-8.65712539292872">
        <ele>48.1</ele>
        <time>2022-05-01T10:10:16.236Z</time>
      </trkpt>
      <trkpt lat="42.58035980165005" lon="-8.657076777890325">
        <ele>48.4</ele>
        <time>2022-05-01T10:10:18.011Z</time>
      </trkpt>
      <trkpt lat="42.58053439669311" lon="-8.657023049890995">
        <ele>49.3</ele>
        <time>2022-05-01T10:10:23.033Z</time>
      </trkpt>
      <trkpt lat="42.580918204039335" lon="-8.656626082956791">
        <ele>47.6</ele>
        <time>2022-05-01T08:00:00.000Z</time>
      </trkpt>
      <trkpt lat="42.58088962174952" lon="-8.656443608924747">
        <ele>46.4</ele>
        <time>2022-05-01T08:00:03.481Z</time>
      </trkpt>
      <trkpt lat="42.580858524888754" lon="-8.65631234832108">
        <ele>45.6</ele>
        <time>2022-05-01T08:00:06.070Z</time>
      </trkpt>
      <trkpt lat="42.58080898784101" lon="-8.656170694157481">
        <ele>44.8</ele>
        <time>2022-05-01T08:00:08.933Z</time>
      </trkpt>
      <trkpt lat="42.58077780716121" lon="-8.656039349734783">
        <ele>44.2</ele>
        <time>2022-05-01T08:00:11.476Z</time>
      </trkpt>
      <trkpt lat="42.580952821299434" lon="-8.655944466590881">
        <ele>43.2</ele>
        <time>2022-05-01T08:00:16.177Z</time>
      </trkpt>
      <trkpt lat="42.58124920539558" lon="-8.655818151310086">
        <ele>41.8</ele>
        <time>2022-05-01T08:00:23.955Z</time>
      </trkpt>
      <trkpt lat="42.58125113323331" lon="-8.655655710026622">
        <ele>41.0</ele>
        <time>2022-05-01T08:00:26.961Z</time>
      </trkpt>
      <trkpt lat="42.58123277686536" lon="-8.655397212132812">
        <ele>41.0</ele>
        <time>2022-05-01T08:00:31.698Z</time>
      </trkpt>
      <trkpt lat="42.581137642264366" lon="-8.655037293210626">
        <ele>41.5</ele>
        <time>2022-05-01T08:00:38.694Z</time>
      </trkpt>
      <trkpt lat="42.58103680796921" lon="-8.654788099229336">
        <ele>42.0</ele>
        <time>2022-05-01T08:00:43.944Z</time>
      </trkpt>
      <trkpt lat="42.58098601363599" lon="-8.65467200987041">
        <ele>42.2</ele>
        <time>2022-05-01T08:00:46.452Z</time>
      </trkpt>
      <trkpt lat="42.580885430797935" lon="-8.654542760923505">
        <ele>42.9</ele>
        <time>2022-05-01T08:00:50.056Z</time>
      </trkpt>
      <trkpt lat="42.58073874749243" lon="-8.654451984912157">
        <ele>44.0</ele>
        <time>2022-05-01T08:00:54.285Z</time>
      </trkpt>
      <trkpt lat="42.580597093328834" lon="-8.654387276619673">
        <ele>44.9</ele>
        <time>2022-05-01T08:00:58.248Z</time>
      </trkpt>
      <trkpt lat="42.580429036170244" lon="-8.654345870018005">
        <ele>45.4</ele>
        <time>2022-05-01T08:01:02.812Z</time>
      </trkpt>
      <trkpt lat="42.58023776113987" lon="-8.654387863352895">
        <ele>46.2</ele>
        <time>2022-05-01T08:01:08.015Z</time>
      </trkpt>
      <trkpt lat="42.58005025796592" lon="-8.654481573030353">
        <ele>47.1</ele>
        <time>2022-05-01T08:01:13.562Z</time>
      </trkpt>
      <trkpt lat="42.579584727063775" lon="-8.654711823910475">
        <ele>47.2</ele>
        <time>2022-05-01T08:01:27.341Z</time>
      </trkpt>
      <trkpt lat="42.57931340485811" lon="-8.654840486124158">
        <ele>46.4</ele>
        <time>2022-05-01T08:01:35.322Z</time>
      </trkpt>
      <trkpt lat="42.578224427998066" lon="-8.655183557420969">
        <ele>46.9</ele>
        <time>2022-05-01T08:02:05.990Z</time>
      </trkpt>
      <trkpt lat="42.57818654179573" lon="-8.655060175806284">
        <ele>46.6</ele>
        <time>2022-05-01T08:02:08.662Z</time>
      </trkpt>
      <trkpt lat="42.57813574746251" lon="-8.654944086447358">
        <ele>46.5</ele>
        <time>2022-05-01T08:02:11.351Z</time>
      </trkpt>
      <trkpt lat="42.577891582623124" lon="-8.654664382338524">
        <ele>46.3</ele>
        <time>2022-05-01T08:02:19.910Z</time>
      </trkpt>
      <trkpt lat="42.57767113856971" lon="-8.65441258996725">
        <ele>46.3</ele>
        <time>2022-05-01T08:02:27.595Z</time>
      </trkpt>
      <trkpt lat="42.577596036717296" lon="-8.654277138411999">
        <ele>46.4</ele>
        <time>2022-05-01T08:02:30.875Z</time>
      </trkpt>
      <trkpt lat="42.57755286991596" lon="-8.65388779900968">
        <ele>46.0</ele>
        <time>2022-05-01T08:02:38.446Z</time>
      </trkpt>
      <trkpt lat="42.57757927291095" lon="-8.653616392984986">
        <ele>46.0</ele>
        <time>2022-05-01T08:02:43.640Z</time>
      </trkpt>
      <trkpt lat="42.577568627893925" lon="-8.653204422444105">
        <ele>46.0</ele>
        <time>2022-05-01T08:02:51.438Z</time>
      </trkpt>
      <trkpt lat="42.57763836532831" lon="-8.653074000030756">
        <ele>45.9</ele>
        <time>2022-05-01T08:02:54.397Z</time>
      </trkpt>
      <trkpt lat="42.57773567922413" lon="-8.652894794940948">
        <ele>45.7</ele>
        <time>2022-05-01T08:02:58.437Z</time>
      </trkpt>
      <trkpt lat="42.577793430536985" lon="-8.652626238763332">
        <ele>45.1</ele>
        <time>2022-05-01T08:03:03.554Z</time>
      </trkpt>
      <trkpt lat="42.577888229861856" lon="-8.652498163282871">
        <ele>45.0</ele>
        <time>2022-05-01T08:03:06.906Z</time>
      </trkpt>
      <trkpt lat="42.57793625816703" lon="-8.65229724906385">
        <ele>44.9</ele>
        <time>2022-05-01T08:03:10.830Z</time>
      </trkpt>
      <trkpt lat="42.57794380187988" lon="-8.652023999020457">
        <ele>44.7</ele>
        <time>2022-05-01T08:03:15.926Z</time>
      </trkpt>
      <trkpt lat="42.57791681215167" lon="-8.651935905218124">
        <ele>44.6</ele>
        <time>2022-05-01T08:03:17.542Z</time>
      </trkpt>
      <trkpt lat="42.577879345044494" lon="-8.651803974062204">
        <ele>44.4</ele>
        <time>2022-05-01T08:03:19.973Z</time>
      </trkpt>
      <trkpt lat="42.577731404453516" lon="-8.651738679036498">
        <ele>44.8</ele>
        <time>2022-05-01T08:03:23.670Z</time>
      </trkpt>
      <trkpt lat="42.57755488157272" lon="-8.65173926576972">
        <ele>45.1</ele>
        <time>2022-05-01T08:03:27.931Z</time>
      </trkpt>
      <trkpt lat="42.57738766260445" lon="-8.651680760085583">
        <ele>45.5</ele>
        <time>2022-05-01T08:03:32.143Z</time>
      </trkpt>
      <trkpt lat="42.57727417163551" lon="-8.651558887213469">
        <ele>45.7</ele>
        <time>2022-05-01T08:03:35.705Z</time>
      </trkpt>
      <trkpt lat="42.57722111418843" lon="-8.651485377922654">
        <ele>45.6</ele>
        <time>2022-05-01T08:03:37.588Z</time>
      </trkpt>
      <trkpt lat="42.57721055299044" lon="-8.651321763172746">
        <ele>44.8</ele>
        <time>2022-05-01T08:03:40.619Z</time>
      </trkpt>
      <trkpt lat="42.577229999005795" lon="-8.65118664689362">
        <ele>45.0</ele>
        <time>2022-05-01T08:03:43.180Z</time>
      </trkpt>
      <trkpt lat="42.577338963747025" lon="-8.651119004935026">
        <ele>45.5</ele>
        <time>2022-05-01T08:03:46.227Z</time>
      </trkpt>
      <trkpt lat="42.57760399952531" lon="-8.651224030181766">
        <ele>45.1</ele>
        <time>2022-05-01T08:03:53.292Z</time>
      </trkpt>
      <trkpt lat="42.57774297147989" lon="-8.651260994374752">
        <ele>44.9</ele>
        <time>2022-05-01T08:03:56.933Z</time>
      </trkpt>
      <trkpt lat="42.577832993119955" lon="-8.651211960241199">
        <ele>44.7</ele>
        <time>2022-05-01T08:03:59.438Z</time>
      </trkpt>
      <trkpt lat="42.577878003939986" lon="-8.651182036846876">
        <ele>44.6</ele>
        <time>2022-05-01T08:04:00.736Z</time>
      </trkpt>
      <trkpt lat="42.577900970354676" lon="-8.651188993826509">
        <ele>44.5</ele>
        <time>2022-05-01T08:04:01.347Z</time>
      </trkpt>
      <trkpt lat="42.57793500088155" lon="-8.65119301714003">
        <ele>44.4</ele>
        <time>2022-05-01T08:04:02.238Z</time>
      </trkpt>
      <trkpt lat="42.57797003723681" lon="-8.651188993826509">
        <ele>44.3</ele>
        <time>2022-05-01T08:04:03.157Z</time>
      </trkpt>
      <trkpt lat="42.578026028349996" lon="-8.651185976341367">
        <ele>44.2</ele>
        <time>2022-05-01T08:04:04.626Z</time>
      </trkpt>
      <trkpt lat="42.578089982271194" lon="-8.651180025190115">
        <ele>44.1</ele>
        <time>2022-05-01T08:04:06.310Z</time>
      </trkpt>
      <trkpt lat="42.57817002944648" lon="-8.651160998269916">
        <ele>44.1</ele>
        <time>2022-05-01T08:04:08.450Z</time>
      </trkpt>
      <trkpt lat="42.57823498919606" lon="-8.651144988834858">
        <ele>44.1</ele>
        <time>2022-05-01T08:04:10.195Z</time>
      </trkpt>
      <trkpt lat="42.578284023329616" lon="-8.65112797357142">
        <ele>43.9</ele>
        <time>2022-05-01T08:04:11.538Z</time>
      </trkpt>
      <trkpt lat="42.5783400144428" lon="-8.651090003550053">
        <ele>43.9</ele>
        <time>2022-05-01T08:04:13.198Z</time>
      </trkpt>
      <trkpt lat="42.57840002886951" lon="-8.651044992730021">
        <ele>43.8</ele>
        <time>2022-05-01T08:04:15.020Z</time>
      </trkpt>
      <trkpt lat="42.578473035246134" lon="-8.650987995788455">
        <ele>44.1</ele>
        <time>2022-05-01T08:04:17.266Z</time>
      </trkpt>
      <trkpt lat="42.578539000824094" lon="-8.65093200467527">
        <ele>44.6</ele>
        <time>2022-05-01T08:04:19.342Z</time>
      </trkpt>
      <trkpt lat="42.57860102690756" lon="-8.650889005512">
        <ele>44.9</ele>
        <time>2022-05-01T08:04:21.205Z</time>
      </trkpt>
      <trkpt lat="42.57868501357734" lon="-8.650832008570433">
        <ele>45.3</ele>
        <time>2022-05-01T08:04:23.724Z</time>
      </trkpt>
      <trkpt lat="42.57876598276198" lon="-8.650788003578782">
        <ele>45.6</ele>
        <time>2022-05-01T08:04:26.089Z</time>
      </trkpt>
      <trkpt lat="42.57886899635196" lon="-8.650733018293977">
        <ele>46.0</ele>
        <time>2022-05-01T08:04:29.104Z</time>
      </trkpt>
      <trkpt lat="42.578950971364975" lon="-8.650665041059256">
        <ele>46.7</ele>
        <time>2022-05-01T08:04:31.722Z</time>
      </trkpt>
      <trkpt lat="42.57902196608484" lon="-8.650635033845901">
        <ele>47.0</ele>
        <time>2022-05-01T08:04:33.751Z</time>
      </trkpt>
      <trkpt lat="42.579097989946604" lon="-8.650608966127038">
        <ele>47.1</ele>
        <time>2022-05-01T08:04:35.893Z</time>
      </trkpt>
      <trkpt lat="42.579167978838086" lon="-8.650595974177122">
        <ele>47.1</ele>
        <time>2022-05-01T08:04:37.861Z</time>
      </trkpt>
      <trkpt lat="42.57924400269985" lon="-8.650581976398826">
        <ele>47.1</ele>
        <time>2022-05-01T08:04:40.004Z</time>
      </trkpt>
      <trkpt lat="42.57930896244943" lon="-8.650609971955419">
        <ele>46.8</ele>
        <time>2022-05-01T08:04:41.908Z</time>
      </trkpt>
      <trkpt lat="42.57937400601804" lon="-8.650595974177122">
        <ele>46.8</ele>
        <time>2022-05-01T08:04:43.758Z</time>
      </trkpt>
      <trkpt lat="42.57944097742438" lon="-8.650565966963768">
        <ele>47.0</ele>
        <time>2022-05-01T08:04:45.758Z</time>
      </trkpt>
      <trkpt lat="42.57950199767947" lon="-8.65054501220584">
        <ele>47.1</ele>
        <time>2022-05-01T08:04:47.541Z</time>
      </trkpt>
      <trkpt lat="42.57954499684274" lon="-8.650533026084304">
        <ele>47.1</ele>
        <time>2022-05-01T08:04:48.775Z</time>
      </trkpt>
      <trkpt lat="42.57959000766277" lon="-8.650534031912684">
        <ele>47.1</ele>
        <time>2022-05-01T08:04:50.047Z</time>
      </trkpt>
      <trkpt lat="42.579635018482804" lon="-8.650543000549078">
        <ele>47.0</ele>
        <time>2022-05-01T08:04:51.323Z</time>
      </trkpt>
      <trkpt lat="42.57969100959599" lon="-8.65056999027729">
        <ele>46.8</ele>
        <time>2022-05-01T08:04:52.987Z</time>
      </trkpt>
      <trkpt lat="42.57976200431585" lon="-8.650585999712348">
        <ele>46.6</ele>
        <time>2022-05-01T08:04:55.001Z</time>
      </trkpt>
      <trkpt lat="42.57983702234924" lon="-8.650555992498994">
        <ele>46.9</ele>
        <time>2022-05-01T08:04:57.175Z</time>
      </trkpt>
      <trkpt lat="42.579915979877114" lon="-8.650521961972117">
        <ele>47.1</ele>
        <time>2022-05-01T08:04:59.468Z</time>
      </trkpt>
      <trkpt lat="42.57996601983905" lon="-8.65050301887095">
        <ele>47.2</ele>
        <time>2022-05-01T08:05:00.898Z</time>
      </trkpt>
      <trkpt lat="42.58001798763871" lon="-8.650455996394157">
        <ele>47.5</ele>
        <time>2022-05-01T08:05:02.608Z</time>
      </trkpt>
      <trkpt lat="42.58007498458028" lon="-8.65039799362421">
        <ele>47.9</ele>
        <time>2022-05-01T08:05:04.548Z</time>
      </trkpt>
      <trkpt lat="42.5801289640367" lon="-8.650340996682644">
        <ele>48.2</ele>
        <time>2022-05-01T08:05:06.403Z</time>
      </trkpt>
      <trkpt lat="42.580171041190624" lon="-8.650317024439573">
        <ele>48.3</ele>
        <time>2022-05-01T08:05:07.628Z</time>
      </trkpt>
      <trkpt lat="42.58020096458495" lon="-8.650292968377471">
        <ele>48.4</ele>
        <time>2022-05-01T08:05:08.561Z</time>
      </trkpt>
      <trkpt lat="42.5802449695766" lon="-8.6502689961344">
        <ele>48.5</ele>
        <time>2022-05-01T08:05:09.830Z</time>
      </trkpt>
      <trkpt lat="42.58029098622501" lon="-8.650270001962781">
        <ele>48.5</ele>
        <time>2022-05-01T08:05:11.060Z</time>
      </trkpt>
      <trkpt lat="42.58033599704504" lon="-8.650276036933064">
        <ele>48.5</ele>
        <time>2022-05-01T08:05:12.262Z</time>
      </trkpt>
      <trkpt lat="42.580385031178594" lon="-8.650270001962781">
        <ele>48.5</ele>
        <time>2022-05-01T08:05:13.570Z</time>
      </trkpt>
      <trkpt lat="42.58043699897826" lon="-8.65024602971971">
        <ele>48.6</ele>
        <time>2022-05-01T08:05:15.021Z</time>
      </trkpt>
      <trkpt lat="42.58048502728343" lon="-8.650236977264285">
        <ele>48.6</ele>
        <time>2022-05-01T08:05:16.297Z</time>
      </trkpt>
      <trkpt lat="42.580541018396616" lon="-8.65024602971971">
        <ele>48.6</ele>
        <time>2022-05-01T08:05:17.780Z</time>
      </trkpt>
      <trkpt lat="42.58058502338827" lon="-8.650242006406188">
        <ele>48.7</ele>
        <time>2022-05-01T08:05:18.940Z</time>
      </trkpt>
      <trkpt lat="42.580626010894775" lon="-8.65024896338582">
        <ele>48.8</ele>
        <time>2022-05-01T08:05:20.028Z</time>
      </trkpt>
      <trkpt lat="42.580669010058045" lon="-8.650279976427555">
        <ele>48.7</ele>
        <time>2022-05-01T08:05:21.311Z</time>
      </trkpt>
      <trkpt lat="42.58071502670646" lon="-8.650308977812529">
        <ele>48.6</ele>
        <time>2022-05-01T08:05:22.641Z</time>
      </trkpt>
      <trkpt lat="42.58074402809143" lon="-8.650325993075967">
        <ele>48.6</ele>
        <time>2022-05-01T08:05:23.472Z</time>
      </trkpt>
      <trkpt lat="42.58076397702098" lon="-8.650344014167786">
        <ele>48.5</ele>
        <time>2022-05-01T08:05:24.102Z</time>
      </trkpt>
      <trkpt lat="42.58079297840595" lon="-8.650376033037901">
        <ele>48.5</ele>
        <time>2022-05-01T08:05:25.087Z</time>
      </trkpt>
      <trkpt lat="42.5808369833976" lon="-8.650435041636229">
        <ele>48.3</ele>
        <time>2022-05-01T08:05:26.718Z</time>
      </trkpt>
      <trkpt lat="42.58087101392448" lon="-8.650496983900666">
        <ele>48.1</ele>
        <time>2022-05-01T08:05:28.221Z</time>
      </trkpt>
      <trkpt lat="42.580907978117466" lon="-8.650598991662264">
        <ele>47.8</ele>
        <time>2022-05-01T08:05:30.432Z</time>
      </trkpt>
      <trkpt lat="42.580949971452355" lon="-8.65069697611034">
        <ele>47.4</ele>
        <time>2022-05-01T08:05:32.638Z</time>
      </trkpt>
      <trkpt lat="42.58097897283733" lon="-8.650764031335711">
        <ele>47.2</ele>
        <time>2022-05-01T08:05:34.151Z</time>
      </trkpt>
      <trkpt lat="42.58101602084935" lon="-8.650821028277278">
        <ele>46.9</ele>
        <time>2022-05-01T08:05:35.623Z</time>
      </trkpt>
      <trkpt lat="42.581097995862365" lon="-8.65087098442018">
        <ele>46.6</ele>
        <time>2022-05-01T08:05:37.988Z</time>
      </trkpt>
      <trkpt lat="42.58117100223899" lon="-8.650885988026857">
        <ele>46.5</ele>
        <time>2022-05-01T08:05:39.924Z</time>
      </trkpt>
      <trkpt lat="42.5812310166657" lon="-8.650889005512">
        <ele>46.6</ele>
        <time>2022-05-01T08:05:41.497Z</time>
      </trkpt>
      <trkpt lat="42.58129798807204" lon="-8.650878025218844">
        <ele>46.8</ele>
        <time>2022-05-01T08:05:43.257Z</time>
      </trkpt>
      <trkpt lat="42.58135196752846" lon="-8.650875007733703">
        <ele>46.8</ele>
        <time>2022-05-01T08:05:44.661Z</time>
      </trkpt>
      <trkpt lat="42.58141499944031" lon="-8.650863021612167">
        <ele>47.0</ele>
        <time>2022-05-01T08:05:46.303Z</time>
      </trkpt>
      <trkpt lat="42.58147199638188" lon="-8.650834020227194">
        <ele>47.4</ele>
        <time>2022-05-01T08:05:47.872Z</time>
      </trkpt>
      <trkpt lat="42.58153100498021" lon="-8.650806024670601">
        <ele>47.6</ele>
        <time>2022-05-01T08:05:49.491Z</time>
      </trkpt>
      <trkpt lat="42.581593031063676" lon="-8.650776017457247">
        <ele>47.9</ele>
        <time>2022-05-01T08:05:51.192Z</time>
      </trkpt>
      <trkpt lat="42.581657990813255" lon="-8.65076201967895">
        <ele>48.0</ele>
        <time>2022-05-01T08:05:52.892Z</time>
      </trkpt>
      <trkpt lat="42.58171197026968" lon="-8.650756990537047">
        <ele>48.2</ele>
        <time>2022-05-01T08:05:54.289Z</time>
      </trkpt>
      <trkpt lat="42.58176603354514" lon="-8.650772999972105">
        <ele>48.3</ele>
        <time>2022-05-01T08:05:55.727Z</time>
      </trkpt>
      <trkpt lat="42.58181699551642" lon="-8.650765037164092">
        <ele>48.5</ele>
        <time>2022-05-01T08:05:57.073Z</time>
      </trkpt>
      <trkpt lat="42.58186401799321" lon="-8.650765959173441">
        <ele>48.7</ele>
        <time>2022-05-01T08:05:58.313Z</time>
      </trkpt>
      <trkpt lat="42.581935012713075" lon="-8.650778029114008">
        <ele>48.8</ele>
        <time>2022-05-01T08:06:00.218Z</time>
      </trkpt>
      <trkpt lat="42.5819889921695" lon="-8.650810969993472">
        <ele>48.6</ele>
        <time>2022-05-01T08:06:01.793Z</time>
      </trkpt>
      <trkpt lat="42.58203098550439" lon="-8.650842988863587">
        <ele>48.3</ele>
        <time>2022-05-01T08:06:03.076Z</time>
      </trkpt>
      <trkpt lat="42.582106003537774" lon="-8.650858998298645">
        <ele>48.2</ele>
        <time>2022-05-01T08:06:05.100Z</time>
      </trkpt>
      <trkpt lat="42.5821840390563" lon="-8.650887999683619">
        <ele>47.8</ele>
        <time>2022-05-01T08:06:07.256Z</time>
      </trkpt>
      <trkpt lat="42.58225101046264" lon="-8.65086603909731">
        <ele>47.9</ele>
        <time>2022-05-01T08:06:09.091Z</time>
      </trkpt>
      <trkpt lat="42.582304989919066" lon="-8.65082798525691">
        <ele>48.2</ele>
        <time>2022-05-01T08:06:10.711Z</time>
      </trkpt>
      <trkpt lat="42.58234002627432" lon="-8.65082697942853">
        <ele>48.1</ele>
        <time>2022-05-01T08:06:11.645Z</time>
      </trkpt>
      <trkpt lat="42.58237598463893" lon="-8.650809964165092">
        <ele>48.2</ele>
        <time>2022-05-01T08:06:12.659Z</time>
      </trkpt>
      <trkpt lat="42.582429964095354" lon="-8.650794038549066">
        <ele>48.3</ele>
        <time>2022-05-01T08:06:14.127Z</time>
      </trkpt>
      <trkpt lat="42.582473969087005" lon="-8.650768976658583">
        <ele>48.5</ele>
        <time>2022-05-01T08:06:15.394Z</time>
      </trkpt>
      <trkpt lat="42.58254697546363" lon="-8.650731006637216">
        <ele>48.7</ele>
        <time>2022-05-01T08:06:17.465Z</time>
      </trkpt>
      <trkpt lat="42.582614030689" lon="-8.650714997202158">
        <ele>48.9</ele>
        <time>2022-05-01T08:06:19.264Z</time>
      </trkpt>
      <trkpt lat="42.58265300653875" lon="-8.650708040222526">
        <ele>49.0</ele>
        <time>2022-05-01T08:06:20.297Z</time>
      </trkpt>
      <trkpt lat="42.58267396129668" lon="-8.650691024959087">
        <ele>49.2</ele>
        <time>2022-05-01T08:06:20.934Z</time>
      </trkpt>
      <trkpt lat="42.58270598016679" lon="-8.650684989988804">
        <ele>49.3</ele>
        <time>2022-05-01T08:06:21.769Z</time>
      </trkpt>
      <trkpt lat="42.58274001069367" lon="-8.65069798193872">
        <ele>49.3</ele>
        <time>2022-05-01T08:06:22.668Z</time>
      </trkpt>
      <trkpt lat="42.58276498876512" lon="-8.650721032172441">
        <ele>49.2</ele>
        <time>2022-05-01T08:06:23.417Z</time>
      </trkpt>
      <trkpt lat="42.58280002512038" lon="-8.650755984708667">
        <ele>49.1</ele>
        <time>2022-05-01T08:06:24.484Z</time>
      </trkpt>
      <trkpt lat="42.58283003233373" lon="-8.650809964165092">
        <ele>48.8</ele>
        <time>2022-05-01T08:06:25.721Z</time>
      </trkpt>
      <trkpt lat="42.58287101984024" lon="-8.650839971378446">
        <ele>48.5</ele>
        <time>2022-05-01T08:06:26.859Z</time>
      </trkpt>
      <trkpt lat="42.58292801678181" lon="-8.650851035490632">
        <ele>48.4</ele>
        <time>2022-05-01T08:06:28.231Z</time>
      </trkpt>
      <trkpt lat="42.583009991794825" lon="-8.6508699785918">
        <ele>48.2</ele>
        <time>2022-05-01T08:06:30.167Z</time>
      </trkpt>
      <trkpt lat="42.58306799456477" lon="-8.650872996076941">
        <ele>48.1</ele>
        <time>2022-05-01T08:06:31.522Z</time>
      </trkpt>
      <trkpt lat="42.58313102647662" lon="-8.650867966935039">
        <ele>47.9</ele>
        <time>2022-05-01T08:06:32.942Z</time>
      </trkpt>
      <trkpt lat="42.58317402563989" lon="-8.650842988863587">
        <ele>48.0</ele>
        <time>2022-05-01T08:06:33.960Z</time>
      </trkpt>
      <trkpt lat="42.583205960690975" lon="-8.650819016620517">
        <ele>48.2</ele>
        <time>2022-05-01T08:06:34.744Z</time>
      </trkpt>
      <trkpt lat="42.583246026188135" lon="-8.650788003578782">
        <ele>48.3</ele>
        <time>2022-05-01T08:06:35.702Z</time>
      </trkpt>
      <trkpt lat="42.58329698815942" lon="-8.650766965001822">
        <ele>48.2</ele>
        <time>2022-05-01T08:06:36.814Z</time>
      </trkpt>
      <trkpt lat="42.58332900702953" lon="-8.650750033557415">
        <ele>48.2</ele>
        <time>2022-05-01T08:06:37.517Z</time>
      </trkpt>
      <trkpt lat="42.583373012021184" lon="-8.650745004415512">
        <ele>48.0</ele>
        <time>2022-05-01T08:06:38.398Z</time>
      </trkpt>
      <trkpt lat="42.58340100757778" lon="-8.650735029950738">
        <ele>48.0</ele>
        <time>2022-05-01T08:06:38.957Z</time>
      </trkpt>
      <trkpt lat="42.58342900313437" lon="-8.650722960010171">
        <ele>47.9</ele>
        <time>2022-05-01T08:06:39.524Z</time>
      </trkpt>
      <trkpt lat="42.583461022004485" lon="-8.650706028565764">
        <ele>47.9</ele>
        <time>2022-05-01T08:06:40.177Z</time>
      </trkpt>
      <trkpt lat="42.58349002338946" lon="-8.650692030787468">
        <ele>47.9</ele>
        <time>2022-05-01T08:06:40.765Z</time>
      </trkpt>
      <trkpt lat="42.58352296426892" lon="-8.650679038837552">
        <ele>47.9</ele>
        <time>2022-05-01T08:06:41.409Z</time>
      </trkpt>
      <trkpt lat="42.58355297148228" lon="-8.650677027180791">
        <ele>47.8</ele>
        <time>2022-05-01T08:06:41.985Z</time>
      </trkpt>
      <trkpt lat="42.58357803337276" lon="-8.65071700885892">
        <ele>47.3</ele>
        <time>2022-05-01T08:06:42.716Z</time>
      </trkpt>
      <trkpt lat="42.583610974252224" lon="-8.650756990537047">
        <ele>46.9</ele>
        <time>2022-05-01T08:06:43.546Z</time>
      </trkpt>
      <trkpt lat="42.583650033921" lon="-8.650818010792136">
        <ele>46.3</ele>
        <time>2022-05-01T08:06:44.649Z</time>
      </trkpt>
      <trkpt lat="42.58368900977075" lon="-8.650860004127026">
        <ele>45.9</ele>
        <time>2022-05-01T08:06:45.575Z</time>
      </trkpt>
      <trkpt lat="42.583742989227176" lon="-8.650871990248561">
        <ele>45.7</ele>
        <time>2022-05-01T08:06:46.556Z</time>
      </trkpt>
      <trkpt lat="42.583782970905304" lon="-8.650860004127026">
        <ele>45.6</ele>
        <time>2022-05-01T08:06:47.293Z</time>
      </trkpt>
      <trkpt lat="42.58380903862417" lon="-8.650863021612167">
        <ele>45.4</ele>
        <time>2022-05-01T08:06:47.772Z</time>
      </trkpt>
      <trkpt lat="42.58383301086724" lon="-8.65084701217711">
        <ele>45.3</ele>
        <time>2022-05-01T08:06:48.268Z</time>
      </trkpt>
      <trkpt lat="42.58386301808059" lon="-8.650839971378446">
        <ele>45.2</ele>
        <time>2022-05-01T08:06:48.845Z</time>
      </trkpt>
      <trkpt lat="42.583895958960056" lon="-8.650822034105659">
        <ele>45.1</ele>
        <time>2022-05-01T08:06:49.533Z</time>
      </trkpt>
      <trkpt lat="42.583935018628836" lon="-8.650795966386795">
        <ele>44.9</ele>
        <time>2022-05-01T08:06:50.379Z</time>
      </trkpt>
      <trkpt lat="42.58396997116506" lon="-8.650776017457247">
        <ele>44.7</ele>
        <time>2022-05-01T08:06:51.114Z</time>
      </trkpt>
      <trkpt lat="42.583997966721654" lon="-8.65076201967895">
        <ele>44.4</ele>
        <time>2022-05-01T08:06:51.716Z</time>
      </trkpt>
      <trkpt lat="42.584019005298615" lon="-8.650749027729034">
        <ele>44.2</ele>
        <time>2022-05-01T08:06:52.200Z</time>
      </trkpt>
      <trkpt lat="42.584042977541685" lon="-8.650756990537047">
        <ele>43.9</ele>
        <time>2022-05-01T08:06:52.695Z</time>
      </trkpt>
      <trkpt lat="42.58406803943217" lon="-8.650768976658583">
        <ele>43.7</ele>
        <time>2022-05-01T08:06:53.235Z</time>
      </trkpt>
      <trkpt lat="42.584087988361716" lon="-8.650775011628866">
        <ele>43.5</ele>
        <time>2022-05-01T08:06:53.626Z</time>
      </trkpt>
      <trkpt lat="42.584108021110296" lon="-8.650781968608499">
        <ele>43.3</ele>
        <time>2022-05-01T08:06:54.002Z</time>
      </trkpt>
      <trkpt lat="42.58414096198976" lon="-8.650802001357079">
        <ele>43.0</ele>
        <time>2022-05-01T08:06:54.680Z</time>
      </trkpt>
      <trkpt lat="42.584170969203115" lon="-8.650831002742052">
        <ele>42.8</ele>
        <time>2022-05-01T08:06:55.352Z</time>
      </trkpt>
      <trkpt lat="42.58420499972999" lon="-8.650864027440548">
        <ele>42.5</ele>
        <time>2022-05-01T08:06:56.103Z</time>
      </trkpt>
      <trkpt lat="42.58422503247857" lon="-8.650882970541716">
        <ele>42.3</ele>
        <time>2022-05-01T08:06:56.525Z</time>
      </trkpt>
      <trkpt lat="42.58424296975136" lon="-8.650908032432199">
        <ele>42.1</ele>
        <time>2022-05-01T08:06:56.982Z</time>
      </trkpt>
      <trkpt lat="42.584280017763376" lon="-8.650969974696636">
        <ele>41.8</ele>
        <time>2022-05-01T08:06:58.034Z</time>
      </trkpt>
      <trkpt lat="42.58429502137005" lon="-8.651013979688287">
        <ele>41.8</ele>
        <time>2022-05-01T08:06:58.651Z</time>
      </trkpt>
      <trkpt lat="42.58430801331997" lon="-8.651047004386783">
        <ele>41.7</ele>
        <time>2022-05-01T08:06:59.117Z</time>
      </trkpt>
      <trkpt lat="42.58433097973466" lon="-8.651081034913659">
        <ele>41.4</ele>
        <time>2022-05-01T08:06:59.673Z</time>
      </trkpt>
      <trkpt lat="42.58435503579676" lon="-8.651112969964743">
        <ele>41.2</ele>
        <time>2022-05-01T08:07:00.224Z</time>
      </trkpt>
      <trkpt lat="42.584384037181735" lon="-8.651153035461903">
        <ele>41.1</ele>
        <time>2022-05-01T08:07:00.869Z</time>
      </trkpt>
      <trkpt lat="42.58441898971796" lon="-8.651187987998128">
        <ele>40.9</ele>
        <time>2022-05-01T08:07:01.548Z</time>
      </trkpt>
      <trkpt lat="42.58445302024484" lon="-8.65121103823185">
        <ele>40.9</ele>
        <time>2022-05-01T08:07:02.155Z</time>
      </trkpt>
      <trkpt lat="42.58448696695268" lon="-8.651224030181766">
        <ele>40.9</ele>
        <time>2022-05-01T08:07:02.742Z</time>
      </trkpt>
      <trkpt lat="42.58452602662146" lon="-8.651242973282933">
        <ele>41.0</ele>
        <time>2022-05-01T08:07:03.425Z</time>
      </trkpt>
      <trkpt lat="42.584557039663196" lon="-8.65123501047492">
        <ele>40.9</ele>
        <time>2022-05-01T08:07:03.962Z</time>
      </trkpt>
      <trkpt lat="42.584581011906266" lon="-8.651232998818159">
        <ele>40.9</ele>
        <time>2022-05-01T08:07:04.394Z</time>
      </trkpt>
      <trkpt lat="42.58460900746286" lon="-8.651246996596456">
        <ele>41.0</ele>
        <time>2022-05-01T08:07:04.922Z</time>
      </trkpt>
      <trkpt lat="42.58463499136269" lon="-8.651271974667907">
        <ele>41.1</ele>
        <time>2022-05-01T08:07:05.480Z</time>
      </trkpt>
      <trkpt lat="42.58466801606119" lon="-8.651306005194783">
        <ele>41.1</ele>
        <time>2022-05-01T08:07:06.166Z</time>
      </trkpt>
      <trkpt lat="42.5846950057894" lon="-8.65134397521615">
        <ele>41.3</ele>
        <time>2022-05-01T08:07:06.816Z</time>
      </trkpt>
      <trkpt lat="42.58471503853798" lon="-8.651378005743027">
        <ele>41.4</ele>
        <time>2022-05-01T08:07:07.349Z</time>
      </trkpt>
      <trkpt lat="42.584732975810766" lon="-8.651415975764394">
        <ele>41.5</ele>
        <time>2022-05-01T08:07:07.899Z</time>
      </trkpt>
      <trkpt lat="42.58475502021611" lon="-8.651453023776412">
        <ele>41.5</ele>
        <time>2022-05-01T08:07:08.415Z</time>
      </trkpt>
      <trkpt lat="42.584770023822784" lon="-8.651496022939682">
        <ele>41.5</ele>
        <time>2022-05-01T08:07:08.941Z</time>
      </trkpt>
      <trkpt lat="42.58478502742946" lon="-8.651532987132668">
        <ele>41.4</ele>
        <time>2022-05-01T08:07:09.412Z</time>
      </trkpt>
      <trkpt lat="42.58479097858071" lon="-8.651566011831164">
        <ele>41.3</ele>
        <time>2022-05-01T08:07:09.787Z</time>
      </trkpt>
      <trkpt lat="42.58479902520776" lon="-8.651603981852531">
        <ele>41.0</ele>
        <time>2022-05-01T08:07:10.224Z</time>
      </trkpt>
      <trkpt lat="42.58480899967253" lon="-8.65164102986455">
        <ele>40.8</ele>
        <time>2022-05-01T08:07:10.662Z</time>
      </trkpt>
      <trkpt lat="42.584817968308926" lon="-8.651672964915633">
        <ele>40.6</ele>
        <time>2022-05-01T08:07:11.051Z</time>
      </trkpt>
      <trkpt lat="42.58482199162245" lon="-8.651700038462877">
        <ele>40.4</ele>
        <time>2022-05-01T08:07:11.354Z</time>
      </trkpt>
      <trkpt lat="42.58483096025884" lon="-8.651733985170722">
        <ele>40.1</ele>
        <time>2022-05-01T08:07:11.762Z</time>
      </trkpt>
      <trkpt lat="42.58484001271427" lon="-8.651763992384076">
        <ele>39.9</ele>
        <time>2022-05-01T08:07:12.123Z</time>
      </trkpt>
      <trkpt lat="42.58485300466418" lon="-8.651788970455527">
        <ele>39.7</ele>
        <time>2022-05-01T08:07:12.477Z</time>
      </trkpt>
      <trkpt lat="42.5848659966141" lon="-8.651807997375727">
        <ele>39.6</ele>
        <time>2022-05-01T08:07:12.762Z</time>
      </trkpt>
      <trkpt lat="42.58488401770592" lon="-8.6518369987607">
        <ele>39.4</ele>
        <time>2022-05-01T08:07:13.193Z</time>
      </trkpt>
      <trkpt lat="42.584899021312594" lon="-8.651861976832151">
        <ele>39.2</ele>
        <time>2022-05-01T08:07:13.553Z</time>
      </trkpt>
      <trkpt lat="42.58491695858538" lon="-8.651888966560364">
        <ele>39.0</ele>
        <time>2022-05-01T08:07:13.970Z</time>
      </trkpt>
      <trkpt lat="42.58493003435433" lon="-8.651913022622466">
        <ele>38.8</ele>
        <time>2022-05-01T08:07:14.302Z</time>
      </trkpt>
      <trkpt lat="42.58493699133396" lon="-8.6519440356642">
        <ele>38.7</ele>
        <time>2022-05-01T08:07:14.678Z</time>
      </trkpt>
      <trkpt lat="42.584942020475864" lon="-8.651973959058523">
        <ele>38.5</ele>
        <time>2022-05-01T08:07:15.037Z</time>
      </trkpt>
      <trkpt lat="42.58494998328388" lon="-8.652002038434148">
        <ele>38.4</ele>
        <time>2022-05-01T08:07:15.376Z</time>
      </trkpt>
      <trkpt lat="42.58496004156768" lon="-8.65203003399074">
        <ele>38.3</ele>
        <time>2022-05-01T08:07:15.717Z</time>
      </trkpt>
      <trkpt lat="42.5849730335176" lon="-8.652058029547334">
        <ele>38.2</ele>
        <time>2022-05-01T08:07:16.105Z</time>
      </trkpt>
      <trkpt lat="42.58498099632561" lon="-8.652089964598417">
        <ele>38.0</ele>
        <time>2022-05-01T08:07:16.489Z</time>
      </trkpt>
      <trkpt lat="42.584988037124276" lon="-8.652122989296913">
        <ele>37.8</ele>
        <time>2022-05-01T08:07:16.886Z</time>
      </trkpt>
      <trkpt lat="42.58499801158905" lon="-8.65215802565217">
        <ele>37.6</ele>
        <time>2022-05-01T08:07:17.312Z</time>
      </trkpt>
      <trkpt lat="42.585008991882205" lon="-8.652193984016776">
        <ele>37.4</ele>
        <time>2022-05-01T08:07:17.748Z</time>
      </trkpt>
      <trkpt lat="42.58502097800374" lon="-8.65222499705851">
        <ele>37.1</ele>
        <time>2022-05-01T08:07:18.156Z</time>
      </trkpt>
      <trkpt lat="42.585030030459166" lon="-8.652250980958343">
        <ele>36.9</ele>
        <time>2022-05-01T08:07:18.488Z</time>
      </trkpt>
      <trkpt lat="42.5850420165807" lon="-8.65229096263647">
        <ele>36.5</ele>
        <time>2022-05-01T08:07:18.942Z</time>
      </trkpt>
      <trkpt lat="42.585052996873856" lon="-8.652322981506586">
        <ele>36.2</ele>
        <time>2022-05-01T08:07:19.303Z</time>
      </trkpt>
      <trkpt lat="42.58506196551025" lon="-8.652358017861843">
        <ele>36.0</ele>
        <time>2022-05-01T08:07:19.700Z</time>
      </trkpt>
      <trkpt lat="42.585072023794055" lon="-8.652393976226449">
        <ele>35.6</ele>
        <time>2022-05-01T08:07:20.119Z</time>
      </trkpt>
      <trkpt lat="42.58507797494531" lon="-8.652421971783042">
        <ele>35.4</ele>
        <time>2022-05-01T08:07:20.413Z</time>
      </trkpt>
      <trkpt lat="42.585092978551984" lon="-8.65245901979506">
        <ele>35.1</ele>
        <time>2022-05-01T08:07:20.861Z</time>
      </trkpt>
      <trkpt lat="42.58510395884514" lon="-8.652491038665175">
        <ele>34.8</ele>
        <time>2022-05-01T08:07:21.218Z</time>
      </trkpt>
      <trkpt lat="42.58511200547218" lon="-8.6525259912014">
        <ele>34.6</ele>
        <time>2022-05-01T08:07:21.602Z</time>
      </trkpt>
      <trkpt lat="42.58511804044247" lon="-8.652562033385038">
        <ele>34.4</ele>
        <time>2022-05-01T08:07:21.996Z</time>
      </trkpt>
      <trkpt lat="42.58512399159372" lon="-8.652597991749644">
        <ele>34.2</ele>
        <time>2022-05-01T08:07:22.371Z</time>
      </trkpt>
      <trkpt lat="42.58513103239238" lon="-8.652634033933282">
        <ele>34.0</ele>
        <time>2022-05-01T08:07:22.763Z</time>
      </trkpt>
      <trkpt lat="42.58514100685716" lon="-8.652669992297888">
        <ele>33.8</ele>
        <time>2022-05-01T08:07:23.150Z</time>
      </trkpt>
      <trkpt lat="42.58515198715031" lon="-8.652705028653145">
        <ele>33.6</ele>
        <time>2022-05-01T08:07:23.547Z</time>
      </trkpt>
      <trkpt lat="42.585161961615086" lon="-8.65274098701775">
        <ele>33.4</ele>
        <time>2022-05-01T08:07:23.931Z</time>
      </trkpt>
      <trkpt lat="42.58516900241375" lon="-8.652770994231105">
        <ele>33.3</ele>
        <time>2022-05-01T08:07:24.254Z</time>
      </trkpt>
      <trkpt lat="42.585178976878524" lon="-8.652814999222755">
        <ele>33.0</ele>
        <time>2022-05-01T08:07:24.748Z</time>
      </trkpt>
      <trkpt lat="42.58518802933395" lon="-8.652849029749632">
        <ele>32.9</ele>
        <time>2022-05-01T08:07:25.145Z</time>
      </trkpt>
      <trkpt lat="42.58519699797034" lon="-8.652882976457477">
        <ele>32.7</ele>
        <time>2022-05-01T08:07:25.550Z</time>
      </trkpt>
      <trkpt lat="42.585205966606736" lon="-8.652918012812734">
        <ele>32.5</ele>
        <time>2022-05-01T08:07:25.927Z</time>
      </trkpt>
      <trkpt lat="42.5852130074054" lon="-8.65295103751123">
        <ele>32.3</ele>
        <time>2022-05-01T08:07:26.287Z</time>
      </trkpt>
      <trkpt lat="42.585221976041794" lon="-8.652985990047455">
        <ele>32.1</ele>
        <time>2022-05-01T08:07:26.685Z</time>
      </trkpt>
      <trkpt lat="42.58522901684046" lon="-8.653022032231092">
        <ele>31.8</ele>
        <time>2022-05-01T08:07:27.096Z</time>
      </trkpt>
      <trkpt lat="42.58523597382009" lon="-8.65306000225246">
        <ele>31.6</ele>
        <time>2022-05-01T08:07:27.538Z</time>
      </trkpt>
      <trkpt lat="42.585243014618754" lon="-8.653098978102207">
        <ele>31.3</ele>
        <time>2022-05-01T08:07:27.972Z</time>
      </trkpt>
      <trkpt lat="42.585248965770006" lon="-8.653137031942606">
        <ele>31.0</ele>
        <time>2022-05-01T08:07:28.403Z</time>
      </trkpt>
      <trkpt lat="42.58525701239705" lon="-8.653177013620734">
        <ele>30.7</ele>
        <time>2022-05-01T08:07:28.874Z</time>
      </trkpt>
      <trkpt lat="42.58527000434697" lon="-8.653219006955624">
        <ele>30.3</ele>
        <time>2022-05-01T08:07:29.373Z</time>
      </trkpt>
      <trkpt lat="42.58527997881174" lon="-8.653258988633752">
        <ele>29.9</ele>
        <time>2022-05-01T08:07:29.846Z</time>
      </trkpt>
      <trkpt lat="42.585289031267166" lon="-8.653300981968641">
        <ele>29.5</ele>
        <time>2022-05-01T08:07:30.347Z</time>
      </trkpt>
      <trkpt lat="42.58529699407518" lon="-8.65334297530353">
        <ele>29.2</ele>
        <time>2022-05-01T08:07:30.851Z</time>
      </trkpt>
      <trkpt lat="42.58530596271157" lon="-8.653387986123562">
        <ele>28.8</ele>
        <time>2022-05-01T08:07:31.370Z</time>
      </trkpt>
      <trkpt lat="42.58531602099538" lon="-8.653434002771974">
        <ele>28.4</ele>
        <time>2022-05-01T08:07:31.919Z</time>
      </trkpt>
      <trkpt lat="42.585328007116914" lon="-8.653482031077147">
        <ele>28.0</ele>
        <time>2022-05-01T08:07:32.515Z</time>
      </trkpt>
      <trkpt lat="42.58534200489521" lon="-8.653530981391668">
        <ele>27.6</ele>
        <time>2022-05-01T08:07:33.116Z</time>
      </trkpt>
      <trkpt lat="42.58535700850189" lon="-8.65357699804008">
        <ele>27.2</ele>
        <time>2022-05-01T08:07:33.707Z</time>
      </trkpt>
      <trkpt lat="42.585374023765326" lon="-8.653629971668124">
        <ele>26.9</ele>
        <time>2022-05-01T08:07:34.376Z</time>
      </trkpt>
      <trkpt lat="42.58538802154362" lon="-8.653689986094832">
        <ele>26.7</ele>
        <time>2022-05-01T08:07:35.104Z</time>
      </trkpt>
      <trkpt lat="42.58540696464479" lon="-8.653751006349921">
        <ele>26.5</ele>
        <time>2022-05-01T08:07:35.897Z</time>
      </trkpt>
      <trkpt lat="42.58542800322175" lon="-8.653814038261771">
        <ele>26.2</ele>
        <time>2022-05-01T08:07:36.724Z</time>
      </trkpt>
      <trkpt lat="42.58545499294996" lon="-8.653873968869448">
        <ele>26.1</ele>
        <time>2022-05-01T08:07:37.561Z</time>
      </trkpt>
      <trkpt lat="42.58555616252124" lon="-8.654008246958256">
        <ele>25.7</ele>
        <time>2022-05-01T08:07:39.845Z</time>
      </trkpt>
      <trkpt lat="42.585729248821735" lon="-8.653792161494493">
        <ele>25.5</ele>
        <time>2022-05-01T08:07:43.863Z</time>
      </trkpt>
      <trkpt lat="42.5862593203783" lon="-8.653108030557632">
        <ele>26.6</ele>
        <time>2022-05-01T08:07:56.706Z</time>
      </trkpt>
      <trkpt lat="42.58674421347678" lon="-8.65260318852961">
        <ele>29.4</ele>
        <time>2022-05-01T08:08:08.214Z</time>
      </trkpt>
      <trkpt lat="42.587107652798295" lon="-8.652184763923287">
        <ele>30.5</ele>
        <time>2022-05-01T08:08:17.726Z</time>
      </trkpt>
      <trkpt lat="42.587192645296454" lon="-8.652107147499919">
        <ele>30.7</ele>
        <time>2022-05-01T08:08:19.849Z</time>
      </trkpt>
      <trkpt lat="42.58774794638157" lon="-8.651988040655851">
        <ele>32.2</ele>
        <time>2022-05-01T08:08:31.994Z</time>
      </trkpt>
      <trkpt lat="42.58836108259857" lon="-8.651972115039825">
        <ele>34.1</ele>
        <time>2022-05-01T08:08:45.506Z</time>
      </trkpt>
      <trkpt lat="42.588674733415246" lon="-8.652001535519958">
        <ele>31.9</ele>
        <time>2022-05-01T08:08:52.547Z</time>
      </trkpt>
      <trkpt lat="42.589160799980164" lon="-8.652181662619114">
        <ele>27.8</ele>
        <time>2022-05-01T08:09:03.184Z</time>
      </trkpt>
      <trkpt lat="42.5898202881217" lon="-8.651962224394083">
        <ele>25.7</ele>
        <time>2022-05-01T08:09:16.874Z</time>
      </trkpt>
      <trkpt lat="42.58999186567962" lon="-8.651953842490911">
        <ele>24.4</ele>
        <time>2022-05-01T08:09:20.463Z</time>
      </trkpt>
      <trkpt lat="42.59012312628329" lon="-8.652027267962694">
        <ele>24.0</ele>
        <time>2022-05-01T08:09:23.266Z</time>
      </trkpt>
      <trkpt lat="42.5907201692462" lon="-8.653037203475833">
        <ele>19.9</ele>
        <time>2022-05-01T08:09:41.588Z</time>
      </trkpt>
      <trkpt lat="42.5909738894552" lon="-8.65346459671855">
        <ele>20.7</ele>
        <time>2022-05-01T08:09:49.687Z</time>
      </trkpt>
      <trkpt lat="42.59280005469918" lon="-8.652437310665846">
        <ele>19.6</ele>
        <time>2022-05-01T08:10:30.535Z</time>
      </trkpt>
      <trkpt lat="42.59335258975625" lon="-8.65219566039741">
        <ele>18.9</ele>
        <time>2022-05-01T08:10:42.887Z</time>
      </trkpt>
      <trkpt lat="42.59367613121867" lon="-8.652030285447836">
        <ele>18.8</ele>
        <time>2022-05-01T08:10:50.416Z</time>
      </trkpt>
      <trkpt lat="42.593815019354224" lon="-8.65190296433866">
        <ele>18.9</ele>
        <time>2022-05-01T08:10:54.165Z</time>
      </trkpt>
      <trkpt lat="42.595604974776506" lon="-8.650437975302339">
        <ele>20.5</ele>
        <time>2022-05-01T08:11:42.148Z</time>
      </trkpt>
      <trkpt lat="42.595385033637285" lon="-8.649742025882006">
        <ele>20.9</ele>
        <time>2022-05-01T08:11:55.499Z</time>
      </trkpt>
      <trkpt lat="42.59533097036183" lon="-8.649525018408895">
        <ele>21.8</ele>
        <time>2022-05-01T08:11:59.630Z</time>
      </trkpt>
      <trkpt lat="42.595304986462" lon="-8.649156969040632">
        <ele>23.6</ele>
        <time>2022-05-01T08:12:06.472Z</time>
      </trkpt>
      <trkpt lat="42.59526299312711" lon="-8.648918000981212">
        <ele>24.3</ele>
        <time>2022-05-01T08:12:11.053Z</time>
      </trkpt>
      <trkpt lat="42.59522896260023" lon="-8.648809036239982">
        <ele>24.7</ele>
        <time>2022-05-01T08:12:13.274Z</time>
      </trkpt>
      <trkpt lat="42.595109017565846" lon="-8.648727983236313">
        <ele>25.1</ele>
        <time>2022-05-01T08:12:16.733Z</time>
      </trkpt>
      <trkpt lat="42.59492402896285" lon="-8.648693030700088">
        <ele>25.6</ele>
        <time>2022-05-01T08:12:21.630Z</time>
      </trkpt>
      <trkpt lat="42.59455698542297" lon="-8.648697976022959">
        <ele>26.3</ele>
        <time>2022-05-01T08:12:31.337Z</time>
      </trkpt>
      <trkpt lat="42.594225984066725" lon="-8.648790009319782">
        <ele>26.2</ele>
        <time>2022-05-01T08:12:40.361Z</time>
      </trkpt>
      <trkpt lat="42.593992967158556" lon="-8.648754972964525">
        <ele>26.9</ele>
        <time>2022-05-01T08:12:46.664Z</time>
      </trkpt>
      <trkpt lat="42.593085039407015" lon="-8.64844098687172">
        <ele>29.8</ele>
        <time>2022-05-01T08:13:12.212Z</time>
      </trkpt>
      <trkpt lat="42.59259603917599" lon="-8.648167988285422">
        <ele>28.2</ele>
        <time>2022-05-01T08:13:26.222Z</time>
      </trkpt>
      <trkpt lat="42.59212497621775" lon="-8.648020969703794">
        <ele>26.6</ele>
        <time>2022-05-01T08:13:38.694Z</time>
      </trkpt>
      <trkpt lat="42.59121302515268" lon="-8.647787030786276">
        <ele>24.7</ele>
        <time>2022-05-01T08:14:01.160Z</time>
      </trkpt>
      <trkpt lat="42.59050500579178" lon="-8.647621991112828">
        <ele>23.0</ele>
        <time>2022-05-01T08:14:18.583Z</time>
      </trkpt>
      <trkpt lat="42.59018397890031" lon="-8.647439014166594">
        <ele>22.6</ele>
        <time>2022-05-01T08:14:26.978Z</time>
      </trkpt>
      <trkpt lat="42.58988298475742" lon="-8.647169033065438">
        <ele>22.8</ele>
        <time>2022-05-01T08:14:35.797Z</time>
      </trkpt>
      <trkpt lat="42.58961400948465" lon="-8.647012040019035">
        <ele>22.9</ele>
        <time>2022-05-01T08:14:43.042Z</time>
      </trkpt>
      <trkpt lat="42.58954502642155" lon="-8.646941967308521">
        <ele>22.9</ele>
        <time>2022-05-01T08:14:45.194Z</time>
      </trkpt>
      <trkpt lat="42.589431032538414" lon="-8.646587999537587">
        <ele>23.1</ele>
        <time>2022-05-01T08:14:52.385Z</time>
      </trkpt>
      <trkpt lat="42.58933497592807" lon="-8.64640099927783">
        <ele>23.6</ele>
        <time>2022-05-01T08:14:56.658Z</time>
      </trkpt>
      <trkpt lat="42.58920698426664" lon="-8.646204024553299">
        <ele>24.1</ele>
        <time>2022-05-01T08:15:01.631Z</time>
      </trkpt>
      <trkpt lat="42.58893297985196" lon="-8.64599296823144">
        <ele>24.1</ele>
        <time>2022-05-01T08:15:09.882Z</time>
      </trkpt>
      <trkpt lat="42.58875695988536" lon="-8.64579800516367">
        <ele>24.4</ele>
        <time>2022-05-01T08:15:15.861Z</time>
      </trkpt>
      <trkpt lat="42.58862603455782" lon="-8.645543027669191">
        <ele>24.9</ele>
        <time>2022-05-01T08:15:22.016Z</time>
      </trkpt>
      <trkpt lat="42.58851598016918" lon="-8.64520096220076">
        <ele>25.8</ele>
        <time>2022-05-01T08:15:29.400Z</time>
      </trkpt>
      <trkpt lat="42.58843400515616" lon="-8.645027037709951">
        <ele>26.3</ele>
        <time>2022-05-01T08:15:33.475Z</time>
      </trkpt>
      <trkpt lat="42.5884370226413" lon="-8.644857974722981">
        <ele>27.0</ele>
        <time>2022-05-01T08:15:36.843Z</time>
      </trkpt>
      <trkpt lat="42.58858102373779" lon="-8.644524039700627">
        <ele>27.6</ele>
        <time>2022-05-01T08:15:44.655Z</time>
      </trkpt>
      <trkpt lat="42.588981008157134" lon="-8.643852984532714">
        <ele>29.0</ele>
        <time>2022-05-01T08:16:02.992Z</time>
      </trkpt>
      <trkpt lat="42.58908301591873" lon="-8.643463980406523">
        <ele>30.1</ele>
        <time>2022-05-01T08:16:11.728Z</time>
      </trkpt>
      <trkpt lat="42.58940496481955" lon="-8.643245967105031">
        <ele>30.6</ele>
        <time>2022-05-01T08:16:21.947Z</time>
      </trkpt>
      <trkpt lat="42.58940203115344" lon="-8.643138008192182">
        <ele>30.9</ele>
        <time>2022-05-01T08:16:24.181Z</time>
      </trkpt>
      <trkpt lat="42.589348973706365" lon="-8.643044969066978">
        <ele>31.4</ele>
        <time>2022-05-01T08:16:26.592Z</time>
      </trkpt>
      <trkpt lat="42.58919399231672" lon="-8.642872972413898">
        <ele>31.7</ele>
        <time>2022-05-01T08:16:32.121Z</time>
      </trkpt>
      <trkpt lat="42.58922500535846" lon="-8.642712039873004">
        <ele>31.9</ele>
        <time>2022-05-01T08:16:35.482Z</time>
      </trkpt>
      <trkpt lat="42.58950303308666" lon="-8.642502995207906">
        <ele>32.3</ele>
        <time>2022-05-01T08:16:44.172Z</time>
      </trkpt>
      <trkpt lat="42.58967402391136" lon="-8.642176017165184">
        <ele>33.2</ele>
        <time>2022-05-01T08:16:52.374Z</time>
      </trkpt>
      <trkpt lat="42.589950039982796" lon="-8.641364984214306">
        <ele>37.3</ele>
        <time>2022-05-01T08:17:12.871Z</time>
      </trkpt>
      <trkpt lat="42.590060010552406" lon="-8.640983020886779">
        <ele>39.4</ele>
        <time>2022-05-01T08:17:22.332Z</time>
      </trkpt>
      <trkpt lat="42.590109799057245" lon="-8.640831056982279">
        <ele>40.6</ele>
        <time>2022-05-01T08:17:26.466Z</time>
      </trkpt>
      <trkpt lat="42.5901776086539" lon="-8.640826530754566">
        <ele>41.0</ele>
        <time>2022-05-01T08:17:28.666Z</time>
      </trkpt>
      <trkpt lat="42.590405931696296" lon="-8.640925772488117">
        <ele>43.2</ele>
        <time>2022-05-01T08:17:36.931Z</time>
      </trkpt>
      <trkpt lat="42.59056149981916" lon="-8.640961730852723">
        <ele>45.3</ele>
        <time>2022-05-01T08:17:42.868Z</time>
      </trkpt>
      <trkpt lat="42.59074875153601" lon="-8.640995174646378">
        <ele>47.8</ele>
        <time>2022-05-01T08:17:49.989Z</time>
      </trkpt>
      <trkpt lat="42.59096659719944" lon="-8.641044292598963">
        <ele>50.7</ele>
        <time>2022-05-01T08:17:59.133Z</time>
      </trkpt>
      <trkpt lat="42.59107363410294" lon="-8.641062481328845">
        <ele>52.0</ele>
        <time>2022-05-01T08:18:04.169Z</time>
      </trkpt>
      <trkpt lat="42.59119818918407" lon="-8.641088800504804">
        <ele>53.3</ele>
        <time>2022-05-01T08:18:10.153Z</time>
      </trkpt>
      <trkpt lat="42.59133246727288" lon="-8.641103971749544">
        <ele>54.7</ele>
        <time>2022-05-01T08:18:16.623Z</time>
      </trkpt>
      <trkpt lat="42.59144553914666" lon="-8.641098439693451">
        <ele>56.0</ele>
        <time>2022-05-01T08:18:22.240Z</time>
      </trkpt>
      <trkpt lat="42.59163497015834" lon="-8.641021912917495">
        <ele>59.5</ele>
        <time>2022-05-01T08:18:32.526Z</time>
      </trkpt>
      <trkpt lat="42.59182121604681" lon="-8.64094354212284">
        <ele>61.8</ele>
        <time>2022-05-01T08:18:43.113Z</time>
      </trkpt>
      <trkpt lat="42.59205129928887" lon="-8.640865506604314">
        <ele>63.1</ele>
        <time>2022-05-01T08:18:57.009Z</time>
      </trkpt>
      <trkpt lat="42.59224047884345" lon="-8.640795098617673">
        <ele>65.6</ele>
        <time>2022-05-01T08:19:09.001Z</time>
      </trkpt>
      <trkpt lat="42.592351622879505" lon="-8.640746483579278">
        <ele>67.4</ele>
        <time>2022-05-01T08:19:16.173Z</time>
      </trkpt>
      <trkpt lat="42.592534348368645" lon="-8.640705915167928">
        <ele>69.7</ele>
        <time>2022-05-01T08:19:26.243Z</time>
      </trkpt>
      <trkpt lat="42.59276149794459" lon="-8.640676494687796">
        <ele>70.0</ele>
        <time>2022-05-01T08:19:37.214Z</time>
      </trkpt>
      <trkpt lat="42.59292343631387" lon="-8.64068252965808">
        <ele>68.0</ele>
        <time>2022-05-01T08:19:44.176Z</time>
      </trkpt>
      <trkpt lat="42.59308713488281" lon="-8.640658222138882">
        <ele>67.3</ele>
        <time>2022-05-01T08:19:50.766Z</time>
      </trkpt>
      <trkpt lat="42.59324572049081" lon="-8.640645565465093">
        <ele>66.7</ele>
        <time>2022-05-01T08:19:56.880Z</time>
      </trkpt>
      <trkpt lat="42.59337807074189" lon="-8.640617653727531">
        <ele>66.6</ele>
        <time>2022-05-01T08:20:01.980Z</time>
      </trkpt>
      <trkpt lat="42.593533638864756" lon="-8.640580186620355">
        <ele>66.7</ele>
        <time>2022-05-01T08:20:07.896Z</time>
      </trkpt>
      <trkpt lat="42.59364964440465" lon="-8.640525955706835">
        <ele>67.7</ele>
        <time>2022-05-01T08:20:12.220Z</time>
      </trkpt>
      <trkpt lat="42.5937850959599" lon="-8.640466360375285">
        <ele>68.9</ele>
        <time>2022-05-01T08:20:17.372Z</time>
      </trkpt>
      <trkpt lat="42.59395935572684" lon="-8.640345241874456">
        <ele>71.6</ele>
        <time>2022-05-01T08:20:24.877Z</time>
      </trkpt>
      <trkpt lat="42.59412607178092" lon="-8.640198893845081">
        <ele>74.2</ele>
        <time>2022-05-01T08:20:32.878Z</time>
      </trkpt>
      <trkpt lat="42.59430393576622" lon="-8.640017006546259">
        <ele>77.0</ele>
        <time>2022-05-01T08:20:42.881Z</time>
      </trkpt>
      <trkpt lat="42.59446847252548" lon="-8.639833526685834">
        <ele>79.5</ele>
        <time>2022-05-01T08:20:53.266Z</time>
      </trkpt>
      <trkpt lat="42.59458590298891" lon="-8.639681562781334">
        <ele>81.4</ele>
        <time>2022-05-01T08:21:02.073Z</time>
      </trkpt>
      <trkpt lat="42.59469226934016" lon="-8.63956505432725">
        <ele>83.2</ele>
        <time>2022-05-01T08:21:10.497Z</time>
      </trkpt>
      <trkpt lat="42.59484590962529" lon="-8.639410994946957">
        <ele>84.6</ele>
        <time>2022-05-01T08:21:21.116Z</time>
      </trkpt>
      <trkpt lat="42.594944732263684" lon="-8.639342598617077">
        <ele>84.9</ele>
        <time>2022-05-01T08:21:26.409Z</time>
      </trkpt>
      <trkpt lat="42.59500332176685" lon="-8.639269676059484">
        <ele>85.3</ele>
        <time>2022-05-01T08:21:29.794Z</time>
      </trkpt>
      <trkpt lat="42.59501488879323" lon="-8.639154676347971">
        <ele>86.6</ele>
        <time>2022-05-01T08:21:33.876Z</time>
      </trkpt>
      <trkpt lat="42.59500214830041" lon="-8.638847144320607">
        <ele>90.1</ele>
        <time>2022-05-01T08:21:44.434Z</time>
      </trkpt>
      <trkpt lat="42.59499913081527" lon="-8.638675399124622">
        <ele>91.5</ele>
        <time>2022-05-01T08:21:49.720Z</time>
      </trkpt>
      <trkpt lat="42.59496258571744" lon="-8.638536594808102">
        <ele>92.9</ele>
        <time>2022-05-01T08:21:54.632Z</time>
      </trkpt>
      <trkpt lat="42.594935009256005" lon="-8.638472305610776">
        <ele>93.6</ele>
        <time>2022-05-01T08:21:56.873Z</time>
      </trkpt>
      <trkpt lat="42.59489502757788" lon="-8.638397036120296">
        <ele>94.4</ele>
        <time>2022-05-01T08:21:59.456Z</time>
      </trkpt>
      <trkpt lat="42.5947780162096" lon="-8.638081960380077">
        <ele>96.0</ele>
        <time>2022-05-01T08:22:10.288Z</time>
      </trkpt>
      <trkpt lat="42.594743985682726" lon="-8.63774299621582">
        <ele>96.3</ele>
        <time>2022-05-01T08:22:20.729Z</time>
      </trkpt>
      <trkpt lat="42.59479695931077" lon="-8.637359021231532">
        <ele>97.9</ele>
        <time>2022-05-01T08:22:32.227Z</time>
      </trkpt>
      <trkpt lat="42.594911959022284" lon="-8.637003041803837">
        <ele>99.9</ele>
        <time>2022-05-01T08:22:43.742Z</time>
      </trkpt>
      <trkpt lat="42.59514195844531" lon="-8.63671001046896">
        <ele>100.7</ele>
        <time>2022-05-01T08:22:55.628Z</time>
      </trkpt>
      <trkpt lat="42.59587403386831" lon="-8.63597902469337">
        <ele>102.2</ele>
        <time>2022-05-01T08:23:27.936Z</time>
      </trkpt>
      <trkpt lat="42.596223978325725" lon="-8.635556995868683">
        <ele>99.6</ele>
        <time>2022-05-01T08:23:42.575Z</time>
      </trkpt>
      <trkpt lat="42.596311988309026" lon="-8.635325990617275">
        <ele>97.0</ele>
        <time>2022-05-01T08:23:48.405Z</time>
      </trkpt>
      <trkpt lat="42.596332021057606" lon="-8.634893987327814">
        <ele>93.1</ele>
        <time>2022-05-01T08:23:58.533Z</time>
      </trkpt>
      <trkpt lat="42.59638298302889" lon="-8.634053030982614">
        <ele>104.3</ele>
        <time>2022-05-01T08:24:19.097Z</time>
      </trkpt>
      <trkpt lat="42.59636102244258" lon="-8.633730998262763">
        <ele>105.5</ele>
        <time>2022-05-01T08:24:27.457Z</time>
      </trkpt>
      <trkpt lat="42.59634199552238" lon="-8.633594959974289">
        <ele>106.0</ele>
        <time>2022-05-01T08:24:31.476Z</time>
      </trkpt>
      <trkpt lat="42.596292961388826" lon="-8.633514996618032">
        <ele>105.7</ele>
        <time>2022-05-01T08:24:34.289Z</time>
      </trkpt>
      <trkpt lat="42.596179973334074" lon="-8.63340301439166">
        <ele>105.0</ele>
        <time>2022-05-01T08:24:39.440Z</time>
      </trkpt>
      <trkpt lat="42.59595299139619" lon="-8.633284997195005">
        <ele>106.7</ele>
        <time>2022-05-01T08:24:48.324Z</time>
      </trkpt>
      <trkpt lat="42.5957450363785" lon="-8.63310000859201">
        <ele>111.6</ele>
        <time>2022-05-01T08:24:57.284Z</time>
      </trkpt>
      <trkpt lat="42.59561100974679" lon="-8.633090034127235">
        <ele>112.8</ele>
        <time>2022-05-01T08:25:02.016Z</time>
      </trkpt>
      <trkpt lat="42.59536198340356" lon="-8.633091039955616">
        <ele>113.5</ele>
        <time>2022-05-01T08:25:11.239Z</time>
      </trkpt>
      <trkpt lat="42.59525100700557" lon="-8.633075030520558">
        <ele>113.4</ele>
        <time>2022-05-01T08:25:15.538Z</time>
      </trkpt>
      <trkpt lat="42.59514497593045" lon="-8.632986014708877">
        <ele>114.2</ele>
        <time>2022-05-01T08:25:20.215Z</time>
      </trkpt>
      <trkpt lat="42.59503601118922" lon="-8.632895993068814">
        <ele>115.2</ele>
        <time>2022-05-01T08:25:25.315Z</time>
      </trkpt>
      <trkpt lat="42.59485797956586" lon="-8.632840001955628">
        <ele>115.3</ele>
        <time>2022-05-01T08:25:33.690Z</time>
      </trkpt>
      <trkpt lat="42.59472898207605" lon="-8.632806977257133">
        <ele>115.4</ele>
        <time>2022-05-01T08:25:39.353Z</time>
      </trkpt>
      <trkpt lat="42.594342995435" lon="-8.632551999762654">
        <ele>117.8</ele>
        <time>2022-05-01T08:25:56.625Z</time>
      </trkpt>
      <trkpt lat="42.59421399794519" lon="-8.632411016151309">
        <ele>118.5</ele>
        <time>2022-05-01T08:26:03.037Z</time>
      </trkpt>
      <trkpt lat="42.59417099878192" lon="-8.632320994511247">
        <ele>118.8</ele>
        <time>2022-05-01T08:26:06.215Z</time>
      </trkpt>
      <trkpt lat="42.59414300322533" lon="-8.632247988134623">
        <ele>118.7</ele>
        <time>2022-05-01T08:26:08.477Z</time>
      </trkpt>
      <trkpt lat="42.594162030145526" lon="-8.632102981209755">
        <ele>119.6</ele>
        <time>2022-05-01T08:26:12.289Z</time>
      </trkpt>
      <trkpt lat="42.594203017652035" lon="-8.632033998146653">
        <ele>120.0</ele>
        <time>2022-05-01T08:26:14.475Z</time>
      </trkpt>
      <trkpt lat="42.59443201124668" lon="-8.631893014535308">
        <ele>124.4</ele>
        <time>2022-05-01T08:26:22.577Z</time>
      </trkpt>
      <trkpt lat="42.59479503147304" lon="-8.631709031760693">
        <ele>131.0</ele>
        <time>2022-05-01T08:26:36.809Z</time>
      </trkpt>
      <trkpt lat="42.59489796124399" lon="-8.631711965426803">
        <ele>132.5</ele>
        <time>2022-05-01T08:26:40.382Z</time>
      </trkpt>
      <trkpt lat="42.59509895928204" lon="-8.631805004552007">
        <ele>134.6</ele>
        <time>2022-05-01T08:26:47.424Z</time>
      </trkpt>
      <trkpt lat="42.59518001228571" lon="-8.6318330001086">
        <ele>135.3</ele>
        <time>2022-05-01T08:26:50.095Z</time>
      </trkpt>
      <trkpt lat="42.59531102143228" lon="-8.63179000094533">
        <ele>136.7</ele>
        <time>2022-05-01T08:26:54.271Z</time>
      </trkpt>
      <trkpt lat="42.59535896591842" lon="-8.631754964590073">
        <ele>137.2</ele>
        <time>2022-05-01T08:26:56.215Z</time>
      </trkpt>
      <trkpt lat="42.59541504085064" lon="-8.63153301179409">
        <ele>139.4</ele>
        <time>2022-05-01T08:27:02.078Z</time>
      </trkpt>
      <trkpt lat="42.595429038628936" lon="-8.631385993212461">
        <ele>141.3</ele>
        <time>2022-05-01T08:27:05.631Z</time>
      </trkpt>
      <trkpt lat="42.59539701975882" lon="-8.631310975179076">
        <ele>142.4</ele>
        <time>2022-05-01T08:27:07.985Z</time>
      </trkpt>
      <trkpt lat="42.59514397010207" lon="-8.631170997396111">
        <ele>142.7</ele>
        <time>2022-05-01T08:27:18.057Z</time>
      </trkpt>
      <trkpt lat="42.595040034502745" lon="-8.631066977977753">
        <ele>143.3</ele>
        <time>2022-05-01T08:27:22.902Z</time>
      </trkpt>
      <trkpt lat="42.5949630048126" lon="-8.630860028788447">
        <ele>144.6</ele>
        <time>2022-05-01T08:27:28.931Z</time>
      </trkpt>
      <trkpt lat="42.594913970679045" lon="-8.630708986893296">
        <ele>145.3</ele>
        <time>2022-05-01T08:27:33.353Z</time>
      </trkpt>
      <trkpt lat="42.59488304145634" lon="-8.630514023825526">
        <ele>146.6</ele>
        <time>2022-05-01T08:27:38.411Z</time>
      </trkpt>
      <trkpt lat="42.59489502757788" lon="-8.63039500080049">
        <ele>147.3</ele>
        <time>2022-05-01T08:27:41.915Z</time>
      </trkpt>
      <trkpt lat="42.594955964013934" lon="-8.630269020795822">
        <ele>148.8</ele>
        <time>2022-05-01T08:27:46.483Z</time>
      </trkpt>
      <trkpt lat="42.595127038657665" lon="-8.630110016092658">
        <ele>151.4</ele>
        <time>2022-05-01T08:27:55.194Z</time>
      </trkpt>
      <trkpt lat="42.595277996733785" lon="-8.630024017766118">
        <ele>153.6</ele>
        <time>2022-05-01T08:28:03.067Z</time>
      </trkpt>
      <trkpt lat="42.59546097368002" lon="-8.630004990845919">
        <ele>156.4</ele>
        <time>2022-05-01T08:28:11.346Z</time>
      </trkpt>
      <trkpt lat="42.59559399448335" lon="-8.629930978640914">
        <ele>158.1</ele>
        <time>2022-05-01T08:28:18.278Z</time>
      </trkpt>
      <trkpt lat="42.59571603499353" lon="-8.629799969494343">
        <ele>159.6</ele>
        <time>2022-05-01T08:28:26.802Z</time>
      </trkpt>
      <trkpt lat="42.595815025269985" lon="-8.629615986719728">
        <ele>161.1</ele>
        <time>2022-05-01T08:28:36.231Z</time>
      </trkpt>
      <trkpt lat="42.59587001055479" lon="-8.629391016438603">
        <ele>163.9</ele>
        <time>2022-05-01T08:28:46.058Z</time>
      </trkpt>
      <trkpt lat="42.59583296254277" lon="-8.629264030605555">
        <ele>165.4</ele>
        <time>2022-05-01T08:28:52.113Z</time>
      </trkpt>
      <trkpt lat="42.595772026106715" lon="-8.6291460134089">
        <ele>166.7</ele>
        <time>2022-05-01T08:28:58.333Z</time>
      </trkpt>
      <trkpt lat="42.59568301029503" lon="-8.629052974283695">
        <ele>167.8</ele>
        <time>2022-05-01T08:29:03.902Z</time>
      </trkpt>
      <trkpt lat="42.59546399116516" lon="-8.628875026479363">
        <ele>168.8</ele>
        <time>2022-05-01T08:29:15.092Z</time>
      </trkpt>
      <trkpt lat="42.59534899145365" lon="-8.62873999401927">
        <ele>169.2</ele>
        <time>2022-05-01T08:29:22.710Z</time>
      </trkpt>
      <trkpt lat="42.59528696537018" lon="-8.628649972379208">
        <ele>169.5</ele>
        <time>2022-05-01T08:29:27.342Z</time>
      </trkpt>
      <trkpt lat="42.59525100700557" lon="-8.628528015688062">
        <ele>170.3</ele>
        <time>2022-05-01T08:29:32.921Z</time>
      </trkpt>
      <trkpt lat="42.59526198729873" lon="-8.628431037068367">
        <ele>172.1</ele>
        <time>2022-05-01T08:29:37.641Z</time>
      </trkpt>
      <trkpt lat="42.59533599950373" lon="-8.6282860301435">
        <ele>175.2</ele>
        <time>2022-05-01T08:29:46.037Z</time>
      </trkpt>
      <trkpt lat="42.59537003003061" lon="-8.628072962164879">
        <ele>177.9</ele>
        <time>2022-05-01T08:29:57.444Z</time>
      </trkpt>
      <trkpt lat="42.59539400227368" lon="-8.62760198302567">
        <ele>184.5</ele>
        <time>2022-05-01T08:30:22.249Z</time>
      </trkpt>
      <trkpt lat="42.595387967303395" lon="-8.62736402079463">
        <ele>187.7</ele>
        <time>2022-05-01T08:30:35.950Z</time>
      </trkpt>
      <trkpt lat="42.59537497535348" lon="-8.627249021083117">
        <ele>189.1</ele>
        <time>2022-05-01T08:30:43.075Z</time>
      </trkpt>
      <trkpt lat="42.59535200893879" lon="-8.62715003080666">
        <ele>190.3</ele>
        <time>2022-05-01T08:30:50.160Z</time>
      </trkpt>
      <trkpt lat="42.59529400616884" lon="-8.627049028873444">
        <ele>191.0</ele>
        <time>2022-05-01T08:30:59.159Z</time>
      </trkpt>
      <trkpt lat="42.59515897370875" lon="-8.626939980313182">
        <ele>192.2</ele>
        <time>2022-05-01T08:31:11.307Z</time>
      </trkpt>
      <trkpt lat="42.59500499814749" lon="-8.626801008358598">
        <ele>193.6</ele>
        <time>2022-05-01T08:31:27.197Z</time>
      </trkpt>
      <trkpt lat="42.59483199566603" lon="-8.626601016148925">
        <ele>195.1</ele>
        <time>2022-05-01T08:31:44.977Z</time>
      </trkpt>
      <trkpt lat="42.594677014276385" lon="-8.62637696787715">
        <ele>197.4</ele>
        <time>2022-05-01T08:32:02.564Z</time>
      </trkpt>
      <trkpt lat="42.59456100873649" lon="-8.626243025064468">
        <ele>198.5</ele>
        <time>2022-05-01T08:32:14.140Z</time>
      </trkpt>
      <trkpt lat="42.59444399736822" lon="-8.626148980110884">
        <ele>199.4</ele>
        <time>2022-05-01T08:32:23.341Z</time>
      </trkpt>
      <trkpt lat="42.59442203678191" lon="-8.626100029796362">
        <ele>200.0</ele>
        <time>2022-05-01T08:32:25.655Z</time>
      </trkpt>
      <trkpt lat="42.5944999884814" lon="-8.62596700899303">
        <ele>202.0</ele>
        <time>2022-05-01T08:32:31.570Z</time>
      </trkpt>
      <trkpt lat="42.59466703981161" lon="-8.625785037875175">
        <ele>204.7</ele>
        <time>2022-05-01T08:32:41.480Z</time>
      </trkpt>
      <trkpt lat="42.59489796124399" lon="-8.625543974339962">
        <ele>208.8</ele>
        <time>2022-05-01T08:32:54.998Z</time>
      </trkpt>
      <trkpt lat="42.595022013410926" lon="-8.625349011272192">
        <ele>211.3</ele>
        <time>2022-05-01T08:33:03.476Z</time>
      </trkpt>
      <trkpt lat="42.59522602893412" lon="-8.624911978840828">
        <ele>214.9</ele>
        <time>2022-05-01T08:33:22.809Z</time>
      </trkpt>
      <trkpt lat="42.59533398784697" lon="-8.624667981639504">
        <ele>215.7</ele>
        <time>2022-05-01T08:33:34.173Z</time>
      </trkpt>
      <trkpt lat="42.59546499699354" lon="-8.624259028583765">
        <ele>217.6</ele>
        <time>2022-05-01T08:33:51.615Z</time>
      </trkpt>
      <trkpt lat="42.59557396173477" lon="-8.623897014185786">
        <ele>219.9</ele>
        <time>2022-05-01T08:34:06.831Z</time>
      </trkpt>
      <trkpt lat="42.595641016960144" lon="-8.623559977859259">
        <ele>222.2</ele>
        <time>2022-05-01T08:34:20.321Z</time>
      </trkpt>
      <trkpt lat="42.59571402333677" lon="-8.623061003163457">
        <ele>224.8</ele>
        <time>2022-05-01T08:34:41.375Z</time>
      </trkpt>
      <trkpt lat="42.59573598392308" lon="-8.622761014848948">
        <ele>226.4</ele>
        <time>2022-05-01T08:34:53.634Z</time>
      </trkpt>
      <trkpt lat="42.5957260094583" lon="-8.622481981292367">
        <ele>228.2</ele>
        <time>2022-05-01T08:35:04.140Z</time>
      </trkpt>
      <trkpt lat="42.595733972266316" lon="-8.622239995747805">
        <ele>229.6</ele>
        <time>2022-05-01T08:35:13.661Z</time>
      </trkpt>
      <trkpt lat="42.595750987529755" lon="-8.622061964124441">
        <ele>230.8</ele>
        <time>2022-05-01T08:35:20.413Z</time>
      </trkpt>
      <trkpt lat="42.59584100916982" lon="-8.621980994939804">
        <ele>232.2</ele>
        <time>2022-05-01T08:35:25.669Z</time>
      </trkpt>
      <trkpt lat="42.595947962254286" lon="-8.621847974136472">
        <ele>233.8</ele>
        <time>2022-05-01T08:35:32.789Z</time>
      </trkpt>
      <trkpt lat="42.59604997001588" lon="-8.621631972491741">
        <ele>236.1</ele>
        <time>2022-05-01T08:35:41.020Z</time>
      </trkpt>
      <trkpt lat="42.596139991655946" lon="-8.621357968077064">
        <ele>238.6</ele>
        <time>2022-05-01T08:35:50.559Z</time>
      </trkpt>
      <trkpt lat="42.596222972497344" lon="-8.621211033314466">
        <ele>238.8</ele>
        <time>2022-05-01T08:35:56.243Z</time>
      </trkpt>
      <trkpt lat="42.5963079649955" lon="-8.621095027774572">
        <ele>238.1</ele>
        <time>2022-05-01T08:36:00.493Z</time>
      </trkpt>
      <trkpt lat="42.59638801217079" lon="-8.620978016406298">
        <ele>236.9</ele>
        <time>2022-05-01T08:36:04.552Z</time>
      </trkpt>
      <trkpt lat="42.59646504186094" lon="-8.620786992833018">
        <ele>234.8</ele>
        <time>2022-05-01T08:36:09.883Z</time>
      </trkpt>
      <trkpt lat="42.59670903906226" lon="-8.6200160253793">
        <ele>227.2</ele>
        <time>2022-05-01T08:36:24.234Z</time>
      </trkpt>
      <trkpt lat="42.59687600657344" lon="-8.61949902959168">
        <ele>222.7</ele>
        <time>2022-05-01T08:36:32.173Z</time>
      </trkpt>
      <trkpt lat="42.596997041255236" lon="-8.619172973558307">
        <ele>220.7</ele>
        <time>2022-05-01T08:36:36.622Z</time>
      </trkpt>
      <trkpt lat="42.59709401987493" lon="-8.619052022695541">
        <ele>219.1</ele>
        <time>2022-05-01T08:36:38.930Z</time>
      </trkpt>
      <trkpt lat="42.59741404093802" lon="-8.618738958612084">
        <ele>214.1</ele>
        <time>2022-05-01T08:36:45.201Z</time>
      </trkpt>
      <trkpt lat="42.59754496626556" lon="-8.61851499415934">
        <ele>211.8</ele>
        <time>2022-05-01T08:36:48.186Z</time>
      </trkpt>
      <trkpt lat="42.597623001784086" lon="-8.618305027484894">
        <ele>210.2</ele>
        <time>2022-05-01T08:36:50.825Z</time>
      </trkpt>
      <trkpt lat="42.59769500233233" lon="-8.618134036660194">
        <ele>209.4</ele>
        <time>2022-05-01T08:36:52.838Z</time>
      </trkpt>
      <trkpt lat="42.597923995926976" lon="-8.617818960919976">
        <ele>206.8</ele>
        <time>2022-05-01T08:36:57.370Z</time>
      </trkpt>
      <trkpt lat="42.59806196205318" lon="-8.617555014789104">
        <ele>203.6</ele>
        <time>2022-05-01T08:37:01.041Z</time>
      </trkpt>
      <trkpt lat="42.598390029743314" lon="-8.616830985993147">
        <ele>195.3</ele>
        <time>2022-05-01T08:37:10.122Z</time>
      </trkpt>
      <trkpt lat="42.59844199754298" lon="-8.616755967959762">
        <ele>193.7</ele>
        <time>2022-05-01T08:37:11.285Z</time>
      </trkpt>
      <trkpt lat="42.59850704111159" lon="-8.616779018193483">
        <ele>192.3</ele>
        <time>2022-05-01T08:37:12.385Z</time>
      </trkpt>
      <trkpt lat="42.59851701557636" lon="-8.616913966834545">
        <ele>192.6</ele>
        <time>2022-05-01T08:37:14.119Z</time>
      </trkpt>
      <trkpt lat="42.59855900891125" lon="-8.617054028436542">
        <ele>192.4</ele>
        <time>2022-05-01T08:37:15.911Z</time>
      </trkpt>
      <trkpt lat="42.59863302111626" lon="-8.617144972085953">
        <ele>191.6</ele>
        <time>2022-05-01T08:37:17.674Z</time>
      </trkpt>
      <trkpt lat="42.598734023049474" lon="-8.617131980136037">
        <ele>189.7</ele>
        <time>2022-05-01T08:37:19.561Z</time>
      </trkpt>
      <trkpt lat="42.598866960033774" lon="-8.61707297153771">
        <ele>187.0</ele>
        <time>2022-05-01T08:37:22.284Z</time>
      </trkpt>
      <trkpt lat="42.59896100498736" lon="-8.617037013173103">
        <ele>184.9</ele>
        <time>2022-05-01T08:37:23.960Z</time>
      </trkpt>
      <trkpt lat="42.59913400746882" lon="-8.617110019549727">
        <ele>183.1</ele>
        <time>2022-05-01T08:37:27.242Z</time>
      </trkpt>
      <trkpt lat="42.59926903992891" lon="-8.617200963199139">
        <ele>181.9</ele>
        <time>2022-05-01T08:37:29.971Z</time>
      </trkpt>
      <trkpt lat="42.599425027146935" lon="-8.617235999554396">
        <ele>178.8</ele>
        <time>2022-05-01T08:37:32.472Z</time>
      </trkpt>
      <trkpt lat="42.59945402853191" lon="-8.617232982069254">
        <ele>178.2</ele>
        <time>2022-05-01T08:37:32.927Z</time>
      </trkpt>
      <trkpt lat="42.5994270388037" lon="-8.617122005671263">
        <ele>177.8</ele>
        <time>2022-05-01T08:37:34.362Z</time>
      </trkpt>
      <trkpt lat="42.59928303770721" lon="-8.616940034553409">
        <ele>178.2</ele>
        <time>2022-05-01T08:37:37.836Z</time>
      </trkpt>
      <trkpt lat="42.599018001928926" lon="-8.61670601181686">
        <ele>178.8</ele>
        <time>2022-05-01T08:37:43.578Z</time>
      </trkpt>
      <trkpt lat="42.59894600138068" lon="-8.616623030975461">
        <ele>179.1</ele>
        <time>2022-05-01T08:37:45.311Z</time>
      </trkpt>
      <trkpt lat="42.598890010267496" lon="-8.616480035707355">
        <ele>179.0</ele>
        <time>2022-05-01T08:37:47.542Z</time>
      </trkpt>
      <trkpt lat="42.59883401915431" lon="-8.61623796634376">
        <ele>178.1</ele>
        <time>2022-05-01T08:37:51.077Z</time>
      </trkpt>
      <trkpt lat="42.598760006949306" lon="-8.616007966920733">
        <ele>176.9</ele>
        <time>2022-05-01T08:37:54.461Z</time>
      </trkpt>
      <trkpt lat="42.59872396476567" lon="-8.615816021338105">
        <ele>176.2</ele>
        <time>2022-05-01T08:37:56.955Z</time>
      </trkpt>
      <trkpt lat="42.598671996966004" lon="-8.6156539991498">
        <ele>176.0</ele>
        <time>2022-05-01T08:37:59.233Z</time>
      </trkpt>
      <trkpt lat="42.598632015287876" lon="-8.615562971681356">
        <ele>175.8</ele>
        <time>2022-05-01T08:38:00.625Z</time>
      </trkpt>
      <trkpt lat="42.598651964217424" lon="-8.615459958091378">
        <ele>175.4</ele>
        <time>2022-05-01T08:38:02.035Z</time>
      </trkpt>
      <trkpt lat="42.59863897226751" lon="-8.615297013893723">
        <ele>175.1</ele>
        <time>2022-05-01T08:38:04.251Z</time>
      </trkpt>
      <trkpt lat="42.59861902333796" lon="-8.615134991705418">
        <ele>175.0</ele>
        <time>2022-05-01T08:38:06.579Z</time>
      </trkpt>
      <trkpt lat="42.59864400140941" lon="-8.615038013085723">
        <ele>174.9</ele>
        <time>2022-05-01T08:38:08.025Z</time>
      </trkpt>
      <trkpt lat="42.59876503609121" lon="-8.614884037524462">
        <ele>174.2</ele>
        <time>2022-05-01T08:38:11.214Z</time>
      </trkpt>
      <trkpt lat="42.59891498833895" lon="-8.614865010604262">
        <ele>173.5</ele>
        <time>2022-05-01T08:38:13.957Z</time>
      </trkpt>
      <trkpt lat="42.59905303828418" lon="-8.614905998110771">
        <ele>172.5</ele>
        <time>2022-05-01T08:38:16.562Z</time>
      </trkpt>
      <trkpt lat="42.599170971661806" lon="-8.61490298062563">
        <ele>171.0</ele>
        <time>2022-05-01T08:38:18.656Z</time>
      </trkpt>
      <trkpt lat="42.59928597137332" lon="-8.614792004227638">
        <ele>169.8</ele>
        <time>2022-05-01T08:38:21.116Z</time>
      </trkpt>
      <trkpt lat="42.59950398467481" lon="-8.614566028118134">
        <ele>167.7</ele>
        <time>2022-05-01T08:38:25.171Z</time>
      </trkpt>
      <trkpt lat="42.59965896606445" lon="-8.614528980106115">
        <ele>166.6</ele>
        <time>2022-05-01T08:38:27.308Z</time>
      </trkpt>
      <trkpt lat="42.59976197965443" lon="-8.614526968449354">
        <ele>166.2</ele>
        <time>2022-05-01T08:38:28.748Z</time>
      </trkpt>
      <trkpt lat="42.59986298158765" lon="-8.61455898731947">
        <ele>166.0</ele>
        <time>2022-05-01T08:38:30.220Z</time>
      </trkpt>
      <trkpt lat="42.59995099157095" lon="-8.614566028118134">
        <ele>165.4</ele>
        <time>2022-05-01T08:38:31.360Z</time>
      </trkpt>
      <trkpt lat="42.60006196796894" lon="-8.614529985934496">
        <ele>164.2</ele>
        <time>2022-05-01T08:38:32.799Z</time>
      </trkpt>
      <trkpt lat="42.600198006257415" lon="-8.61440702341497">
        <ele>161.9</ele>
        <time>2022-05-01T08:38:34.974Z</time>
      </trkpt>
      <trkpt lat="42.60029196739197" lon="-8.61436896957457">
        <ele>160.7</ele>
        <time>2022-05-01T08:38:36.306Z</time>
      </trkpt>
      <trkpt lat="42.60036597959697" lon="-8.614369975402951">
        <ele>160.0</ele>
        <time>2022-05-01T08:38:37.390Z</time>
      </trkpt>
      <trkpt lat="42.60042297653854" lon="-8.614382967352867">
        <ele>159.4</ele>
        <time>2022-05-01T08:38:38.210Z</time>
      </trkpt>
      <trkpt lat="42.60048299096525" lon="-8.614367041736841">
        <ele>158.9</ele>
        <time>2022-05-01T08:38:39.143Z</time>
      </trkpt>
      <trkpt lat="42.60050696320832" lon="-8.614328987896442">
        <ele>158.5</ele>
        <time>2022-05-01T08:38:39.744Z</time>
      </trkpt>
      <trkpt lat="42.600480979308486" lon="-8.614188004285097">
        <ele>157.9</ele>
        <time>2022-05-01T08:38:41.464Z</time>
      </trkpt>
      <trkpt lat="42.60045097209513" lon="-8.614004021510482">
        <ele>156.1</ele>
        <time>2022-05-01T08:38:43.834Z</time>
      </trkpt>
      <trkpt lat="42.600476033985615" lon="-8.613931015133858">
        <ele>155.5</ele>
        <time>2022-05-01T08:38:44.792Z</time>
      </trkpt>
      <trkpt lat="42.60055901482701" lon="-8.613676959648728">
        <ele>154.0</ele>
        <time>2022-05-01T08:38:47.869Z</time>
      </trkpt>
      <trkpt lat="42.60059597902" lon="-8.613569000735879">
        <ele>153.5</ele>
        <time>2022-05-01T08:38:49.166Z</time>
      </trkpt>
      <trkpt lat="42.60062196291983" lon="-8.613301031291485">
        <ele>151.4</ele>
        <time>2022-05-01T08:38:51.880Z</time>
      </trkpt>
      <trkpt lat="42.600609976798296" lon="-8.61301302909851">
        <ele>149.0</ele>
        <time>2022-05-01T08:38:54.680Z</time>
      </trkpt>
      <trkpt lat="42.60059497319162" lon="-8.612587982788682">
        <ele>144.7</ele>
        <time>2022-05-01T08:38:58.660Z</time>
      </trkpt>
      <trkpt lat="42.60054501704872" lon="-8.612278020009398">
        <ele>140.9</ele>
        <time>2022-05-01T08:39:01.855Z</time>
      </trkpt>
      <trkpt lat="42.60051500983536" lon="-8.611977025866508">
        <ele>136.9</ele>
        <time>2022-05-01T08:39:04.883Z</time>
      </trkpt>
      <trkpt lat="42.600539987906814" lon="-8.611735962331295">
        <ele>133.0</ele>
        <time>2022-05-01T08:39:07.089Z</time>
      </trkpt>
      <trkpt lat="42.600672002881765" lon="-8.611520966514945">
        <ele>130.5</ele>
        <time>2022-05-01T08:39:09.787Z</time>
      </trkpt>
      <trkpt lat="42.60072899982333" lon="-8.611328015103936">
        <ele>129.0</ele>
        <time>2022-05-01T08:39:11.673Z</time>
      </trkpt>
      <trkpt lat="42.60074500925839" lon="-8.611266994848847">
        <ele>128.7</ele>
        <time>2022-05-01T08:39:12.311Z</time>
      </trkpt>
      <trkpt lat="42.60085296817124" lon="-8.611162975430489">
        <ele>128.1</ele>
        <time>2022-05-01T08:39:14.199Z</time>
      </trkpt>
      <trkpt lat="42.600974002853036" lon="-8.610917972400784">
        <ele>128.0</ele>
        <time>2022-05-01T08:39:17.184Z</time>
      </trkpt>
      <trkpt lat="42.60112898424268" lon="-8.610701970756054">
        <ele>128.0</ele>
        <time>2022-05-01T08:39:20.418Z</time>
      </trkpt>
      <trkpt lat="42.60132403112948" lon="-8.610588982701302">
        <ele>128.4</ele>
        <time>2022-05-01T08:39:23.730Z</time>
      </trkpt>
      <trkpt lat="42.60161002166569" lon="-8.61052100546658">
        <ele>128.8</ele>
        <time>2022-05-01T08:39:28.562Z</time>
      </trkpt>
      <trkpt lat="42.601809008046985" lon="-8.610504996031523">
        <ele>128.9</ele>
        <time>2022-05-01T08:39:32.075Z</time>
      </trkpt>
      <trkpt lat="42.60197597555816" lon="-8.61049896106124">
        <ele>128.9</ele>
        <time>2022-05-01T08:39:35.174Z</time>
      </trkpt>
      <trkpt lat="42.602067003026605" lon="-8.610431989654899">
        <ele>128.6</ele>
        <time>2022-05-01T08:39:37.186Z</time>
      </trkpt>
      <trkpt lat="42.6021000277251" lon="-8.610295029357076">
        <ele>128.3</ele>
        <time>2022-05-01T08:39:39.333Z</time>
      </trkpt>
      <trkpt lat="42.602067003026605" lon="-8.610235014930367">
        <ele>128.5</ele>
        <time>2022-05-01T08:39:40.489Z</time>
      </trkpt>
      <trkpt lat="42.602005982771516" lon="-8.610114986076951">
        <ele>128.2</ele>
        <time>2022-05-01T08:39:42.822Z</time>
      </trkpt>
      <trkpt lat="42.6019240077585" lon="-8.610032005235553">
        <ele>128.3</ele>
        <time>2022-05-01T08:39:45.115Z</time>
      </trkpt>
      <trkpt lat="42.60184697806835" lon="-8.609955981373787">
        <ele>128.3</ele>
        <time>2022-05-01T08:39:47.310Z</time>
      </trkpt>
      <trkpt lat="42.60179400444031" lon="-8.609857996925712">
        <ele>127.9</ele>
        <time>2022-05-01T08:39:49.414Z</time>
      </trkpt>
      <trkpt lat="42.60171001777053" lon="-8.609750038012862">
        <ele>128.1</ele>
        <time>2022-05-01T08:39:52.190Z</time>
      </trkpt>
      <trkpt lat="42.60160197503865" lon="-8.609716007485986">
        <ele>129.4</ele>
        <time>2022-05-01T08:39:54.904Z</time>
      </trkpt>
      <trkpt lat="42.60153902694583" lon="-8.609672002494335">
        <ele>130.3</ele>
        <time>2022-05-01T08:39:56.656Z</time>
      </trkpt>
      <trkpt lat="42.60149602778256" lon="-8.609514003619552">
        <ele>131.3</ele>
        <time>2022-05-01T08:39:59.768Z</time>
      </trkpt>
      <trkpt lat="42.60146803222597" lon="-8.60938299447298">
        <ele>131.0</ele>
        <time>2022-05-01T08:40:02.307Z</time>
      </trkpt>
      <trkpt lat="42.601400977000594" lon="-8.609300013631582">
        <ele>131.4</ele>
        <time>2022-05-01T08:40:04.758Z</time>
      </trkpt>
      <trkpt lat="42.60130500420928" lon="-8.609266988933086">
        <ele>131.8</ele>
        <time>2022-05-01T08:40:07.493Z</time>
      </trkpt>
      <trkpt lat="42.60112898424268" lon="-8.609247040003538">
        <ele>131.9</ele>
        <time>2022-05-01T08:40:12.491Z</time>
      </trkpt>
      <trkpt lat="42.60098095983267" lon="-8.609275035560131">
        <ele>132.5</ele>
        <time>2022-05-01T08:40:16.879Z</time>
      </trkpt>
      <trkpt lat="42.60079395957291" lon="-8.609304036945105">
        <ele>133.1</ele>
        <time>2022-05-01T08:40:22.396Z</time>
      </trkpt>
      <trkpt lat="42.60064098984003" lon="-8.609269000589848">
        <ele>133.3</ele>
        <time>2022-05-01T08:40:26.896Z</time>
      </trkpt>
      <trkpt lat="42.60048600845039" lon="-8.609236981719732">
        <ele>133.3</ele>
        <time>2022-05-01T08:40:31.379Z</time>
      </trkpt>
      <trkpt lat="42.60037997737527" lon="-8.609236981719732">
        <ele>133.4</ele>
        <time>2022-05-01T08:40:34.246Z</time>
      </trkpt>
      <trkpt lat="42.600307976827025" lon="-8.609305964782834">
        <ele>133.6</ele>
        <time>2022-05-01T08:40:36.620Z</time>
      </trkpt>
      <trkpt lat="42.60027604177594" lon="-8.609475027769804">
        <ele>134.2</ele>
        <time>2022-05-01T08:40:40.073Z</time>
      </trkpt>
      <trkpt lat="42.60022901929915" lon="-8.609748026356101">
        <ele>134.5</ele>
        <time>2022-05-01T08:40:45.609Z</time>
      </trkpt>
      <trkpt lat="42.60019398294389" lon="-8.609838970005512">
        <ele>134.4</ele>
        <time>2022-05-01T08:40:47.630Z</time>
      </trkpt>
      <trkpt lat="42.60010396130383" lon="-8.609933014959097">
        <ele>134.3</ele>
        <time>2022-05-01T08:40:50.664Z</time>
      </trkpt>
      <trkpt lat="42.60002299211919" lon="-8.609920023009181">
        <ele>134.2</ele>
        <time>2022-05-01T08:40:52.839Z</time>
      </trkpt>
      <trkpt lat="42.599921990185976" lon="-8.609716007485986">
        <ele>133.0</ele>
        <time>2022-05-01T08:40:57.651Z</time>
      </trkpt>
      <trkpt lat="42.59977798908949" lon="-8.609347958117723">
        <ele>130.7</ele>
        <time>2022-05-01T08:41:05.712Z</time>
      </trkpt>
      <trkpt lat="42.59964697994292" lon="-8.60899399034679">
        <ele>128.1</ele>
        <time>2022-05-01T08:41:13.347Z</time>
      </trkpt>
      <trkpt lat="42.599596017971635" lon="-8.60876097343862">
        <ele>127.6</ele>
        <time>2022-05-01T08:41:18.012Z</time>
      </trkpt>
      <trkpt lat="42.59947003796697" lon="-8.608517982065678">
        <ele>129.5</ele>
        <time>2022-05-01T08:41:22.571Z</time>
      </trkpt>
      <trkpt lat="42.59933299385011" lon="-8.608284965157509">
        <ele>131.8</ele>
        <time>2022-05-01T08:41:27.273Z</time>
      </trkpt>
      <trkpt lat="42.599148005247116" lon="-8.608063012361526">
        <ele>132.5</ele>
        <time>2022-05-01T08:41:32.595Z</time>
      </trkpt>
      <trkpt lat="42.59889101609588" lon="-8.60785597935319">
        <ele>130.5</ele>
        <time>2022-05-01T08:41:39.158Z</time>
      </trkpt>
      <trkpt lat="42.598697980865836" lon="-8.607717007398605">
        <ele>129.8</ele>
        <time>2022-05-01T08:41:44.078Z</time>
      </trkpt>
      <trkpt lat="42.59859697893262" lon="-8.607595972716808">
        <ele>130.3</ele>
        <time>2022-05-01T08:41:47.180Z</time>
      </trkpt>
      <trkpt lat="42.5985839869827" lon="-8.607439985498786">
        <ele>129.7</ele>
        <time>2022-05-01T08:41:49.275Z</time>
      </trkpt>
      <trkpt lat="42.59868700057268" lon="-8.607139997184277">
        <ele>126.1</ele>
        <time>2022-05-01T08:41:53.689Z</time>
      </trkpt>
      <trkpt lat="42.59872999973595" lon="-8.606970012187958">
        <ele>124.1</ele>
        <time>2022-05-01T08:41:55.811Z</time>
      </trkpt>
      <trkpt lat="42.59871097281575" lon="-8.606284959241748">
        <ele>120.1</ele>
        <time>2022-05-01T08:42:04.080Z</time>
      </trkpt>
      <trkpt lat="42.59873201139271" lon="-8.606037022545934">
        <ele>119.6</ele>
        <time>2022-05-01T08:42:07.229Z</time>
      </trkpt>
      <trkpt lat="42.59873201139271" lon="-8.605805011466146">
        <ele>120.6</ele>
        <time>2022-05-01T08:42:10.266Z</time>
      </trkpt>
      <trkpt lat="42.59875003248453" lon="-8.60566302202642">
        <ele>122.8</ele>
        <time>2022-05-01T08:42:12.303Z</time>
      </trkpt>
      <trkpt lat="42.59884097613394" lon="-8.605574006214738">
        <ele>124.5</ele>
        <time>2022-05-01T08:42:14.549Z</time>
      </trkpt>
      <trkpt lat="42.599057983607054" lon="-8.60553503036499">
        <ele>125.4</ele>
        <time>2022-05-01T08:42:19.279Z</time>
      </trkpt>
      <trkpt lat="42.59925998747349" lon="-8.60549102537334">
        <ele>126.0</ele>
        <time>2022-05-01T08:42:23.858Z</time>
      </trkpt>
      <trkpt lat="42.59941597469151" lon="-8.60540603287518">
        <ele>127.3</ele>
        <time>2022-05-01T08:42:27.841Z</time>
      </trkpt>
      <trkpt lat="42.599596017971635" lon="-8.605330009013414">
        <ele>128.3</ele>
        <time>2022-05-01T08:42:32.707Z</time>
      </trkpt>
      <trkpt lat="42.599727027118206" lon="-8.605263959616423">
        <ele>129.4</ele>
        <time>2022-05-01T08:42:36.585Z</time>
      </trkpt>
      <trkpt lat="42.59986901655793" lon="-8.605177961289883">
        <ele>131.2</ele>
        <time>2022-05-01T08:42:40.870Z</time>
      </trkpt>
      <trkpt lat="42.600077977404" lon="-8.605180978775024">
        <ele>129.7</ele>
        <time>2022-05-01T08:42:46.668Z</time>
      </trkpt>
      <trkpt lat="42.600261960178614" lon="-8.605110989883542">
        <ele>129.3</ele>
        <time>2022-05-01T08:42:51.960Z</time>
      </trkpt>
      <trkpt lat="42.60037997737527" lon="-8.60497696325183">
        <ele>129.9</ele>
        <time>2022-05-01T08:42:56.262Z</time>
      </trkpt>
      <trkpt lat="42.60049003176391" lon="-8.604846959933639">
        <ele>129.6</ele>
        <time>2022-05-01T08:43:00.318Z</time>
      </trkpt>
      <trkpt lat="42.60057502426207" lon="-8.60465300269425">
        <ele>129.5</ele>
        <time>2022-05-01T08:43:04.906Z</time>
      </trkpt>
      <trkpt lat="42.60061299428344" lon="-8.604448987171054">
        <ele>129.4</ele>
        <time>2022-05-01T08:43:09.161Z</time>
      </trkpt>
      <trkpt lat="42.60057603009045" lon="-8.604217981919646">
        <ele>130.5</ele>
        <time>2022-05-01T08:43:13.914Z</time>
      </trkpt>
      <trkpt lat="42.6005079690367" lon="-8.603900978341699">
        <ele>131.9</ele>
        <time>2022-05-01T08:43:20.609Z</time>
      </trkpt>
      <trkpt lat="42.60042297653854" lon="-8.603414995595813">
        <ele>132.2</ele>
        <time>2022-05-01T08:43:30.932Z</time>
      </trkpt>
      <trkpt lat="42.600239999592304" lon="-8.602964971214533">
        <ele>133.4</ele>
        <time>2022-05-01T08:43:41.734Z</time>
      </trkpt>
      <trkpt lat="42.60007998906076" lon="-8.602675963193178">
        <ele>134.9</ele>
        <time>2022-05-01T08:43:49.134Z</time>
      </trkpt>
      <trkpt lat="42.59992903098464" lon="-8.602300034835935">
        <ele>134.2</ele>
        <time>2022-05-01T08:43:57.822Z</time>
      </trkpt>
      <trkpt lat="42.599769020453095" lon="-8.602061988785863">
        <ele>133.4</ele>
        <time>2022-05-01T08:44:04.212Z</time>
      </trkpt>
      <trkpt lat="42.59965603239834" lon="-8.60183802433312">
        <ele>132.0</ele>
        <time>2022-05-01T08:44:09.400Z</time>
      </trkpt>
      <trkpt lat="42.59961303323507" lon="-8.601681031286716">
        <ele>131.5</ele>
        <time>2022-05-01T08:44:12.297Z</time>
      </trkpt>
      <trkpt lat="42.59960800409317" lon="-8.60145597718656">
        <ele>133.2</ele>
        <time>2022-05-01T08:44:16.085Z</time>
      </trkpt>
      <trkpt lat="42.59966801851988" lon="-8.601337959989905">
        <ele>134.0</ele>
        <time>2022-05-01T08:44:18.548Z</time>
      </trkpt>
      <trkpt lat="42.59979802183807" lon="-8.601213991641998">
        <ele>132.8</ele>
        <time>2022-05-01T08:44:22.322Z</time>
      </trkpt>
      <trkpt lat="42.599898017942905" lon="-8.60115297138691">
        <ele>131.2</ele>
        <time>2022-05-01T08:44:24.966Z</time>
      </trkpt>
      <trkpt lat="42.59999700821936" lon="-8.60100100748241">
        <ele>130.3</ele>
        <time>2022-05-01T08:44:28.545Z</time>
      </trkpt>
      <trkpt lat="42.600045036524534" lon="-8.600847031921148">
        <ele>128.9</ele>
        <time>2022-05-01T08:44:31.474Z</time>
      </trkpt>
      <trkpt lat="42.60005903430283" lon="-8.600730020552874">
        <ele>128.1</ele>
        <time>2022-05-01T08:44:33.564Z</time>
      </trkpt>
      <trkpt lat="42.60004000738263" lon="-8.600651985034347">
        <ele>128.1</ele>
        <time>2022-05-01T08:44:35.034Z</time>
      </trkpt>
      <trkpt lat="42.59998602792621" lon="-8.60055198892951">
        <ele>128.9</ele>
        <time>2022-05-01T08:44:37.261Z</time>
      </trkpt>
      <trkpt lat="42.59984797798097" lon="-8.600330958142877">
        <ele>131.0</ele>
        <time>2022-05-01T08:44:42.530Z</time>
      </trkpt>
      <trkpt lat="42.599747981876135" lon="-8.600020995363593">
        <ele>131.4</ele>
        <time>2022-05-01T08:44:48.623Z</time>
      </trkpt>
      <trkpt lat="42.59967799298465" lon="-8.599729975685477">
        <ele>131.3</ele>
        <time>2022-05-01T08:44:54.201Z</time>
      </trkpt>
      <trkpt lat="42.59962996467948" lon="-8.599511962383986">
        <ele>130.8</ele>
        <time>2022-05-01T08:44:58.500Z</time>
      </trkpt>
      <trkpt lat="42.59953902103007" lon="-8.599313981831074">
        <ele>131.5</ele>
        <time>2022-05-01T08:45:03.067Z</time>
      </trkpt>
      <trkpt lat="42.59942997246981" lon="-8.599083982408047">
        <ele>132.0</ele>
        <time>2022-05-01T08:45:08.469Z</time>
      </trkpt>
      <trkpt lat="42.59924800135195" lon="-8.598762033507228">
        <ele>132.9</ele>
        <time>2022-05-01T08:45:16.499Z</time>
      </trkpt>
      <trkpt lat="42.59909100830555" lon="-8.59846799634397">
        <ele>132.9</ele>
        <time>2022-05-01T08:45:23.896Z</time>
      </trkpt>
      <trkpt lat="42.598996041342616" lon="-8.598350984975696">
        <ele>133.4</ele>
        <time>2022-05-01T08:45:27.419Z</time>
      </trkpt>
      <trkpt lat="42.59884801693261" lon="-8.598202960565686">
        <ele>134.6</ele>
        <time>2022-05-01T08:45:32.586Z</time>
      </trkpt>
      <trkpt lat="42.598650036379695" lon="-8.59801596030593">
        <ele>134.8</ele>
        <time>2022-05-01T08:45:39.688Z</time>
      </trkpt>
      <trkpt lat="42.598502011969686" lon="-8.597914036363363">
        <ele>135.5</ele>
        <time>2022-05-01T08:45:44.670Z</time>
      </trkpt>
      <trkpt lat="42.59834501892328" lon="-8.597814040258527">
        <ele>136.0</ele>
        <time>2022-05-01T08:45:49.798Z</time>
      </trkpt>
      <trkpt lat="42.598158018663526" lon="-8.597719995304942">
        <ele>137.5</ele>
        <time>2022-05-01T08:45:55.794Z</time>
      </trkpt>
      <trkpt lat="42.5979970023036" lon="-8.597639026120305">
        <ele>139.5</ele>
        <time>2022-05-01T08:46:00.955Z</time>
      </trkpt>
      <trkpt lat="42.59792500175536" lon="-8.59758798032999">
        <ele>140.5</ele>
        <time>2022-05-01T08:46:03.347Z</time>
      </trkpt>
      <trkpt lat="42.59784897789359" lon="-8.597366027534008">
        <ele>139.6</ele>
        <time>2022-05-01T08:46:08.693Z</time>
      </trkpt>
      <trkpt lat="42.59778200648725" lon="-8.597154971212149">
        <ele>139.0</ele>
        <time>2022-05-01T08:46:13.685Z</time>
      </trkpt>
      <trkpt lat="42.59754002094269" lon="-8.596759010106325">
        <ele>139.0</ele>
        <time>2022-05-01T08:46:24.814Z</time>
      </trkpt>
      <trkpt lat="42.59733097627759" lon="-8.59649296849966">
        <ele>140.0</ele>
        <time>2022-05-01T08:46:33.158Z</time>
      </trkpt>
      <trkpt lat="42.5971370190382" lon="-8.59623103402555">
        <ele>140.6</ele>
        <time>2022-05-01T08:46:41.492Z</time>
      </trkpt>
      <trkpt lat="42.59676603600383" lon="-8.596109999343753">
        <ele>143.2</ele>
        <time>2022-05-01T08:46:54.087Z</time>
      </trkpt>
      <trkpt lat="42.59643696248531" lon="-8.596011009067297">
        <ele>146.3</ele>
        <time>2022-05-01T08:47:04.842Z</time>
      </trkpt>
      <trkpt lat="42.596223978325725" lon="-8.595977984368801">
        <ele>149.3</ele>
        <time>2022-05-01T08:47:11.541Z</time>
      </trkpt>
      <trkpt lat="42.59623202495277" lon="-8.595892991870642">
        <ele>149.0</ele>
        <time>2022-05-01T08:47:13.459Z</time>
      </trkpt>
      <trkpt lat="42.59629597887397" lon="-8.595710014924407">
        <ele>147.9</ele>
        <time>2022-05-01T08:47:17.898Z</time>
      </trkpt>
      <trkpt lat="42.59631802327931" lon="-8.595557967200875">
        <ele>146.2</ele>
        <time>2022-05-01T08:47:21.232Z</time>
      </trkpt>
      <trkpt lat="42.59623797610402" lon="-8.595425030216575">
        <ele>145.2</ele>
        <time>2022-05-01T08:47:24.898Z</time>
      </trkpt>
      <trkpt lat="42.5960629619658" lon="-8.59528698027134">
        <ele>144.4</ele>
        <time>2022-05-01T08:47:30.761Z</time>
      </trkpt>
      <trkpt lat="42.59596103802323" lon="-8.595210034400225">
        <ele>144.6</ele>
        <time>2022-05-01T08:47:34.092Z</time>
      </trkpt>
      <trkpt lat="42.59588501416147" lon="-8.595061004161835">
        <ele>145.0</ele>
        <time>2022-05-01T08:47:37.891Z</time>
      </trkpt>
      <trkpt lat="42.59590798057616" lon="-8.594934018328786">
        <ele>145.0</ele>
        <time>2022-05-01T08:47:40.602Z</time>
      </trkpt>
      <trkpt lat="42.59595299139619" lon="-8.594647021964192">
        <ele>146.8</ele>
        <time>2022-05-01T08:47:46.613Z</time>
      </trkpt>
      <trkpt lat="42.59593396447599" lon="-8.594379974529147">
        <ele>148.9</ele>
        <time>2022-05-01T08:47:52.140Z</time>
      </trkpt>
      <trkpt lat="42.59591896086931" lon="-8.594101024791598">
        <ele>149.3</ele>
        <time>2022-05-01T08:47:57.870Z</time>
      </trkpt>
      <trkpt lat="42.59591803885996" lon="-8.593887034803629">
        <ele>150.1</ele>
        <time>2022-05-01T08:48:02.435Z</time>
      </trkpt>
      <trkpt lat="42.596050975844264" lon="-8.593658963218331">
        <ele>150.8</ele>
        <time>2022-05-01T08:48:09.075Z</time>
      </trkpt>
      <trkpt lat="42.59632799774408" lon="-8.593477997928858">
        <ele>152.1</ele>
        <time>2022-05-01T08:48:18.532Z</time>
      </trkpt>
      <trkpt lat="42.59666302241385" lon="-8.593150014057755">
        <ele>152.8</ele>
        <time>2022-05-01T08:48:30.956Z</time>
      </trkpt>
      <trkpt lat="42.597017996013165" lon="-8.592718010768294">
        <ele>152.5</ele>
        <time>2022-05-01T08:48:44.321Z</time>
      </trkpt>
      <trkpt lat="42.59730398654938" lon="-8.592336969450116">
        <ele>148.1</ele>
        <time>2022-05-01T08:48:54.077Z</time>
      </trkpt>
      <trkpt lat="42.59756097570062" lon="-8.591926004737616">
        <ele>144.5</ele>
        <time>2022-05-01T08:49:03.345Z</time>
      </trkpt>
      <trkpt lat="42.5978590361774" lon="-8.591388976201415">
        <ele>139.7</ele>
        <time>2022-05-01T08:49:12.890Z</time>
      </trkpt>
      <trkpt lat="42.598114013671875" lon="-8.590809032320976">
        <ele>132.1</ele>
        <time>2022-05-01T08:49:20.798Z</time>
      </trkpt>
      <trkpt lat="42.598283998668194" lon="-8.590671988204122">
        <ele>129.4</ele>
        <time>2022-05-01T08:49:24.141Z</time>
      </trkpt>
      <trkpt lat="42.59849798865616" lon="-8.590724961832166">
        <ele>127.0</ele>
        <time>2022-05-01T08:49:27.542Z</time>
      </trkpt>
      <trkpt lat="42.5988760124892" lon="-8.590888995677233">
        <ele>121.5</ele>
        <time>2022-05-01T08:49:33.255Z</time>
      </trkpt>
      <trkpt lat="42.59929804131389" lon="-8.591039031744003">
        <ele>118.7</ele>
        <time>2022-05-01T08:49:39.700Z</time>
      </trkpt>
      <trkpt lat="42.59955000132322" lon="-8.591159982606769">
        <ele>120.4</ele>
        <time>2022-05-01T08:49:43.871Z</time>
      </trkpt>
      <trkpt lat="42.59965402074158" lon="-8.59114196151495">
        <ele>121.4</ele>
        <time>2022-05-01T08:49:45.632Z</time>
      </trkpt>
      <trkpt lat="42.599725015461445" lon="-8.591110026463866">
        <ele>123.1</ele>
        <time>2022-05-01T08:49:46.960Z</time>
      </trkpt>
      <trkpt lat="42.59981503710151" lon="-8.59086200594902">
        <ele>123.5</ele>
        <time>2022-05-01T08:49:50.765Z</time>
      </trkpt>
      <trkpt lat="42.59991696104407" lon="-8.59058297239244">
        <ele>122.9</ele>
        <time>2022-05-01T08:49:55.283Z</time>
      </trkpt>
      <trkpt lat="42.59998703375459" lon="-8.59047501347959">
        <ele>123.0</ele>
        <time>2022-05-01T08:49:57.547Z</time>
      </trkpt>
      <trkpt lat="42.60017202235758" lon="-8.590353978797793">
        <ele>123.6</ele>
        <time>2022-05-01T08:50:02.636Z</time>
      </trkpt>
      <trkpt lat="42.60031401179731" lon="-8.590320032089949">
        <ele>124.8</ele>
        <time>2022-05-01T08:50:06.341Z</time>
      </trkpt>
      <trkpt lat="42.60058097541332" lon="-8.59015197493136">
        <ele>127.2</ele>
        <time>2022-05-01T08:50:14.313Z</time>
      </trkpt>
      <trkpt lat="42.600755989551544" lon="-8.590056002140045">
        <ele>129.6</ele>
        <time>2022-05-01T08:50:19.546Z</time>
      </trkpt>
      <trkpt lat="42.60087199509144" lon="-8.58998098410666">
        <ele>131.1</ele>
        <time>2022-05-01T08:50:23.303Z</time>
      </trkpt>
      <trkpt lat="42.60097702033818" lon="-8.589987019076943">
        <ele>132.6</ele>
        <time>2022-05-01T08:50:26.328Z</time>
      </trkpt>
      <trkpt lat="42.60101096704602" lon="-8.59006798826158">
        <ele>133.9</ele>
        <time>2022-05-01T08:50:28.276Z</time>
      </trkpt>
      <trkpt lat="42.60093402117491" lon="-8.590317014604807">
        <ele>135.5</ele>
        <time>2022-05-01T08:50:33.863Z</time>
      </trkpt>
      <trkpt lat="42.60074098594487" lon="-8.590724961832166">
        <ele>137.5</ele>
        <time>2022-05-01T08:50:43.805Z</time>
      </trkpt>
      <trkpt lat="42.60055197402835" lon="-8.591145984828472">
        <ele>139.7</ele>
        <time>2022-05-01T08:50:53.944Z</time>
      </trkpt>
      <trkpt lat="42.600456001237035" lon="-8.59137699007988">
        <ele>140.6</ele>
        <time>2022-05-01T08:50:59.353Z</time>
      </trkpt>
      <trkpt lat="42.60042297653854" lon="-8.591500036418438">
        <ele>141.1</ele>
        <time>2022-05-01T08:51:02.004Z</time>
      </trkpt>
      <trkpt lat="42.600540993735194" lon="-8.591917958110571">
        <ele>143.0</ele>
        <time>2022-05-01T08:51:12.475Z</time>
      </trkpt>
      <trkpt lat="42.600822038948536" lon="-8.592847008258104">
        <ele>149.0</ele>
        <time>2022-05-01T08:51:36.826Z</time>
      </trkpt>
      <trkpt lat="42.60105296038091" lon="-8.593639014288783">
        <ele>149.0</ele>
        <time>2022-05-01T08:51:56.937Z</time>
      </trkpt>
      <trkpt lat="42.60117097757757" lon="-8.594071017578244">
        <ele>147.8</ele>
        <time>2022-05-01T08:52:07.320Z</time>
      </trkpt>
      <trkpt lat="42.60115597397089" lon="-8.594349967315793">
        <ele>146.8</ele>
        <time>2022-05-01T08:52:13.232Z</time>
      </trkpt>
      <trkpt lat="42.601124960929155" lon="-8.595382031053305">
        <ele>146.1</ele>
        <time>2022-05-01T08:52:34.241Z</time>
      </trkpt>
      <trkpt lat="42.60110903531313" lon="-8.595927022397518">
        <ele>146.4</ele>
        <time>2022-05-01T08:52:44.959Z</time>
      </trkpt>
      <trkpt lat="42.60105103254318" lon="-8.596564969047904">
        <ele>145.7</ele>
        <time>2022-05-01T08:52:57.150Z</time>
      </trkpt>
      <trkpt lat="42.60100099258125" lon="-8.597066961228848">
        <ele>144.1</ele>
        <time>2022-05-01T08:53:06.010Z</time>
      </trkpt>
      <trkpt lat="42.601034017279744" lon="-8.597467029467225">
        <ele>143.2</ele>
        <time>2022-05-01T08:53:12.985Z</time>
      </trkpt>
      <trkpt lat="42.601119009777904" lon="-8.597753020003438">
        <ele>142.0</ele>
        <time>2022-05-01T08:53:18.418Z</time>
      </trkpt>
      <trkpt lat="42.60113703086972" lon="-8.597903978079557">
        <ele>141.5</ele>
        <time>2022-05-01T08:53:21.009Z</time>
      </trkpt>
      <trkpt lat="42.601185981184244" lon="-8.59814302995801">
        <ele>140.8</ele>
        <time>2022-05-01T08:53:25.297Z</time>
      </trkpt>
      <trkpt lat="42.60121297091246" lon="-8.598192986100912">
        <ele>140.8</ele>
        <time>2022-05-01T08:53:26.386Z</time>
      </trkpt>
      <trkpt lat="42.60132696479559" lon="-8.598182005807757">
        <ele>141.1</ele>
        <time>2022-05-01T08:53:29.155Z</time>
      </trkpt>
      <trkpt lat="42.601704988628626" lon="-8.597890986129642">
        <ele>141.9</ele>
        <time>2022-05-01T08:53:39.813Z</time>
      </trkpt>
      <trkpt lat="42.602002965286374" lon="-8.5975840408355">
        <ele>142.6</ele>
        <time>2022-05-01T08:53:49.118Z</time>
      </trkpt>
      <trkpt lat="42.60218401439488" lon="-8.597293021157384">
        <ele>143.8</ele>
        <time>2022-05-01T08:53:56.467Z</time>
      </trkpt>
      <trkpt lat="42.60240001603961" lon="-8.596851965412498">
        <ele>144.7</ele>
        <time>2022-05-01T08:54:06.786Z</time>
      </trkpt>
      <trkpt lat="42.602518033236265" lon="-8.59666102565825">
        <ele>144.9</ele>
        <time>2022-05-01T08:54:11.642Z</time>
      </trkpt>
      <trkpt lat="42.60263697244227" lon="-8.596505960449576">
        <ele>145.1</ele>
        <time>2022-05-01T08:54:16.062Z</time>
      </trkpt>
      <trkpt lat="42.60298700071871" lon="-8.596143024042249">
        <ele>146.3</ele>
        <time>2022-05-01T08:54:27.862Z</time>
      </trkpt>
      <trkpt lat="42.604691963642836" lon="-8.594478964805603">
        <ele>150.6</ele>
        <time>2022-05-01T08:55:24.847Z</time>
      </trkpt>
      <trkpt lat="42.604923974722624" lon="-8.595208022743464">
        <ele>150.5</ele>
        <time>2022-05-01T08:55:40.636Z</time>
      </trkpt>
      <trkpt lat="42.604990024119616" lon="-8.595411032438278">
        <ele>150.7</ele>
        <time>2022-05-01T08:55:45.034Z</time>
      </trkpt>
      <trkpt lat="42.60492900386453" lon="-8.595859967172146">
        <ele>150.4</ele>
        <time>2022-05-01T08:55:54.051Z</time>
      </trkpt>
      <trkpt lat="42.60463999584317" lon="-8.5970279853791">
        <ele>150.5</ele>
        <time>2022-05-01T08:56:18.402Z</time>
      </trkpt>
      <trkpt lat="42.604497000575066" lon="-8.59771496616304">
        <ele>151.6</ele>
        <time>2022-05-01T08:56:32.503Z</time>
      </trkpt>
      <trkpt lat="42.6044450327754" lon="-8.59812400303781">
        <ele>152.2</ele>
        <time>2022-05-01T08:56:40.729Z</time>
      </trkpt>
      <trkpt lat="42.60445802472532" lon="-8.598623983561993">
        <ele>153.1</ele>
        <time>2022-05-01T08:56:50.655Z</time>
      </trkpt>
      <trkpt lat="42.60453497059643" lon="-8.599117007106543">
        <ele>154.2</ele>
        <time>2022-05-01T08:57:00.653Z</time>
      </trkpt>
      <trkpt lat="42.60676103644073" lon="-8.598068011924624">
        <ele>163.8</ele>
        <time>2022-05-01T08:58:08.454Z</time>
      </trkpt>
      <trkpt lat="42.60679196566343" lon="-8.598302034661174">
        <ele>163.9</ele>
        <time>2022-05-01T08:58:13.424Z</time>
      </trkpt>
      <trkpt lat="42.60686497204006" lon="-8.598711993545294">
        <ele>166.1</ele>
        <time>2022-05-01T08:58:22.146Z</time>
      </trkpt>
      <trkpt lat="42.606919035315514" lon="-8.598834034055471">
        <ele>167.7</ele>
        <time>2022-05-01T08:58:25.064Z</time>
      </trkpt>
      <trkpt lat="42.606988018378615" lon="-8.598868986591697">
        <ele>169.7</ele>
        <time>2022-05-01T08:58:27.097Z</time>
      </trkpt>
      <trkpt lat="42.60701802559197" lon="-8.598806960508227">
        <ele>170.3</ele>
        <time>2022-05-01T08:58:28.596Z</time>
      </trkpt>
      <trkpt lat="42.60725900530815" lon="-8.598284013569355">
        <ele>172.6</ele>
        <time>2022-05-01T08:58:41.596Z</time>
      </trkpt>
      <trkpt lat="42.607484981417656" lon="-8.597848992794752">
        <ele>173.7</ele>
        <time>2022-05-01T08:58:52.679Z</time>
      </trkpt>
      <trkpt lat="42.60758003219962" lon="-8.597721001133323">
        <ele>174.6</ele>
        <time>2022-05-01T08:58:56.425Z</time>
      </trkpt>
      <trkpt lat="42.60766703635454" lon="-8.597674984484911">
        <ele>176.0</ele>
        <time>2022-05-01T08:58:59.443Z</time>
      </trkpt>
      <trkpt lat="42.60789401829243" lon="-8.597666015848517">
        <ele>179.2</ele>
        <time>2022-05-01T08:59:06.548Z</time>
      </trkpt>
      <trkpt lat="42.60800901800394" lon="-8.597610024735332">
        <ele>180.1</ele>
        <time>2022-05-01T08:59:10.268Z</time>
      </trkpt>
      <trkpt lat="42.609114004299045" lon="-8.597020022571087">
        <ele>181.9</ele>
        <time>2022-05-01T08:59:47.885Z</time>
      </trkpt>
      <trkpt lat="42.609330005943775" lon="-8.596948022022843">
        <ele>183.8</ele>
        <time>2022-05-01T08:59:54.899Z</time>
      </trkpt>
      <trkpt lat="42.610149001702666" lon="-8.596505038440228">
        <ele>185.0</ele>
        <time>2022-05-01T09:00:22.246Z</time>
      </trkpt>
      <trkpt lat="42.61041898280382" lon="-8.596374029293656">
        <ele>185.2</ele>
        <time>2022-05-01T09:00:31.431Z</time>
      </trkpt>
      <trkpt lat="42.610702039673924" lon="-8.596250982955098">
        <ele>185.9</ele>
        <time>2022-05-01T09:00:41.070Z</time>
      </trkpt>
      <trkpt lat="42.61094503104687" lon="-8.59612500295043">
        <ele>187.2</ele>
        <time>2022-05-01T09:00:49.230Z</time>
      </trkpt>
      <trkpt lat="42.611090959981084" lon="-8.596132965758443">
        <ele>188.7</ele>
        <time>2022-05-01T09:00:53.805Z</time>
      </trkpt>
      <trkpt lat="42.611217023804784" lon="-8.596183005720377">
        <ele>189.9</ele>
        <time>2022-05-01T09:00:57.809Z</time>
      </trkpt>
      <trkpt lat="42.61142103932798" lon="-8.596294987946749">
        <ele>191.7</ele>
        <time>2022-05-01T09:01:04.796Z</time>
      </trkpt>
      <trkpt lat="42.61159596964717" lon="-8.5962750390172">
        <ele>192.7</ele>
        <time>2022-05-01T09:01:10.328Z</time>
      </trkpt>
      <trkpt lat="42.61223701760173" lon="-8.596244025975466">
        <ele>194.3</ele>
        <time>2022-05-01T09:01:30.877Z</time>
      </trkpt>
      <trkpt lat="42.6124179828912" lon="-8.59621100127697">
        <ele>194.2</ele>
        <time>2022-05-01T09:01:36.944Z</time>
      </trkpt>
      <trkpt lat="42.61251403950155" lon="-8.596247965469956">
        <ele>194.4</ele>
        <time>2022-05-01T09:01:40.297Z</time>
      </trkpt>
      <trkpt lat="42.613135976716876" lon="-8.596601011231542">
        <ele>197.2</ele>
        <time>2022-05-01T09:02:02.072Z</time>
      </trkpt>
      <trkpt lat="42.614208022132516" lon="-8.597149020060897">
        <ele>202.4</ele>
        <time>2022-05-01T09:02:40.672Z</time>
      </trkpt>
      <trkpt lat="42.614832976832986" lon="-8.597453031688929">
        <ele>202.9</ele>
        <time>2022-05-01T09:03:02.189Z</time>
      </trkpt>
      <trkpt lat="42.61536195874214" lon="-8.597874976694584">
        <ele>203.9</ele>
        <time>2022-05-01T09:03:21.537Z</time>
      </trkpt>
      <trkpt lat="42.6157389767468" lon="-8.598172031342983">
        <ele>205.0</ele>
        <time>2022-05-01T09:03:34.955Z</time>
      </trkpt>
      <trkpt lat="42.616783026605844" lon="-8.598518958315253">
        <ele>206.1</ele>
        <time>2022-05-01T09:04:07.456Z</time>
      </trkpt>
      <trkpt lat="42.61702903546393" lon="-8.598501021042466">
        <ele>206.2</ele>
        <time>2022-05-01T09:04:14.750Z</time>
      </trkpt>
      <trkpt lat="42.61720002628863" lon="-8.598420973867178">
        <ele>206.0</ele>
        <time>2022-05-01T09:04:20.011Z</time>
      </trkpt>
      <trkpt lat="42.618031008169055" lon="-8.597942031919956">
        <ele>207.2</ele>
        <time>2022-05-01T09:04:46.951Z</time>
      </trkpt>
      <trkpt lat="42.61825698427856" lon="-8.598451986908913">
        <ele>209.6</ele>
        <time>2022-05-01T09:04:59.933Z</time>
      </trkpt>
      <trkpt lat="42.618290008977056" lon="-8.598697995766997">
        <ele>211.4</ele>
        <time>2022-05-01T09:05:05.290Z</time>
      </trkpt>
      <trkpt lat="42.618329990655184" lon="-8.598816012963653">
        <ele>212.2</ele>
        <time>2022-05-01T09:05:08.032Z</time>
      </trkpt>
      <trkpt lat="42.61847097426653" lon="-8.599045006558299">
        <ele>212.9</ele>
        <time>2022-05-01T09:05:14.430Z</time>
      </trkpt>
      <trkpt lat="42.61855496093631" lon="-8.599395034834743">
        <ele>212.9</ele>
        <time>2022-05-01T09:05:22.203Z</time>
      </trkpt>
      <trkpt lat="42.61885696090758" lon="-8.600588031113148">
        <ele>214.4</ele>
        <time>2022-05-01T09:05:49.066Z</time>
      </trkpt>
      <trkpt lat="42.61892896145582" lon="-8.60089497640729">
        <ele>214.7</ele>
        <time>2022-05-01T09:05:55.835Z</time>
      </trkpt>
      <trkpt lat="42.619124008342624" lon="-8.602001974359155">
        <ele>214.9</ele>
        <time>2022-05-01T09:06:19.373Z</time>
      </trkpt>
      <trkpt lat="42.619233978912234" lon="-8.602824993431568">
        <ele>214.0</ele>
        <time>2022-05-01T09:06:36.485Z</time>
      </trkpt>
      <trkpt lat="42.61928100138903" lon="-8.60289297066629">
        <ele>214.0</ele>
        <time>2022-05-01T09:06:38.378Z</time>
      </trkpt>
      <trkpt lat="42.61969699524343" lon="-8.602501032873988">
        <ele>214.7</ele>
        <time>2022-05-01T09:06:52.270Z</time>
      </trkpt>
      <trkpt lat="42.6203790307045" lon="-8.602329036220908">
        <ele>216.0</ele>
        <time>2022-05-01T09:07:11.254Z</time>
      </trkpt>
      <trkpt lat="42.62064599432051" lon="-8.602095013484359">
        <ele>216.6</ele>
        <time>2022-05-01T09:07:19.795Z</time>
      </trkpt>
      <trkpt lat="42.62122300453484" lon="-8.60196903347969">
        <ele>214.5</ele>
        <time>2022-05-01T09:07:35.119Z</time>
      </trkpt>
      <trkpt lat="42.62133498676121" lon="-8.602070035412908">
        <ele>214.5</ele>
        <time>2022-05-01T09:07:38.582Z</time>
      </trkpt>
      <trkpt lat="42.6214459631592" lon="-8.602177994325757">
        <ele>214.3</ele>
        <time>2022-05-01T09:07:42.112Z</time>
      </trkpt>
      <trkpt lat="42.621595999225974" lon="-8.602179000154138">
        <ele>214.0</ele>
        <time>2022-05-01T09:07:45.900Z</time>
      </trkpt>
      <trkpt lat="42.6216690056026" lon="-8.60196802765131">
        <ele>214.0</ele>
        <time>2022-05-01T09:07:50.264Z</time>
      </trkpt>
      <trkpt lat="42.62177595868707" lon="-8.601556979119778">
        <ele>213.2</ele>
        <time>2022-05-01T09:07:58.473Z</time>
      </trkpt>
      <trkpt lat="42.62181803584099" lon="-8.601567959412932">
        <ele>213.2</ele>
        <time>2022-05-01T09:07:59.574Z</time>
      </trkpt>
      <trkpt lat="42.62198198586702" lon="-8.601912036538124">
        <ele>213.7</ele>
        <time>2022-05-01T09:08:07.366Z</time>
      </trkpt>
      <trkpt lat="42.6220989972353" lon="-8.602030975744128">
        <ele>213.9</ele>
        <time>2022-05-01T09:08:11.157Z</time>
      </trkpt>
      <trkpt lat="42.6225340180099" lon="-8.602300034835935">
        <ele>214.7</ele>
        <time>2022-05-01T09:08:23.599Z</time>
      </trkpt>
      <trkpt lat="42.6227549649775" lon="-8.602318977937102">
        <ele>215.0</ele>
        <time>2022-05-01T09:08:29.425Z</time>
      </trkpt>
      <trkpt lat="42.62285001575947" lon="-8.602360971271992">
        <ele>215.1</ele>
        <time>2022-05-01T09:08:32.081Z</time>
      </trkpt>
      <trkpt lat="42.6231350004673" lon="-8.602629024535418">
        <ele>216.0</ele>
        <time>2022-05-01T09:08:41.302Z</time>
      </trkpt>
      <trkpt lat="42.62466402724385" lon="-8.603380965068936">
        <ele>224.5</ele>
        <time>2022-05-01T09:09:26.992Z</time>
      </trkpt>
      <trkpt lat="42.625014977529645" lon="-8.603460006415844">
        <ele>224.9</ele>
        <time>2022-05-01T09:09:36.843Z</time>
      </trkpt>
      <trkpt lat="42.62525503523648" lon="-8.60360300168395">
        <ele>224.5</ele>
        <time>2022-05-01T09:09:43.941Z</time>
      </trkpt>
      <trkpt lat="42.625377997756004" lon="-8.603721018880606">
        <ele>224.6</ele>
        <time>2022-05-01T09:09:48.003Z</time>
      </trkpt>
      <trkpt lat="42.625570027157664" lon="-8.603949006646872">
        <ele>224.0</ele>
        <time>2022-05-01T09:09:54.815Z</time>
      </trkpt>
      <trkpt lat="42.62571503408253" lon="-8.604247989133">
        <ele>223.0</ele>
        <time>2022-05-01T09:10:01.736Z</time>
      </trkpt>
      <trkpt lat="42.6260949857533" lon="-8.60488903708756">
        <ele>223.8</ele>
        <time>2022-05-01T09:10:17.579Z</time>
      </trkpt>
      <trkpt lat="42.62620897963643" lon="-8.605006970465183">
        <ele>223.3</ele>
        <time>2022-05-01T09:10:21.376Z</time>
      </trkpt>
      <trkpt lat="42.626621033996344" lon="-8.605286004021764">
        <ele>223.6</ele>
        <time>2022-05-01T09:10:33.641Z</time>
      </trkpt>
      <trkpt lat="42.62665799818933" lon="-8.605489013716578">
        <ele>224.2</ele>
        <time>2022-05-01T09:10:37.823Z</time>
      </trkpt>
      <trkpt lat="42.62681499123573" lon="-8.605887992307544">
        <ele>226.0</ele>
        <time>2022-05-01T09:10:46.940Z</time>
      </trkpt>
      <trkpt lat="42.62695597484708" lon="-8.606123020872474">
        <ele>227.0</ele>
        <time>2022-05-01T09:10:53.249Z</time>
      </trkpt>
      <trkpt lat="42.62720097787678" lon="-8.606399036943913">
        <ele>228.0</ele>
        <time>2022-05-01T09:11:02.221Z</time>
      </trkpt>
      <trkpt lat="42.627441035583615" lon="-8.606534991413355">
        <ele>229.0</ele>
        <time>2022-05-01T09:11:09.766Z</time>
      </trkpt>
      <trkpt lat="42.627654019743204" lon="-8.606601040810347">
        <ele>230.1</ele>
        <time>2022-05-01T09:11:16.222Z</time>
      </trkpt>
      <trkpt lat="42.62809398584068" lon="-8.60658897086978">
        <ele>231.0</ele>
        <time>2022-05-01T09:11:29.148Z</time>
      </trkpt>
      <trkpt lat="42.62842398136854" lon="-8.60652300529182">
        <ele>231.1</ele>
        <time>2022-05-01T09:11:38.830Z</time>
      </trkpt>
      <trkpt lat="42.6292360201478" lon="-8.605870977044106">
        <ele>232.2</ele>
        <time>2022-05-01T09:12:05.817Z</time>
      </trkpt>
      <trkpt lat="42.62962896376848" lon="-8.605565037578344">
        <ele>230.6</ele>
        <time>2022-05-01T09:12:18.707Z</time>
      </trkpt>
      <trkpt lat="42.62981001287699" lon="-8.605509968474507">
        <ele>230.0</ele>
        <time>2022-05-01T09:12:23.928Z</time>
      </trkpt>
      <trkpt lat="42.6300270203501" lon="-8.605543999001384">
        <ele>230.3</ele>
        <time>2022-05-01T09:12:30.139Z</time>
      </trkpt>
      <trkpt lat="42.630145037546754" lon="-8.605625974014401">
        <ele>231.0</ele>
        <time>2022-05-01T09:12:33.861Z</time>
      </trkpt>
      <trkpt lat="42.63031401671469" lon="-8.605752037838101">
        <ele>232.8</ele>
        <time>2022-05-01T09:12:39.252Z</time>
      </trkpt>
      <trkpt lat="42.63045801781118" lon="-8.605760000646114">
        <ele>233.8</ele>
        <time>2022-05-01T09:12:43.269Z</time>
      </trkpt>
      <trkpt lat="42.63072296977043" lon="-8.60566696152091">
        <ele>234.4</ele>
        <time>2022-05-01T09:12:50.933Z</time>
      </trkpt>
      <trkpt lat="42.63091600500047" lon="-8.605531007051468">
        <ele>234.4</ele>
        <time>2022-05-01T09:12:56.969Z</time>
      </trkpt>
      <trkpt lat="42.6310770213604" lon="-8.605383988469839">
        <ele>234.5</ele>
        <time>2022-05-01T09:13:02.374Z</time>
      </trkpt>
      <trkpt lat="42.63116201385856" lon="-8.605224983766675">
        <ele>234.5</ele>
        <time>2022-05-01T09:13:06.194Z</time>
      </trkpt>
      <trkpt lat="42.631267961114645" lon="-8.604899011552334">
        <ele>233.7</ele>
        <time>2022-05-01T09:13:12.890Z</time>
      </trkpt>
      <trkpt lat="42.631311966106296" lon="-8.604627018794417">
        <ele>233.3</ele>
        <time>2022-05-01T09:13:17.873Z</time>
      </trkpt>
      <trkpt lat="42.631333004683256" lon="-8.604270033538342">
        <ele>231.7</ele>
        <time>2022-05-01T09:13:24.113Z</time>
      </trkpt>
      <trkpt lat="42.631329987198114" lon="-8.604039028286934">
        <ele>229.4</ele>
        <time>2022-05-01T09:13:28.065Z</time>
      </trkpt>
      <trkpt lat="42.63138296082616" lon="-8.603897960856557">
        <ele>228.9</ele>
        <time>2022-05-01T09:13:30.568Z</time>
      </trkpt>
      <trkpt lat="42.63157297857106" lon="-8.603663016110659">
        <ele>228.5</ele>
        <time>2022-05-01T09:13:36.138Z</time>
      </trkpt>
      <trkpt lat="42.63184396550059" lon="-8.603395968675613">
        <ele>228.4</ele>
        <time>2022-05-01T09:13:43.462Z</time>
      </trkpt>
      <trkpt lat="42.63206700794399" lon="-8.603337965905666">
        <ele>229.3</ele>
        <time>2022-05-01T09:13:48.441Z</time>
      </trkpt>
      <trkpt lat="42.63224302791059" lon="-8.603405021131039">
        <ele>230.6</ele>
        <time>2022-05-01T09:13:52.557Z</time>
      </trkpt>
      <trkpt lat="42.6333979703486" lon="-8.603949006646872">
        <ele>235.7</ele>
        <time>2022-05-01T09:14:22.036Z</time>
      </trkpt>
      <trkpt lat="42.633627969771624" lon="-8.604113962501287">
        <ele>236.6</ele>
        <time>2022-05-01T09:14:28.392Z</time>
      </trkpt>
      <trkpt lat="42.63510301709175" lon="-8.605439979583025">
        <ele>242.4</ele>
        <time>2022-05-01T09:15:13.699Z</time>
      </trkpt>
      <trkpt lat="42.6353510376066" lon="-8.605633014813066">
        <ele>242.9</ele>
        <time>2022-05-01T09:15:21.392Z</time>
      </trkpt>
      <trkpt lat="42.63548799790442" lon="-8.605727981775999">
        <ele>244.2</ele>
        <time>2022-05-01T09:15:25.937Z</time>
      </trkpt>
      <trkpt lat="42.635758984833956" lon="-8.60579201951623">
        <ele>246.7</ele>
        <time>2022-05-01T09:15:34.442Z</time>
      </trkpt>
      <trkpt lat="42.636056961491704" lon="-8.60592101700604">
        <ele>251.3</ele>
        <time>2022-05-01T09:15:44.127Z</time>
      </trkpt>
      <trkpt lat="42.636272041127086" lon="-8.606037022545934">
        <ele>254.4</ele>
        <time>2022-05-01T09:15:52.328Z</time>
      </trkpt>
      <trkpt lat="42.63647102750838" lon="-8.606430971994996">
        <ele>258.4</ele>
        <time>2022-05-01T09:16:05.887Z</time>
      </trkpt>
      <trkpt lat="42.63670898973942" lon="-8.606773959472775">
        <ele>261.6</ele>
        <time>2022-05-01T09:16:20.275Z</time>
      </trkpt>
      <trkpt lat="42.636855002492666" lon="-8.606921983882785">
        <ele>262.8</ele>
        <time>2022-05-01T09:16:27.579Z</time>
      </trkpt>
      <trkpt lat="42.63707502745092" lon="-8.606965988874435">
        <ele>263.9</ele>
        <time>2022-05-01T09:16:36.549Z</time>
      </trkpt>
      <trkpt lat="42.63725599274039" lon="-8.60693003050983">
        <ele>264.7</ele>
        <time>2022-05-01T09:16:43.398Z</time>
      </trkpt>
      <trkpt lat="42.63742296025157" lon="-8.606923995539546">
        <ele>265.0</ele>
        <time>2022-05-01T09:16:49.461Z</time>
      </trkpt>
      <trkpt lat="42.63761901296675" lon="-8.60701602883637">
        <ele>264.9</ele>
        <time>2022-05-01T09:16:56.639Z</time>
      </trkpt>
      <trkpt lat="42.63770199380815" lon="-8.607047963887453">
        <ele>264.9</ele>
        <time>2022-05-01T09:16:59.492Z</time>
      </trkpt>
      <trkpt lat="42.63778799213469" lon="-8.607032038271427">
        <ele>264.8</ele>
        <time>2022-05-01T09:17:02.305Z</time>
      </trkpt>
      <trkpt lat="42.637885976582766" lon="-8.606874961405993">
        <ele>265.0</ele>
        <time>2022-05-01T09:17:07.056Z</time>
      </trkpt>
      <trkpt lat="42.63800198212266" lon="-8.60682500526309">
        <ele>264.9</ele>
        <time>2022-05-01T09:17:10.780Z</time>
      </trkpt>
      <trkpt lat="42.63936999253929" lon="-8.606966994702816">
        <ele>260.3</ele>
        <time>2022-05-01T09:17:49.191Z</time>
      </trkpt>
      <trkpt lat="42.641215017065406" lon="-8.60721199773252">
        <ele>258.1</ele>
        <time>2022-05-01T09:18:40.649Z</time>
      </trkpt>
      <trkpt lat="42.64139799401164" lon="-8.607217026874423">
        <ele>259.8</ele>
        <time>2022-05-01T09:18:45.711Z</time>
      </trkpt>
      <trkpt lat="42.64148499816656" lon="-8.607294978573918">
        <ele>260.6</ele>
        <time>2022-05-01T09:18:48.646Z</time>
      </trkpt>
      <trkpt lat="42.64161298982799" lon="-8.607457000762224">
        <ele>261.9</ele>
        <time>2022-05-01T09:18:53.526Z</time>
      </trkpt>
      <trkpt lat="42.64167702756822" lon="-8.60768398270011">
        <ele>261.2</ele>
        <time>2022-05-01T09:18:58.475Z</time>
      </trkpt>
      <trkpt lat="42.64178096316755" lon="-8.607858996838331">
        <ele>261.2</ele>
        <time>2022-05-01T09:19:03.074Z</time>
      </trkpt>
      <trkpt lat="42.641967963427305" lon="-8.608033005148172">
        <ele>262.1</ele>
        <time>2022-05-01T09:19:09.378Z</time>
      </trkpt>
      <trkpt lat="42.642183965072036" lon="-8.608041973784566">
        <ele>263.5</ele>
        <time>2022-05-01T09:19:15.372Z</time>
      </trkpt>
      <trkpt lat="42.642610017210245" lon="-8.608010960742831">
        <ele>264.3</ele>
        <time>2022-05-01T09:19:27.226Z</time>
      </trkpt>
      <trkpt lat="42.64316003769636" lon="-8.607842987403274">
        <ele>263.6</ele>
        <time>2022-05-01T09:19:42.856Z</time>
      </trkpt>
      <trkpt lat="42.64354300685227" lon="-8.607996962964535">
        <ele>263.5</ele>
        <time>2022-05-01T09:19:53.743Z</time>
      </trkpt>
      <trkpt lat="42.643940979614854" lon="-8.60813501290977">
        <ele>263.7</ele>
        <time>2022-05-01T09:20:04.929Z</time>
      </trkpt>
      <trkpt lat="42.64432000927627" lon="-8.608289994299412">
        <ele>263.3</ele>
        <time>2022-05-01T09:20:15.927Z</time>
      </trkpt>
      <trkpt lat="42.64451798982918" lon="-8.608302986249328">
        <ele>263.8</ele>
        <time>2022-05-01T09:20:21.760Z</time>
      </trkpt>
      <trkpt lat="42.64483801089227" lon="-8.60822000540793">
        <ele>266.1</ele>
        <time>2022-05-01T09:20:31.520Z</time>
      </trkpt>
      <trkpt lat="42.645060969516635" lon="-8.608052032068372">
        <ele>267.9</ele>
        <time>2022-05-01T09:20:39.240Z</time>
      </trkpt>
      <trkpt lat="42.64514001086354" lon="-8.607916999608278">
        <ele>268.9</ele>
        <time>2022-05-01T09:20:43.003Z</time>
      </trkpt>
      <trkpt lat="42.64522701501846" lon="-8.60757996328175">
        <ele>272.3</ele>
        <time>2022-05-01T09:20:50.786Z</time>
      </trkpt>
      <trkpt lat="42.6453270111233" lon="-8.607389023527503">
        <ele>272.7</ele>
        <time>2022-05-01T09:20:56.036Z</time>
      </trkpt>
      <trkpt lat="42.645401023328304" lon="-8.607388017699122">
        <ele>272.1</ele>
        <time>2022-05-01T09:20:58.239Z</time>
      </trkpt>
      <trkpt lat="42.64588298276067" lon="-8.607645006850362">
        <ele>272.0</ele>
        <time>2022-05-01T09:21:13.446Z</time>
      </trkpt>
      <trkpt lat="42.647097017616034" lon="-8.608309021219611">
        <ele>268.8</ele>
        <time>2022-05-01T09:21:47.484Z</time>
      </trkpt>
      <trkpt lat="42.64743195846677" lon="-8.60848001204431">
        <ele>265.6</ele>
        <time>2022-05-01T09:21:56.599Z</time>
      </trkpt>
      <trkpt lat="42.647495996207" lon="-8.608560981228948">
        <ele>265.2</ele>
        <time>2022-05-01T09:21:58.839Z</time>
      </trkpt>
      <trkpt lat="42.64751301147044" lon="-8.60867002978921">
        <ele>264.6</ele>
        <time>2022-05-01T09:22:00.904Z</time>
      </trkpt>
      <trkpt lat="42.647422989830375" lon="-8.608964988961816">
        <ele>263.7</ele>
        <time>2022-05-01T09:22:06.823Z</time>
      </trkpt>
      <trkpt lat="42.64745400287211" lon="-8.609114019200206">
        <ele>263.0</ele>
        <time>2022-05-01T09:22:09.672Z</time>
      </trkpt>
      <trkpt lat="42.647487027570605" lon="-8.609204040840268">
        <ele>262.4</ele>
        <time>2022-05-01T09:22:11.522Z</time>
      </trkpt>
      <trkpt lat="42.64756296761334" lon="-8.609244022518396">
        <ele>261.7</ele>
        <time>2022-05-01T09:22:13.574Z</time>
      </trkpt>
      <trkpt lat="42.647874020040035" lon="-8.609270006418228">
        <ele>261.1</ele>
        <time>2022-05-01T09:22:21.497Z</time>
      </trkpt>
      <trkpt lat="42.64803101308644" lon="-8.609371008351445">
        <ele>262.3</ele>
        <time>2022-05-01T09:22:25.938Z</time>
      </trkpt>
      <trkpt lat="42.648132015019655" lon="-8.609501011669636">
        <ele>262.6</ele>
        <time>2022-05-01T09:22:29.558Z</time>
      </trkpt>
      <trkpt lat="42.64815095812082" lon="-8.609562031924725">
        <ele>262.3</ele>
        <time>2022-05-01T09:22:30.810Z</time>
      </trkpt>
      <trkpt lat="42.648198986425996" lon="-8.609651969745755">
        <ele>262.1</ele>
        <time>2022-05-01T09:22:32.921Z</time>
      </trkpt>
      <trkpt lat="42.64826604165137" lon="-8.609666973352432">
        <ele>262.9</ele>
        <time>2022-05-01T09:22:34.689Z</time>
      </trkpt>
      <trkpt lat="42.64848598279059" lon="-8.609631014987826">
        <ele>266.6</ele>
        <time>2022-05-01T09:22:40.842Z</time>
      </trkpt>
      <trkpt lat="42.64867700636387" lon="-8.60968197695911">
        <ele>268.9</ele>
        <time>2022-05-01T09:22:46.696Z</time>
      </trkpt>
      <trkpt lat="42.64895402826369" lon="-8.609805023297668">
        <ele>271.8</ele>
        <time>2022-05-01T09:22:55.825Z</time>
      </trkpt>
      <trkpt lat="42.64921696856618" lon="-8.610013984143734">
        <ele>274.4</ele>
        <time>2022-05-01T09:23:06.510Z</time>
      </trkpt>
      <trkpt lat="42.649358035996556" lon="-8.610143987461925">
        <ele>275.3</ele>
        <time>2022-05-01T09:23:12.513Z</time>
      </trkpt>
      <trkpt lat="42.64945300295949" lon="-8.610243983566761">
        <ele>275.1</ele>
        <time>2022-05-01T09:23:16.543Z</time>
      </trkpt>
      <trkpt lat="42.649614019319415" lon="-8.610293017700315">
        <ele>274.8</ele>
        <time>2022-05-01T09:23:22.098Z</time>
      </trkpt>
      <trkpt lat="42.649829015135765" lon="-8.610253036022186">
        <ele>274.9</ele>
        <time>2022-05-01T09:23:29.182Z</time>
      </trkpt>
      <trkpt lat="42.64992800541222" lon="-8.610205007717013">
        <ele>275.2</ele>
        <time>2022-05-01T09:23:32.391Z</time>
      </trkpt>
      <trkpt lat="42.65037199482322" lon="-8.609834024682641">
        <ele>274.5</ele>
        <time>2022-05-01T09:23:47.575Z</time>
      </trkpt>
      <trkpt lat="42.650644993409514" lon="-8.60963998362422">
        <ele>273.4</ele>
        <time>2022-05-01T09:23:55.816Z</time>
      </trkpt>
      <trkpt lat="42.65091204084456" lon="-8.609497994184494">
        <ele>273.1</ele>
        <time>2022-05-01T09:24:03.277Z</time>
      </trkpt>
      <trkpt lat="42.65110499225557" lon="-8.609453989192843">
        <ele>272.1</ele>
        <time>2022-05-01T09:24:08.381Z</time>
      </trkpt>
      <trkpt lat="42.6514230016619" lon="-8.609583992511034">
        <ele>268.9</ele>
        <time>2022-05-01T09:24:15.581Z</time>
      </trkpt>
      <trkpt lat="42.65224903821945" lon="-8.60991700552404">
        <ele>260.3</ele>
        <time>2022-05-01T09:24:32.067Z</time>
      </trkpt>
      <trkpt lat="42.652963008731604" lon="-8.610228979960084">
        <ele>258.4</ele>
        <time>2022-05-01T09:24:45.924Z</time>
      </trkpt>
      <trkpt lat="42.653311025351286" lon="-8.61041396856308">
        <ele>257.1</ele>
        <time>2022-05-01T09:24:52.605Z</time>
      </trkpt>
      <trkpt lat="42.65398400835693" lon="-8.61080196686089">
        <ele>254.2</ele>
        <time>2022-05-01T09:25:05.956Z</time>
      </trkpt>
      <trkpt lat="42.65469303354621" lon="-8.611176973208785">
        <ele>253.1</ele>
        <time>2022-05-01T09:25:19.994Z</time>
      </trkpt>
      <trkpt lat="42.6550820376724" lon="-8.611375959590077">
        <ele>252.1</ele>
        <time>2022-05-01T09:25:27.937Z</time>
      </trkpt>
      <trkpt lat="42.65524900518358" lon="-8.611496994271874">
        <ele>251.9</ele>
        <time>2022-05-01T09:25:31.711Z</time>
      </trkpt>
      <trkpt lat="42.655501971021295" lon="-8.611677959561348">
        <ele>251.4</ele>
        <time>2022-05-01T09:25:37.630Z</time>
      </trkpt>
      <trkpt lat="42.656577033922076" lon="-8.612568033859134">
        <ele>248.4</ele>
        <time>2022-05-01T09:26:02.755Z</time>
      </trkpt>
      <trkpt lat="42.65678197145462" lon="-8.61271203495562">
        <ele>246.9</ele>
        <time>2022-05-01T09:26:07.227Z</time>
      </trkpt>
      <trkpt lat="42.656985986977816" lon="-8.612779006361961">
        <ele>245.7</ele>
        <time>2022-05-01T09:26:11.258Z</time>
      </trkpt>
      <trkpt lat="42.657283041626215" lon="-8.612813958898187">
        <ele>244.4</ele>
        <time>2022-05-01T09:26:17.231Z</time>
      </trkpt>
      <trkpt lat="42.65748303383589" lon="-8.61284002661705">
        <ele>243.4</ele>
        <time>2022-05-01T09:26:21.281Z</time>
      </trkpt>
      <trkpt lat="42.657626029103994" lon="-8.612880008295178">
        <ele>243.0</ele>
        <time>2022-05-01T09:26:24.333Z</time>
      </trkpt>
      <trkpt lat="42.657690988853574" lon="-8.612958965823054">
        <ele>243.0</ele>
        <time>2022-05-01T09:26:26.127Z</time>
      </trkpt>
      <trkpt lat="42.657713033258915" lon="-8.613112019374967">
        <ele>243.3</ele>
        <time>2022-05-01T09:26:28.550Z</time>
      </trkpt>
      <trkpt lat="42.657674979418516" lon="-8.613230036571622">
        <ele>243.7</ele>
        <time>2022-05-01T09:26:30.614Z</time>
      </trkpt>
      <trkpt lat="42.6576619874686" lon="-8.613394992426038">
        <ele>244.0</ele>
        <time>2022-05-01T09:26:33.327Z</time>
      </trkpt>
      <trkpt lat="42.65770599246025" lon="-8.61350898630917">
        <ele>244.0</ele>
        <time>2022-05-01T09:26:35.483Z</time>
      </trkpt>
      <trkpt lat="42.65794102102518" lon="-8.613882986828685">
        <ele>243.2</ele>
        <time>2022-05-01T09:26:43.816Z</time>
      </trkpt>
      <trkpt lat="42.65813103877008" lon="-8.614184986799955">
        <ele>242.9</ele>
        <time>2022-05-01T09:26:50.683Z</time>
      </trkpt>
      <trkpt lat="42.65816900879145" lon="-8.614339968189597">
        <ele>242.9</ele>
        <time>2022-05-01T09:26:53.542Z</time>
      </trkpt>
      <trkpt lat="42.65882296487689" lon="-8.615703033283353">
        <ele>241.7</ele>
        <time>2022-05-01T09:27:21.048Z</time>
      </trkpt>
      <trkpt lat="42.659002002328634" lon="-8.61610896885395">
        <ele>239.5</ele>
        <time>2022-05-01T09:27:29.209Z</time>
      </trkpt>
      <trkpt lat="42.659172993153334" lon="-8.616254981607199">
        <ele>239.3</ele>
        <time>2022-05-01T09:27:33.293Z</time>
      </trkpt>
      <trkpt lat="42.6594699639827" lon="-8.616518005728722">
        <ele>237.9</ele>
        <time>2022-05-01T09:27:39.850Z</time>
      </trkpt>
      <trkpt lat="42.659989977255464" lon="-8.616655971854925">
        <ele>231.3</ele>
        <time>2022-05-01T09:27:48.846Z</time>
      </trkpt>
      <trkpt lat="42.66016700305045" lon="-8.616671981289983">
        <ele>228.9</ele>
        <time>2022-05-01T09:27:51.655Z</time>
      </trkpt>
      <trkpt lat="42.66034997999668" lon="-8.616499984636903">
        <ele>228.8</ele>
        <time>2022-05-01T09:27:55.399Z</time>
      </trkpt>
      <trkpt lat="42.66046799719334" lon="-8.616453967988491">
        <ele>228.2</ele>
        <time>2022-05-01T09:27:57.319Z</time>
      </trkpt>
      <trkpt lat="42.66054796054959" lon="-8.61649596132338">
        <ele>227.2</ele>
        <time>2022-05-01T09:27:58.747Z</time>
      </trkpt>
      <trkpt lat="42.66081802546978" lon="-8.616799972951412">
        <ele>227.0</ele>
        <time>2022-05-01T09:28:04.933Z</time>
      </trkpt>
      <trkpt lat="42.66088801436126" lon="-8.616824029013515">
        <ele>227.8</ele>
        <time>2022-05-01T09:28:06.176Z</time>
      </trkpt>
      <trkpt lat="42.66107501462102" lon="-8.616782035678625">
        <ele>229.3</ele>
        <time>2022-05-01T09:28:09.729Z</time>
      </trkpt>
      <trkpt lat="42.66181002371013" lon="-8.616251964122057">
        <ele>235.6</ele>
        <time>2022-05-01T09:28:26.992Z</time>
      </trkpt>
      <trkpt lat="42.66208201646805" lon="-8.615948036313057">
        <ele>238.1</ele>
        <time>2022-05-01T09:28:35.117Z</time>
      </trkpt>
      <trkpt lat="42.66236297786236" lon="-8.615689035505056">
        <ele>239.1</ele>
        <time>2022-05-01T09:28:43.208Z</time>
      </trkpt>
      <trkpt lat="42.6626440230757" lon="-8.615620974451303">
        <ele>240.0</ele>
        <time>2022-05-01T09:28:50.621Z</time>
      </trkpt>
      <trkpt lat="42.66281099058688" lon="-8.615646036341786">
        <ele>241.0</ele>
        <time>2022-05-01T09:28:55.264Z</time>
      </trkpt>
      <trkpt lat="42.66325196251273" lon="-8.615824989974499">
        <ele>243.9</ele>
        <time>2022-05-01T09:29:07.955Z</time>
      </trkpt>
      <trkpt lat="42.66341297887266" lon="-8.615879975259304">
        <ele>245.0</ele>
        <time>2022-05-01T09:29:12.641Z</time>
      </trkpt>
      <trkpt lat="42.663514986634254" lon="-8.615874024108052">
        <ele>245.7</ele>
        <time>2022-05-01T09:29:15.494Z</time>
      </trkpt>
      <trkpt lat="42.66358799301088" lon="-8.615822978317738">
        <ele>246.2</ele>
        <time>2022-05-01T09:29:17.976Z</time>
      </trkpt>
      <trkpt lat="42.663669968023896" lon="-8.615661961957812">
        <ele>247.0</ele>
        <time>2022-05-01T09:29:22.239Z</time>
      </trkpt>
      <trkpt lat="42.66420900821686" lon="-8.614293029531837">
        <ele>254.7</ele>
        <time>2022-05-01T09:29:58.802Z</time>
      </trkpt>
      <trkpt lat="42.66473103314638" lon="-8.613109001889825">
        <ele>261.1</ele>
        <time>2022-05-01T09:30:33.611Z</time>
      </trkpt>
      <trkpt lat="42.665148032829165" lon="-8.612279025837779">
        <ele>265.4</ele>
        <time>2022-05-01T09:30:59.673Z</time>
      </trkpt>
      <trkpt lat="42.66535498201847" lon="-8.612006027251482">
        <ele>267.1</ele>
        <time>2022-05-01T09:31:09.844Z</time>
      </trkpt>
      <trkpt lat="42.6656230352819" lon="-8.61185397952795">
        <ele>269.9</ele>
        <time>2022-05-01T09:31:19.685Z</time>
      </trkpt>
      <trkpt lat="42.66578698530793" lon="-8.611836964264512">
        <ele>270.8</ele>
        <time>2022-05-01T09:31:25.099Z</time>
      </trkpt>
      <trkpt lat="42.66593802720308" lon="-8.611878035590053">
        <ele>271.7</ele>
        <time>2022-05-01T09:31:30.000Z</time>
      </trkpt>
      <trkpt lat="42.66644395887852" lon="-8.61213100142777">
        <ele>271.9</ele>
        <time>2022-05-01T09:31:46.847Z</time>
      </trkpt>
      <trkpt lat="42.66657396219671" lon="-8.612152962014079">
        <ele>271.9</ele>
        <time>2022-05-01T09:31:50.857Z</time>
      </trkpt>
      <trkpt lat="42.66671100631356" lon="-8.61215204000473">
        <ele>270.7</ele>
        <time>2022-05-01T09:31:54.959Z</time>
      </trkpt>
      <trkpt lat="42.66682701185346" lon="-8.6120689753443">
        <ele>270.4</ele>
        <time>2022-05-01T09:31:58.764Z</time>
      </trkpt>
      <trkpt lat="42.667579958215356" lon="-8.610792998224497">
        <ele>265.2</ele>
        <time>2022-05-01T09:32:29.813Z</time>
      </trkpt>
      <trkpt lat="42.66842703334987" lon="-8.610322019085288">
        <ele>267.0</ele>
        <time>2022-05-01T09:32:53.991Z</time>
      </trkpt>
      <trkpt lat="42.66848302446306" lon="-8.610233003273606">
        <ele>267.3</ele>
        <time>2022-05-01T09:32:56.266Z</time>
      </trkpt>
      <trkpt lat="42.66852803528309" lon="-8.610080033540726">
        <ele>268.0</ele>
        <time>2022-05-01T09:32:59.657Z</time>
      </trkpt>
      <trkpt lat="42.668626019731164" lon="-8.609522972255945">
        <ele>269.5</ele>
        <time>2022-05-01T09:33:11.659Z</time>
      </trkpt>
      <trkpt lat="42.668735990300775" lon="-8.608970018103719">
        <ele>271.6</ele>
        <time>2022-05-01T09:33:23.620Z</time>
      </trkpt>
      <trkpt lat="42.668802961707115" lon="-8.608798021450639">
        <ele>272.4</ele>
        <time>2022-05-01T09:33:27.719Z</time>
      </trkpt>
      <trkpt lat="42.668884014710784" lon="-8.608772959560156">
        <ele>271.7</ele>
        <time>2022-05-01T09:33:30.071Z</time>
      </trkpt>
      <trkpt lat="42.668994991108775" lon="-8.608792992308736">
        <ele>271.4</ele>
        <time>2022-05-01T09:33:33.206Z</time>
      </trkpt>
      <trkpt lat="42.66910403966904" lon="-8.608982004225254">
        <ele>270.7</ele>
        <time>2022-05-01T09:33:38.235Z</time>
      </trkpt>
      <trkpt lat="42.66919900663197" lon="-8.609214015305042">
        <ele>271.9</ele>
        <time>2022-05-01T09:33:43.860Z</time>
      </trkpt>
      <trkpt lat="42.66949497163296" lon="-8.609979031607509">
        <ele>276.1</ele>
        <time>2022-05-01T09:34:03.329Z</time>
      </trkpt>
      <trkpt lat="42.66961298882961" lon="-8.610083973035216">
        <ele>277.5</ele>
        <time>2022-05-01T09:34:07.852Z</time>
      </trkpt>
      <trkpt lat="42.66978196799755" lon="-8.61019603908062">
        <ele>278.9</ele>
        <time>2022-05-01T09:34:14.041Z</time>
      </trkpt>
      <trkpt lat="42.66995002515614" lon="-8.610185980796814">
        <ele>279.4</ele>
        <time>2022-05-01T09:34:19.383Z</time>
      </trkpt>
      <trkpt lat="42.670044992119074" lon="-8.610095959156752">
        <ele>280.2</ele>
        <time>2022-05-01T09:34:23.316Z</time>
      </trkpt>
      <trkpt lat="42.67012101598084" lon="-8.609921028837562">
        <ele>280.9</ele>
        <time>2022-05-01T09:34:28.186Z</time>
      </trkpt>
      <trkpt lat="42.670372975990176" lon="-8.609045036137104">
        <ele>285.5</ele>
        <time>2022-05-01T09:34:51.962Z</time>
      </trkpt>
      <trkpt lat="42.67041999846697" lon="-8.608540026471019">
        <ele>287.6</ele>
        <time>2022-05-01T09:35:05.875Z</time>
      </trkpt>
      <trkpt lat="42.670456962659955" lon="-8.60839300788939">
        <ele>287.5</ele>
        <time>2022-05-01T09:35:09.878Z</time>
      </trkpt>
      <trkpt lat="42.67055402509868" lon="-8.608273984864354">
        <ele>287.4</ele>
        <time>2022-05-01T09:35:14.662Z</time>
      </trkpt>
      <trkpt lat="42.6709970086813" lon="-8.607970979064703">
        <ele>290.4</ele>
        <time>2022-05-01T09:35:32.397Z</time>
      </trkpt>
      <trkpt lat="42.67111502587795" lon="-8.607807029038668">
        <ele>292.8</ele>
        <time>2022-05-01T09:35:38.673Z</time>
      </trkpt>
      <trkpt lat="42.67118903808296" lon="-8.607566971331835">
        <ele>295.1</ele>
        <time>2022-05-01T09:35:46.627Z</time>
      </trkpt>
      <trkpt lat="42.671290040016174" lon="-8.607315011322498">
        <ele>297.4</ele>
        <time>2022-05-01T09:35:56.127Z</time>
      </trkpt>
      <trkpt lat="42.671549962833524" lon="-8.606879990547895">
        <ele>300.7</ele>
        <time>2022-05-01T09:36:14.573Z</time>
      </trkpt>
      <trkpt lat="42.67167300917208" lon="-8.606644039973617">
        <ele>302.7</ele>
        <time>2022-05-01T09:36:24.901Z</time>
      </trkpt>
      <trkpt lat="42.67173101194203" lon="-8.606428960338235">
        <ele>304.5</ele>
        <time>2022-05-01T09:36:33.928Z</time>
      </trkpt>
      <trkpt lat="42.67182698473334" lon="-8.605876006186008">
        <ele>308.3</ele>
        <time>2022-05-01T09:36:57.392Z</time>
      </trkpt>
      <trkpt lat="42.67192899249494" lon="-8.605576017871499">
        <ele>311.3</ele>
        <time>2022-05-01T09:37:12.259Z</time>
      </trkpt>
      <trkpt lat="42.67202898859978" lon="-8.605356998741627">
        <ele>313.3</ele>
        <time>2022-05-01T09:37:24.440Z</time>
      </trkpt>
      <trkpt lat="42.672129990532994" lon="-8.60519397072494">
        <ele>314.1</ele>
        <time>2022-05-01T09:37:33.923Z</time>
      </trkpt>
      <trkpt lat="42.6723060104996" lon="-8.6051269993186">
        <ele>316.5</ele>
        <time>2022-05-01T09:37:43.194Z</time>
      </trkpt>
      <trkpt lat="42.67246400937438" lon="-8.605132028460503">
        <ele>318.2</ele>
        <time>2022-05-01T09:37:50.242Z</time>
      </trkpt>
      <trkpt lat="42.672558976337314" lon="-8.605118030682206">
        <ele>319.2</ele>
        <time>2022-05-01T09:37:54.684Z</time>
      </trkpt>
      <trkpt lat="42.672581020742655" lon="-8.6049560084939">
        <ele>320.2</ele>
        <time>2022-05-01T09:38:00.050Z</time>
      </trkpt>
      <trkpt lat="42.67255201935768" lon="-8.604774037376046">
        <ele>321.1</ele>
        <time>2022-05-01T09:38:05.558Z</time>
      </trkpt>
      <trkpt lat="42.67251396551728" lon="-8.604626012966037">
        <ele>321.8</ele>
        <time>2022-05-01T09:38:10.233Z</time>
      </trkpt>
      <trkpt lat="42.672368958592415" lon="-8.604378998279572">
        <ele>321.8</ele>
        <time>2022-05-01T09:38:19.157Z</time>
      </trkpt>
      <trkpt lat="42.672153040766716" lon="-8.603907013311982">
        <ele>323.6</ele>
        <time>2022-05-01T09:38:35.279Z</time>
      </trkpt>
      <trkpt lat="42.67204801551998" lon="-8.603481967002153">
        <ele>325.7</ele>
        <time>2022-05-01T09:38:49.289Z</time>
      </trkpt>
      <trkpt lat="42.67188800498843" lon="-8.602732038125396">
        <ele>328.5</ele>
        <time>2022-05-01T09:39:13.735Z</time>
      </trkpt>
      <trkpt lat="42.67181298695505" lon="-8.602489968761802">
        <ele>329.7</ele>
        <time>2022-05-01T09:39:21.726Z</time>
      </trkpt>
      <trkpt lat="42.67172698862851" lon="-8.60231596045196">
        <ele>330.6</ele>
        <time>2022-05-01T09:39:28.115Z</time>
      </trkpt>
      <trkpt lat="42.67149799503386" lon="-8.602007003501058">
        <ele>332.5</ele>
        <time>2022-05-01T09:39:41.218Z</time>
      </trkpt>
      <trkpt lat="42.671272018924356" lon="-8.6016680393368">
        <ele>334.7</ele>
        <time>2022-05-01T09:39:54.841Z</time>
      </trkpt>
      <trkpt lat="42.67109499312937" lon="-8.601354975253344">
        <ele>336.6</ele>
        <time>2022-05-01T09:40:06.772Z</time>
      </trkpt>
      <trkpt lat="42.67100103199482" lon="-8.601251039654016">
        <ele>336.6</ele>
        <time>2022-05-01T09:40:11.367Z</time>
      </trkpt>
      <trkpt lat="42.670800033956766" lon="-8.601022968068719">
        <ele>337.8</ele>
        <time>2022-05-01T09:40:21.172Z</time>
      </trkpt>
      <trkpt lat="42.67072300426662" lon="-8.600877961143851">
        <ele>338.4</ele>
        <time>2022-05-01T09:40:25.995Z</time>
      </trkpt>
      <trkpt lat="42.67059702426195" lon="-8.600581996142864">
        <ele>338.8</ele>
        <time>2022-05-01T09:40:35.319Z</time>
      </trkpt>
      <trkpt lat="42.67048303037882" lon="-8.600147981196642">
        <ele>340.6</ele>
        <time>2022-05-01T09:40:47.558Z</time>
      </trkpt>
      <trkpt lat="42.67042896710336" lon="-8.599816979840398">
        <ele>341.6</ele>
        <time>2022-05-01T09:40:56.429Z</time>
      </trkpt>
      <trkpt lat="42.67039803788066" lon="-8.59962997958064">
        <ele>342.4</ele>
        <time>2022-05-01T09:41:01.308Z</time>
      </trkpt>
      <trkpt lat="42.67036501318216" lon="-8.599494025111198">
        <ele>342.9</ele>
        <time>2022-05-01T09:41:04.878Z</time>
      </trkpt>
      <trkpt lat="42.6702940184623" lon="-8.599332002922893">
        <ele>342.9</ele>
        <time>2022-05-01T09:41:09.678Z</time>
      </trkpt>
      <trkpt lat="42.67010701820254" lon="-8.599036037921906">
        <ele>343.2</ele>
        <time>2022-05-01T09:41:19.492Z</time>
      </trkpt>
      <trkpt lat="42.669958993792534" lon="-8.598805032670498">
        <ele>343.8</ele>
        <time>2022-05-01T09:41:26.941Z</time>
      </trkpt>
      <trkpt lat="42.66978599131107" lon="-8.598587019369006">
        <ele>344.9</ele>
        <time>2022-05-01T09:41:34.817Z</time>
      </trkpt>
      <trkpt lat="42.66970896162093" lon="-8.598498003557324">
        <ele>345.5</ele>
        <time>2022-05-01T09:41:38.419Z</time>
      </trkpt>
      <trkpt lat="42.66952799633145" lon="-8.598309997469187">
        <ele>346.6</ele>
        <time>2022-05-01T09:41:46.205Z</time>
      </trkpt>
      <trkpt lat="42.669466976076365" lon="-8.598202960565686">
        <ele>347.3</ele>
        <time>2022-05-01T09:41:49.756Z</time>
      </trkpt>
      <trkpt lat="42.669360022991896" lon="-8.597990982234478">
        <ele>348.5</ele>
        <time>2022-05-01T09:41:56.285Z</time>
      </trkpt>
      <trkpt lat="42.66929296776652" lon="-8.59773701056838">
        <ele>350.2</ele>
        <time>2022-05-01T09:42:02.966Z</time>
      </trkpt>
      <trkpt lat="42.66923798248172" lon="-8.597516985610127">
        <ele>351.4</ele>
        <time>2022-05-01T09:42:08.632Z</time>
      </trkpt>
      <trkpt lat="42.669229013845325" lon="-8.597123958170414">
        <ele>353.7</ele>
        <time>2022-05-01T09:42:19.008Z</time>
      </trkpt>
      <trkpt lat="42.66921702772379" lon="-8.596092984080315">
        <ele>359.8</ele>
        <time>2022-05-01T09:42:49.417Z</time>
      </trkpt>
      <trkpt lat="42.6692389883101" lon="-8.595493007451296">
        <ele>363.9</ele>
        <time>2022-05-01T09:43:07.957Z</time>
      </trkpt>
      <trkpt lat="42.66922096721828" lon="-8.595213973894715">
        <ele>365.5</ele>
        <time>2022-05-01T09:43:16.147Z</time>
      </trkpt>
      <trkpt lat="42.669186014682055" lon="-8.595038037747145">
        <ele>366.8</ele>
        <time>2022-05-01T09:43:21.456Z</time>
      </trkpt>
      <trkpt lat="42.66913396306336" lon="-8.594915997236967">
        <ele>367.8</ele>
        <time>2022-05-01T09:43:25.642Z</time>
      </trkpt>
      <trkpt lat="42.66900002025068" lon="-8.594755986705422">
        <ele>369.1</ele>
        <time>2022-05-01T09:43:32.744Z</time>
      </trkpt>
      <trkpt lat="42.66887001693249" lon="-8.594632018357515">
        <ele>369.7</ele>
        <time>2022-05-01T09:43:38.624Z</time>
      </trkpt>
      <trkpt lat="42.66879701055586" lon="-8.594506038352847">
        <ele>370.3</ele>
        <time>2022-05-01T09:43:42.745Z</time>
      </trkpt>
      <trkpt lat="42.668760968372226" lon="-8.594307973980904">
        <ele>372.3</ele>
        <time>2022-05-01T09:43:48.527Z</time>
      </trkpt>
      <trkpt lat="42.66874697059393" lon="-8.594043022021651">
        <ele>374.4</ele>
        <time>2022-05-01T09:43:56.587Z</time>
      </trkpt>
      <trkpt lat="42.66875099390745" lon="-8.593833977356553">
        <ele>375.4</ele>
        <time>2022-05-01T09:44:02.797Z</time>
      </trkpt>
      <trkpt lat="42.66898702830076" lon="-8.593240035697818">
        <ele>382.3</ele>
        <time>2022-05-01T09:44:24.971Z</time>
      </trkpt>
      <trkpt lat="42.66907503828406" lon="-8.59292697161436">
        <ele>384.7</ele>
        <time>2022-05-01T09:44:35.844Z</time>
      </trkpt>
      <trkpt lat="42.66908903606236" lon="-8.592528998851776">
        <ele>387.2</ele>
        <time>2022-05-01T09:44:49.927Z</time>
      </trkpt>
      <trkpt lat="42.6690180413425" lon="-8.592161033302546">
        <ele>390.1</ele>
        <time>2022-05-01T09:45:01.907Z</time>
      </trkpt>
      <trkpt lat="42.66864001750946" lon="-8.589584017172456">
        <ele>409.1</ele>
        <time>2022-05-01T09:46:33.484Z</time>
      </trkpt>
      <trkpt lat="42.66861403360963" lon="-8.58927003107965">
        <ele>412.7</ele>
        <time>2022-05-01T09:46:43.327Z</time>
      </trkpt>
      <trkpt lat="42.668588971719146" lon="-8.58914497308433">
        <ele>414.3</ele>
        <time>2022-05-01T09:46:47.031Z</time>
      </trkpt>
      <trkpt lat="42.66851001419127" lon="-8.58907800167799">
        <ele>414.8</ele>
        <time>2022-05-01T09:46:50.410Z</time>
      </trkpt>
      <trkpt lat="42.66841999255121" lon="-8.589038019999862">
        <ele>414.9</ele>
        <time>2022-05-01T09:46:54.059Z</time>
      </trkpt>
      <trkpt lat="42.66805303283036" lon="-8.589132986962795">
        <ele>415.9</ele>
        <time>2022-05-01T09:47:07.773Z</time>
      </trkpt>
      <trkpt lat="42.667987989261746" lon="-8.589128041639924">
        <ele>416.3</ele>
        <time>2022-05-01T09:47:10.033Z</time>
      </trkpt>
      <trkpt lat="42.6678969617933" lon="-8.589070960879326">
        <ele>416.6</ele>
        <time>2022-05-01T09:47:13.769Z</time>
      </trkpt>
      <trkpt lat="42.667621029540896" lon="-8.588629988953471">
        <ele>421.7</ele>
        <time>2022-05-01T09:47:30.530Z</time>
      </trkpt>
      <trkpt lat="42.6674669701606" lon="-8.588465033099055">
        <ele>424.1</ele>
        <time>2022-05-01T09:47:38.064Z</time>
      </trkpt>
      <trkpt lat="42.667276030406356" lon="-8.588364031165838">
        <ele>426.3</ele>
        <time>2022-05-01T09:47:46.539Z</time>
      </trkpt>
      <trkpt lat="42.66679298132658" lon="-8.588238973170519">
        <ele>428.7</ele>
        <time>2022-05-01T09:48:07.337Z</time>
      </trkpt>
      <trkpt lat="42.66629199497402" lon="-8.587814010679722">
        <ele>434.1</ele>
        <time>2022-05-01T09:48:32.975Z</time>
      </trkpt>
      <trkpt lat="42.665537958964705" lon="-8.5865009855479">
        <ele>444.5</ele>
        <time>2022-05-01T09:49:31.356Z</time>
      </trkpt>
      <trkpt lat="42.66522003337741" lon="-8.58594300225377">
        <ele>448.7</ele>
        <time>2022-05-01T09:49:53.441Z</time>
      </trkpt>
      <trkpt lat="42.66518197953701" lon="-8.585783997550607">
        <ele>448.9</ele>
        <time>2022-05-01T09:49:58.235Z</time>
      </trkpt>
      <trkpt lat="42.66517896205187" lon="-8.58559800311923">
        <ele>449.8</ele>
        <time>2022-05-01T09:50:03.215Z</time>
      </trkpt>
      <trkpt lat="42.66537501476705" lon="-8.584354966878891">
        <ele>457.3</ele>
        <time>2022-05-01T09:50:40.613Z</time>
      </trkpt>
      <trkpt lat="42.665495965629816" lon="-8.58383797109127">
        <ele>460.2</ele>
        <time>2022-05-01T09:50:55.562Z</time>
      </trkpt>
      <trkpt lat="42.66548196785152" lon="-8.583404961973429">
        <ele>460.6</ele>
        <time>2022-05-01T09:51:06.875Z</time>
      </trkpt>
      <trkpt lat="42.665383983403444" lon="-8.582786964252591">
        <ele>461.1</ele>
        <time>2022-05-01T09:51:22.609Z</time>
      </trkpt>
      <trkpt lat="42.665382977575064" lon="-8.582707000896335">
        <ele>460.5</ele>
        <time>2022-05-01T09:51:24.518Z</time>
      </trkpt>
      <trkpt lat="42.66539404168725" lon="-8.582641035318375">
        <ele>460.2</ele>
        <time>2022-05-01T09:51:26.080Z</time>
      </trkpt>
      <trkpt lat="42.66544399783015" lon="-8.582544978708029">
        <ele>460.4</ele>
        <time>2022-05-01T09:51:28.731Z</time>
      </trkpt>
      <trkpt lat="42.66547601670027" lon="-8.582506002858281">
        <ele>460.1</ele>
        <time>2022-05-01T09:51:30.017Z</time>
      </trkpt>
      <trkpt lat="42.665944984182715" lon="-8.582410030066967">
        <ele>463.4</ele>
        <time>2022-05-01T09:51:44.229Z</time>
      </trkpt>
      <trkpt lat="42.666418980807066" lon="-8.582463003695011">
        <ele>466.4</ele>
        <time>2022-05-01T09:51:59.422Z</time>
      </trkpt>
      <trkpt lat="42.66659298911691" lon="-8.582430984824896">
        <ele>467.7</ele>
        <time>2022-05-01T09:52:04.862Z</time>
      </trkpt>
      <trkpt lat="42.667750027030706" lon="-8.581491960212588">
        <ele>466.7</ele>
        <time>2022-05-01T09:52:45.899Z</time>
      </trkpt>
      <trkpt lat="42.667984971776605" lon="-8.581447033211589">
        <ele>468.2</ele>
        <time>2022-05-01T09:52:53.313Z</time>
      </trkpt>
      <trkpt lat="42.668242966756225" lon="-8.581445021554828">
        <ele>469.5</ele>
        <time>2022-05-01T09:53:01.162Z</time>
      </trkpt>
      <trkpt lat="42.66868997365236" lon="-8.58140797354281">
        <ele>472.7</ele>
        <time>2022-05-01T09:53:14.620Z</time>
      </trkpt>
      <trkpt lat="42.6693959813565" lon="-8.58001196756959">
        <ele>455.1</ele>
        <time>2022-05-01T09:53:41.031Z</time>
      </trkpt>
      <trkpt lat="42.66947996802628" lon="-8.579143015667796">
        <ele>449.4</ele>
        <time>2022-05-01T09:53:54.558Z</time>
      </trkpt>
      <trkpt lat="42.66959002241492" lon="-8.578689973801374">
        <ele>448.7</ele>
        <time>2022-05-01T09:54:01.655Z</time>
      </trkpt>
      <trkpt lat="42.66924996860325" lon="-8.578917039558291">
        <ele>448.5</ele>
        <time>2022-05-01T09:54:09.599Z</time>
      </trkpt>
      <trkpt lat="42.668243972584605" lon="-8.578926008194685">
        <ele>438.1</ele>
        <time>2022-05-01T09:54:26.572Z</time>
      </trkpt>
      <trkpt lat="42.66783099621534" lon="-8.579145027324557">
        <ele>432.3</ele>
        <time>2022-05-01T09:54:33.005Z</time>
      </trkpt>
      <trkpt lat="42.667750027030706" lon="-8.579243011772633">
        <ele>430.1</ele>
        <time>2022-05-01T09:54:34.423Z</time>
      </trkpt>
      <trkpt lat="42.667363034561276" lon="-8.579351976513863">
        <ele>423.7</ele>
        <time>2022-05-01T09:54:39.364Z</time>
      </trkpt>
      <trkpt lat="42.66718399710953" lon="-8.5792170278728">
        <ele>421.6</ele>
        <time>2022-05-01T09:54:42.063Z</time>
      </trkpt>
      <trkpt lat="42.66711199656129" lon="-8.579143015667796">
        <ele>420.3</ele>
        <time>2022-05-01T09:54:43.146Z</time>
      </trkpt>
      <trkpt lat="42.666977969929576" lon="-8.578707994893193">
        <ele>418.5</ele>
        <time>2022-05-01T09:54:47.524Z</time>
      </trkpt>
      <trkpt lat="42.666910998523235" lon="-8.578621996566653">
        <ele>417.5</ele>
        <time>2022-05-01T09:54:48.800Z</time>
      </trkpt>
      <trkpt lat="42.666826006025076" lon="-8.5785729624331">
        <ele>416.2</ele>
        <time>2022-05-01T09:54:50.178Z</time>
      </trkpt>
      <trkpt lat="42.66663699410856" lon="-8.578578997403383">
        <ele>407.7</ele>
        <time>2022-05-01T09:54:52.995Z</time>
      </trkpt>
      <trkpt lat="42.66655602492392" lon="-8.578584026545286">
        <ele>407.6</ele>
        <time>2022-05-01T09:54:54.079Z</time>
      </trkpt>
      <trkpt lat="42.66645301133394" lon="-8.578639011830091">
        <ele>406.7</ele>
        <time>2022-05-01T09:54:55.678Z</time>
      </trkpt>
      <trkpt lat="42.66635402105749" lon="-8.578755017369986">
        <ele>404.9</ele>
        <time>2022-05-01T09:54:57.417Z</time>
      </trkpt>
      <trkpt lat="42.66625000163913" lon="-8.578974958509207">
        <ele>400.9</ele>
        <time>2022-05-01T09:54:59.756Z</time>
      </trkpt>
      <trkpt lat="42.666155034676194" lon="-8.579249968752265">
        <ele>396.2</ele>
        <time>2022-05-01T09:55:02.327Z</time>
      </trkpt>
      <trkpt lat="42.66580902971327" lon="-8.579236976802349">
        <ele>394.3</ele>
        <time>2022-05-01T09:55:06.073Z</time>
      </trkpt>
      <trkpt lat="42.66561700031161" lon="-8.579227002337575">
        <ele>391.2</ele>
        <time>2022-05-01T09:55:08.045Z</time>
      </trkpt>
      <trkpt lat="42.66545103862882" lon="-8.5791290178895">
        <ele>389.5</ele>
        <time>2022-05-01T09:55:09.834Z</time>
      </trkpt>
      <trkpt lat="42.6651549898088" lon="-8.578833974897861">
        <ele>386.5</ele>
        <time>2022-05-01T09:55:13.398Z</time>
      </trkpt>
      <trkpt lat="42.664828011766076" lon="-8.57839803211391">
        <ele>384.4</ele>
        <time>2022-05-01T09:55:17.828Z</time>
      </trkpt>
      <trkpt lat="42.66460002399981" lon="-8.578115981072187">
        <ele>380.2</ele>
        <time>2022-05-01T09:55:20.718Z</time>
      </trkpt>
      <trkpt lat="42.66440698876977" lon="-8.57771197333932">
        <ele>374.3</ele>
        <time>2022-05-01T09:55:24.237Z</time>
      </trkpt>
      <trkpt lat="42.664140025153756" lon="-8.577450038865209">
        <ele>366.2</ele>
        <time>2022-05-01T09:55:27.845Z</time>
      </trkpt>
      <trkpt lat="42.66382201574743" lon="-8.577234959229827">
        <ele>358.2</ele>
        <time>2022-05-01T09:55:31.535Z</time>
      </trkpt>
      <trkpt lat="42.663771975785494" lon="-8.57713001780212">
        <ele>357.0</ele>
        <time>2022-05-01T09:55:32.586Z</time>
      </trkpt>
      <trkpt lat="42.663712967187166" lon="-8.576893983408809">
        <ele>355.2</ele>
        <time>2022-05-01T09:55:34.621Z</time>
      </trkpt>
      <trkpt lat="42.66363702714443" lon="-8.576807985082269">
        <ele>353.0</ele>
        <time>2022-05-01T09:55:35.656Z</time>
      </trkpt>
      <trkpt lat="42.66357399523258" lon="-8.576784012839198">
        <ele>351.4</ele>
        <time>2022-05-01T09:55:36.410Z</time>
      </trkpt>
      <trkpt lat="42.66350199468434" lon="-8.57670396566391">
        <ele>349.2</ele>
        <time>2022-05-01T09:55:37.580Z</time>
      </trkpt>
      <trkpt lat="42.66341700218618" lon="-8.576678987592459">
        <ele>347.1</ele>
        <time>2022-05-01T09:55:38.608Z</time>
      </trkpt>
      <trkpt lat="42.66338096000254" lon="-8.576562982052565">
        <ele>345.8</ele>
        <time>2022-05-01T09:55:39.802Z</time>
      </trkpt>
      <trkpt lat="42.66337299719453" lon="-8.576006004586816">
        <ele>339.9</ele>
        <time>2022-05-01T09:55:44.896Z</time>
      </trkpt>
      <trkpt lat="42.66351297497749" lon="-8.575601996853948">
        <ele>336.4</ele>
        <time>2022-05-01T09:55:49.260Z</time>
      </trkpt>
      <trkpt lat="42.663513980805874" lon="-8.575205029919744">
        <ele>331.6</ele>
        <time>2022-05-01T09:55:53.551Z</time>
      </trkpt>
      <trkpt lat="42.66359101049602" lon="-8.574801022186875">
        <ele>327.3</ele>
        <time>2022-05-01T09:55:57.778Z</time>
      </trkpt>
      <trkpt lat="42.66358598135412" lon="-8.574697002768517">
        <ele>326.0</ele>
        <time>2022-05-01T09:55:58.914Z</time>
      </trkpt>
      <trkpt lat="42.66355102881789" lon="-8.574634976685047">
        <ele>324.9</ele>
        <time>2022-05-01T09:55:59.826Z</time>
      </trkpt>
      <trkpt lat="42.66346100717783" lon="-8.574591977521777">
        <ele>323.5</ele>
        <time>2022-05-01T09:56:01.163Z</time>
      </trkpt>
      <trkpt lat="42.66327199526131" lon="-8.574543027207255">
        <ele>320.7</ele>
        <time>2022-05-01T09:56:03.902Z</time>
      </trkpt>
      <trkpt lat="42.662873016670346" lon="-8.574516959488392">
        <ele>314.4</ele>
        <time>2022-05-01T09:56:09.790Z</time>
      </trkpt>
      <trkpt lat="42.66275097616017" lon="-8.574504973366857">
        <ele>313.8</ele>
        <time>2022-05-01T09:56:11.445Z</time>
      </trkpt>
      <trkpt lat="42.6626300252974" lon="-8.574430961161852">
        <ele>312.7</ele>
        <time>2022-05-01T09:56:13.294Z</time>
      </trkpt>
      <trkpt lat="42.66241402365267" lon="-8.574324008077383">
        <ele>312.2</ele>
        <time>2022-05-01T09:56:16.257Z</time>
      </trkpt>
      <trkpt lat="42.661946984007955" lon="-8.574310010299087">
        <ele>309.2</ele>
        <time>2022-05-01T09:56:21.975Z</time>
      </trkpt>
      <trkpt lat="42.66165898181498" lon="-8.57442601583898">
        <ele>305.9</ele>
        <time>2022-05-01T09:56:25.469Z</time>
      </trkpt>
      <trkpt lat="42.66136201098561" lon="-8.574670013040304">
        <ele>301.8</ele>
        <time>2022-05-01T09:56:29.511Z</time>
      </trkpt>
      <trkpt lat="42.661174004897475" lon="-8.574730027467012">
        <ele>299.8</ele>
        <time>2022-05-01T09:56:31.916Z</time>
      </trkpt>
      <trkpt lat="42.66101600602269" lon="-8.574894983321428">
        <ele>299.0</ele>
        <time>2022-05-01T09:56:34.389Z</time>
      </trkpt>
      <trkpt lat="42.66080000437796" lon="-8.57526202686131">
        <ele>298.8</ele>
        <time>2022-05-01T09:56:38.922Z</time>
      </trkpt>
      <trkpt lat="42.66072800382972" lon="-8.575340984389186">
        <ele>298.8</ele>
        <time>2022-05-01T09:56:40.194Z</time>
      </trkpt>
      <trkpt lat="42.66053999774158" lon="-8.575379960238934">
        <ele>298.0</ele>
        <time>2022-05-01T09:56:42.901Z</time>
      </trkpt>
      <trkpt lat="42.66019399277866" lon="-8.575361017137766">
        <ele>297.2</ele>
        <time>2022-05-01T09:56:48.165Z</time>
      </trkpt>
      <trkpt lat="42.66008603386581" lon="-8.575373003259301">
        <ele>297.1</ele>
        <time>2022-05-01T09:56:49.889Z</time>
      </trkpt>
      <trkpt lat="42.65985704027116" lon="-8.575580036267638">
        <ele>296.1</ele>
        <time>2022-05-01T09:56:54.504Z</time>
      </trkpt>
      <trkpt lat="42.65971798449755" lon="-8.57562898658216">
        <ele>295.0</ele>
        <time>2022-05-01T09:56:56.570Z</time>
      </trkpt>
      <trkpt lat="42.6588190253824" lon="-8.575663017109036">
        <ele>286.0</ele>
        <time>2022-05-01T09:57:08.772Z</time>
      </trkpt>
      <trkpt lat="42.65801100991666" lon="-8.575737029314041">
        <ele>278.5</ele>
        <time>2022-05-01T09:57:19.219Z</time>
      </trkpt>
      <trkpt lat="42.657714039087296" lon="-8.57586502097547">
        <ele>276.9</ele>
        <time>2022-05-01T09:57:23.134Z</time>
      </trkpt>
      <trkpt lat="42.657372979447246" lon="-8.576071970164776">
        <ele>273.7</ele>
        <time>2022-05-01T09:57:28.027Z</time>
      </trkpt>
      <trkpt lat="42.657070979475975" lon="-8.576153023168445">
        <ele>272.6</ele>
        <time>2022-05-01T09:57:32.244Z</time>
      </trkpt>
      <trkpt lat="42.656985986977816" lon="-8.576135002076626">
        <ele>271.1</ele>
        <time>2022-05-01T09:57:33.513Z</time>
      </trkpt>
      <trkpt lat="42.65689596533775" lon="-8.576042968779802">
        <ele>268.5</ele>
        <time>2022-05-01T09:57:34.989Z</time>
      </trkpt>
      <trkpt lat="42.6568519603461" lon="-8.575896034017205">
        <ele>265.9</ele>
        <time>2022-05-01T09:57:36.689Z</time>
      </trkpt>
      <trkpt lat="42.6568659581244" lon="-8.575143003836274">
        <ele>259.9</ele>
        <time>2022-05-01T09:57:44.512Z</time>
      </trkpt>
      <trkpt lat="42.65688003972173" lon="-8.5748740285635">
        <ele>257.5</ele>
        <time>2022-05-01T09:57:47.167Z</time>
      </trkpt>
      <trkpt lat="42.65686696395278" lon="-8.574757017195225">
        <ele>256.3</ele>
        <time>2022-05-01T09:57:48.293Z</time>
      </trkpt>
      <trkpt lat="42.65682203695178" lon="-8.57472700998187">
        <ele>255.0</ele>
        <time>2022-05-01T09:57:48.994Z</time>
      </trkpt>
      <trkpt lat="42.65677300281823" lon="-8.574719969183207">
        <ele>253.8</ele>
        <time>2022-05-01T09:57:49.614Z</time>
      </trkpt>
      <trkpt lat="42.65670100226998" lon="-8.574775038287044">
        <ele>252.5</ele>
        <time>2022-05-01T09:57:50.741Z</time>
      </trkpt>
      <trkpt lat="42.656664960086346" lon="-8.574904035776854">
        <ele>252.7</ele>
        <time>2022-05-01T09:57:52.235Z</time>
      </trkpt>
      <trkpt lat="42.65658399090171" lon="-8.575001014396548">
        <ele>251.3</ele>
        <time>2022-05-01T09:57:53.936Z</time>
      </trkpt>
      <trkpt lat="42.656511990353465" lon="-8.574951980262995">
        <ele>249.5</ele>
        <time>2022-05-01T09:57:55.287Z</time>
      </trkpt>
      <trkpt lat="42.656466979533434" lon="-8.574744025245309">
        <ele>246.9</ele>
        <time>2022-05-01T09:57:57.706Z</time>
      </trkpt>
      <trkpt lat="42.656642999500036" lon="-8.574439007788897">
        <ele>248.2</ele>
        <time>2022-05-01T09:58:02.330Z</time>
      </trkpt>
      <trkpt lat="42.65654400922358" lon="-8.574371030554175">
        <ele>245.9</ele>
        <time>2022-05-01T09:58:04.238Z</time>
      </trkpt>
      <trkpt lat="42.656382992863655" lon="-8.574229963123798">
        <ele>242.8</ele>
        <time>2022-05-01T09:58:07.718Z</time>
      </trkpt>
      <trkpt lat="42.65626195818186" lon="-8.574100965633988">
        <ele>241.2</ele>
        <time>2022-05-01T09:58:10.480Z</time>
      </trkpt>
      <trkpt lat="42.65620403923094" lon="-8.573978003114462">
        <ele>240.3</ele>
        <time>2022-05-01T09:58:12.346Z</time>
      </trkpt>
      <trkpt lat="42.656145030632615" lon="-8.573868032544851">
        <ele>239.4</ele>
        <time>2022-05-01T09:58:13.843Z</time>
      </trkpt>
      <trkpt lat="42.656146036460996" lon="-8.573775999248028">
        <ele>239.2</ele>
        <time>2022-05-01T09:58:14.959Z</time>
      </trkpt>
      <trkpt lat="42.653804970905185" lon="-8.573687989264727">
        <ele>209.8</ele>
        <time>2022-05-01T09:58:48.226Z</time>
      </trkpt>
      <trkpt lat="42.65361696481705" lon="-8.573714978992939">
        <ele>209.1</ele>
        <time>2022-05-01T09:58:51.045Z</time>
      </trkpt>
      <trkpt lat="42.65345100313425" lon="-8.573787985369563">
        <ele>208.7</ele>
        <time>2022-05-01T09:58:53.785Z</time>
      </trkpt>
      <trkpt lat="42.652920009568334" lon="-8.574220994487405">
        <ele>208.3</ele>
        <time>2022-05-01T09:59:04.028Z</time>
      </trkpt>
      <trkpt lat="42.65282101929188" lon="-8.574270028620958">
        <ele>207.9</ele>
        <time>2022-05-01T09:59:05.874Z</time>
      </trkpt>
      <trkpt lat="42.652664026245475" lon="-8.574244966730475">
        <ele>207.1</ele>
        <time>2022-05-01T09:59:08.516Z</time>
      </trkpt>
      <trkpt lat="42.65235397964716" lon="-8.574482006952167">
        <ele>205.5</ele>
        <time>2022-05-01T09:59:14.440Z</time>
      </trkpt>
      <trkpt lat="42.65188199467957" lon="-8.574625002220273">
        <ele>202.7</ele>
        <time>2022-05-01T09:59:22.776Z</time>
      </trkpt>
      <trkpt lat="42.65172902494669" lon="-8.574728015810251">
        <ele>201.9</ele>
        <time>2022-05-01T09:59:25.869Z</time>
      </trkpt>
      <trkpt lat="42.651548981666565" lon="-8.574973018839955">
        <ele>201.7</ele>
        <time>2022-05-01T09:59:30.713Z</time>
      </trkpt>
      <trkpt lat="42.65119803138077" lon="-8.575088018551469">
        <ele>205.1</ele>
        <time>2022-05-01T09:59:37.809Z</time>
      </trkpt>
      <trkpt lat="42.6510810200125" lon="-8.575239982455969">
        <ele>206.7</ele>
        <time>2022-05-01T09:59:41.481Z</time>
      </trkpt>
      <trkpt lat="42.65036000870168" lon="-8.575716996565461">
        <ele>212.4</ele>
        <time>2022-05-01T10:00:00.758Z</time>
      </trkpt>
      <trkpt lat="42.65031600371003" lon="-8.575723031535745">
        <ele>212.4</ele>
        <time>2022-05-01T10:00:01.835Z</time>
      </trkpt>
      <trkpt lat="42.647618036717176" lon="-8.574772020801902">
        <ele>208.0</ele>
        <time>2022-05-01T10:01:09.133Z</time>
      </trkpt>
      <trkpt lat="42.647013030946255" lon="-8.574571022763848">
        <ele>204.8</ele>
        <time>2022-05-01T10:01:24.371Z</time>
      </trkpt>
      <trkpt lat="42.6448090095073" lon="-8.574139019474387">
        <ele>193.9</ele>
        <time>2022-05-01T10:02:13.615Z</time>
      </trkpt>
      <trkpt lat="42.6443599909544" lon="-8.573979008942842">
        <ele>192.2</ele>
        <time>2022-05-01T10:02:24.139Z</time>
      </trkpt>
      <trkpt lat="42.64300698414445" lon="-8.57365496456623">
        <ele>190.2</ele>
        <time>2022-05-01T10:02:55.019Z</time>
      </trkpt>
      <trkpt lat="42.64284202829003" lon="-8.575294967740774">
        <ele>189.4</ele>
        <time>2022-05-01T10:03:22.788Z</time>
      </trkpt>
      <trkpt lat="42.64266902580857" lon="-8.576731961220503">
        <ele>189.0</ele>
        <time>2022-05-01T10:03:47.468Z</time>
      </trkpt>
      <trkpt lat="42.64266399666667" lon="-8.57700202614069">
        <ele>188.7</ele>
        <time>2022-05-01T10:03:52.121Z</time>
      </trkpt>
      <trkpt lat="42.64281797222793" lon="-8.577458001673222">
        <ele>187.8</ele>
        <time>2022-05-01T10:04:00.915Z</time>
      </trkpt>
      <trkpt lat="42.64301000162959" lon="-8.57790601439774">
        <ele>188.3</ele>
        <time>2022-05-01T10:04:10.082Z</time>
      </trkpt>
      <trkpt lat="42.64206603169441" lon="-8.578391997143626">
        <ele>187.6</ele>
        <time>2022-05-01T10:04:34.671Z</time>
      </trkpt>
      <trkpt lat="42.64228203333914" lon="-8.578944029286504">
        <ele>188.9</ele>
        <time>2022-05-01T10:04:46.010Z</time>
      </trkpt>
      <trkpt lat="42.643146961927414" lon="-8.580139959231019">
        <ele>191.8</ele>
        <time>2022-05-01T10:05:17.340Z</time>
      </trkpt>
      <trkpt lat="42.643191972747445" lon="-8.580238027498126">
        <ele>192.0</ele>
        <time>2022-05-01T10:05:19.511Z</time>
      </trkpt>
      <trkpt lat="42.64315601438284" lon="-8.580427961423993">
        <ele>192.2</ele>
        <time>2022-05-01T10:05:23.184Z</time>
      </trkpt>
      <trkpt lat="42.64300698414445" lon="-8.580580009147525">
        <ele>192.2</ele>
        <time>2022-05-01T10:05:27.900Z</time>
      </trkpt>
      <trkpt lat="42.642849991098046" lon="-8.58070196583867">
        <ele>192.1</ele>
        <time>2022-05-01T10:05:32.446Z</time>
      </trkpt>
      <trkpt lat="42.64245402999222" lon="-8.58112902380526">
        <ele>191.5</ele>
        <time>2022-05-01T10:05:45.135Z</time>
      </trkpt>
      <trkpt lat="42.642226964235306" lon="-8.581070015206933">
        <ele>190.9</ele>
        <time>2022-05-01T10:05:50.933Z</time>
      </trkpt>
      <trkpt lat="42.64206100255251" lon="-8.581088036298752">
        <ele>190.5</ele>
        <time>2022-05-01T10:05:54.932Z</time>
      </trkpt>
      <trkpt lat="42.641710974276066" lon="-8.581228014081717">
        <ele>189.9</ele>
        <time>2022-05-01T10:06:03.649Z</time>
      </trkpt>
      <trkpt lat="42.64128400012851" lon="-8.581502018496394">
        <ele>189.1</ele>
        <time>2022-05-01T10:06:15.046Z</time>
      </trkpt>
      <trkpt lat="42.64113103039563" lon="-8.581617018207908">
        <ele>189.1</ele>
        <time>2022-05-01T10:06:19.288Z</time>
      </trkpt>
      <trkpt lat="42.640802040696144" lon="-8.582001999020576">
        <ele>190.7</ele>
        <time>2022-05-01T10:06:29.991Z</time>
      </trkpt>
      <trkpt lat="42.64071595855057" lon="-8.58209797181189">
        <ele>190.8</ele>
        <time>2022-05-01T10:06:32.763Z</time>
      </trkpt>
      <trkpt lat="42.64008203521371" lon="-8.582573980093002">
        <ele>192.5</ele>
        <time>2022-05-01T10:06:51.842Z</time>
      </trkpt>
      <trkpt lat="42.63974499888718" lon="-8.582963990047574">
        <ele>196.0</ele>
        <time>2022-05-01T10:07:03.893Z</time>
      </trkpt>
      <trkpt lat="42.639646008610725" lon="-8.58301897533238">
        <ele>197.1</ele>
        <time>2022-05-01T10:07:06.791Z</time>
      </trkpt>
      <trkpt lat="42.63928701169789" lon="-8.582992991432548">
        <ele>198.9</ele>
        <time>2022-05-01T10:07:16.850Z</time>
      </trkpt>
      <trkpt lat="42.638721987605095" lon="-8.583101034164429">
        <ele>203.7</ele>
        <time>2022-05-01T10:07:34.238Z</time>
      </trkpt>
      <trkpt lat="42.638375982642174" lon="-8.583259033039212">
        <ele>205.7</ele>
        <time>2022-05-01T10:07:46.677Z</time>
      </trkpt>
      <trkpt lat="42.637796038761735" lon="-8.58360000886023">
        <ele>210.3</ele>
        <time>2022-05-01T10:08:07.575Z</time>
      </trkpt>
      <trkpt lat="42.63772898353636" lon="-8.583630016073585">
        <ele>210.7</ele>
        <time>2022-05-01T10:08:09.825Z</time>
      </trkpt>
      <trkpt lat="42.636790964752436" lon="-8.583570001646876">
        <ele>218.8</ele>
        <time>2022-05-01T10:08:42.600Z</time>
      </trkpt>
      <trkpt lat="42.635780023410916" lon="-8.583651976659894">
        <ele>219.6</ele>
        <time>2022-05-01T10:09:16.194Z</time>
      </trkpt>
      <trkpt lat="42.635565027594566" lon="-8.583693969994783">
        <ele>218.6</ele>
        <time>2022-05-01T10:09:23.134Z</time>
      </trkpt>
      <trkpt lat="42.63550995849073" lon="-8.583817016333342">
        <ele>218.3</ele>
        <time>2022-05-01T10:09:26.270Z</time>
      </trkpt>
      <trkpt lat="42.635352965444326" lon="-8.584099989384413">
        <ele>217.9</ele>
        <time>2022-05-01T10:09:33.853Z</time>
      </trkpt>
      <trkpt lat="42.63505498878658" lon="-8.584828041493893">
        <ele>217.3</ele>
        <time>2022-05-01T10:09:51.171Z</time>
      </trkpt>
      <trkpt lat="42.63480696827173" lon="-8.585604038089514">
        <ele>217.7</ele>
        <time>2022-05-01T10:10:08.181Z</time>
      </trkpt>
      <trkpt lat="42.63419500552118" lon="-8.585460036993027">
        <ele>215.7</ele>
        <time>2022-05-01T10:10:24.547Z</time>
      </trkpt>
      <trkpt lat="42.633372992277145" lon="-8.585170023143291">
        <ele>213.8</ele>
        <time>2022-05-01T10:10:46.539Z</time>
      </trkpt>
      <trkpt lat="42.6323860231787" lon="-8.584597958251834">
        <ele>214.7</ele>
        <time>2022-05-01T10:11:13.458Z</time>
      </trkpt>
      <trkpt lat="42.632144037634134" lon="-8.58452101238072">
        <ele>213.9</ele>
        <time>2022-05-01T10:11:19.742Z</time>
      </trkpt>
      <trkpt lat="42.63190196827054" lon="-8.584452029317617">
        <ele>212.0</ele>
        <time>2022-05-01T10:11:25.349Z</time>
      </trkpt>
      <trkpt lat="42.63161497190595" lon="-8.584444988518953">
        <ele>209.1</ele>
        <time>2022-05-01T10:11:32.000Z</time>
      </trkpt>
      <trkpt lat="42.63112496584654" lon="-8.584498967975378">
        <ele>205.0</ele>
        <time>2022-05-01T10:11:41.028Z</time>
      </trkpt>
      <trkpt lat="42.63052700087428" lon="-8.584616985172033">
        <ele>200.5</ele>
        <time>2022-05-01T10:11:50.990Z</time>
      </trkpt>
      <trkpt lat="42.630257019773126" lon="-8.584764003753662">
        <ele>198.4</ele>
        <time>2022-05-01T10:11:56.072Z</time>
      </trkpt>
      <trkpt lat="42.62981998734176" lon="-8.585159964859486">
        <ele>196.5</ele>
        <time>2022-05-01T10:12:04.691Z</time>
      </trkpt>
      <trkpt lat="42.62977497652173" lon="-8.58523297123611">
        <ele>196.9</ele>
        <time>2022-05-01T10:12:05.910Z</time>
      </trkpt>
      <trkpt lat="42.62941296212375" lon="-8.585498007014394">
        <ele>193.2</ele>
        <time>2022-05-01T10:12:12.169Z</time>
      </trkpt>
      <trkpt lat="42.62903602793813" lon="-8.585624992847443">
        <ele>187.6</ele>
        <time>2022-05-01T10:12:18.045Z</time>
      </trkpt>
      <trkpt lat="42.628536969423294" lon="-8.585623987019062">
        <ele>180.5</ele>
        <time>2022-05-01T10:12:24.853Z</time>
      </trkpt>
      <trkpt lat="42.628279980272055" lon="-8.585602026432753">
        <ele>177.5</ele>
        <time>2022-05-01T10:12:28.137Z</time>
      </trkpt>
      <trkpt lat="42.62807797640562" lon="-8.58557696454227">
        <ele>175.4</ele>
        <time>2022-05-01T10:12:30.569Z</time>
      </trkpt>
      <trkpt lat="42.62793900445104" lon="-8.585527008399367">
        <ele>173.6</ele>
        <time>2022-05-01T10:12:32.447Z</time>
      </trkpt>
      <trkpt lat="42.627807995304465" lon="-8.585442015901208">
        <ele>172.0</ele>
        <time>2022-05-01T10:12:34.499Z</time>
      </trkpt>
      <trkpt lat="42.627658965066075" lon="-8.585280999541283">
        <ele>170.8</ele>
        <time>2022-05-01T10:12:37.260Z</time>
      </trkpt>
      <trkpt lat="42.62758696451783" lon="-8.585153007879853">
        <ele>170.1</ele>
        <time>2022-05-01T10:12:39.104Z</time>
      </trkpt>
      <trkpt lat="42.62754103168845" lon="-8.585035996511579">
        <ele>169.6</ele>
        <time>2022-05-01T10:12:40.722Z</time>
      </trkpt>
      <trkpt lat="42.627397030591965" lon="-8.58510003425181">
        <ele>169.9</ele>
        <time>2022-05-01T10:12:43.348Z</time>
      </trkpt>
      <trkpt lat="42.627270966768265" lon="-8.585112020373344">
        <ele>170.4</ele>
        <time>2022-05-01T10:12:45.645Z</time>
      </trkpt>
      <trkpt lat="42.62673703953624" lon="-8.585096010938287">
        <ele>172.8</ele>
        <time>2022-05-01T10:12:55.545Z</time>
      </trkpt>
      <trkpt lat="42.626607958227396" lon="-8.585127023980021">
        <ele>173.7</ele>
        <time>2022-05-01T10:12:58.020Z</time>
      </trkpt>
      <trkpt lat="42.62655096128583" lon="-8.585107997059822">
        <ele>173.8</ele>
        <time>2022-05-01T10:12:59.177Z</time>
      </trkpt>
      <trkpt lat="42.62642003595829" lon="-8.584880009293556">
        <ele>171.2</ele>
        <time>2022-05-01T10:13:03.450Z</time>
      </trkpt>
      <trkpt lat="42.626320039853454" lon="-8.584727961570024">
        <ele>169.6</ele>
        <time>2022-05-01T10:13:06.564Z</time>
      </trkpt>
      <trkpt lat="42.6262020226568" lon="-8.584595024585724">
        <ele>168.8</ele>
        <time>2022-05-01T10:13:09.697Z</time>
      </trkpt>
      <trkpt lat="42.62607797048986" lon="-8.584462003782392">
        <ele>167.3</ele>
        <time>2022-05-01T10:13:12.891Z</time>
      </trkpt>
      <trkpt lat="42.6259430218488" lon="-8.584356978535652">
        <ele>166.1</ele>
        <time>2022-05-01T10:13:15.858Z</time>
      </trkpt>
      <trkpt lat="42.62576901353896" lon="-8.584290007129312">
        <ele>166.2</ele>
        <time>2022-05-01T10:13:18.867Z</time>
      </trkpt>
      <trkpt lat="42.6254800055176" lon="-8.584192022681236">
        <ele>164.8</ele>
        <time>2022-05-01T10:13:23.738Z</time>
      </trkpt>
      <trkpt lat="42.62528797611594" lon="-8.584142988547683">
        <ele>163.8</ele>
        <time>2022-05-01T10:13:27.024Z</time>
      </trkpt>
      <trkpt lat="42.62506803497672" lon="-8.584132008254528">
        <ele>162.7</ele>
        <time>2022-05-01T10:13:30.696Z</time>
      </trkpt>
      <trkpt lat="42.6248930208385" lon="-8.584143994376063">
        <ele>161.3</ele>
        <time>2022-05-01T10:13:33.608Z</time>
      </trkpt>
      <trkpt lat="42.62463703751564" lon="-8.584203002974391">
        <ele>159.7</ele>
        <time>2022-05-01T10:13:38.065Z</time>
      </trkpt>
      <trkpt lat="42.624394968152046" lon="-8.584319008514285">
        <ele>158.6</ele>
        <time>2022-05-01T10:13:42.132Z</time>
      </trkpt>
      <trkpt lat="42.624219032004476" lon="-8.584538027644157">
        <ele>159.4</ele>
        <time>2022-05-01T10:13:46.068Z</time>
      </trkpt>
      <trkpt lat="42.62386900372803" lon="-8.584923008456826">
        <ele>157.9</ele>
        <time>2022-05-01T10:13:53.861Z</time>
      </trkpt>
      <trkpt lat="42.62381804175675" lon="-8.58497497625649">
        <ele>157.8</ele>
        <time>2022-05-01T10:13:55.023Z</time>
      </trkpt>
      <trkpt lat="42.62359198182821" lon="-8.58475998044014">
        <ele>156.7</ele>
        <time>2022-05-01T10:14:00.313Z</time>
      </trkpt>
      <trkpt lat="42.62324103154242" lon="-8.58433099463582">
        <ele>159.4</ele>
        <time>2022-05-01T10:14:09.755Z</time>
      </trkpt>
      <trkpt lat="42.62285102158785" lon="-8.584090014919639">
        <ele>160.1</ele>
        <time>2022-05-01T10:14:18.691Z</time>
      </trkpt>
      <trkpt lat="42.622498981654644" lon="-8.583875019103289">
        <ele>160.0</ele>
        <time>2022-05-01T10:14:27.130Z</time>
      </trkpt>
      <trkpt lat="42.622028002515435" lon="-8.583890022709966">
        <ele>160.4</ele>
        <time>2022-05-01T10:14:37.641Z</time>
      </trkpt>
      <trkpt lat="42.621920965611935" lon="-8.583847023546696">
        <ele>160.8</ele>
        <time>2022-05-01T10:14:40.024Z</time>
      </trkpt>
      <trkpt lat="42.621858017519116" lon="-8.583752978593111">
        <ele>160.9</ele>
        <time>2022-05-01T10:14:41.909Z</time>
      </trkpt>
      <trkpt lat="42.62170102447271" lon="-8.583908965811133">
        <ele>161.5</ele>
        <time>2022-05-01T10:14:45.972Z</time>
      </trkpt>
      <trkpt lat="42.62161100283265" lon="-8.583583999425173">
        <ele>161.0</ele>
        <time>2022-05-01T10:14:51.461Z</time>
      </trkpt>
      <trkpt lat="42.62150899507105" lon="-8.582904981449246">
        <ele>157.0</ele>
        <time>2022-05-01T10:15:02.502Z</time>
      </trkpt>
      <trkpt lat="42.62151796370745" lon="-8.582775983959436">
        <ele>156.3</ele>
        <time>2022-05-01T10:15:04.543Z</time>
      </trkpt>
      <trkpt lat="42.62160899117589" lon="-8.582580015063286">
        <ele>155.2</ele>
        <time>2022-05-01T10:15:07.785Z</time>
      </trkpt>
      <trkpt lat="42.62181602418423" lon="-8.58201197348535">
        <ele>151.8</ele>
        <time>2022-05-01T10:15:15.957Z</time>
      </trkpt>
      <trkpt lat="42.62190696783364" lon="-8.581650964915752">
        <ele>149.8</ele>
        <time>2022-05-01T10:15:20.358Z</time>
      </trkpt>
      <trkpt lat="42.62203303165734" lon="-8.581358017399907">
        <ele>148.8</ele>
        <time>2022-05-01T10:15:24.070Z</time>
      </trkpt>
      <trkpt lat="42.62240200303495" lon="-8.580814031884074">
        <ele>146.2</ele>
        <time>2022-05-01T10:15:32.602Z</time>
      </trkpt>
      <trkpt lat="42.62255103327334" lon="-8.580509014427662">
        <ele>145.1</ele>
        <time>2022-05-01T10:15:37.146Z</time>
      </trkpt>
      <trkpt lat="42.62283702380955" lon="-8.579397993162274">
        <ele>152.8</ele>
        <time>2022-05-01T10:15:53.145Z</time>
      </trkpt>
      <trkpt lat="42.622931990772486" lon="-8.5791290178895">
        <ele>154.6</ele>
        <time>2022-05-01T10:15:57.723Z</time>
      </trkpt>
      <trkpt lat="42.62307196855545" lon="-8.578773960471153">
        <ele>155.8</ele>
        <time>2022-05-01T10:16:04.135Z</time>
      </trkpt>
      <trkpt lat="42.623305991292" lon="-8.5784019716084">
        <ele>156.9</ele>
        <time>2022-05-01T10:16:12.145Z</time>
      </trkpt>
      <trkpt lat="42.623444041237235" lon="-8.578244978561997">
        <ele>157.0</ele>
        <time>2022-05-01T10:16:16.309Z</time>
      </trkpt>
      <trkpt lat="42.62358301319182" lon="-8.578178007155657">
        <ele>156.9</ele>
        <time>2022-05-01T10:16:19.871Z</time>
      </trkpt>
      <trkpt lat="42.623657025396824" lon="-8.577959993854165">
        <ele>157.0</ele>
        <time>2022-05-01T10:16:24.201Z</time>
      </trkpt>
      <trkpt lat="42.62403102591634" lon="-8.577276030555367">
        <ele>157.8</ele>
        <time>2022-05-01T10:16:39.767Z</time>
      </trkpt>
      <trkpt lat="42.623832961544394" lon="-8.577000014483929">
        <ele>157.7</ele>
        <time>2022-05-01T10:16:46.878Z</time>
      </trkpt>
      <trkpt lat="42.6235150359571" lon="-8.576717041432858">
        <ele>157.9</ele>
        <time>2022-05-01T10:16:56.427Z</time>
      </trkpt>
      <trkpt lat="42.623446974903345" lon="-8.576630037277937">
        <ele>157.9</ele>
        <time>2022-05-01T10:16:58.792Z</time>
      </trkpt>
      <trkpt lat="42.623227033764124" lon="-8.57607800513506">
        <ele>156.2</ele>
        <time>2022-05-01T10:17:09.667Z</time>
      </trkpt>
      <trkpt lat="42.62292302213609" lon="-8.575544999912381">
        <ele>153.2</ele>
        <time>2022-05-01T10:17:21.478Z</time>
      </trkpt>
      <trkpt lat="42.62283300049603" lon="-8.575483979657292">
        <ele>153.6</ele>
        <time>2022-05-01T10:17:24.078Z</time>
      </trkpt>
      <trkpt lat="42.6225099619478" lon="-8.575524967163801">
        <ele>154.0</ele>
        <time>2022-05-01T10:17:32.494Z</time>
      </trkpt>
      <trkpt lat="42.62241097167134" lon="-8.575512981042266">
        <ele>154.4</ele>
        <time>2022-05-01T10:17:35.067Z</time>
      </trkpt>
      <trkpt lat="42.62229396030307" lon="-8.57539001852274">
        <ele>155.7</ele>
        <time>2022-05-01T10:17:38.910Z</time>
      </trkpt>
      <trkpt lat="42.62205700390041" lon="-8.57521802186966">
        <ele>159.6</ele>
        <time>2022-05-01T10:17:46.293Z</time>
      </trkpt>
      <trkpt lat="42.62197100557387" lon="-8.575192959979177">
        <ele>161.2</ele>
        <time>2022-05-01T10:17:49.077Z</time>
      </trkpt>
      <trkpt lat="42.62122099287808" lon="-8.575259009376168">
        <ele>168.3</ele>
        <time>2022-05-01T10:18:14.979Z</time>
      </trkpt>
      <trkpt lat="42.62112200260162" lon="-8.575270995497704">
        <ele>168.4</ele>
        <time>2022-05-01T10:18:18.809Z</time>
      </trkpt>
      <trkpt lat="42.620847998186946" lon="-8.575135041028261">
        <ele>171.2</ele>
        <time>2022-05-01T10:18:31.159Z</time>
      </trkpt>
      <trkpt lat="42.62038900516927" lon="-8.574900012463331">
        <ele>172.1</ele>
        <time>2022-05-01T10:18:51.820Z</time>
      </trkpt>
      <trkpt lat="42.62045295909047" lon="-8.574257036671042">
        <ele>179.6</ele>
        <time>2022-05-01T10:19:12.107Z</time>
      </trkpt>
      <trkpt lat="42.62044499628246" lon="-8.57384699396789">
        <ele>181.8</ele>
        <time>2022-05-01T10:19:24.914Z</time>
      </trkpt>
      <trkpt lat="42.62040903791785" lon="-8.573742974549532">
        <ele>181.8</ele>
        <time>2022-05-01T10:19:28.204Z</time>
      </trkpt>
      <trkpt lat="42.62026998214424" lon="-8.573553040623665">
        <ele>180.5</ele>
        <time>2022-05-01T10:19:36.297Z</time>
      </trkpt>
      <trkpt lat="42.620566030964255" lon="-8.572672018781304">
        <ele>182.0</ele>
        <time>2022-05-01T10:20:03.420Z</time>
      </trkpt>
      <trkpt lat="42.62065999209881" lon="-8.572500022128224">
        <ele>182.4</ele>
        <time>2022-05-01T10:20:09.058Z</time>
      </trkpt>
      <trkpt lat="42.62083601206541" lon="-8.572365995496511">
        <ele>183.5</ele>
        <time>2022-05-01T10:20:16.004Z</time>
      </trkpt>
      <trkpt lat="42.620629984885454" lon="-8.571600979194045">
        <ele>182.5</ele>
        <time>2022-05-01T10:20:35.756Z</time>
      </trkpt>
      <trkpt lat="42.62048698961735" lon="-8.571147015318274">
        <ele>182.7</ele>
        <time>2022-05-01T10:20:47.337Z</time>
      </trkpt>
      <trkpt lat="42.620415994897485" lon="-8.570999996736646">
        <ele>182.9</ele>
        <time>2022-05-01T10:20:51.338Z</time>
      </trkpt>
      <trkpt lat="42.62034399434924" lon="-8.570938976481557">
        <ele>183.1</ele>
        <time>2022-05-01T10:20:53.896Z</time>
      </trkpt>
      <trkpt lat="42.61980595998466" lon="-8.570538992062211">
        <ele>183.5</ele>
        <time>2022-05-01T10:21:12.021Z</time>
      </trkpt>
      <trkpt lat="42.61975600384176" lon="-8.570465985685587">
        <ele>183.8</ele>
        <time>2022-05-01T10:21:14.151Z</time>
      </trkpt>
      <trkpt lat="42.619364988058805" lon="-8.570762034505606">
        <ele>183.7</ele>
        <time>2022-05-01T10:21:26.989Z</time>
      </trkpt>
      <trkpt lat="42.61888403445482" lon="-8.571065962314606">
        <ele>183.6</ele>
        <time>2022-05-01T10:21:42.069Z</time>
      </trkpt>
      <trkpt lat="42.61815598234534" lon="-8.571209041401744">
        <ele>185.2</ele>
        <time>2022-05-01T10:22:02.754Z</time>
      </trkpt>
      <trkpt lat="42.61803897097707" lon="-8.571306020021439">
        <ele>184.7</ele>
        <time>2022-05-01T10:22:06.571Z</time>
      </trkpt>
      <trkpt lat="42.61736003682017" lon="-8.571482039988041">
        <ele>183.8</ele>
        <time>2022-05-01T10:22:23.715Z</time>
      </trkpt>
      <trkpt lat="42.61696902103722" lon="-8.571743974462152">
        <ele>178.8</ele>
        <time>2022-05-01T10:22:32.127Z</time>
      </trkpt>
      <trkpt lat="42.61673499830067" lon="-8.5718899872154">
        <ele>176.7</ele>
        <time>2022-05-01T10:22:36.838Z</time>
      </trkpt>
      <trkpt lat="42.6166230160743" lon="-8.57201797887683">
        <ele>174.5</ele>
        <time>2022-05-01T10:22:39.645Z</time>
      </trkpt>
      <trkpt lat="42.61651103384793" lon="-8.572005992755294">
        <ele>174.2</ele>
        <time>2022-05-01T10:22:41.487Z</time>
      </trkpt>
      <trkpt lat="42.6162810344249" lon="-8.572109006345272">
        <ele>170.7</ele>
        <time>2022-05-01T10:22:45.514Z</time>
      </trkpt>
      <trkpt lat="42.616137033328414" lon="-8.572139013558626">
        <ele>169.3</ele>
        <time>2022-05-01T10:22:47.634Z</time>
      </trkpt>
      <trkpt lat="42.616052040830255" lon="-8.572077993303537">
        <ele>169.1</ele>
        <time>2022-05-01T10:22:48.953Z</time>
      </trkpt>
      <trkpt lat="42.61585397645831" lon="-8.571965005248785">
        <ele>167.7</ele>
        <time>2022-05-01T10:22:52.130Z</time>
      </trkpt>
      <trkpt lat="42.61556597426534" lon="-8.571945978328586">
        <ele>164.4</ele>
        <time>2022-05-01T10:22:55.978Z</time>
      </trkpt>
      <trkpt lat="42.61535902507603" lon="-8.57210397720337">
        <ele>162.6</ele>
        <time>2022-05-01T10:22:59.303Z</time>
      </trkpt>
      <trkpt lat="42.615260034799576" lon="-8.572164997458458">
        <ele>161.8</ele>
        <time>2022-05-01T10:23:00.837Z</time>
      </trkpt>
      <trkpt lat="42.61477396823466" lon="-8.572308998554945">
        <ele>160.1</ele>
        <time>2022-05-01T10:23:07.824Z</time>
      </trkpt>
      <trkpt lat="42.614464005455375" lon="-8.57223398052156">
        <ele>160.1</ele>
        <time>2022-05-01T10:23:12.269Z</time>
      </trkpt>
      <trkpt lat="42.61415898799896" lon="-8.572258036583662">
        <ele>160.3</ele>
        <time>2022-05-01T10:23:16.665Z</time>
      </trkpt>
      <trkpt lat="42.613903004676104" lon="-8.572269016876817">
        <ele>159.0</ele>
        <time>2022-05-01T10:23:20.394Z</time>
      </trkpt>
      <trkpt lat="42.61370996944606" lon="-8.572214031592011">
        <ele>157.7</ele>
        <time>2022-05-01T10:23:23.395Z</time>
      </trkpt>
      <trkpt lat="42.613606033846736" lon="-8.572156028822064">
        <ele>156.5</ele>
        <time>2022-05-01T10:23:24.919Z</time>
      </trkpt>
      <trkpt lat="42.6134180277586" lon="-8.571764007210732">
        <ele>151.4</ele>
        <time>2022-05-01T10:23:29.835Z</time>
      </trkpt>
      <trkpt lat="42.6132969930768" lon="-8.571597961708903">
        <ele>147.3</ele>
        <time>2022-05-01T10:23:32.030Z</time>
      </trkpt>
      <trkpt lat="42.613067999482155" lon="-8.5713529586792">
        <ele>140.9</ele>
        <time>2022-05-01T10:23:35.644Z</time>
      </trkpt>
      <trkpt lat="42.612871024757624" lon="-8.571163024753332">
        <ele>136.3</ele>
        <time>2022-05-01T10:23:38.692Z</time>
      </trkpt>
      <trkpt lat="42.612830037251115" lon="-8.571143997833133">
        <ele>135.9</ele>
        <time>2022-05-01T10:23:39.285Z</time>
      </trkpt>
      <trkpt lat="42.61276298202574" lon="-8.571150032803416">
        <ele>135.3</ele>
        <time>2022-05-01T10:23:40.277Z</time>
      </trkpt>
      <trkpt lat="42.612700033932924" lon="-8.57118004001677">
        <ele>134.8</ele>
        <time>2022-05-01T10:23:41.331Z</time>
      </trkpt>
      <trkpt lat="42.61258696205914" lon="-8.571356981992722">
        <ele>135.4</ele>
        <time>2022-05-01T10:23:44.233Z</time>
      </trkpt>
      <trkpt lat="42.612551003694534" lon="-8.571442980319262">
        <ele>135.6</ele>
        <time>2022-05-01T10:23:45.528Z</time>
      </trkpt>
      <trkpt lat="42.61249199509621" lon="-8.57169401831925">
        <ele>136.0</ele>
        <time>2022-05-01T10:23:48.820Z</time>
      </trkpt>
      <trkpt lat="42.61246902868152" lon="-8.572043040767312">
        <ele>136.2</ele>
        <time>2022-05-01T10:23:53.378Z</time>
      </trkpt>
      <trkpt lat="42.61215797625482" lon="-8.572849966585636">
        <ele>135.2</ele>
        <time>2022-05-01T10:24:05.709Z</time>
      </trkpt>
      <trkpt lat="42.61210802011192" lon="-8.573069991543889">
        <ele>135.9</ele>
        <time>2022-05-01T10:24:08.993Z</time>
      </trkpt>
      <trkpt lat="42.61211296543479" lon="-8.573154984042048">
        <ele>136.4</ele>
        <time>2022-05-01T10:24:10.259Z</time>
      </trkpt>
      <trkpt lat="42.61209896765649" lon="-8.573253974318504">
        <ele>136.4</ele>
        <time>2022-05-01T10:24:11.931Z</time>
      </trkpt>
      <trkpt lat="42.61211003176868" lon="-8.573380960151553">
        <ele>137.0</ele>
        <time>2022-05-01T10:24:14.100Z</time>
      </trkpt>
      <trkpt lat="42.61207298375666" lon="-8.573840036988258">
        <ele>137.1</ele>
        <time>2022-05-01T10:24:22.131Z</time>
      </trkpt>
      <trkpt lat="42.611994026228786" lon="-8.574138013646007">
        <ele>138.8</ele>
        <time>2022-05-01T10:24:28.058Z</time>
      </trkpt>
      <trkpt lat="42.61198103427887" lon="-8.574442025274038">
        <ele>141.9</ele>
        <time>2022-05-01T10:24:33.912Z</time>
      </trkpt>
      <trkpt lat="42.61189897544682" lon="-8.574779983609915">
        <ele>141.9</ele>
        <time>2022-05-01T10:24:40.956Z</time>
      </trkpt>
      <trkpt lat="42.6118999812752" lon="-8.575042001903057">
        <ele>142.3</ele>
        <time>2022-05-01T10:24:46.568Z</time>
      </trkpt>
      <trkpt lat="42.61188397184014" lon="-8.575227996334434">
        <ele>142.5</ele>
        <time>2022-05-01T10:24:50.519Z</time>
      </trkpt>
      <trkpt lat="42.611863017082214" lon="-8.575339978560805">
        <ele>142.7</ele>
        <time>2022-05-01T10:24:52.926Z</time>
      </trkpt>
      <trkpt lat="42.61203099042177" lon="-8.576023019850254">
        <ele>147.9</ele>
        <time>2022-05-01T10:25:07.988Z</time>
      </trkpt>
      <trkpt lat="42.61263398453593" lon="-8.57743101194501">
        <ele>145.3</ele>
        <time>2022-05-01T10:25:41.631Z</time>
      </trkpt>
      <trkpt lat="42.61271696537733" lon="-8.577568978071213">
        <ele>144.9</ele>
        <time>2022-05-01T10:25:44.982Z</time>
      </trkpt>
      <trkpt lat="42.61276197619736" lon="-8.577800989151001">
        <ele>143.6</ele>
        <time>2022-05-01T10:25:49.294Z</time>
      </trkpt>
      <trkpt lat="42.61285803280771" lon="-8.577985977753997">
        <ele>142.9</ele>
        <time>2022-05-01T10:25:53.411Z</time>
      </trkpt>
      <trkpt lat="42.61297001503408" lon="-8.57822896912694">
        <ele>141.8</ele>
        <time>2022-05-01T10:25:58.017Z</time>
      </trkpt>
      <trkpt lat="42.61308400891721" lon="-8.578538009896874">
        <ele>140.3</ele>
        <time>2022-05-01T10:26:03.416Z</time>
      </trkpt>
      <trkpt lat="42.613238990306854" lon="-8.578732972964644">
        <ele>139.4</ele>
        <time>2022-05-01T10:26:07.685Z</time>
      </trkpt>
      <trkpt lat="42.613391038030386" lon="-8.57897998765111">
        <ele>138.2</ele>
        <time>2022-05-01T10:26:12.031Z</time>
      </trkpt>
      <trkpt lat="42.61345800943673" lon="-8.57908803038299">
        <ele>137.9</ele>
        <time>2022-05-01T10:26:13.960Z</time>
      </trkpt>
      <trkpt lat="42.61346898972988" lon="-8.579170005396008">
        <ele>137.4</ele>
        <time>2022-05-01T10:26:15.151Z</time>
      </trkpt>
      <trkpt lat="42.613478964194655" lon="-8.579364968463778">
        <ele>136.1</ele>
        <time>2022-05-01T10:26:17.934Z</time>
      </trkpt>
      <trkpt lat="42.61357099749148" lon="-8.57975598424673">
        <ele>134.4</ele>
        <time>2022-05-01T10:26:23.880Z</time>
      </trkpt>
      <trkpt lat="42.613627994433045" lon="-8.579921023920178">
        <ele>134.1</ele>
        <time>2022-05-01T10:26:26.525Z</time>
      </trkpt>
      <trkpt lat="42.61370401829481" lon="-8.579998975619674">
        <ele>134.2</ele>
        <time>2022-05-01T10:26:28.478Z</time>
      </trkpt>
      <trkpt lat="42.61381298303604" lon="-8.580088997259736">
        <ele>134.1</ele>
        <time>2022-05-01T10:26:31.069Z</time>
      </trkpt>
      <trkpt lat="42.61429997161031" lon="-8.580042980611324">
        <ele>134.3</ele>
        <time>2022-05-01T10:26:41.260Z</time>
      </trkpt>
      <trkpt lat="42.614699034020305" lon="-8.579981038346887">
        <ele>134.6</ele>
        <time>2022-05-01T10:26:49.928Z</time>
      </trkpt>
      <trkpt lat="42.61488100513816" lon="-8.579995036125183">
        <ele>135.0</ele>
        <time>2022-05-01T10:26:53.975Z</time>
      </trkpt>
      <trkpt lat="42.615045960992575" lon="-8.58003300614655">
        <ele>135.1</ele>
        <time>2022-05-01T10:26:57.782Z</time>
      </trkpt>
      <trkpt lat="42.61507001705468" lon="-8.580112969502807">
        <ele>134.7</ele>
        <time>2022-05-01T10:26:59.259Z</time>
      </trkpt>
      <trkpt lat="42.61509398929775" lon="-8.580364007502794">
        <ele>134.4</ele>
        <time>2022-05-01T10:27:03.673Z</time>
      </trkpt>
      <trkpt lat="42.61505601927638" lon="-8.580543966963887">
        <ele>135.4</ele>
        <time>2022-05-01T10:27:06.993Z</time>
      </trkpt>
      <trkpt lat="42.61495199985802" lon="-8.580686962231994">
        <ele>136.1</ele>
        <time>2022-05-01T10:27:10.610Z</time>
      </trkpt>
      <trkpt lat="42.61481897905469" lon="-8.580824006348848">
        <ele>136.0</ele>
        <time>2022-05-01T10:27:14.740Z</time>
      </trkpt>
      <trkpt lat="42.6147579587996" lon="-8.580975970253348">
        <ele>136.1</ele>
        <time>2022-05-01T10:27:17.925Z</time>
      </trkpt>
      <trkpt lat="42.61471797712147" lon="-8.58115199021995">
        <ele>136.4</ele>
        <time>2022-05-01T10:27:21.346Z</time>
      </trkpt>
      <trkpt lat="42.61467196047306" lon="-8.58132197521627">
        <ele>136.6</ele>
        <time>2022-05-01T10:27:24.805Z</time>
      </trkpt>
      <trkpt lat="42.61459099128842" lon="-8.581449966877699">
        <ele>136.6</ele>
        <time>2022-05-01T10:27:28.069Z</time>
      </trkpt>
      <trkpt lat="42.614445984363556" lon="-8.581607965752482">
        <ele>136.6</ele>
        <time>2022-05-01T10:27:33.053Z</time>
      </trkpt>
      <trkpt lat="42.61428396217525" lon="-8.581748027354479">
        <ele>136.8</ele>
        <time>2022-05-01T10:27:38.264Z</time>
      </trkpt>
      <trkpt lat="42.61421598494053" lon="-8.58181701041758">
        <ele>136.8</ele>
        <time>2022-05-01T10:27:40.566Z</time>
      </trkpt>
      <trkpt lat="42.614076007157564" lon="-8.582019014284015">
        <ele>137.0</ele>
        <time>2022-05-01T10:27:46.105Z</time>
      </trkpt>
      <trkpt lat="42.61401800438762" lon="-8.582177013158798">
        <ele>137.4</ele>
        <time>2022-05-01T10:27:49.903Z</time>
      </trkpt>
      <trkpt lat="42.61397802270949" lon="-8.5823530331254">
        <ele>138.0</ele>
        <time>2022-05-01T10:27:53.970Z</time>
      </trkpt>
      <trkpt lat="42.61396796442568" lon="-8.582478007301688">
        <ele>138.7</ele>
        <time>2022-05-01T10:27:56.692Z</time>
      </trkpt>
      <trkpt lat="42.613995959982276" lon="-8.582615973427892">
        <ele>139.4</ele>
        <time>2022-05-01T10:27:59.739Z</time>
      </trkpt>
      <trkpt lat="42.61408103629947" lon="-8.582731978967786">
        <ele>139.9</ele>
        <time>2022-05-01T10:28:03.198Z</time>
      </trkpt>
      <trkpt lat="42.614143984392285" lon="-8.58284899033606">
        <ele>140.3</ele>
        <time>2022-05-01T10:28:06.221Z</time>
      </trkpt>
      <trkpt lat="42.61425998993218" lon="-8.583302032202482">
        <ele>141.9</ele>
        <time>2022-05-01T10:28:16.207Z</time>
      </trkpt>
      <trkpt lat="42.61417902074754" lon="-8.583252998068929">
        <ele>141.7</ele>
        <time>2022-05-01T10:28:18.688Z</time>
      </trkpt>
      <trkpt lat="42.613990008831024" lon="-8.583251992240548">
        <ele>142.7</ele>
        <time>2022-05-01T10:28:23.934Z</time>
      </trkpt>
      <trkpt lat="42.61378297582269" lon="-8.583379983901978">
        <ele>143.3</ele>
        <time>2022-05-01T10:28:30.103Z</time>
      </trkpt>
      <trkpt lat="42.613495979458094" lon="-8.583237994462252">
        <ele>141.3</ele>
        <time>2022-05-01T10:28:37.919Z</time>
      </trkpt>
      <trkpt lat="42.61335197836161" lon="-8.583244029432535">
        <ele>140.0</ele>
        <time>2022-05-01T10:28:41.503Z</time>
      </trkpt>
      <trkpt lat="42.61327201500535" lon="-8.58331703580916">
        <ele>139.6</ele>
        <time>2022-05-01T10:28:43.921Z</time>
      </trkpt>
      <trkpt lat="42.61306003667414" lon="-8.583659017458558">
        <ele>138.2</ele>
        <time>2022-05-01T10:28:51.082Z</time>
      </trkpt>
      <trkpt lat="42.61293397285044" lon="-8.583671003580093">
        <ele>136.4</ele>
        <time>2022-05-01T10:28:53.696Z</time>
      </trkpt>
      <trkpt lat="42.612875970080495" lon="-8.58359799720347">
        <ele>135.6</ele>
        <time>2022-05-01T10:28:55.015Z</time>
      </trkpt>
      <trkpt lat="42.61280396953225" lon="-8.58349297195673">
        <ele>134.9</ele>
        <time>2022-05-01T10:28:56.773Z</time>
      </trkpt>
      <trkpt lat="42.61263398453593" lon="-8.583424994722009">
        <ele>133.7</ele>
        <time>2022-05-01T10:28:59.808Z</time>
      </trkpt>
      <trkpt lat="42.61252099648118" lon="-8.583436980843544">
        <ele>132.9</ele>
        <time>2022-05-01T10:29:01.605Z</time>
      </trkpt>
      <trkpt lat="42.61237699538469" lon="-8.583498001098633">
        <ele>131.7</ele>
        <time>2022-05-01T10:29:03.817Z</time>
      </trkpt>
      <trkpt lat="42.61217499151826" lon="-8.583644013851881">
        <ele>129.7</ele>
        <time>2022-05-01T10:29:07.373Z</time>
      </trkpt>
      <trkpt lat="42.61206703260541" lon="-8.58379103243351">
        <ele>128.5</ele>
        <time>2022-05-01T10:29:09.814Z</time>
      </trkpt>
      <trkpt lat="42.61202596127987" lon="-8.58398700132966">
        <ele>127.8</ele>
        <time>2022-05-01T10:29:12.236Z</time>
      </trkpt>
      <trkpt lat="42.612016992643476" lon="-8.584024971351027">
        <ele>127.7</ele>
        <time>2022-05-01T10:29:12.646Z</time>
      </trkpt>
      <trkpt lat="42.611995032057166" lon="-8.584153968840837">
        <ele>127.4</ele>
        <time>2022-05-01T10:29:14.020Z</time>
      </trkpt>
      <trkpt lat="42.61199897155166" lon="-8.5843510273844">
        <ele>127.0</ele>
        <time>2022-05-01T10:29:16.149Z</time>
      </trkpt>
      <trkpt lat="42.61203300207853" lon="-8.584555964916945">
        <ele>127.2</ele>
        <time>2022-05-01T10:29:18.538Z</time>
      </trkpt>
      <trkpt lat="42.61206602677703" lon="-8.58471698127687">
        <ele>127.2</ele>
        <time>2022-05-01T10:29:20.541Z</time>
      </trkpt>
      <trkpt lat="42.61221698485315" lon="-8.585113026201725">
        <ele>127.6</ele>
        <time>2022-05-01T10:29:26.233Z</time>
      </trkpt>
      <trkpt lat="42.61224003508687" lon="-8.585241017863154">
        <ele>127.7</ele>
        <time>2022-05-01T10:29:28.019Z</time>
      </trkpt>
      <trkpt lat="42.612253027036786" lon="-8.5853820014745">
        <ele>128.0</ele>
        <time>2022-05-01T10:29:30.040Z</time>
      </trkpt>
      <trkpt lat="42.61223701760173" lon="-8.585478980094194">
        <ele>128.1</ele>
        <time>2022-05-01T10:29:31.507Z</time>
      </trkpt>
      <trkpt lat="42.61218102648854" lon="-8.585696993395686">
        <ele>128.9</ele>
        <time>2022-05-01T10:29:35.045Z</time>
      </trkpt>
      <trkpt lat="42.61213500984013" lon="-8.58583202585578">
        <ele>129.5</ele>
        <time>2022-05-01T10:29:37.350Z</time>
      </trkpt>
      <trkpt lat="42.6120849698782" lon="-8.585952976718545">
        <ele>130.1</ele>
        <time>2022-05-01T10:29:39.562Z</time>
      </trkpt>
      <trkpt lat="42.612035013735294" lon="-8.586025983095169">
        <ele>130.2</ele>
        <time>2022-05-01T10:29:41.193Z</time>
      </trkpt>
      <trkpt lat="42.61196603067219" lon="-8.586125979200006">
        <ele>130.9</ele>
        <time>2022-05-01T10:29:43.491Z</time>
      </trkpt>
      <trkpt lat="42.61189696379006" lon="-8.58617601916194">
        <ele>130.7</ele>
        <time>2022-05-01T10:29:45.312Z</time>
      </trkpt>
      <trkpt lat="42.61180803179741" lon="-8.586249025538564">
        <ele>130.2</ele>
        <time>2022-05-01T10:29:47.794Z</time>
      </trkpt>
      <trkpt lat="42.611628994345665" lon="-8.586363019421697">
        <ele>128.4</ele>
        <time>2022-05-01T10:29:52.592Z</time>
      </trkpt>
      <trkpt lat="42.611566968262196" lon="-8.586404006928205">
        <ele>127.8</ele>
        <time>2022-05-01T10:29:54.289Z</time>
      </trkpt>
      <trkpt lat="42.61146697215736" lon="-8.58645899221301">
        <ele>126.6</ele>
        <time>2022-05-01T10:29:56.995Z</time>
      </trkpt>
      <trkpt lat="42.61140997521579" lon="-8.58652101829648">
        <ele>126.5</ele>
        <time>2022-05-01T10:29:58.841Z</time>
      </trkpt>
      <trkpt lat="42.61137996800244" lon="-8.586580026894808">
        <ele>126.9</ele>
        <time>2022-05-01T10:30:00.177Z</time>
      </trkpt>
      <trkpt lat="42.611350966617465" lon="-8.586725033819675">
        <ele>128.4</ele>
        <time>2022-05-01T10:30:02.972Z</time>
      </trkpt>
      <trkpt lat="42.611304027959704" lon="-8.586884960532188">
        <ele>129.7</ele>
        <time>2022-05-01T10:30:06.212Z</time>
      </trkpt>
      <trkpt lat="42.611220041289926" lon="-8.587153013795614">
        <ele>131.2</ele>
        <time>2022-05-01T10:30:11.765Z</time>
      </trkpt>
      <trkpt lat="42.61107997968793" lon="-8.587545035406947">
        <ele>132.0</ele>
        <time>2022-05-01T10:30:20.170Z</time>
      </trkpt>
      <trkpt lat="42.6109329611063" lon="-8.587847035378218">
        <ele>132.6</ele>
        <time>2022-05-01T10:30:27.499Z</time>
      </trkpt>
      <trkpt lat="42.61088099330664" lon="-8.58798198401928">
        <ele>132.2</ele>
        <time>2022-05-01T10:30:30.617Z</time>
      </trkpt>
      <trkpt lat="42.610856015235186" lon="-8.58808902092278">
        <ele>132.1</ele>
        <time>2022-05-01T10:30:32.920Z</time>
      </trkpt>
      <trkpt lat="42.61089398525655" lon="-8.588274009525776">
        <ele>132.2</ele>
        <time>2022-05-01T10:30:36.857Z</time>
      </trkpt>
      <trkpt lat="42.61093002744019" lon="-8.58841398730874">
        <ele>132.0</ele>
        <time>2022-05-01T10:30:40.226Z</time>
      </trkpt>
      <trkpt lat="42.61093203909695" lon="-8.58851901255548">
        <ele>131.5</ele>
        <time>2022-05-01T10:30:42.876Z</time>
      </trkpt>
      <trkpt lat="42.61098098941147" lon="-8.588656978681684">
        <ele>131.6</ele>
        <time>2022-05-01T10:30:46.803Z</time>
      </trkpt>
      <trkpt lat="42.61103102937341" lon="-8.588784970343113">
        <ele>131.6</ele>
        <time>2022-05-01T10:30:50.697Z</time>
      </trkpt>
      <trkpt lat="42.61105902493" lon="-8.588917991146445">
        <ele>131.9</ele>
        <time>2022-05-01T10:30:54.214Z</time>
      </trkpt>
      <trkpt lat="42.61103899218142" lon="-8.589051011949778">
        <ele>132.5</ele>
        <time>2022-05-01T10:30:57.804Z</time>
      </trkpt>
      <trkpt lat="42.611004039645195" lon="-8.58918596059084">
        <ele>133.7</ele>
        <time>2022-05-01T10:31:01.436Z</time>
      </trkpt>
      <trkpt lat="42.61095802299678" lon="-8.589243041351438">
        <ele>134.4</ele>
        <time>2022-05-01T10:31:03.872Z</time>
      </trkpt>
      <trkpt lat="42.61086498387158" lon="-8.589342031627893">
        <ele>135.9</ele>
        <time>2022-05-01T10:31:08.277Z</time>
      </trkpt>
      <trkpt lat="42.610725006088614" lon="-8.589498018845916">
        <ele>138.3</ele>
        <time>2022-05-01T10:31:15.282Z</time>
      </trkpt>
      <trkpt lat="42.610706984996796" lon="-8.589516961947083">
        <ele>138.7</ele>
        <time>2022-05-01T10:31:16.106Z</time>
      </trkpt>
      <trkpt lat="42.61075199581683" lon="-8.589582005515695">
        <ele>139.6</ele>
        <time>2022-05-01T10:31:18.359Z</time>
      </trkpt>
      <trkpt lat="42.6109020318836" lon="-8.589659035205841">
        <ele>141.7</ele>
        <time>2022-05-01T10:31:23.729Z</time>
      </trkpt>
      <trkpt lat="42.61097797192633" lon="-8.589732963591814">
        <ele>143.7</ele>
        <time>2022-05-01T10:31:26.737Z</time>
      </trkpt>
      <trkpt lat="42.61096900328994" lon="-8.589847963303328">
        <ele>146.4</ele>
        <time>2022-05-01T10:31:29.573Z</time>
      </trkpt>
      <trkpt lat="42.61091100051999" lon="-8.589917030185461">
        <ele>147.7</ele>
        <time>2022-05-01T10:31:32.275Z</time>
      </trkpt>
      <trkpt lat="42.61072902940214" lon="-8.590064970776439">
        <ele>150.3</ele>
        <time>2022-05-01T10:31:40.819Z</time>
      </trkpt>
      <trkpt lat="42.61047799140215" lon="-8.590236967429519">
        <ele>154.0</ele>
        <time>2022-05-01T10:31:52.367Z</time>
      </trkpt>
      <trkpt lat="42.61020197533071" lon="-8.590313997119665">
        <ele>157.1</ele>
        <time>2022-05-01T10:32:03.926Z</time>
      </trkpt>
      <trkpt lat="42.61002201586962" lon="-8.590315002948046">
        <ele>159.0</ele>
        <time>2022-05-01T10:32:12.379Z</time>
      </trkpt>
      <trkpt lat="42.60995898395777" lon="-8.59023503959179">
        <ele>159.1</ele>
        <time>2022-05-01T10:32:16.008Z</time>
      </trkpt>
      <trkpt lat="42.60994498617947" lon="-8.590158009901643">
        <ele>158.8</ele>
        <time>2022-05-01T10:32:18.265Z</time>
      </trkpt>
      <trkpt lat="42.60996099561453" lon="-8.589973021298647">
        <ele>157.3</ele>
        <time>2022-05-01T10:32:23.049Z</time>
      </trkpt>
      <trkpt lat="42.60997801087797" lon="-8.589810999110341">
        <ele>155.6</ele>
        <time>2022-05-01T10:32:27.061Z</time>
      </trkpt>
      <trkpt lat="42.60994196869433" lon="-8.589684013277292">
        <ele>155.1</ele>
        <time>2022-05-01T10:32:30.148Z</time>
      </trkpt>
      <trkpt lat="42.60977701283991" lon="-8.589473040774465">
        <ele>155.1</ele>
        <time>2022-05-01T10:32:36.962Z</time>
      </trkpt>
      <trkpt lat="42.609482975676656" lon="-8.589075990021229">
        <ele>153.7</ele>
        <time>2022-05-01T10:32:47.647Z</time>
      </trkpt>
      <trkpt lat="42.60939898900688" lon="-8.588771978393197">
        <ele>153.5</ele>
        <time>2022-05-01T10:32:52.258Z</time>
      </trkpt>
      <trkpt lat="42.60931399650872" lon="-8.58843200840056">
        <ele>150.3</ele>
        <time>2022-05-01T10:32:56.871Z</time>
      </trkpt>
      <trkpt lat="42.609176030382514" lon="-8.587966980412602">
        <ele>145.2</ele>
        <time>2022-05-01T10:33:02.672Z</time>
      </trkpt>
      <trkpt lat="42.609096989035606" lon="-8.58783203177154">
        <ele>143.3</ele>
        <time>2022-05-01T10:33:04.427Z</time>
      </trkpt>
      <trkpt lat="42.609005039557815" lon="-8.587719965726137">
        <ele>141.2</ele>
        <time>2022-05-01T10:33:06.183Z</time>
      </trkpt>
      <trkpt lat="42.60884201154113" lon="-8.587505975738168">
        <ele>137.6</ele>
        <time>2022-05-01T10:33:09.382Z</time>
      </trkpt>
      <trkpt lat="42.60869599878788" lon="-8.587277987971902">
        <ele>135.4</ele>
        <time>2022-05-01T10:33:12.595Z</time>
      </trkpt>
      <trkpt lat="42.608645958825946" lon="-8.587141027674079">
        <ele>135.4</ele>
        <time>2022-05-01T10:33:14.342Z</time>
      </trkpt>
      <trkpt lat="42.608602959662676" lon="-8.5869309771806">
        <ele>135.1</ele>
        <time>2022-05-01T10:33:16.882Z</time>
      </trkpt>
      <trkpt lat="42.60848502628505" lon="-8.58678001910448">
        <ele>136.5</ele>
        <time>2022-05-01T10:33:19.510Z</time>
      </trkpt>
      <trkpt lat="42.608319986611605" lon="-8.586697038263083">
        <ele>138.7</ele>
        <time>2022-05-01T10:33:22.563Z</time>
      </trkpt>
      <trkpt lat="42.608103984966874" lon="-8.586631994694471">
        <ele>140.2</ele>
        <time>2022-05-01T10:33:26.646Z</time>
      </trkpt>
      <trkpt lat="42.607957972213626" lon="-8.58654398471117">
        <ele>140.1</ele>
        <time>2022-05-01T10:33:29.761Z</time>
      </trkpt>
      <trkpt lat="42.6075950358063" lon="-8.586512971669436">
        <ele>141.1</ele>
        <time>2022-05-01T10:33:37.385Z</time>
      </trkpt>
      <trkpt lat="42.60743100196123" lon="-8.58658698387444">
        <ele>141.9</ele>
        <time>2022-05-01T10:33:41.102Z</time>
      </trkpt>
      <trkpt lat="42.60722799226642" lon="-8.586679017171264">
        <ele>142.8</ele>
        <time>2022-05-01T10:33:45.842Z</time>
      </trkpt>
      <trkpt lat="42.60675600729883" lon="-8.586639035493135">
        <ele>140.9</ele>
        <time>2022-05-01T10:33:56.580Z</time>
      </trkpt>
      <trkpt lat="42.606578981503844" lon="-8.586613973602653">
        <ele>140.1</ele>
        <time>2022-05-01T10:34:00.700Z</time>
      </trkpt>
      <trkpt lat="42.60645501315594" lon="-8.586663007736206">
        <ele>139.9</ele>
        <time>2022-05-01T10:34:03.679Z</time>
      </trkpt>
      <trkpt lat="42.605932988226414" lon="-8.587030973285437">
        <ele>139.6</ele>
        <time>2022-05-01T10:34:17.081Z</time>
      </trkpt>
      <trkpt lat="42.605545995756984" lon="-8.587261978536844">
        <ele>138.0</ele>
        <time>2022-05-01T10:34:25.819Z</time>
      </trkpt>
      <trkpt lat="42.60538196191192" lon="-8.587356023490429">
        <ele>137.7</ele>
        <time>2022-05-01T10:34:29.463Z</time>
      </trkpt>
      <trkpt lat="42.60498499497771" lon="-8.587469011545181">
        <ele>134.8</ele>
        <time>2022-05-01T10:34:37.902Z</time>
      </trkpt>
      <trkpt lat="42.6046939752996" lon="-8.587547969073057">
        <ele>133.1</ele>
        <time>2022-05-01T10:34:44.313Z</time>
      </trkpt>
      <trkpt lat="42.60452901944518" lon="-8.5876389965415">
        <ele>133.3</ele>
        <time>2022-05-01T10:34:48.340Z</time>
      </trkpt>
      <trkpt lat="42.60438099503517" lon="-8.587846029549837">
        <ele>135.3</ele>
        <time>2022-05-01T10:34:53.200Z</time>
      </trkpt>
      <trkpt lat="42.60434101335704" lon="-8.58804702758789">
        <ele>136.4</ele>
        <time>2022-05-01T10:34:57.019Z</time>
      </trkpt>
      <trkpt lat="42.604434974491596" lon="-8.58854197897017">
        <ele>139.2</ele>
        <time>2022-05-01T10:35:06.829Z</time>
      </trkpt>
      <trkpt lat="42.604477973654866" lon="-8.588852025568485">
        <ele>142.5</ele>
        <time>2022-05-01T10:35:13.502Z</time>
      </trkpt>
      <trkpt lat="42.60459003970027" lon="-8.58907800167799">
        <ele>145.5</ele>
        <time>2022-05-01T10:35:19.916Z</time>
      </trkpt>
      <trkpt lat="42.60484904050827" lon="-8.589331973344088">
        <ele>148.3</ele>
        <time>2022-05-01T10:35:30.934Z</time>
      </trkpt>
      <trkpt lat="42.60504199191928" lon="-8.589524002745748">
        <ele>151.3</ele>
        <time>2022-05-01T10:35:40.243Z</time>
      </trkpt>
      <trkpt lat="42.60542697273195" lon="-8.589675966650248">
        <ele>153.7</ele>
        <time>2022-05-01T10:35:57.490Z</time>
      </trkpt>
      <trkpt lat="42.605721009895205" lon="-8.589823991060257">
        <ele>155.9</ele>
        <time>2022-05-01T10:36:12.667Z</time>
      </trkpt>
      <trkpt lat="42.60587599128485" lon="-8.589973021298647">
        <ele>157.4</ele>
        <time>2022-05-01T10:36:20.841Z</time>
      </trkpt>
      <trkpt lat="42.6059390231967" lon="-8.590126996859908">
        <ele>159.8</ele>
        <time>2022-05-01T10:36:26.338Z</time>
      </trkpt>
      <trkpt lat="42.60603097267449" lon="-8.590350039303303">
        <ele>160.9</ele>
        <time>2022-05-01T10:36:33.653Z</time>
      </trkpt>
      <trkpt lat="42.60605997405946" lon="-8.590531004592776">
        <ele>161.3</ele>
        <time>2022-05-01T10:36:38.604Z</time>
      </trkpt>
      <trkpt lat="42.606045976281166" lon="-8.590634018182755">
        <ele>161.8</ele>
        <time>2022-05-01T10:36:41.552Z</time>
      </trkpt>
      <trkpt lat="42.605999959632754" lon="-8.590679029002786">
        <ele>162.5</ele>
        <time>2022-05-01T10:36:43.584Z</time>
      </trkpt>
      <trkpt lat="42.60595201514661" lon="-8.590806014835835">
        <ele>163.1</ele>
        <time>2022-05-01T10:36:47.159Z</time>
      </trkpt>
      <trkpt lat="42.60589501820505" lon="-8.590833004564047">
        <ele>163.7</ele>
        <time>2022-05-01T10:36:49.129Z</time>
      </trkpt>
      <trkpt lat="42.60571396909654" lon="-8.590747006237507">
        <ele>165.8</ele>
        <time>2022-05-01T10:36:55.177Z</time>
      </trkpt>
      <trkpt lat="42.605611961334944" lon="-8.59062597155571">
        <ele>167.2</ele>
        <time>2022-05-01T10:36:59.360Z</time>
      </trkpt>
      <trkpt lat="42.60550098493695" lon="-8.59045397490263">
        <ele>167.7</ele>
        <time>2022-05-01T10:37:04.433Z</time>
      </trkpt>
      <trkpt lat="42.605292024090886" lon="-8.59032103791833">
        <ele>167.6</ele>
        <time>2022-05-01T10:37:11.245Z</time>
      </trkpt>
      <trkpt lat="42.60517199523747" lon="-8.590276027098298">
        <ele>167.2</ele>
        <time>2022-05-01T10:37:14.858Z</time>
      </trkpt>
      <trkpt lat="42.6048699952662" lon="-8.590247025713325">
        <ele>166.4</ele>
        <time>2022-05-01T10:37:24.703Z</time>
      </trkpt>
      <trkpt lat="42.60396701283753" lon="-8.59004502184689">
        <ele>162.0</ele>
        <time>2022-05-01T10:37:47.735Z</time>
      </trkpt>
      <trkpt lat="42.60339302010834" lon="-8.589862966910005">
        <ele>156.8</ele>
        <time>2022-05-01T10:38:00.115Z</time>
      </trkpt>
      <trkpt lat="42.60281198658049" lon="-8.58972399495542">
        <ele>150.2</ele>
        <time>2022-05-01T10:38:11.016Z</time>
      </trkpt>
      <trkpt lat="42.602624986320734" lon="-8.589705973863602">
        <ele>148.0</ele>
        <time>2022-05-01T10:38:14.114Z</time>
      </trkpt>
      <trkpt lat="42.60210597887635" lon="-8.589843017980456">
        <ele>141.7</ele>
        <time>2022-05-01T10:38:21.978Z</time>
      </trkpt>
      <trkpt lat="42.60191202163696" lon="-8.589966986328363">
        <ele>140.5</ele>
        <time>2022-05-01T10:38:24.797Z</time>
      </trkpt>
      <trkpt lat="42.60173700749874" lon="-8.589993976056576">
        <ele>138.0</ele>
        <time>2022-05-01T10:38:26.973Z</time>
      </trkpt>
      <trkpt lat="42.60132897645235" lon="-8.589886017143726">
        <ele>133.7</ele>
        <time>2022-05-01T10:38:32.557Z</time>
      </trkpt>
      <trkpt lat="42.60106201283634" lon="-8.589880988001823">
        <ele>132.0</ele>
        <time>2022-05-01T10:38:35.807Z</time>
      </trkpt>
      <trkpt lat="42.60091499425471" lon="-8.589814016595483">
        <ele>128.7</ele>
        <time>2022-05-01T10:38:37.594Z</time>
      </trkpt>
      <trkpt lat="42.60045901872218" lon="-8.589310012757778">
        <ele>118.1</ele>
        <time>2022-05-01T10:38:44.367Z</time>
      </trkpt>
      <trkpt lat="42.59995400905609" lon="-8.588771978393197">
        <ele>122.3</ele>
        <time>2022-05-01T10:38:52.157Z</time>
      </trkpt>
      <trkpt lat="42.59937699884176" lon="-8.588207960128784">
        <ele>127.5</ele>
        <time>2022-05-01T10:39:01.726Z</time>
      </trkpt>
      <trkpt lat="42.599188992753625" lon="-8.58806999400258">
        <ele>127.6</ele>
        <time>2022-05-01T10:39:04.886Z</time>
      </trkpt>
      <trkpt lat="42.598847011104226" lon="-8.587900009006262">
        <ele>126.5</ele>
        <time>2022-05-01T10:39:10.653Z</time>
      </trkpt>
      <trkpt lat="42.598588010296226" lon="-8.58783203177154">
        <ele>125.2</ele>
        <time>2022-05-01T10:39:15.131Z</time>
      </trkpt>
      <trkpt lat="42.59825399145484" lon="-8.587773023173213">
        <ele>126.6</ele>
        <time>2022-05-01T10:39:21.265Z</time>
      </trkpt>
      <trkpt lat="42.59790597483516" lon="-8.58774502761662">
        <ele>130.3</ele>
        <time>2022-05-01T10:39:28.236Z</time>
      </trkpt>
      <trkpt lat="42.59745301678777" lon="-8.587804036214948">
        <ele>133.2</ele>
        <time>2022-05-01T10:39:37.947Z</time>
      </trkpt>
      <trkpt lat="42.59722402319312" lon="-8.587857009842992">
        <ele>133.9</ele>
        <time>2022-05-01T10:39:43.207Z</time>
      </trkpt>
      <trkpt lat="42.59713098406792" lon="-8.587954994291067">
        <ele>134.5</ele>
        <time>2022-05-01T10:39:45.931Z</time>
      </trkpt>
      <trkpt lat="42.59703199379146" lon="-8.588130008429289">
        <ele>135.0</ele>
        <time>2022-05-01T10:39:49.773Z</time>
      </trkpt>
      <trkpt lat="42.59684097021818" lon="-8.588340980932117">
        <ele>134.5</ele>
        <time>2022-05-01T10:39:55.250Z</time>
      </trkpt>
      <trkpt lat="42.596656987443566" lon="-8.588448017835617">
        <ele>133.6</ele>
        <time>2022-05-01T10:39:59.354Z</time>
      </trkpt>
      <trkpt lat="42.59633696638048" lon="-8.588639963418245">
        <ele>131.5</ele>
        <time>2022-05-01T10:40:06.348Z</time>
      </trkpt>
      <trkpt lat="42.59612297639251" lon="-8.58867097645998">
        <ele>129.4</ele>
        <time>2022-05-01T10:40:10.172Z</time>
      </trkpt>
      <trkpt lat="42.59602197445929" lon="-8.588698972016573">
        <ele>128.1</ele>
        <time>2022-05-01T10:40:12.098Z</time>
      </trkpt>
      <trkpt lat="42.59592801332474" lon="-8.588811038061976">
        <ele>127.0</ele>
        <time>2022-05-01T10:40:14.160Z</time>
      </trkpt>
      <trkpt lat="42.595880990847945" lon="-8.588982028886676">
        <ele>126.8</ele>
        <time>2022-05-01T10:40:16.509Z</time>
      </trkpt>
      <trkpt lat="42.595792980864644" lon="-8.589468011632562">
        <ele>124.2</ele>
        <time>2022-05-01T10:40:22.970Z</time>
      </trkpt>
      <trkpt lat="42.59574302472174" lon="-8.589561972767115">
        <ele>123.4</ele>
        <time>2022-05-01T10:40:24.420Z</time>
      </trkpt>
      <trkpt lat="42.59565996006131" lon="-8.589634979143739">
        <ele>122.9</ele>
        <time>2022-05-01T10:40:26.196Z</time>
      </trkpt>
      <trkpt lat="42.59543800726533" lon="-8.589726006612182">
        <ele>122.3</ele>
        <time>2022-05-01T10:40:30.398Z</time>
      </trkpt>
      <trkpt lat="42.595212031155825" lon="-8.589819967746735">
        <ele>122.8</ele>
        <time>2022-05-01T10:40:34.741Z</time>
      </trkpt>
      <trkpt lat="42.595346979796886" lon="-8.589364998042583">
        <ele>123.0</ele>
        <time>2022-05-01T10:40:41.697Z</time>
      </trkpt>
      <trkpt lat="42.595473965629935" lon="-8.588834004476666">
        <ele>123.9</ele>
        <time>2022-05-01T10:40:49.952Z</time>
      </trkpt>
      <trkpt lat="42.595771020278335" lon="-8.588321032002568">
        <ele>126.1</ele>
        <time>2022-05-01T10:41:00.004Z</time>
      </trkpt>
      <trkpt lat="42.59593203663826" lon="-8.587499018758535">
        <ele>129.8</ele>
        <time>2022-05-01T10:41:14.551Z</time>
      </trkpt>
      <trkpt lat="42.596033960580826" lon="-8.586685974150896">
        <ele>133.8</ele>
        <time>2022-05-01T10:41:29.574Z</time>
      </trkpt>
      <trkpt lat="42.59574897587299" lon="-8.586224969476461">
        <ele>132.0</ele>
        <time>2022-05-01T10:41:41.006Z</time>
      </trkpt>
      <trkpt lat="42.595647973939776" lon="-8.585989018902183">
        <ele>133.9</ele>
        <time>2022-05-01T10:41:46.411Z</time>
      </trkpt>
      <trkpt lat="42.59570597670972" lon="-8.585604960098863">
        <ele>136.4</ele>
        <time>2022-05-01T10:41:54.156Z</time>
      </trkpt>
      <trkpt lat="42.59577898308635" lon="-8.585242023691535">
        <ele>139.0</ele>
        <time>2022-05-01T10:42:01.615Z</time>
      </trkpt>
      <trkpt lat="42.59583204053342" lon="-8.584904987365007">
        <ele>140.5</ele>
        <time>2022-05-01T10:42:08.886Z</time>
      </trkpt>
      <trkpt lat="42.59545703418553" lon="-8.5839849896729">
        <ele>140.2</ele>
        <time>2022-05-01T10:42:31.339Z</time>
      </trkpt>
      <trkpt lat="42.59517800062895" lon="-8.58379396609962">
        <ele>140.9</ele>
        <time>2022-05-01T10:42:40.273Z</time>
      </trkpt>
      <trkpt lat="42.59435799904168" lon="-8.584462003782392">
        <ele>142.7</ele>
        <time>2022-05-01T10:43:07.636Z</time>
      </trkpt>
      <trkpt lat="42.59223100729287" lon="-8.585959011688828">
        <ele>145.7</ele>
        <time>2022-05-01T10:44:15.632Z</time>
      </trkpt>
      <trkpt lat="42.59116256609559" lon="-8.587709991261363">
        <ele>152.7</ele>
        <time>2022-05-01T10:45:05.176Z</time>
      </trkpt>
      <trkpt lat="42.59069150313735" lon="-8.588395211845636">
        <ele>154.4</ele>
        <time>2022-05-01T10:45:25.358Z</time>
      </trkpt>
      <trkpt lat="42.59048614650965" lon="-8.588202595710754">
        <ele>156.9</ele>
        <time>2022-05-01T10:45:32.542Z</time>
      </trkpt>
      <trkpt lat="42.59020091034472" lon="-8.588148532435298">
        <ele>158.7</ele>
        <time>2022-05-01T10:45:41.678Z</time>
      </trkpt>
    </trkseg>
  </trk>
</gpx>
